<?xml version="1.0" encoding="UTF-8"?>
<gpx version="1.0"
 creator="Stadtplandienst"
 xmlns:xsi="http://www.w3.org/2001/XMLSchema-instance"
 xmlns="http://www.topografix.com/GPX/1/0"
 xsi:schemaLocation="http://www.topografix.com/GPX/1/0 http://www.topografix.com/GPX/1/0/gpx.xsd">
<time>2011-04-09T17:38:37.000+02:00</time>
<bounds minlat="52.313682" minlon="13.090646" maxlat="52.69996" maxlon="13.757798"/>
<trk><trkseg></trkseg>
<trkseg>

<trkpt lat="52.33926415443268" lon="13.353860378264994">
<time>2011-04-09T17:38:33.000+02:00</time>
<speed>0.0</speed>
<ele>59.0</ele>
</trkpt>
<trkpt lat="52.33936071395722" lon="13.353731632232279">
<time>2011-04-09T17:38:34.000+02:00</time>
<speed>0.0</speed>
<ele>82.0</ele>
</trkpt>
<trkpt lat="52.33926415443268" lon="13.353860378264994">
<time>2011-04-09T17:38:33.000+02:00</time>
<speed>0.0</speed>
<ele>59.0</ele>
</trkpt>
<trkpt lat="52.33936071395722" lon="13.353731632232279">
<time>2011-04-09T17:38:36.000+02:00</time>
<speed>0.0</speed>
<ele>82.0</ele>
</trkpt>
<trkpt lat="52.33926415443268" lon="13.353860378264994">
<time>2011-04-09T17:38:33.000+02:00</time>
<speed>0.0</speed>
<ele>59.0</ele>
</trkpt>
<trkpt lat="52.33936071395722" lon="13.353731632232279">
<time>2011-04-09T17:38:37.000+02:00</time>
<speed>0.0</speed>
<course>180.0</course>
<ele>82.0</ele>
</trkpt>
<trkpt lat="52.3393929004654" lon="13.353581428527445">
<time>2011-04-09T17:38:38.000+02:00</time>
<speed>0.0</speed>
<course>180.0</course>
<ele>96.0</ele>
</trkpt>
<trkpt lat="52.33926415443268" lon="13.353860378264994">
<time>2011-04-09T17:38:33.000+02:00</time>
<speed>0.0</speed>
<course>180.0</course>
<ele>59.0</ele>
</trkpt>
<trkpt lat="52.3393929004654" lon="13.353581428527445">
<time>2011-04-09T17:38:39.000+02:00</time>
<speed>0.0</speed>
<course>180.0</course>
<ele>96.0</ele>
</trkpt>
<trkpt lat="52.33926415443268" lon="13.353860378264994">
<time>2011-04-09T17:38:33.000+02:00</time>
<speed>0.0</speed>
<course>180.0</course>
<ele>59.0</ele>
</trkpt>
<trkpt lat="52.3393929004654" lon="13.353581428527445">
<time>2011-04-09T17:38:40.000+02:00</time>
<speed>0.0</speed>
<course>180.0</course>
<ele>96.0</ele>
</trkpt>
<trkpt lat="52.33926415443268" lon="13.353860378264994">
<time>2011-04-09T17:38:33.000+02:00</time>
<speed>0.0</speed>
<course>180.0</course>
<ele>59.0</ele>
</trkpt>
<trkpt lat="52.3393929004654" lon="13.353581428527445">
<time>2011-04-09T17:38:41.000+02:00</time>
<speed>0.0</speed>
<course>180.0</course>
<ele>96.0</ele>
</trkpt>
<trkpt lat="52.3393929004654" lon="13.353581428527445">
<time>2011-04-09T17:38:42.000+02:00</time>
<speed>0.0</speed>
<course>180.0</course>
<ele>96.0</ele>
</trkpt>
<trkpt lat="52.33926415443268" lon="13.353860378264994">
<time>2011-04-09T17:38:33.000+02:00</time>
<speed>0.0</speed>
<course>180.0</course>
<ele>59.0</ele>
</trkpt>
<trkpt lat="52.3393929004654" lon="13.353581428527445">
<time>2011-04-09T17:38:43.000+02:00</time>
<speed>0.0</speed>
<course>180.0</course>
<ele>96.0</ele>
</trkpt>
<trkpt lat="52.33926415443268" lon="13.353860378264994">
<time>2011-04-09T17:38:33.000+02:00</time>
<speed>0.0</speed>
<course>180.0</course>
<ele>59.0</ele>
</trkpt>
<trkpt lat="52.3393929004654" lon="13.353581428527445">
<time>2011-04-09T17:38:44.000+02:00</time>
<speed>0.0</speed>
<course>180.0</course>
<ele>96.0</ele>
</trkpt>
<trkpt lat="52.3393929004654" lon="13.353581428527445">
<time>2011-04-09T17:38:45.000+02:00</time>
<speed>0.0</speed>
<course>180.0</course>
<ele>96.0</ele>
</trkpt>
<trkpt lat="52.33926415443268" lon="13.353860378264994">
<time>2011-04-09T17:38:33.000+02:00</time>
<speed>0.0</speed>
<course>180.0</course>
<ele>59.0</ele>
</trkpt>
<trkpt lat="52.33930706977692" lon="13.353517055511087">
<time>2011-04-09T17:38:46.000+02:00</time>
<speed>0.0</speed>
<course>180.0</course>
<ele>92.0</ele>
</trkpt>
<trkpt lat="52.33926415443268" lon="13.353860378264994">
<time>2011-04-09T17:38:33.000+02:00</time>
<speed>0.0</speed>
<course>180.0</course>
<ele>59.0</ele>
</trkpt>
<trkpt lat="52.33930706977692" lon="13.353517055511087">
<time>2011-04-09T17:38:47.000+02:00</time>
<speed>0.0</speed>
<course>180.0</course>
<ele>92.0</ele>
</trkpt>
<trkpt lat="52.33930706977692" lon="13.353517055511087">
<time>2011-04-09T17:38:48.000+02:00</time>
<speed>0.0</speed>
<course>180.0</course>
<ele>92.0</ele>
</trkpt>
<trkpt lat="52.33926415443268" lon="13.353860378264994">
<time>2011-04-09T17:38:33.000+02:00</time>
<speed>0.0</speed>
<course>180.0</course>
<ele>59.0</ele>
</trkpt>
<trkpt lat="52.33927488326874" lon="13.353474140166849">
<time>2011-04-09T17:38:49.000+02:00</time>
<speed>0.0</speed>
<course>180.0</course>
<ele>89.0</ele>
</trkpt>
<trkpt lat="52.33926415443268" lon="13.353860378264994">
<time>2011-04-09T17:38:33.000+02:00</time>
<speed>0.0</speed>
<course>180.0</course>
<ele>59.0</ele>
</trkpt>
<trkpt lat="52.33927488326874" lon="13.353474140166849">
<time>2011-04-09T17:38:50.000+02:00</time>
<speed>0.0</speed>
<course>180.0</course>
<ele>89.0</ele>
</trkpt>
<trkpt lat="52.33926415443268" lon="13.353860378264994">
<time>2011-04-09T17:38:33.000+02:00</time>
<speed>0.0</speed>
<course>180.0</course>
<ele>59.0</ele>
</trkpt>
<trkpt lat="52.33927488326874" lon="13.353474140166849">
<time>2011-04-09T17:38:51.000+02:00</time>
<speed>0.0</speed>
<course>180.0</course>
<ele>89.0</ele>
</trkpt>
<trkpt lat="52.33926415443268" lon="13.353860378264994">
<time>2011-04-09T17:38:33.000+02:00</time>
<speed>0.0</speed>
<course>180.0</course>
<ele>59.0</ele>
</trkpt>
<trkpt lat="52.33927488326874" lon="13.353474140166849">
<time>2011-04-09T17:38:52.000+02:00</time>
<speed>0.0</speed>
<course>180.0</course>
<ele>89.0</ele>
</trkpt>
<trkpt lat="52.33927488326874" lon="13.353474140166849">
<time>2011-04-09T17:38:53.000+02:00</time>
<speed>0.0</speed>
<course>180.0</course>
<ele>89.0</ele>
</trkpt>
<trkpt lat="52.33926415443268" lon="13.353860378264994">
<time>2011-04-09T17:38:33.000+02:00</time>
<speed>0.0</speed>
<course>180.0</course>
<ele>59.0</ele>
</trkpt>
<trkpt lat="52.33927488326874" lon="13.353474140166849">
<time>2011-04-09T17:38:54.000+02:00</time>
<speed>0.0</speed>
<course>180.0</course>
<ele>89.0</ele>
</trkpt>
<trkpt lat="52.33926415443268" lon="13.353860378264994">
<time>2011-04-09T17:38:33.000+02:00</time>
<speed>0.0</speed>
<course>180.0</course>
<ele>59.0</ele>
</trkpt>
<trkpt lat="52.33927488326874" lon="13.353474140166849">
<time>2011-04-09T17:38:55.000+02:00</time>
<speed>0.0</speed>
<course>180.0</course>
<ele>89.0</ele>
</trkpt>
<trkpt lat="52.33927488326874" lon="13.353474140166849">
<time>2011-04-09T17:38:56.000+02:00</time>
<speed>0.0</speed>
<course>180.0</course>
<ele>89.0</ele>
</trkpt>
<trkpt lat="52.33927488326874" lon="13.353474140166849">
<time>2011-04-09T17:38:57.000+02:00</time>
<speed>0.0</speed>
<course>180.0</course>
<ele>89.0</ele>
</trkpt>
<trkpt lat="52.33927488326874" lon="13.353474140166849">
<time>2011-04-09T17:38:58.000+02:00</time>
<speed>0.0</speed>
<course>180.0</course>
<ele>89.0</ele>
</trkpt>
<trkpt lat="52.33934998512116" lon="13.353409767150492">
<time>2011-04-09T17:38:59.000+02:00</time>
<speed>1.1111112</speed>
<course>345.0</course>
<ele>89.0</ele>
</trkpt>
<trkpt lat="52.33934998512116" lon="13.353409767150492">
<time>2011-04-09T17:39:00.000+02:00</time>
<speed>0.0</speed>
<course>345.0</course>
<ele>89.0</ele>
</trkpt>
<trkpt lat="52.33934998512116" lon="13.353409767150492">
<time>2011-04-09T17:39:01.000+02:00</time>
<speed>0.0</speed>
<course>345.0</course>
<ele>89.0</ele>
</trkpt>
<trkpt lat="52.33938217162934" lon="13.353388309478373">
<time>2011-04-09T17:39:02.000+02:00</time>
<speed>1.1111112</speed>
<course>348.0</course>
<ele>88.0</ele>
</trkpt>
<trkpt lat="52.3393929004654" lon="13.353388309478373">
<time>2011-04-09T17:39:03.000+02:00</time>
<speed>1.1111112</speed>
<course>348.0</course>
<ele>87.0</ele>
</trkpt>
<trkpt lat="52.33940362930146" lon="13.353388309478373">
<time>2011-04-09T17:39:04.000+02:00</time>
<speed>0.8333333</speed>
<course>348.0</course>
<ele>87.0</ele>
</trkpt>
<trkpt lat="52.33941435813752" lon="13.353388309478373">
<time>2011-04-09T17:39:05.000+02:00</time>
<speed>0.8333333</speed>
<course>351.0</course>
<ele>87.0</ele>
</trkpt>
<trkpt lat="52.33941435813752" lon="13.353388309478373">
<time>2011-04-09T17:39:06.000+02:00</time>
<speed>0.0</speed>
<course>351.0</course>
<ele>87.0</ele>
</trkpt>
<trkpt lat="52.33941435813752" lon="13.353388309478373">
<time>2011-04-09T17:39:07.000+02:00</time>
<speed>0.0</speed>
<course>351.0</course>
<ele>87.0</ele>
</trkpt>
<trkpt lat="52.33941435813752" lon="13.353409767150492">
<time>2011-04-09T17:39:08.000+02:00</time>
<speed>0.0</speed>
<course>351.0</course>
<ele>87.0</ele>
</trkpt>
<trkpt lat="52.33941435813752" lon="13.353409767150492">
<time>2011-04-09T17:39:09.000+02:00</time>
<speed>0.0</speed>
<course>351.0</course>
<ele>87.0</ele>
</trkpt>
<trkpt lat="52.33941435813752" lon="13.353409767150492">
<time>2011-04-09T17:39:10.000+02:00</time>
<speed>0.0</speed>
<course>351.0</course>
<ele>87.0</ele>
</trkpt>
<trkpt lat="52.33941435813752" lon="13.353409767150492">
<time>2011-04-09T17:39:11.000+02:00</time>
<speed>0.0</speed>
<course>351.0</course>
<ele>87.0</ele>
</trkpt>
<trkpt lat="52.33941435813752" lon="13.353409767150492">
<time>2011-04-09T17:39:12.000+02:00</time>
<speed>0.0</speed>
<course>351.0</course>
<ele>87.0</ele>
</trkpt>
<trkpt lat="52.33941435813752" lon="13.353409767150492">
<time>2011-04-09T17:39:13.000+02:00</time>
<speed>0.0</speed>
<course>351.0</course>
<ele>87.0</ele>
</trkpt>
<trkpt lat="52.33940362930146" lon="13.353409767150492">
<time>2011-04-09T17:39:14.000+02:00</time>
<speed>0.0</speed>
<course>351.0</course>
<ele>87.0</ele>
</trkpt>
<trkpt lat="52.33940362930146" lon="13.353409767150492">
<time>2011-04-09T17:39:15.000+02:00</time>
<speed>0.0</speed>
<course>351.0</course>
<ele>87.0</ele>
</trkpt>
<trkpt lat="52.33940362930146" lon="13.353409767150492">
<time>2011-04-09T17:39:16.000+02:00</time>
<speed>0.0</speed>
<course>351.0</course>
<ele>87.0</ele>
</trkpt>
<trkpt lat="52.33940362930146" lon="13.353409767150492">
<time>2011-04-09T17:39:17.000+02:00</time>
<speed>0.0</speed>
<course>351.0</course>
<ele>87.0</ele>
</trkpt>
<trkpt lat="52.33940362930146" lon="13.353409767150492">
<time>2011-04-09T17:39:18.000+02:00</time>
<speed>0.0</speed>
<course>351.0</course>
<ele>87.0</ele>
</trkpt>
<trkpt lat="52.3393929004654" lon="13.353409767150492">
<time>2011-04-09T17:39:19.000+02:00</time>
<speed>0.0</speed>
<course>351.0</course>
<ele>87.0</ele>
</trkpt>
<trkpt lat="52.3393929004654" lon="13.353409767150492">
<time>2011-04-09T17:39:20.000+02:00</time>
<speed>0.0</speed>
<course>351.0</course>
<ele>87.0</ele>
</trkpt>
<trkpt lat="52.3393929004654" lon="13.353409767150492">
<time>2011-04-09T17:39:21.000+02:00</time>
<speed>0.0</speed>
<course>351.0</course>
<ele>87.0</ele>
</trkpt>
<trkpt lat="52.3393929004654" lon="13.353409767150492">
<time>2011-04-09T17:39:22.000+02:00</time>
<speed>0.0</speed>
<course>351.0</course>
<ele>87.0</ele>
</trkpt>
<trkpt lat="52.3393929004654" lon="13.353409767150492">
<time>2011-04-09T17:39:23.000+02:00</time>
<speed>0.0</speed>
<course>351.0</course>
<ele>87.0</ele>
</trkpt>
<trkpt lat="52.3393929004654" lon="13.353409767150492">
<time>2011-04-09T17:39:24.000+02:00</time>
<speed>0.0</speed>
<course>351.0</course>
<ele>87.0</ele>
</trkpt>
<trkpt lat="52.33940362930146" lon="13.353409767150492">
<time>2011-04-09T17:39:25.000+02:00</time>
<speed>0.0</speed>
<course>351.0</course>
<ele>87.0</ele>
</trkpt>
<trkpt lat="52.33940362930146" lon="13.35343122482261">
<time>2011-04-09T17:39:26.000+02:00</time>
<speed>0.0</speed>
<course>351.0</course>
<ele>87.0</ele>
</trkpt>
<trkpt lat="52.33940362930146" lon="13.35343122482261">
<time>2011-04-09T17:39:27.000+02:00</time>
<speed>0.2777778</speed>
<course>351.0</course>
<ele>87.0</ele>
</trkpt>
<trkpt lat="52.33941435813752" lon="13.35343122482261">
<time>2011-04-09T17:39:28.000+02:00</time>
<speed>0.5555556</speed>
<course>18.0</course>
<ele>87.0</ele>
</trkpt>
<trkpt lat="52.33942508697358" lon="13.35343122482261">
<time>2011-04-09T17:39:29.000+02:00</time>
<speed>0.5555556</speed>
<course>20.0</course>
<ele>87.0</ele>
</trkpt>
<trkpt lat="52.33943581580964" lon="13.35345268249473">
<time>2011-04-09T17:39:30.000+02:00</time>
<speed>0.5555556</speed>
<course>23.0</course>
<ele>87.0</ele>
</trkpt>
<trkpt lat="52.339446544645696" lon="13.35345268249473">
<time>2011-04-09T17:39:31.000+02:00</time>
<speed>0.5555556</speed>
<course>27.0</course>
<ele>87.0</ele>
</trkpt>
<trkpt lat="52.339468002317815" lon="13.353474140166849">
<time>2011-04-09T17:39:32.000+02:00</time>
<speed>0.8333333</speed>
<course>26.0</course>
<ele>87.0</ele>
</trkpt>
<trkpt lat="52.339489459989935" lon="13.353474140166849">
<time>2011-04-09T17:39:33.000+02:00</time>
<speed>0.8333333</speed>
<course>34.0</course>
<ele>87.0</ele>
</trkpt>
<trkpt lat="52.339500188825994" lon="13.353495597838968">
<time>2011-04-09T17:39:34.000+02:00</time>
<speed>0.8333333</speed>
<course>36.0</course>
<ele>87.0</ele>
</trkpt>
<trkpt lat="52.33952164649811" lon="13.353495597838968">
<time>2011-04-09T17:39:35.000+02:00</time>
<speed>0.8333333</speed>
<course>42.0</course>
<ele>87.0</ele>
</trkpt>
<trkpt lat="52.33953237533417" lon="13.353517055511087">
<time>2011-04-09T17:39:36.000+02:00</time>
<speed>0.8333333</speed>
<course>45.0</course>
<ele>87.0</ele>
</trkpt>
<trkpt lat="52.33954310417023" lon="13.353517055511087">
<time>2011-04-09T17:39:37.000+02:00</time>
<speed>0.8333333</speed>
<course>46.0</course>
<ele>87.0</ele>
</trkpt>
<trkpt lat="52.33954310417023" lon="13.353538513183207">
<time>2011-04-09T17:39:38.000+02:00</time>
<speed>0.8333333</speed>
<course>46.0</course>
<ele>87.0</ele>
</trkpt>
<trkpt lat="52.33955383300629" lon="13.353538513183207">
<time>2011-04-09T17:39:39.000+02:00</time>
<speed>0.8333333</speed>
<course>48.0</course>
<ele>87.0</ele>
</trkpt>
<trkpt lat="52.33956456184235" lon="13.353559970855326">
<time>2011-04-09T17:39:40.000+02:00</time>
<speed>0.8333333</speed>
<course>51.0</course>
<ele>87.0</ele>
</trkpt>
<trkpt lat="52.33957529067841" lon="13.353581428527445">
<time>2011-04-09T17:39:42.000+02:00</time>
<speed>0.8333333</speed>
<course>50.0</course>
<ele>87.0</ele>
</trkpt>
<trkpt lat="52.33958601951447" lon="13.353581428527445">
<time>2011-04-09T17:39:43.000+02:00</time>
<speed>0.8333333</speed>
<course>49.0</course>
<ele>87.0</ele>
</trkpt>
<trkpt lat="52.33959674835053" lon="13.353602886199564">
<time>2011-04-09T17:39:44.000+02:00</time>
<speed>0.8333333</speed>
<course>53.0</course>
<ele>87.0</ele>
</trkpt>
<trkpt lat="52.33959674835053" lon="13.353624343871683">
<time>2011-04-09T17:39:45.000+02:00</time>
<speed>0.8333333</speed>
<course>53.0</course>
<ele>87.0</ele>
</trkpt>
<trkpt lat="52.33960747718659" lon="13.353624343871683">
<time>2011-04-09T17:39:46.000+02:00</time>
<speed>0.8333333</speed>
<course>52.0</course>
<ele>86.0</ele>
</trkpt>
<trkpt lat="52.33960747718659" lon="13.353645801543802">
<time>2011-04-09T17:39:47.000+02:00</time>
<speed>0.8333333</speed>
<course>52.0</course>
<ele>86.0</ele>
</trkpt>
<trkpt lat="52.33961820602265" lon="13.353645801543802">
<time>2011-04-09T17:39:48.000+02:00</time>
<speed>0.8333333</speed>
<course>54.0</course>
<ele>86.0</ele>
</trkpt>
<trkpt lat="52.33961820602265" lon="13.353667259215921">
<time>2011-04-09T17:39:49.000+02:00</time>
<speed>0.8333333</speed>
<course>54.0</course>
<ele>86.0</ele>
</trkpt>
<trkpt lat="52.33962893485871" lon="13.353667259215921">
<time>2011-04-09T17:39:50.000+02:00</time>
<speed>0.8333333</speed>
<course>54.0</course>
<ele>86.0</ele>
</trkpt>
<trkpt lat="52.33962893485871" lon="13.35368871688804">
<time>2011-04-09T17:39:51.000+02:00</time>
<speed>0.8333333</speed>
<course>55.0</course>
<ele>86.0</ele>
</trkpt>
<trkpt lat="52.33963966369477" lon="13.35371017456016">
<time>2011-04-09T17:39:52.000+02:00</time>
<speed>0.8333333</speed>
<course>52.0</course>
<ele>86.0</ele>
</trkpt>
<trkpt lat="52.33965039253083" lon="13.353731632232279">
<time>2011-04-09T17:39:53.000+02:00</time>
<speed>1.1111112</speed>
<course>51.0</course>
<ele>86.0</ele>
</trkpt>
<trkpt lat="52.33966112136689" lon="13.353731632232279">
<time>2011-04-09T17:39:54.000+02:00</time>
<speed>1.1111112</speed>
<course>49.0</course>
<ele>86.0</ele>
</trkpt>
<trkpt lat="52.33967185020295" lon="13.353753089904398">
<time>2011-04-09T17:39:55.000+02:00</time>
<speed>1.1111112</speed>
<course>47.0</course>
<ele>86.0</ele>
</trkpt>
<trkpt lat="52.33968257903901" lon="13.353774547576517">
<time>2011-04-09T17:39:56.000+02:00</time>
<speed>1.1111112</speed>
<course>46.0</course>
<ele>86.0</ele>
</trkpt>
<trkpt lat="52.339693307875066" lon="13.353774547576517">
<time>2011-04-09T17:39:57.000+02:00</time>
<speed>1.1111112</speed>
<course>47.0</course>
<ele>86.0</ele>
</trkpt>
<trkpt lat="52.339693307875066" lon="13.353796005248636">
<time>2011-04-09T17:39:58.000+02:00</time>
<speed>1.1111112</speed>
<course>43.0</course>
<ele>86.0</ele>
</trkpt>
<trkpt lat="52.339704036711126" lon="13.353817462920755">
<time>2011-04-09T17:39:59.000+02:00</time>
<speed>1.1111112</speed>
<course>42.0</course>
<ele>86.0</ele>
</trkpt>
<trkpt lat="52.339714765547185" lon="13.353817462920755">
<time>2011-04-09T17:40:00.000+02:00</time>
<speed>1.1111112</speed>
<course>40.0</course>
<ele>86.0</ele>
</trkpt>
<trkpt lat="52.339725494383245" lon="13.353838920592874">
<time>2011-04-09T17:40:01.000+02:00</time>
<speed>1.1111112</speed>
<course>36.0</course>
<ele>86.0</ele>
</trkpt>
<trkpt lat="52.339736223219305" lon="13.353838920592874">
<time>2011-04-09T17:40:02.000+02:00</time>
<speed>1.1111112</speed>
<course>30.0</course>
<ele>86.0</ele>
</trkpt>
<trkpt lat="52.339746952055364" lon="13.353838920592874">
<time>2011-04-09T17:40:03.000+02:00</time>
<speed>1.1111112</speed>
<course>30.0</course>
<ele>86.0</ele>
</trkpt>
<trkpt lat="52.339757680891424" lon="13.353860378264994">
<time>2011-04-09T17:40:04.000+02:00</time>
<speed>1.1111112</speed>
<course>29.0</course>
<ele>86.0</ele>
</trkpt>
<trkpt lat="52.33976840972748" lon="13.353860378264994">
<time>2011-04-09T17:40:05.000+02:00</time>
<speed>1.1111112</speed>
<course>24.0</course>
<ele>86.0</ele>
</trkpt>
<trkpt lat="52.33977913856354" lon="13.353860378264994">
<time>2011-04-09T17:40:06.000+02:00</time>
<speed>1.3888888</speed>
<course>18.0</course>
<ele>86.0</ele>
</trkpt>
<trkpt lat="52.33980059623566" lon="13.353860378264994">
<time>2011-04-09T17:40:07.000+02:00</time>
<speed>1.3888888</speed>
<course>12.0</course>
<ele>86.0</ele>
</trkpt>
<trkpt lat="52.33982205390778" lon="13.353881835937113">
<time>2011-04-09T17:40:08.000+02:00</time>
<speed>1.9444444</speed>
<course>9.0</course>
<ele>86.0</ele>
</trkpt>
<trkpt lat="52.3398435115799" lon="13.353881835937113">
<time>2011-04-09T17:40:09.000+02:00</time>
<speed>2.2222223</speed>
<course>6.0</course>
<ele>86.0</ele>
</trkpt>
<trkpt lat="52.33987569808808" lon="13.353860378264994">
<time>2011-04-09T17:40:10.000+02:00</time>
<speed>2.2222223</speed>
<course>3.0</course>
<ele>86.0</ele>
</trkpt>
<trkpt lat="52.3398971557602" lon="13.353860378264994">
<time>2011-04-09T17:40:11.000+02:00</time>
<speed>2.2222223</speed>
<course>3.0</course>
<ele>86.0</ele>
</trkpt>
<trkpt lat="52.33991861343232" lon="13.353860378264994">
<time>2011-04-09T17:40:12.000+02:00</time>
<speed>1.9444444</speed>
<course>2.0</course>
<ele>86.0</ele>
</trkpt>
<trkpt lat="52.33994007110444" lon="13.353860378264994">
<time>2011-04-09T17:40:13.000+02:00</time>
<speed>1.9444444</speed>
<course>358.0</course>
<ele>86.0</ele>
</trkpt>
<trkpt lat="52.339961528776556" lon="13.353860378264994">
<time>2011-04-09T17:40:14.000+02:00</time>
<speed>1.9444444</speed>
<course>356.0</course>
<ele>86.0</ele>
</trkpt>
<trkpt lat="52.339982986448675" lon="13.353860378264994">
<time>2011-04-09T17:40:15.000+02:00</time>
<speed>1.9444444</speed>
<course>357.0</course>
<ele>86.0</ele>
</trkpt>
<trkpt lat="52.340004444120794" lon="13.353860378264994">
<time>2011-04-09T17:40:16.000+02:00</time>
<speed>1.6666666</speed>
<course>0.0</course>
<ele>86.0</ele>
</trkpt>
<trkpt lat="52.34001517295685" lon="13.353860378264994">
<time>2011-04-09T17:40:17.000+02:00</time>
<speed>1.6666666</speed>
<course>1.0</course>
<ele>86.0</ele>
</trkpt>
<trkpt lat="52.34003663062897" lon="13.353860378264994">
<time>2011-04-09T17:40:18.000+02:00</time>
<speed>1.6666666</speed>
<course>0.0</course>
<ele>86.0</ele>
</trkpt>
<trkpt lat="52.34005808830109" lon="13.353860378264994">
<time>2011-04-09T17:40:19.000+02:00</time>
<speed>1.6666666</speed>
<course>0.0</course>
<ele>86.0</ele>
</trkpt>
<trkpt lat="52.34006881713715" lon="13.353860378264994">
<time>2011-04-09T17:40:20.000+02:00</time>
<speed>1.6666666</speed>
<course>0.0</course>
<ele>86.0</ele>
</trkpt>
<trkpt lat="52.34009027480927" lon="13.353860378264994">
<time>2011-04-09T17:40:21.000+02:00</time>
<speed>1.6666666</speed>
<course>1.0</course>
<ele>86.0</ele>
</trkpt>
<trkpt lat="52.34011173248139" lon="13.353860378264994">
<time>2011-04-09T17:40:22.000+02:00</time>
<speed>1.6666666</speed>
<course>0.0</course>
<ele>86.0</ele>
</trkpt>
<trkpt lat="52.34012246131745" lon="13.353860378264994">
<time>2011-04-09T17:40:23.000+02:00</time>
<speed>1.6666666</speed>
<course>0.0</course>
<ele>86.0</ele>
</trkpt>
<trkpt lat="52.34014391898957" lon="13.353838920592874">
<time>2011-04-09T17:40:24.000+02:00</time>
<speed>1.6666666</speed>
<course>0.0</course>
<ele>86.0</ele>
</trkpt>
<trkpt lat="52.34015464782563" lon="13.353838920592874">
<time>2011-04-09T17:40:25.000+02:00</time>
<speed>1.6666666</speed>
<course>358.0</course>
<ele>86.0</ele>
</trkpt>
<trkpt lat="52.34017610549775" lon="13.353838920592874">
<time>2011-04-09T17:40:26.000+02:00</time>
<speed>1.6666666</speed>
<course>357.0</course>
<ele>86.0</ele>
</trkpt>
<trkpt lat="52.34018683433381" lon="13.353838920592874">
<time>2011-04-09T17:40:27.000+02:00</time>
<speed>1.6666666</speed>
<course>356.0</course>
<ele>86.0</ele>
</trkpt>
<trkpt lat="52.340208292005926" lon="13.353838920592874">
<time>2011-04-09T17:40:28.000+02:00</time>
<speed>1.6666666</speed>
<course>356.0</course>
<ele>86.0</ele>
</trkpt>
<trkpt lat="52.340229749678045" lon="13.353838920592874">
<time>2011-04-09T17:40:29.000+02:00</time>
<speed>1.6666666</speed>
<course>358.0</course>
<ele>86.0</ele>
</trkpt>
<trkpt lat="52.340251207350164" lon="13.353838920592874">
<time>2011-04-09T17:40:30.000+02:00</time>
<speed>1.9444444</speed>
<course>359.0</course>
<ele>86.0</ele>
</trkpt>
<trkpt lat="52.34027266502228" lon="13.353838920592874">
<time>2011-04-09T17:40:31.000+02:00</time>
<speed>1.9444444</speed>
<course>0.0</course>
<ele>86.0</ele>
</trkpt>
<trkpt lat="52.3402941226944" lon="13.353838920592874">
<time>2011-04-09T17:40:32.000+02:00</time>
<speed>1.9444444</speed>
<course>1.0</course>
<ele>86.0</ele>
</trkpt>
<trkpt lat="52.34031558036652" lon="13.353838920592874">
<time>2011-04-09T17:40:33.000+02:00</time>
<speed>1.9444444</speed>
<course>2.0</course>
<ele>86.0</ele>
</trkpt>
<trkpt lat="52.34033703803864" lon="13.353838920592874">
<time>2011-04-09T17:40:34.000+02:00</time>
<speed>1.9444444</speed>
<course>1.0</course>
<ele>86.0</ele>
</trkpt>
<trkpt lat="52.34035849571076" lon="13.353838920592874">
<time>2011-04-09T17:40:35.000+02:00</time>
<speed>1.9444444</speed>
<course>1.0</course>
<ele>86.0</ele>
</trkpt>
<trkpt lat="52.34037995338288" lon="13.353838920592874">
<time>2011-04-09T17:40:36.000+02:00</time>
<speed>1.9444444</speed>
<course>1.0</course>
<ele>86.0</ele>
</trkpt>
<trkpt lat="52.340401411055" lon="13.353838920592874">
<time>2011-04-09T17:40:37.000+02:00</time>
<speed>1.9444444</speed>
<course>0.0</course>
<ele>86.0</ele>
</trkpt>
<trkpt lat="52.34042286872712" lon="13.353838920592874">
<time>2011-04-09T17:40:38.000+02:00</time>
<speed>1.9444444</speed>
<course>0.0</course>
<ele>86.0</ele>
</trkpt>
<trkpt lat="52.340465784071355" lon="13.353838920592874">
<time>2011-04-09T17:40:40.000+02:00</time>
<speed>1.9444444</speed>
<course>2.0</course>
<ele>86.0</ele>
</trkpt>
<trkpt lat="52.340487241743475" lon="13.353860378264994">
<time>2011-04-09T17:40:41.000+02:00</time>
<speed>1.9444444</speed>
<course>2.0</course>
<ele>86.0</ele>
</trkpt>
<trkpt lat="52.340497970579534" lon="13.353860378264994">
<time>2011-04-09T17:40:42.000+02:00</time>
<speed>1.9444444</speed>
<course>3.0</course>
<ele>86.0</ele>
</trkpt>
<trkpt lat="52.34051942825165" lon="13.353860378264994">
<time>2011-04-09T17:40:43.000+02:00</time>
<speed>1.9444444</speed>
<course>2.0</course>
<ele>86.0</ele>
</trkpt>
<trkpt lat="52.34054088592377" lon="13.353860378264994">
<time>2011-04-09T17:40:44.000+02:00</time>
<speed>1.9444444</speed>
<course>1.0</course>
<ele>86.0</ele>
</trkpt>
<trkpt lat="52.34056234359589" lon="13.353860378264994">
<time>2011-04-09T17:40:45.000+02:00</time>
<speed>1.9444444</speed>
<course>2.0</course>
<ele>86.0</ele>
</trkpt>
<trkpt lat="52.34057307243195" lon="13.353860378264994">
<time>2011-04-09T17:40:46.000+02:00</time>
<speed>1.6666666</speed>
<course>2.0</course>
<ele>86.0</ele>
</trkpt>
<trkpt lat="52.34059453010407" lon="13.353860378264994">
<time>2011-04-09T17:40:47.000+02:00</time>
<speed>1.6666666</speed>
<course>3.0</course>
<ele>86.0</ele>
</trkpt>
<trkpt lat="52.34061598777619" lon="13.353860378264994">
<time>2011-04-09T17:40:48.000+02:00</time>
<speed>1.6666666</speed>
<course>1.0</course>
<ele>86.0</ele>
</trkpt>
<trkpt lat="52.34063744544831" lon="13.353860378264994">
<time>2011-04-09T17:40:49.000+02:00</time>
<speed>1.6666666</speed>
<course>1.0</course>
<ele>87.0</ele>
</trkpt>
<trkpt lat="52.34065890312043" lon="13.353860378264994">
<time>2011-04-09T17:40:50.000+02:00</time>
<speed>1.6666666</speed>
<course>0.0</course>
<ele>87.0</ele>
</trkpt>
<trkpt lat="52.34068036079255" lon="13.353860378264994">
<time>2011-04-09T17:40:51.000+02:00</time>
<speed>1.6666666</speed>
<course>1.0</course>
<ele>87.0</ele>
</trkpt>
<trkpt lat="52.340701818464666" lon="13.353860378264994">
<time>2011-04-09T17:40:52.000+02:00</time>
<speed>1.6666666</speed>
<course>0.0</course>
<ele>87.0</ele>
</trkpt>
<trkpt lat="52.340723276136785" lon="13.353860378264994">
<time>2011-04-09T17:40:53.000+02:00</time>
<speed>1.6666666</speed>
<course>358.0</course>
<ele>87.0</ele>
</trkpt>
<trkpt lat="52.340744733808904" lon="13.353860378264994">
<time>2011-04-09T17:40:54.000+02:00</time>
<speed>1.6666666</speed>
<course>357.0</course>
<ele>87.0</ele>
</trkpt>
<trkpt lat="52.340755462644964" lon="13.353860378264994">
<time>2011-04-09T17:40:55.000+02:00</time>
<speed>1.6666666</speed>
<course>357.0</course>
<ele>87.0</ele>
</trkpt>
<trkpt lat="52.34077692031708" lon="13.353860378264994">
<time>2011-04-09T17:40:56.000+02:00</time>
<speed>1.6666666</speed>
<course>359.0</course>
<ele>87.0</ele>
</trkpt>
<trkpt lat="52.3407983779892" lon="13.353860378264994">
<time>2011-04-09T17:40:57.000+02:00</time>
<speed>1.6666666</speed>
<course>0.0</course>
<ele>87.0</ele>
</trkpt>
<trkpt lat="52.34081983566132" lon="13.353860378264994">
<time>2011-04-09T17:40:58.000+02:00</time>
<speed>1.6666666</speed>
<course>0.0</course>
<ele>87.0</ele>
</trkpt>
<trkpt lat="52.34084129333344" lon="13.353860378264994">
<time>2011-04-09T17:40:59.000+02:00</time>
<speed>1.6666666</speed>
<course>1.0</course>
<ele>87.0</ele>
</trkpt>
<trkpt lat="52.34086275100556" lon="13.353860378264994">
<time>2011-04-09T17:41:00.000+02:00</time>
<speed>1.6666666</speed>
<course>0.0</course>
<ele>87.0</ele>
</trkpt>
<trkpt lat="52.34088420867768" lon="13.353860378264994">
<time>2011-04-09T17:41:01.000+02:00</time>
<speed>1.6666666</speed>
<course>1.0</course>
<ele>87.0</ele>
</trkpt>
<trkpt lat="52.3409056663498" lon="13.353860378264994">
<time>2011-04-09T17:41:02.000+02:00</time>
<speed>1.6666666</speed>
<course>2.0</course>
<ele>88.0</ele>
</trkpt>
<trkpt lat="52.34091639518586" lon="13.353881835937113">
<time>2011-04-09T17:41:03.000+02:00</time>
<speed>1.6666666</speed>
<course>3.0</course>
<ele>88.0</ele>
</trkpt>
<trkpt lat="52.34093785285798" lon="13.353860378264994">
<time>2011-04-09T17:41:04.000+02:00</time>
<speed>1.6666666</speed>
<course>0.0</course>
<ele>88.0</ele>
</trkpt>
<trkpt lat="52.340959310530096" lon="13.353860378264994">
<time>2011-04-09T17:41:05.000+02:00</time>
<speed>1.6666666</speed>
<course>0.0</course>
<ele>88.0</ele>
</trkpt>
<trkpt lat="52.340980768202215" lon="13.353860378264994">
<time>2011-04-09T17:41:06.000+02:00</time>
<speed>1.9444444</speed>
<course>1.0</course>
<ele>88.0</ele>
</trkpt>
<trkpt lat="52.341002225874334" lon="13.353860378264994">
<time>2011-04-09T17:41:07.000+02:00</time>
<speed>1.9444444</speed>
<course>359.0</course>
<ele>88.0</ele>
</trkpt>
<trkpt lat="52.34102368354645" lon="13.353860378264994">
<time>2011-04-09T17:41:08.000+02:00</time>
<speed>1.6666666</speed>
<course>0.0</course>
<ele>88.0</ele>
</trkpt>
<trkpt lat="52.34104514121857" lon="13.353860378264994">
<time>2011-04-09T17:41:09.000+02:00</time>
<speed>1.6666666</speed>
<course>0.0</course>
<ele>88.0</ele>
</trkpt>
<trkpt lat="52.34106659889069" lon="13.353860378264994">
<time>2011-04-09T17:41:10.000+02:00</time>
<speed>1.6666666</speed>
<course>0.0</course>
<ele>88.0</ele>
</trkpt>
<trkpt lat="52.34108805656281" lon="13.353860378264994">
<time>2011-04-09T17:41:11.000+02:00</time>
<speed>1.6666666</speed>
<course>0.0</course>
<ele>88.0</ele>
</trkpt>
<trkpt lat="52.34110951423493" lon="13.353860378264994">
<time>2011-04-09T17:41:12.000+02:00</time>
<speed>1.6666666</speed>
<course>0.0</course>
<ele>88.0</ele>
</trkpt>
<trkpt lat="52.34113097190705" lon="13.353860378264994">
<time>2011-04-09T17:41:13.000+02:00</time>
<speed>1.9444444</speed>
<course>359.0</course>
<ele>88.0</ele>
</trkpt>
<trkpt lat="52.34115242957917" lon="13.353881835937113">
<time>2011-04-09T17:41:14.000+02:00</time>
<speed>1.9444444</speed>
<course>359.0</course>
<ele>88.0</ele>
</trkpt>
<trkpt lat="52.34117388725129" lon="13.353881835937113">
<time>2011-04-09T17:41:15.000+02:00</time>
<speed>1.9444444</speed>
<course>358.0</course>
<ele>88.0</ele>
</trkpt>
<trkpt lat="52.341195344923406" lon="13.353881835937113">
<time>2011-04-09T17:41:16.000+02:00</time>
<speed>2.2222223</speed>
<course>359.0</course>
<ele>88.0</ele>
</trkpt>
<trkpt lat="52.341227531431585" lon="13.353881835937113">
<time>2011-04-09T17:41:17.000+02:00</time>
<speed>2.2222223</speed>
<course>0.0</course>
<ele>88.0</ele>
</trkpt>
<trkpt lat="52.341248989103704" lon="13.353881835937113">
<time>2011-04-09T17:41:18.000+02:00</time>
<speed>2.5</speed>
<course>0.0</course>
<ele>88.0</ele>
</trkpt>
<trkpt lat="52.34128117561188" lon="13.353881835937113">
<time>2011-04-09T17:41:19.000+02:00</time>
<speed>2.5</speed>
<course>0.0</course>
<ele>89.0</ele>
</trkpt>
<trkpt lat="52.341302633284" lon="13.353881835937113">
<time>2011-04-09T17:41:20.000+02:00</time>
<speed>2.5</speed>
<course>359.0</course>
<ele>89.0</ele>
</trkpt>
<trkpt lat="52.34132409095612" lon="13.353881835937113">
<time>2011-04-09T17:41:21.000+02:00</time>
<speed>2.5</speed>
<course>359.0</course>
<ele>89.0</ele>
</trkpt>
<trkpt lat="52.3413562774643" lon="13.353881835937113">
<time>2011-04-09T17:41:22.000+02:00</time>
<speed>2.5</speed>
<course>0.0</course>
<ele>89.0</ele>
</trkpt>
<trkpt lat="52.34137773513642" lon="13.353881835937113">
<time>2011-04-09T17:41:23.000+02:00</time>
<speed>2.5</speed>
<course>359.0</course>
<ele>89.0</ele>
</trkpt>
<trkpt lat="52.3414099216446" lon="13.353881835937113">
<time>2011-04-09T17:41:24.000+02:00</time>
<speed>2.5</speed>
<course>358.0</course>
<ele>89.0</ele>
</trkpt>
<trkpt lat="52.34143137931672" lon="13.353860378264994">
<time>2011-04-09T17:41:25.000+02:00</time>
<speed>2.5</speed>
<course>359.0</course>
<ele>89.0</ele>
</trkpt>
<trkpt lat="52.341452836988836" lon="13.353860378264994">
<time>2011-04-09T17:41:26.000+02:00</time>
<speed>2.5</speed>
<course>359.0</course>
<ele>89.0</ele>
</trkpt>
<trkpt lat="52.341485023497015" lon="13.353860378264994">
<time>2011-04-09T17:41:27.000+02:00</time>
<speed>2.5</speed>
<course>357.0</course>
<ele>89.0</ele>
</trkpt>
<trkpt lat="52.341506481169134" lon="13.353860378264994">
<time>2011-04-09T17:41:28.000+02:00</time>
<speed>2.7777777</speed>
<course>356.0</course>
<ele>89.0</ele>
</trkpt>
<trkpt lat="52.34153866767731" lon="13.353860378264994">
<time>2011-04-09T17:41:29.000+02:00</time>
<speed>2.7777777</speed>
<course>355.0</course>
<ele>89.0</ele>
</trkpt>
<trkpt lat="52.34157085418549" lon="13.353860378264994">
<time>2011-04-09T17:41:30.000+02:00</time>
<speed>2.7777777</speed>
<course>355.0</course>
<ele>89.0</ele>
</trkpt>
<trkpt lat="52.34160304069367" lon="13.353838920592874">
<time>2011-04-09T17:41:31.000+02:00</time>
<speed>2.7777777</speed>
<course>356.0</course>
<ele>89.0</ele>
</trkpt>
<trkpt lat="52.34162449836579" lon="13.353838920592874">
<time>2011-04-09T17:41:32.000+02:00</time>
<speed>2.7777777</speed>
<course>356.0</course>
<ele>89.0</ele>
</trkpt>
<trkpt lat="52.34165668487397" lon="13.353838920592874">
<time>2011-04-09T17:41:33.000+02:00</time>
<speed>2.5</speed>
<course>357.0</course>
<ele>89.0</ele>
</trkpt>
<trkpt lat="52.34167814254609" lon="13.353838920592874">
<time>2011-04-09T17:41:34.000+02:00</time>
<speed>2.5</speed>
<course>356.0</course>
<ele>89.0</ele>
</trkpt>
<trkpt lat="52.341710329054266" lon="13.353838920592874">
<time>2011-04-09T17:41:35.000+02:00</time>
<speed>2.5</speed>
<course>358.0</course>
<ele>89.0</ele>
</trkpt>
<trkpt lat="52.341731786726385" lon="13.353838920592874">
<time>2011-04-09T17:41:36.000+02:00</time>
<speed>2.5</speed>
<course>0.0</course>
<ele>89.0</ele>
</trkpt>
<trkpt lat="52.34176397323456" lon="13.353838920592874">
<time>2011-04-09T17:41:37.000+02:00</time>
<speed>2.5</speed>
<course>3.0</course>
<ele>89.0</ele>
</trkpt>
<trkpt lat="52.34178543090668" lon="13.353838920592874">
<time>2011-04-09T17:41:38.000+02:00</time>
<speed>2.5</speed>
<course>6.0</course>
<ele>89.0</ele>
</trkpt>
<trkpt lat="52.3418068885788" lon="13.353860378264994">
<time>2011-04-09T17:41:39.000+02:00</time>
<speed>2.2222223</speed>
<course>9.0</course>
<ele>90.0</ele>
</trkpt>
<trkpt lat="52.34182834625092" lon="13.353860378264994">
<time>2011-04-09T17:41:40.000+02:00</time>
<speed>2.2222223</speed>
<course>16.0</course>
<ele>90.0</ele>
</trkpt>
<trkpt lat="52.34184980392304" lon="13.353881835937113">
<time>2011-04-09T17:41:41.000+02:00</time>
<speed>2.2222223</speed>
<course>24.0</course>
<ele>90.0</ele>
</trkpt>
<trkpt lat="52.34187126159516" lon="13.353903293609232">
<time>2011-04-09T17:41:42.000+02:00</time>
<speed>2.2222223</speed>
<course>34.0</course>
<ele>90.0</ele>
</trkpt>
<trkpt lat="52.34189271926728" lon="13.35396766662559">
<time>2011-04-09T17:41:44.000+02:00</time>
<speed>2.2222223</speed>
<course>48.0</course>
<ele>90.0</ele>
</trkpt>
<trkpt lat="52.34190344810334" lon="13.354010581969828">
<time>2011-04-09T17:41:45.000+02:00</time>
<speed>2.5</speed>
<course>57.0</course>
<ele>90.0</ele>
</trkpt>
<trkpt lat="52.3419141769394" lon="13.354053497314066">
<time>2011-04-09T17:41:46.000+02:00</time>
<speed>2.7777777</speed>
<course>64.0</course>
<ele>90.0</ele>
</trkpt>
<trkpt lat="52.3419141769394" lon="13.354096412658304">
<time>2011-04-09T17:41:47.000+02:00</time>
<speed>2.7777777</speed>
<course>70.0</course>
<ele>90.0</ele>
</trkpt>
<trkpt lat="52.3419141769394" lon="13.354160785674662">
<time>2011-04-09T17:41:48.000+02:00</time>
<speed>2.7777777</speed>
<course>75.0</course>
<ele>90.0</ele>
</trkpt>
<trkpt lat="52.34192490577546" lon="13.3542037010189">
<time>2011-04-09T17:41:49.000+02:00</time>
<speed>2.7777777</speed>
<course>76.0</course>
<ele>90.0</ele>
</trkpt>
<trkpt lat="52.34192490577546" lon="13.354246616363138">
<time>2011-04-09T17:41:50.000+02:00</time>
<speed>2.7777777</speed>
<course>77.0</course>
<ele>90.0</ele>
</trkpt>
<trkpt lat="52.34192490577546" lon="13.354289531707376">
<time>2011-04-09T17:41:51.000+02:00</time>
<speed>2.7777777</speed>
<course>80.0</course>
<ele>90.0</ele>
</trkpt>
<trkpt lat="52.34192490577546" lon="13.354332447051615">
<time>2011-04-09T17:41:52.000+02:00</time>
<speed>2.7777777</speed>
<course>80.0</course>
<ele>90.0</ele>
</trkpt>
<trkpt lat="52.34192490577546" lon="13.354375362395853">
<time>2011-04-09T17:41:53.000+02:00</time>
<speed>2.7777777</speed>
<course>83.0</course>
<ele>90.0</ele>
</trkpt>
<trkpt lat="52.34192490577546" lon="13.35443973541221">
<time>2011-04-09T17:41:54.000+02:00</time>
<speed>2.7777777</speed>
<course>81.0</course>
<ele>90.0</ele>
</trkpt>
<trkpt lat="52.34192490577546" lon="13.354482650756449">
<time>2011-04-09T17:41:55.000+02:00</time>
<speed>2.7777777</speed>
<course>83.0</course>
<ele>90.0</ele>
</trkpt>
<trkpt lat="52.34192490577546" lon="13.354525566100687">
<time>2011-04-09T17:41:56.000+02:00</time>
<speed>2.7777777</speed>
<course>84.0</course>
<ele>90.0</ele>
</trkpt>
<trkpt lat="52.34192490577546" lon="13.354568481444925">
<time>2011-04-09T17:41:57.000+02:00</time>
<speed>2.5</speed>
<course>83.0</course>
<ele>90.0</ele>
</trkpt>
<trkpt lat="52.34192490577546" lon="13.354589939117044">
<time>2011-04-09T17:41:58.000+02:00</time>
<speed>2.5</speed>
<course>84.0</course>
<ele>90.0</ele>
</trkpt>
<trkpt lat="52.34192490577546" lon="13.354632854461283">
<time>2011-04-09T17:41:59.000+02:00</time>
<speed>2.5</speed>
<course>84.0</course>
<ele>90.0</ele>
</trkpt>
<trkpt lat="52.34192490577546" lon="13.354675769805521">
<time>2011-04-09T17:42:00.000+02:00</time>
<speed>2.2222223</speed>
<course>85.0</course>
<ele>89.0</ele>
</trkpt>
<trkpt lat="52.34192490577546" lon="13.35469722747764">
<time>2011-04-09T17:42:01.000+02:00</time>
<speed>1.9444444</speed>
<course>85.0</course>
<ele>89.0</ele>
</trkpt>
<trkpt lat="52.34192490577546" lon="13.354740142821878">
<time>2011-04-09T17:42:02.000+02:00</time>
<speed>1.9444444</speed>
<course>87.0</course>
<ele>89.0</ele>
</trkpt>
<trkpt lat="52.34192490577546" lon="13.354761600493998">
<time>2011-04-09T17:42:03.000+02:00</time>
<speed>1.6666666</speed>
<course>86.0</course>
<ele>89.0</ele>
</trkpt>
<trkpt lat="52.34192490577546" lon="13.354783058166117">
<time>2011-04-09T17:42:04.000+02:00</time>
<speed>1.6666666</speed>
<course>85.0</course>
<ele>89.0</ele>
</trkpt>
<trkpt lat="52.34192490577546" lon="13.354804515838236">
<time>2011-04-09T17:42:05.000+02:00</time>
<speed>1.6666666</speed>
<course>86.0</course>
<ele>89.0</ele>
</trkpt>
<trkpt lat="52.34192490577546" lon="13.354804515838236">
<time>2011-04-09T17:42:06.000+02:00</time>
<speed>0.8333333</speed>
<course>84.0</course>
<ele>89.0</ele>
</trkpt>
<trkpt lat="52.34192490577546" lon="13.354825973510355">
<time>2011-04-09T17:42:07.000+02:00</time>
<speed>0.0</speed>
<course>84.0</course>
<ele>89.0</ele>
</trkpt>
<trkpt lat="52.34192490577546" lon="13.354825973510355">
<time>2011-04-09T17:42:08.000+02:00</time>
<speed>0.0</speed>
<course>84.0</course>
<ele>89.0</ele>
</trkpt>
<trkpt lat="52.34192490577546" lon="13.354825973510355">
<time>2011-04-09T17:42:09.000+02:00</time>
<speed>0.0</speed>
<course>84.0</course>
<ele>89.0</ele>
</trkpt>
<trkpt lat="52.34192490577546" lon="13.354825973510355">
<time>2011-04-09T17:42:10.000+02:00</time>
<speed>0.0</speed>
<course>84.0</course>
<ele>89.0</ele>
</trkpt>
<trkpt lat="52.34192490577546" lon="13.354825973510355">
<time>2011-04-09T17:42:11.000+02:00</time>
<speed>0.0</speed>
<course>84.0</course>
<ele>89.0</ele>
</trkpt>
<trkpt lat="52.34192490577546" lon="13.354825973510355">
<time>2011-04-09T17:42:12.000+02:00</time>
<speed>0.2777778</speed>
<course>84.0</course>
<ele>89.0</ele>
</trkpt>
<trkpt lat="52.34192490577546" lon="13.354847431182474">
<time>2011-04-09T17:42:13.000+02:00</time>
<speed>0.5555556</speed>
<course>79.0</course>
<ele>89.0</ele>
</trkpt>
<trkpt lat="52.34192490577546" lon="13.354868888854593">
<time>2011-04-09T17:42:14.000+02:00</time>
<speed>0.8333333</speed>
<course>77.0</course>
<ele>89.0</ele>
</trkpt>
<trkpt lat="52.34192490577546" lon="13.354890346526712">
<time>2011-04-09T17:42:15.000+02:00</time>
<speed>0.8333333</speed>
<course>76.0</course>
<ele>89.0</ele>
</trkpt>
<trkpt lat="52.34192490577546" lon="13.354890346526712">
<time>2011-04-09T17:42:16.000+02:00</time>
<speed>1.1111112</speed>
<course>76.0</course>
<ele>89.0</ele>
</trkpt>
<trkpt lat="52.34193563461152" lon="13.354911804198832">
<time>2011-04-09T17:42:17.000+02:00</time>
<speed>1.3888888</speed>
<course>77.0</course>
<ele>89.0</ele>
</trkpt>
<trkpt lat="52.34193563461152" lon="13.35495471954307">
<time>2011-04-09T17:42:18.000+02:00</time>
<speed>1.3888888</speed>
<course>78.0</course>
<ele>89.0</ele>
</trkpt>
<trkpt lat="52.34193563461152" lon="13.354976177215189">
<time>2011-04-09T17:42:19.000+02:00</time>
<speed>1.6666666</speed>
<course>75.0</course>
<ele>89.0</ele>
</trkpt>
<trkpt lat="52.34193563461152" lon="13.355019092559427">
<time>2011-04-09T17:42:20.000+02:00</time>
<speed>2.5</speed>
<course>74.0</course>
<ele>89.0</ele>
</trkpt>
<trkpt lat="52.341946363447576" lon="13.355062007903665">
<time>2011-04-09T17:42:21.000+02:00</time>
<speed>2.5</speed>
<course>69.0</course>
<ele>89.0</ele>
</trkpt>
<trkpt lat="52.341957092283636" lon="13.355104923247904">
<time>2011-04-09T17:42:22.000+02:00</time>
<speed>2.7777777</speed>
<course>69.0</course>
<ele>89.0</ele>
</trkpt>
<trkpt lat="52.341957092283636" lon="13.355147838592142">
<time>2011-04-09T17:42:23.000+02:00</time>
<speed>2.7777777</speed>
<course>68.0</course>
<ele>89.0</ele>
</trkpt>
<trkpt lat="52.341967821119695" lon="13.35519075393638">
<time>2011-04-09T17:42:24.000+02:00</time>
<speed>2.7777777</speed>
<course>69.0</course>
<ele>89.0</ele>
</trkpt>
<trkpt lat="52.341978549955755" lon="13.355233669280619">
<time>2011-04-09T17:42:25.000+02:00</time>
<speed>2.7777777</speed>
<course>69.0</course>
<ele>89.0</ele>
</trkpt>
<trkpt lat="52.341989278791814" lon="13.355276584624857">
<time>2011-04-09T17:42:26.000+02:00</time>
<speed>3.0555556</speed>
<course>68.0</course>
<ele>89.0</ele>
</trkpt>
<trkpt lat="52.342000007627874" lon="13.355319499969095">
<time>2011-04-09T17:42:27.000+02:00</time>
<speed>3.0555556</speed>
<course>68.0</course>
<ele>89.0</ele>
</trkpt>
<trkpt lat="52.34201073646393" lon="13.355362415313333">
<time>2011-04-09T17:42:28.000+02:00</time>
<speed>3.0555556</speed>
<course>69.0</course>
<ele>89.0</ele>
</trkpt>
<trkpt lat="52.34202146529999" lon="13.355405330657572">
<time>2011-04-09T17:42:29.000+02:00</time>
<speed>3.0555556</speed>
<course>68.0</course>
<ele>89.0</ele>
</trkpt>
<trkpt lat="52.34203219413605" lon="13.35544824600181">
<time>2011-04-09T17:42:30.000+02:00</time>
<speed>3.0555556</speed>
<course>66.0</course>
<ele>89.0</ele>
</trkpt>
<trkpt lat="52.34204292297211" lon="13.355512619018167">
<time>2011-04-09T17:42:31.000+02:00</time>
<speed>3.0555556</speed>
<course>68.0</course>
<ele>89.0</ele>
</trkpt>
<trkpt lat="52.34205365180817" lon="13.355555534362406">
<time>2011-04-09T17:42:32.000+02:00</time>
<speed>3.3333333</speed>
<course>70.0</course>
<ele>89.0</ele>
</trkpt>
<trkpt lat="52.34205365180817" lon="13.355598449706644">
<time>2011-04-09T17:42:33.000+02:00</time>
<speed>3.0555556</speed>
<course>67.0</course>
<ele>89.0</ele>
</trkpt>
<trkpt lat="52.34206438064423" lon="13.355641365050882">
<time>2011-04-09T17:42:34.000+02:00</time>
<speed>3.0555556</speed>
<course>65.0</course>
<ele>89.0</ele>
</trkpt>
<trkpt lat="52.34207510948029" lon="13.35568428039512">
<time>2011-04-09T17:42:35.000+02:00</time>
<speed>3.0555556</speed>
<course>63.0</course>
<ele>89.0</ele>
</trkpt>
<trkpt lat="52.34208583831635" lon="13.355727195739359">
<time>2011-04-09T17:42:36.000+02:00</time>
<speed>3.0555556</speed>
<course>66.0</course>
<ele>89.0</ele>
</trkpt>
<trkpt lat="52.34209656715241" lon="13.355770111083597">
<time>2011-04-09T17:42:37.000+02:00</time>
<speed>2.7777777</speed>
<course>67.0</course>
<ele>89.0</ele>
</trkpt>
<trkpt lat="52.34210729598847" lon="13.355791568755716">
<time>2011-04-09T17:42:38.000+02:00</time>
<speed>2.5</speed>
<course>67.0</course>
<ele>89.0</ele>
</trkpt>
<trkpt lat="52.34210729598847" lon="13.355834484099955">
<time>2011-04-09T17:42:39.000+02:00</time>
<speed>2.5</speed>
<course>67.0</course>
<ele>89.0</ele>
</trkpt>
<trkpt lat="52.34211802482453" lon="13.355855941772074">
<time>2011-04-09T17:42:40.000+02:00</time>
<speed>2.5</speed>
<course>64.0</course>
<ele>89.0</ele>
</trkpt>
<trkpt lat="52.34211802482453" lon="13.355877399444193">
<time>2011-04-09T17:42:41.000+02:00</time>
<speed>2.2222223</speed>
<course>62.0</course>
<ele>89.0</ele>
</trkpt>
<trkpt lat="52.34212875366059" lon="13.355898857116312">
<time>2011-04-09T17:42:42.000+02:00</time>
<speed>2.2222223</speed>
<course>60.0</course>
<ele>89.0</ele>
</trkpt>
<trkpt lat="52.34213948249665" lon="13.35594177246055">
<time>2011-04-09T17:42:43.000+02:00</time>
<speed>2.2222223</speed>
<course>60.0</course>
<ele>89.0</ele>
</trkpt>
<trkpt lat="52.34215021133271" lon="13.35596323013267">
<time>2011-04-09T17:42:44.000+02:00</time>
<speed>2.2222223</speed>
<course>58.0</course>
<ele>89.0</ele>
</trkpt>
<trkpt lat="52.34217166900483" lon="13.356027603149027">
<time>2011-04-09T17:42:46.000+02:00</time>
<speed>2.2222223</speed>
<course>53.0</course>
<ele>89.0</ele>
</trkpt>
<trkpt lat="52.342193126676946" lon="13.356070518493265">
<time>2011-04-09T17:42:47.000+02:00</time>
<speed>2.2222223</speed>
<course>49.0</course>
<ele>89.0</ele>
</trkpt>
<trkpt lat="52.342203855513006" lon="13.356091976165384">
<time>2011-04-09T17:42:48.000+02:00</time>
<speed>2.2222223</speed>
<course>46.0</course>
<ele>89.0</ele>
</trkpt>
<trkpt lat="52.342225313185125" lon="13.356134891509623">
<time>2011-04-09T17:42:49.000+02:00</time>
<speed>2.5</speed>
<course>45.0</course>
<ele>89.0</ele>
</trkpt>
<trkpt lat="52.342236042021185" lon="13.356156349181742">
<time>2011-04-09T17:42:50.000+02:00</time>
<speed>2.5</speed>
<course>45.0</course>
<ele>89.0</ele>
</trkpt>
<trkpt lat="52.342257499693304" lon="13.35617780685386">
<time>2011-04-09T17:42:51.000+02:00</time>
<speed>2.5</speed>
<course>43.0</course>
<ele>89.0</ele>
</trkpt>
<trkpt lat="52.34227895736542" lon="13.356220722198099">
<time>2011-04-09T17:42:52.000+02:00</time>
<speed>2.5</speed>
<course>42.0</course>
<ele>89.0</ele>
</trkpt>
<trkpt lat="52.34228968620148" lon="13.356242179870218">
<time>2011-04-09T17:42:53.000+02:00</time>
<speed>2.5</speed>
<course>41.0</course>
<ele>89.0</ele>
</trkpt>
<trkpt lat="52.3423111438736" lon="13.356263637542337">
<time>2011-04-09T17:42:54.000+02:00</time>
<speed>2.5</speed>
<course>39.0</course>
<ele>89.0</ele>
</trkpt>
<trkpt lat="52.34233260154572" lon="13.356285095214457">
<time>2011-04-09T17:42:55.000+02:00</time>
<speed>2.5</speed>
<course>39.0</course>
<ele>89.0</ele>
</trkpt>
<trkpt lat="52.34235405921784" lon="13.356328010558695">
<time>2011-04-09T17:42:56.000+02:00</time>
<speed>2.5</speed>
<course>38.0</course>
<ele>89.0</ele>
</trkpt>
<trkpt lat="52.3423647880539" lon="13.356349468230814">
<time>2011-04-09T17:42:57.000+02:00</time>
<speed>2.5</speed>
<course>38.0</course>
<ele>89.0</ele>
</trkpt>
<trkpt lat="52.34238624572602" lon="13.356370925902933">
<time>2011-04-09T17:42:58.000+02:00</time>
<speed>2.5</speed>
<course>38.0</course>
<ele>89.0</ele>
</trkpt>
<trkpt lat="52.34240770339814" lon="13.356392383575052">
<time>2011-04-09T17:42:59.000+02:00</time>
<speed>2.5</speed>
<course>39.0</course>
<ele>89.0</ele>
</trkpt>
<trkpt lat="52.34242916107026" lon="13.356413841247171">
<time>2011-04-09T17:43:00.000+02:00</time>
<speed>2.2222223</speed>
<course>33.0</course>
<ele>89.0</ele>
</trkpt>
<trkpt lat="52.342439889906316" lon="13.35643529891929">
<time>2011-04-09T17:43:01.000+02:00</time>
<speed>2.2222223</speed>
<course>35.0</course>
<ele>89.0</ele>
</trkpt>
<trkpt lat="52.342461347578435" lon="13.35643529891929">
<time>2011-04-09T17:43:02.000+02:00</time>
<speed>1.9444444</speed>
<course>16.0</course>
<ele>89.0</ele>
</trkpt>
<trkpt lat="52.342482805250555" lon="13.35643529891929">
<time>2011-04-09T17:43:03.000+02:00</time>
<speed>1.9444444</speed>
<course>4.0</course>
<ele>89.0</ele>
</trkpt>
<trkpt lat="52.342504262922674" lon="13.35643529891929">
<time>2011-04-09T17:43:04.000+02:00</time>
<speed>1.9444444</speed>
<course>358.0</course>
<ele>89.0</ele>
</trkpt>
<trkpt lat="52.34251499175873" lon="13.356413841247171">
<time>2011-04-09T17:43:05.000+02:00</time>
<speed>1.9444444</speed>
<course>354.0</course>
<ele>89.0</ele>
</trkpt>
<trkpt lat="52.34253644943085" lon="13.356392383575052">
<time>2011-04-09T17:43:06.000+02:00</time>
<speed>1.9444444</speed>
<course>351.0</course>
<ele>89.0</ele>
</trkpt>
<trkpt lat="52.34255790710297" lon="13.356392383575052">
<time>2011-04-09T17:43:07.000+02:00</time>
<speed>1.9444444</speed>
<course>346.0</course>
<ele>89.0</ele>
</trkpt>
<trkpt lat="52.34256863593903" lon="13.356370925902933">
<time>2011-04-09T17:43:08.000+02:00</time>
<speed>1.9444444</speed>
<course>338.0</course>
<ele>89.0</ele>
</trkpt>
<trkpt lat="52.34259009361115" lon="13.356349468230814">
<time>2011-04-09T17:43:09.000+02:00</time>
<speed>1.9444444</speed>
<course>331.0</course>
<ele>89.0</ele>
</trkpt>
<trkpt lat="52.34260082244721" lon="13.356328010558695">
<time>2011-04-09T17:43:10.000+02:00</time>
<speed>1.9444444</speed>
<course>325.0</course>
<ele>89.0</ele>
</trkpt>
<trkpt lat="52.34261155128327" lon="13.356306552886576">
<time>2011-04-09T17:43:11.000+02:00</time>
<speed>1.9444444</speed>
<course>319.0</course>
<ele>89.0</ele>
</trkpt>
<trkpt lat="52.34262228011933" lon="13.356285095214457">
<time>2011-04-09T17:43:12.000+02:00</time>
<speed>1.9444444</speed>
<course>316.0</course>
<ele>89.0</ele>
</trkpt>
<trkpt lat="52.34263300895539" lon="13.356263637542337">
<time>2011-04-09T17:43:13.000+02:00</time>
<speed>1.3888888</speed>
<course>313.0</course>
<ele>89.0</ele>
</trkpt>
<trkpt lat="52.34264373779145" lon="13.356242179870218">
<time>2011-04-09T17:43:14.000+02:00</time>
<speed>1.1111112</speed>
<course>311.0</course>
<ele>89.0</ele>
</trkpt>
<trkpt lat="52.34265446662751" lon="13.356220722198099">
<time>2011-04-09T17:43:15.000+02:00</time>
<speed>1.1111112</speed>
<course>315.0</course>
<ele>89.0</ele>
</trkpt>
<trkpt lat="52.34265446662751" lon="13.356220722198099">
<time>2011-04-09T17:43:16.000+02:00</time>
<speed>0.0</speed>
<course>315.0</course>
<ele>89.0</ele>
</trkpt>
<trkpt lat="52.34266519546357" lon="13.35619926452598">
<time>2011-04-09T17:43:17.000+02:00</time>
<speed>0.0</speed>
<course>315.0</course>
<ele>89.0</ele>
</trkpt>
<trkpt lat="52.34266519546357" lon="13.35619926452598">
<time>2011-04-09T17:43:18.000+02:00</time>
<speed>0.0</speed>
<course>315.0</course>
<ele>89.0</ele>
</trkpt>
<trkpt lat="52.34266519546357" lon="13.35617780685386">
<time>2011-04-09T17:43:19.000+02:00</time>
<speed>0.0</speed>
<course>315.0</course>
<ele>89.0</ele>
</trkpt>
<trkpt lat="52.34267592429963" lon="13.35617780685386">
<time>2011-04-09T17:43:20.000+02:00</time>
<speed>0.8333333</speed>
<course>305.0</course>
<ele>89.0</ele>
</trkpt>
<trkpt lat="52.34267592429963" lon="13.356156349181742">
<time>2011-04-09T17:43:21.000+02:00</time>
<speed>1.1111112</speed>
<course>318.0</course>
<ele>89.0</ele>
</trkpt>
<trkpt lat="52.34268665313569" lon="13.356156349181742">
<time>2011-04-09T17:43:22.000+02:00</time>
<speed>1.1111112</speed>
<course>328.0</course>
<ele>89.0</ele>
</trkpt>
<trkpt lat="52.342697381971746" lon="13.356134891509623">
<time>2011-04-09T17:43:23.000+02:00</time>
<speed>1.1111112</speed>
<course>337.0</course>
<ele>89.0</ele>
</trkpt>
<trkpt lat="52.342708110807806" lon="13.356134891509623">
<time>2011-04-09T17:43:24.000+02:00</time>
<speed>1.3888888</speed>
<course>346.0</course>
<ele>89.0</ele>
</trkpt>
<trkpt lat="52.342729568479925" lon="13.356134891509623">
<time>2011-04-09T17:43:25.000+02:00</time>
<speed>1.3888888</speed>
<course>353.0</course>
<ele>89.0</ele>
</trkpt>
<trkpt lat="52.342740297315984" lon="13.356134891509623">
<time>2011-04-09T17:43:26.000+02:00</time>
<speed>1.3888888</speed>
<course>359.0</course>
<ele>89.0</ele>
</trkpt>
<trkpt lat="52.342751026152044" lon="13.356156349181742">
<time>2011-04-09T17:43:27.000+02:00</time>
<speed>1.1111112</speed>
<course>1.0</course>
<ele>89.0</ele>
</trkpt>
<trkpt lat="52.3427617549881" lon="13.356156349181742">
<time>2011-04-09T17:43:28.000+02:00</time>
<speed>1.1111112</speed>
<course>3.0</course>
<ele>89.0</ele>
</trkpt>
<trkpt lat="52.34277248382416" lon="13.356156349181742">
<time>2011-04-09T17:43:29.000+02:00</time>
<speed>1.1111112</speed>
<course>357.0</course>
<ele>89.0</ele>
</trkpt>
<trkpt lat="52.34278321266022" lon="13.356156349181742">
<time>2011-04-09T17:43:30.000+02:00</time>
<speed>1.1111112</speed>
<course>349.0</course>
<ele>89.0</ele>
</trkpt>
<trkpt lat="52.34279394149628" lon="13.356156349181742">
<time>2011-04-09T17:43:31.000+02:00</time>
<speed>1.1111112</speed>
<course>354.0</course>
<ele>89.0</ele>
</trkpt>
<trkpt lat="52.34280467033234" lon="13.356156349181742">
<time>2011-04-09T17:43:32.000+02:00</time>
<speed>0.0</speed>
<course>354.0</course>
<ele>89.0</ele>
</trkpt>
<trkpt lat="52.3428153991684" lon="13.356134891509623">
<time>2011-04-09T17:43:33.000+02:00</time>
<speed>0.0</speed>
<course>354.0</course>
<ele>89.0</ele>
</trkpt>
<trkpt lat="52.3428153991684" lon="13.356134891509623">
<time>2011-04-09T17:43:34.000+02:00</time>
<speed>0.0</speed>
<course>354.0</course>
<ele>89.0</ele>
</trkpt>
<trkpt lat="52.34282612800446" lon="13.356134891509623">
<time>2011-04-09T17:43:35.000+02:00</time>
<speed>1.1111112</speed>
<course>323.0</course>
<ele>89.0</ele>
</trkpt>
<trkpt lat="52.34283685684052" lon="13.356113433837503">
<time>2011-04-09T17:43:36.000+02:00</time>
<speed>1.3888888</speed>
<course>317.0</course>
<ele>89.0</ele>
</trkpt>
<trkpt lat="52.34284758567658" lon="13.356091976165384">
<time>2011-04-09T17:43:37.000+02:00</time>
<speed>1.9444444</speed>
<course>307.0</course>
<ele>89.0</ele>
</trkpt>
<trkpt lat="52.34284758567658" lon="13.356070518493265">
<time>2011-04-09T17:43:38.000+02:00</time>
<speed>2.2222223</speed>
<course>303.0</course>
<ele>89.0</ele>
</trkpt>
<trkpt lat="52.34285831451264" lon="13.356027603149027">
<time>2011-04-09T17:43:39.000+02:00</time>
<speed>2.5</speed>
<course>300.0</course>
<ele>90.0</ele>
</trkpt>
<trkpt lat="52.3428690433487" lon="13.356006145476908">
<time>2011-04-09T17:43:40.000+02:00</time>
<speed>2.7777777</speed>
<course>298.0</course>
<ele>90.0</ele>
</trkpt>
<trkpt lat="52.34287977218476" lon="13.35596323013267">
<time>2011-04-09T17:43:41.000+02:00</time>
<speed>2.7777777</speed>
<course>296.0</course>
<ele>90.0</ele>
</trkpt>
<trkpt lat="52.34289050102082" lon="13.355920314788431">
<time>2011-04-09T17:43:42.000+02:00</time>
<speed>3.3333333</speed>
<course>295.0</course>
<ele>90.0</ele>
</trkpt>
<trkpt lat="52.34290122985688" lon="13.355877399444193">
<time>2011-04-09T17:43:43.000+02:00</time>
<speed>3.0555556</speed>
<course>294.0</course>
<ele>90.0</ele>
</trkpt>
<trkpt lat="52.34293341636506" lon="13.355791568755716">
<time>2011-04-09T17:43:45.000+02:00</time>
<speed>3.0555556</speed>
<course>294.0</course>
<ele>90.0</ele>
</trkpt>
<trkpt lat="52.342944145201116" lon="13.355748653411478">
<time>2011-04-09T17:43:46.000+02:00</time>
<speed>3.0555556</speed>
<course>295.0</course>
<ele>90.0</ele>
</trkpt>
<trkpt lat="52.342954874037176" lon="13.35570573806724">
<time>2011-04-09T17:43:47.000+02:00</time>
<speed>3.0555556</speed>
<course>295.0</course>
<ele>90.0</ele>
</trkpt>
<trkpt lat="52.342965602873235" lon="13.355662822723001">
<time>2011-04-09T17:43:48.000+02:00</time>
<speed>3.0555556</speed>
<course>292.0</course>
<ele>90.0</ele>
</trkpt>
<trkpt lat="52.342976331709295" lon="13.355619907378763">
<time>2011-04-09T17:43:49.000+02:00</time>
<speed>3.0555556</speed>
<course>292.0</course>
<ele>90.0</ele>
</trkpt>
<trkpt lat="52.342987060545354" lon="13.355576992034525">
<time>2011-04-09T17:43:50.000+02:00</time>
<speed>3.0555556</speed>
<course>292.0</course>
<ele>90.0</ele>
</trkpt>
<trkpt lat="52.342997789381414" lon="13.355534076690287">
<time>2011-04-09T17:43:51.000+02:00</time>
<speed>3.0555556</speed>
<course>293.0</course>
<ele>90.0</ele>
</trkpt>
<trkpt lat="52.343008518217474" lon="13.355491161346048">
<time>2011-04-09T17:43:52.000+02:00</time>
<speed>3.0555556</speed>
<course>293.0</course>
<ele>90.0</ele>
</trkpt>
<trkpt lat="52.34301924705353" lon="13.35544824600181">
<time>2011-04-09T17:43:53.000+02:00</time>
<speed>3.0555556</speed>
<course>292.0</course>
<ele>90.0</ele>
</trkpt>
<trkpt lat="52.34302997588959" lon="13.355383872985453">
<time>2011-04-09T17:43:54.000+02:00</time>
<speed>3.0555556</speed>
<course>291.0</course>
<ele>90.0</ele>
</trkpt>
<trkpt lat="52.34304070472565" lon="13.355340957641214">
<time>2011-04-09T17:43:55.000+02:00</time>
<speed>3.0555556</speed>
<course>292.0</course>
<ele>90.0</ele>
</trkpt>
<trkpt lat="52.34306216239777" lon="13.355298042296976">
<time>2011-04-09T17:43:56.000+02:00</time>
<speed>3.0555556</speed>
<course>293.0</course>
<ele>90.0</ele>
</trkpt>
<trkpt lat="52.34307289123383" lon="13.355255126952738">
<time>2011-04-09T17:43:57.000+02:00</time>
<speed>3.0555556</speed>
<course>294.0</course>
<ele>90.0</ele>
</trkpt>
<trkpt lat="52.34308362006989" lon="13.3552122116085">
<time>2011-04-09T17:43:58.000+02:00</time>
<speed>3.0555556</speed>
<course>293.0</course>
<ele>90.0</ele>
</trkpt>
<trkpt lat="52.34309434890595" lon="13.355169296264261">
<time>2011-04-09T17:43:59.000+02:00</time>
<speed>3.0555556</speed>
<course>293.0</course>
<ele>90.0</ele>
</trkpt>
<trkpt lat="52.34311580657807" lon="13.355104923247904">
<time>2011-04-09T17:44:00.000+02:00</time>
<speed>3.3333333</speed>
<course>294.0</course>
<ele>90.0</ele>
</trkpt>
<trkpt lat="52.34312653541413" lon="13.355062007903665">
<time>2011-04-09T17:44:01.000+02:00</time>
<speed>3.3333333</speed>
<course>295.0</course>
<ele>90.0</ele>
</trkpt>
<trkpt lat="52.34313726425019" lon="13.355019092559427">
<time>2011-04-09T17:44:02.000+02:00</time>
<speed>3.3333333</speed>
<course>296.0</course>
<ele>90.0</ele>
</trkpt>
<trkpt lat="52.34318017959443" lon="13.354911804198832">
<time>2011-04-09T17:44:03.000+02:00</time>
<speed>3.3333333</speed>
<course>295.0</course>
<ele>91.0</ele>
</trkpt>
<trkpt lat="52.343190908430486" lon="13.354868888854593">
<time>2011-04-09T17:44:04.000+02:00</time>
<speed>3.0555556</speed>
<course>294.0</course>
<ele>91.0</ele>
</trkpt>
<trkpt lat="52.343201637266546" lon="13.354825973510355">
<time>2011-04-09T17:44:05.000+02:00</time>
<speed>2.7777777</speed>
<course>293.0</course>
<ele>91.0</ele>
</trkpt>
<trkpt lat="52.343223094938665" lon="13.354783058166117">
<time>2011-04-09T17:44:06.000+02:00</time>
<speed>2.7777777</speed>
<course>294.0</course>
<ele>91.0</ele>
</trkpt>
<trkpt lat="52.343233823774725" lon="13.354740142821878">
<time>2011-04-09T17:44:07.000+02:00</time>
<speed>3.0555556</speed>
<course>293.0</course>
<ele>91.0</ele>
</trkpt>
<trkpt lat="52.343244552610784" lon="13.35469722747764">
<time>2011-04-09T17:44:08.000+02:00</time>
<speed>2.7777777</speed>
<course>293.0</course>
<ele>91.0</ele>
</trkpt>
<trkpt lat="52.343255281446844" lon="13.354654312133402">
<time>2011-04-09T17:44:09.000+02:00</time>
<speed>2.7777777</speed>
<course>291.0</course>
<ele>91.0</ele>
</trkpt>
<trkpt lat="52.343255281446844" lon="13.354611396789164">
<time>2011-04-09T17:44:10.000+02:00</time>
<speed>2.5</speed>
<course>291.0</course>
<ele>91.0</ele>
</trkpt>
<trkpt lat="52.3432660102829" lon="13.354568481444925">
<time>2011-04-09T17:44:11.000+02:00</time>
<speed>2.5</speed>
<course>292.0</course>
<ele>91.0</ele>
</trkpt>
<trkpt lat="52.34327673911896" lon="13.354547023772806">
<time>2011-04-09T17:44:12.000+02:00</time>
<speed>2.5</speed>
<course>293.0</course>
<ele>91.0</ele>
</trkpt>
<trkpt lat="52.34329819679108" lon="13.354504108428568">
<time>2011-04-09T17:44:13.000+02:00</time>
<speed>2.5</speed>
<course>295.0</course>
<ele>91.0</ele>
</trkpt>
<trkpt lat="52.34330892562714" lon="13.35446119308433">
<time>2011-04-09T17:44:14.000+02:00</time>
<speed>2.7777777</speed>
<course>294.0</course>
<ele>91.0</ele>
</trkpt>
<trkpt lat="52.3433196544632" lon="13.354418277740091">
<time>2011-04-09T17:44:15.000+02:00</time>
<speed>2.7777777</speed>
<course>292.0</course>
<ele>91.0</ele>
</trkpt>
<trkpt lat="52.34333038329926" lon="13.354375362395853">
<time>2011-04-09T17:44:16.000+02:00</time>
<speed>2.7777777</speed>
<course>292.0</course>
<ele>91.0</ele>
</trkpt>
<trkpt lat="52.34334111213532" lon="13.354332447051615">
<time>2011-04-09T17:44:17.000+02:00</time>
<speed>2.7777777</speed>
<course>290.0</course>
<ele>91.0</ele>
</trkpt>
<trkpt lat="52.34335184097138" lon="13.354289531707376">
<time>2011-04-09T17:44:18.000+02:00</time>
<speed>2.7777777</speed>
<course>290.0</course>
<ele>91.0</ele>
</trkpt>
<trkpt lat="52.34336256980744" lon="13.354246616363138">
<time>2011-04-09T17:44:19.000+02:00</time>
<speed>2.7777777</speed>
<course>291.0</course>
<ele>91.0</ele>
</trkpt>
<trkpt lat="52.3433732986435" lon="13.3542037010189">
<time>2011-04-09T17:44:20.000+02:00</time>
<speed>2.7777777</speed>
<course>291.0</course>
<ele>91.0</ele>
</trkpt>
<trkpt lat="52.34338402747956" lon="13.354160785674662">
<time>2011-04-09T17:44:21.000+02:00</time>
<speed>2.7777777</speed>
<course>291.0</course>
<ele>91.0</ele>
</trkpt>
<trkpt lat="52.34339475631562" lon="13.354117870330423">
<time>2011-04-09T17:44:22.000+02:00</time>
<speed>2.7777777</speed>
<course>290.0</course>
<ele>91.0</ele>
</trkpt>
<trkpt lat="52.34340548515168" lon="13.354074954986185">
<time>2011-04-09T17:44:23.000+02:00</time>
<speed>2.7777777</speed>
<course>290.0</course>
<ele>90.0</ele>
</trkpt>
<trkpt lat="52.34341621398774" lon="13.354032039641947">
<time>2011-04-09T17:44:24.000+02:00</time>
<speed>2.7777777</speed>
<course>288.0</course>
<ele>90.0</ele>
</trkpt>
<trkpt lat="52.3434269428238" lon="13.353989124297708">
<time>2011-04-09T17:44:25.000+02:00</time>
<speed>2.5</speed>
<course>288.0</course>
<ele>90.0</ele>
</trkpt>
<trkpt lat="52.343437671659856" lon="13.35396766662559">
<time>2011-04-09T17:44:26.000+02:00</time>
<speed>2.5</speed>
<course>290.0</course>
<ele>90.0</ele>
</trkpt>
<trkpt lat="52.343448400495916" lon="13.353924751281351">
<time>2011-04-09T17:44:27.000+02:00</time>
<speed>2.5</speed>
<course>291.0</course>
<ele>90.0</ele>
</trkpt>
<trkpt lat="52.343459129331976" lon="13.353881835937113">
<time>2011-04-09T17:44:28.000+02:00</time>
<speed>2.5</speed>
<course>291.0</course>
<ele>90.0</ele>
</trkpt>
<trkpt lat="52.343469858168035" lon="13.353860378264994">
<time>2011-04-09T17:44:29.000+02:00</time>
<speed>2.5</speed>
<course>292.0</course>
<ele>90.0</ele>
</trkpt>
<trkpt lat="52.343480587004095" lon="13.353817462920755">
<time>2011-04-09T17:44:30.000+02:00</time>
<speed>2.5</speed>
<course>294.0</course>
<ele>90.0</ele>
</trkpt>
<trkpt lat="52.343491315840154" lon="13.353796005248636">
<time>2011-04-09T17:44:31.000+02:00</time>
<speed>1.6666666</speed>
<course>299.0</course>
<ele>90.0</ele>
</trkpt>
<trkpt lat="52.343502044676214" lon="13.353796005248636">
<time>2011-04-09T17:44:32.000+02:00</time>
<speed>1.3888888</speed>
<course>305.0</course>
<ele>90.0</ele>
</trkpt>
<trkpt lat="52.34351277351227" lon="13.353774547576517">
<time>2011-04-09T17:44:33.000+02:00</time>
<speed>1.3888888</speed>
<course>315.0</course>
<ele>90.0</ele>
</trkpt>
<trkpt lat="52.34352350234833" lon="13.353753089904398">
<time>2011-04-09T17:44:34.000+02:00</time>
<speed>1.3888888</speed>
<course>307.0</course>
<ele>90.0</ele>
</trkpt>
<trkpt lat="52.34353423118439" lon="13.353753089904398">
<time>2011-04-09T17:44:35.000+02:00</time>
<speed>1.6666666</speed>
<course>330.0</course>
<ele>90.0</ele>
</trkpt>
<trkpt lat="52.34354496002045" lon="13.353753089904398">
<time>2011-04-09T17:44:36.000+02:00</time>
<speed>1.1111112</speed>
<course>331.0</course>
<ele>90.0</ele>
</trkpt>
<trkpt lat="52.34355568885651" lon="13.353753089904398">
<time>2011-04-09T17:44:37.000+02:00</time>
<speed>1.1111112</speed>
<course>324.0</course>
<ele>90.0</ele>
</trkpt>
<trkpt lat="52.34356641769257" lon="13.353753089904398">
<time>2011-04-09T17:44:38.000+02:00</time>
<speed>1.1111112</speed>
<course>342.0</course>
<ele>90.0</ele>
</trkpt>
<trkpt lat="52.34357714652863" lon="13.353753089904398">
<time>2011-04-09T17:44:39.000+02:00</time>
<speed>1.3888888</speed>
<course>348.0</course>
<ele>90.0</ele>
</trkpt>
<trkpt lat="52.34359860420075" lon="13.353753089904398">
<time>2011-04-09T17:44:40.000+02:00</time>
<speed>1.3888888</speed>
<course>353.0</course>
<ele>90.0</ele>
</trkpt>
<trkpt lat="52.34360933303681" lon="13.353753089904398">
<time>2011-04-09T17:44:41.000+02:00</time>
<speed>1.6666666</speed>
<course>357.0</course>
<ele>90.0</ele>
</trkpt>
<trkpt lat="52.34362006187287" lon="13.353753089904398">
<time>2011-04-09T17:44:42.000+02:00</time>
<speed>1.3888888</speed>
<course>356.0</course>
<ele>90.0</ele>
</trkpt>
<trkpt lat="52.34363079070893" lon="13.353753089904398">
<time>2011-04-09T17:44:43.000+02:00</time>
<speed>1.1111112</speed>
<course>356.0</course>
<ele>90.0</ele>
</trkpt>
<trkpt lat="52.34364151954499" lon="13.353753089904398">
<time>2011-04-09T17:44:44.000+02:00</time>
<speed>1.3888888</speed>
<course>358.0</course>
<ele>90.0</ele>
</trkpt>
<trkpt lat="52.34367370605317" lon="13.353774547576517">
<time>2011-04-09T17:44:45.000+02:00</time>
<speed>2.5</speed>
<course>358.0</course>
<ele>89.0</ele>
</trkpt>
<trkpt lat="52.343738079069524" lon="13.353774547576517">
<time>2011-04-09T17:44:47.000+02:00</time>
<speed>2.7777777</speed>
<course>0.0</course>
<ele>89.0</ele>
</trkpt>
<trkpt lat="52.3437702655777" lon="13.353774547576517">
<time>2011-04-09T17:44:48.000+02:00</time>
<speed>3.0555556</speed>
<course>359.0</course>
<ele>89.0</ele>
</trkpt>
<trkpt lat="52.34381318092194" lon="13.353774547576517">
<time>2011-04-09T17:44:49.000+02:00</time>
<speed>3.0555556</speed>
<course>1.0</course>
<ele>89.0</ele>
</trkpt>
<trkpt lat="52.34384536743012" lon="13.353796005248636">
<time>2011-04-09T17:44:50.000+02:00</time>
<speed>1.9444444</speed>
<course>2.0</course>
<ele>89.0</ele>
</trkpt>
<trkpt lat="52.3438775539383" lon="13.353796005248636">
<time>2011-04-09T17:44:51.000+02:00</time>
<speed>1.9444444</speed>
<course>3.0</course>
<ele>89.0</ele>
</trkpt>
<trkpt lat="52.34390974044648" lon="13.353796005248636">
<time>2011-04-09T17:44:52.000+02:00</time>
<speed>1.9444444</speed>
<course>3.0</course>
<ele>89.0</ele>
</trkpt>
<trkpt lat="52.343941926954656" lon="13.353817462920755">
<time>2011-04-09T17:44:53.000+02:00</time>
<speed>1.6666666</speed>
<course>2.0</course>
<ele>89.0</ele>
</trkpt>
<trkpt lat="52.343963384626775" lon="13.353817462920755">
<time>2011-04-09T17:44:54.000+02:00</time>
<speed>1.6666666</speed>
<course>3.0</course>
<ele>89.0</ele>
</trkpt>
<trkpt lat="52.343995571134954" lon="13.353817462920755">
<time>2011-04-09T17:44:55.000+02:00</time>
<speed>2.2222223</speed>
<course>4.0</course>
<ele>89.0</ele>
</trkpt>
<trkpt lat="52.34403848647919" lon="13.353838920592874">
<time>2011-04-09T17:44:56.000+02:00</time>
<speed>2.7777777</speed>
<course>5.0</course>
<ele>89.0</ele>
</trkpt>
<trkpt lat="52.34408140182343" lon="13.353838920592874">
<time>2011-04-09T17:44:57.000+02:00</time>
<speed>3.6111112</speed>
<course>4.0</course>
<ele>88.0</ele>
</trkpt>
<trkpt lat="52.34412431716767" lon="13.353860378264994">
<time>2011-04-09T17:44:58.000+02:00</time>
<speed>3.0555556</speed>
<course>4.0</course>
<ele>88.0</ele>
</trkpt>
<trkpt lat="52.34417796134797" lon="13.353881835937113">
<time>2011-04-09T17:44:59.000+02:00</time>
<speed>3.0555556</speed>
<course>4.0</course>
<ele>88.0</ele>
</trkpt>
<trkpt lat="52.344231605528265" lon="13.353881835937113">
<time>2011-04-09T17:45:00.000+02:00</time>
<speed>3.3333333</speed>
<course>4.0</course>
<ele>88.0</ele>
</trkpt>
<trkpt lat="52.3442745208725" lon="13.353903293609232">
<time>2011-04-09T17:45:01.000+02:00</time>
<speed>3.6111112</speed>
<course>3.0</course>
<ele>89.0</ele>
</trkpt>
<trkpt lat="52.3443281650528" lon="13.353924751281351">
<time>2011-04-09T17:45:02.000+02:00</time>
<speed>3.8888888</speed>
<course>2.0</course>
<ele>89.0</ele>
</trkpt>
<trkpt lat="52.34437108039704" lon="13.353924751281351">
<time>2011-04-09T17:45:03.000+02:00</time>
<speed>3.6111112</speed>
<course>3.0</course>
<ele>89.0</ele>
</trkpt>
<trkpt lat="52.34442472457734" lon="13.353924751281351">
<time>2011-04-09T17:45:04.000+02:00</time>
<speed>3.6111112</speed>
<course>2.0</course>
<ele>89.0</ele>
</trkpt>
<trkpt lat="52.344467639921575" lon="13.35394620895347">
<time>2011-04-09T17:45:05.000+02:00</time>
<speed>3.8888888</speed>
<course>3.0</course>
<ele>89.0</ele>
</trkpt>
<trkpt lat="52.34451055526581" lon="13.35394620895347">
<time>2011-04-09T17:45:06.000+02:00</time>
<speed>3.8888888</speed>
<course>4.0</course>
<ele>89.0</ele>
</trkpt>
<trkpt lat="52.34455347061005" lon="13.35396766662559">
<time>2011-04-09T17:45:07.000+02:00</time>
<speed>3.6111112</speed>
<course>5.0</course>
<ele>89.0</ele>
</trkpt>
<trkpt lat="52.34459638595429" lon="13.35396766662559">
<time>2011-04-09T17:45:08.000+02:00</time>
<speed>3.0555556</speed>
<course>8.0</course>
<ele>88.0</ele>
</trkpt>
<trkpt lat="52.34462857246247" lon="13.353989124297708">
<time>2011-04-09T17:45:09.000+02:00</time>
<speed>3.0555556</speed>
<course>8.0</course>
<ele>88.0</ele>
</trkpt>
<trkpt lat="52.34466075897065" lon="13.353989124297708">
<time>2011-04-09T17:45:10.000+02:00</time>
<speed>2.2222223</speed>
<course>9.0</course>
<ele>88.0</ele>
</trkpt>
<trkpt lat="52.344692945478826" lon="13.354010581969828">
<time>2011-04-09T17:45:11.000+02:00</time>
<speed>2.5</speed>
<course>9.0</course>
<ele>88.0</ele>
</trkpt>
<trkpt lat="52.344735860823064" lon="13.354032039641947">
<time>2011-04-09T17:45:12.000+02:00</time>
<speed>4.7222223</speed>
<course>6.0</course>
<ele>87.0</ele>
</trkpt>
<trkpt lat="52.3447787761673" lon="13.354032039641947">
<time>2011-04-09T17:45:13.000+02:00</time>
<speed>4.1666665</speed>
<course>2.0</course>
<ele>87.0</ele>
</trkpt>
<trkpt lat="52.34482169151154" lon="13.354032039641947">
<time>2011-04-09T17:45:14.000+02:00</time>
<speed>4.1666665</speed>
<course>1.0</course>
<ele>86.0</ele>
</trkpt>
<trkpt lat="52.34486460685578" lon="13.354032039641947">
<time>2011-04-09T17:45:15.000+02:00</time>
<speed>4.7222223</speed>
<course>2.0</course>
<ele>85.0</ele>
</trkpt>
<trkpt lat="52.34491825103608" lon="13.354053497314066">
<time>2011-04-09T17:45:16.000+02:00</time>
<speed>4.7222223</speed>
<course>3.0</course>
<ele>83.0</ele>
</trkpt>
<trkpt lat="52.34502553939667" lon="13.354053497314066">
<time>2011-04-09T17:45:17.000+02:00</time>
<speed>4.7222223</speed>
<course>4.0</course>
<ele>82.0</ele>
</trkpt>
<trkpt lat="52.34507918357697" lon="13.354053497314066">
<time>2011-04-09T17:45:18.000+02:00</time>
<speed>4.7222223</speed>
<course>4.0</course>
<ele>81.0</ele>
</trkpt>
<trkpt lat="52.34513282775727" lon="13.354074954986185">
<time>2011-04-09T17:45:19.000+02:00</time>
<speed>4.7222223</speed>
<course>5.0</course>
<ele>81.0</ele>
</trkpt>
<trkpt lat="52.345197200773626" lon="13.354074954986185">
<time>2011-04-09T17:45:20.000+02:00</time>
<speed>4.7222223</speed>
<course>5.0</course>
<ele>80.0</ele>
</trkpt>
<trkpt lat="52.345250844953924" lon="13.354074954986185">
<time>2011-04-09T17:45:21.000+02:00</time>
<speed>4.7222223</speed>
<course>6.0</course>
<ele>80.0</ele>
</trkpt>
<trkpt lat="52.34531521797028" lon="13.354074954986185">
<time>2011-04-09T17:45:22.000+02:00</time>
<speed>4.4444447</speed>
<course>7.0</course>
<ele>80.0</ele>
</trkpt>
<trkpt lat="52.34536886215058" lon="13.354096412658304">
<time>2011-04-09T17:45:23.000+02:00</time>
<speed>4.1666665</speed>
<course>6.0</course>
<ele>80.0</ele>
</trkpt>
<trkpt lat="52.34542250633088" lon="13.354096412658304">
<time>2011-04-09T17:45:24.000+02:00</time>
<speed>3.8888888</speed>
<course>4.0</course>
<ele>80.0</ele>
</trkpt>
<trkpt lat="52.345465421675115" lon="13.354117870330423">
<time>2011-04-09T17:45:25.000+02:00</time>
<speed>3.8888888</speed>
<course>5.0</course>
<ele>80.0</ele>
</trkpt>
<trkpt lat="52.34551906585541" lon="13.354117870330423">
<time>2011-04-09T17:45:26.000+02:00</time>
<speed>3.8888888</speed>
<course>7.0</course>
<ele>80.0</ele>
</trkpt>
<trkpt lat="52.34556198119965" lon="13.354139328002542">
<time>2011-04-09T17:45:27.000+02:00</time>
<speed>3.8888888</speed>
<course>9.0</course>
<ele>80.0</ele>
</trkpt>
<trkpt lat="52.34560489654389" lon="13.354160785674662">
<time>2011-04-09T17:45:28.000+02:00</time>
<speed>3.8888888</speed>
<course>9.0</course>
<ele>80.0</ele>
</trkpt>
<trkpt lat="52.34565854072419" lon="13.354160785674662">
<time>2011-04-09T17:45:29.000+02:00</time>
<speed>4.4444447</speed>
<course>7.0</course>
<ele>81.0</ele>
</trkpt>
<trkpt lat="52.345701456068426" lon="13.354160785674662">
<time>2011-04-09T17:45:30.000+02:00</time>
<speed>4.4444447</speed>
<course>351.0</course>
<ele>82.0</ele>
</trkpt>
<trkpt lat="52.345744371412664" lon="13.354160785674662">
<time>2011-04-09T17:45:31.000+02:00</time>
<speed>4.4444447</speed>
<course>351.0</course>
<ele>82.0</ele>
</trkpt>
<trkpt lat="52.3457872867569" lon="13.354160785674662">
<time>2011-04-09T17:45:32.000+02:00</time>
<speed>4.1666665</speed>
<course>355.0</course>
<ele>82.0</ele>
</trkpt>
<trkpt lat="52.34581947326508" lon="13.354160785674662">
<time>2011-04-09T17:45:33.000+02:00</time>
<speed>3.6111112</speed>
<course>358.0</course>
<ele>82.0</ele>
</trkpt>
<trkpt lat="52.34585165977326" lon="13.354160785674662">
<time>2011-04-09T17:45:34.000+02:00</time>
<speed>3.3333333</speed>
<course>359.0</course>
<ele>82.0</ele>
</trkpt>
<trkpt lat="52.34588384628144" lon="13.354160785674662">
<time>2011-04-09T17:45:35.000+02:00</time>
<speed>3.3333333</speed>
<course>0.0</course>
<ele>82.0</ele>
</trkpt>
<trkpt lat="52.34591603278962" lon="13.354160785674662">
<time>2011-04-09T17:45:36.000+02:00</time>
<speed>3.3333333</speed>
<course>0.0</course>
<ele>82.0</ele>
</trkpt>
<trkpt lat="52.345937490461736" lon="13.354160785674662">
<time>2011-04-09T17:45:37.000+02:00</time>
<speed>3.0555556</speed>
<course>3.0</course>
<ele>82.0</ele>
</trkpt>
<trkpt lat="52.345969676969915" lon="13.354160785674662">
<time>2011-04-09T17:45:38.000+02:00</time>
<speed>2.7777777</speed>
<course>4.0</course>
<ele>82.0</ele>
</trkpt>
<trkpt lat="52.345991134642034" lon="13.35418224334678">
<time>2011-04-09T17:45:39.000+02:00</time>
<speed>2.7777777</speed>
<course>2.0</course>
<ele>82.0</ele>
</trkpt>
<trkpt lat="52.34602332115021" lon="13.35418224334678">
<time>2011-04-09T17:45:40.000+02:00</time>
<speed>2.5</speed>
<course>0.0</course>
<ele>82.0</ele>
</trkpt>
<trkpt lat="52.34604477882233" lon="13.35418224334678">
<time>2011-04-09T17:45:41.000+02:00</time>
<speed>2.7777777</speed>
<course>0.0</course>
<ele>82.0</ele>
</trkpt>
<trkpt lat="52.34607696533051" lon="13.35418224334678">
<time>2011-04-09T17:45:42.000+02:00</time>
<speed>2.7777777</speed>
<course>2.0</course>
<ele>82.0</ele>
</trkpt>
<trkpt lat="52.34610915183869" lon="13.35418224334678">
<time>2011-04-09T17:45:43.000+02:00</time>
<speed>3.0555556</speed>
<course>3.0</course>
<ele>82.0</ele>
</trkpt>
<trkpt lat="52.34613060951081" lon="13.35418224334678">
<time>2011-04-09T17:45:44.000+02:00</time>
<speed>3.0555556</speed>
<course>4.0</course>
<ele>82.0</ele>
</trkpt>
<trkpt lat="52.34616279601899" lon="13.3542037010189">
<time>2011-04-09T17:45:45.000+02:00</time>
<speed>3.0555556</speed>
<course>5.0</course>
<ele>82.0</ele>
</trkpt>
<trkpt lat="52.346237897871404" lon="13.3542037010189">
<time>2011-04-09T17:45:47.000+02:00</time>
<speed>3.3333333</speed>
<course>5.0</course>
<ele>82.0</ele>
</trkpt>
<trkpt lat="52.34627008437958" lon="13.354225158691019">
<time>2011-04-09T17:45:48.000+02:00</time>
<speed>3.3333333</speed>
<course>4.0</course>
<ele>82.0</ele>
</trkpt>
<trkpt lat="52.34630227088776" lon="13.354225158691019">
<time>2011-04-09T17:45:49.000+02:00</time>
<speed>3.3333333</speed>
<course>4.0</course>
<ele>82.0</ele>
</trkpt>
<trkpt lat="52.34633445739594" lon="13.354225158691019">
<time>2011-04-09T17:45:50.000+02:00</time>
<speed>3.0555556</speed>
<course>5.0</course>
<ele>82.0</ele>
</trkpt>
<trkpt lat="52.34636664390412" lon="13.354246616363138">
<time>2011-04-09T17:45:51.000+02:00</time>
<speed>3.0555556</speed>
<course>4.0</course>
<ele>82.0</ele>
</trkpt>
<trkpt lat="52.3463988304123" lon="13.354246616363138">
<time>2011-04-09T17:45:52.000+02:00</time>
<speed>3.0555556</speed>
<course>4.0</course>
<ele>81.0</ele>
</trkpt>
<trkpt lat="52.34643101692048" lon="13.354268074035257">
<time>2011-04-09T17:45:53.000+02:00</time>
<speed>3.0555556</speed>
<course>5.0</course>
<ele>81.0</ele>
</trkpt>
<trkpt lat="52.346452474592596" lon="13.354268074035257">
<time>2011-04-09T17:45:54.000+02:00</time>
<speed>2.7777777</speed>
<course>4.0</course>
<ele>81.0</ele>
</trkpt>
<trkpt lat="52.346484661100774" lon="13.354268074035257">
<time>2011-04-09T17:45:55.000+02:00</time>
<speed>2.5</speed>
<course>5.0</course>
<ele>81.0</ele>
</trkpt>
<trkpt lat="52.346484661100774" lon="13.354268074035257">
<time>2011-04-09T17:45:56.000+02:00</time>
<speed>0.0</speed>
<course>5.0</course>
<ele>81.0</ele>
</trkpt>
<trkpt lat="52.346484661100774" lon="13.354268074035257">
<time>2011-04-09T17:45:57.000+02:00</time>
<speed>0.0</speed>
<course>5.0</course>
<ele>81.0</ele>
</trkpt>
<trkpt lat="52.346484661100774" lon="13.354268074035257">
<time>2011-04-09T17:45:58.000+02:00</time>
<speed>0.0</speed>
<course>5.0</course>
<ele>81.0</ele>
</trkpt>
<trkpt lat="52.346484661100774" lon="13.354268074035257">
<time>2011-04-09T17:45:59.000+02:00</time>
<speed>0.0</speed>
<course>5.0</course>
<ele>81.0</ele>
</trkpt>
<trkpt lat="52.34658122062531" lon="13.354310989379496">
<time>2011-04-09T17:46:00.000+02:00</time>
<speed>0.0</speed>
<course>5.0</course>
<ele>81.0</ele>
</trkpt>
<trkpt lat="52.34658122062531" lon="13.354310989379496">
<time>2011-04-09T17:46:01.000+02:00</time>
<speed>0.0</speed>
<course>5.0</course>
<ele>81.0</ele>
</trkpt>
<trkpt lat="52.34658122062531" lon="13.354310989379496">
<time>2011-04-09T17:46:02.000+02:00</time>
<speed>0.0</speed>
<course>5.0</course>
<ele>81.0</ele>
</trkpt>
<trkpt lat="52.34658122062531" lon="13.354310989379496">
<time>2011-04-09T17:46:03.000+02:00</time>
<speed>0.0</speed>
<course>5.0</course>
<ele>81.0</ele>
</trkpt>
<trkpt lat="52.34658122062531" lon="13.354310989379496">
<time>2011-04-09T17:46:04.000+02:00</time>
<speed>0.0</speed>
<course>5.0</course>
<ele>81.0</ele>
</trkpt>
<trkpt lat="52.34658122062531" lon="13.354310989379496">
<time>2011-04-09T17:46:05.000+02:00</time>
<speed>0.0</speed>
<course>5.0</course>
<ele>81.0</ele>
</trkpt>
<trkpt lat="52.34658122062531" lon="13.354310989379496">
<time>2011-04-09T17:46:06.000+02:00</time>
<speed>0.0</speed>
<course>5.0</course>
<ele>81.0</ele>
</trkpt>
<trkpt lat="52.34658122062531" lon="13.354310989379496">
<time>2011-04-09T17:46:07.000+02:00</time>
<speed>0.0</speed>
<course>5.0</course>
<ele>81.0</ele>
</trkpt>
<trkpt lat="52.34658122062531" lon="13.354310989379496">
<time>2011-04-09T17:46:08.000+02:00</time>
<speed>0.0</speed>
<course>5.0</course>
<ele>81.0</ele>
</trkpt>
<trkpt lat="52.34658122062531" lon="13.354310989379496">
<time>2011-04-09T17:46:09.000+02:00</time>
<speed>0.0</speed>
<course>5.0</course>
<ele>81.0</ele>
</trkpt>
<trkpt lat="52.34658122062531" lon="13.354310989379496">
<time>2011-04-09T17:46:10.000+02:00</time>
<speed>0.0</speed>
<course>5.0</course>
<ele>81.0</ele>
</trkpt>
<trkpt lat="52.34658122062531" lon="13.354310989379496">
<time>2011-04-09T17:46:11.000+02:00</time>
<speed>0.0</speed>
<course>5.0</course>
<ele>81.0</ele>
</trkpt>
<trkpt lat="52.34658122062531" lon="13.354310989379496">
<time>2011-04-09T17:46:12.000+02:00</time>
<speed>0.0</speed>
<course>5.0</course>
<ele>81.0</ele>
</trkpt>
<trkpt lat="52.34658122062531" lon="13.354310989379496">
<time>2011-04-09T17:46:13.000+02:00</time>
<speed>0.0</speed>
<course>5.0</course>
<ele>81.0</ele>
</trkpt>
<trkpt lat="52.34658122062531" lon="13.354310989379496">
<time>2011-04-09T17:46:14.000+02:00</time>
<speed>0.0</speed>
<course>5.0</course>
<ele>81.0</ele>
</trkpt>
<trkpt lat="52.34658122062531" lon="13.354310989379496">
<time>2011-04-09T17:46:15.000+02:00</time>
<speed>0.0</speed>
<course>5.0</course>
<ele>81.0</ele>
</trkpt>
<trkpt lat="52.34658122062531" lon="13.354310989379496">
<time>2011-04-09T17:46:16.000+02:00</time>
<speed>0.0</speed>
<course>5.0</course>
<ele>81.0</ele>
</trkpt>
<trkpt lat="52.34658122062531" lon="13.354310989379496">
<time>2011-04-09T17:46:17.000+02:00</time>
<speed>0.0</speed>
<course>5.0</course>
<ele>81.0</ele>
</trkpt>
<trkpt lat="52.34658122062531" lon="13.354310989379496">
<time>2011-04-09T17:46:18.000+02:00</time>
<speed>0.0</speed>
<course>5.0</course>
<ele>81.0</ele>
</trkpt>
<trkpt lat="52.34658122062531" lon="13.354310989379496">
<time>2011-04-09T17:46:19.000+02:00</time>
<speed>0.0</speed>
<course>5.0</course>
<ele>81.0</ele>
</trkpt>
<trkpt lat="52.34658122062531" lon="13.354310989379496">
<time>2011-04-09T17:46:20.000+02:00</time>
<speed>0.0</speed>
<course>5.0</course>
<ele>81.0</ele>
</trkpt>
<trkpt lat="52.34658122062531" lon="13.354310989379496">
<time>2011-04-09T17:46:21.000+02:00</time>
<speed>0.0</speed>
<course>5.0</course>
<ele>81.0</ele>
</trkpt>
<trkpt lat="52.34658122062531" lon="13.354310989379496">
<time>2011-04-09T17:46:22.000+02:00</time>
<speed>0.0</speed>
<course>5.0</course>
<ele>81.0</ele>
</trkpt>
<trkpt lat="52.34658122062531" lon="13.354310989379496">
<time>2011-04-09T17:46:23.000+02:00</time>
<speed>0.0</speed>
<course>5.0</course>
<ele>81.0</ele>
</trkpt>
<trkpt lat="52.34658122062531" lon="13.354310989379496">
<time>2011-04-09T17:46:24.000+02:00</time>
<speed>0.0</speed>
<course>5.0</course>
<ele>81.0</ele>
</trkpt>
<trkpt lat="52.34658122062531" lon="13.354310989379496">
<time>2011-04-09T17:46:25.000+02:00</time>
<speed>0.0</speed>
<course>5.0</course>
<ele>81.0</ele>
</trkpt>
<trkpt lat="52.34658122062531" lon="13.354310989379496">
<time>2011-04-09T17:46:26.000+02:00</time>
<speed>0.0</speed>
<course>5.0</course>
<ele>81.0</ele>
</trkpt>
<trkpt lat="52.34658122062531" lon="13.354310989379496">
<time>2011-04-09T17:46:27.000+02:00</time>
<speed>0.0</speed>
<course>5.0</course>
<ele>81.0</ele>
</trkpt>
<trkpt lat="52.34658122062531" lon="13.354310989379496">
<time>2011-04-09T17:46:28.000+02:00</time>
<speed>0.0</speed>
<course>5.0</course>
<ele>81.0</ele>
</trkpt>
<trkpt lat="52.34658122062531" lon="13.354310989379496">
<time>2011-04-09T17:46:29.000+02:00</time>
<speed>0.0</speed>
<course>5.0</course>
<ele>81.0</ele>
</trkpt>
<trkpt lat="52.34658122062531" lon="13.354310989379496">
<time>2011-04-09T17:46:30.000+02:00</time>
<speed>0.0</speed>
<course>5.0</course>
<ele>81.0</ele>
</trkpt>
<trkpt lat="52.34658122062531" lon="13.354310989379496">
<time>2011-04-09T17:46:31.000+02:00</time>
<speed>0.0</speed>
<course>5.0</course>
<ele>81.0</ele>
</trkpt>
<trkpt lat="52.34658122062531" lon="13.354310989379496">
<time>2011-04-09T17:46:32.000+02:00</time>
<speed>0.0</speed>
<course>5.0</course>
<ele>81.0</ele>
</trkpt>
<trkpt lat="52.34658122062531" lon="13.354310989379496">
<time>2011-04-09T17:46:33.000+02:00</time>
<speed>0.0</speed>
<course>5.0</course>
<ele>81.0</ele>
</trkpt>
<trkpt lat="52.34658122062531" lon="13.354310989379496">
<time>2011-04-09T17:46:34.000+02:00</time>
<speed>0.0</speed>
<course>5.0</course>
<ele>81.0</ele>
</trkpt>
<trkpt lat="52.34658122062531" lon="13.354310989379496">
<time>2011-04-09T17:46:35.000+02:00</time>
<speed>0.0</speed>
<course>5.0</course>
<ele>81.0</ele>
</trkpt>
<trkpt lat="52.34658122062531" lon="13.354310989379496">
<time>2011-04-09T17:46:36.000+02:00</time>
<speed>0.0</speed>
<course>5.0</course>
<ele>81.0</ele>
</trkpt>
<trkpt lat="52.34658122062531" lon="13.354310989379496">
<time>2011-04-09T17:46:37.000+02:00</time>
<speed>0.0</speed>
<course>5.0</course>
<ele>81.0</ele>
</trkpt>
<trkpt lat="52.34658122062531" lon="13.354310989379496">
<time>2011-04-09T17:46:38.000+02:00</time>
<speed>0.0</speed>
<course>5.0</course>
<ele>81.0</ele>
</trkpt>
<trkpt lat="52.34658122062531" lon="13.354310989379496">
<time>2011-04-09T17:46:39.000+02:00</time>
<speed>0.0</speed>
<course>5.0</course>
<ele>81.0</ele>
</trkpt>
<trkpt lat="52.34658122062531" lon="13.354310989379496">
<time>2011-04-09T17:46:40.000+02:00</time>
<speed>0.0</speed>
<course>5.0</course>
<ele>81.0</ele>
</trkpt>
<trkpt lat="52.34658122062531" lon="13.354310989379496">
<time>2011-04-09T17:46:41.000+02:00</time>
<speed>0.0</speed>
<course>5.0</course>
<ele>81.0</ele>
</trkpt>
<trkpt lat="52.34658122062531" lon="13.354310989379496">
<time>2011-04-09T17:46:42.000+02:00</time>
<speed>0.0</speed>
<course>5.0</course>
<ele>81.0</ele>
</trkpt>
<trkpt lat="52.34658122062531" lon="13.354310989379496">
<time>2011-04-09T17:46:43.000+02:00</time>
<speed>0.0</speed>
<course>5.0</course>
<ele>81.0</ele>
</trkpt>
<trkpt lat="52.34658122062531" lon="13.354310989379496">
<time>2011-04-09T17:46:44.000+02:00</time>
<speed>0.0</speed>
<course>5.0</course>
<ele>81.0</ele>
</trkpt>
<trkpt lat="52.34658122062531" lon="13.354310989379496">
<time>2011-04-09T17:46:46.000+02:00</time>
<speed>0.0</speed>
<course>5.0</course>
<ele>81.0</ele>
</trkpt>
<trkpt lat="52.34658122062531" lon="13.354310989379496">
<time>2011-04-09T17:46:47.000+02:00</time>
<speed>0.0</speed>
<course>5.0</course>
<ele>81.0</ele>
</trkpt>
<trkpt lat="52.34658122062531" lon="13.354310989379496">
<time>2011-04-09T17:46:48.000+02:00</time>
<speed>0.0</speed>
<course>5.0</course>
<ele>81.0</ele>
</trkpt>
<trkpt lat="52.34658122062531" lon="13.354310989379496">
<time>2011-04-09T17:46:49.000+02:00</time>
<speed>0.0</speed>
<course>5.0</course>
<ele>81.0</ele>
</trkpt>
<trkpt lat="52.34658122062531" lon="13.354310989379496">
<time>2011-04-09T17:46:50.000+02:00</time>
<speed>0.0</speed>
<course>5.0</course>
<ele>81.0</ele>
</trkpt>
<trkpt lat="52.34658122062531" lon="13.354310989379496">
<time>2011-04-09T17:46:51.000+02:00</time>
<speed>0.0</speed>
<course>5.0</course>
<ele>81.0</ele>
</trkpt>
<trkpt lat="52.34658122062531" lon="13.354310989379496">
<time>2011-04-09T17:46:52.000+02:00</time>
<speed>0.0</speed>
<course>5.0</course>
<ele>81.0</ele>
</trkpt>
<trkpt lat="52.34658122062531" lon="13.354310989379496">
<time>2011-04-09T17:46:53.000+02:00</time>
<speed>0.0</speed>
<course>5.0</course>
<ele>81.0</ele>
</trkpt>
<trkpt lat="52.34658122062531" lon="13.354310989379496">
<time>2011-04-09T17:46:54.000+02:00</time>
<speed>0.0</speed>
<course>5.0</course>
<ele>81.0</ele>
</trkpt>
<trkpt lat="52.34663486480561" lon="13.354332447051615">
<time>2011-04-09T17:46:55.000+02:00</time>
<speed>0.0</speed>
<course>5.0</course>
<ele>82.0</ele>
</trkpt>
<trkpt lat="52.34663486480561" lon="13.354332447051615">
<time>2011-04-09T17:46:56.000+02:00</time>
<speed>0.0</speed>
<course>5.0</course>
<ele>82.0</ele>
</trkpt>
<trkpt lat="52.346699237821966" lon="13.354332447051615">
<time>2011-04-09T17:46:57.000+02:00</time>
<speed>2.2222223</speed>
<course>4.0</course>
<ele>83.0</ele>
</trkpt>
<trkpt lat="52.346742153166204" lon="13.354353904723734">
<time>2011-04-09T17:46:58.000+02:00</time>
<speed>2.7777777</speed>
<course>5.0</course>
<ele>83.0</ele>
</trkpt>
<trkpt lat="52.34678506851044" lon="13.354353904723734">
<time>2011-04-09T17:46:59.000+02:00</time>
<speed>2.7777777</speed>
<course>3.0</course>
<ele>83.0</ele>
</trkpt>
<trkpt lat="52.34682798385468" lon="13.354375362395853">
<time>2011-04-09T17:47:00.000+02:00</time>
<speed>2.5</speed>
<course>4.0</course>
<ele>83.0</ele>
</trkpt>
<trkpt lat="52.34686017036286" lon="13.354375362395853">
<time>2011-04-09T17:47:01.000+02:00</time>
<speed>2.5</speed>
<course>3.0</course>
<ele>83.0</ele>
</trkpt>
<trkpt lat="52.3469030857071" lon="13.354375362395853">
<time>2011-04-09T17:47:02.000+02:00</time>
<speed>2.7777777</speed>
<course>2.0</course>
<ele>84.0</ele>
</trkpt>
<trkpt lat="52.346935272215276" lon="13.354396820067972">
<time>2011-04-09T17:47:03.000+02:00</time>
<speed>2.7777777</speed>
<course>3.0</course>
<ele>84.0</ele>
</trkpt>
<trkpt lat="52.346978187559515" lon="13.354396820067972">
<time>2011-04-09T17:47:04.000+02:00</time>
<speed>2.7777777</speed>
<course>4.0</course>
<ele>84.0</ele>
</trkpt>
<trkpt lat="52.34701037406769" lon="13.354396820067972">
<time>2011-04-09T17:47:05.000+02:00</time>
<speed>2.5</speed>
<course>3.0</course>
<ele>84.0</ele>
</trkpt>
<trkpt lat="52.34704256057587" lon="13.354418277740091">
<time>2011-04-09T17:47:06.000+02:00</time>
<speed>2.5</speed>
<course>2.0</course>
<ele>84.0</ele>
</trkpt>
<trkpt lat="52.34707474708405" lon="13.354418277740091">
<time>2011-04-09T17:47:07.000+02:00</time>
<speed>2.5</speed>
<course>2.0</course>
<ele>84.0</ele>
</trkpt>
<trkpt lat="52.34711766242829" lon="13.354418277740091">
<time>2011-04-09T17:47:08.000+02:00</time>
<speed>2.5</speed>
<course>2.0</course>
<ele>84.0</ele>
</trkpt>
<trkpt lat="52.34714984893647" lon="13.35443973541221">
<time>2011-04-09T17:47:09.000+02:00</time>
<speed>2.5</speed>
<course>4.0</course>
<ele>84.0</ele>
</trkpt>
<trkpt lat="52.347182035444646" lon="13.35443973541221">
<time>2011-04-09T17:47:10.000+02:00</time>
<speed>2.5</speed>
<course>5.0</course>
<ele>84.0</ele>
</trkpt>
<trkpt lat="52.347214221952825" lon="13.35446119308433">
<time>2011-04-09T17:47:11.000+02:00</time>
<speed>2.7777777</speed>
<course>5.0</course>
<ele>84.0</ele>
</trkpt>
<trkpt lat="52.347246408461004" lon="13.35446119308433">
<time>2011-04-09T17:47:12.000+02:00</time>
<speed>3.0555556</speed>
<course>6.0</course>
<ele>84.0</ele>
</trkpt>
<trkpt lat="52.34727859496918" lon="13.354482650756449">
<time>2011-04-09T17:47:13.000+02:00</time>
<speed>3.0555556</speed>
<course>6.0</course>
<ele>84.0</ele>
</trkpt>
<trkpt lat="52.34732151031342" lon="13.354482650756449">
<time>2011-04-09T17:47:14.000+02:00</time>
<speed>2.7777777</speed>
<course>4.0</course>
<ele>84.0</ele>
</trkpt>
<trkpt lat="52.3473536968216" lon="13.354482650756449">
<time>2011-04-09T17:47:15.000+02:00</time>
<speed>2.7777777</speed>
<course>3.0</course>
<ele>84.0</ele>
</trkpt>
<trkpt lat="52.34738588332978" lon="13.354504108428568">
<time>2011-04-09T17:47:16.000+02:00</time>
<speed>2.7777777</speed>
<course>4.0</course>
<ele>84.0</ele>
</trkpt>
<trkpt lat="52.34741806983796" lon="13.354504108428568">
<time>2011-04-09T17:47:17.000+02:00</time>
<speed>2.7777777</speed>
<course>3.0</course>
<ele>84.0</ele>
</trkpt>
<trkpt lat="52.347439527510076" lon="13.354504108428568">
<time>2011-04-09T17:47:18.000+02:00</time>
<speed>2.7777777</speed>
<course>2.0</course>
<ele>84.0</ele>
</trkpt>
<trkpt lat="52.347471714018255" lon="13.354525566100687">
<time>2011-04-09T17:47:19.000+02:00</time>
<speed>2.7777777</speed>
<course>2.0</course>
<ele>84.0</ele>
</trkpt>
<trkpt lat="52.34750390052643" lon="13.354525566100687">
<time>2011-04-09T17:47:20.000+02:00</time>
<speed>2.7777777</speed>
<course>3.0</course>
<ele>84.0</ele>
</trkpt>
<trkpt lat="52.34752535819855" lon="13.354525566100687">
<time>2011-04-09T17:47:21.000+02:00</time>
<speed>2.7777777</speed>
<course>3.0</course>
<ele>84.0</ele>
</trkpt>
<trkpt lat="52.34755754470673" lon="13.354525566100687">
<time>2011-04-09T17:47:22.000+02:00</time>
<speed>2.5</speed>
<course>2.0</course>
<ele>84.0</ele>
</trkpt>
<trkpt lat="52.34757900237885" lon="13.354525566100687">
<time>2011-04-09T17:47:23.000+02:00</time>
<speed>2.2222223</speed>
<course>1.0</course>
<ele>84.0</ele>
</trkpt>
<trkpt lat="52.34760046005097" lon="13.354547023772806">
<time>2011-04-09T17:47:24.000+02:00</time>
<speed>2.2222223</speed>
<course>1.0</course>
<ele>84.0</ele>
</trkpt>
<trkpt lat="52.34762191772309" lon="13.354547023772806">
<time>2011-04-09T17:47:25.000+02:00</time>
<speed>1.9444444</speed>
<course>0.0</course>
<ele>84.0</ele>
</trkpt>
<trkpt lat="52.34764337539521" lon="13.354547023772806">
<time>2011-04-09T17:47:26.000+02:00</time>
<speed>1.9444444</speed>
<course>0.0</course>
<ele>83.0</ele>
</trkpt>
<trkpt lat="52.34765410423127" lon="13.354547023772806">
<time>2011-04-09T17:47:27.000+02:00</time>
<speed>1.9444444</speed>
<course>1.0</course>
<ele>83.0</ele>
</trkpt>
<trkpt lat="52.34767556190339" lon="13.354547023772806">
<time>2011-04-09T17:47:28.000+02:00</time>
<speed>2.2222223</speed>
<course>3.0</course>
<ele>83.0</ele>
</trkpt>
<trkpt lat="52.347707748411565" lon="13.354547023772806">
<time>2011-04-09T17:47:29.000+02:00</time>
<speed>2.5</speed>
<course>2.0</course>
<ele>83.0</ele>
</trkpt>
<trkpt lat="52.347729206083685" lon="13.354568481444925">
<time>2011-04-09T17:47:30.000+02:00</time>
<speed>2.5</speed>
<course>2.0</course>
<ele>83.0</ele>
</trkpt>
<trkpt lat="52.347750663755804" lon="13.354568481444925">
<time>2011-04-09T17:47:31.000+02:00</time>
<speed>2.2222223</speed>
<course>2.0</course>
<ele>83.0</ele>
</trkpt>
<trkpt lat="52.34777212142792" lon="13.354568481444925">
<time>2011-04-09T17:47:32.000+02:00</time>
<speed>2.2222223</speed>
<course>3.0</course>
<ele>82.0</ele>
</trkpt>
<trkpt lat="52.34779357910004" lon="13.354568481444925">
<time>2011-04-09T17:47:33.000+02:00</time>
<speed>2.5</speed>
<course>3.0</course>
<ele>82.0</ele>
</trkpt>
<trkpt lat="52.34781503677216" lon="13.354568481444925">
<time>2011-04-09T17:47:34.000+02:00</time>
<speed>2.2222223</speed>
<course>3.0</course>
<ele>82.0</ele>
</trkpt>
<trkpt lat="52.34784722328034" lon="13.354589939117044">
<time>2011-04-09T17:47:35.000+02:00</time>
<speed>2.5</speed>
<course>3.0</course>
<ele>82.0</ele>
</trkpt>
<trkpt lat="52.34786868095246" lon="13.354589939117044">
<time>2011-04-09T17:47:36.000+02:00</time>
<speed>2.5</speed>
<course>1.0</course>
<ele>82.0</ele>
</trkpt>
<trkpt lat="52.34790086746064" lon="13.354589939117044">
<time>2011-04-09T17:47:37.000+02:00</time>
<speed>2.5</speed>
<course>1.0</course>
<ele>82.0</ele>
</trkpt>
<trkpt lat="52.34792232513276" lon="13.354589939117044">
<time>2011-04-09T17:47:38.000+02:00</time>
<speed>2.5</speed>
<course>1.0</course>
<ele>82.0</ele>
</trkpt>
<trkpt lat="52.347954511640935" lon="13.354589939117044">
<time>2011-04-09T17:47:39.000+02:00</time>
<speed>2.7777777</speed>
<course>2.0</course>
<ele>81.0</ele>
</trkpt>
<trkpt lat="52.347986698149114" lon="13.354611396789164">
<time>2011-04-09T17:47:40.000+02:00</time>
<speed>2.7777777</speed>
<course>2.0</course>
<ele>81.0</ele>
</trkpt>
<trkpt lat="52.34801888465729" lon="13.354611396789164">
<time>2011-04-09T17:47:41.000+02:00</time>
<speed>2.7777777</speed>
<course>1.0</course>
<ele>81.0</ele>
</trkpt>
<trkpt lat="52.34805107116547" lon="13.354611396789164">
<time>2011-04-09T17:47:42.000+02:00</time>
<speed>2.7777777</speed>
<course>3.0</course>
<ele>81.0</ele>
</trkpt>
<trkpt lat="52.34808325767365" lon="13.354611396789164">
<time>2011-04-09T17:47:43.000+02:00</time>
<speed>2.7777777</speed>
<course>3.0</course>
<ele>81.0</ele>
</trkpt>
<trkpt lat="52.34811544418183" lon="13.354632854461283">
<time>2011-04-09T17:47:44.000+02:00</time>
<speed>3.0555556</speed>
<course>6.0</course>
<ele>81.0</ele>
</trkpt>
<trkpt lat="52.34815835952607" lon="13.354632854461283">
<time>2011-04-09T17:47:45.000+02:00</time>
<speed>3.0555556</speed>
<course>6.0</course>
<ele>81.0</ele>
</trkpt>
<trkpt lat="52.348201274870306" lon="13.354654312133402">
<time>2011-04-09T17:47:46.000+02:00</time>
<speed>3.0555556</speed>
<course>5.0</course>
<ele>80.0</ele>
</trkpt>
<trkpt lat="52.348244190214544" lon="13.354654312133402">
<time>2011-04-09T17:47:47.000+02:00</time>
<speed>3.0555556</speed>
<course>6.0</course>
<ele>80.0</ele>
</trkpt>
<trkpt lat="52.34829783439484" lon="13.354675769805521">
<time>2011-04-09T17:47:48.000+02:00</time>
<speed>3.0555556</speed>
<course>7.0</course>
<ele>80.0</ele>
</trkpt>
<trkpt lat="52.34840512275544" lon="13.35469722747764">
<time>2011-04-09T17:47:50.000+02:00</time>
<speed>3.0555556</speed>
<course>8.0</course>
<ele>80.0</ele>
</trkpt>
<trkpt lat="52.348458766935735" lon="13.35471868514976">
<time>2011-04-09T17:47:51.000+02:00</time>
<speed>3.0555556</speed>
<course>8.0</course>
<ele>80.0</ele>
</trkpt>
<trkpt lat="52.34851241111603" lon="13.354740142821878">
<time>2011-04-09T17:47:52.000+02:00</time>
<speed>3.0555556</speed>
<course>7.0</course>
<ele>80.0</ele>
</trkpt>
<trkpt lat="52.34855532646027" lon="13.354740142821878">
<time>2011-04-09T17:47:53.000+02:00</time>
<speed>2.7777777</speed>
<course>6.0</course>
<ele>80.0</ele>
</trkpt>
<trkpt lat="52.34859824180451" lon="13.354761600493998">
<time>2011-04-09T17:47:54.000+02:00</time>
<speed>2.7777777</speed>
<course>7.0</course>
<ele>80.0</ele>
</trkpt>
<trkpt lat="52.34864115714875" lon="13.354761600493998">
<time>2011-04-09T17:47:55.000+02:00</time>
<speed>2.7777777</speed>
<course>7.0</course>
<ele>80.0</ele>
</trkpt>
<trkpt lat="52.348684072492986" lon="13.354783058166117">
<time>2011-04-09T17:47:56.000+02:00</time>
<speed>3.0555556</speed>
<course>9.0</course>
<ele>80.0</ele>
</trkpt>
<trkpt lat="52.348726987837225" lon="13.354804515838236">
<time>2011-04-09T17:47:57.000+02:00</time>
<speed>3.0555556</speed>
<course>10.0</course>
<ele>80.0</ele>
</trkpt>
<trkpt lat="52.34876990318146" lon="13.354804515838236">
<time>2011-04-09T17:47:58.000+02:00</time>
<speed>3.0555556</speed>
<course>9.0</course>
<ele>80.0</ele>
</trkpt>
<trkpt lat="52.34880208968964" lon="13.354825973510355">
<time>2011-04-09T17:47:59.000+02:00</time>
<speed>3.0555556</speed>
<course>7.0</course>
<ele>80.0</ele>
</trkpt>
<trkpt lat="52.34884500503388" lon="13.354825973510355">
<time>2011-04-09T17:48:00.000+02:00</time>
<speed>3.0555556</speed>
<course>6.0</course>
<ele>80.0</ele>
</trkpt>
<trkpt lat="52.34887719154206" lon="13.354847431182474">
<time>2011-04-09T17:48:01.000+02:00</time>
<speed>3.0555556</speed>
<course>5.0</course>
<ele>80.0</ele>
</trkpt>
<trkpt lat="52.3489201068863" lon="13.354847431182474">
<time>2011-04-09T17:48:02.000+02:00</time>
<speed>3.0555556</speed>
<course>5.0</course>
<ele>80.0</ele>
</trkpt>
<trkpt lat="52.348952293394476" lon="13.354847431182474">
<time>2011-04-09T17:48:03.000+02:00</time>
<speed>3.0555556</speed>
<course>4.0</course>
<ele>80.0</ele>
</trkpt>
<trkpt lat="52.348984479902654" lon="13.354868888854593">
<time>2011-04-09T17:48:04.000+02:00</time>
<speed>3.0555556</speed>
<course>5.0</course>
<ele>80.0</ele>
</trkpt>
<trkpt lat="52.34902739524689" lon="13.354868888854593">
<time>2011-04-09T17:48:05.000+02:00</time>
<speed>3.0555556</speed>
<course>5.0</course>
<ele>80.0</ele>
</trkpt>
<trkpt lat="52.34904885291901" lon="13.354868888854593">
<time>2011-04-09T17:48:06.000+02:00</time>
<speed>2.5</speed>
<course>4.0</course>
<ele>80.0</ele>
</trkpt>
<trkpt lat="52.34904885291901" lon="13.354868888854593">
<time>2011-04-09T17:48:07.000+02:00</time>
<speed>0.0</speed>
<course>4.0</course>
<ele>80.0</ele>
</trkpt>
<trkpt lat="52.34904885291901" lon="13.354868888854593">
<time>2011-04-09T17:48:08.000+02:00</time>
<speed>0.0</speed>
<course>4.0</course>
<ele>80.0</ele>
</trkpt>
<trkpt lat="52.34911322593537" lon="13.354890346526712">
<time>2011-04-09T17:48:09.000+02:00</time>
<speed>1.9444444</speed>
<course>7.0</course>
<ele>81.0</ele>
</trkpt>
<trkpt lat="52.34913468360749" lon="13.354890346526712">
<time>2011-04-09T17:48:10.000+02:00</time>
<speed>1.9444444</speed>
<course>6.0</course>
<ele>81.0</ele>
</trkpt>
<trkpt lat="52.34915614127961" lon="13.354890346526712">
<time>2011-04-09T17:48:11.000+02:00</time>
<speed>1.6666666</speed>
<course>6.0</course>
<ele>81.0</ele>
</trkpt>
<trkpt lat="52.34916687011567" lon="13.354911804198832">
<time>2011-04-09T17:48:12.000+02:00</time>
<speed>1.6666666</speed>
<course>5.0</course>
<ele>81.0</ele>
</trkpt>
<trkpt lat="52.349188327787786" lon="13.354911804198832">
<time>2011-04-09T17:48:13.000+02:00</time>
<speed>1.6666666</speed>
<course>4.0</course>
<ele>81.0</ele>
</trkpt>
<trkpt lat="52.349199056623846" lon="13.354911804198832">
<time>2011-04-09T17:48:14.000+02:00</time>
<speed>1.6666666</speed>
<course>3.0</course>
<ele>81.0</ele>
</trkpt>
<trkpt lat="52.349220514295965" lon="13.354911804198832">
<time>2011-04-09T17:48:15.000+02:00</time>
<speed>1.6666666</speed>
<course>4.0</course>
<ele>81.0</ele>
</trkpt>
<trkpt lat="52.349241971968084" lon="13.354911804198832">
<time>2011-04-09T17:48:16.000+02:00</time>
<speed>1.9444444</speed>
<course>5.0</course>
<ele>81.0</ele>
</trkpt>
<trkpt lat="52.3492634296402" lon="13.35493326187095">
<time>2011-04-09T17:48:17.000+02:00</time>
<speed>2.2222223</speed>
<course>3.0</course>
<ele>81.0</ele>
</trkpt>
<trkpt lat="52.34928488731232" lon="13.35493326187095">
<time>2011-04-09T17:48:18.000+02:00</time>
<speed>2.5</speed>
<course>4.0</course>
<ele>81.0</ele>
</trkpt>
<trkpt lat="52.3493170738205" lon="13.35493326187095">
<time>2011-04-09T17:48:19.000+02:00</time>
<speed>2.7777777</speed>
<course>3.0</course>
<ele>81.0</ele>
</trkpt>
<trkpt lat="52.34933853149262" lon="13.35493326187095">
<time>2011-04-09T17:48:20.000+02:00</time>
<speed>2.5</speed>
<course>4.0</course>
<ele>81.0</ele>
</trkpt>
<trkpt lat="52.3493707180008" lon="13.35493326187095">
<time>2011-04-09T17:48:21.000+02:00</time>
<speed>2.7777777</speed>
<course>5.0</course>
<ele>81.0</ele>
</trkpt>
<trkpt lat="52.34939217567292" lon="13.35495471954307">
<time>2011-04-09T17:48:22.000+02:00</time>
<speed>2.5</speed>
<course>6.0</course>
<ele>81.0</ele>
</trkpt>
<trkpt lat="52.34941363334504" lon="13.35495471954307">
<time>2011-04-09T17:48:23.000+02:00</time>
<speed>2.5</speed>
<course>6.0</course>
<ele>81.0</ele>
</trkpt>
<trkpt lat="52.349435091017156" lon="13.35495471954307">
<time>2011-04-09T17:48:24.000+02:00</time>
<speed>2.2222223</speed>
<course>5.0</course>
<ele>81.0</ele>
</trkpt>
<trkpt lat="52.349456548689275" lon="13.35495471954307">
<time>2011-04-09T17:48:25.000+02:00</time>
<speed>2.2222223</speed>
<course>4.0</course>
<ele>81.0</ele>
</trkpt>
<trkpt lat="52.349478006361394" lon="13.35495471954307">
<time>2011-04-09T17:48:26.000+02:00</time>
<speed>2.5</speed>
<course>5.0</course>
<ele>81.0</ele>
</trkpt>
<trkpt lat="52.349499464033514" lon="13.354976177215189">
<time>2011-04-09T17:48:27.000+02:00</time>
<speed>2.7777777</speed>
<course>4.0</course>
<ele>81.0</ele>
</trkpt>
<trkpt lat="52.34952092170563" lon="13.354976177215189">
<time>2011-04-09T17:48:28.000+02:00</time>
<speed>2.7777777</speed>
<course>4.0</course>
<ele>81.0</ele>
</trkpt>
<trkpt lat="52.34955310821381" lon="13.354976177215189">
<time>2011-04-09T17:48:29.000+02:00</time>
<speed>2.5</speed>
<course>5.0</course>
<ele>81.0</ele>
</trkpt>
<trkpt lat="52.34955310821381" lon="13.354976177215189">
<time>2011-04-09T17:48:30.000+02:00</time>
<speed>0.0</speed>
<course>5.0</course>
<ele>81.0</ele>
</trkpt>
<trkpt lat="52.34955310821381" lon="13.354976177215189">
<time>2011-04-09T17:48:31.000+02:00</time>
<speed>0.0</speed>
<course>5.0</course>
<ele>81.0</ele>
</trkpt>
<trkpt lat="52.34960675239411" lon="13.354976177215189">
<time>2011-04-09T17:48:32.000+02:00</time>
<speed>2.5</speed>
<course>5.0</course>
<ele>80.0</ele>
</trkpt>
<trkpt lat="52.34962821006623" lon="13.354976177215189">
<time>2011-04-09T17:48:33.000+02:00</time>
<speed>2.5</speed>
<course>4.0</course>
<ele>80.0</ele>
</trkpt>
<trkpt lat="52.34964966773835" lon="13.354997634887308">
<time>2011-04-09T17:48:34.000+02:00</time>
<speed>2.5</speed>
<course>4.0</course>
<ele>80.0</ele>
</trkpt>
<trkpt lat="52.34967112541047" lon="13.354997634887308">
<time>2011-04-09T17:48:35.000+02:00</time>
<speed>2.5</speed>
<course>5.0</course>
<ele>80.0</ele>
</trkpt>
<trkpt lat="52.349692583082586" lon="13.354997634887308">
<time>2011-04-09T17:48:36.000+02:00</time>
<speed>2.2222223</speed>
<course>4.0</course>
<ele>80.0</ele>
</trkpt>
<trkpt lat="52.349714040754705" lon="13.354997634887308">
<time>2011-04-09T17:48:37.000+02:00</time>
<speed>2.2222223</speed>
<course>6.0</course>
<ele>80.0</ele>
</trkpt>
<trkpt lat="52.349735498426824" lon="13.354997634887308">
<time>2011-04-09T17:48:38.000+02:00</time>
<speed>2.2222223</speed>
<course>2.0</course>
<ele>80.0</ele>
</trkpt>
<trkpt lat="52.349767684935" lon="13.355019092559427">
<time>2011-04-09T17:48:39.000+02:00</time>
<speed>2.2222223</speed>
<course>1.0</course>
<ele>80.0</ele>
</trkpt>
<trkpt lat="52.34978914260712" lon="13.355019092559427">
<time>2011-04-09T17:48:40.000+02:00</time>
<speed>2.2222223</speed>
<course>1.0</course>
<ele>80.0</ele>
</trkpt>
<trkpt lat="52.34983205795136" lon="13.355040550231546">
<time>2011-04-09T17:48:41.000+02:00</time>
<speed>2.5</speed>
<course>3.0</course>
<ele>80.0</ele>
</trkpt>
<trkpt lat="52.34986424445954" lon="13.355040550231546">
<time>2011-04-09T17:48:42.000+02:00</time>
<speed>2.5</speed>
<course>1.0</course>
<ele>80.0</ele>
</trkpt>
<trkpt lat="52.349939346311956" lon="13.355062007903665">
<time>2011-04-09T17:48:44.000+02:00</time>
<speed>2.5</speed>
<course>6.0</course>
<ele>80.0</ele>
</trkpt>
<trkpt lat="52.349982261656194" lon="13.355083465575785">
<time>2011-04-09T17:48:45.000+02:00</time>
<speed>2.5</speed>
<course>4.0</course>
<ele>80.0</ele>
</trkpt>
<trkpt lat="52.35001444816437" lon="13.355083465575785">
<time>2011-04-09T17:48:46.000+02:00</time>
<speed>2.7777777</speed>
<course>4.0</course>
<ele>80.0</ele>
</trkpt>
<trkpt lat="52.35005736350861" lon="13.355104923247904">
<time>2011-04-09T17:48:47.000+02:00</time>
<speed>2.5</speed>
<course>4.0</course>
<ele>80.0</ele>
</trkpt>
<trkpt lat="52.35008955001679" lon="13.355104923247904">
<time>2011-04-09T17:48:48.000+02:00</time>
<speed>2.5</speed>
<course>3.0</course>
<ele>80.0</ele>
</trkpt>
<trkpt lat="52.35013246536103" lon="13.355126380920023">
<time>2011-04-09T17:48:49.000+02:00</time>
<speed>2.5</speed>
<course>2.0</course>
<ele>80.0</ele>
</trkpt>
<trkpt lat="52.35016465186921" lon="13.355126380920023">
<time>2011-04-09T17:48:50.000+02:00</time>
<speed>2.5</speed>
<course>2.0</course>
<ele>80.0</ele>
</trkpt>
<trkpt lat="52.350196838377386" lon="13.355126380920023">
<time>2011-04-09T17:48:51.000+02:00</time>
<speed>2.5</speed>
<course>3.0</course>
<ele>80.0</ele>
</trkpt>
<trkpt lat="52.350229024885564" lon="13.355126380920023">
<time>2011-04-09T17:48:52.000+02:00</time>
<speed>2.2222223</speed>
<course>1.0</course>
<ele>80.0</ele>
</trkpt>
<trkpt lat="52.35026121139374" lon="13.355126380920023">
<time>2011-04-09T17:48:53.000+02:00</time>
<speed>2.2222223</speed>
<course>2.0</course>
<ele>80.0</ele>
</trkpt>
<trkpt lat="52.35029339790192" lon="13.355126380920023">
<time>2011-04-09T17:48:54.000+02:00</time>
<speed>2.5</speed>
<course>3.0</course>
<ele>80.0</ele>
</trkpt>
<trkpt lat="52.3503255844101" lon="13.355147838592142">
<time>2011-04-09T17:48:55.000+02:00</time>
<speed>2.5</speed>
<course>3.0</course>
<ele>80.0</ele>
</trkpt>
<trkpt lat="52.35035777091828" lon="13.355147838592142">
<time>2011-04-09T17:48:56.000+02:00</time>
<speed>2.5</speed>
<course>5.0</course>
<ele>80.0</ele>
</trkpt>
<trkpt lat="52.3503792285904" lon="13.355147838592142">
<time>2011-04-09T17:48:57.000+02:00</time>
<speed>2.5</speed>
<course>5.0</course>
<ele>80.0</ele>
</trkpt>
<trkpt lat="52.35041141509858" lon="13.355147838592142">
<time>2011-04-09T17:48:58.000+02:00</time>
<speed>2.5</speed>
<course>5.0</course>
<ele>80.0</ele>
</trkpt>
<trkpt lat="52.350443601606756" lon="13.355169296264261">
<time>2011-04-09T17:48:59.000+02:00</time>
<speed>2.5</speed>
<course>6.0</course>
<ele>80.0</ele>
</trkpt>
<trkpt lat="52.350465059278875" lon="13.355169296264261">
<time>2011-04-09T17:49:00.000+02:00</time>
<speed>2.2222223</speed>
<course>5.0</course>
<ele>80.0</ele>
</trkpt>
<trkpt lat="52.350497245787054" lon="13.355169296264261">
<time>2011-04-09T17:49:01.000+02:00</time>
<speed>2.2222223</speed>
<course>4.0</course>
<ele>80.0</ele>
</trkpt>
<trkpt lat="52.35051870345917" lon="13.35519075393638">
<time>2011-04-09T17:49:02.000+02:00</time>
<speed>2.5</speed>
<course>4.0</course>
<ele>80.0</ele>
</trkpt>
<trkpt lat="52.35055088996735" lon="13.35519075393638">
<time>2011-04-09T17:49:03.000+02:00</time>
<speed>2.5</speed>
<course>4.0</course>
<ele>80.0</ele>
</trkpt>
<trkpt lat="52.35057234763947" lon="13.35519075393638">
<time>2011-04-09T17:49:04.000+02:00</time>
<speed>2.5</speed>
<course>2.0</course>
<ele>80.0</ele>
</trkpt>
<trkpt lat="52.35060453414765" lon="13.35519075393638">
<time>2011-04-09T17:49:05.000+02:00</time>
<speed>2.5</speed>
<course>1.0</course>
<ele>80.0</ele>
</trkpt>
<trkpt lat="52.35063672065583" lon="13.35519075393638">
<time>2011-04-09T17:49:06.000+02:00</time>
<speed>2.5</speed>
<course>1.0</course>
<ele>80.0</ele>
</trkpt>
<trkpt lat="52.35066890716401" lon="13.3552122116085">
<time>2011-04-09T17:49:07.000+02:00</time>
<speed>2.7777777</speed>
<course>2.0</course>
<ele>80.0</ele>
</trkpt>
<trkpt lat="52.350701093672185" lon="13.3552122116085">
<time>2011-04-09T17:49:08.000+02:00</time>
<speed>2.5</speed>
<course>2.0</course>
<ele>80.0</ele>
</trkpt>
<trkpt lat="52.350733280180364" lon="13.3552122116085">
<time>2011-04-09T17:49:09.000+02:00</time>
<speed>2.5</speed>
<course>3.0</course>
<ele>80.0</ele>
</trkpt>
<trkpt lat="52.35076546668854" lon="13.355233669280619">
<time>2011-04-09T17:49:10.000+02:00</time>
<speed>2.5</speed>
<course>4.0</course>
<ele>80.0</ele>
</trkpt>
<trkpt lat="52.35078692436066" lon="13.355233669280619">
<time>2011-04-09T17:49:11.000+02:00</time>
<speed>2.5</speed>
<course>3.0</course>
<ele>80.0</ele>
</trkpt>
<trkpt lat="52.35081911086884" lon="13.355255126952738">
<time>2011-04-09T17:49:12.000+02:00</time>
<speed>2.5</speed>
<course>3.0</course>
<ele>80.0</ele>
</trkpt>
<trkpt lat="52.35085129737702" lon="13.355255126952738">
<time>2011-04-09T17:49:13.000+02:00</time>
<speed>2.5</speed>
<course>3.0</course>
<ele>80.0</ele>
</trkpt>
<trkpt lat="52.35087275504914" lon="13.355255126952738">
<time>2011-04-09T17:49:14.000+02:00</time>
<speed>2.5</speed>
<course>4.0</course>
<ele>80.0</ele>
</trkpt>
<trkpt lat="52.35090494155732" lon="13.355255126952738">
<time>2011-04-09T17:49:15.000+02:00</time>
<speed>2.5</speed>
<course>4.0</course>
<ele>80.0</ele>
</trkpt>
<trkpt lat="52.350937128065496" lon="13.355276584624857">
<time>2011-04-09T17:49:16.000+02:00</time>
<speed>2.5</speed>
<course>4.0</course>
<ele>80.0</ele>
</trkpt>
<trkpt lat="52.350958585737615" lon="13.355276584624857">
<time>2011-04-09T17:49:17.000+02:00</time>
<speed>2.5</speed>
<course>3.0</course>
<ele>80.0</ele>
</trkpt>
<trkpt lat="52.350990772245794" lon="13.355276584624857">
<time>2011-04-09T17:49:18.000+02:00</time>
<speed>2.5</speed>
<course>3.0</course>
<ele>80.0</ele>
</trkpt>
<trkpt lat="52.35102295875397" lon="13.355276584624857">
<time>2011-04-09T17:49:19.000+02:00</time>
<speed>2.5</speed>
<course>4.0</course>
<ele>79.0</ele>
</trkpt>
<trkpt lat="52.35104441642609" lon="13.355298042296976">
<time>2011-04-09T17:49:20.000+02:00</time>
<speed>2.5</speed>
<course>4.0</course>
<ele>79.0</ele>
</trkpt>
<trkpt lat="52.35107660293427" lon="13.355298042296976">
<time>2011-04-09T17:49:21.000+02:00</time>
<speed>2.5</speed>
<course>4.0</course>
<ele>79.0</ele>
</trkpt>
<trkpt lat="52.35110878944245" lon="13.355298042296976">
<time>2011-04-09T17:49:22.000+02:00</time>
<speed>2.5</speed>
<course>2.0</course>
<ele>79.0</ele>
</trkpt>
<trkpt lat="52.35114097595063" lon="13.355298042296976">
<time>2011-04-09T17:49:23.000+02:00</time>
<speed>2.5</speed>
<course>1.0</course>
<ele>79.0</ele>
</trkpt>
<trkpt lat="52.35116243362275" lon="13.355298042296976">
<time>2011-04-09T17:49:24.000+02:00</time>
<speed>2.5</speed>
<course>3.0</course>
<ele>79.0</ele>
</trkpt>
<trkpt lat="52.351194620130926" lon="13.355319499969095">
<time>2011-04-09T17:49:25.000+02:00</time>
<speed>2.5</speed>
<course>6.0</course>
<ele>79.0</ele>
</trkpt>
<trkpt lat="52.351216077803045" lon="13.355319499969095">
<time>2011-04-09T17:49:26.000+02:00</time>
<speed>2.5</speed>
<course>6.0</course>
<ele>79.0</ele>
</trkpt>
<trkpt lat="52.351248264311224" lon="13.355319499969095">
<time>2011-04-09T17:49:27.000+02:00</time>
<speed>2.5</speed>
<course>6.0</course>
<ele>79.0</ele>
</trkpt>
<trkpt lat="52.35126972198334" lon="13.355319499969095">
<time>2011-04-09T17:49:28.000+02:00</time>
<speed>2.5</speed>
<course>5.0</course>
<ele>79.0</ele>
</trkpt>
<trkpt lat="52.35130190849152" lon="13.355340957641214">
<time>2011-04-09T17:49:29.000+02:00</time>
<speed>2.5</speed>
<course>6.0</course>
<ele>79.0</ele>
</trkpt>
<trkpt lat="52.3513340949997" lon="13.355340957641214">
<time>2011-04-09T17:49:30.000+02:00</time>
<speed>2.2222223</speed>
<course>5.0</course>
<ele>79.0</ele>
</trkpt>
<trkpt lat="52.35135555267182" lon="13.355340957641214">
<time>2011-04-09T17:49:31.000+02:00</time>
<speed>2.2222223</speed>
<course>4.0</course>
<ele>79.0</ele>
</trkpt>
<trkpt lat="52.35138773918" lon="13.355340957641214">
<time>2011-04-09T17:49:32.000+02:00</time>
<speed>2.2222223</speed>
<course>3.0</course>
<ele>79.0</ele>
</trkpt>
<trkpt lat="52.35140919685212" lon="13.355362415313333">
<time>2011-04-09T17:49:33.000+02:00</time>
<speed>2.2222223</speed>
<course>4.0</course>
<ele>79.0</ele>
</trkpt>
<trkpt lat="52.351441383360296" lon="13.355362415313333">
<time>2011-04-09T17:49:34.000+02:00</time>
<speed>2.2222223</speed>
<course>3.0</course>
<ele>79.0</ele>
</trkpt>
<trkpt lat="52.351462841032415" lon="13.355362415313333">
<time>2011-04-09T17:49:35.000+02:00</time>
<speed>2.2222223</speed>
<course>7.0</course>
<ele>79.0</ele>
</trkpt>
<trkpt lat="52.351495027540594" lon="13.355383872985453">
<time>2011-04-09T17:49:36.000+02:00</time>
<speed>1.9444444</speed>
<course>9.0</course>
<ele>79.0</ele>
</trkpt>
<trkpt lat="52.35151648521271" lon="13.355383872985453">
<time>2011-04-09T17:49:37.000+02:00</time>
<speed>1.9444444</speed>
<course>11.0</course>
<ele>79.0</ele>
</trkpt>
<trkpt lat="52.35153794288483" lon="13.355405330657572">
<time>2011-04-09T17:49:38.000+02:00</time>
<speed>1.9444444</speed>
<course>16.0</course>
<ele>79.0</ele>
</trkpt>
<trkpt lat="52.35155940055695" lon="13.355405330657572">
<time>2011-04-09T17:49:39.000+02:00</time>
<speed>1.9444444</speed>
<course>19.0</course>
<ele>79.0</ele>
</trkpt>
<trkpt lat="52.35158085822907" lon="13.35542678832969">
<time>2011-04-09T17:49:40.000+02:00</time>
<speed>1.6666666</speed>
<course>25.0</course>
<ele>79.0</ele>
</trkpt>
<trkpt lat="52.35160231590119" lon="13.35544824600181">
<time>2011-04-09T17:49:41.000+02:00</time>
<speed>1.6666666</speed>
<course>29.0</course>
<ele>79.0</ele>
</trkpt>
<trkpt lat="52.35163450240937" lon="13.35546970367393">
<time>2011-04-09T17:49:42.000+02:00</time>
<speed>1.6666666</speed>
<course>32.0</course>
<ele>79.0</ele>
</trkpt>
<trkpt lat="52.35165596008149" lon="13.355491161346048">
<time>2011-04-09T17:49:43.000+02:00</time>
<speed>1.6666666</speed>
<course>39.0</course>
<ele>79.0</ele>
</trkpt>
<trkpt lat="52.351698875425726" lon="13.355555534362406">
<time>2011-04-09T17:49:45.000+02:00</time>
<speed>1.6666666</speed>
<course>54.0</course>
<ele>79.0</ele>
</trkpt>
<trkpt lat="52.351720333097845" lon="13.355576992034525">
<time>2011-04-09T17:49:46.000+02:00</time>
<speed>2.2222223</speed>
<course>62.0</course>
<ele>80.0</ele>
</trkpt>
<trkpt lat="52.351741790769964" lon="13.355641365050882">
<time>2011-04-09T17:49:47.000+02:00</time>
<speed>2.7777777</speed>
<course>67.0</course>
<ele>80.0</ele>
</trkpt>
<trkpt lat="52.35175251960602" lon="13.35568428039512">
<time>2011-04-09T17:49:48.000+02:00</time>
<speed>3.0555556</speed>
<course>72.0</course>
<ele>80.0</ele>
</trkpt>
<trkpt lat="52.35176324844208" lon="13.355727195739359">
<time>2011-04-09T17:49:49.000+02:00</time>
<speed>3.0555556</speed>
<course>76.0</course>
<ele>80.0</ele>
</trkpt>
<trkpt lat="52.35177397727814" lon="13.355791568755716">
<time>2011-04-09T17:49:50.000+02:00</time>
<speed>3.0555556</speed>
<course>80.0</course>
<ele>80.0</ele>
</trkpt>
<trkpt lat="52.3517847061142" lon="13.355834484099955">
<time>2011-04-09T17:49:51.000+02:00</time>
<speed>3.0555556</speed>
<course>83.0</course>
<ele>80.0</ele>
</trkpt>
<trkpt lat="52.3517847061142" lon="13.355898857116312">
<time>2011-04-09T17:49:52.000+02:00</time>
<speed>3.0555556</speed>
<course>82.0</course>
<ele>80.0</ele>
</trkpt>
<trkpt lat="52.35179543495026" lon="13.35596323013267">
<time>2011-04-09T17:49:53.000+02:00</time>
<speed>3.0555556</speed>
<course>83.0</course>
<ele>80.0</ele>
</trkpt>
<trkpt lat="52.35180616378632" lon="13.356006145476908">
<time>2011-04-09T17:49:54.000+02:00</time>
<speed>3.0555556</speed>
<course>82.0</course>
<ele>80.0</ele>
</trkpt>
<trkpt lat="52.35180616378632" lon="13.356070518493265">
<time>2011-04-09T17:49:55.000+02:00</time>
<speed>3.0555556</speed>
<course>83.0</course>
<ele>80.0</ele>
</trkpt>
<trkpt lat="52.35181689262238" lon="13.356113433837503">
<time>2011-04-09T17:49:56.000+02:00</time>
<speed>3.0555556</speed>
<course>82.0</course>
<ele>80.0</ele>
</trkpt>
<trkpt lat="52.35181689262238" lon="13.35617780685386">
<time>2011-04-09T17:49:57.000+02:00</time>
<speed>3.0555556</speed>
<course>83.0</course>
<ele>80.0</ele>
</trkpt>
<trkpt lat="52.35182762145844" lon="13.356242179870218">
<time>2011-04-09T17:49:58.000+02:00</time>
<speed>3.3333333</speed>
<course>85.0</course>
<ele>80.0</ele>
</trkpt>
<trkpt lat="52.35182762145844" lon="13.356285095214457">
<time>2011-04-09T17:49:59.000+02:00</time>
<speed>3.3333333</speed>
<course>85.0</course>
<ele>80.0</ele>
</trkpt>
<trkpt lat="52.35182762145844" lon="13.356349468230814">
<time>2011-04-09T17:50:00.000+02:00</time>
<speed>3.3333333</speed>
<course>85.0</course>
<ele>80.0</ele>
</trkpt>
<trkpt lat="52.3518383502945" lon="13.356413841247171">
<time>2011-04-09T17:50:01.000+02:00</time>
<speed>3.3333333</speed>
<course>85.0</course>
<ele>80.0</ele>
</trkpt>
<trkpt lat="52.3518383502945" lon="13.35645675659141">
<time>2011-04-09T17:50:02.000+02:00</time>
<speed>3.0555556</speed>
<course>85.0</course>
<ele>80.0</ele>
</trkpt>
<trkpt lat="52.3518383502945" lon="13.356499671935648">
<time>2011-04-09T17:50:03.000+02:00</time>
<speed>3.0555556</speed>
<course>85.0</course>
<ele>80.0</ele>
</trkpt>
<trkpt lat="52.3518383502945" lon="13.356564044952005">
<time>2011-04-09T17:50:04.000+02:00</time>
<speed>3.0555556</speed>
<course>84.0</course>
<ele>80.0</ele>
</trkpt>
<trkpt lat="52.3518383502945" lon="13.356606960296244">
<time>2011-04-09T17:50:05.000+02:00</time>
<speed>3.0555556</speed>
<course>85.0</course>
<ele>80.0</ele>
</trkpt>
<trkpt lat="52.35184907913056" lon="13.356649875640482">
<time>2011-04-09T17:50:06.000+02:00</time>
<speed>3.0555556</speed>
<course>85.0</course>
<ele>81.0</ele>
</trkpt>
<trkpt lat="52.35184907913056" lon="13.35671424865684">
<time>2011-04-09T17:50:07.000+02:00</time>
<speed>3.3333333</speed>
<course>84.0</course>
<ele>81.0</ele>
</trkpt>
<trkpt lat="52.35184907913056" lon="13.356757164001078">
<time>2011-04-09T17:50:08.000+02:00</time>
<speed>3.3333333</speed>
<course>85.0</course>
<ele>81.0</ele>
</trkpt>
<trkpt lat="52.35184907913056" lon="13.356821537017435">
<time>2011-04-09T17:50:09.000+02:00</time>
<speed>3.3333333</speed>
<course>86.0</course>
<ele>81.0</ele>
</trkpt>
<trkpt lat="52.35184907913056" lon="13.356864452361673">
<time>2011-04-09T17:50:10.000+02:00</time>
<speed>3.6111112</speed>
<course>86.0</course>
<ele>81.0</ele>
</trkpt>
<trkpt lat="52.35184907913056" lon="13.35692882537803">
<time>2011-04-09T17:50:11.000+02:00</time>
<speed>3.6111112</speed>
<course>85.0</course>
<ele>81.0</ele>
</trkpt>
<trkpt lat="52.35184907913056" lon="13.356971740722269">
<time>2011-04-09T17:50:12.000+02:00</time>
<speed>3.6111112</speed>
<course>84.0</course>
<ele>81.0</ele>
</trkpt>
<trkpt lat="52.35184907913056" lon="13.357036113738626">
<time>2011-04-09T17:50:13.000+02:00</time>
<speed>3.6111112</speed>
<course>86.0</course>
<ele>81.0</ele>
</trkpt>
<trkpt lat="52.35184907913056" lon="13.357079029082865">
<time>2011-04-09T17:50:14.000+02:00</time>
<speed>3.6111112</speed>
<course>87.0</course>
<ele>81.0</ele>
</trkpt>
<trkpt lat="52.35184907913056" lon="13.357143402099222">
<time>2011-04-09T17:50:15.000+02:00</time>
<speed>3.6111112</speed>
<course>87.0</course>
<ele>81.0</ele>
</trkpt>
<trkpt lat="52.35184907913056" lon="13.35720777511558">
<time>2011-04-09T17:50:16.000+02:00</time>
<speed>3.6111112</speed>
<course>86.0</course>
<ele>81.0</ele>
</trkpt>
<trkpt lat="52.35185980796662" lon="13.357250690459818">
<time>2011-04-09T17:50:17.000+02:00</time>
<speed>3.6111112</speed>
<course>86.0</course>
<ele>81.0</ele>
</trkpt>
<trkpt lat="52.35185980796662" lon="13.357315063476175">
<time>2011-04-09T17:50:18.000+02:00</time>
<speed>3.6111112</speed>
<course>86.0</course>
<ele>81.0</ele>
</trkpt>
<trkpt lat="52.35185980796662" lon="13.357357978820414">
<time>2011-04-09T17:50:19.000+02:00</time>
<speed>3.6111112</speed>
<course>86.0</course>
<ele>81.0</ele>
</trkpt>
<trkpt lat="52.35185980796662" lon="13.357422351836771">
<time>2011-04-09T17:50:20.000+02:00</time>
<speed>3.6111112</speed>
<course>86.0</course>
<ele>81.0</ele>
</trkpt>
<trkpt lat="52.35185980796662" lon="13.35746526718101">
<time>2011-04-09T17:50:21.000+02:00</time>
<speed>3.6111112</speed>
<course>86.0</course>
<ele>81.0</ele>
</trkpt>
<trkpt lat="52.35185980796662" lon="13.357529640197367">
<time>2011-04-09T17:50:22.000+02:00</time>
<speed>3.6111112</speed>
<course>87.0</course>
<ele>81.0</ele>
</trkpt>
<trkpt lat="52.35185980796662" lon="13.357572555541605">
<time>2011-04-09T17:50:23.000+02:00</time>
<speed>3.6111112</speed>
<course>88.0</course>
<ele>81.0</ele>
</trkpt>
<trkpt lat="52.35185980796662" lon="13.357636928557962">
<time>2011-04-09T17:50:24.000+02:00</time>
<speed>3.6111112</speed>
<course>87.0</course>
<ele>81.0</ele>
</trkpt>
<trkpt lat="52.35187053680268" lon="13.3576798439022">
<time>2011-04-09T17:50:25.000+02:00</time>
<speed>3.6111112</speed>
<course>87.0</course>
<ele>81.0</ele>
</trkpt>
<trkpt lat="52.35187053680268" lon="13.357744216918558">
<time>2011-04-09T17:50:26.000+02:00</time>
<speed>3.8888888</speed>
<course>87.0</course>
<ele>81.0</ele>
</trkpt>
<trkpt lat="52.35187053680268" lon="13.357808589934915">
<time>2011-04-09T17:50:27.000+02:00</time>
<speed>3.8888888</speed>
<course>88.0</course>
<ele>81.0</ele>
</trkpt>
<trkpt lat="52.35187053680268" lon="13.357872962951273">
<time>2011-04-09T17:50:28.000+02:00</time>
<speed>3.8888888</speed>
<course>88.0</course>
<ele>81.0</ele>
</trkpt>
<trkpt lat="52.35187053680268" lon="13.357915878295511">
<time>2011-04-09T17:50:29.000+02:00</time>
<speed>3.8888888</speed>
<course>88.0</course>
<ele>81.0</ele>
</trkpt>
<trkpt lat="52.35187053680268" lon="13.357980251311869">
<time>2011-04-09T17:50:30.000+02:00</time>
<speed>3.8888888</speed>
<course>88.0</course>
<ele>81.0</ele>
</trkpt>
<trkpt lat="52.35187053680268" lon="13.358044624328226">
<time>2011-04-09T17:50:31.000+02:00</time>
<speed>3.8888888</speed>
<course>88.0</course>
<ele>81.0</ele>
</trkpt>
<trkpt lat="52.35187053680268" lon="13.358087539672464">
<time>2011-04-09T17:50:32.000+02:00</time>
<speed>3.6111112</speed>
<course>88.0</course>
<ele>81.0</ele>
</trkpt>
<trkpt lat="52.35187053680268" lon="13.358151912688822">
<time>2011-04-09T17:50:33.000+02:00</time>
<speed>3.6111112</speed>
<course>89.0</course>
<ele>81.0</ele>
</trkpt>
<trkpt lat="52.35187053680268" lon="13.35819482803306">
<time>2011-04-09T17:50:34.000+02:00</time>
<speed>3.6111112</speed>
<course>87.0</course>
<ele>81.0</ele>
</trkpt>
<trkpt lat="52.35187053680268" lon="13.358259201049417">
<time>2011-04-09T17:50:35.000+02:00</time>
<speed>3.6111112</speed>
<course>87.0</course>
<ele>81.0</ele>
</trkpt>
<trkpt lat="52.35187053680268" lon="13.358302116393656">
<time>2011-04-09T17:50:36.000+02:00</time>
<speed>3.3333333</speed>
<course>88.0</course>
<ele>81.0</ele>
</trkpt>
<trkpt lat="52.35187053680268" lon="13.358345031737894">
<time>2011-04-09T17:50:37.000+02:00</time>
<speed>3.3333333</speed>
<course>88.0</course>
<ele>81.0</ele>
</trkpt>
<trkpt lat="52.35187053680268" lon="13.358409404754251">
<time>2011-04-09T17:50:38.000+02:00</time>
<speed>3.3333333</speed>
<course>88.0</course>
<ele>81.0</ele>
</trkpt>
<trkpt lat="52.35187053680268" lon="13.35845232009849">
<time>2011-04-09T17:50:39.000+02:00</time>
<speed>3.0555556</speed>
<course>86.0</course>
<ele>81.0</ele>
</trkpt>
<trkpt lat="52.35188126563874" lon="13.358495235442728">
<time>2011-04-09T17:50:40.000+02:00</time>
<speed>3.0555556</speed>
<course>85.0</course>
<ele>81.0</ele>
</trkpt>
<trkpt lat="52.35188126563874" lon="13.358538150786966">
<time>2011-04-09T17:50:41.000+02:00</time>
<speed>3.0555556</speed>
<course>85.0</course>
<ele>81.0</ele>
</trkpt>
<trkpt lat="52.35188126563874" lon="13.358581066131205">
<time>2011-04-09T17:50:42.000+02:00</time>
<speed>3.0555556</speed>
<course>85.0</course>
<ele>81.0</ele>
</trkpt>
<trkpt lat="52.35188126563874" lon="13.358623981475443">
<time>2011-04-09T17:50:43.000+02:00</time>
<speed>3.0555556</speed>
<course>86.0</course>
<ele>82.0</ele>
</trkpt>
<trkpt lat="52.35188126563874" lon="13.358666896819681">
<time>2011-04-09T17:50:44.000+02:00</time>
<speed>3.0555556</speed>
<course>86.0</course>
<ele>82.0</ele>
</trkpt>
<trkpt lat="52.35188126563874" lon="13.358752727508158">
<time>2011-04-09T17:50:46.000+02:00</time>
<speed>3.0555556</speed>
<course>86.0</course>
<ele>82.0</ele>
</trkpt>
<trkpt lat="52.35188126563874" lon="13.358817100524515">
<time>2011-04-09T17:50:47.000+02:00</time>
<speed>3.3333333</speed>
<course>88.0</course>
<ele>82.0</ele>
</trkpt>
<trkpt lat="52.35188126563874" lon="13.358860015868753">
<time>2011-04-09T17:50:48.000+02:00</time>
<speed>3.3333333</speed>
<course>87.0</course>
<ele>82.0</ele>
</trkpt>
<trkpt lat="52.35188126563874" lon="13.358902931212992">
<time>2011-04-09T17:50:49.000+02:00</time>
<speed>3.3333333</speed>
<course>86.0</course>
<ele>82.0</ele>
</trkpt>
<trkpt lat="52.35188126563874" lon="13.35894584655723">
<time>2011-04-09T17:50:50.000+02:00</time>
<speed>3.3333333</speed>
<course>87.0</course>
<ele>82.0</ele>
</trkpt>
<trkpt lat="52.35188126563874" lon="13.359010219573587">
<time>2011-04-09T17:50:51.000+02:00</time>
<speed>3.3333333</speed>
<course>87.0</course>
<ele>82.0</ele>
</trkpt>
<trkpt lat="52.35188126563874" lon="13.359053134917826">
<time>2011-04-09T17:50:52.000+02:00</time>
<speed>3.3333333</speed>
<course>86.0</course>
<ele>82.0</ele>
</trkpt>
<trkpt lat="52.35188126563874" lon="13.359096050262064">
<time>2011-04-09T17:50:53.000+02:00</time>
<speed>3.3333333</speed>
<course>86.0</course>
<ele>82.0</ele>
</trkpt>
<trkpt lat="52.35188126563874" lon="13.359160423278421">
<time>2011-04-09T17:50:54.000+02:00</time>
<speed>3.3333333</speed>
<course>87.0</course>
<ele>82.0</ele>
</trkpt>
<trkpt lat="52.3518919944748" lon="13.35920333862266">
<time>2011-04-09T17:50:55.000+02:00</time>
<speed>3.3333333</speed>
<course>87.0</course>
<ele>82.0</ele>
</trkpt>
<trkpt lat="52.3518919944748" lon="13.359246253966898">
<time>2011-04-09T17:50:56.000+02:00</time>
<speed>3.3333333</speed>
<course>88.0</course>
<ele>82.0</ele>
</trkpt>
<trkpt lat="52.3518919944748" lon="13.359310626983255">
<time>2011-04-09T17:50:57.000+02:00</time>
<speed>3.3333333</speed>
<course>87.0</course>
<ele>82.0</ele>
</trkpt>
<trkpt lat="52.3518919944748" lon="13.359353542327494">
<time>2011-04-09T17:50:58.000+02:00</time>
<speed>3.3333333</speed>
<course>87.0</course>
<ele>82.0</ele>
</trkpt>
<trkpt lat="52.3518919944748" lon="13.35941791534385">
<time>2011-04-09T17:50:59.000+02:00</time>
<speed>3.6111112</speed>
<course>86.0</course>
<ele>82.0</ele>
</trkpt>
<trkpt lat="52.3518919944748" lon="13.359460830688088">
<time>2011-04-09T17:51:00.000+02:00</time>
<speed>3.6111112</speed>
<course>87.0</course>
<ele>82.0</ele>
</trkpt>
<trkpt lat="52.3518919944748" lon="13.359525203704445">
<time>2011-04-09T17:51:01.000+02:00</time>
<speed>3.3333333</speed>
<course>88.0</course>
<ele>82.0</ele>
</trkpt>
<trkpt lat="52.3518919944748" lon="13.359568119048683">
<time>2011-04-09T17:51:02.000+02:00</time>
<speed>3.3333333</speed>
<course>89.0</course>
<ele>82.0</ele>
</trkpt>
<trkpt lat="52.3518919944748" lon="13.359611034392922">
<time>2011-04-09T17:51:03.000+02:00</time>
<speed>3.0555556</speed>
<course>88.0</course>
<ele>82.0</ele>
</trkpt>
<trkpt lat="52.35190272331086" lon="13.359718322753517">
<time>2011-04-09T17:51:04.000+02:00</time>
<speed>3.0555556</speed>
<course>87.0</course>
<ele>82.0</ele>
</trkpt>
<trkpt lat="52.35190272331086" lon="13.359761238097756">
<time>2011-04-09T17:51:05.000+02:00</time>
<speed>3.0555556</speed>
<course>87.0</course>
<ele>82.0</ele>
</trkpt>
<trkpt lat="52.35190272331086" lon="13.359804153441994">
<time>2011-04-09T17:51:06.000+02:00</time>
<speed>3.3333333</speed>
<course>86.0</course>
<ele>82.0</ele>
</trkpt>
<trkpt lat="52.35190272331086" lon="13.359847068786232">
<time>2011-04-09T17:51:07.000+02:00</time>
<speed>3.3333333</speed>
<course>86.0</course>
<ele>82.0</ele>
</trkpt>
<trkpt lat="52.35190272331086" lon="13.35991144180259">
<time>2011-04-09T17:51:08.000+02:00</time>
<speed>3.3333333</speed>
<course>86.0</course>
<ele>82.0</ele>
</trkpt>
<trkpt lat="52.35190272331086" lon="13.359954357146828">
<time>2011-04-09T17:51:09.000+02:00</time>
<speed>3.3333333</speed>
<course>87.0</course>
<ele>82.0</ele>
</trkpt>
<trkpt lat="52.35191345214692" lon="13.359997272491066">
<time>2011-04-09T17:51:10.000+02:00</time>
<speed>3.3333333</speed>
<course>87.0</course>
<ele>82.0</ele>
</trkpt>
<trkpt lat="52.35191345214692" lon="13.360061645507423">
<time>2011-04-09T17:51:11.000+02:00</time>
<speed>3.3333333</speed>
<course>88.0</course>
<ele>82.0</ele>
</trkpt>
<trkpt lat="52.35191345214692" lon="13.360104560851662">
<time>2011-04-09T17:51:12.000+02:00</time>
<speed>3.3333333</speed>
<course>88.0</course>
<ele>82.0</ele>
</trkpt>
<trkpt lat="52.35191345214692" lon="13.3601474761959">
<time>2011-04-09T17:51:13.000+02:00</time>
<speed>3.3333333</speed>
<course>88.0</course>
<ele>82.0</ele>
</trkpt>
<trkpt lat="52.35191345214692" lon="13.360190391540138">
<time>2011-04-09T17:51:14.000+02:00</time>
<speed>3.3333333</speed>
<course>88.0</course>
<ele>82.0</ele>
</trkpt>
<trkpt lat="52.35191345214692" lon="13.360233306884377">
<time>2011-04-09T17:51:15.000+02:00</time>
<speed>3.3333333</speed>
<course>87.0</course>
<ele>82.0</ele>
</trkpt>
<trkpt lat="52.35191345214692" lon="13.360276222228615">
<time>2011-04-09T17:51:16.000+02:00</time>
<speed>3.3333333</speed>
<course>87.0</course>
<ele>82.0</ele>
</trkpt>
<trkpt lat="52.35191345214692" lon="13.360319137572853">
<time>2011-04-09T17:51:17.000+02:00</time>
<speed>3.0555556</speed>
<course>87.0</course>
<ele>82.0</ele>
</trkpt>
<trkpt lat="52.35191345214692" lon="13.360362052917091">
<time>2011-04-09T17:51:18.000+02:00</time>
<speed>2.7777777</speed>
<course>88.0</course>
<ele>82.0</ele>
</trkpt>
<trkpt lat="52.35191345214692" lon="13.36040496826133">
<time>2011-04-09T17:51:19.000+02:00</time>
<speed>2.7777777</speed>
<course>88.0</course>
<ele>82.0</ele>
</trkpt>
<trkpt lat="52.35192418098298" lon="13.360447883605568">
<time>2011-04-09T17:51:20.000+02:00</time>
<speed>2.7777777</speed>
<course>88.0</course>
<ele>82.0</ele>
</trkpt>
<trkpt lat="52.35192418098298" lon="13.360490798949806">
<time>2011-04-09T17:51:21.000+02:00</time>
<speed>2.7777777</speed>
<course>87.0</course>
<ele>82.0</ele>
</trkpt>
<trkpt lat="52.35192418098298" lon="13.360533714294045">
<time>2011-04-09T17:51:22.000+02:00</time>
<speed>3.0555556</speed>
<course>88.0</course>
<ele>82.0</ele>
</trkpt>
<trkpt lat="52.35192418098298" lon="13.360576629638283">
<time>2011-04-09T17:51:23.000+02:00</time>
<speed>3.0555556</speed>
<course>87.0</course>
<ele>82.0</ele>
</trkpt>
<trkpt lat="52.35192418098298" lon="13.360619544982521">
<time>2011-04-09T17:51:24.000+02:00</time>
<speed>3.0555556</speed>
<course>87.0</course>
<ele>82.0</ele>
</trkpt>
<trkpt lat="52.35192418098298" lon="13.360683917998879">
<time>2011-04-09T17:51:25.000+02:00</time>
<speed>3.3333333</speed>
<course>87.0</course>
<ele>82.0</ele>
</trkpt>
<trkpt lat="52.35192418098298" lon="13.360726833343117">
<time>2011-04-09T17:51:26.000+02:00</time>
<speed>3.3333333</speed>
<course>86.0</course>
<ele>82.0</ele>
</trkpt>
<trkpt lat="52.351934909819036" lon="13.360769748687355">
<time>2011-04-09T17:51:27.000+02:00</time>
<speed>3.3333333</speed>
<course>86.0</course>
<ele>82.0</ele>
</trkpt>
<trkpt lat="52.351934909819036" lon="13.360812664031593">
<time>2011-04-09T17:51:28.000+02:00</time>
<speed>3.3333333</speed>
<course>85.0</course>
<ele>82.0</ele>
</trkpt>
<trkpt lat="52.351934909819036" lon="13.36087703704795">
<time>2011-04-09T17:51:29.000+02:00</time>
<speed>3.0555556</speed>
<course>86.0</course>
<ele>82.0</ele>
</trkpt>
<trkpt lat="52.351934909819036" lon="13.360919952392189">
<time>2011-04-09T17:51:30.000+02:00</time>
<speed>3.0555556</speed>
<course>87.0</course>
<ele>82.0</ele>
</trkpt>
<trkpt lat="52.351934909819036" lon="13.360962867736427">
<time>2011-04-09T17:51:31.000+02:00</time>
<speed>3.0555556</speed>
<course>89.0</course>
<ele>83.0</ele>
</trkpt>
<trkpt lat="52.351934909819036" lon="13.361005783080666">
<time>2011-04-09T17:51:32.000+02:00</time>
<speed>2.7777777</speed>
<course>91.0</course>
<ele>83.0</ele>
</trkpt>
<trkpt lat="52.351934909819036" lon="13.361048698424904">
<time>2011-04-09T17:51:33.000+02:00</time>
<speed>2.7777777</speed>
<course>89.0</course>
<ele>83.0</ele>
</trkpt>
<trkpt lat="52.351934909819036" lon="13.361070156097023">
<time>2011-04-09T17:51:34.000+02:00</time>
<speed>2.7777777</speed>
<course>88.0</course>
<ele>83.0</ele>
</trkpt>
<trkpt lat="52.351934909819036" lon="13.361113071441261">
<time>2011-04-09T17:51:35.000+02:00</time>
<speed>2.7777777</speed>
<course>87.0</course>
<ele>83.0</ele>
</trkpt>
<trkpt lat="52.351934909819036" lon="13.3611559867855">
<time>2011-04-09T17:51:36.000+02:00</time>
<speed>2.7777777</speed>
<course>85.0</course>
<ele>83.0</ele>
</trkpt>
<trkpt lat="52.351934909819036" lon="13.361198902129738">
<time>2011-04-09T17:51:37.000+02:00</time>
<speed>2.7777777</speed>
<course>84.0</course>
<ele>83.0</ele>
</trkpt>
<trkpt lat="52.351934909819036" lon="13.361241817473976">
<time>2011-04-09T17:51:38.000+02:00</time>
<speed>2.7777777</speed>
<course>85.0</course>
<ele>83.0</ele>
</trkpt>
<trkpt lat="52.351934909819036" lon="13.361284732818214">
<time>2011-04-09T17:51:39.000+02:00</time>
<speed>2.7777777</speed>
<course>86.0</course>
<ele>83.0</ele>
</trkpt>
<trkpt lat="52.351934909819036" lon="13.361349105834572">
<time>2011-04-09T17:51:40.000+02:00</time>
<speed>3.0555556</speed>
<course>86.0</course>
<ele>83.0</ele>
</trkpt>
<trkpt lat="52.351934909819036" lon="13.361434936523048">
<time>2011-04-09T17:51:42.000+02:00</time>
<speed>3.0555556</speed>
<course>87.0</course>
<ele>83.0</ele>
</trkpt>
<trkpt lat="52.351934909819036" lon="13.361477851867287">
<time>2011-04-09T17:51:43.000+02:00</time>
<speed>3.0555556</speed>
<course>88.0</course>
<ele>83.0</ele>
</trkpt>
<trkpt lat="52.351934909819036" lon="13.361520767211525">
<time>2011-04-09T17:51:44.000+02:00</time>
<speed>3.0555556</speed>
<course>88.0</course>
<ele>83.0</ele>
</trkpt>
<trkpt lat="52.351934909819036" lon="13.361563682555763">
<time>2011-04-09T17:51:45.000+02:00</time>
<speed>3.0555556</speed>
<course>87.0</course>
<ele>83.0</ele>
</trkpt>
<trkpt lat="52.351934909819036" lon="13.361606597900002">
<time>2011-04-09T17:51:46.000+02:00</time>
<speed>3.0555556</speed>
<course>86.0</course>
<ele>83.0</ele>
</trkpt>
<trkpt lat="52.351934909819036" lon="13.361670970916359">
<time>2011-04-09T17:51:47.000+02:00</time>
<speed>3.0555556</speed>
<course>87.0</course>
<ele>83.0</ele>
</trkpt>
<trkpt lat="52.351934909819036" lon="13.361713886260597">
<time>2011-04-09T17:51:48.000+02:00</time>
<speed>3.0555556</speed>
<course>88.0</course>
<ele>83.0</ele>
</trkpt>
<trkpt lat="52.351934909819036" lon="13.361756801604836">
<time>2011-04-09T17:51:49.000+02:00</time>
<speed>3.0555556</speed>
<course>88.0</course>
<ele>83.0</ele>
</trkpt>
<trkpt lat="52.351934909819036" lon="13.361799716949074">
<time>2011-04-09T17:51:50.000+02:00</time>
<speed>3.0555556</speed>
<course>89.0</course>
<ele>83.0</ele>
</trkpt>
<trkpt lat="52.351934909819036" lon="13.361864089965431">
<time>2011-04-09T17:51:51.000+02:00</time>
<speed>3.0555556</speed>
<course>89.0</course>
<ele>83.0</ele>
</trkpt>
<trkpt lat="52.351934909819036" lon="13.36190700530967">
<time>2011-04-09T17:51:52.000+02:00</time>
<speed>3.0555556</speed>
<course>89.0</course>
<ele>83.0</ele>
</trkpt>
<trkpt lat="52.351934909819036" lon="13.361949920653908">
<time>2011-04-09T17:51:53.000+02:00</time>
<speed>3.3333333</speed>
<course>89.0</course>
<ele>83.0</ele>
</trkpt>
<trkpt lat="52.351934909819036" lon="13.362014293670265">
<time>2011-04-09T17:51:54.000+02:00</time>
<speed>3.3333333</speed>
<course>90.0</course>
<ele>83.0</ele>
</trkpt>
<trkpt lat="52.351934909819036" lon="13.362057209014504">
<time>2011-04-09T17:51:55.000+02:00</time>
<speed>3.3333333</speed>
<course>89.0</course>
<ele>83.0</ele>
</trkpt>
<trkpt lat="52.351934909819036" lon="13.362100124358742">
<time>2011-04-09T17:51:56.000+02:00</time>
<speed>3.3333333</speed>
<course>89.0</course>
<ele>83.0</ele>
</trkpt>
<trkpt lat="52.351934909819036" lon="13.3621644973751">
<time>2011-04-09T17:51:57.000+02:00</time>
<speed>3.3333333</speed>
<course>90.0</course>
<ele>83.0</ele>
</trkpt>
<trkpt lat="52.351934909819036" lon="13.362207412719338">
<time>2011-04-09T17:51:58.000+02:00</time>
<speed>3.3333333</speed>
<course>89.0</course>
<ele>83.0</ele>
</trkpt>
<trkpt lat="52.351934909819036" lon="13.362250328063576">
<time>2011-04-09T17:51:59.000+02:00</time>
<speed>3.3333333</speed>
<course>90.0</course>
<ele>83.0</ele>
</trkpt>
<trkpt lat="52.351934909819036" lon="13.362314701079933">
<time>2011-04-09T17:52:00.000+02:00</time>
<speed>3.3333333</speed>
<course>89.0</course>
<ele>83.0</ele>
</trkpt>
<trkpt lat="52.351934909819036" lon="13.362357616424172">
<time>2011-04-09T17:52:01.000+02:00</time>
<speed>3.3333333</speed>
<course>90.0</course>
<ele>83.0</ele>
</trkpt>
<trkpt lat="52.351934909819036" lon="13.36240053176841">
<time>2011-04-09T17:52:02.000+02:00</time>
<speed>3.3333333</speed>
<course>90.0</course>
<ele>83.0</ele>
</trkpt>
<trkpt lat="52.351934909819036" lon="13.362443447112648">
<time>2011-04-09T17:52:03.000+02:00</time>
<speed>3.3333333</speed>
<course>90.0</course>
<ele>83.0</ele>
</trkpt>
<trkpt lat="52.351934909819036" lon="13.362486362456886">
<time>2011-04-09T17:52:04.000+02:00</time>
<speed>3.3333333</speed>
<course>90.0</course>
<ele>83.0</ele>
</trkpt>
<trkpt lat="52.351934909819036" lon="13.362550735473244">
<time>2011-04-09T17:52:05.000+02:00</time>
<speed>3.3333333</speed>
<course>89.0</course>
<ele>83.0</ele>
</trkpt>
<trkpt lat="52.351945638655096" lon="13.362593650817482">
<time>2011-04-09T17:52:06.000+02:00</time>
<speed>3.3333333</speed>
<course>89.0</course>
<ele>83.0</ele>
</trkpt>
<trkpt lat="52.351945638655096" lon="13.36263656616172">
<time>2011-04-09T17:52:07.000+02:00</time>
<speed>3.3333333</speed>
<course>88.0</course>
<ele>84.0</ele>
</trkpt>
<trkpt lat="52.351945638655096" lon="13.362679481505959">
<time>2011-04-09T17:52:08.000+02:00</time>
<speed>3.3333333</speed>
<course>88.0</course>
<ele>84.0</ele>
</trkpt>
<trkpt lat="52.351945638655096" lon="13.362743854522316">
<time>2011-04-09T17:52:09.000+02:00</time>
<speed>3.3333333</speed>
<course>89.0</course>
<ele>84.0</ele>
</trkpt>
<trkpt lat="52.351945638655096" lon="13.362786769866554">
<time>2011-04-09T17:52:10.000+02:00</time>
<speed>3.3333333</speed>
<course>88.0</course>
<ele>84.0</ele>
</trkpt>
<trkpt lat="52.351945638655096" lon="13.362829685210793">
<time>2011-04-09T17:52:11.000+02:00</time>
<speed>3.3333333</speed>
<course>89.0</course>
<ele>84.0</ele>
</trkpt>
<trkpt lat="52.351945638655096" lon="13.362872600555031">
<time>2011-04-09T17:52:12.000+02:00</time>
<speed>3.3333333</speed>
<course>88.0</course>
<ele>84.0</ele>
</trkpt>
<trkpt lat="52.351945638655096" lon="13.362936973571388">
<time>2011-04-09T17:52:13.000+02:00</time>
<speed>3.3333333</speed>
<course>89.0</course>
<ele>84.0</ele>
</trkpt>
<trkpt lat="52.351945638655096" lon="13.362979888915627">
<time>2011-04-09T17:52:14.000+02:00</time>
<speed>3.0555556</speed>
<course>88.0</course>
<ele>84.0</ele>
</trkpt>
<trkpt lat="52.351945638655096" lon="13.363022804259865">
<time>2011-04-09T17:52:15.000+02:00</time>
<speed>3.0555556</speed>
<course>88.0</course>
<ele>84.0</ele>
</trkpt>
<trkpt lat="52.351956367491155" lon="13.363065719604103">
<time>2011-04-09T17:52:16.000+02:00</time>
<speed>3.0555556</speed>
<course>89.0</course>
<ele>84.0</ele>
</trkpt>
<trkpt lat="52.351956367491155" lon="13.363108634948341">
<time>2011-04-09T17:52:17.000+02:00</time>
<speed>3.0555556</speed>
<course>89.0</course>
<ele>84.0</ele>
</trkpt>
<trkpt lat="52.351956367491155" lon="13.36315155029258">
<time>2011-04-09T17:52:18.000+02:00</time>
<speed>3.0555556</speed>
<course>89.0</course>
<ele>84.0</ele>
</trkpt>
<trkpt lat="52.351956367491155" lon="13.363194465636818">
<time>2011-04-09T17:52:19.000+02:00</time>
<speed>3.0555556</speed>
<course>90.0</course>
<ele>84.0</ele>
</trkpt>
<trkpt lat="52.351956367491155" lon="13.363237380981056">
<time>2011-04-09T17:52:20.000+02:00</time>
<speed>3.0555556</speed>
<course>90.0</course>
<ele>84.0</ele>
</trkpt>
<trkpt lat="52.351956367491155" lon="13.363280296325295">
<time>2011-04-09T17:52:21.000+02:00</time>
<speed>3.0555556</speed>
<course>89.0</course>
<ele>84.0</ele>
</trkpt>
<trkpt lat="52.351956367491155" lon="13.363323211669533">
<time>2011-04-09T17:52:22.000+02:00</time>
<speed>3.0555556</speed>
<course>87.0</course>
<ele>84.0</ele>
</trkpt>
<trkpt lat="52.351956367491155" lon="13.36338758468589">
<time>2011-04-09T17:52:23.000+02:00</time>
<speed>3.0555556</speed>
<course>86.0</course>
<ele>84.0</ele>
</trkpt>
<trkpt lat="52.351956367491155" lon="13.363430500030129">
<time>2011-04-09T17:52:24.000+02:00</time>
<speed>3.0555556</speed>
<course>87.0</course>
<ele>84.0</ele>
</trkpt>
<trkpt lat="52.351967096327215" lon="13.363473415374367">
<time>2011-04-09T17:52:25.000+02:00</time>
<speed>3.0555556</speed>
<course>88.0</course>
<ele>84.0</ele>
</trkpt>
<trkpt lat="52.351967096327215" lon="13.363516330718605">
<time>2011-04-09T17:52:26.000+02:00</time>
<speed>2.7777777</speed>
<course>88.0</course>
<ele>84.0</ele>
</trkpt>
<trkpt lat="52.351967096327215" lon="13.363537788390724">
<time>2011-04-09T17:52:27.000+02:00</time>
<speed>2.7777777</speed>
<course>89.0</course>
<ele>84.0</ele>
</trkpt>
<trkpt lat="52.351967096327215" lon="13.363580703734963">
<time>2011-04-09T17:52:28.000+02:00</time>
<speed>2.7777777</speed>
<course>89.0</course>
<ele>84.0</ele>
</trkpt>
<trkpt lat="52.351967096327215" lon="13.3636236190792">
<time>2011-04-09T17:52:29.000+02:00</time>
<speed>2.7777777</speed>
<course>89.0</course>
<ele>84.0</ele>
</trkpt>
<trkpt lat="52.351967096327215" lon="13.363666534423439">
<time>2011-04-09T17:52:30.000+02:00</time>
<speed>2.7777777</speed>
<course>87.0</course>
<ele>84.0</ele>
</trkpt>
<trkpt lat="52.351967096327215" lon="13.363709449767677">
<time>2011-04-09T17:52:31.000+02:00</time>
<speed>2.7777777</speed>
<course>87.0</course>
<ele>84.0</ele>
</trkpt>
<trkpt lat="52.351977825163274" lon="13.363752365111916">
<time>2011-04-09T17:52:32.000+02:00</time>
<speed>2.7777777</speed>
<course>87.0</course>
<ele>84.0</ele>
</trkpt>
<trkpt lat="52.351977825163274" lon="13.363795280456154">
<time>2011-04-09T17:52:33.000+02:00</time>
<speed>2.7777777</speed>
<course>88.0</course>
<ele>84.0</ele>
</trkpt>
<trkpt lat="52.351977825163274" lon="13.363838195800392">
<time>2011-04-09T17:52:34.000+02:00</time>
<speed>2.7777777</speed>
<course>88.0</course>
<ele>84.0</ele>
</trkpt>
<trkpt lat="52.351977825163274" lon="13.36388111114463">
<time>2011-04-09T17:52:35.000+02:00</time>
<speed>2.7777777</speed>
<course>88.0</course>
<ele>84.0</ele>
</trkpt>
<trkpt lat="52.351977825163274" lon="13.363924026488869">
<time>2011-04-09T17:52:36.000+02:00</time>
<speed>2.7777777</speed>
<course>89.0</course>
<ele>84.0</ele>
</trkpt>
<trkpt lat="52.351977825163274" lon="13.363945484160988">
<time>2011-04-09T17:52:37.000+02:00</time>
<speed>2.7777777</speed>
<course>89.0</course>
<ele>85.0</ele>
</trkpt>
<trkpt lat="52.351977825163274" lon="13.363988399505226">
<time>2011-04-09T17:52:38.000+02:00</time>
<speed>2.7777777</speed>
<course>89.0</course>
<ele>85.0</ele>
</trkpt>
<trkpt lat="52.351977825163274" lon="13.364031314849464">
<time>2011-04-09T17:52:39.000+02:00</time>
<speed>2.7777777</speed>
<course>89.0</course>
<ele>85.0</ele>
</trkpt>
<trkpt lat="52.351977825163274" lon="13.364074230193703">
<time>2011-04-09T17:52:40.000+02:00</time>
<speed>2.7777777</speed>
<course>89.0</course>
<ele>85.0</ele>
</trkpt>
<trkpt lat="52.351988553999334" lon="13.36416006088218">
<time>2011-04-09T17:52:42.000+02:00</time>
<speed>2.7777777</speed>
<course>88.0</course>
<ele>85.0</ele>
</trkpt>
<trkpt lat="52.351988553999334" lon="13.364202976226418">
<time>2011-04-09T17:52:43.000+02:00</time>
<speed>3.6111112</speed>
<course>86.0</course>
<ele>85.0</ele>
</trkpt>
<trkpt lat="52.351988553999334" lon="13.364267349242775">
<time>2011-04-09T17:52:44.000+02:00</time>
<speed>3.8888888</speed>
<course>86.0</course>
<ele>85.0</ele>
</trkpt>
<trkpt lat="52.351988553999334" lon="13.364331722259132">
<time>2011-04-09T17:52:45.000+02:00</time>
<speed>3.8888888</speed>
<course>87.0</course>
<ele>85.0</ele>
</trkpt>
<trkpt lat="52.35199928283539" lon="13.36437463760337">
<time>2011-04-09T17:52:46.000+02:00</time>
<speed>4.1666665</speed>
<course>88.0</course>
<ele>85.0</ele>
</trkpt>
<trkpt lat="52.35199928283539" lon="13.364439010619728">
<time>2011-04-09T17:52:47.000+02:00</time>
<speed>4.1666665</speed>
<course>88.0</course>
<ele>85.0</ele>
</trkpt>
<trkpt lat="52.35199928283539" lon="13.364503383636086">
<time>2011-04-09T17:52:48.000+02:00</time>
<speed>4.1666665</speed>
<course>88.0</course>
<ele>85.0</ele>
</trkpt>
<trkpt lat="52.35199928283539" lon="13.364567756652443">
<time>2011-04-09T17:52:49.000+02:00</time>
<speed>4.1666665</speed>
<course>88.0</course>
<ele>85.0</ele>
</trkpt>
<trkpt lat="52.35199928283539" lon="13.3646321296688">
<time>2011-04-09T17:52:50.000+02:00</time>
<speed>4.1666665</speed>
<course>89.0</course>
<ele>85.0</ele>
</trkpt>
<trkpt lat="52.35199928283539" lon="13.364696502685158">
<time>2011-04-09T17:52:51.000+02:00</time>
<speed>4.1666665</speed>
<course>88.0</course>
<ele>85.0</ele>
</trkpt>
<trkpt lat="52.35201001167145" lon="13.364760875701515">
<time>2011-04-09T17:52:52.000+02:00</time>
<speed>4.1666665</speed>
<course>88.0</course>
<ele>85.0</ele>
</trkpt>
<trkpt lat="52.35201001167145" lon="13.364825248717873">
<time>2011-04-09T17:52:53.000+02:00</time>
<speed>4.1666665</speed>
<course>88.0</course>
<ele>85.0</ele>
</trkpt>
<trkpt lat="52.35201001167145" lon="13.364868164062111">
<time>2011-04-09T17:52:54.000+02:00</time>
<speed>4.1666665</speed>
<course>88.0</course>
<ele>85.0</ele>
</trkpt>
<trkpt lat="52.35201001167145" lon="13.364932537078468">
<time>2011-04-09T17:52:55.000+02:00</time>
<speed>4.1666665</speed>
<course>88.0</course>
<ele>85.0</ele>
</trkpt>
<trkpt lat="52.35201001167145" lon="13.364975452422707">
<time>2011-04-09T17:52:56.000+02:00</time>
<speed>4.1666665</speed>
<course>88.0</course>
<ele>85.0</ele>
</trkpt>
<trkpt lat="52.35201001167145" lon="13.365039825439064">
<time>2011-04-09T17:52:57.000+02:00</time>
<speed>3.8888888</speed>
<course>89.0</course>
<ele>85.0</ele>
</trkpt>
<trkpt lat="52.35201001167145" lon="13.365082740783302">
<time>2011-04-09T17:52:58.000+02:00</time>
<speed>3.8888888</speed>
<course>89.0</course>
<ele>85.0</ele>
</trkpt>
<trkpt lat="52.35201001167145" lon="13.36514711379966">
<time>2011-04-09T17:52:59.000+02:00</time>
<speed>3.6111112</speed>
<course>90.0</course>
<ele>85.0</ele>
</trkpt>
<trkpt lat="52.35201001167145" lon="13.365190029143898">
<time>2011-04-09T17:53:00.000+02:00</time>
<speed>3.6111112</speed>
<course>89.0</course>
<ele>85.0</ele>
</trkpt>
<trkpt lat="52.35201001167145" lon="13.365254402160256">
<time>2011-04-09T17:53:01.000+02:00</time>
<speed>3.6111112</speed>
<course>88.0</course>
<ele>85.0</ele>
</trkpt>
<trkpt lat="52.35201001167145" lon="13.365297317504494">
<time>2011-04-09T17:53:02.000+02:00</time>
<speed>3.6111112</speed>
<course>89.0</course>
<ele>85.0</ele>
</trkpt>
<trkpt lat="52.35201001167145" lon="13.365340232848732">
<time>2011-04-09T17:53:03.000+02:00</time>
<speed>3.3333333</speed>
<course>89.0</course>
<ele>85.0</ele>
</trkpt>
<trkpt lat="52.35201001167145" lon="13.36538314819297">
<time>2011-04-09T17:53:04.000+02:00</time>
<speed>3.3333333</speed>
<course>89.0</course>
<ele>85.0</ele>
</trkpt>
<trkpt lat="52.35201001167145" lon="13.365447521209328">
<time>2011-04-09T17:53:05.000+02:00</time>
<speed>3.3333333</speed>
<course>88.0</course>
<ele>85.0</ele>
</trkpt>
<trkpt lat="52.35201001167145" lon="13.365490436553566">
<time>2011-04-09T17:53:06.000+02:00</time>
<speed>3.3333333</speed>
<course>89.0</course>
<ele>85.0</ele>
</trkpt>
<trkpt lat="52.35202074050751" lon="13.365533351897804">
<time>2011-04-09T17:53:07.000+02:00</time>
<speed>3.3333333</speed>
<course>89.0</course>
<ele>85.0</ele>
</trkpt>
<trkpt lat="52.35202074050751" lon="13.365576267242043">
<time>2011-04-09T17:53:08.000+02:00</time>
<speed>3.3333333</speed>
<course>88.0</course>
<ele>85.0</ele>
</trkpt>
<trkpt lat="52.35202074050751" lon="13.3656406402584">
<time>2011-04-09T17:53:09.000+02:00</time>
<speed>3.3333333</speed>
<course>88.0</course>
<ele>85.0</ele>
</trkpt>
<trkpt lat="52.35202074050751" lon="13.365683555602638">
<time>2011-04-09T17:53:10.000+02:00</time>
<speed>3.3333333</speed>
<course>87.0</course>
<ele>85.0</ele>
</trkpt>
<trkpt lat="52.35202074050751" lon="13.365726470946877">
<time>2011-04-09T17:53:11.000+02:00</time>
<speed>3.3333333</speed>
<course>87.0</course>
<ele>85.0</ele>
</trkpt>
<trkpt lat="52.35202074050751" lon="13.365769386291115">
<time>2011-04-09T17:53:12.000+02:00</time>
<speed>3.3333333</speed>
<course>88.0</course>
<ele>85.0</ele>
</trkpt>
<trkpt lat="52.35203146934357" lon="13.365812301635353">
<time>2011-04-09T17:53:13.000+02:00</time>
<speed>3.3333333</speed>
<course>87.0</course>
<ele>85.0</ele>
</trkpt>
<trkpt lat="52.35203146934357" lon="13.365855216979591">
<time>2011-04-09T17:53:14.000+02:00</time>
<speed>3.3333333</speed>
<course>87.0</course>
<ele>85.0</ele>
</trkpt>
<trkpt lat="52.35203146934357" lon="13.365919589995949">
<time>2011-04-09T17:53:15.000+02:00</time>
<speed>3.3333333</speed>
<course>87.0</course>
<ele>85.0</ele>
</trkpt>
<trkpt lat="52.35203146934357" lon="13.365962505340187">
<time>2011-04-09T17:53:16.000+02:00</time>
<speed>3.3333333</speed>
<course>87.0</course>
<ele>85.0</ele>
</trkpt>
<trkpt lat="52.35203146934357" lon="13.366005420684425">
<time>2011-04-09T17:53:17.000+02:00</time>
<speed>3.3333333</speed>
<course>87.0</course>
<ele>85.0</ele>
</trkpt>
<trkpt lat="52.35204219817963" lon="13.366048336028664">
<time>2011-04-09T17:53:18.000+02:00</time>
<speed>3.3333333</speed>
<course>87.0</course>
<ele>85.0</ele>
</trkpt>
<trkpt lat="52.35204219817963" lon="13.366091251372902">
<time>2011-04-09T17:53:19.000+02:00</time>
<speed>3.3333333</speed>
<course>87.0</course>
<ele>85.0</ele>
</trkpt>
<trkpt lat="52.35204219817963" lon="13.36613416671714">
<time>2011-04-09T17:53:20.000+02:00</time>
<speed>3.3333333</speed>
<course>87.0</course>
<ele>85.0</ele>
</trkpt>
<trkpt lat="52.35204219817963" lon="13.366198539733498">
<time>2011-04-09T17:53:21.000+02:00</time>
<speed>3.3333333</speed>
<course>87.0</course>
<ele>85.0</ele>
</trkpt>
<trkpt lat="52.35204219817963" lon="13.366241455077736">
<time>2011-04-09T17:53:22.000+02:00</time>
<speed>3.3333333</speed>
<course>87.0</course>
<ele>85.0</ele>
</trkpt>
<trkpt lat="52.35204219817963" lon="13.366284370421974">
<time>2011-04-09T17:53:23.000+02:00</time>
<speed>3.3333333</speed>
<course>88.0</course>
<ele>85.0</ele>
</trkpt>
<trkpt lat="52.35205292701569" lon="13.366327285766213">
<time>2011-04-09T17:53:24.000+02:00</time>
<speed>3.3333333</speed>
<course>87.0</course>
<ele>85.0</ele>
</trkpt>
<trkpt lat="52.35205292701569" lon="13.36639165878257">
<time>2011-04-09T17:53:25.000+02:00</time>
<speed>3.3333333</speed>
<course>86.0</course>
<ele>85.0</ele>
</trkpt>
<trkpt lat="52.35205292701569" lon="13.366434574126808">
<time>2011-04-09T17:53:26.000+02:00</time>
<speed>3.3333333</speed>
<course>87.0</course>
<ele>85.0</ele>
</trkpt>
<trkpt lat="52.35205292701569" lon="13.366498947143166">
<time>2011-04-09T17:53:27.000+02:00</time>
<speed>3.6111112</speed>
<course>87.0</course>
<ele>85.0</ele>
</trkpt>
<trkpt lat="52.35205292701569" lon="13.366541862487404">
<time>2011-04-09T17:53:28.000+02:00</time>
<speed>3.6111112</speed>
<course>88.0</course>
<ele>85.0</ele>
</trkpt>
<trkpt lat="52.35205292701569" lon="13.366606235503761">
<time>2011-04-09T17:53:29.000+02:00</time>
<speed>3.6111112</speed>
<course>88.0</course>
<ele>85.0</ele>
</trkpt>
<trkpt lat="52.35205292701569" lon="13.366670608520119">
<time>2011-04-09T17:53:30.000+02:00</time>
<speed>3.6111112</speed>
<course>88.0</course>
<ele>85.0</ele>
</trkpt>
<trkpt lat="52.35206365585175" lon="13.366713523864357">
<time>2011-04-09T17:53:31.000+02:00</time>
<speed>3.8888888</speed>
<course>87.0</course>
<ele>85.0</ele>
</trkpt>
<trkpt lat="52.35206365585175" lon="13.366777896880714">
<time>2011-04-09T17:53:32.000+02:00</time>
<speed>3.8888888</speed>
<course>87.0</course>
<ele>85.0</ele>
</trkpt>
<trkpt lat="52.35206365585175" lon="13.366842269897072">
<time>2011-04-09T17:53:33.000+02:00</time>
<speed>3.8888888</speed>
<course>87.0</course>
<ele>85.0</ele>
</trkpt>
<trkpt lat="52.35206365585175" lon="13.36690664291343">
<time>2011-04-09T17:53:34.000+02:00</time>
<speed>3.8888888</speed>
<course>87.0</course>
<ele>85.0</ele>
</trkpt>
<trkpt lat="52.35206365585175" lon="13.366949558257668">
<time>2011-04-09T17:53:35.000+02:00</time>
<speed>3.8888888</speed>
<course>85.0</course>
<ele>85.0</ele>
</trkpt>
<trkpt lat="52.35206365585175" lon="13.367013931274025">
<time>2011-04-09T17:53:36.000+02:00</time>
<speed>3.8888888</speed>
<course>87.0</course>
<ele>85.0</ele>
</trkpt>
<trkpt lat="52.35207438468781" lon="13.367056846618263">
<time>2011-04-09T17:53:37.000+02:00</time>
<speed>3.8888888</speed>
<course>87.0</course>
<ele>85.0</ele>
</trkpt>
<trkpt lat="52.35207438468781" lon="13.36712121963462">
<time>2011-04-09T17:53:38.000+02:00</time>
<speed>3.8888888</speed>
<course>88.0</course>
<ele>85.0</ele>
</trkpt>
<trkpt lat="52.35207438468781" lon="13.367185592650978">
<time>2011-04-09T17:53:39.000+02:00</time>
<speed>3.8888888</speed>
<course>87.0</course>
<ele>85.0</ele>
</trkpt>
<trkpt lat="52.35207438468781" lon="13.367228507995216">
<time>2011-04-09T17:53:40.000+02:00</time>
<speed>3.8888888</speed>
<course>87.0</course>
<ele>85.0</ele>
</trkpt>
<trkpt lat="52.35207438468781" lon="13.367292881011574">
<time>2011-04-09T17:53:41.000+02:00</time>
<speed>3.8888888</speed>
<course>87.0</course>
<ele>85.0</ele>
</trkpt>
<trkpt lat="52.35207438468781" lon="13.367335796355812">
<time>2011-04-09T17:53:42.000+02:00</time>
<speed>3.6111112</speed>
<course>88.0</course>
<ele>85.0</ele>
</trkpt>
<trkpt lat="52.35207438468781" lon="13.367443084716408">
<time>2011-04-09T17:53:44.000+02:00</time>
<speed>3.6111112</speed>
<course>89.0</course>
<ele>85.0</ele>
</trkpt>
<trkpt lat="52.35207438468781" lon="13.367507457732765">
<time>2011-04-09T17:53:45.000+02:00</time>
<speed>3.6111112</speed>
<course>89.0</course>
<ele>85.0</ele>
</trkpt>
<trkpt lat="52.35207438468781" lon="13.367550373077004">
<time>2011-04-09T17:53:46.000+02:00</time>
<speed>3.6111112</speed>
<course>89.0</course>
<ele>85.0</ele>
</trkpt>
<trkpt lat="52.35207438468781" lon="13.367593288421242">
<time>2011-04-09T17:53:47.000+02:00</time>
<speed>3.6111112</speed>
<course>88.0</course>
<ele>85.0</ele>
</trkpt>
<trkpt lat="52.35207438468781" lon="13.36763620376548">
<time>2011-04-09T17:53:48.000+02:00</time>
<speed>3.3333333</speed>
<course>88.0</course>
<ele>85.0</ele>
</trkpt>
<trkpt lat="52.35207438468781" lon="13.367700576781838">
<time>2011-04-09T17:53:49.000+02:00</time>
<speed>3.3333333</speed>
<course>88.0</course>
<ele>85.0</ele>
</trkpt>
<trkpt lat="52.35207438468781" lon="13.367743492126076">
<time>2011-04-09T17:53:50.000+02:00</time>
<speed>3.3333333</speed>
<course>88.0</course>
<ele>85.0</ele>
</trkpt>
<trkpt lat="52.35207438468781" lon="13.367786407470314">
<time>2011-04-09T17:53:51.000+02:00</time>
<speed>3.0555556</speed>
<course>87.0</course>
<ele>85.0</ele>
</trkpt>
<trkpt lat="52.35207438468781" lon="13.367829322814552">
<time>2011-04-09T17:53:52.000+02:00</time>
<speed>3.3333333</speed>
<course>86.0</course>
<ele>85.0</ele>
</trkpt>
<trkpt lat="52.35207438468781" lon="13.36787223815879">
<time>2011-04-09T17:53:53.000+02:00</time>
<speed>3.3333333</speed>
<course>87.0</course>
<ele>85.0</ele>
</trkpt>
<trkpt lat="52.35208511352387" lon="13.367936611175148">
<time>2011-04-09T17:53:54.000+02:00</time>
<speed>3.3333333</speed>
<course>88.0</course>
<ele>85.0</ele>
</trkpt>
<trkpt lat="52.35208511352387" lon="13.367979526519386">
<time>2011-04-09T17:53:55.000+02:00</time>
<speed>3.3333333</speed>
<course>89.0</course>
<ele>85.0</ele>
</trkpt>
<trkpt lat="52.35208511352387" lon="13.368022441863625">
<time>2011-04-09T17:53:56.000+02:00</time>
<speed>3.3333333</speed>
<course>89.0</course>
<ele>85.0</ele>
</trkpt>
<trkpt lat="52.35208511352387" lon="13.368065357207863">
<time>2011-04-09T17:53:57.000+02:00</time>
<speed>3.3333333</speed>
<course>88.0</course>
<ele>85.0</ele>
</trkpt>
<trkpt lat="52.35208511352387" lon="13.36812973022422">
<time>2011-04-09T17:53:58.000+02:00</time>
<speed>3.3333333</speed>
<course>89.0</course>
<ele>85.0</ele>
</trkpt>
<trkpt lat="52.35208511352387" lon="13.368172645568459">
<time>2011-04-09T17:53:59.000+02:00</time>
<speed>3.3333333</speed>
<course>87.0</course>
<ele>85.0</ele>
</trkpt>
<trkpt lat="52.35208511352387" lon="13.368237018584816">
<time>2011-04-09T17:54:00.000+02:00</time>
<speed>3.3333333</speed>
<course>87.0</course>
<ele>85.0</ele>
</trkpt>
<trkpt lat="52.35208511352387" lon="13.368279933929054">
<time>2011-04-09T17:54:01.000+02:00</time>
<speed>3.3333333</speed>
<course>88.0</course>
<ele>85.0</ele>
</trkpt>
<trkpt lat="52.35208511352387" lon="13.368322849273293">
<time>2011-04-09T17:54:02.000+02:00</time>
<speed>3.0555556</speed>
<course>89.0</course>
<ele>85.0</ele>
</trkpt>
<trkpt lat="52.35208511352387" lon="13.368365764617531">
<time>2011-04-09T17:54:03.000+02:00</time>
<speed>3.0555556</speed>
<course>89.0</course>
<ele>85.0</ele>
</trkpt>
<trkpt lat="52.35208511352387" lon="13.36840867996177">
<time>2011-04-09T17:54:04.000+02:00</time>
<speed>3.0555556</speed>
<course>90.0</course>
<ele>85.0</ele>
</trkpt>
<trkpt lat="52.35208511352387" lon="13.368451595306007">
<time>2011-04-09T17:54:05.000+02:00</time>
<speed>3.0555556</speed>
<course>89.0</course>
<ele>85.0</ele>
</trkpt>
<trkpt lat="52.35208511352387" lon="13.368494510650246">
<time>2011-04-09T17:54:06.000+02:00</time>
<speed>3.0555556</speed>
<course>89.0</course>
<ele>85.0</ele>
</trkpt>
<trkpt lat="52.35208511352387" lon="13.368558883666603">
<time>2011-04-09T17:54:07.000+02:00</time>
<speed>3.6111112</speed>
<course>87.0</course>
<ele>85.0</ele>
</trkpt>
<trkpt lat="52.35209584235993" lon="13.36862325668296">
<time>2011-04-09T17:54:08.000+02:00</time>
<speed>3.8888888</speed>
<course>86.0</course>
<ele>85.0</ele>
</trkpt>
<trkpt lat="52.35209584235993" lon="13.368666172027199">
<time>2011-04-09T17:54:09.000+02:00</time>
<speed>3.8888888</speed>
<course>87.0</course>
<ele>85.0</ele>
</trkpt>
<trkpt lat="52.35209584235993" lon="13.368730545043556">
<time>2011-04-09T17:54:10.000+02:00</time>
<speed>3.8888888</speed>
<course>87.0</course>
<ele>85.0</ele>
</trkpt>
<trkpt lat="52.35209584235993" lon="13.368773460387795">
<time>2011-04-09T17:54:11.000+02:00</time>
<speed>3.8888888</speed>
<course>89.0</course>
<ele>85.0</ele>
</trkpt>
<trkpt lat="52.35209584235993" lon="13.368837833404152">
<time>2011-04-09T17:54:12.000+02:00</time>
<speed>3.6111112</speed>
<course>89.0</course>
<ele>85.0</ele>
</trkpt>
<trkpt lat="52.35209584235993" lon="13.36890220642051">
<time>2011-04-09T17:54:13.000+02:00</time>
<speed>3.8888888</speed>
<course>88.0</course>
<ele>85.0</ele>
</trkpt>
<trkpt lat="52.35209584235993" lon="13.368945121764748">
<time>2011-04-09T17:54:14.000+02:00</time>
<speed>3.6111112</speed>
<course>88.0</course>
<ele>85.0</ele>
</trkpt>
<trkpt lat="52.35209584235993" lon="13.369009494781105">
<time>2011-04-09T17:54:15.000+02:00</time>
<speed>3.6111112</speed>
<course>90.0</course>
<ele>85.0</ele>
</trkpt>
<trkpt lat="52.35209584235993" lon="13.369052410125343">
<time>2011-04-09T17:54:16.000+02:00</time>
<speed>3.6111112</speed>
<course>89.0</course>
<ele>85.0</ele>
</trkpt>
<trkpt lat="52.35209584235993" lon="13.3691167831417">
<time>2011-04-09T17:54:17.000+02:00</time>
<speed>3.6111112</speed>
<course>88.0</course>
<ele>85.0</ele>
</trkpt>
<trkpt lat="52.35209584235993" lon="13.369181156158058">
<time>2011-04-09T17:54:18.000+02:00</time>
<speed>3.6111112</speed>
<course>88.0</course>
<ele>85.0</ele>
</trkpt>
<trkpt lat="52.35210657119599" lon="13.369224071502297">
<time>2011-04-09T17:54:19.000+02:00</time>
<speed>3.8888888</speed>
<course>89.0</course>
<ele>85.0</ele>
</trkpt>
<trkpt lat="52.35210657119599" lon="13.369288444518654">
<time>2011-04-09T17:54:20.000+02:00</time>
<speed>3.8888888</speed>
<course>88.0</course>
<ele>85.0</ele>
</trkpt>
<trkpt lat="52.35210657119599" lon="13.369352817535011">
<time>2011-04-09T17:54:21.000+02:00</time>
<speed>3.8888888</speed>
<course>87.0</course>
<ele>85.0</ele>
</trkpt>
<trkpt lat="52.35210657119599" lon="13.36939573287925">
<time>2011-04-09T17:54:22.000+02:00</time>
<speed>3.8888888</speed>
<course>87.0</course>
<ele>85.0</ele>
</trkpt>
<trkpt lat="52.35210657119599" lon="13.369460105895607">
<time>2011-04-09T17:54:23.000+02:00</time>
<speed>3.8888888</speed>
<course>88.0</course>
<ele>85.0</ele>
</trkpt>
<trkpt lat="52.35211730003205" lon="13.369524478911964">
<time>2011-04-09T17:54:24.000+02:00</time>
<speed>3.8888888</speed>
<course>88.0</course>
<ele>85.0</ele>
</trkpt>
<trkpt lat="52.35211730003205" lon="13.369588851928322">
<time>2011-04-09T17:54:25.000+02:00</time>
<speed>3.8888888</speed>
<course>88.0</course>
<ele>85.0</ele>
</trkpt>
<trkpt lat="52.35211730003205" lon="13.36965322494468">
<time>2011-04-09T17:54:26.000+02:00</time>
<speed>3.8888888</speed>
<course>88.0</course>
<ele>85.0</ele>
</trkpt>
<trkpt lat="52.35211730003205" lon="13.369717597961037">
<time>2011-04-09T17:54:27.000+02:00</time>
<speed>4.1666665</speed>
<course>88.0</course>
<ele>85.0</ele>
</trkpt>
<trkpt lat="52.35211730003205" lon="13.369760513305275">
<time>2011-04-09T17:54:28.000+02:00</time>
<speed>4.1666665</speed>
<course>88.0</course>
<ele>85.0</ele>
</trkpt>
<trkpt lat="52.35211730003205" lon="13.369824886321632">
<time>2011-04-09T17:54:29.000+02:00</time>
<speed>4.1666665</speed>
<course>87.0</course>
<ele>85.0</ele>
</trkpt>
<trkpt lat="52.35211730003205" lon="13.36988925933799">
<time>2011-04-09T17:54:30.000+02:00</time>
<speed>4.1666665</speed>
<course>88.0</course>
<ele>85.0</ele>
</trkpt>
<trkpt lat="52.35211730003205" lon="13.369953632354347">
<time>2011-04-09T17:54:31.000+02:00</time>
<speed>4.1666665</speed>
<course>88.0</course>
<ele>85.0</ele>
</trkpt>
<trkpt lat="52.35211730003205" lon="13.370018005370705">
<time>2011-04-09T17:54:32.000+02:00</time>
<speed>4.1666665</speed>
<course>88.0</course>
<ele>85.0</ele>
</trkpt>
<trkpt lat="52.35211730003205" lon="13.370060920714943">
<time>2011-04-09T17:54:33.000+02:00</time>
<speed>3.8888888</speed>
<course>89.0</course>
<ele>85.0</ele>
</trkpt>
<trkpt lat="52.35211730003205" lon="13.3701252937313">
<time>2011-04-09T17:54:34.000+02:00</time>
<speed>3.8888888</speed>
<course>88.0</course>
<ele>85.0</ele>
</trkpt>
<trkpt lat="52.35212802886811" lon="13.370189666747658">
<time>2011-04-09T17:54:35.000+02:00</time>
<speed>3.6111112</speed>
<course>89.0</course>
<ele>85.0</ele>
</trkpt>
<trkpt lat="52.35212802886811" lon="13.370232582091896">
<time>2011-04-09T17:54:36.000+02:00</time>
<speed>3.6111112</speed>
<course>88.0</course>
<ele>85.0</ele>
</trkpt>
<trkpt lat="52.35212802886811" lon="13.370296955108254">
<time>2011-04-09T17:54:37.000+02:00</time>
<speed>3.8888888</speed>
<course>89.0</course>
<ele>85.0</ele>
</trkpt>
<trkpt lat="52.35212802886811" lon="13.370339870452492">
<time>2011-04-09T17:54:38.000+02:00</time>
<speed>3.8888888</speed>
<course>88.0</course>
<ele>85.0</ele>
</trkpt>
<trkpt lat="52.35212802886811" lon="13.37040424346885">
<time>2011-04-09T17:54:39.000+02:00</time>
<speed>3.8888888</speed>
<course>88.0</course>
<ele>85.0</ele>
</trkpt>
<trkpt lat="52.35212802886811" lon="13.370532989501564">
<time>2011-04-09T17:54:41.000+02:00</time>
<speed>3.8888888</speed>
<course>89.0</course>
<ele>85.0</ele>
</trkpt>
<trkpt lat="52.35212802886811" lon="13.370597362517922">
<time>2011-04-09T17:54:42.000+02:00</time>
<speed>3.8888888</speed>
<course>90.0</course>
<ele>85.0</ele>
</trkpt>
<trkpt lat="52.35212802886811" lon="13.37064027786216">
<time>2011-04-09T17:54:43.000+02:00</time>
<speed>3.8888888</speed>
<course>90.0</course>
<ele>85.0</ele>
</trkpt>
<trkpt lat="52.35212802886811" lon="13.370704650878517">
<time>2011-04-09T17:54:44.000+02:00</time>
<speed>3.8888888</speed>
<course>89.0</course>
<ele>85.0</ele>
</trkpt>
<trkpt lat="52.35212802886811" lon="13.370769023894875">
<time>2011-04-09T17:54:45.000+02:00</time>
<speed>3.8888888</speed>
<course>88.0</course>
<ele>85.0</ele>
</trkpt>
<trkpt lat="52.35212802886811" lon="13.370811939239113">
<time>2011-04-09T17:54:46.000+02:00</time>
<speed>3.8888888</speed>
<course>89.0</course>
<ele>85.0</ele>
</trkpt>
<trkpt lat="52.35212802886811" lon="13.37087631225547">
<time>2011-04-09T17:54:47.000+02:00</time>
<speed>3.8888888</speed>
<course>89.0</course>
<ele>85.0</ele>
</trkpt>
<trkpt lat="52.35212802886811" lon="13.370940685271828">
<time>2011-04-09T17:54:48.000+02:00</time>
<speed>4.1666665</speed>
<course>88.0</course>
<ele>85.0</ele>
</trkpt>
<trkpt lat="52.35212802886811" lon="13.371005058288185">
<time>2011-04-09T17:54:49.000+02:00</time>
<speed>4.1666665</speed>
<course>87.0</course>
<ele>85.0</ele>
</trkpt>
<trkpt lat="52.35212802886811" lon="13.371069431304543">
<time>2011-04-09T17:54:50.000+02:00</time>
<speed>4.1666665</speed>
<course>88.0</course>
<ele>85.0</ele>
</trkpt>
<trkpt lat="52.35213875770417" lon="13.3711338043209">
<time>2011-04-09T17:54:51.000+02:00</time>
<speed>4.1666665</speed>
<course>88.0</course>
<ele>85.0</ele>
</trkpt>
<trkpt lat="52.35213875770417" lon="13.371198177337257">
<time>2011-04-09T17:54:52.000+02:00</time>
<speed>4.1666665</speed>
<course>88.0</course>
<ele>85.0</ele>
</trkpt>
<trkpt lat="52.35213875770417" lon="13.371262550353615">
<time>2011-04-09T17:54:53.000+02:00</time>
<speed>4.1666665</speed>
<course>87.0</course>
<ele>85.0</ele>
</trkpt>
<trkpt lat="52.35213875770417" lon="13.371326923369972">
<time>2011-04-09T17:54:54.000+02:00</time>
<speed>4.1666665</speed>
<course>88.0</course>
<ele>85.0</ele>
</trkpt>
<trkpt lat="52.35213875770417" lon="13.37139129638633">
<time>2011-04-09T17:54:55.000+02:00</time>
<speed>4.1666665</speed>
<course>87.0</course>
<ele>85.0</ele>
</trkpt>
<trkpt lat="52.35213875770417" lon="13.371455669402687">
<time>2011-04-09T17:54:56.000+02:00</time>
<speed>4.1666665</speed>
<course>87.0</course>
<ele>85.0</ele>
</trkpt>
<trkpt lat="52.35214948654023" lon="13.371520042419045">
<time>2011-04-09T17:54:57.000+02:00</time>
<speed>4.1666665</speed>
<course>87.0</course>
<ele>85.0</ele>
</trkpt>
<trkpt lat="52.35214948654023" lon="13.371562957763283">
<time>2011-04-09T17:54:58.000+02:00</time>
<speed>4.1666665</speed>
<course>85.0</course>
<ele>85.0</ele>
</trkpt>
<trkpt lat="52.35214948654023" lon="13.37162733077964">
<time>2011-04-09T17:54:59.000+02:00</time>
<speed>4.1666665</speed>
<course>86.0</course>
<ele>85.0</ele>
</trkpt>
<trkpt lat="52.35214948654023" lon="13.371691703795998">
<time>2011-04-09T17:55:00.000+02:00</time>
<speed>3.8888888</speed>
<course>87.0</course>
<ele>85.0</ele>
</trkpt>
<trkpt lat="52.35216021537629" lon="13.371734619140236">
<time>2011-04-09T17:55:01.000+02:00</time>
<speed>3.8888888</speed>
<course>87.0</course>
<ele>85.0</ele>
</trkpt>
<trkpt lat="52.35216021537629" lon="13.371798992156593">
<time>2011-04-09T17:55:02.000+02:00</time>
<speed>3.8888888</speed>
<course>87.0</course>
<ele>85.0</ele>
</trkpt>
<trkpt lat="52.35216021537629" lon="13.371841907500832">
<time>2011-04-09T17:55:03.000+02:00</time>
<speed>3.8888888</speed>
<course>88.0</course>
<ele>85.0</ele>
</trkpt>
<trkpt lat="52.35216021537629" lon="13.371906280517189">
<time>2011-04-09T17:55:04.000+02:00</time>
<speed>3.8888888</speed>
<course>89.0</course>
<ele>85.0</ele>
</trkpt>
<trkpt lat="52.35216021537629" lon="13.371970653533547">
<time>2011-04-09T17:55:05.000+02:00</time>
<speed>3.8888888</speed>
<course>87.0</course>
<ele>85.0</ele>
</trkpt>
<trkpt lat="52.35216021537629" lon="13.372013568877785">
<time>2011-04-09T17:55:06.000+02:00</time>
<speed>3.8888888</speed>
<course>88.0</course>
<ele>85.0</ele>
</trkpt>
<trkpt lat="52.35216021537629" lon="13.372077941894142">
<time>2011-04-09T17:55:07.000+02:00</time>
<speed>3.8888888</speed>
<course>89.0</course>
<ele>85.0</ele>
</trkpt>
<trkpt lat="52.35216021537629" lon="13.3721423149105">
<time>2011-04-09T17:55:08.000+02:00</time>
<speed>3.8888888</speed>
<course>87.0</course>
<ele>85.0</ele>
</trkpt>
<trkpt lat="52.35216021537629" lon="13.372185230254738">
<time>2011-04-09T17:55:09.000+02:00</time>
<speed>3.8888888</speed>
<course>87.0</course>
<ele>85.0</ele>
</trkpt>
<trkpt lat="52.35217094421235" lon="13.372249603271095">
<time>2011-04-09T17:55:10.000+02:00</time>
<speed>3.8888888</speed>
<course>88.0</course>
<ele>85.0</ele>
</trkpt>
<trkpt lat="52.35217094421235" lon="13.372313976287453">
<time>2011-04-09T17:55:11.000+02:00</time>
<speed>3.8888888</speed>
<course>88.0</course>
<ele>85.0</ele>
</trkpt>
<trkpt lat="52.35217094421235" lon="13.372356891631691">
<time>2011-04-09T17:55:12.000+02:00</time>
<speed>3.8888888</speed>
<course>88.0</course>
<ele>85.0</ele>
</trkpt>
<trkpt lat="52.35217094421235" lon="13.372421264648048">
<time>2011-04-09T17:55:13.000+02:00</time>
<speed>3.8888888</speed>
<course>89.0</course>
<ele>85.0</ele>
</trkpt>
<trkpt lat="52.35217094421235" lon="13.372485637664406">
<time>2011-04-09T17:55:14.000+02:00</time>
<speed>3.8888888</speed>
<course>88.0</course>
<ele>85.0</ele>
</trkpt>
<trkpt lat="52.35217094421235" lon="13.372528553008644">
<time>2011-04-09T17:55:15.000+02:00</time>
<speed>3.8888888</speed>
<course>89.0</course>
<ele>85.0</ele>
</trkpt>
<trkpt lat="52.35217094421235" lon="13.372592926025002">
<time>2011-04-09T17:55:16.000+02:00</time>
<speed>3.8888888</speed>
<course>88.0</course>
<ele>85.0</ele>
</trkpt>
<trkpt lat="52.35217094421235" lon="13.372657299041359">
<time>2011-04-09T17:55:17.000+02:00</time>
<speed>3.8888888</speed>
<course>88.0</course>
<ele>85.0</ele>
</trkpt>
<trkpt lat="52.35217094421235" lon="13.372700214385597">
<time>2011-04-09T17:55:18.000+02:00</time>
<speed>3.6111112</speed>
<course>89.0</course>
<ele>85.0</ele>
</trkpt>
<trkpt lat="52.35217094421235" lon="13.372764587401955">
<time>2011-04-09T17:55:19.000+02:00</time>
<speed>3.6111112</speed>
<course>89.0</course>
<ele>85.0</ele>
</trkpt>
<trkpt lat="52.35217094421235" lon="13.372807502746193">
<time>2011-04-09T17:55:20.000+02:00</time>
<speed>3.6111112</speed>
<course>90.0</course>
<ele>85.0</ele>
</trkpt>
<trkpt lat="52.35217094421235" lon="13.37287187576255">
<time>2011-04-09T17:55:21.000+02:00</time>
<speed>3.6111112</speed>
<course>89.0</course>
<ele>85.0</ele>
</trkpt>
<trkpt lat="52.35217094421235" lon="13.372914791106789">
<time>2011-04-09T17:55:22.000+02:00</time>
<speed>3.6111112</speed>
<course>89.0</course>
<ele>85.0</ele>
</trkpt>
<trkpt lat="52.35217094421235" lon="13.372957706451027">
<time>2011-04-09T17:55:23.000+02:00</time>
<speed>3.6111112</speed>
<course>89.0</course>
<ele>85.0</ele>
</trkpt>
<trkpt lat="52.35217094421235" lon="13.373022079467384">
<time>2011-04-09T17:55:24.000+02:00</time>
<speed>3.3333333</speed>
<course>88.0</course>
<ele>86.0</ele>
</trkpt>
<trkpt lat="52.35217094421235" lon="13.373064994811623">
<time>2011-04-09T17:55:25.000+02:00</time>
<speed>3.0555556</speed>
<course>87.0</course>
<ele>86.0</ele>
</trkpt>
<trkpt lat="52.35217094421235" lon="13.373107910155861">
<time>2011-04-09T17:55:26.000+02:00</time>
<speed>3.0555556</speed>
<course>88.0</course>
<ele>86.0</ele>
</trkpt>
<trkpt lat="52.35217094421235" lon="13.3731508255001">
<time>2011-04-09T17:55:27.000+02:00</time>
<speed>3.0555556</speed>
<course>89.0</course>
<ele>86.0</ele>
</trkpt>
<trkpt lat="52.35217094421235" lon="13.373193740844338">
<time>2011-04-09T17:55:28.000+02:00</time>
<speed>3.0555556</speed>
<course>90.0</course>
<ele>86.0</ele>
</trkpt>
<trkpt lat="52.35217094421235" lon="13.373236656188576">
<time>2011-04-09T17:55:29.000+02:00</time>
<speed>3.0555556</speed>
<course>89.0</course>
<ele>86.0</ele>
</trkpt>
<trkpt lat="52.35217094421235" lon="13.373279571532814">
<time>2011-04-09T17:55:30.000+02:00</time>
<speed>2.5</speed>
<course>89.0</course>
<ele>86.0</ele>
</trkpt>
<trkpt lat="52.35217094421235" lon="13.373301029204933">
<time>2011-04-09T17:55:31.000+02:00</time>
<speed>1.9444444</speed>
<course>89.0</course>
<ele>86.0</ele>
</trkpt>
<trkpt lat="52.35217094421235" lon="13.373343944549172">
<time>2011-04-09T17:55:32.000+02:00</time>
<speed>1.9444444</speed>
<course>90.0</course>
<ele>86.0</ele>
</trkpt>
<trkpt lat="52.35217094421235" lon="13.37336540222129">
<time>2011-04-09T17:55:33.000+02:00</time>
<speed>1.9444444</speed>
<course>89.0</course>
<ele>86.0</ele>
</trkpt>
<trkpt lat="52.35217094421235" lon="13.373408317565529">
<time>2011-04-09T17:55:34.000+02:00</time>
<speed>1.9444444</speed>
<course>88.0</course>
<ele>86.0</ele>
</trkpt>
<trkpt lat="52.35217094421235" lon="13.373429775237648">
<time>2011-04-09T17:55:35.000+02:00</time>
<speed>1.9444444</speed>
<course>87.0</course>
<ele>86.0</ele>
</trkpt>
<trkpt lat="52.35217094421235" lon="13.373451232909767">
<time>2011-04-09T17:55:36.000+02:00</time>
<speed>1.9444444</speed>
<course>99.0</course>
<ele>86.0</ele>
</trkpt>
<trkpt lat="52.35217094421235" lon="13.373451232909767">
<time>2011-04-09T17:55:37.000+02:00</time>
<speed>0.0</speed>
<course>99.0</course>
<ele>86.0</ele>
</trkpt>
<trkpt lat="52.35216021537629" lon="13.373515605926125">
<time>2011-04-09T17:55:38.000+02:00</time>
<speed>1.6666666</speed>
<course>102.0</course>
<ele>86.0</ele>
</trkpt>
<trkpt lat="52.35216021537629" lon="13.373515605926125">
<time>2011-04-09T17:55:39.000+02:00</time>
<speed>0.0</speed>
<course>102.0</course>
<ele>86.0</ele>
</trkpt>
<trkpt lat="52.35216021537629" lon="13.373515605926125">
<time>2011-04-09T17:55:40.000+02:00</time>
<speed>0.0</speed>
<course>102.0</course>
<ele>86.0</ele>
</trkpt>
<trkpt lat="52.35216021537629" lon="13.373579978942482">
<time>2011-04-09T17:55:41.000+02:00</time>
<speed>1.3888888</speed>
<course>92.0</course>
<ele>86.0</ele>
</trkpt>
<trkpt lat="52.35216021537629" lon="13.373601436614601">
<time>2011-04-09T17:55:42.000+02:00</time>
<speed>1.6666666</speed>
<course>78.0</course>
<ele>86.0</ele>
</trkpt>
<trkpt lat="52.35217094421235" lon="13.37362289428672">
<time>2011-04-09T17:55:43.000+02:00</time>
<speed>1.9444444</speed>
<course>78.0</course>
<ele>86.0</ele>
</trkpt>
<trkpt lat="52.35217094421235" lon="13.373665809630959">
<time>2011-04-09T17:55:44.000+02:00</time>
<speed>1.9444444</speed>
<course>75.0</course>
<ele>86.0</ele>
</trkpt>
<trkpt lat="52.352181673048406" lon="13.373730182647316">
<time>2011-04-09T17:55:46.000+02:00</time>
<speed>2.5</speed>
<course>78.0</course>
<ele>86.0</ele>
</trkpt>
<trkpt lat="52.352181673048406" lon="13.373751640319435">
<time>2011-04-09T17:55:47.000+02:00</time>
<speed>2.7777777</speed>
<course>91.0</course>
<ele>86.0</ele>
</trkpt>
<trkpt lat="52.352181673048406" lon="13.373816013335793">
<time>2011-04-09T17:55:48.000+02:00</time>
<speed>3.3333333</speed>
<course>91.0</course>
<ele>86.0</ele>
</trkpt>
<trkpt lat="52.352181673048406" lon="13.373858928680031">
<time>2011-04-09T17:55:49.000+02:00</time>
<speed>3.3333333</speed>
<course>91.0</course>
<ele>86.0</ele>
</trkpt>
<trkpt lat="52.352181673048406" lon="13.37390184402427">
<time>2011-04-09T17:55:50.000+02:00</time>
<speed>3.3333333</speed>
<course>90.0</course>
<ele>86.0</ele>
</trkpt>
<trkpt lat="52.352181673048406" lon="13.373944759368507">
<time>2011-04-09T17:55:51.000+02:00</time>
<speed>3.0555556</speed>
<course>90.0</course>
<ele>86.0</ele>
</trkpt>
<trkpt lat="52.352181673048406" lon="13.373987674712746">
<time>2011-04-09T17:55:52.000+02:00</time>
<speed>3.0555556</speed>
<course>88.0</course>
<ele>86.0</ele>
</trkpt>
<trkpt lat="52.352192401884466" lon="13.374030590056984">
<time>2011-04-09T17:55:53.000+02:00</time>
<speed>3.0555556</speed>
<course>86.0</course>
<ele>86.0</ele>
</trkpt>
<trkpt lat="52.352192401884466" lon="13.374073505401222">
<time>2011-04-09T17:55:54.000+02:00</time>
<speed>3.0555556</speed>
<course>86.0</course>
<ele>86.0</ele>
</trkpt>
<trkpt lat="52.352192401884466" lon="13.37411642074546">
<time>2011-04-09T17:55:55.000+02:00</time>
<speed>2.7777777</speed>
<course>86.0</course>
<ele>86.0</ele>
</trkpt>
<trkpt lat="52.352192401884466" lon="13.374159336089699">
<time>2011-04-09T17:55:56.000+02:00</time>
<speed>2.7777777</speed>
<course>84.0</course>
<ele>86.0</ele>
</trkpt>
<trkpt lat="52.352192401884466" lon="13.374202251433937">
<time>2011-04-09T17:55:57.000+02:00</time>
<speed>2.7777777</speed>
<course>88.0</course>
<ele>86.0</ele>
</trkpt>
<trkpt lat="52.352192401884466" lon="13.374202251433937">
<time>2011-04-09T17:55:58.000+02:00</time>
<speed>0.0</speed>
<course>88.0</course>
<ele>86.0</ele>
</trkpt>
<trkpt lat="52.352192401884466" lon="13.374202251433937">
<time>2011-04-09T17:55:59.000+02:00</time>
<speed>0.0</speed>
<course>88.0</course>
<ele>86.0</ele>
</trkpt>
<trkpt lat="52.352192401884466" lon="13.374202251433937">
<time>2011-04-09T17:56:00.000+02:00</time>
<speed>0.0</speed>
<course>88.0</course>
<ele>86.0</ele>
</trkpt>
<trkpt lat="52.352192401884466" lon="13.374202251433937">
<time>2011-04-09T17:56:01.000+02:00</time>
<speed>0.0</speed>
<course>88.0</course>
<ele>86.0</ele>
</trkpt>
<trkpt lat="52.352203130720525" lon="13.37437391281089">
<time>2011-04-09T17:56:02.000+02:00</time>
<speed>0.0</speed>
<course>88.0</course>
<ele>86.0</ele>
</trkpt>
<trkpt lat="52.352203130720525" lon="13.374416828155129">
<time>2011-04-09T17:56:03.000+02:00</time>
<speed>2.7777777</speed>
<course>86.0</course>
<ele>85.0</ele>
</trkpt>
<trkpt lat="52.352203130720525" lon="13.374459743499367">
<time>2011-04-09T17:56:04.000+02:00</time>
<speed>3.0555556</speed>
<course>85.0</course>
<ele>85.0</ele>
</trkpt>
<trkpt lat="52.352203130720525" lon="13.374502658843605">
<time>2011-04-09T17:56:05.000+02:00</time>
<speed>3.0555556</speed>
<course>84.0</course>
<ele>85.0</ele>
</trkpt>
<trkpt lat="52.352213859556585" lon="13.374567031859963">
<time>2011-04-09T17:56:06.000+02:00</time>
<speed>4.4444447</speed>
<course>86.0</course>
<ele>85.0</ele>
</trkpt>
<trkpt lat="52.352213859556585" lon="13.37463140487632">
<time>2011-04-09T17:56:07.000+02:00</time>
<speed>4.4444447</speed>
<course>87.0</course>
<ele>85.0</ele>
</trkpt>
<trkpt lat="52.352213859556585" lon="13.374695777892677">
<time>2011-04-09T17:56:08.000+02:00</time>
<speed>4.4444447</speed>
<course>87.0</course>
<ele>85.0</ele>
</trkpt>
<trkpt lat="52.352213859556585" lon="13.374760150909035">
<time>2011-04-09T17:56:09.000+02:00</time>
<speed>4.1666665</speed>
<course>87.0</course>
<ele>85.0</ele>
</trkpt>
<trkpt lat="52.352224588392644" lon="13.374824523925392">
<time>2011-04-09T17:56:10.000+02:00</time>
<speed>4.4444447</speed>
<course>86.0</course>
<ele>85.0</ele>
</trkpt>
<trkpt lat="52.352224588392644" lon="13.37488889694175">
<time>2011-04-09T17:56:11.000+02:00</time>
<speed>4.4444447</speed>
<course>86.0</course>
<ele>85.0</ele>
</trkpt>
<trkpt lat="52.352224588392644" lon="13.374953269958107">
<time>2011-04-09T17:56:12.000+02:00</time>
<speed>3.8888888</speed>
<course>87.0</course>
<ele>85.0</ele>
</trkpt>
<trkpt lat="52.352235317228704" lon="13.375017642974464">
<time>2011-04-09T17:56:13.000+02:00</time>
<speed>4.1666665</speed>
<course>85.0</course>
<ele>85.0</ele>
</trkpt>
<trkpt lat="52.352235317228704" lon="13.375082015990822">
<time>2011-04-09T17:56:14.000+02:00</time>
<speed>4.1666665</speed>
<course>84.0</course>
<ele>85.0</ele>
</trkpt>
<trkpt lat="52.352235317228704" lon="13.37514638900718">
<time>2011-04-09T17:56:15.000+02:00</time>
<speed>4.1666665</speed>
<course>85.0</course>
<ele>85.0</ele>
</trkpt>
<trkpt lat="52.352246046064764" lon="13.375210762023537">
<time>2011-04-09T17:56:16.000+02:00</time>
<speed>4.1666665</speed>
<course>86.0</course>
<ele>85.0</ele>
</trkpt>
<trkpt lat="52.352246046064764" lon="13.375275135039894">
<time>2011-04-09T17:56:17.000+02:00</time>
<speed>4.1666665</speed>
<course>87.0</course>
<ele>85.0</ele>
</trkpt>
<trkpt lat="52.352246046064764" lon="13.375339508056252">
<time>2011-04-09T17:56:18.000+02:00</time>
<speed>3.8888888</speed>
<course>86.0</course>
<ele>85.0</ele>
</trkpt>
<trkpt lat="52.352246046064764" lon="13.37538242340049">
<time>2011-04-09T17:56:19.000+02:00</time>
<speed>3.8888888</speed>
<course>87.0</course>
<ele>85.0</ele>
</trkpt>
<trkpt lat="52.35225677490082" lon="13.375446796416847">
<time>2011-04-09T17:56:20.000+02:00</time>
<speed>3.6111112</speed>
<course>88.0</course>
<ele>85.0</ele>
</trkpt></trkseg>
<trkseg>

<trkpt lat="52.35225677490082" lon="13.375446796416847">
<time>2011-04-09T17:56:20.000+02:00</time>
<speed>3.6111112</speed>
<course>88.0</course>
<ele>85.0</ele>
</trkpt>
<trkpt lat="52.35225677490082" lon="13.375554084777443">
<time>2011-04-09T17:56:22.000+02:00</time>
<speed>3.3333333</speed>
<course>89.0</course>
<ele>85.0</ele>
</trkpt>
<trkpt lat="52.35225677490082" lon="13.3756184577938">
<time>2011-04-09T17:56:23.000+02:00</time>
<speed>3.3333333</speed>
<course>90.0</course>
<ele>84.0</ele>
</trkpt>
<trkpt lat="52.35225677490082" lon="13.375446796416847">
<time>2011-04-09T17:56:20.000+02:00</time>
<speed>3.6111112</speed>
<course>88.0</course>
<ele>85.0</ele>
</trkpt>
<trkpt lat="52.35225677490082" lon="13.375661373138039">
<time>2011-04-09T17:56:24.000+02:00</time>
<speed>3.3333333</speed>
<course>90.0</course>
<ele>84.0</ele>
</trkpt>
<trkpt lat="52.35225677490082" lon="13.375446796416847">
<time>2011-04-09T17:56:20.000+02:00</time>
<speed>3.6111112</speed>
<course>88.0</course>
<ele>85.0</ele>
</trkpt>
<trkpt lat="52.35225677490082" lon="13.375725746154396">
<time>2011-04-09T17:56:25.000+02:00</time>
<speed>3.0555556</speed>
<course>90.0</course>
<ele>84.0</ele>
</trkpt>
<trkpt lat="52.35225677490082" lon="13.375768661498634">
<time>2011-04-09T17:56:26.000+02:00</time>
<speed>3.3333333</speed>
<course>90.0</course>
<ele>84.0</ele>
</trkpt>
<trkpt lat="52.35225677490082" lon="13.375446796416847">
<time>2011-04-09T17:56:20.000+02:00</time>
<speed>3.6111112</speed>
<course>88.0</course>
<ele>85.0</ele>
</trkpt>
<trkpt lat="52.35225677490082" lon="13.375833034514992">
<time>2011-04-09T17:56:27.000+02:00</time>
<speed>3.3333333</speed>
<course>89.0</course>
<ele>84.0</ele>
</trkpt>
<trkpt lat="52.35225677490082" lon="13.375446796416847">
<time>2011-04-09T17:56:20.000+02:00</time>
<speed>3.6111112</speed>
<course>88.0</course>
<ele>85.0</ele>
</trkpt>
<trkpt lat="52.35226750373688" lon="13.37587594985923">
<time>2011-04-09T17:56:28.000+02:00</time>
<speed>3.3333333</speed>
<course>89.0</course>
<ele>84.0</ele>
</trkpt>
<trkpt lat="52.35226750373688" lon="13.375940322875588">
<time>2011-04-09T17:56:29.000+02:00</time>
<speed>3.3333333</speed>
<course>88.0</course>
<ele>84.0</ele>
</trkpt>
<trkpt lat="52.35225677490082" lon="13.375446796416847">
<time>2011-04-09T17:56:20.000+02:00</time>
<speed>3.6111112</speed>
<course>88.0</course>
<ele>85.0</ele>
</trkpt>
<trkpt lat="52.35226750373688" lon="13.375983238219826">
<time>2011-04-09T17:56:30.000+02:00</time>
<speed>2.7777777</speed>
<course>90.0</course>
<ele>84.0</ele>
</trkpt>
<trkpt lat="52.35225677490082" lon="13.375446796416847">
<time>2011-04-09T17:56:20.000+02:00</time>
<speed>3.6111112</speed>
<course>88.0</course>
<ele>85.0</ele>
</trkpt>
<trkpt lat="52.35226750373688" lon="13.376026153564064">
<time>2011-04-09T17:56:31.000+02:00</time>
<speed>2.5</speed>
<course>91.0</course>
<ele>84.0</ele>
</trkpt>
<trkpt lat="52.35226750373688" lon="13.376069068908302">
<time>2011-04-09T17:56:32.000+02:00</time>
<speed>2.7777777</speed>
<course>90.0</course>
<ele>84.0</ele>
</trkpt>
<trkpt lat="52.35225677490082" lon="13.375446796416847">
<time>2011-04-09T17:56:20.000+02:00</time>
<speed>3.6111112</speed>
<course>88.0</course>
<ele>85.0</ele>
</trkpt>
<trkpt lat="52.35226750373688" lon="13.37611198425254">
<time>2011-04-09T17:56:33.000+02:00</time>
<speed>2.7777777</speed>
<course>89.0</course>
<ele>84.0</ele>
</trkpt>
<trkpt lat="52.35225677490082" lon="13.375446796416847">
<time>2011-04-09T17:56:20.000+02:00</time>
<speed>3.6111112</speed>
<course>88.0</course>
<ele>85.0</ele>
</trkpt>
<trkpt lat="52.35226750373688" lon="13.376154899596779">
<time>2011-04-09T17:56:34.000+02:00</time>
<speed>2.7777777</speed>
<course>88.0</course>
<ele>84.0</ele>
</trkpt>
<trkpt lat="52.35226750373688" lon="13.376197814941017">
<time>2011-04-09T17:56:35.000+02:00</time>
<speed>2.7777777</speed>
<course>88.0</course>
<ele>84.0</ele>
</trkpt>
<trkpt lat="52.35225677490082" lon="13.375446796416847">
<time>2011-04-09T17:56:20.000+02:00</time>
<speed>3.6111112</speed>
<course>88.0</course>
<ele>85.0</ele>
</trkpt>
<trkpt lat="52.35226750373688" lon="13.376240730285256">
<time>2011-04-09T17:56:36.000+02:00</time>
<speed>2.7777777</speed>
<course>88.0</course>
<ele>84.0</ele>
</trkpt>
<trkpt lat="52.35225677490082" lon="13.375446796416847">
<time>2011-04-09T17:56:20.000+02:00</time>
<speed>3.6111112</speed>
<course>88.0</course>
<ele>85.0</ele>
</trkpt>
<trkpt lat="52.35226750373688" lon="13.376283645629494">
<time>2011-04-09T17:56:37.000+02:00</time>
<speed>2.5</speed>
<course>88.0</course>
<ele>84.0</ele>
</trkpt>
<trkpt lat="52.35226750373688" lon="13.376283645629494">
<time>2011-04-09T17:56:38.000+02:00</time>
<speed>0.0</speed>
<course>88.0</course>
<ele>84.0</ele>
</trkpt>
<trkpt lat="52.35225677490082" lon="13.375446796416847">
<time>2011-04-09T17:56:20.000+02:00</time>
<speed>3.6111112</speed>
<course>88.0</course>
<ele>85.0</ele>
</trkpt></trkseg>
<trkseg>

<trkpt lat="52.35226750373688" lon="13.376283645629494">
<time>2011-04-09T17:56:38.000+02:00</time>
<speed>0.0</speed>
<course>88.0</course>
<ele>84.0</ele>
</trkpt>
<trkpt lat="52.35225677490082" lon="13.375446796416847">
<time>2011-04-09T17:56:20.000+02:00</time>
<speed>3.6111112</speed>
<course>88.0</course>
<ele>85.0</ele>
</trkpt>
<trkpt lat="52.35226750373688" lon="13.376283645629494">
<time>2011-04-09T17:56:39.000+02:00</time>
<speed>0.0</speed>
<course>88.0</course>
<ele>84.0</ele>
</trkpt>
<trkpt lat="52.35227823257294" lon="13.37639093399009">
<time>2011-04-09T17:56:40.000+02:00</time>
<speed>2.7777777</speed>
<course>87.0</course>
<ele>84.0</ele>
</trkpt>
<trkpt lat="52.35226750373688" lon="13.376283645629494">
<time>2011-04-09T17:56:38.000+02:00</time>
<speed>0.0</speed>
<course>88.0</course>
<ele>84.0</ele>
</trkpt>
<trkpt lat="52.35225677490082" lon="13.375446796416847">
<time>2011-04-09T17:56:20.000+02:00</time>
<speed>3.6111112</speed>
<course>88.0</course>
<ele>85.0</ele>
</trkpt>
<trkpt lat="52.35227823257294" lon="13.376433849334328">
<time>2011-04-09T17:56:41.000+02:00</time>
<speed>2.7777777</speed>
<course>88.0</course>
<ele>84.0</ele>
</trkpt>
<trkpt lat="52.35226750373688" lon="13.376283645629494">
<time>2011-04-09T17:56:38.000+02:00</time>
<speed>0.0</speed>
<course>88.0</course>
<ele>84.0</ele>
</trkpt>
<trkpt lat="52.35227823257294" lon="13.376476764678566">
<time>2011-04-09T17:56:42.000+02:00</time>
<speed>2.7777777</speed>
<course>88.0</course>
<ele>84.0</ele>
</trkpt>
<trkpt lat="52.35227823257294" lon="13.376519680022804">
<time>2011-04-09T17:56:43.000+02:00</time>
<speed>2.7777777</speed>
<course>88.0</course>
<ele>84.0</ele>
</trkpt>
<trkpt lat="52.35226750373688" lon="13.376283645629494">
<time>2011-04-09T17:56:38.000+02:00</time>
<speed>0.0</speed>
<course>88.0</course>
<ele>84.0</ele>
</trkpt>
<trkpt lat="52.35227823257294" lon="13.376562595367043">
<time>2011-04-09T17:56:44.000+02:00</time>
<speed>2.7777777</speed>
<course>88.0</course>
<ele>84.0</ele>
</trkpt>
<trkpt lat="52.35226750373688" lon="13.376283645629494">
<time>2011-04-09T17:56:38.000+02:00</time>
<speed>0.0</speed>
<course>88.0</course>
<ele>84.0</ele>
</trkpt>
<trkpt lat="52.35227823257294" lon="13.3766269683834">
<time>2011-04-09T17:56:45.000+02:00</time>
<speed>3.0555556</speed>
<course>89.0</course>
<ele>84.0</ele>
</trkpt>
<trkpt lat="52.35227823257294" lon="13.376669883727638">
<time>2011-04-09T17:56:46.000+02:00</time>
<speed>3.3333333</speed>
<course>89.0</course>
<ele>84.0</ele>
</trkpt>
<trkpt lat="52.35226750373688" lon="13.376283645629494">
<time>2011-04-09T17:56:38.000+02:00</time>
<speed>0.0</speed>
<course>88.0</course>
<ele>84.0</ele>
</trkpt>
<trkpt lat="52.35227823257294" lon="13.376734256743996">
<time>2011-04-09T17:56:47.000+02:00</time>
<speed>3.3333333</speed>
<course>89.0</course>
<ele>84.0</ele>
</trkpt>
<trkpt lat="52.35226750373688" lon="13.376283645629494">
<time>2011-04-09T17:56:38.000+02:00</time>
<speed>0.0</speed>
<course>88.0</course>
<ele>84.0</ele>
</trkpt>
<trkpt lat="52.352288961409" lon="13.376841545104591">
<time>2011-04-09T17:56:49.000+02:00</time>
<speed>3.6111112</speed>
<course>87.0</course>
<ele>84.0</ele>
</trkpt>
<trkpt lat="52.352288961409" lon="13.376905918120949">
<time>2011-04-09T17:56:50.000+02:00</time>
<speed>3.6111112</speed>
<course>86.0</course>
<ele>84.0</ele>
</trkpt>
<trkpt lat="52.35226750373688" lon="13.376283645629494">
<time>2011-04-09T17:56:38.000+02:00</time>
<speed>0.0</speed>
<course>88.0</course>
<ele>84.0</ele>
</trkpt>
<trkpt lat="52.352288961409" lon="13.376970291137306">
<time>2011-04-09T17:56:51.000+02:00</time>
<speed>3.6111112</speed>
<course>87.0</course>
<ele>84.0</ele>
</trkpt>
<trkpt lat="52.35226750373688" lon="13.376283645629494">
<time>2011-04-09T17:56:38.000+02:00</time>
<speed>0.0</speed>
<course>88.0</course>
<ele>84.0</ele>
</trkpt>
<trkpt lat="52.352288961409" lon="13.377013206481545">
<time>2011-04-09T17:56:52.000+02:00</time>
<speed>3.6111112</speed>
<course>86.0</course>
<ele>83.0</ele>
</trkpt>
<trkpt lat="52.352288961409" lon="13.377077579497902">
<time>2011-04-09T17:56:53.000+02:00</time>
<speed>3.6111112</speed>
<course>87.0</course>
<ele>83.0</ele>
</trkpt>
<trkpt lat="52.35226750373688" lon="13.376283645629494">
<time>2011-04-09T17:56:38.000+02:00</time>
<speed>0.0</speed>
<course>88.0</course>
<ele>84.0</ele>
</trkpt>
<trkpt lat="52.35229969024506" lon="13.37712049484214">
<time>2011-04-09T17:56:54.000+02:00</time>
<speed>3.6111112</speed>
<course>86.0</course>
<ele>83.0</ele>
</trkpt>
<trkpt lat="52.35226750373688" lon="13.376283645629494">
<time>2011-04-09T17:56:38.000+02:00</time>
<speed>0.0</speed>
<course>88.0</course>
<ele>84.0</ele>
</trkpt>
<trkpt lat="52.35229969024506" lon="13.377184867858498">
<time>2011-04-09T17:56:55.000+02:00</time>
<speed>3.6111112</speed>
<course>87.0</course>
<ele>83.0</ele>
</trkpt>
<trkpt lat="52.35229969024506" lon="13.377227783202736">
<time>2011-04-09T17:56:56.000+02:00</time>
<speed>3.6111112</speed>
<course>88.0</course>
<ele>83.0</ele>
</trkpt>
<trkpt lat="52.35226750373688" lon="13.376283645629494">
<time>2011-04-09T17:56:38.000+02:00</time>
<speed>0.0</speed>
<course>88.0</course>
<ele>84.0</ele>
</trkpt>
<trkpt lat="52.35229969024506" lon="13.377292156219093">
<time>2011-04-09T17:56:57.000+02:00</time>
<speed>3.6111112</speed>
<course>87.0</course>
<ele>83.0</ele>
</trkpt>
<trkpt lat="52.35226750373688" lon="13.376283645629494">
<time>2011-04-09T17:56:38.000+02:00</time>
<speed>0.0</speed>
<course>88.0</course>
<ele>84.0</ele>
</trkpt>
<trkpt lat="52.35229969024506" lon="13.377335071563332">
<time>2011-04-09T17:56:58.000+02:00</time>
<speed>3.6111112</speed>
<course>88.0</course>
<ele>83.0</ele>
</trkpt>
<trkpt lat="52.35229969024506" lon="13.377399444579689">
<time>2011-04-09T17:56:59.000+02:00</time>
<speed>3.6111112</speed>
<course>88.0</course>
<ele>83.0</ele>
</trkpt>
<trkpt lat="52.35226750373688" lon="13.376283645629494">
<time>2011-04-09T17:56:38.000+02:00</time>
<speed>0.0</speed>
<course>88.0</course>
<ele>84.0</ele>
</trkpt>
<trkpt lat="52.35229969024506" lon="13.377442359923927">
<time>2011-04-09T17:57:00.000+02:00</time>
<speed>3.6111112</speed>
<course>87.0</course>
<ele>83.0</ele>
</trkpt>
<trkpt lat="52.35231041908112" lon="13.377485275268166">
<time>2011-04-09T17:57:01.000+02:00</time>
<speed>3.3333333</speed>
<course>86.0</course>
<ele>83.0</ele>
</trkpt>
<trkpt lat="52.35231041908112" lon="13.377528190612404">
<time>2011-04-09T17:57:02.000+02:00</time>
<speed>3.0555556</speed>
<course>87.0</course>
<ele>83.0</ele>
</trkpt>
<trkpt lat="52.35231041908112" lon="13.377592563628761">
<time>2011-04-09T17:57:03.000+02:00</time>
<speed>3.0555556</speed>
<course>86.0</course>
<ele>83.0</ele>
</trkpt>
<trkpt lat="52.35231041908112" lon="13.377635478973">
<time>2011-04-09T17:57:04.000+02:00</time>
<speed>3.3333333</speed>
<course>88.0</course>
<ele>83.0</ele>
</trkpt>
<trkpt lat="52.35231041908112" lon="13.377678394317238">
<time>2011-04-09T17:57:05.000+02:00</time>
<speed>3.6111112</speed>
<course>88.0</course>
<ele>83.0</ele>
</trkpt>
<trkpt lat="52.35231041908112" lon="13.377742767333595">
<time>2011-04-09T17:57:06.000+02:00</time>
<speed>3.6111112</speed>
<course>88.0</course>
<ele>83.0</ele>
</trkpt>
<trkpt lat="52.35231041908112" lon="13.377785682677834">
<time>2011-04-09T17:57:07.000+02:00</time>
<speed>3.6111112</speed>
<course>88.0</course>
<ele>83.0</ele>
</trkpt>
<trkpt lat="52.35231041908112" lon="13.377850055694191">
<time>2011-04-09T17:57:08.000+02:00</time>
<speed>3.6111112</speed>
<course>89.0</course>
<ele>83.0</ele>
</trkpt>
<trkpt lat="52.35231041908112" lon="13.37789297103843">
<time>2011-04-09T17:57:09.000+02:00</time>
<speed>3.6111112</speed>
<course>90.0</course>
<ele>83.0</ele>
</trkpt>
<trkpt lat="52.35231041908112" lon="13.377935886382668">
<time>2011-04-09T17:57:10.000+02:00</time>
<speed>3.6111112</speed>
<course>89.0</course>
<ele>83.0</ele>
</trkpt>
<trkpt lat="52.35232114791718" lon="13.378000259399025">
<time>2011-04-09T17:57:11.000+02:00</time>
<speed>3.6111112</speed>
<course>87.0</course>
<ele>83.0</ele>
</trkpt>
<trkpt lat="52.35232114791718" lon="13.378043174743263">
<time>2011-04-09T17:57:12.000+02:00</time>
<speed>3.6111112</speed>
<course>87.0</course>
<ele>83.0</ele>
</trkpt>
<trkpt lat="52.35232114791718" lon="13.378086090087502">
<time>2011-04-09T17:57:13.000+02:00</time>
<speed>3.3333333</speed>
<course>88.0</course>
<ele>83.0</ele>
</trkpt>
<trkpt lat="52.35232114791718" lon="13.378150463103859">
<time>2011-04-09T17:57:14.000+02:00</time>
<speed>3.3333333</speed>
<course>88.0</course>
<ele>83.0</ele>
</trkpt>
<trkpt lat="52.35232114791718" lon="13.378193378448097">
<time>2011-04-09T17:57:15.000+02:00</time>
<speed>3.3333333</speed>
<course>88.0</course>
<ele>83.0</ele>
</trkpt>
<trkpt lat="52.35232114791718" lon="13.378236293792336">
<time>2011-04-09T17:57:16.000+02:00</time>
<speed>3.3333333</speed>
<course>86.0</course>
<ele>82.0</ele>
</trkpt>
<trkpt lat="52.35232114791718" lon="13.378279209136574">
<time>2011-04-09T17:57:17.000+02:00</time>
<speed>3.3333333</speed>
<course>85.0</course>
<ele>82.0</ele>
</trkpt>
<trkpt lat="52.35233187675324" lon="13.378343582152931">
<time>2011-04-09T17:57:18.000+02:00</time>
<speed>3.3333333</speed>
<course>86.0</course>
<ele>82.0</ele>
</trkpt>
<trkpt lat="52.35233187675324" lon="13.37838649749717">
<time>2011-04-09T17:57:19.000+02:00</time>
<speed>3.3333333</speed>
<course>87.0</course>
<ele>82.0</ele>
</trkpt>
<trkpt lat="52.35233187675324" lon="13.378429412841408">
<time>2011-04-09T17:57:20.000+02:00</time>
<speed>3.3333333</speed>
<course>86.0</course>
<ele>82.0</ele>
</trkpt>
<trkpt lat="52.35233187675324" lon="13.378493785857765">
<time>2011-04-09T17:57:21.000+02:00</time>
<speed>3.3333333</speed>
<course>87.0</course>
<ele>82.0</ele>
</trkpt>
<trkpt lat="52.35233187675324" lon="13.378536701202004">
<time>2011-04-09T17:57:22.000+02:00</time>
<speed>3.0555556</speed>
<course>86.0</course>
<ele>82.0</ele>
</trkpt>
<trkpt lat="52.35233187675324" lon="13.378579616546242">
<time>2011-04-09T17:57:23.000+02:00</time>
<speed>3.0555556</speed>
<course>86.0</course>
<ele>82.0</ele>
</trkpt>
<trkpt lat="52.3523426055893" lon="13.37862253189048">
<time>2011-04-09T17:57:24.000+02:00</time>
<speed>3.3333333</speed>
<course>87.0</course>
<ele>82.0</ele>
</trkpt>
<trkpt lat="52.3523426055893" lon="13.378665447234718">
<time>2011-04-09T17:57:25.000+02:00</time>
<speed>3.3333333</speed>
<course>87.0</course>
<ele>82.0</ele>
</trkpt>
<trkpt lat="52.3523426055893" lon="13.378729820251076">
<time>2011-04-09T17:57:26.000+02:00</time>
<speed>3.6111112</speed>
<course>87.0</course>
<ele>82.0</ele>
</trkpt>
<trkpt lat="52.3523426055893" lon="13.378772735595314">
<time>2011-04-09T17:57:27.000+02:00</time>
<speed>3.6111112</speed>
<course>88.0</course>
<ele>82.0</ele>
</trkpt>
<trkpt lat="52.3523426055893" lon="13.378815650939552">
<time>2011-04-09T17:57:28.000+02:00</time>
<speed>3.6111112</speed>
<course>89.0</course>
<ele>82.0</ele>
</trkpt>
<trkpt lat="52.3523426055893" lon="13.37888002395591">
<time>2011-04-09T17:57:29.000+02:00</time>
<speed>3.6111112</speed>
<course>90.0</course>
<ele>82.0</ele>
</trkpt>
<trkpt lat="52.3523426055893" lon="13.378922939300148">
<time>2011-04-09T17:57:30.000+02:00</time>
<speed>3.6111112</speed>
<course>90.0</course>
<ele>82.0</ele>
</trkpt>
<trkpt lat="52.3523426055893" lon="13.378987312316506">
<time>2011-04-09T17:57:31.000+02:00</time>
<speed>3.6111112</speed>
<course>89.0</course>
<ele>82.0</ele>
</trkpt>
<trkpt lat="52.3523426055893" lon="13.379030227660744">
<time>2011-04-09T17:57:32.000+02:00</time>
<speed>3.6111112</speed>
<course>88.0</course>
<ele>82.0</ele>
</trkpt>
<trkpt lat="52.3523426055893" lon="13.379094600677101">
<time>2011-04-09T17:57:33.000+02:00</time>
<speed>3.6111112</speed>
<course>87.0</course>
<ele>82.0</ele>
</trkpt>
<trkpt lat="52.3523426055893" lon="13.37913751602134">
<time>2011-04-09T17:57:34.000+02:00</time>
<speed>3.6111112</speed>
<course>87.0</course>
<ele>82.0</ele>
</trkpt>
<trkpt lat="52.3523426055893" lon="13.379180431365578">
<time>2011-04-09T17:57:35.000+02:00</time>
<speed>2.7777777</speed>
<course>87.0</course>
<ele>82.0</ele>
</trkpt>
<trkpt lat="52.3523426055893" lon="13.379201889037697">
<time>2011-04-09T17:57:36.000+02:00</time>
<speed>1.9444444</speed>
<course>87.0</course>
<ele>82.0</ele>
</trkpt>
<trkpt lat="52.3523426055893" lon="13.379244804381935">
<time>2011-04-09T17:57:37.000+02:00</time>
<speed>1.9444444</speed>
<course>87.0</course>
<ele>82.0</ele>
</trkpt>
<trkpt lat="52.3523426055893" lon="13.379266262054054">
<time>2011-04-09T17:57:38.000+02:00</time>
<speed>1.6666666</speed>
<course>88.0</course>
<ele>82.0</ele>
</trkpt>
<trkpt lat="52.3523426055893" lon="13.379287719726173">
<time>2011-04-09T17:57:39.000+02:00</time>
<speed>1.6666666</speed>
<course>89.0</course>
<ele>82.0</ele>
</trkpt>
<trkpt lat="52.3523426055893" lon="13.379330635070412">
<time>2011-04-09T17:57:40.000+02:00</time>
<speed>2.2222223</speed>
<course>88.0</course>
<ele>82.0</ele>
</trkpt>
<trkpt lat="52.3523426055893" lon="13.37937355041465">
<time>2011-04-09T17:57:41.000+02:00</time>
<speed>2.5</speed>
<course>87.0</course>
<ele>82.0</ele>
</trkpt>
<trkpt lat="52.35235333442536" lon="13.379416465758888">
<time>2011-04-09T17:57:42.000+02:00</time>
<speed>2.7777777</speed>
<course>85.0</course>
<ele>82.0</ele>
</trkpt>
<trkpt lat="52.35235333442536" lon="13.379459381103127">
<time>2011-04-09T17:57:43.000+02:00</time>
<speed>2.7777777</speed>
<course>86.0</course>
<ele>82.0</ele>
</trkpt>
<trkpt lat="52.35235333442536" lon="13.379502296447365">
<time>2011-04-09T17:57:44.000+02:00</time>
<speed>3.0555556</speed>
<course>87.0</course>
<ele>82.0</ele>
</trkpt>
<trkpt lat="52.35235333442536" lon="13.379545211791603">
<time>2011-04-09T17:57:45.000+02:00</time>
<speed>3.3333333</speed>
<course>88.0</course>
<ele>82.0</ele>
</trkpt>
<trkpt lat="52.35235333442536" lon="13.379588127135841">
<time>2011-04-09T17:57:46.000+02:00</time>
<speed>3.3333333</speed>
<course>87.0</course>
<ele>82.0</ele>
</trkpt>
<trkpt lat="52.35235333442536" lon="13.379652500152199">
<time>2011-04-09T17:57:47.000+02:00</time>
<speed>3.3333333</speed>
<course>87.0</course>
<ele>82.0</ele>
</trkpt>
<trkpt lat="52.35235333442536" lon="13.379695415496437">
<time>2011-04-09T17:57:48.000+02:00</time>
<speed>3.0555556</speed>
<course>88.0</course>
<ele>82.0</ele>
</trkpt>
<trkpt lat="52.35235333442536" lon="13.379738330840675">
<time>2011-04-09T17:57:49.000+02:00</time>
<speed>3.0555556</speed>
<course>87.0</course>
<ele>82.0</ele>
</trkpt>
<trkpt lat="52.35235333442536" lon="13.379781246184914">
<time>2011-04-09T17:57:50.000+02:00</time>
<speed>3.0555556</speed>
<course>86.0</course>
<ele>82.0</ele>
</trkpt>
<trkpt lat="52.35235333442536" lon="13.379824161529152">
<time>2011-04-09T17:57:51.000+02:00</time>
<speed>3.0555556</speed>
<course>86.0</course>
<ele>82.0</ele>
</trkpt>
<trkpt lat="52.35236406326142" lon="13.37986707687339">
<time>2011-04-09T17:57:52.000+02:00</time>
<speed>2.7777777</speed>
<course>85.0</course>
<ele>82.0</ele>
</trkpt>
<trkpt lat="52.35236406326142" lon="13.379909992217629">
<time>2011-04-09T17:57:53.000+02:00</time>
<speed>2.7777777</speed>
<course>85.0</course>
<ele>82.0</ele>
</trkpt>
<trkpt lat="52.35236406326142" lon="13.379995822906105">
<time>2011-04-09T17:57:55.000+02:00</time>
<speed>2.7777777</speed>
<course>85.0</course>
<ele>82.0</ele>
</trkpt>
<trkpt lat="52.35236406326142" lon="13.380038738250343">
<time>2011-04-09T17:57:56.000+02:00</time>
<speed>2.7777777</speed>
<course>87.0</course>
<ele>82.0</ele>
</trkpt>
<trkpt lat="52.35236406326142" lon="13.380081653594582">
<time>2011-04-09T17:57:57.000+02:00</time>
<speed>2.7777777</speed>
<course>85.0</course>
<ele>82.0</ele>
</trkpt>
<trkpt lat="52.35236406326142" lon="13.38012456893882">
<time>2011-04-09T17:57:58.000+02:00</time>
<speed>2.7777777</speed>
<course>87.0</course>
<ele>82.0</ele>
</trkpt>
<trkpt lat="52.35236406326142" lon="13.380146026610939">
<time>2011-04-09T17:57:59.000+02:00</time>
<speed>2.7777777</speed>
<course>88.0</course>
<ele>82.0</ele>
</trkpt>
<trkpt lat="52.35236406326142" lon="13.380188941955177">
<time>2011-04-09T17:58:00.000+02:00</time>
<speed>2.7777777</speed>
<course>90.0</course>
<ele>82.0</ele>
</trkpt>
<trkpt lat="52.35236406326142" lon="13.380231857299416">
<time>2011-04-09T17:58:01.000+02:00</time>
<speed>2.5</speed>
<course>91.0</course>
<ele>82.0</ele>
</trkpt>
<trkpt lat="52.35235333442536" lon="13.380274772643654">
<time>2011-04-09T17:58:02.000+02:00</time>
<speed>2.5</speed>
<course>108.0</course>
<ele>82.0</ele>
</trkpt>
<trkpt lat="52.35235333442536" lon="13.380296230315773">
<time>2011-04-09T17:58:03.000+02:00</time>
<speed>2.5</speed>
<course>108.0</course>
<ele>82.0</ele>
</trkpt>
<trkpt lat="52.3523426055893" lon="13.380339145660011">
<time>2011-04-09T17:58:04.000+02:00</time>
<speed>2.5</speed>
<course>109.0</course>
<ele>82.0</ele>
</trkpt>
<trkpt lat="52.35233187675324" lon="13.38038206100425">
<time>2011-04-09T17:58:05.000+02:00</time>
<speed>2.5</speed>
<course>111.0</course>
<ele>82.0</ele>
</trkpt>
<trkpt lat="52.35232114791718" lon="13.380403518676369">
<time>2011-04-09T17:58:06.000+02:00</time>
<speed>2.5</speed>
<course>115.0</course>
<ele>82.0</ele>
</trkpt>
<trkpt lat="52.35229969024506" lon="13.380446434020607">
<time>2011-04-09T17:58:07.000+02:00</time>
<speed>2.7777777</speed>
<course>119.0</course>
<ele>82.0</ele>
</trkpt>
<trkpt lat="52.35227823257294" lon="13.380467891692726">
<time>2011-04-09T17:58:08.000+02:00</time>
<speed>3.3333333</speed>
<course>135.0</course>
<ele>82.0</ele>
</trkpt>
<trkpt lat="52.35225677490082" lon="13.380510807036964">
<time>2011-04-09T17:58:09.000+02:00</time>
<speed>3.6111112</speed>
<course>138.0</course>
<ele>82.0</ele>
</trkpt>
<trkpt lat="52.352213859556585" lon="13.380532264709084">
<time>2011-04-09T17:58:10.000+02:00</time>
<speed>3.6111112</speed>
<course>155.0</course>
<ele>82.0</ele>
</trkpt>
<trkpt lat="52.352181673048406" lon="13.380553722381203">
<time>2011-04-09T17:58:11.000+02:00</time>
<speed>3.6111112</speed>
<course>168.0</course>
<ele>82.0</ele>
</trkpt>
<trkpt lat="52.35214948654023" lon="13.380553722381203">
<time>2011-04-09T17:58:12.000+02:00</time>
<speed>3.6111112</speed>
<course>182.0</course>
<ele>82.0</ele>
</trkpt>
<trkpt lat="52.35211730003205" lon="13.380532264709084">
<time>2011-04-09T17:58:13.000+02:00</time>
<speed>3.6111112</speed>
<course>185.0</course>
<ele>82.0</ele>
</trkpt>
<trkpt lat="52.35208511352387" lon="13.380532264709084">
<time>2011-04-09T17:58:14.000+02:00</time>
<speed>3.0555556</speed>
<course>187.0</course>
<ele>82.0</ele>
</trkpt>
<trkpt lat="52.35206365585175" lon="13.380532264709084">
<time>2011-04-09T17:58:15.000+02:00</time>
<speed>2.7777777</speed>
<course>189.0</course>
<ele>82.0</ele>
</trkpt>
<trkpt lat="52.35204219817963" lon="13.380510807036964">
<time>2011-04-09T17:58:16.000+02:00</time>
<speed>2.7777777</speed>
<course>191.0</course>
<ele>82.0</ele>
</trkpt>
<trkpt lat="52.35202074050751" lon="13.380510807036964">
<time>2011-04-09T17:58:17.000+02:00</time>
<speed>2.7777777</speed>
<course>193.0</course>
<ele>82.0</ele>
</trkpt>
<trkpt lat="52.351988553999334" lon="13.380489349364845">
<time>2011-04-09T17:58:18.000+02:00</time>
<speed>3.0555556</speed>
<course>196.0</course>
<ele>82.0</ele>
</trkpt>
<trkpt lat="52.351967096327215" lon="13.380489349364845">
<time>2011-04-09T17:58:19.000+02:00</time>
<speed>3.0555556</speed>
<course>196.0</course>
<ele>82.0</ele>
</trkpt>
<trkpt lat="52.351934909819036" lon="13.380467891692726">
<time>2011-04-09T17:58:20.000+02:00</time>
<speed>3.3333333</speed>
<course>197.0</course>
<ele>82.0</ele>
</trkpt>
<trkpt lat="52.35190272331086" lon="13.380446434020607">
<time>2011-04-09T17:58:21.000+02:00</time>
<speed>3.6111112</speed>
<course>197.0</course>
<ele>82.0</ele>
</trkpt>
<trkpt lat="52.35188126563874" lon="13.380446434020607">
<time>2011-04-09T17:58:22.000+02:00</time>
<speed>3.3333333</speed>
<course>196.0</course>
<ele>82.0</ele>
</trkpt>
<trkpt lat="52.35184907913056" lon="13.380424976348488">
<time>2011-04-09T17:58:23.000+02:00</time>
<speed>3.3333333</speed>
<course>199.0</course>
<ele>82.0</ele>
</trkpt>
<trkpt lat="52.35182762145844" lon="13.380403518676369">
<time>2011-04-09T17:58:24.000+02:00</time>
<speed>3.0555556</speed>
<course>199.0</course>
<ele>82.0</ele>
</trkpt>
<trkpt lat="52.35179543495026" lon="13.38038206100425">
<time>2011-04-09T17:58:25.000+02:00</time>
<speed>3.8888888</speed>
<course>200.0</course>
<ele>82.0</ele>
</trkpt>
<trkpt lat="52.35176324844208" lon="13.38036060333213">
<time>2011-04-09T17:58:26.000+02:00</time>
<speed>3.8888888</speed>
<course>199.0</course>
<ele>82.0</ele>
</trkpt>
<trkpt lat="52.351731061933904" lon="13.380339145660011">
<time>2011-04-09T17:58:27.000+02:00</time>
<speed>3.8888888</speed>
<course>199.0</course>
<ele>82.0</ele>
</trkpt>
<trkpt lat="52.351688146589666" lon="13.380317687987892">
<time>2011-04-09T17:58:28.000+02:00</time>
<speed>3.8888888</speed>
<course>199.0</course>
<ele>82.0</ele>
</trkpt>
<trkpt lat="52.35165596008149" lon="13.380296230315773">
<time>2011-04-09T17:58:29.000+02:00</time>
<speed>3.8888888</speed>
<course>199.0</course>
<ele>82.0</ele>
</trkpt>
<trkpt lat="52.35162377357331" lon="13.380274772643654">
<time>2011-04-09T17:58:30.000+02:00</time>
<speed>3.8888888</speed>
<course>199.0</course>
<ele>82.0</ele>
</trkpt>
<trkpt lat="52.35158085822907" lon="13.380253314971535">
<time>2011-04-09T17:58:31.000+02:00</time>
<speed>3.8888888</speed>
<course>200.0</course>
<ele>82.0</ele>
</trkpt>
<trkpt lat="52.35154867172089" lon="13.380231857299416">
<time>2011-04-09T17:58:32.000+02:00</time>
<speed>3.8888888</speed>
<course>199.0</course>
<ele>82.0</ele>
</trkpt>
<trkpt lat="52.35151648521271" lon="13.380210399627297">
<time>2011-04-09T17:58:33.000+02:00</time>
<speed>3.6111112</speed>
<course>199.0</course>
<ele>82.0</ele>
</trkpt>
<trkpt lat="52.351484298704534" lon="13.380210399627297">
<time>2011-04-09T17:58:34.000+02:00</time>
<speed>3.3333333</speed>
<course>199.0</course>
<ele>82.0</ele>
</trkpt>
<trkpt lat="52.351452112196355" lon="13.380188941955177">
<time>2011-04-09T17:58:35.000+02:00</time>
<speed>3.0555556</speed>
<course>199.0</course>
<ele>82.0</ele>
</trkpt>
<trkpt lat="52.351430654524236" lon="13.380167484283058">
<time>2011-04-09T17:58:36.000+02:00</time>
<speed>3.3333333</speed>
<course>198.0</course>
<ele>82.0</ele>
</trkpt>
<trkpt lat="52.35139846801606" lon="13.380146026610939">
<time>2011-04-09T17:58:37.000+02:00</time>
<speed>3.3333333</speed>
<course>198.0</course>
<ele>82.0</ele>
</trkpt>
<trkpt lat="52.35136628150788" lon="13.38012456893882">
<time>2011-04-09T17:58:38.000+02:00</time>
<speed>3.3333333</speed>
<course>199.0</course>
<ele>82.0</ele>
</trkpt>
<trkpt lat="52.3513340949997" lon="13.38012456893882">
<time>2011-04-09T17:58:39.000+02:00</time>
<speed>3.6111112</speed>
<course>198.0</course>
<ele>82.0</ele>
</trkpt>
<trkpt lat="52.35130190849152" lon="13.3801031112667">
<time>2011-04-09T17:58:40.000+02:00</time>
<speed>3.6111112</speed>
<course>199.0</course>
<ele>82.0</ele>
</trkpt>
<trkpt lat="52.35126972198334" lon="13.380081653594582">
<time>2011-04-09T17:58:41.000+02:00</time>
<speed>3.6111112</speed>
<course>200.0</course>
<ele>82.0</ele>
</trkpt>
<trkpt lat="52.351237535475164" lon="13.380060195922463">
<time>2011-04-09T17:58:42.000+02:00</time>
<speed>3.6111112</speed>
<course>199.0</course>
<ele>82.0</ele>
</trkpt>
<trkpt lat="52.351205348966985" lon="13.380038738250343">
<time>2011-04-09T17:58:43.000+02:00</time>
<speed>3.6111112</speed>
<course>199.0</course>
<ele>82.0</ele>
</trkpt>
<trkpt lat="52.35117316245881" lon="13.380017280578224">
<time>2011-04-09T17:58:44.000+02:00</time>
<speed>3.6111112</speed>
<course>199.0</course>
<ele>82.0</ele>
</trkpt>
<trkpt lat="52.35115170478669" lon="13.380017280578224">
<time>2011-04-09T17:58:45.000+02:00</time>
<speed>3.3333333</speed>
<course>199.0</course>
<ele>82.0</ele>
</trkpt>
<trkpt lat="52.35111951827851" lon="13.379995822906105">
<time>2011-04-09T17:58:46.000+02:00</time>
<speed>3.3333333</speed>
<course>199.0</course>
<ele>82.0</ele>
</trkpt>
<trkpt lat="52.35109806060639" lon="13.379974365233986">
<time>2011-04-09T17:58:47.000+02:00</time>
<speed>3.0555556</speed>
<course>197.0</course>
<ele>82.0</ele>
</trkpt>
<trkpt lat="52.35106587409821" lon="13.379952907561867">
<time>2011-04-09T17:58:48.000+02:00</time>
<speed>3.0555556</speed>
<course>197.0</course>
<ele>82.0</ele>
</trkpt>
<trkpt lat="52.35103368759003" lon="13.379952907561867">
<time>2011-04-09T17:58:49.000+02:00</time>
<speed>3.3333333</speed>
<course>198.0</course>
<ele>82.0</ele>
</trkpt>
<trkpt lat="52.35100150108185" lon="13.379931449889748">
<time>2011-04-09T17:58:50.000+02:00</time>
<speed>3.3333333</speed>
<course>199.0</course>
<ele>82.0</ele>
</trkpt>
<trkpt lat="52.350969314573675" lon="13.379909992217629">
<time>2011-04-09T17:58:51.000+02:00</time>
<speed>3.6111112</speed>
<course>198.0</course>
<ele>82.0</ele>
</trkpt>
<trkpt lat="52.350947856901556" lon="13.37988853454551">
<time>2011-04-09T17:58:52.000+02:00</time>
<speed>3.3333333</speed>
<course>196.0</course>
<ele>82.0</ele>
</trkpt>
<trkpt lat="52.35091567039338" lon="13.37988853454551">
<time>2011-04-09T17:58:53.000+02:00</time>
<speed>3.6111112</speed>
<course>197.0</course>
<ele>82.0</ele>
</trkpt>
<trkpt lat="52.3508834838852" lon="13.37986707687339">
<time>2011-04-09T17:58:54.000+02:00</time>
<speed>3.3333333</speed>
<course>197.0</course>
<ele>82.0</ele>
</trkpt>
<trkpt lat="52.35085129737702" lon="13.379845619201271">
<time>2011-04-09T17:58:55.000+02:00</time>
<speed>3.3333333</speed>
<course>198.0</course>
<ele>82.0</ele>
</trkpt>
<trkpt lat="52.35079765319672" lon="13.379824161529152">
<time>2011-04-09T17:58:57.000+02:00</time>
<speed>3.3333333</speed>
<course>197.0</course>
<ele>82.0</ele>
</trkpt>
<trkpt lat="52.35076546668854" lon="13.379802703857033">
<time>2011-04-09T17:58:58.000+02:00</time>
<speed>3.3333333</speed>
<course>197.0</course>
<ele>82.0</ele>
</trkpt>
<trkpt lat="52.350733280180364" lon="13.379781246184914">
<time>2011-04-09T17:58:59.000+02:00</time>
<speed>3.3333333</speed>
<course>198.0</course>
<ele>82.0</ele>
</trkpt>
<trkpt lat="52.350711822508245" lon="13.379781246184914">
<time>2011-04-09T17:59:00.000+02:00</time>
<speed>3.3333333</speed>
<course>198.0</course>
<ele>82.0</ele>
</trkpt>
<trkpt lat="52.350679636000066" lon="13.379759788512795">
<time>2011-04-09T17:59:01.000+02:00</time>
<speed>3.3333333</speed>
<course>199.0</course>
<ele>82.0</ele>
</trkpt>
<trkpt lat="52.35064744949189" lon="13.379738330840675">
<time>2011-04-09T17:59:02.000+02:00</time>
<speed>3.3333333</speed>
<course>199.0</course>
<ele>82.0</ele>
</trkpt>
<trkpt lat="52.35062599181977" lon="13.379716873168556">
<time>2011-04-09T17:59:03.000+02:00</time>
<speed>3.3333333</speed>
<course>201.0</course>
<ele>82.0</ele>
</trkpt>
<trkpt lat="52.35059380531159" lon="13.379695415496437">
<time>2011-04-09T17:59:04.000+02:00</time>
<speed>3.3333333</speed>
<course>201.0</course>
<ele>82.0</ele>
</trkpt>
<trkpt lat="52.35057234763947" lon="13.379695415496437">
<time>2011-04-09T17:59:05.000+02:00</time>
<speed>3.3333333</speed>
<course>198.0</course>
<ele>82.0</ele>
</trkpt>
<trkpt lat="52.35054016113129" lon="13.379673957824318">
<time>2011-04-09T17:59:06.000+02:00</time>
<speed>3.3333333</speed>
<course>197.0</course>
<ele>82.0</ele>
</trkpt>
<trkpt lat="52.35050797462311" lon="13.379652500152199">
<time>2011-04-09T17:59:07.000+02:00</time>
<speed>3.3333333</speed>
<course>199.0</course>
<ele>82.0</ele>
</trkpt>
<trkpt lat="52.350486516950994" lon="13.379652500152199">
<time>2011-04-09T17:59:08.000+02:00</time>
<speed>3.3333333</speed>
<course>198.0</course>
<ele>82.0</ele>
</trkpt>
<trkpt lat="52.350454330442815" lon="13.37963104248008">
<time>2011-04-09T17:59:09.000+02:00</time>
<speed>3.3333333</speed>
<course>198.0</course>
<ele>82.0</ele>
</trkpt>
<trkpt lat="52.35042214393464" lon="13.37960958480796">
<time>2011-04-09T17:59:10.000+02:00</time>
<speed>3.3333333</speed>
<course>198.0</course>
<ele>82.0</ele>
</trkpt>
<trkpt lat="52.35038995742646" lon="13.379588127135841">
<time>2011-04-09T17:59:11.000+02:00</time>
<speed>3.3333333</speed>
<course>197.0</course>
<ele>82.0</ele>
</trkpt>
<trkpt lat="52.35036849975434" lon="13.379588127135841">
<time>2011-04-09T17:59:12.000+02:00</time>
<speed>3.3333333</speed>
<course>197.0</course>
<ele>82.0</ele>
</trkpt>
<trkpt lat="52.35033631324616" lon="13.379566669463722">
<time>2011-04-09T17:59:13.000+02:00</time>
<speed>3.6111112</speed>
<course>198.0</course>
<ele>82.0</ele>
</trkpt>
<trkpt lat="52.35030412673798" lon="13.379545211791603">
<time>2011-04-09T17:59:14.000+02:00</time>
<speed>3.6111112</speed>
<course>198.0</course>
<ele>82.0</ele>
</trkpt>
<trkpt lat="52.3502719402298" lon="13.379523754119484">
<time>2011-04-09T17:59:15.000+02:00</time>
<speed>3.6111112</speed>
<course>198.0</course>
<ele>82.0</ele>
</trkpt>
<trkpt lat="52.350239753721624" lon="13.379523754119484">
<time>2011-04-09T17:59:16.000+02:00</time>
<speed>3.6111112</speed>
<course>198.0</course>
<ele>82.0</ele>
</trkpt>
<trkpt lat="52.350207567213445" lon="13.379502296447365">
<time>2011-04-09T17:59:17.000+02:00</time>
<speed>3.6111112</speed>
<course>199.0</course>
<ele>83.0</ele>
</trkpt>
<trkpt lat="52.350186109541326" lon="13.379480838775246">
<time>2011-04-09T17:59:18.000+02:00</time>
<speed>3.6111112</speed>
<course>199.0</course>
<ele>83.0</ele>
</trkpt>
<trkpt lat="52.35015392303315" lon="13.379459381103127">
<time>2011-04-09T17:59:19.000+02:00</time>
<speed>3.6111112</speed>
<course>198.0</course>
<ele>83.0</ele>
</trkpt>
<trkpt lat="52.35012173652497" lon="13.379459381103127">
<time>2011-04-09T17:59:20.000+02:00</time>
<speed>3.3333333</speed>
<course>199.0</course>
<ele>83.0</ele>
</trkpt>
<trkpt lat="52.35010027885285" lon="13.379437923431007">
<time>2011-04-09T17:59:21.000+02:00</time>
<speed>3.0555556</speed>
<course>199.0</course>
<ele>83.0</ele>
</trkpt>
<trkpt lat="52.35006809234467" lon="13.379416465758888">
<time>2011-04-09T17:59:22.000+02:00</time>
<speed>3.0555556</speed>
<course>199.0</course>
<ele>83.0</ele>
</trkpt>
<trkpt lat="52.35004663467255" lon="13.37939500808677">
<time>2011-04-09T17:59:23.000+02:00</time>
<speed>3.0555556</speed>
<course>198.0</course>
<ele>83.0</ele>
</trkpt>
<trkpt lat="52.35001444816437" lon="13.37939500808677">
<time>2011-04-09T17:59:24.000+02:00</time>
<speed>3.0555556</speed>
<course>199.0</course>
<ele>83.0</ele>
</trkpt>
<trkpt lat="52.349992990492254" lon="13.37937355041465">
<time>2011-04-09T17:59:25.000+02:00</time>
<speed>3.0555556</speed>
<course>198.0</course>
<ele>83.0</ele>
</trkpt>
<trkpt lat="52.349960803984075" lon="13.379352092742531">
<time>2011-04-09T17:59:26.000+02:00</time>
<speed>3.3333333</speed>
<course>198.0</course>
<ele>83.0</ele>
</trkpt>
<trkpt lat="52.349939346311956" lon="13.379352092742531">
<time>2011-04-09T17:59:27.000+02:00</time>
<speed>3.3333333</speed>
<course>197.0</course>
<ele>83.0</ele>
</trkpt>
<trkpt lat="52.34990715980378" lon="13.379330635070412">
<time>2011-04-09T17:59:28.000+02:00</time>
<speed>3.3333333</speed>
<course>197.0</course>
<ele>83.0</ele>
</trkpt>
<trkpt lat="52.3498749732956" lon="13.379309177398293">
<time>2011-04-09T17:59:29.000+02:00</time>
<speed>3.3333333</speed>
<course>195.0</course>
<ele>83.0</ele>
</trkpt>
<trkpt lat="52.34985351562348" lon="13.379309177398293">
<time>2011-04-09T17:59:30.000+02:00</time>
<speed>3.0555556</speed>
<course>196.0</course>
<ele>83.0</ele>
</trkpt>
<trkpt lat="52.3498213291153" lon="13.379287719726173">
<time>2011-04-09T17:59:31.000+02:00</time>
<speed>3.0555556</speed>
<course>197.0</course>
<ele>83.0</ele>
</trkpt>
<trkpt lat="52.34979987144318" lon="13.379266262054054">
<time>2011-04-09T17:59:32.000+02:00</time>
<speed>3.0555556</speed>
<course>198.0</course>
<ele>83.0</ele>
</trkpt>
<trkpt lat="52.34977841377106" lon="13.379266262054054">
<time>2011-04-09T17:59:33.000+02:00</time>
<speed>2.7777777</speed>
<course>196.0</course>
<ele>83.0</ele>
</trkpt>
<trkpt lat="52.349746227262884" lon="13.379244804381935">
<time>2011-04-09T17:59:34.000+02:00</time>
<speed>2.7777777</speed>
<course>193.0</course>
<ele>83.0</ele>
</trkpt>
<trkpt lat="52.349724769590765" lon="13.379244804381935">
<time>2011-04-09T17:59:35.000+02:00</time>
<speed>3.0555556</speed>
<course>189.0</course>
<ele>83.0</ele>
</trkpt>
<trkpt lat="52.349692583082586" lon="13.379244804381935">
<time>2011-04-09T17:59:36.000+02:00</time>
<speed>3.3333333</speed>
<course>184.0</course>
<ele>83.0</ele>
</trkpt>
<trkpt lat="52.34967112541047" lon="13.379244804381935">
<time>2011-04-09T17:59:37.000+02:00</time>
<speed>3.3333333</speed>
<course>180.0</course>
<ele>83.0</ele>
</trkpt>
<trkpt lat="52.34963893890229" lon="13.379266262054054">
<time>2011-04-09T17:59:38.000+02:00</time>
<speed>3.3333333</speed>
<course>174.0</course>
<ele>83.0</ele>
</trkpt>
<trkpt lat="52.34960675239411" lon="13.379287719726173">
<time>2011-04-09T17:59:39.000+02:00</time>
<speed>3.3333333</speed>
<course>167.0</course>
<ele>83.0</ele>
</trkpt>
<trkpt lat="52.34958529472199" lon="13.379309177398293">
<time>2011-04-09T17:59:40.000+02:00</time>
<speed>3.3333333</speed>
<course>159.0</course>
<ele>83.0</ele>
</trkpt>
<trkpt lat="52.34955310821381" lon="13.379330635070412">
<time>2011-04-09T17:59:41.000+02:00</time>
<speed>3.3333333</speed>
<course>152.0</course>
<ele>83.0</ele>
</trkpt>
<trkpt lat="52.34953165054169" lon="13.379352092742531">
<time>2011-04-09T17:59:42.000+02:00</time>
<speed>3.3333333</speed>
<course>145.0</course>
<ele>83.0</ele>
</trkpt>
<trkpt lat="52.34951019286957" lon="13.37939500808677">
<time>2011-04-09T17:59:43.000+02:00</time>
<speed>3.3333333</speed>
<course>138.0</course>
<ele>83.0</ele>
</trkpt>
<trkpt lat="52.349499464033514" lon="13.379437923431007">
<time>2011-04-09T17:59:44.000+02:00</time>
<speed>3.0555556</speed>
<course>136.0</course>
<ele>83.0</ele>
</trkpt>
<trkpt lat="52.349478006361394" lon="13.379480838775246">
<time>2011-04-09T17:59:45.000+02:00</time>
<speed>3.3333333</speed>
<course>135.0</course>
<ele>83.0</ele>
</trkpt>
<trkpt lat="52.349467277525335" lon="13.379523754119484">
<time>2011-04-09T17:59:46.000+02:00</time>
<speed>3.3333333</speed>
<course>133.0</course>
<ele>83.0</ele>
</trkpt>
<trkpt lat="52.349445819853216" lon="13.379566669463722">
<time>2011-04-09T17:59:47.000+02:00</time>
<speed>3.0555556</speed>
<course>130.0</course>
<ele>83.0</ele>
</trkpt>
<trkpt lat="52.349435091017156" lon="13.37960958480796">
<time>2011-04-09T17:59:48.000+02:00</time>
<speed>2.7777777</speed>
<course>126.0</course>
<ele>83.0</ele>
</trkpt>
<trkpt lat="52.3494243621811" lon="13.379652500152199">
<time>2011-04-09T17:59:49.000+02:00</time>
<speed>2.7777777</speed>
<course>125.0</course>
<ele>82.0</ele>
</trkpt>
<trkpt lat="52.34941363334504" lon="13.379673957824318">
<time>2011-04-09T17:59:50.000+02:00</time>
<speed>3.0555556</speed>
<course>125.0</course>
<ele>82.0</ele>
</trkpt>
<trkpt lat="52.34940290450898" lon="13.379716873168556">
<time>2011-04-09T17:59:51.000+02:00</time>
<speed>2.5</speed>
<course>125.0</course>
<ele>82.0</ele>
</trkpt>
<trkpt lat="52.34939217567292" lon="13.379759788512795">
<time>2011-04-09T17:59:52.000+02:00</time>
<speed>2.5</speed>
<course>123.0</course>
<ele>82.0</ele>
</trkpt>
<trkpt lat="52.34938144683686" lon="13.379781246184914">
<time>2011-04-09T17:59:53.000+02:00</time>
<speed>2.5</speed>
<course>121.0</course>
<ele>82.0</ele>
</trkpt>
<trkpt lat="52.34935998916474" lon="13.379845619201271">
<time>2011-04-09T17:59:55.000+02:00</time>
<speed>2.5</speed>
<course>119.0</course>
<ele>82.0</ele>
</trkpt>
<trkpt lat="52.34935998916474" lon="13.37988853454551">
<time>2011-04-09T17:59:56.000+02:00</time>
<speed>2.2222223</speed>
<course>117.0</course>
<ele>82.0</ele>
</trkpt>
<trkpt lat="52.34934926032868" lon="13.379909992217629">
<time>2011-04-09T17:59:57.000+02:00</time>
<speed>1.9444444</speed>
<course>118.0</course>
<ele>82.0</ele>
</trkpt>
<trkpt lat="52.34933853149262" lon="13.379931449889748">
<time>2011-04-09T17:59:58.000+02:00</time>
<speed>1.9444444</speed>
<course>114.0</course>
<ele>82.0</ele>
</trkpt>
<trkpt lat="52.34932780265656" lon="13.379974365233986">
<time>2011-04-09T17:59:59.000+02:00</time>
<speed>2.5</speed>
<course>113.0</course>
<ele>81.0</ele>
</trkpt>
<trkpt lat="52.3493170738205" lon="13.380017280578224">
<time>2011-04-09T18:00:00.000+02:00</time>
<speed>2.5</speed>
<course>112.0</course>
<ele>81.0</ele>
</trkpt>
<trkpt lat="52.34930634498444" lon="13.380060195922463">
<time>2011-04-09T18:00:01.000+02:00</time>
<speed>2.2222223</speed>
<course>111.0</course>
<ele>81.0</ele>
</trkpt>
<trkpt lat="52.34930634498444" lon="13.3801031112667">
<time>2011-04-09T18:00:02.000+02:00</time>
<speed>2.2222223</speed>
<course>106.0</course>
<ele>81.0</ele>
</trkpt>
<trkpt lat="52.34930634498444" lon="13.38012456893882">
<time>2011-04-09T18:00:03.000+02:00</time>
<speed>2.2222223</speed>
<course>96.0</course>
<ele>81.0</ele>
</trkpt>
<trkpt lat="52.34930634498444" lon="13.380167484283058">
<time>2011-04-09T18:00:04.000+02:00</time>
<speed>2.2222223</speed>
<course>89.0</course>
<ele>81.0</ele>
</trkpt>
<trkpt lat="52.34930634498444" lon="13.380210399627297">
<time>2011-04-09T18:00:05.000+02:00</time>
<speed>1.9444444</speed>
<course>81.0</course>
<ele>81.0</ele>
</trkpt>
<trkpt lat="52.3493170738205" lon="13.380231857299416">
<time>2011-04-09T18:00:06.000+02:00</time>
<speed>1.9444444</speed>
<course>73.0</course>
<ele>81.0</ele>
</trkpt>
<trkpt lat="52.3493170738205" lon="13.380253314971535">
<time>2011-04-09T18:00:07.000+02:00</time>
<speed>1.9444444</speed>
<course>64.0</course>
<ele>80.0</ele>
</trkpt>
<trkpt lat="52.34933853149262" lon="13.380274772643654">
<time>2011-04-09T18:00:08.000+02:00</time>
<speed>2.2222223</speed>
<course>54.0</course>
<ele>80.0</ele>
</trkpt>
<trkpt lat="52.34934926032868" lon="13.380317687987892">
<time>2011-04-09T18:00:09.000+02:00</time>
<speed>2.2222223</speed>
<course>49.0</course>
<ele>80.0</ele>
</trkpt>
<trkpt lat="52.34935998916474" lon="13.380339145660011">
<time>2011-04-09T18:00:10.000+02:00</time>
<speed>2.2222223</speed>
<course>45.0</course>
<ele>80.0</ele>
</trkpt>
<trkpt lat="52.34938144683686" lon="13.38036060333213">
<time>2011-04-09T18:00:11.000+02:00</time>
<speed>2.5</speed>
<course>43.0</course>
<ele>80.0</ele>
</trkpt>
<trkpt lat="52.34940290450898" lon="13.380403518676369">
<time>2011-04-09T18:00:12.000+02:00</time>
<speed>2.5</speed>
<course>39.0</course>
<ele>80.0</ele>
</trkpt>
<trkpt lat="52.3494243621811" lon="13.380424976348488">
<time>2011-04-09T18:00:13.000+02:00</time>
<speed>2.7777777</speed>
<course>40.0</course>
<ele>80.0</ele>
</trkpt>
<trkpt lat="52.349445819853216" lon="13.380467891692726">
<time>2011-04-09T18:00:14.000+02:00</time>
<speed>2.7777777</speed>
<course>41.0</course>
<ele>80.0</ele>
</trkpt>
<trkpt lat="52.349467277525335" lon="13.380510807036964">
<time>2011-04-09T18:00:15.000+02:00</time>
<speed>3.0555556</speed>
<course>42.0</course>
<ele>79.0</ele>
</trkpt>
<trkpt lat="52.349478006361394" lon="13.380575180053322">
<time>2011-04-09T18:00:16.000+02:00</time>
<speed>3.0555556</speed>
<course>45.0</course>
<ele>79.0</ele>
</trkpt>
<trkpt lat="52.349499464033514" lon="13.38061809539756">
<time>2011-04-09T18:00:17.000+02:00</time>
<speed>3.0555556</speed>
<course>47.0</course>
<ele>79.0</ele>
</trkpt>
<trkpt lat="52.34952092170563" lon="13.380661010741798">
<time>2011-04-09T18:00:18.000+02:00</time>
<speed>2.7777777</speed>
<course>50.0</course>
<ele>79.0</ele>
</trkpt>
<trkpt lat="52.34954237937775" lon="13.380703926086037">
<time>2011-04-09T18:00:19.000+02:00</time>
<speed>2.5</speed>
<course>56.0</course>
<ele>79.0</ele>
</trkpt>
<trkpt lat="52.34956383704987" lon="13.380768299102394">
<time>2011-04-09T18:00:20.000+02:00</time>
<speed>2.5</speed>
<course>63.0</course>
<ele>79.0</ele>
</trkpt>
<trkpt lat="52.34957456588593" lon="13.380811214446632">
<time>2011-04-09T18:00:21.000+02:00</time>
<speed>2.5</speed>
<course>62.0</course>
<ele>79.0</ele>
</trkpt>
<trkpt lat="52.34958529472199" lon="13.38085412979087">
<time>2011-04-09T18:00:22.000+02:00</time>
<speed>2.2222223</speed>
<course>61.0</course>
<ele>79.0</ele>
</trkpt>
<trkpt lat="52.34959602355805" lon="13.380897045135109">
<time>2011-04-09T18:00:23.000+02:00</time>
<speed>2.2222223</speed>
<course>63.0</course>
<ele>79.0</ele>
</trkpt>
<trkpt lat="52.34959602355805" lon="13.380918502807228">
<time>2011-04-09T18:00:24.000+02:00</time>
<speed>2.2222223</speed>
<course>66.0</course>
<ele>79.0</ele>
</trkpt>
<trkpt lat="52.34960675239411" lon="13.380939960479347">
<time>2011-04-09T18:00:25.000+02:00</time>
<speed>2.2222223</speed>
<course>65.0</course>
<ele>79.0</ele>
</trkpt>
<trkpt lat="52.34961748123017" lon="13.380982875823586">
<time>2011-04-09T18:00:26.000+02:00</time>
<speed>2.2222223</speed>
<course>65.0</course>
<ele>79.0</ele>
</trkpt>
<trkpt lat="52.34961748123017" lon="13.381004333495705">
<time>2011-04-09T18:00:27.000+02:00</time>
<speed>2.2222223</speed>
<course>66.0</course>
<ele>79.0</ele>
</trkpt>
<trkpt lat="52.34962821006623" lon="13.381047248839943">
<time>2011-04-09T18:00:28.000+02:00</time>
<speed>2.2222223</speed>
<course>65.0</course>
<ele>79.0</ele>
</trkpt>
<trkpt lat="52.34963893890229" lon="13.381068706512062">
<time>2011-04-09T18:00:29.000+02:00</time>
<speed>1.9444444</speed>
<course>65.0</course>
<ele>79.0</ele>
</trkpt>
<trkpt lat="52.34963893890229" lon="13.3811116218563">
<time>2011-04-09T18:00:30.000+02:00</time>
<speed>1.9444444</speed>
<course>66.0</course>
<ele>79.0</ele>
</trkpt>
<trkpt lat="52.34964966773835" lon="13.38113307952842">
<time>2011-04-09T18:00:31.000+02:00</time>
<speed>1.9444444</speed>
<course>67.0</course>
<ele>79.0</ele>
</trkpt>
<trkpt lat="52.34964966773835" lon="13.381175994872658">
<time>2011-04-09T18:00:32.000+02:00</time>
<speed>1.9444444</speed>
<course>66.0</course>
<ele>79.0</ele>
</trkpt>
<trkpt lat="52.34966039657441" lon="13.381197452544777">
<time>2011-04-09T18:00:33.000+02:00</time>
<speed>1.9444444</speed>
<course>65.0</course>
<ele>79.0</ele>
</trkpt>
<trkpt lat="52.34966039657441" lon="13.381240367889015">
<time>2011-04-09T18:00:34.000+02:00</time>
<speed>1.9444444</speed>
<course>65.0</course>
<ele>79.0</ele>
</trkpt>
<trkpt lat="52.34967112541047" lon="13.381261825561134">
<time>2011-04-09T18:00:35.000+02:00</time>
<speed>1.9444444</speed>
<course>65.0</course>
<ele>79.0</ele>
</trkpt>
<trkpt lat="52.349681854246526" lon="13.381283283233254">
<time>2011-04-09T18:00:36.000+02:00</time>
<speed>1.9444444</speed>
<course>65.0</course>
<ele>79.0</ele>
</trkpt>
<trkpt lat="52.349681854246526" lon="13.381304740905373">
<time>2011-04-09T18:00:37.000+02:00</time>
<speed>1.9444444</speed>
<course>58.0</course>
<ele>79.0</ele>
</trkpt>
<trkpt lat="52.349692583082586" lon="13.381326198577492">
<time>2011-04-09T18:00:38.000+02:00</time>
<speed>1.9444444</speed>
<course>57.0</course>
<ele>79.0</ele>
</trkpt>
<trkpt lat="52.349703311918645" lon="13.38136911392173">
<time>2011-04-09T18:00:39.000+02:00</time>
<speed>1.9444444</speed>
<course>52.0</course>
<ele>78.0</ele>
</trkpt>
<trkpt lat="52.349714040754705" lon="13.38136911392173">
<time>2011-04-09T18:00:40.000+02:00</time>
<speed>1.6666666</speed>
<course>47.0</course>
<ele>78.0</ele>
</trkpt>
<trkpt lat="52.349724769590765" lon="13.38139057159385">
<time>2011-04-09T18:00:41.000+02:00</time>
<speed>1.3888888</speed>
<course>41.0</course>
<ele>78.0</ele>
</trkpt>
<trkpt lat="52.349735498426824" lon="13.381412029265968">
<time>2011-04-09T18:00:42.000+02:00</time>
<speed>0.0</speed>
<course>41.0</course>
<ele>78.0</ele>
</trkpt>
<trkpt lat="52.349735498426824" lon="13.381412029265968">
<time>2011-04-09T18:00:43.000+02:00</time>
<speed>0.0</speed>
<course>41.0</course>
<ele>78.0</ele>
</trkpt>
<trkpt lat="52.349746227262884" lon="13.381412029265968">
<time>2011-04-09T18:00:44.000+02:00</time>
<speed>0.0</speed>
<course>41.0</course>
<ele>78.0</ele>
</trkpt>
<trkpt lat="52.349746227262884" lon="13.381412029265968">
<time>2011-04-09T18:00:45.000+02:00</time>
<speed>0.0</speed>
<course>41.0</course>
<ele>78.0</ele>
</trkpt>
<trkpt lat="52.34975695609894" lon="13.381433486938088">
<time>2011-04-09T18:00:46.000+02:00</time>
<speed>0.0</speed>
<course>41.0</course>
<ele>78.0</ele>
</trkpt>
<trkpt lat="52.34975695609894" lon="13.381433486938088">
<time>2011-04-09T18:00:47.000+02:00</time>
<speed>0.0</speed>
<course>41.0</course>
<ele>78.0</ele>
</trkpt>
<trkpt lat="52.34975695609894" lon="13.381433486938088">
<time>2011-04-09T18:00:48.000+02:00</time>
<speed>0.0</speed>
<course>41.0</course>
<ele>78.0</ele>
</trkpt>
<trkpt lat="52.349767684935" lon="13.381433486938088">
<time>2011-04-09T18:00:49.000+02:00</time>
<speed>0.0</speed>
<course>41.0</course>
<ele>78.0</ele>
</trkpt>
<trkpt lat="52.349767684935" lon="13.381433486938088">
<time>2011-04-09T18:00:51.000+02:00</time>
<speed>0.0</speed>
<course>41.0</course>
<ele>78.0</ele>
</trkpt>
<trkpt lat="52.34977841377106" lon="13.381433486938088">
<time>2011-04-09T18:00:52.000+02:00</time>
<speed>0.0</speed>
<course>41.0</course>
<ele>78.0</ele>
</trkpt>
<trkpt lat="52.34977841377106" lon="13.381433486938088">
<time>2011-04-09T18:00:53.000+02:00</time>
<speed>0.0</speed>
<course>41.0</course>
<ele>78.0</ele>
</trkpt>
<trkpt lat="52.34977841377106" lon="13.381433486938088">
<time>2011-04-09T18:00:54.000+02:00</time>
<speed>0.0</speed>
<course>41.0</course>
<ele>78.0</ele>
</trkpt>
<trkpt lat="52.34977841377106" lon="13.381433486938088">
<time>2011-04-09T18:00:55.000+02:00</time>
<speed>0.0</speed>
<course>41.0</course>
<ele>78.0</ele>
</trkpt>
<trkpt lat="52.34977841377106" lon="13.381433486938088">
<time>2011-04-09T18:00:56.000+02:00</time>
<speed>0.0</speed>
<course>41.0</course>
<ele>78.0</ele>
</trkpt>
<trkpt lat="52.34977841377106" lon="13.381433486938088">
<time>2011-04-09T18:00:57.000+02:00</time>
<speed>0.0</speed>
<course>41.0</course>
<ele>79.0</ele>
</trkpt>
<trkpt lat="52.34977841377106" lon="13.381433486938088">
<time>2011-04-09T18:00:58.000+02:00</time>
<speed>0.0</speed>
<course>41.0</course>
<ele>79.0</ele>
</trkpt>
<trkpt lat="52.34977841377106" lon="13.381433486938088">
<time>2011-04-09T18:00:59.000+02:00</time>
<speed>0.0</speed>
<course>41.0</course>
<ele>79.0</ele>
</trkpt>
<trkpt lat="52.34977841377106" lon="13.381433486938088">
<time>2011-04-09T18:01:00.000+02:00</time>
<speed>0.0</speed>
<course>41.0</course>
<ele>79.0</ele>
</trkpt>
<trkpt lat="52.34977841377106" lon="13.381433486938088">
<time>2011-04-09T18:01:01.000+02:00</time>
<speed>0.0</speed>
<course>41.0</course>
<ele>79.0</ele>
</trkpt>
<trkpt lat="52.34977841377106" lon="13.381433486938088">
<time>2011-04-09T18:01:02.000+02:00</time>
<speed>0.0</speed>
<course>41.0</course>
<ele>79.0</ele>
</trkpt>
<trkpt lat="52.34977841377106" lon="13.381433486938088">
<time>2011-04-09T18:01:03.000+02:00</time>
<speed>0.0</speed>
<course>41.0</course>
<ele>79.0</ele>
</trkpt>
<trkpt lat="52.34977841377106" lon="13.381412029265968">
<time>2011-04-09T18:01:04.000+02:00</time>
<speed>0.0</speed>
<course>41.0</course>
<ele>79.0</ele>
</trkpt>
<trkpt lat="52.34977841377106" lon="13.381412029265968">
<time>2011-04-09T18:01:05.000+02:00</time>
<speed>0.0</speed>
<course>41.0</course>
<ele>79.0</ele>
</trkpt>
<trkpt lat="52.34977841377106" lon="13.381412029265968">
<time>2011-04-09T18:01:06.000+02:00</time>
<speed>0.0</speed>
<course>41.0</course>
<ele>79.0</ele>
</trkpt>
<trkpt lat="52.34977841377106" lon="13.381412029265968">
<time>2011-04-09T18:01:07.000+02:00</time>
<speed>0.0</speed>
<course>41.0</course>
<ele>79.0</ele>
</trkpt>
<trkpt lat="52.34977841377106" lon="13.381412029265968">
<time>2011-04-09T18:01:08.000+02:00</time>
<speed>0.0</speed>
<course>41.0</course>
<ele>79.0</ele>
</trkpt>
<trkpt lat="52.34977841377106" lon="13.381412029265968">
<time>2011-04-09T18:01:09.000+02:00</time>
<speed>0.0</speed>
<course>41.0</course>
<ele>79.0</ele>
</trkpt>
<trkpt lat="52.34977841377106" lon="13.381412029265968">
<time>2011-04-09T18:01:10.000+02:00</time>
<speed>0.0</speed>
<course>41.0</course>
<ele>79.0</ele>
</trkpt>
<trkpt lat="52.34977841377106" lon="13.381412029265968">
<time>2011-04-09T18:01:11.000+02:00</time>
<speed>0.0</speed>
<course>41.0</course>
<ele>79.0</ele>
</trkpt>
<trkpt lat="52.34977841377106" lon="13.381412029265968">
<time>2011-04-09T18:01:12.000+02:00</time>
<speed>0.0</speed>
<course>41.0</course>
<ele>79.0</ele>
</trkpt>
<trkpt lat="52.34977841377106" lon="13.381433486938088">
<time>2011-04-09T18:01:13.000+02:00</time>
<speed>0.0</speed>
<course>41.0</course>
<ele>79.0</ele>
</trkpt>
<trkpt lat="52.34977841377106" lon="13.381433486938088">
<time>2011-04-09T18:01:14.000+02:00</time>
<speed>0.0</speed>
<course>41.0</course>
<ele>79.0</ele>
</trkpt>
<trkpt lat="52.34977841377106" lon="13.381433486938088">
<time>2011-04-09T18:01:15.000+02:00</time>
<speed>0.0</speed>
<course>41.0</course>
<ele>79.0</ele>
</trkpt>
<trkpt lat="52.34977841377106" lon="13.381433486938088">
<time>2011-04-09T18:01:16.000+02:00</time>
<speed>0.0</speed>
<course>41.0</course>
<ele>79.0</ele>
</trkpt>
<trkpt lat="52.34978914260712" lon="13.381433486938088">
<time>2011-04-09T18:01:17.000+02:00</time>
<speed>0.0</speed>
<course>41.0</course>
<ele>79.0</ele>
</trkpt>
<trkpt lat="52.34978914260712" lon="13.381433486938088">
<time>2011-04-09T18:01:18.000+02:00</time>
<speed>0.0</speed>
<course>41.0</course>
<ele>79.0</ele>
</trkpt>
<trkpt lat="52.34978914260712" lon="13.381454944610207">
<time>2011-04-09T18:01:19.000+02:00</time>
<speed>0.0</speed>
<course>41.0</course>
<ele>79.0</ele>
</trkpt>
<trkpt lat="52.34978914260712" lon="13.381454944610207">
<time>2011-04-09T18:01:20.000+02:00</time>
<speed>0.0</speed>
<course>41.0</course>
<ele>79.0</ele>
</trkpt>
<trkpt lat="52.34978914260712" lon="13.381454944610207">
<time>2011-04-09T18:01:21.000+02:00</time>
<speed>0.0</speed>
<course>41.0</course>
<ele>79.0</ele>
</trkpt>
<trkpt lat="52.34978914260712" lon="13.381454944610207">
<time>2011-04-09T18:01:22.000+02:00</time>
<speed>0.0</speed>
<course>41.0</course>
<ele>79.0</ele>
</trkpt>
<trkpt lat="52.34979987144318" lon="13.381454944610207">
<time>2011-04-09T18:01:23.000+02:00</time>
<speed>0.0</speed>
<course>41.0</course>
<ele>79.0</ele>
</trkpt>
<trkpt lat="52.34979987144318" lon="13.381454944610207">
<time>2011-04-09T18:01:24.000+02:00</time>
<speed>0.0</speed>
<course>41.0</course>
<ele>79.0</ele>
</trkpt>
<trkpt lat="52.34979987144318" lon="13.381476402282326">
<time>2011-04-09T18:01:25.000+02:00</time>
<speed>0.0</speed>
<course>41.0</course>
<ele>79.0</ele>
</trkpt>
<trkpt lat="52.34979987144318" lon="13.381476402282326">
<time>2011-04-09T18:01:26.000+02:00</time>
<speed>0.0</speed>
<course>41.0</course>
<ele>79.0</ele>
</trkpt>
<trkpt lat="52.34979987144318" lon="13.381476402282326">
<time>2011-04-09T18:01:27.000+02:00</time>
<speed>0.0</speed>
<course>41.0</course>
<ele>79.0</ele>
</trkpt>
<trkpt lat="52.34979987144318" lon="13.381476402282326">
<time>2011-04-09T18:01:28.000+02:00</time>
<speed>0.0</speed>
<course>41.0</course>
<ele>79.0</ele>
</trkpt>
<trkpt lat="52.34981060027924" lon="13.381476402282326">
<time>2011-04-09T18:01:29.000+02:00</time>
<speed>0.0</speed>
<course>41.0</course>
<ele>79.0</ele>
</trkpt>
<trkpt lat="52.34981060027924" lon="13.381476402282326">
<time>2011-04-09T18:01:30.000+02:00</time>
<speed>0.0</speed>
<course>41.0</course>
<ele>79.0</ele>
</trkpt>
<trkpt lat="52.34981060027924" lon="13.381476402282326">
<time>2011-04-09T18:01:31.000+02:00</time>
<speed>0.0</speed>
<course>41.0</course>
<ele>79.0</ele>
</trkpt>
<trkpt lat="52.34981060027924" lon="13.381476402282326">
<time>2011-04-09T18:01:32.000+02:00</time>
<speed>0.0</speed>
<course>41.0</course>
<ele>79.0</ele>
</trkpt>
<trkpt lat="52.34979987144318" lon="13.381476402282326">
<time>2011-04-09T18:01:33.000+02:00</time>
<speed>0.0</speed>
<course>41.0</course>
<ele>79.0</ele>
</trkpt>
<trkpt lat="52.34979987144318" lon="13.381476402282326">
<time>2011-04-09T18:01:34.000+02:00</time>
<speed>0.0</speed>
<course>41.0</course>
<ele>79.0</ele>
</trkpt>
<trkpt lat="52.34979987144318" lon="13.381476402282326">
<time>2011-04-09T18:01:35.000+02:00</time>
<speed>0.0</speed>
<course>41.0</course>
<ele>79.0</ele>
</trkpt>
<trkpt lat="52.34978914260712" lon="13.381497859954445">
<time>2011-04-09T18:01:36.000+02:00</time>
<speed>0.0</speed>
<course>41.0</course>
<ele>79.0</ele>
</trkpt>
<trkpt lat="52.34978914260712" lon="13.381497859954445">
<time>2011-04-09T18:01:37.000+02:00</time>
<speed>0.0</speed>
<course>41.0</course>
<ele>79.0</ele>
</trkpt>
<trkpt lat="52.34977841377106" lon="13.381497859954445">
<time>2011-04-09T18:01:38.000+02:00</time>
<speed>0.0</speed>
<course>41.0</course>
<ele>79.0</ele>
</trkpt>
<trkpt lat="52.34977841377106" lon="13.381519317626564">
<time>2011-04-09T18:01:39.000+02:00</time>
<speed>1.3888888</speed>
<course>111.0</course>
<ele>79.0</ele>
</trkpt>
<trkpt lat="52.34977841377106" lon="13.381540775298683">
<time>2011-04-09T18:01:40.000+02:00</time>
<speed>0.8333333</speed>
<course>120.0</course>
<ele>79.0</ele>
</trkpt>
<trkpt lat="52.34978914260712" lon="13.381562232970802">
<time>2011-04-09T18:01:41.000+02:00</time>
<speed>1.9444444</speed>
<course>94.0</course>
<ele>79.0</ele>
</trkpt>
<trkpt lat="52.34978914260712" lon="13.381583690642922">
<time>2011-04-09T18:01:42.000+02:00</time>
<speed>1.3888888</speed>
<course>102.0</course>
<ele>79.0</ele>
</trkpt>
<trkpt lat="52.34981060027924" lon="13.38160514831504">
<time>2011-04-09T18:01:43.000+02:00</time>
<speed>2.7777777</speed>
<course>78.0</course>
<ele>79.0</ele>
</trkpt>
<trkpt lat="52.3498213291153" lon="13.381648063659279">
<time>2011-04-09T18:01:44.000+02:00</time>
<speed>1.9444444</speed>
<course>87.0</course>
<ele>79.0</ele>
</trkpt>
<trkpt lat="52.34985351562348" lon="13.381669521331398">
<time>2011-04-09T18:01:45.000+02:00</time>
<speed>3.6111112</speed>
<course>60.0</course>
<ele>79.0</ele>
</trkpt>
<trkpt lat="52.34988570213166" lon="13.381690979003517">
<time>2011-04-09T18:01:46.000+02:00</time>
<speed>3.6111112</speed>
<course>47.0</course>
<ele>79.0</ele>
</trkpt>
<trkpt lat="52.34991788863984" lon="13.381712436675636">
<time>2011-04-09T18:01:47.000+02:00</time>
<speed>3.8888888</speed>
<course>38.0</course>
<ele>79.0</ele>
</trkpt>
<trkpt lat="52.349960803984075" lon="13.381712436675636">
<time>2011-04-09T18:01:48.000+02:00</time>
<speed>4.1666665</speed>
<course>33.0</course>
<ele>79.0</ele>
</trkpt>
<trkpt lat="52.35000371932831" lon="13.381733894347756">
<time>2011-04-09T18:01:49.000+02:00</time>
<speed>4.7222223</speed>
<course>29.0</course>
<ele>80.0</ele>
</trkpt>
<trkpt lat="52.35004663467255" lon="13.381755352019875">
<time>2011-04-09T18:01:50.000+02:00</time>
<speed>5.0</speed>
<course>26.0</course>
<ele>81.0</ele>
</trkpt>
<trkpt lat="52.35013246536103" lon="13.381776809691994">
<time>2011-04-09T18:01:51.000+02:00</time>
<speed>5.2777777</speed>
<course>23.0</course>
<ele>82.0</ele>
</trkpt>
<trkpt lat="52.350186109541326" lon="13.381798267364113">
<time>2011-04-09T18:01:52.000+02:00</time>
<speed>5.2777777</speed>
<course>22.0</course>
<ele>82.0</ele>
</trkpt>
<trkpt lat="52.350229024885564" lon="13.381819725036232">
<time>2011-04-09T18:01:53.000+02:00</time>
<speed>5.2777777</speed>
<course>20.0</course>
<ele>83.0</ele>
</trkpt>
<trkpt lat="52.35028266906586" lon="13.381841182708351">
<time>2011-04-09T18:01:54.000+02:00</time>
<speed>5.5555553</speed>
<course>19.0</course>
<ele>83.0</ele>
</trkpt>
<trkpt lat="52.35033631324616" lon="13.38186264038047">
<time>2011-04-09T18:01:55.000+02:00</time>
<speed>5.5555553</speed>
<course>19.0</course>
<ele>83.0</ele>
</trkpt>
<trkpt lat="52.350432872770696" lon="13.381905555724709">
<time>2011-04-09T18:01:57.000+02:00</time>
<speed>5.8333335</speed>
<course>17.0</course>
<ele>84.0</ele>
</trkpt>
<trkpt lat="52.350486516950994" lon="13.381927013396828">
<time>2011-04-09T18:01:58.000+02:00</time>
<speed>6.111111</speed>
<course>17.0</course>
<ele>84.0</ele>
</trkpt>
<trkpt lat="52.35054016113129" lon="13.381948471068947">
<time>2011-04-09T18:01:59.000+02:00</time>
<speed>6.111111</speed>
<course>16.0</course>
<ele>84.0</ele>
</trkpt>
<trkpt lat="52.35059380531159" lon="13.381969928741066">
<time>2011-04-09T18:02:00.000+02:00</time>
<speed>6.111111</speed>
<course>17.0</course>
<ele>84.0</ele>
</trkpt>
<trkpt lat="52.35064744949189" lon="13.381991386413185">
<time>2011-04-09T18:02:01.000+02:00</time>
<speed>5.8333335</speed>
<course>17.0</course>
<ele>84.0</ele>
</trkpt>
<trkpt lat="52.350701093672185" lon="13.382012844085304">
<time>2011-04-09T18:02:02.000+02:00</time>
<speed>5.5555553</speed>
<course>18.0</course>
<ele>84.0</ele>
</trkpt>
<trkpt lat="52.350744009016424" lon="13.382034301757423">
<time>2011-04-09T18:02:03.000+02:00</time>
<speed>5.2777777</speed>
<course>18.0</course>
<ele>84.0</ele>
</trkpt>
<trkpt lat="52.35078692436066" lon="13.382055759429543">
<time>2011-04-09T18:02:04.000+02:00</time>
<speed>5.2777777</speed>
<course>18.0</course>
<ele>84.0</ele>
</trkpt>
<trkpt lat="52.35084056854096" lon="13.382077217101662">
<time>2011-04-09T18:02:05.000+02:00</time>
<speed>5.2777777</speed>
<course>17.0</course>
<ele>84.0</ele>
</trkpt>
<trkpt lat="52.3508834838852" lon="13.382098674773781">
<time>2011-04-09T18:02:06.000+02:00</time>
<speed>5.0</speed>
<course>16.0</course>
<ele>84.0</ele>
</trkpt>
<trkpt lat="52.35092639922944" lon="13.3821201324459">
<time>2011-04-09T18:02:07.000+02:00</time>
<speed>4.7222223</speed>
<course>15.0</course>
<ele>84.0</ele>
</trkpt>
<trkpt lat="52.350958585737615" lon="13.38214159011802">
<time>2011-04-09T18:02:08.000+02:00</time>
<speed>4.1666665</speed>
<course>14.0</course>
<ele>84.0</ele>
</trkpt>
<trkpt lat="52.350990772245794" lon="13.38214159011802">
<time>2011-04-09T18:02:09.000+02:00</time>
<speed>3.6111112</speed>
<course>15.0</course>
<ele>84.0</ele>
</trkpt>
<trkpt lat="52.35102295875397" lon="13.382163047790138">
<time>2011-04-09T18:02:10.000+02:00</time>
<speed>2.7777777</speed>
<course>16.0</course>
<ele>84.0</ele>
</trkpt>
<trkpt lat="52.35102295875397" lon="13.382163047790138">
<time>2011-04-09T18:02:11.000+02:00</time>
<speed>0.0</speed>
<course>16.0</course>
<ele>84.0</ele>
</trkpt>
<trkpt lat="52.35102295875397" lon="13.382163047790138">
<time>2011-04-09T18:02:12.000+02:00</time>
<speed>0.0</speed>
<course>16.0</course>
<ele>84.0</ele>
</trkpt>
<trkpt lat="52.35102295875397" lon="13.382163047790138">
<time>2011-04-09T18:02:13.000+02:00</time>
<speed>0.0</speed>
<course>16.0</course>
<ele>84.0</ele>
</trkpt>
<trkpt lat="52.35102295875397" lon="13.382163047790138">
<time>2011-04-09T18:02:14.000+02:00</time>
<speed>0.0</speed>
<course>16.0</course>
<ele>84.0</ele>
</trkpt>
<trkpt lat="52.35102295875397" lon="13.382163047790138">
<time>2011-04-09T18:02:15.000+02:00</time>
<speed>0.0</speed>
<course>16.0</course>
<ele>84.0</ele>
</trkpt>
<trkpt lat="52.35102295875397" lon="13.382163047790138">
<time>2011-04-09T18:02:16.000+02:00</time>
<speed>0.0</speed>
<course>16.0</course>
<ele>84.0</ele>
</trkpt>
<trkpt lat="52.35102295875397" lon="13.382163047790138">
<time>2011-04-09T18:02:17.000+02:00</time>
<speed>0.0</speed>
<course>16.0</course>
<ele>84.0</ele>
</trkpt>
<trkpt lat="52.35102295875397" lon="13.382163047790138">
<time>2011-04-09T18:02:18.000+02:00</time>
<speed>0.0</speed>
<course>16.0</course>
<ele>84.0</ele>
</trkpt>
<trkpt lat="52.35102295875397" lon="13.382163047790138">
<time>2011-04-09T18:02:19.000+02:00</time>
<speed>0.0</speed>
<course>16.0</course>
<ele>84.0</ele>
</trkpt>
<trkpt lat="52.35102295875397" lon="13.382163047790138">
<time>2011-04-09T18:02:20.000+02:00</time>
<speed>0.0</speed>
<course>16.0</course>
<ele>84.0</ele>
</trkpt>
<trkpt lat="52.35102295875397" lon="13.382163047790138">
<time>2011-04-09T18:02:21.000+02:00</time>
<speed>0.0</speed>
<course>16.0</course>
<ele>84.0</ele>
</trkpt>
<trkpt lat="52.35102295875397" lon="13.382163047790138">
<time>2011-04-09T18:02:22.000+02:00</time>
<speed>0.0</speed>
<course>16.0</course>
<ele>84.0</ele>
</trkpt>
<trkpt lat="52.35102295875397" lon="13.382163047790138">
<time>2011-04-09T18:02:23.000+02:00</time>
<speed>0.0</speed>
<course>16.0</course>
<ele>84.0</ele>
</trkpt>
<trkpt lat="52.35102295875397" lon="13.382163047790138">
<time>2011-04-09T18:02:24.000+02:00</time>
<speed>0.0</speed>
<course>16.0</course>
<ele>84.0</ele>
</trkpt>
<trkpt lat="52.35102295875397" lon="13.382163047790138">
<time>2011-04-09T18:02:25.000+02:00</time>
<speed>0.0</speed>
<course>16.0</course>
<ele>84.0</ele>
</trkpt>
<trkpt lat="52.35102295875397" lon="13.382163047790138">
<time>2011-04-09T18:02:26.000+02:00</time>
<speed>0.0</speed>
<course>16.0</course>
<ele>84.0</ele>
</trkpt>
<trkpt lat="52.35102295875397" lon="13.382163047790138">
<time>2011-04-09T18:02:27.000+02:00</time>
<speed>0.0</speed>
<course>16.0</course>
<ele>84.0</ele>
</trkpt>
<trkpt lat="52.35102295875397" lon="13.382163047790138">
<time>2011-04-09T18:02:28.000+02:00</time>
<speed>0.0</speed>
<course>16.0</course>
<ele>84.0</ele>
</trkpt>
<trkpt lat="52.35102295875397" lon="13.382163047790138">
<time>2011-04-09T18:02:29.000+02:00</time>
<speed>0.0</speed>
<course>16.0</course>
<ele>84.0</ele>
</trkpt>
<trkpt lat="52.35102295875397" lon="13.382163047790138">
<time>2011-04-09T18:02:30.000+02:00</time>
<speed>0.0</speed>
<course>16.0</course>
<ele>84.0</ele>
</trkpt>
<trkpt lat="52.35102295875397" lon="13.382163047790138">
<time>2011-04-09T18:02:31.000+02:00</time>
<speed>0.0</speed>
<course>16.0</course>
<ele>84.0</ele>
</trkpt>
<trkpt lat="52.35102295875397" lon="13.382163047790138">
<time>2011-04-09T18:02:32.000+02:00</time>
<speed>0.0</speed>
<course>16.0</course>
<ele>84.0</ele>
</trkpt>
<trkpt lat="52.35102295875397" lon="13.382163047790138">
<time>2011-04-09T18:02:33.000+02:00</time>
<speed>0.0</speed>
<course>16.0</course>
<ele>84.0</ele>
</trkpt>
<trkpt lat="52.35102295875397" lon="13.382163047790138">
<time>2011-04-09T18:02:34.000+02:00</time>
<speed>0.0</speed>
<course>16.0</course>
<ele>84.0</ele>
</trkpt>
<trkpt lat="52.35102295875397" lon="13.382163047790138">
<time>2011-04-09T18:02:35.000+02:00</time>
<speed>0.0</speed>
<course>16.0</course>
<ele>84.0</ele>
</trkpt>
<trkpt lat="52.35102295875397" lon="13.382163047790138">
<time>2011-04-09T18:02:36.000+02:00</time>
<speed>0.0</speed>
<course>16.0</course>
<ele>84.0</ele>
</trkpt>
<trkpt lat="52.35102295875397" lon="13.382163047790138">
<time>2011-04-09T18:02:37.000+02:00</time>
<speed>0.0</speed>
<course>16.0</course>
<ele>84.0</ele>
</trkpt>
<trkpt lat="52.35102295875397" lon="13.382163047790138">
<time>2011-04-09T18:02:38.000+02:00</time>
<speed>0.0</speed>
<course>16.0</course>
<ele>84.0</ele>
</trkpt>
<trkpt lat="52.35102295875397" lon="13.382163047790138">
<time>2011-04-09T18:02:39.000+02:00</time>
<speed>0.0</speed>
<course>16.0</course>
<ele>84.0</ele>
</trkpt>
<trkpt lat="52.35102295875397" lon="13.382163047790138">
<time>2011-04-09T18:02:40.000+02:00</time>
<speed>0.0</speed>
<course>16.0</course>
<ele>84.0</ele>
</trkpt>
<trkpt lat="52.35102295875397" lon="13.382163047790138">
<time>2011-04-09T18:02:41.000+02:00</time>
<speed>0.0</speed>
<course>16.0</course>
<ele>84.0</ele>
</trkpt>
<trkpt lat="52.35102295875397" lon="13.382163047790138">
<time>2011-04-09T18:02:42.000+02:00</time>
<speed>0.0</speed>
<course>16.0</course>
<ele>84.0</ele>
</trkpt>
<trkpt lat="52.35102295875397" lon="13.382163047790138">
<time>2011-04-09T18:02:43.000+02:00</time>
<speed>0.0</speed>
<course>16.0</course>
<ele>84.0</ele>
</trkpt>
<trkpt lat="52.35102295875397" lon="13.382163047790138">
<time>2011-04-09T18:02:44.000+02:00</time>
<speed>0.0</speed>
<course>16.0</course>
<ele>84.0</ele>
</trkpt>
<trkpt lat="52.35102295875397" lon="13.382163047790138">
<time>2011-04-09T18:02:45.000+02:00</time>
<speed>0.0</speed>
<course>16.0</course>
<ele>84.0</ele>
</trkpt>
<trkpt lat="52.35102295875397" lon="13.382163047790138">
<time>2011-04-09T18:02:46.000+02:00</time>
<speed>0.0</speed>
<course>16.0</course>
<ele>84.0</ele>
</trkpt>
<trkpt lat="52.35102295875397" lon="13.382163047790138">
<time>2011-04-09T18:02:47.000+02:00</time>
<speed>0.0</speed>
<course>16.0</course>
<ele>84.0</ele>
</trkpt>
<trkpt lat="52.35102295875397" lon="13.382163047790138">
<time>2011-04-09T18:02:48.000+02:00</time>
<speed>0.0</speed>
<course>16.0</course>
<ele>84.0</ele>
</trkpt>
<trkpt lat="52.35102295875397" lon="13.382163047790138">
<time>2011-04-09T18:02:49.000+02:00</time>
<speed>0.0</speed>
<course>16.0</course>
<ele>84.0</ele>
</trkpt>
<trkpt lat="52.35102295875397" lon="13.382163047790138">
<time>2011-04-09T18:02:50.000+02:00</time>
<speed>0.0</speed>
<course>16.0</course>
<ele>84.0</ele>
</trkpt>
<trkpt lat="52.35102295875397" lon="13.382163047790138">
<time>2011-04-09T18:02:51.000+02:00</time>
<speed>0.0</speed>
<course>16.0</course>
<ele>84.0</ele>
</trkpt>
<trkpt lat="52.35102295875397" lon="13.382163047790138">
<time>2011-04-09T18:02:52.000+02:00</time>
<speed>0.0</speed>
<course>16.0</course>
<ele>84.0</ele>
</trkpt>
<trkpt lat="52.35102295875397" lon="13.382163047790138">
<time>2011-04-09T18:02:53.000+02:00</time>
<speed>0.0</speed>
<course>16.0</course>
<ele>84.0</ele>
</trkpt>
<trkpt lat="52.35102295875397" lon="13.382163047790138">
<time>2011-04-09T18:02:54.000+02:00</time>
<speed>0.0</speed>
<course>16.0</course>
<ele>84.0</ele>
</trkpt>
<trkpt lat="52.35102295875397" lon="13.382163047790138">
<time>2011-04-09T18:02:55.000+02:00</time>
<speed>0.0</speed>
<course>16.0</course>
<ele>84.0</ele>
</trkpt>
<trkpt lat="52.35102295875397" lon="13.382163047790138">
<time>2011-04-09T18:02:56.000+02:00</time>
<speed>0.0</speed>
<course>16.0</course>
<ele>84.0</ele>
</trkpt>
<trkpt lat="52.35102295875397" lon="13.382163047790138">
<time>2011-04-09T18:02:57.000+02:00</time>
<speed>0.0</speed>
<course>16.0</course>
<ele>84.0</ele>
</trkpt>
<trkpt lat="52.35102295875397" lon="13.382163047790138">
<time>2011-04-09T18:02:58.000+02:00</time>
<speed>0.0</speed>
<course>16.0</course>
<ele>84.0</ele>
</trkpt>
<trkpt lat="52.35102295875397" lon="13.382163047790138">
<time>2011-04-09T18:02:59.000+02:00</time>
<speed>0.0</speed>
<course>16.0</course>
<ele>84.0</ele>
</trkpt>
<trkpt lat="52.35102295875397" lon="13.382163047790138">
<time>2011-04-09T18:03:00.000+02:00</time>
<speed>0.0</speed>
<course>16.0</course>
<ele>84.0</ele>
</trkpt>
<trkpt lat="52.35102295875397" lon="13.382163047790138">
<time>2011-04-09T18:03:01.000+02:00</time>
<speed>0.0</speed>
<course>16.0</course>
<ele>84.0</ele>
</trkpt>
<trkpt lat="52.35102295875397" lon="13.382163047790138">
<time>2011-04-09T18:03:02.000+02:00</time>
<speed>0.0</speed>
<course>16.0</course>
<ele>84.0</ele>
</trkpt>
<trkpt lat="52.35102295875397" lon="13.382163047790138">
<time>2011-04-09T18:03:03.000+02:00</time>
<speed>0.0</speed>
<course>16.0</course>
<ele>84.0</ele>
</trkpt>
<trkpt lat="52.35102295875397" lon="13.382163047790138">
<time>2011-04-09T18:03:05.000+02:00</time>
<speed>0.0</speed>
<course>16.0</course>
<ele>84.0</ele>
</trkpt>
<trkpt lat="52.35102295875397" lon="13.382163047790138">
<time>2011-04-09T18:03:06.000+02:00</time>
<speed>0.0</speed>
<course>16.0</course>
<ele>84.0</ele>
</trkpt>
<trkpt lat="52.35102295875397" lon="13.382163047790138">
<time>2011-04-09T18:03:07.000+02:00</time>
<speed>0.0</speed>
<course>16.0</course>
<ele>84.0</ele>
</trkpt>
<trkpt lat="52.35102295875397" lon="13.382163047790138">
<time>2011-04-09T18:03:08.000+02:00</time>
<speed>0.0</speed>
<course>16.0</course>
<ele>84.0</ele>
</trkpt>
<trkpt lat="52.35102295875397" lon="13.382163047790138">
<time>2011-04-09T18:03:09.000+02:00</time>
<speed>0.0</speed>
<course>16.0</course>
<ele>84.0</ele>
</trkpt>
<trkpt lat="52.35102295875397" lon="13.382163047790138">
<time>2011-04-09T18:03:10.000+02:00</time>
<speed>0.0</speed>
<course>16.0</course>
<ele>84.0</ele>
</trkpt>
<trkpt lat="52.35102295875397" lon="13.382163047790138">
<time>2011-04-09T18:03:11.000+02:00</time>
<speed>0.0</speed>
<course>16.0</course>
<ele>84.0</ele>
</trkpt>
<trkpt lat="52.35102295875397" lon="13.382163047790138">
<time>2011-04-09T18:03:12.000+02:00</time>
<speed>0.0</speed>
<course>16.0</course>
<ele>84.0</ele>
</trkpt>
<trkpt lat="52.35102295875397" lon="13.382163047790138">
<time>2011-04-09T18:03:13.000+02:00</time>
<speed>0.0</speed>
<course>16.0</course>
<ele>84.0</ele>
</trkpt>
<trkpt lat="52.35102295875397" lon="13.382163047790138">
<time>2011-04-09T18:03:14.000+02:00</time>
<speed>0.0</speed>
<course>16.0</course>
<ele>84.0</ele>
</trkpt>
<trkpt lat="52.35107660293427" lon="13.382184505462257">
<time>2011-04-09T18:03:15.000+02:00</time>
<speed>1.1111112</speed>
<course>357.0</course>
<ele>83.0</ele>
</trkpt>
<trkpt lat="52.35107660293427" lon="13.382184505462257">
<time>2011-04-09T18:03:16.000+02:00</time>
<speed>0.0</speed>
<course>357.0</course>
<ele>83.0</ele>
</trkpt>
<trkpt lat="52.35109806060639" lon="13.382184505462257">
<time>2011-04-09T18:03:17.000+02:00</time>
<speed>1.1111112</speed>
<course>0.0</course>
<ele>83.0</ele>
</trkpt>
<trkpt lat="52.35111951827851" lon="13.382184505462257">
<time>2011-04-09T18:03:18.000+02:00</time>
<speed>1.9444444</speed>
<course>13.0</course>
<ele>83.0</ele>
</trkpt>
<trkpt lat="52.35114097595063" lon="13.382205963134377">
<time>2011-04-09T18:03:19.000+02:00</time>
<speed>2.5</speed>
<course>14.0</course>
<ele>83.0</ele>
</trkpt>
<trkpt lat="52.35116243362275" lon="13.382205963134377">
<time>2011-04-09T18:03:20.000+02:00</time>
<speed>2.7777777</speed>
<course>13.0</course>
<ele>83.0</ele>
</trkpt>
<trkpt lat="52.351194620130926" lon="13.382227420806496">
<time>2011-04-09T18:03:21.000+02:00</time>
<speed>3.0555556</speed>
<course>13.0</course>
<ele>83.0</ele>
</trkpt>
<trkpt lat="52.351226806639104" lon="13.382227420806496">
<time>2011-04-09T18:03:22.000+02:00</time>
<speed>3.3333333</speed>
<course>14.0</course>
<ele>83.0</ele>
</trkpt>
<trkpt lat="52.35125899314728" lon="13.382248878478615">
<time>2011-04-09T18:03:23.000+02:00</time>
<speed>3.3333333</speed>
<course>13.0</course>
<ele>83.0</ele>
</trkpt>
<trkpt lat="52.3512804508194" lon="13.382248878478615">
<time>2011-04-09T18:03:24.000+02:00</time>
<speed>3.3333333</speed>
<course>12.0</course>
<ele>84.0</ele>
</trkpt>
<trkpt lat="52.35131263732758" lon="13.382270336150734">
<time>2011-04-09T18:03:25.000+02:00</time>
<speed>3.0555556</speed>
<course>13.0</course>
<ele>84.0</ele>
</trkpt>
<trkpt lat="52.35134482383576" lon="13.382270336150734">
<time>2011-04-09T18:03:26.000+02:00</time>
<speed>3.0555556</speed>
<course>12.0</course>
<ele>84.0</ele>
</trkpt>
<trkpt lat="52.35136628150788" lon="13.382291793822853">
<time>2011-04-09T18:03:27.000+02:00</time>
<speed>2.7777777</speed>
<course>14.0</course>
<ele>84.0</ele>
</trkpt>
<trkpt lat="52.35138773918" lon="13.382291793822853">
<time>2011-04-09T18:03:28.000+02:00</time>
<speed>2.5</speed>
<course>12.0</course>
<ele>83.0</ele>
</trkpt>
<trkpt lat="52.35140919685212" lon="13.382313251494972">
<time>2011-04-09T18:03:29.000+02:00</time>
<speed>2.2222223</speed>
<course>13.0</course>
<ele>83.0</ele>
</trkpt>
<trkpt lat="52.351430654524236" lon="13.382313251494972">
<time>2011-04-09T18:03:30.000+02:00</time>
<speed>1.9444444</speed>
<course>16.0</course>
<ele>83.0</ele>
</trkpt>
<trkpt lat="52.351441383360296" lon="13.382313251494972">
<time>2011-04-09T18:03:31.000+02:00</time>
<speed>1.9444444</speed>
<course>16.0</course>
<ele>83.0</ele>
</trkpt>
<trkpt lat="52.351462841032415" lon="13.382334709167091">
<time>2011-04-09T18:03:32.000+02:00</time>
<speed>2.2222223</speed>
<course>16.0</course>
<ele>83.0</ele>
</trkpt>
<trkpt lat="52.351484298704534" lon="13.382334709167091">
<time>2011-04-09T18:03:33.000+02:00</time>
<speed>2.2222223</speed>
<course>15.0</course>
<ele>83.0</ele>
</trkpt>
<trkpt lat="52.35150575637665" lon="13.38235616683921">
<time>2011-04-09T18:03:34.000+02:00</time>
<speed>2.7777777</speed>
<course>14.0</course>
<ele>83.0</ele>
</trkpt>
<trkpt lat="52.35153794288483" lon="13.38235616683921">
<time>2011-04-09T18:03:35.000+02:00</time>
<speed>3.0555556</speed>
<course>15.0</course>
<ele>83.0</ele>
</trkpt>
<trkpt lat="52.35157012939301" lon="13.38237762451133">
<time>2011-04-09T18:03:36.000+02:00</time>
<speed>3.3333333</speed>
<course>15.0</course>
<ele>83.0</ele>
</trkpt>
<trkpt lat="52.35160231590119" lon="13.382399082183449">
<time>2011-04-09T18:03:37.000+02:00</time>
<speed>3.6111112</speed>
<course>14.0</course>
<ele>83.0</ele>
</trkpt>
<trkpt lat="52.35163450240937" lon="13.382399082183449">
<time>2011-04-09T18:03:38.000+02:00</time>
<speed>3.6111112</speed>
<course>13.0</course>
<ele>83.0</ele>
</trkpt>
<trkpt lat="52.35166668891755" lon="13.382420539855568">
<time>2011-04-09T18:03:39.000+02:00</time>
<speed>3.6111112</speed>
<course>13.0</course>
<ele>83.0</ele>
</trkpt>
<trkpt lat="52.351698875425726" lon="13.382420539855568">
<time>2011-04-09T18:03:40.000+02:00</time>
<speed>3.6111112</speed>
<course>14.0</course>
<ele>83.0</ele>
</trkpt>
<trkpt lat="52.351731061933904" lon="13.382441997527687">
<time>2011-04-09T18:03:41.000+02:00</time>
<speed>3.6111112</speed>
<course>13.0</course>
<ele>83.0</ele>
</trkpt>
<trkpt lat="52.35176324844208" lon="13.382463455199806">
<time>2011-04-09T18:03:42.000+02:00</time>
<speed>3.6111112</speed>
<course>12.0</course>
<ele>83.0</ele>
</trkpt>
<trkpt lat="52.35179543495026" lon="13.382463455199806">
<time>2011-04-09T18:03:43.000+02:00</time>
<speed>3.6111112</speed>
<course>12.0</course>
<ele>83.0</ele>
</trkpt>
<trkpt lat="52.35182762145844" lon="13.382484912871925">
<time>2011-04-09T18:03:44.000+02:00</time>
<speed>3.6111112</speed>
<course>13.0</course>
<ele>83.0</ele>
</trkpt>
<trkpt lat="52.35187053680268" lon="13.382484912871925">
<time>2011-04-09T18:03:45.000+02:00</time>
<speed>3.6111112</speed>
<course>13.0</course>
<ele>83.0</ele>
</trkpt>
<trkpt lat="52.35190272331086" lon="13.382506370544045">
<time>2011-04-09T18:03:46.000+02:00</time>
<speed>3.6111112</speed>
<course>13.0</course>
<ele>83.0</ele>
</trkpt>
<trkpt lat="52.35192418098298" lon="13.382506370544045">
<time>2011-04-09T18:03:47.000+02:00</time>
<speed>3.6111112</speed>
<course>14.0</course>
<ele>83.0</ele>
</trkpt>
<trkpt lat="52.351956367491155" lon="13.382527828216164">
<time>2011-04-09T18:03:48.000+02:00</time>
<speed>3.6111112</speed>
<course>14.0</course>
<ele>83.0</ele>
</trkpt>
<trkpt lat="52.351988553999334" lon="13.382549285888283">
<time>2011-04-09T18:03:49.000+02:00</time>
<speed>3.6111112</speed>
<course>12.0</course>
<ele>83.0</ele>
</trkpt>
<trkpt lat="52.35202074050751" lon="13.382549285888283">
<time>2011-04-09T18:03:50.000+02:00</time>
<speed>3.3333333</speed>
<course>12.0</course>
<ele>83.0</ele>
</trkpt>
<trkpt lat="52.35205292701569" lon="13.382570743560402">
<time>2011-04-09T18:03:51.000+02:00</time>
<speed>3.3333333</speed>
<course>12.0</course>
<ele>83.0</ele>
</trkpt>
<trkpt lat="52.35207438468781" lon="13.382570743560402">
<time>2011-04-09T18:03:52.000+02:00</time>
<speed>3.3333333</speed>
<course>13.0</course>
<ele>83.0</ele>
</trkpt>
<trkpt lat="52.35210657119599" lon="13.382592201232521">
<time>2011-04-09T18:03:53.000+02:00</time>
<speed>3.3333333</speed>
<course>12.0</course>
<ele>83.0</ele>
</trkpt>
<trkpt lat="52.35213875770417" lon="13.382592201232521">
<time>2011-04-09T18:03:54.000+02:00</time>
<speed>3.3333333</speed>
<course>14.0</course>
<ele>83.0</ele>
</trkpt>
<trkpt lat="52.35217094421235" lon="13.38261365890464">
<time>2011-04-09T18:03:55.000+02:00</time>
<speed>3.3333333</speed>
<course>13.0</course>
<ele>83.0</ele>
</trkpt>
<trkpt lat="52.352192401884466" lon="13.38261365890464">
<time>2011-04-09T18:03:56.000+02:00</time>
<speed>3.0555556</speed>
<course>12.0</course>
<ele>83.0</ele>
</trkpt>
<trkpt lat="52.352224588392644" lon="13.38263511657676">
<time>2011-04-09T18:03:57.000+02:00</time>
<speed>3.0555556</speed>
<course>13.0</course>
<ele>83.0</ele>
</trkpt>
<trkpt lat="52.352246046064764" lon="13.38263511657676">
<time>2011-04-09T18:03:58.000+02:00</time>
<speed>3.3333333</speed>
<course>12.0</course>
<ele>83.0</ele>
</trkpt>
<trkpt lat="52.35227823257294" lon="13.382656574248879">
<time>2011-04-09T18:03:59.000+02:00</time>
<speed>3.0555556</speed>
<course>12.0</course>
<ele>83.0</ele>
</trkpt>
<trkpt lat="52.35231041908112" lon="13.382656574248879">
<time>2011-04-09T18:04:00.000+02:00</time>
<speed>3.3333333</speed>
<course>13.0</course>
<ele>83.0</ele>
</trkpt>
<trkpt lat="52.35233187675324" lon="13.382678031920998">
<time>2011-04-09T18:04:01.000+02:00</time>
<speed>3.3333333</speed>
<course>12.0</course>
<ele>83.0</ele>
</trkpt>
<trkpt lat="52.35236406326142" lon="13.382678031920998">
<time>2011-04-09T18:04:02.000+02:00</time>
<speed>3.3333333</speed>
<course>12.0</course>
<ele>83.0</ele>
</trkpt>
<trkpt lat="52.3523962497696" lon="13.382699489593117">
<time>2011-04-09T18:04:03.000+02:00</time>
<speed>3.3333333</speed>
<course>12.0</course>
<ele>83.0</ele>
</trkpt>
<trkpt lat="52.352449893949895" lon="13.382720947265236">
<time>2011-04-09T18:04:05.000+02:00</time>
<speed>3.0555556</speed>
<course>13.0</course>
<ele>83.0</ele>
</trkpt>
<trkpt lat="52.352482080458074" lon="13.382742404937355">
<time>2011-04-09T18:04:06.000+02:00</time>
<speed>3.0555556</speed>
<course>13.0</course>
<ele>83.0</ele>
</trkpt>
<trkpt lat="52.35250353813019" lon="13.382742404937355">
<time>2011-04-09T18:04:07.000+02:00</time>
<speed>3.3333333</speed>
<course>14.0</course>
<ele>83.0</ele>
</trkpt>
<trkpt lat="52.35253572463837" lon="13.382763862609474">
<time>2011-04-09T18:04:08.000+02:00</time>
<speed>3.3333333</speed>
<course>14.0</course>
<ele>83.0</ele>
</trkpt>
<trkpt lat="52.35255718231049" lon="13.382763862609474">
<time>2011-04-09T18:04:09.000+02:00</time>
<speed>3.0555556</speed>
<course>14.0</course>
<ele>83.0</ele>
</trkpt>
<trkpt lat="52.35258936881867" lon="13.382785320281593">
<time>2011-04-09T18:04:10.000+02:00</time>
<speed>3.0555556</speed>
<course>13.0</course>
<ele>83.0</ele>
</trkpt>
<trkpt lat="52.35261082649079" lon="13.382785320281593">
<time>2011-04-09T18:04:11.000+02:00</time>
<speed>3.0555556</speed>
<course>13.0</course>
<ele>83.0</ele>
</trkpt>
<trkpt lat="52.35264301299897" lon="13.382806777953713">
<time>2011-04-09T18:04:12.000+02:00</time>
<speed>2.7777777</speed>
<course>13.0</course>
<ele>83.0</ele>
</trkpt>
<trkpt lat="52.35266447067109" lon="13.382828235625832">
<time>2011-04-09T18:04:13.000+02:00</time>
<speed>2.7777777</speed>
<course>13.0</course>
<ele>83.0</ele>
</trkpt>
<trkpt lat="52.352696657179266" lon="13.382828235625832">
<time>2011-04-09T18:04:14.000+02:00</time>
<speed>2.7777777</speed>
<course>14.0</course>
<ele>83.0</ele>
</trkpt>
<trkpt lat="52.352718114851385" lon="13.38284969329795">
<time>2011-04-09T18:04:15.000+02:00</time>
<speed>2.7777777</speed>
<course>13.0</course>
<ele>83.0</ele>
</trkpt>
<trkpt lat="52.352739572523504" lon="13.38284969329795">
<time>2011-04-09T18:04:16.000+02:00</time>
<speed>2.7777777</speed>
<course>12.0</course>
<ele>83.0</ele>
</trkpt>
<trkpt lat="52.35276103019562" lon="13.38284969329795">
<time>2011-04-09T18:04:17.000+02:00</time>
<speed>2.7777777</speed>
<course>13.0</course>
<ele>83.0</ele>
</trkpt>
<trkpt lat="52.3527932167038" lon="13.38287115097007">
<time>2011-04-09T18:04:18.000+02:00</time>
<speed>2.7777777</speed>
<course>13.0</course>
<ele>83.0</ele>
</trkpt>
<trkpt lat="52.35281467437592" lon="13.38287115097007">
<time>2011-04-09T18:04:19.000+02:00</time>
<speed>2.7777777</speed>
<course>12.0</course>
<ele>83.0</ele>
</trkpt>
<trkpt lat="52.35283613204804" lon="13.382892608642189">
<time>2011-04-09T18:04:20.000+02:00</time>
<speed>2.7777777</speed>
<course>12.0</course>
<ele>83.0</ele>
</trkpt>
<trkpt lat="52.35286831855622" lon="13.382892608642189">
<time>2011-04-09T18:04:21.000+02:00</time>
<speed>2.7777777</speed>
<course>13.0</course>
<ele>83.0</ele>
</trkpt>
<trkpt lat="52.35288977622834" lon="13.382914066314308">
<time>2011-04-09T18:04:22.000+02:00</time>
<speed>2.7777777</speed>
<course>12.0</course>
<ele>83.0</ele>
</trkpt>
<trkpt lat="52.35291123390046" lon="13.382914066314308">
<time>2011-04-09T18:04:23.000+02:00</time>
<speed>2.7777777</speed>
<course>11.0</course>
<ele>83.0</ele>
</trkpt>
<trkpt lat="52.352932691572576" lon="13.382935523986427">
<time>2011-04-09T18:04:24.000+02:00</time>
<speed>2.7777777</speed>
<course>10.0</course>
<ele>83.0</ele>
</trkpt>
<trkpt lat="52.352964878080755" lon="13.382935523986427">
<time>2011-04-09T18:04:25.000+02:00</time>
<speed>2.5</speed>
<course>11.0</course>
<ele>83.0</ele>
</trkpt>
<trkpt lat="52.352986335752874" lon="13.382935523986427">
<time>2011-04-09T18:04:26.000+02:00</time>
<speed>2.5</speed>
<course>10.0</course>
<ele>83.0</ele>
</trkpt>
<trkpt lat="52.35300779342499" lon="13.382956981658547">
<time>2011-04-09T18:04:27.000+02:00</time>
<speed>2.7777777</speed>
<course>9.0</course>
<ele>83.0</ele>
</trkpt>
<trkpt lat="52.35303997993317" lon="13.382956981658547">
<time>2011-04-09T18:04:28.000+02:00</time>
<speed>2.7777777</speed>
<course>7.0</course>
<ele>83.0</ele>
</trkpt>
<trkpt lat="52.35306143760529" lon="13.382956981658547">
<time>2011-04-09T18:04:29.000+02:00</time>
<speed>3.0555556</speed>
<course>7.0</course>
<ele>83.0</ele>
</trkpt>
<trkpt lat="52.35309362411347" lon="13.382978439330666">
<time>2011-04-09T18:04:30.000+02:00</time>
<speed>3.0555556</speed>
<course>8.0</course>
<ele>83.0</ele>
</trkpt>
<trkpt lat="52.35312581062165" lon="13.382978439330666">
<time>2011-04-09T18:04:31.000+02:00</time>
<speed>3.3333333</speed>
<course>9.0</course>
<ele>83.0</ele>
</trkpt>
<trkpt lat="52.35314726829377" lon="13.382978439330666">
<time>2011-04-09T18:04:32.000+02:00</time>
<speed>3.3333333</speed>
<course>8.0</course>
<ele>83.0</ele>
</trkpt>
<trkpt lat="52.353179454801946" lon="13.382999897002785">
<time>2011-04-09T18:04:33.000+02:00</time>
<speed>3.0555556</speed>
<course>9.0</course>
<ele>83.0</ele>
</trkpt>
<trkpt lat="52.353211641310125" lon="13.382999897002785">
<time>2011-04-09T18:04:34.000+02:00</time>
<speed>3.0555556</speed>
<course>9.0</course>
<ele>83.0</ele>
</trkpt>
<trkpt lat="52.353233098982244" lon="13.383021354674904">
<time>2011-04-09T18:04:35.000+02:00</time>
<speed>3.0555556</speed>
<course>8.0</course>
<ele>83.0</ele>
</trkpt>
<trkpt lat="52.35325455665436" lon="13.383021354674904">
<time>2011-04-09T18:04:36.000+02:00</time>
<speed>2.7777777</speed>
<course>9.0</course>
<ele>83.0</ele>
</trkpt>
<trkpt lat="52.35328674316254" lon="13.383021354674904">
<time>2011-04-09T18:04:37.000+02:00</time>
<speed>2.7777777</speed>
<course>9.0</course>
<ele>83.0</ele>
</trkpt>
<trkpt lat="52.35330820083466" lon="13.383042812347023">
<time>2011-04-09T18:04:38.000+02:00</time>
<speed>2.7777777</speed>
<course>7.0</course>
<ele>83.0</ele>
</trkpt>
<trkpt lat="52.35334038734284" lon="13.383042812347023">
<time>2011-04-09T18:04:39.000+02:00</time>
<speed>2.7777777</speed>
<course>9.0</course>
<ele>83.0</ele>
</trkpt>
<trkpt lat="52.35336184501496" lon="13.383042812347023">
<time>2011-04-09T18:04:40.000+02:00</time>
<speed>2.7777777</speed>
<course>7.0</course>
<ele>83.0</ele>
</trkpt>
<trkpt lat="52.35338330268708" lon="13.383042812347023">
<time>2011-04-09T18:04:41.000+02:00</time>
<speed>2.7777777</speed>
<course>7.0</course>
<ele>83.0</ele>
</trkpt>
<trkpt lat="52.35341548919526" lon="13.383064270019142">
<time>2011-04-09T18:04:42.000+02:00</time>
<speed>2.7777777</speed>
<course>7.0</course>
<ele>83.0</ele>
</trkpt>
<trkpt lat="52.353436946867376" lon="13.383064270019142">
<time>2011-04-09T18:04:43.000+02:00</time>
<speed>2.7777777</speed>
<course>6.0</course>
<ele>83.0</ele>
</trkpt>
<trkpt lat="52.353469133375555" lon="13.383064270019142">
<time>2011-04-09T18:04:44.000+02:00</time>
<speed>2.7777777</speed>
<course>6.0</course>
<ele>83.0</ele>
</trkpt>
<trkpt lat="52.353490591047674" lon="13.383064270019142">
<time>2011-04-09T18:04:45.000+02:00</time>
<speed>2.7777777</speed>
<course>5.0</course>
<ele>83.0</ele>
</trkpt>
<trkpt lat="52.35352277755585" lon="13.383085727691261">
<time>2011-04-09T18:04:46.000+02:00</time>
<speed>2.7777777</speed>
<course>6.0</course>
<ele>83.0</ele>
</trkpt>
<trkpt lat="52.35354423522797" lon="13.383085727691261">
<time>2011-04-09T18:04:47.000+02:00</time>
<speed>2.7777777</speed>
<course>7.0</course>
<ele>83.0</ele>
</trkpt>
<trkpt lat="52.35357642173615" lon="13.383085727691261">
<time>2011-04-09T18:04:48.000+02:00</time>
<speed>2.7777777</speed>
<course>7.0</course>
<ele>83.0</ele>
</trkpt>
<trkpt lat="52.35359787940827" lon="13.38310718536338">
<time>2011-04-09T18:04:49.000+02:00</time>
<speed>3.0555556</speed>
<course>6.0</course>
<ele>83.0</ele>
</trkpt>
<trkpt lat="52.35363006591645" lon="13.38310718536338">
<time>2011-04-09T18:04:50.000+02:00</time>
<speed>3.0555556</speed>
<course>6.0</course>
<ele>83.0</ele>
</trkpt>
<trkpt lat="52.35365152358857" lon="13.38310718536338">
<time>2011-04-09T18:04:51.000+02:00</time>
<speed>3.0555556</speed>
<course>5.0</course>
<ele>83.0</ele>
</trkpt>
<trkpt lat="52.353683710096746" lon="13.38310718536338">
<time>2011-04-09T18:04:52.000+02:00</time>
<speed>3.0555556</speed>
<course>4.0</course>
<ele>83.0</ele>
</trkpt>
<trkpt lat="52.353715896604925" lon="13.38310718536338">
<time>2011-04-09T18:04:53.000+02:00</time>
<speed>3.0555556</speed>
<course>3.0</course>
<ele>83.0</ele>
</trkpt>
<trkpt lat="52.353737354277044" lon="13.3831286430355">
<time>2011-04-09T18:04:54.000+02:00</time>
<speed>3.0555556</speed>
<course>3.0</course>
<ele>83.0</ele>
</trkpt>
<trkpt lat="52.35376954078522" lon="13.3831286430355">
<time>2011-04-09T18:04:55.000+02:00</time>
<speed>3.0555556</speed>
<course>4.0</course>
<ele>83.0</ele>
</trkpt>
<trkpt lat="52.35379099845734" lon="13.3831286430355">
<time>2011-04-09T18:04:56.000+02:00</time>
<speed>3.0555556</speed>
<course>5.0</course>
<ele>83.0</ele>
</trkpt>
<trkpt lat="52.35382318496552" lon="13.3831286430355">
<time>2011-04-09T18:04:57.000+02:00</time>
<speed>3.0555556</speed>
<course>4.0</course>
<ele>83.0</ele>
</trkpt>
<trkpt lat="52.35384464263764" lon="13.3831286430355">
<time>2011-04-09T18:04:58.000+02:00</time>
<speed>3.0555556</speed>
<course>3.0</course>
<ele>83.0</ele>
</trkpt>
<trkpt lat="52.35387682914582" lon="13.3831286430355">
<time>2011-04-09T18:04:59.000+02:00</time>
<speed>2.7777777</speed>
<course>0.0</course>
<ele>83.0</ele>
</trkpt>
<trkpt lat="52.35389828681794" lon="13.3831286430355">
<time>2011-04-09T18:05:00.000+02:00</time>
<speed>2.7777777</speed>
<course>359.0</course>
<ele>83.0</ele>
</trkpt>
<trkpt lat="52.35391974449006" lon="13.3831286430355">
<time>2011-04-09T18:05:01.000+02:00</time>
<speed>2.5</speed>
<course>0.0</course>
<ele>83.0</ele>
</trkpt>
<trkpt lat="52.353973388670354" lon="13.383150100707619">
<time>2011-04-09T18:05:03.000+02:00</time>
<speed>2.5</speed>
<course>3.0</course>
<ele>83.0</ele>
</trkpt>
<trkpt lat="52.353973388670354" lon="13.383150100707619">
<time>2011-04-09T18:05:03.000+02:00</time>
<speed>2.5</speed>
<course>3.0</course>
<ele>83.0</ele>
</trkpt>
<trkpt lat="52.35400557517853" lon="13.383150100707619">
<time>2011-04-09T18:05:05.000+02:00</time>
<speed>2.5</speed>
<course>5.0</course>
<ele>83.0</ele>
</trkpt>
<trkpt lat="52.35402703285065" lon="13.383150100707619">
<time>2011-04-09T18:05:06.000+02:00</time>
<speed>2.5</speed>
<course>6.0</course>
<ele>83.0</ele>
</trkpt>
<trkpt lat="52.35404849052277" lon="13.383150100707619">
<time>2011-04-09T18:05:07.000+02:00</time>
<speed>2.5</speed>
<course>6.0</course>
<ele>83.0</ele>
</trkpt>
<trkpt lat="52.35406994819489" lon="13.383171558379738">
<time>2011-04-09T18:05:08.000+02:00</time>
<speed>2.5</speed>
<course>8.0</course>
<ele>83.0</ele>
</trkpt>
<trkpt lat="52.35409140586701" lon="13.383171558379738">
<time>2011-04-09T18:05:09.000+02:00</time>
<speed>2.5</speed>
<course>6.0</course>
<ele>83.0</ele>
</trkpt>
<trkpt lat="52.35411286353913" lon="13.383171558379738">
<time>2011-04-09T18:05:10.000+02:00</time>
<speed>2.2222223</speed>
<course>5.0</course>
<ele>83.0</ele>
</trkpt>
<trkpt lat="52.35413432121125" lon="13.383171558379738">
<time>2011-04-09T18:05:11.000+02:00</time>
<speed>1.9444444</speed>
<course>5.0</course>
<ele>83.0</ele>
</trkpt>
<trkpt lat="52.35414505004731" lon="13.383171558379738">
<time>2011-04-09T18:05:12.000+02:00</time>
<speed>1.9444444</speed>
<course>5.0</course>
<ele>83.0</ele>
</trkpt>
<trkpt lat="52.35416650771943" lon="13.383193016051857">
<time>2011-04-09T18:05:13.000+02:00</time>
<speed>2.2222223</speed>
<course>5.0</course>
<ele>83.0</ele>
</trkpt>
<trkpt lat="52.354187965391546" lon="13.383193016051857">
<time>2011-04-09T18:05:14.000+02:00</time>
<speed>2.2222223</speed>
<course>3.0</course>
<ele>83.0</ele>
</trkpt>
<trkpt lat="52.354209423063665" lon="13.383193016051857">
<time>2011-04-09T18:05:15.000+02:00</time>
<speed>2.5</speed>
<course>3.0</course>
<ele>83.0</ele>
</trkpt>
<trkpt lat="52.354230880735784" lon="13.383193016051857">
<time>2011-04-09T18:05:16.000+02:00</time>
<speed>2.5</speed>
<course>3.0</course>
<ele>83.0</ele>
</trkpt>
<trkpt lat="52.35426306724396" lon="13.383193016051857">
<time>2011-04-09T18:05:17.000+02:00</time>
<speed>2.5</speed>
<course>2.0</course>
<ele>83.0</ele>
</trkpt>
<trkpt lat="52.35428452491608" lon="13.383193016051857">
<time>2011-04-09T18:05:18.000+02:00</time>
<speed>3.0555556</speed>
<course>1.0</course>
<ele>83.0</ele>
</trkpt>
<trkpt lat="52.35431671142426" lon="13.383193016051857">
<time>2011-04-09T18:05:19.000+02:00</time>
<speed>3.0555556</speed>
<course>1.0</course>
<ele>83.0</ele>
</trkpt>
<trkpt lat="52.35433816909638" lon="13.383214473723976">
<time>2011-04-09T18:05:20.000+02:00</time>
<speed>3.0555556</speed>
<course>2.0</course>
<ele>83.0</ele>
</trkpt>
<trkpt lat="52.35437035560456" lon="13.383214473723976">
<time>2011-04-09T18:05:21.000+02:00</time>
<speed>3.3333333</speed>
<course>4.0</course>
<ele>83.0</ele>
</trkpt>
<trkpt lat="52.35440254211274" lon="13.383214473723976">
<time>2011-04-09T18:05:22.000+02:00</time>
<speed>3.3333333</speed>
<course>4.0</course>
<ele>82.0</ele>
</trkpt>
<trkpt lat="52.354434728620916" lon="13.383214473723976">
<time>2011-04-09T18:05:23.000+02:00</time>
<speed>3.3333333</speed>
<course>4.0</course>
<ele>82.0</ele>
</trkpt>
<trkpt lat="52.354466915129095" lon="13.383235931396095">
<time>2011-04-09T18:05:24.000+02:00</time>
<speed>3.3333333</speed>
<course>4.0</course>
<ele>82.0</ele>
</trkpt>
<trkpt lat="52.354488372801214" lon="13.383235931396095">
<time>2011-04-09T18:05:25.000+02:00</time>
<speed>3.3333333</speed>
<course>3.0</course>
<ele>82.0</ele>
</trkpt>
<trkpt lat="52.35452055930939" lon="13.383235931396095">
<time>2011-04-09T18:05:26.000+02:00</time>
<speed>3.3333333</speed>
<course>3.0</course>
<ele>82.0</ele>
</trkpt>
<trkpt lat="52.35455274581757" lon="13.383235931396095">
<time>2011-04-09T18:05:27.000+02:00</time>
<speed>3.0555556</speed>
<course>3.0</course>
<ele>82.0</ele>
</trkpt>
<trkpt lat="52.35457420348969" lon="13.383235931396095">
<time>2011-04-09T18:05:28.000+02:00</time>
<speed>3.0555556</speed>
<course>4.0</course>
<ele>82.0</ele>
</trkpt>
<trkpt lat="52.35460638999787" lon="13.383257389068214">
<time>2011-04-09T18:05:29.000+02:00</time>
<speed>3.0555556</speed>
<course>5.0</course>
<ele>82.0</ele>
</trkpt>
<trkpt lat="52.35463857650605" lon="13.383257389068214">
<time>2011-04-09T18:05:30.000+02:00</time>
<speed>3.0555556</speed>
<course>5.0</course>
<ele>82.0</ele>
</trkpt>
<trkpt lat="52.35466003417817" lon="13.383257389068214">
<time>2011-04-09T18:05:31.000+02:00</time>
<speed>3.0555556</speed>
<course>5.0</course>
<ele>82.0</ele>
</trkpt>
<trkpt lat="52.354692220686346" lon="13.383257389068214">
<time>2011-04-09T18:05:32.000+02:00</time>
<speed>3.0555556</speed>
<course>4.0</course>
<ele>82.0</ele>
</trkpt>
<trkpt lat="52.354724407194524" lon="13.383257389068214">
<time>2011-04-09T18:05:33.000+02:00</time>
<speed>3.0555556</speed>
<course>3.0</course>
<ele>82.0</ele>
</trkpt>
<trkpt lat="52.35474586486664" lon="13.383257389068214">
<time>2011-04-09T18:05:34.000+02:00</time>
<speed>3.0555556</speed>
<course>1.0</course>
<ele>82.0</ele>
</trkpt>
<trkpt lat="52.35477805137482" lon="13.383257389068214">
<time>2011-04-09T18:05:35.000+02:00</time>
<speed>3.0555556</speed>
<course>0.0</course>
<ele>82.0</ele>
</trkpt>
<trkpt lat="52.354810237883" lon="13.383257389068214">
<time>2011-04-09T18:05:36.000+02:00</time>
<speed>3.0555556</speed>
<course>359.0</course>
<ele>82.0</ele>
</trkpt>
<trkpt lat="52.35483169555512" lon="13.383257389068214">
<time>2011-04-09T18:05:37.000+02:00</time>
<speed>3.0555556</speed>
<course>358.0</course>
<ele>82.0</ele>
</trkpt>
<trkpt lat="52.3548638820633" lon="13.383257389068214">
<time>2011-04-09T18:05:38.000+02:00</time>
<speed>3.0555556</speed>
<course>356.0</course>
<ele>82.0</ele>
</trkpt>
<trkpt lat="52.35488533973542" lon="13.383257389068214">
<time>2011-04-09T18:05:39.000+02:00</time>
<speed>3.0555556</speed>
<course>355.0</course>
<ele>82.0</ele>
</trkpt>
<trkpt lat="52.3549175262436" lon="13.383235931396095">
<time>2011-04-09T18:05:40.000+02:00</time>
<speed>3.0555556</speed>
<course>354.0</course>
<ele>82.0</ele>
</trkpt>
<trkpt lat="52.354938983915716" lon="13.383235931396095">
<time>2011-04-09T18:05:41.000+02:00</time>
<speed>3.0555556</speed>
<course>353.0</course>
<ele>82.0</ele>
</trkpt>
<trkpt lat="52.354960441587835" lon="13.383235931396095">
<time>2011-04-09T18:05:42.000+02:00</time>
<speed>3.0555556</speed>
<course>351.0</course>
<ele>82.0</ele>
</trkpt>
<trkpt lat="52.354981899259954" lon="13.383214473723976">
<time>2011-04-09T18:05:43.000+02:00</time>
<speed>3.0555556</speed>
<course>350.0</course>
<ele>82.0</ele>
</trkpt>
<trkpt lat="52.35501408576813" lon="13.383214473723976">
<time>2011-04-09T18:05:44.000+02:00</time>
<speed>3.0555556</speed>
<course>348.0</course>
<ele>82.0</ele>
</trkpt>
<trkpt lat="52.35503554344025" lon="13.383193016051857">
<time>2011-04-09T18:05:45.000+02:00</time>
<speed>3.0555556</speed>
<course>345.0</course>
<ele>82.0</ele>
</trkpt>
<trkpt lat="52.35505700111237" lon="13.383171558379738">
<time>2011-04-09T18:05:46.000+02:00</time>
<speed>3.0555556</speed>
<course>344.0</course>
<ele>82.0</ele>
</trkpt>
<trkpt lat="52.35507845878449" lon="13.383150100707619">
<time>2011-04-09T18:05:47.000+02:00</time>
<speed>3.0555556</speed>
<course>342.0</course>
<ele>82.0</ele>
</trkpt>
<trkpt lat="52.35511064529267" lon="13.3831286430355">
<time>2011-04-09T18:05:48.000+02:00</time>
<speed>3.0555556</speed>
<course>342.0</course>
<ele>82.0</ele>
</trkpt>
<trkpt lat="52.35513210296479" lon="13.3831286430355">
<time>2011-04-09T18:05:49.000+02:00</time>
<speed>2.7777777</speed>
<course>341.0</course>
<ele>82.0</ele>
</trkpt>
<trkpt lat="52.35515356063691" lon="13.38310718536338">
<time>2011-04-09T18:05:50.000+02:00</time>
<speed>2.7777777</speed>
<course>339.0</course>
<ele>82.0</ele>
</trkpt>
<trkpt lat="52.355175018309026" lon="13.383085727691261">
<time>2011-04-09T18:05:51.000+02:00</time>
<speed>2.7777777</speed>
<course>338.0</course>
<ele>82.0</ele>
</trkpt>
<trkpt lat="52.355196475981145" lon="13.383064270019142">
<time>2011-04-09T18:05:52.000+02:00</time>
<speed>2.7777777</speed>
<course>339.0</course>
<ele>82.0</ele>
</trkpt>
<trkpt lat="52.355228662489324" lon="13.383064270019142">
<time>2011-04-09T18:05:53.000+02:00</time>
<speed>2.7777777</speed>
<course>339.0</course>
<ele>82.0</ele>
</trkpt>
<trkpt lat="52.35525012016144" lon="13.383042812347023">
<time>2011-04-09T18:05:54.000+02:00</time>
<speed>3.0555556</speed>
<course>339.0</course>
<ele>82.0</ele>
</trkpt>
<trkpt lat="52.35528230666962" lon="13.383021354674904">
<time>2011-04-09T18:05:55.000+02:00</time>
<speed>3.0555556</speed>
<course>340.0</course>
<ele>82.0</ele>
</trkpt>
<trkpt lat="52.35530376434174" lon="13.383021354674904">
<time>2011-04-09T18:05:56.000+02:00</time>
<speed>2.7777777</speed>
<course>339.0</course>
<ele>82.0</ele>
</trkpt>
<trkpt lat="52.3553144931778" lon="13.382999897002785">
<time>2011-04-09T18:05:57.000+02:00</time>
<speed>1.6666666</speed>
<course>339.0</course>
<ele>82.0</ele>
</trkpt>
<trkpt lat="52.35532522201386" lon="13.382999897002785">
<time>2011-04-09T18:05:58.000+02:00</time>
<speed>1.1111112</speed>
<course>339.0</course>
<ele>82.0</ele>
</trkpt>
<trkpt lat="52.35533595084992" lon="13.382999897002785">
<time>2011-04-09T18:05:59.000+02:00</time>
<speed>0.2777778</speed>
<course>339.0</course>
<ele>82.0</ele>
</trkpt>
<trkpt lat="52.35533595084992" lon="13.382999897002785">
<time>2011-04-09T18:06:00.000+02:00</time>
<speed>0.0</speed>
<course>339.0</course>
<ele>82.0</ele>
</trkpt>
<trkpt lat="52.35533595084992" lon="13.382999897002785">
<time>2011-04-09T18:06:01.000+02:00</time>
<speed>0.0</speed>
<course>339.0</course>
<ele>82.0</ele>
</trkpt>
<trkpt lat="52.35533595084992" lon="13.383021354674904">
<time>2011-04-09T18:06:02.000+02:00</time>
<speed>0.0</speed>
<course>339.0</course>
<ele>82.0</ele>
</trkpt>
<trkpt lat="52.35533595084992" lon="13.383021354674904">
<time>2011-04-09T18:06:03.000+02:00</time>
<speed>0.0</speed>
<course>339.0</course>
<ele>82.0</ele>
</trkpt>
<trkpt lat="52.35534667968598" lon="13.383021354674904">
<time>2011-04-09T18:06:04.000+02:00</time>
<speed>0.0</speed>
<course>339.0</course>
<ele>82.0</ele>
</trkpt>
<trkpt lat="52.35534667968598" lon="13.383021354674904">
<time>2011-04-09T18:06:06.000+02:00</time>
<speed>0.0</speed>
<course>339.0</course>
<ele>82.0</ele>
</trkpt>
<trkpt lat="52.35534667968598" lon="13.383021354674904">
<time>2011-04-09T18:06:07.000+02:00</time>
<speed>0.0</speed>
<course>339.0</course>
<ele>82.0</ele>
</trkpt>
<trkpt lat="52.35534667968598" lon="13.383021354674904">
<time>2011-04-09T18:06:08.000+02:00</time>
<speed>0.0</speed>
<course>339.0</course>
<ele>82.0</ele>
</trkpt>
<trkpt lat="52.35534667968598" lon="13.383021354674904">
<time>2011-04-09T18:06:09.000+02:00</time>
<speed>0.0</speed>
<course>339.0</course>
<ele>82.0</ele>
</trkpt>
<trkpt lat="52.35534667968598" lon="13.383021354674904">
<time>2011-04-09T18:06:10.000+02:00</time>
<speed>0.0</speed>
<course>339.0</course>
<ele>82.0</ele>
</trkpt>
<trkpt lat="52.35534667968598" lon="13.383021354674904">
<time>2011-04-09T18:06:11.000+02:00</time>
<speed>0.0</speed>
<course>339.0</course>
<ele>82.0</ele>
</trkpt>
<trkpt lat="52.35534667968598" lon="13.383021354674904">
<time>2011-04-09T18:06:12.000+02:00</time>
<speed>0.0</speed>
<course>339.0</course>
<ele>82.0</ele>
</trkpt>
<trkpt lat="52.35534667968598" lon="13.383021354674904">
<time>2011-04-09T18:06:13.000+02:00</time>
<speed>0.0</speed>
<course>339.0</course>
<ele>82.0</ele>
</trkpt>
<trkpt lat="52.35535740852204" lon="13.383021354674904">
<time>2011-04-09T18:06:14.000+02:00</time>
<speed>0.8333333</speed>
<course>322.0</course>
<ele>82.0</ele>
</trkpt>
<trkpt lat="52.3553681373581" lon="13.382999897002785">
<time>2011-04-09T18:06:15.000+02:00</time>
<speed>1.3888888</speed>
<course>328.0</course>
<ele>82.0</ele>
</trkpt>
<trkpt lat="52.35537886619416" lon="13.382999897002785">
<time>2011-04-09T18:06:16.000+02:00</time>
<speed>1.6666666</speed>
<course>330.0</course>
<ele>82.0</ele>
</trkpt>
<trkpt lat="52.35538959503022" lon="13.382999897002785">
<time>2011-04-09T18:06:17.000+02:00</time>
<speed>1.6666666</speed>
<course>331.0</course>
<ele>82.0</ele>
</trkpt>
<trkpt lat="52.35541105270234" lon="13.382978439330666">
<time>2011-04-09T18:06:18.000+02:00</time>
<speed>2.2222223</speed>
<course>333.0</course>
<ele>82.0</ele>
</trkpt>
<trkpt lat="52.355432510374456" lon="13.382978439330666">
<time>2011-04-09T18:06:19.000+02:00</time>
<speed>2.5</speed>
<course>335.0</course>
<ele>82.0</ele>
</trkpt>
<trkpt lat="52.355453968046575" lon="13.382956981658547">
<time>2011-04-09T18:06:20.000+02:00</time>
<speed>2.5</speed>
<course>335.0</course>
<ele>82.0</ele>
</trkpt>
<trkpt lat="52.355475425718694" lon="13.382956981658547">
<time>2011-04-09T18:06:21.000+02:00</time>
<speed>2.5</speed>
<course>336.0</course>
<ele>82.0</ele>
</trkpt>
<trkpt lat="52.35549688339081" lon="13.382935523986427">
<time>2011-04-09T18:06:22.000+02:00</time>
<speed>2.5</speed>
<course>338.0</course>
<ele>82.0</ele>
</trkpt>
<trkpt lat="52.35551834106293" lon="13.382935523986427">
<time>2011-04-09T18:06:23.000+02:00</time>
<speed>2.5</speed>
<course>338.0</course>
<ele>82.0</ele>
</trkpt>
<trkpt lat="52.35553979873505" lon="13.382914066314308">
<time>2011-04-09T18:06:24.000+02:00</time>
<speed>2.7777777</speed>
<course>337.0</course>
<ele>82.0</ele>
</trkpt>
<trkpt lat="52.35557198524323" lon="13.382892608642189">
<time>2011-04-09T18:06:25.000+02:00</time>
<speed>2.7777777</speed>
<course>337.0</course>
<ele>82.0</ele>
</trkpt>
<trkpt lat="52.35559344291535" lon="13.382892608642189">
<time>2011-04-09T18:06:26.000+02:00</time>
<speed>3.3333333</speed>
<course>336.0</course>
<ele>82.0</ele>
</trkpt>
<trkpt lat="52.35562562942353" lon="13.38287115097007">
<time>2011-04-09T18:06:27.000+02:00</time>
<speed>3.6111112</speed>
<course>337.0</course>
<ele>82.0</ele>
</trkpt>
<trkpt lat="52.35565781593171" lon="13.38284969329795">
<time>2011-04-09T18:06:28.000+02:00</time>
<speed>3.8888888</speed>
<course>337.0</course>
<ele>82.0</ele>
</trkpt>
<trkpt lat="52.355690002439886" lon="13.382828235625832">
<time>2011-04-09T18:06:29.000+02:00</time>
<speed>3.8888888</speed>
<course>336.0</course>
<ele>82.0</ele>
</trkpt>
<trkpt lat="52.355722188948064" lon="13.382806777953713">
<time>2011-04-09T18:06:30.000+02:00</time>
<speed>3.8888888</speed>
<course>336.0</course>
<ele>82.0</ele>
</trkpt>
<trkpt lat="52.35575437545624" lon="13.382785320281593">
<time>2011-04-09T18:06:31.000+02:00</time>
<speed>3.8888888</speed>
<course>336.0</course>
<ele>82.0</ele>
</trkpt>
<trkpt lat="52.35578656196442" lon="13.382763862609474">
<time>2011-04-09T18:06:32.000+02:00</time>
<speed>3.6111112</speed>
<course>337.0</course>
<ele>82.0</ele>
</trkpt>
<trkpt lat="52.3558187484726" lon="13.382742404937355">
<time>2011-04-09T18:06:33.000+02:00</time>
<speed>3.6111112</speed>
<course>334.0</course>
<ele>82.0</ele>
</trkpt>
<trkpt lat="52.35584020614472" lon="13.382720947265236">
<time>2011-04-09T18:06:34.000+02:00</time>
<speed>3.3333333</speed>
<course>332.0</course>
<ele>82.0</ele>
</trkpt>
<trkpt lat="52.3558723926529" lon="13.382699489593117">
<time>2011-04-09T18:06:35.000+02:00</time>
<speed>3.3333333</speed>
<course>333.0</course>
<ele>82.0</ele>
</trkpt>
<trkpt lat="52.35589385032502" lon="13.382678031920998">
<time>2011-04-09T18:06:36.000+02:00</time>
<speed>3.3333333</speed>
<course>334.0</course>
<ele>82.0</ele>
</trkpt>
<trkpt lat="52.355926036833196" lon="13.382656574248879">
<time>2011-04-09T18:06:37.000+02:00</time>
<speed>3.0555556</speed>
<course>335.0</course>
<ele>82.0</ele>
</trkpt>
<trkpt lat="52.355947494505315" lon="13.382656574248879">
<time>2011-04-09T18:06:38.000+02:00</time>
<speed>2.7777777</speed>
<course>336.0</course>
<ele>82.0</ele>
</trkpt>
<trkpt lat="52.355968952177435" lon="13.38263511657676">
<time>2011-04-09T18:06:39.000+02:00</time>
<speed>2.7777777</speed>
<course>337.0</course>
<ele>82.0</ele>
</trkpt>
<trkpt lat="52.355990409849554" lon="13.38261365890464">
<time>2011-04-09T18:06:40.000+02:00</time>
<speed>2.7777777</speed>
<course>339.0</course>
<ele>82.0</ele>
</trkpt>
<trkpt lat="52.35602259635773" lon="13.38261365890464">
<time>2011-04-09T18:06:41.000+02:00</time>
<speed>3.0555556</speed>
<course>338.0</course>
<ele>82.0</ele>
</trkpt>
<trkpt lat="52.35604405402985" lon="13.382592201232521">
<time>2011-04-09T18:06:42.000+02:00</time>
<speed>3.3333333</speed>
<course>338.0</course>
<ele>82.0</ele>
</trkpt>
<trkpt lat="52.35607624053803" lon="13.382570743560402">
<time>2011-04-09T18:06:43.000+02:00</time>
<speed>3.6111112</speed>
<course>338.0</course>
<ele>82.0</ele>
</trkpt>
<trkpt lat="52.35610842704621" lon="13.382549285888283">
<time>2011-04-09T18:06:44.000+02:00</time>
<speed>3.6111112</speed>
<course>338.0</course>
<ele>82.0</ele>
</trkpt>
<trkpt lat="52.35614061355439" lon="13.382527828216164">
<time>2011-04-09T18:06:45.000+02:00</time>
<speed>3.6111112</speed>
<course>338.0</course>
<ele>82.0</ele>
</trkpt>
<trkpt lat="52.356172800062566" lon="13.382506370544045">
<time>2011-04-09T18:06:46.000+02:00</time>
<speed>3.6111112</speed>
<course>339.0</course>
<ele>82.0</ele>
</trkpt>
<trkpt lat="52.356194257734685" lon="13.382484912871925">
<time>2011-04-09T18:06:47.000+02:00</time>
<speed>3.6111112</speed>
<course>337.0</course>
<ele>82.0</ele>
</trkpt>
<trkpt lat="52.356226444242864" lon="13.382463455199806">
<time>2011-04-09T18:06:48.000+02:00</time>
<speed>3.6111112</speed>
<course>338.0</course>
<ele>82.0</ele>
</trkpt>
<trkpt lat="52.35625863075104" lon="13.382441997527687">
<time>2011-04-09T18:06:49.000+02:00</time>
<speed>3.6111112</speed>
<course>338.0</course>
<ele>82.0</ele>
</trkpt>
<trkpt lat="52.35629081725922" lon="13.382420539855568">
<time>2011-04-09T18:06:50.000+02:00</time>
<speed>3.8888888</speed>
<course>338.0</course>
<ele>82.0</ele>
</trkpt>
<trkpt lat="52.3563230037674" lon="13.382399082183449">
<time>2011-04-09T18:06:51.000+02:00</time>
<speed>3.8888888</speed>
<course>338.0</course>
<ele>82.0</ele>
</trkpt>
<trkpt lat="52.35635519027558" lon="13.38237762451133">
<time>2011-04-09T18:06:52.000+02:00</time>
<speed>3.8888888</speed>
<course>337.0</course>
<ele>82.0</ele>
</trkpt>
<trkpt lat="52.35638737678376" lon="13.38235616683921">
<time>2011-04-09T18:06:53.000+02:00</time>
<speed>3.8888888</speed>
<course>338.0</course>
<ele>82.0</ele>
</trkpt>
<trkpt lat="52.35641956329194" lon="13.382334709167091">
<time>2011-04-09T18:06:54.000+02:00</time>
<speed>3.8888888</speed>
<course>337.0</course>
<ele>82.0</ele>
</trkpt>
<trkpt lat="52.356451749800115" lon="13.382313251494972">
<time>2011-04-09T18:06:55.000+02:00</time>
<speed>3.8888888</speed>
<course>337.0</course>
<ele>82.0</ele>
</trkpt>
<trkpt lat="52.356483936308294" lon="13.382291793822853">
<time>2011-04-09T18:06:56.000+02:00</time>
<speed>3.8888888</speed>
<course>337.0</course>
<ele>82.0</ele>
</trkpt>
<trkpt lat="52.35651612281647" lon="13.382270336150734">
<time>2011-04-09T18:06:57.000+02:00</time>
<speed>3.6111112</speed>
<course>337.0</course>
<ele>82.0</ele>
</trkpt>
<trkpt lat="52.35654830932465" lon="13.382248878478615">
<time>2011-04-09T18:06:58.000+02:00</time>
<speed>3.6111112</speed>
<course>336.0</course>
<ele>82.0</ele>
</trkpt>
<trkpt lat="52.35656976699677" lon="13.382227420806496">
<time>2011-04-09T18:06:59.000+02:00</time>
<speed>3.3333333</speed>
<course>335.0</course>
<ele>82.0</ele>
</trkpt>
<trkpt lat="52.35660195350495" lon="13.382205963134377">
<time>2011-04-09T18:07:00.000+02:00</time>
<speed>3.0555556</speed>
<course>335.0</course>
<ele>82.0</ele>
</trkpt>
<trkpt lat="52.35662341117707" lon="13.382205963134377">
<time>2011-04-09T18:07:01.000+02:00</time>
<speed>3.0555556</speed>
<course>335.0</course>
<ele>82.0</ele>
</trkpt>
<trkpt lat="52.35665559768525" lon="13.382184505462257">
<time>2011-04-09T18:07:02.000+02:00</time>
<speed>3.0555556</speed>
<course>334.0</course>
<ele>82.0</ele>
</trkpt>
<trkpt lat="52.356677055357366" lon="13.382163047790138">
<time>2011-04-09T18:07:03.000+02:00</time>
<speed>2.7777777</speed>
<course>334.0</course>
<ele>82.0</ele>
</trkpt>
<trkpt lat="52.356698513029485" lon="13.38214159011802">
<time>2011-04-09T18:07:04.000+02:00</time>
<speed>2.5</speed>
<course>336.0</course>
<ele>82.0</ele>
</trkpt>
<trkpt lat="52.35675215720978" lon="13.3821201324459">
<time>2011-04-09T18:07:06.000+02:00</time>
<speed>2.7777777</speed>
<course>336.0</course>
<ele>82.0</ele>
</trkpt>
<trkpt lat="52.35678434371796" lon="13.3821201324459">
<time>2011-04-09T18:07:07.000+02:00</time>
<speed>3.3333333</speed>
<course>335.0</course>
<ele>82.0</ele>
</trkpt>
<trkpt lat="52.35681653022614" lon="13.382098674773781">
<time>2011-04-09T18:07:08.000+02:00</time>
<speed>4.1666665</speed>
<course>337.0</course>
<ele>83.0</ele>
</trkpt>
<trkpt lat="52.35685944557038" lon="13.382077217101662">
<time>2011-04-09T18:07:09.000+02:00</time>
<speed>4.1666665</speed>
<course>338.0</course>
<ele>83.0</ele>
</trkpt>
<trkpt lat="52.35689163207856" lon="13.382055759429543">
<time>2011-04-09T18:07:10.000+02:00</time>
<speed>4.1666665</speed>
<course>339.0</course>
<ele>83.0</ele>
</trkpt>
<trkpt lat="52.356934547422796" lon="13.382034301757423">
<time>2011-04-09T18:07:11.000+02:00</time>
<speed>3.8888888</speed>
<course>340.0</course>
<ele>83.0</ele>
</trkpt>
<trkpt lat="52.356966733930975" lon="13.382034301757423">
<time>2011-04-09T18:07:12.000+02:00</time>
<speed>4.1666665</speed>
<course>341.0</course>
<ele>83.0</ele>
</trkpt>
<trkpt lat="52.35700964927521" lon="13.382012844085304">
<time>2011-04-09T18:07:13.000+02:00</time>
<speed>4.1666665</speed>
<course>341.0</course>
<ele>83.0</ele>
</trkpt>
<trkpt lat="52.35704183578339" lon="13.381991386413185">
<time>2011-04-09T18:07:14.000+02:00</time>
<speed>4.1666665</speed>
<course>342.0</course>
<ele>83.0</ele>
</trkpt>
<trkpt lat="52.35708475112763" lon="13.381991386413185">
<time>2011-04-09T18:07:15.000+02:00</time>
<speed>4.1666665</speed>
<course>341.0</course>
<ele>83.0</ele>
</trkpt>
<trkpt lat="52.35712766647187" lon="13.381969928741066">
<time>2011-04-09T18:07:16.000+02:00</time>
<speed>4.1666665</speed>
<course>342.0</course>
<ele>83.0</ele>
</trkpt>
<trkpt lat="52.357170581816106" lon="13.381948471068947">
<time>2011-04-09T18:07:17.000+02:00</time>
<speed>4.1666665</speed>
<course>342.0</course>
<ele>83.0</ele>
</trkpt>
<trkpt lat="52.357213497160345" lon="13.381948471068947">
<time>2011-04-09T18:07:18.000+02:00</time>
<speed>4.1666665</speed>
<course>342.0</course>
<ele>83.0</ele>
</trkpt>
<trkpt lat="52.35725641250458" lon="13.381927013396828">
<time>2011-04-09T18:07:19.000+02:00</time>
<speed>4.1666665</speed>
<course>343.0</course>
<ele>83.0</ele>
</trkpt>
<trkpt lat="52.35729932784882" lon="13.381927013396828">
<time>2011-04-09T18:07:20.000+02:00</time>
<speed>4.4444447</speed>
<course>342.0</course>
<ele>84.0</ele>
</trkpt>
<trkpt lat="52.35734224319306" lon="13.381905555724709">
<time>2011-04-09T18:07:21.000+02:00</time>
<speed>4.4444447</speed>
<course>341.0</course>
<ele>84.0</ele>
</trkpt>
<trkpt lat="52.3573851585373" lon="13.38188409805259">
<time>2011-04-09T18:07:22.000+02:00</time>
<speed>5.2777777</speed>
<course>343.0</course>
<ele>84.0</ele>
</trkpt>
<trkpt lat="52.357428073881536" lon="13.38186264038047">
<time>2011-04-09T18:07:23.000+02:00</time>
<speed>5.0</speed>
<course>345.0</course>
<ele>84.0</ele>
</trkpt>
<trkpt lat="52.357470989225774" lon="13.381841182708351">
<time>2011-04-09T18:07:24.000+02:00</time>
<speed>4.7222223</speed>
<course>345.0</course>
<ele>84.0</ele>
</trkpt>
<trkpt lat="52.35751390457001" lon="13.381841182708351">
<time>2011-04-09T18:07:25.000+02:00</time>
<speed>4.1666665</speed>
<course>348.0</course>
<ele>84.0</ele>
</trkpt>
<trkpt lat="52.35755681991425" lon="13.381819725036232">
<time>2011-04-09T18:07:26.000+02:00</time>
<speed>3.8888888</speed>
<course>349.0</course>
<ele>84.0</ele>
</trkpt>
<trkpt lat="52.35757827758637" lon="13.381819725036232">
<time>2011-04-09T18:07:27.000+02:00</time>
<speed>3.0555556</speed>
<course>350.0</course>
<ele>84.0</ele>
</trkpt>
<trkpt lat="52.35761046409455" lon="13.381819725036232">
<time>2011-04-09T18:07:28.000+02:00</time>
<speed>3.0555556</speed>
<course>351.0</course>
<ele>84.0</ele>
</trkpt>
<trkpt lat="52.35764265060273" lon="13.381798267364113">
<time>2011-04-09T18:07:29.000+02:00</time>
<speed>3.0555556</speed>
<course>351.0</course>
<ele>84.0</ele>
</trkpt>
<trkpt lat="52.357674837110906" lon="13.381798267364113">
<time>2011-04-09T18:07:30.000+02:00</time>
<speed>3.0555556</speed>
<course>352.0</course>
<ele>84.0</ele>
</trkpt>
<trkpt lat="52.357696294783025" lon="13.381798267364113">
<time>2011-04-09T18:07:31.000+02:00</time>
<speed>3.0555556</speed>
<course>352.0</course>
<ele>84.0</ele>
</trkpt>
<trkpt lat="52.357728481291204" lon="13.381798267364113">
<time>2011-04-09T18:07:32.000+02:00</time>
<speed>3.0555556</speed>
<course>353.0</course>
<ele>84.0</ele>
</trkpt>
<trkpt lat="52.35777139663544" lon="13.381776809691994">
<time>2011-04-09T18:07:33.000+02:00</time>
<speed>2.7777777</speed>
<course>353.0</course>
<ele>84.0</ele>
</trkpt>
<trkpt lat="52.35779285430756" lon="13.381776809691994">
<time>2011-04-09T18:07:34.000+02:00</time>
<speed>2.7777777</speed>
<course>354.0</course>
<ele>84.0</ele>
</trkpt>
<trkpt lat="52.35782504081574" lon="13.381776809691994">
<time>2011-04-09T18:07:35.000+02:00</time>
<speed>2.7777777</speed>
<course>355.0</course>
<ele>84.0</ele>
</trkpt>
<trkpt lat="52.35785722732392" lon="13.381776809691994">
<time>2011-04-09T18:07:36.000+02:00</time>
<speed>2.7777777</speed>
<course>356.0</course>
<ele>84.0</ele>
</trkpt>
<trkpt lat="52.35787868499604" lon="13.381776809691994">
<time>2011-04-09T18:07:37.000+02:00</time>
<speed>2.5</speed>
<course>356.0</course>
<ele>84.0</ele>
</trkpt>
<trkpt lat="52.35791087150422" lon="13.381776809691994">
<time>2011-04-09T18:07:38.000+02:00</time>
<speed>2.5</speed>
<course>354.0</course>
<ele>84.0</ele>
</trkpt>
<trkpt lat="52.357932329176336" lon="13.381776809691994">
<time>2011-04-09T18:07:39.000+02:00</time>
<speed>2.2222223</speed>
<course>353.0</course>
<ele>84.0</ele>
</trkpt>
<trkpt lat="52.357964515684515" lon="13.381776809691994">
<time>2011-04-09T18:07:40.000+02:00</time>
<speed>2.2222223</speed>
<course>356.0</course>
<ele>84.0</ele>
</trkpt>
<trkpt lat="52.357985973356634" lon="13.381776809691994">
<time>2011-04-09T18:07:41.000+02:00</time>
<speed>2.2222223</speed>
<course>356.0</course>
<ele>84.0</ele>
</trkpt>
<trkpt lat="52.35800743102875" lon="13.381776809691994">
<time>2011-04-09T18:07:42.000+02:00</time>
<speed>2.2222223</speed>
<course>355.0</course>
<ele>84.0</ele>
</trkpt>
<trkpt lat="52.35803961753693" lon="13.381776809691994">
<time>2011-04-09T18:07:43.000+02:00</time>
<speed>2.5</speed>
<course>353.0</course>
<ele>84.0</ele>
</trkpt>
<trkpt lat="52.35806107520905" lon="13.381755352019875">
<time>2011-04-09T18:07:44.000+02:00</time>
<speed>2.5</speed>
<course>354.0</course>
<ele>84.0</ele>
</trkpt>
<trkpt lat="52.35809326171723" lon="13.381755352019875">
<time>2011-04-09T18:07:45.000+02:00</time>
<speed>3.0555556</speed>
<course>357.0</course>
<ele>84.0</ele>
</trkpt>
<trkpt lat="52.35812544822541" lon="13.381755352019875">
<time>2011-04-09T18:07:46.000+02:00</time>
<speed>3.3333333</speed>
<course>357.0</course>
<ele>84.0</ele>
</trkpt>
<trkpt lat="52.35815763473359" lon="13.381755352019875">
<time>2011-04-09T18:07:47.000+02:00</time>
<speed>3.3333333</speed>
<course>355.0</course>
<ele>84.0</ele>
</trkpt>
<trkpt lat="52.358189821241766" lon="13.381755352019875">
<time>2011-04-09T18:07:48.000+02:00</time>
<speed>3.3333333</speed>
<course>354.0</course>
<ele>84.0</ele>
</trkpt>
<trkpt lat="52.358222007749944" lon="13.381755352019875">
<time>2011-04-09T18:07:49.000+02:00</time>
<speed>3.6111112</speed>
<course>353.0</course>
<ele>84.0</ele>
</trkpt>
<trkpt lat="52.35825419425812" lon="13.381755352019875">
<time>2011-04-09T18:07:50.000+02:00</time>
<speed>3.6111112</speed>
<course>352.0</course>
<ele>85.0</ele>
</trkpt>
<trkpt lat="52.35829710960236" lon="13.381733894347756">
<time>2011-04-09T18:07:51.000+02:00</time>
<speed>3.6111112</speed>
<course>353.0</course>
<ele>85.0</ele>
</trkpt>
<trkpt lat="52.35832929611054" lon="13.381733894347756">
<time>2011-04-09T18:07:52.000+02:00</time>
<speed>3.6111112</speed>
<course>353.0</course>
<ele>85.0</ele>
</trkpt>
<trkpt lat="52.35836148261872" lon="13.381733894347756">
<time>2011-04-09T18:07:53.000+02:00</time>
<speed>3.6111112</speed>
<course>353.0</course>
<ele>85.0</ele>
</trkpt>
<trkpt lat="52.3583936691269" lon="13.381733894347756">
<time>2011-04-09T18:07:54.000+02:00</time>
<speed>3.6111112</speed>
<course>354.0</course>
<ele>85.0</ele>
</trkpt>
<trkpt lat="52.358436584471136" lon="13.381712436675636">
<time>2011-04-09T18:07:55.000+02:00</time>
<speed>3.6111112</speed>
<course>354.0</course>
<ele>85.0</ele>
</trkpt>
<trkpt lat="52.358468770979314" lon="13.381712436675636">
<time>2011-04-09T18:07:56.000+02:00</time>
<speed>3.6111112</speed>
<course>353.0</course>
<ele>85.0</ele>
</trkpt>
<trkpt lat="52.35850095748749" lon="13.381712436675636">
<time>2011-04-09T18:07:57.000+02:00</time>
<speed>3.3333333</speed>
<course>352.0</course>
<ele>85.0</ele>
</trkpt>
<trkpt lat="52.35852241515961" lon="13.381690979003517">
<time>2011-04-09T18:07:58.000+02:00</time>
<speed>3.0555556</speed>
<course>351.0</course>
<ele>85.0</ele>
</trkpt>
<trkpt lat="52.35855460166779" lon="13.381690979003517">
<time>2011-04-09T18:07:59.000+02:00</time>
<speed>3.0555556</speed>
<course>350.0</course>
<ele>85.0</ele>
</trkpt>
<trkpt lat="52.35857605933991" lon="13.381690979003517">
<time>2011-04-09T18:08:00.000+02:00</time>
<speed>3.0555556</speed>
<course>350.0</course>
<ele>85.0</ele>
</trkpt>
<trkpt lat="52.35860824584809" lon="13.381669521331398">
<time>2011-04-09T18:08:01.000+02:00</time>
<speed>3.0555556</speed>
<course>348.0</course>
<ele>85.0</ele>
</trkpt>
<trkpt lat="52.35864043235627" lon="13.381669521331398">
<time>2011-04-09T18:08:02.000+02:00</time>
<speed>3.0555556</speed>
<course>348.0</course>
<ele>85.0</ele>
</trkpt>
<trkpt lat="52.358694076536565" lon="13.381648063659279">
<time>2011-04-09T18:08:04.000+02:00</time>
<speed>3.3333333</speed>
<course>345.0</course>
<ele>85.0</ele>
</trkpt>
<trkpt lat="52.358726263044744" lon="13.38162660598716">
<time>2011-04-09T18:08:05.000+02:00</time>
<speed>3.3333333</speed>
<course>343.0</course>
<ele>85.0</ele>
</trkpt>
<trkpt lat="52.35874772071686" lon="13.38160514831504">
<time>2011-04-09T18:08:06.000+02:00</time>
<speed>3.0555556</speed>
<course>341.0</course>
<ele>85.0</ele>
</trkpt>
<trkpt lat="52.35877990722504" lon="13.381583690642922">
<time>2011-04-09T18:08:07.000+02:00</time>
<speed>3.0555556</speed>
<course>340.0</course>
<ele>85.0</ele>
</trkpt>
<trkpt lat="52.35880136489716" lon="13.381583690642922">
<time>2011-04-09T18:08:08.000+02:00</time>
<speed>3.0555556</speed>
<course>340.0</course>
<ele>85.0</ele>
</trkpt>
<trkpt lat="52.35882282256928" lon="13.381562232970802">
<time>2011-04-09T18:08:09.000+02:00</time>
<speed>2.7777777</speed>
<course>339.0</course>
<ele>85.0</ele>
</trkpt>
<trkpt lat="52.3588442802414" lon="13.381540775298683">
<time>2011-04-09T18:08:10.000+02:00</time>
<speed>2.2222223</speed>
<course>342.0</course>
<ele>85.0</ele>
</trkpt>
<trkpt lat="52.35886573791352" lon="13.381540775298683">
<time>2011-04-09T18:08:11.000+02:00</time>
<speed>2.5</speed>
<course>340.0</course>
<ele>85.0</ele>
</trkpt>
<trkpt lat="52.35888719558564" lon="13.381519317626564">
<time>2011-04-09T18:08:12.000+02:00</time>
<speed>2.5</speed>
<course>338.0</course>
<ele>85.0</ele>
</trkpt>
<trkpt lat="52.35890865325776" lon="13.381497859954445">
<time>2011-04-09T18:08:13.000+02:00</time>
<speed>2.7777777</speed>
<course>338.0</course>
<ele>85.0</ele>
</trkpt>
<trkpt lat="52.358930110929876" lon="13.381476402282326">
<time>2011-04-09T18:08:14.000+02:00</time>
<speed>2.7777777</speed>
<course>337.0</course>
<ele>85.0</ele>
</trkpt>
<trkpt lat="52.358962297438055" lon="13.381476402282326">
<time>2011-04-09T18:08:15.000+02:00</time>
<speed>2.7777777</speed>
<course>337.0</course>
<ele>85.0</ele>
</trkpt>
<trkpt lat="52.358983755110174" lon="13.381454944610207">
<time>2011-04-09T18:08:16.000+02:00</time>
<speed>2.7777777</speed>
<course>337.0</course>
<ele>85.0</ele>
</trkpt>
<trkpt lat="52.35900521278229" lon="13.381433486938088">
<time>2011-04-09T18:08:17.000+02:00</time>
<speed>2.5</speed>
<course>338.0</course>
<ele>85.0</ele>
</trkpt>
<trkpt lat="52.35902667045441" lon="13.381412029265968">
<time>2011-04-09T18:08:18.000+02:00</time>
<speed>2.5</speed>
<course>337.0</course>
<ele>86.0</ele>
</trkpt>
<trkpt lat="52.35904812812653" lon="13.381412029265968">
<time>2011-04-09T18:08:19.000+02:00</time>
<speed>2.5</speed>
<course>337.0</course>
<ele>86.0</ele>
</trkpt>
<trkpt lat="52.35906958579865" lon="13.38139057159385">
<time>2011-04-09T18:08:20.000+02:00</time>
<speed>2.5</speed>
<course>336.0</course>
<ele>86.0</ele>
</trkpt>
<trkpt lat="52.35909104347077" lon="13.38136911392173">
<time>2011-04-09T18:08:21.000+02:00</time>
<speed>2.5</speed>
<course>338.0</course>
<ele>86.0</ele>
</trkpt>
<trkpt lat="52.35911250114289" lon="13.38136911392173">
<time>2011-04-09T18:08:22.000+02:00</time>
<speed>2.5</speed>
<course>337.0</course>
<ele>86.0</ele>
</trkpt>
<trkpt lat="52.35913395881501" lon="13.381347656249611">
<time>2011-04-09T18:08:23.000+02:00</time>
<speed>2.7777777</speed>
<course>337.0</course>
<ele>86.0</ele>
</trkpt>
<trkpt lat="52.35915541648713" lon="13.381326198577492">
<time>2011-04-09T18:08:24.000+02:00</time>
<speed>2.7777777</speed>
<course>338.0</course>
<ele>86.0</ele>
</trkpt>
<trkpt lat="52.359187602995306" lon="13.381304740905373">
<time>2011-04-09T18:08:25.000+02:00</time>
<speed>3.0555556</speed>
<course>338.0</course>
<ele>86.0</ele>
</trkpt>
<trkpt lat="52.359209060667425" lon="13.381283283233254">
<time>2011-04-09T18:08:26.000+02:00</time>
<speed>3.0555556</speed>
<course>339.0</course>
<ele>86.0</ele>
</trkpt>
<trkpt lat="52.3592412471756" lon="13.381261825561134">
<time>2011-04-09T18:08:27.000+02:00</time>
<speed>3.0555556</speed>
<course>337.0</course>
<ele>86.0</ele>
</trkpt>
<trkpt lat="52.35926270484772" lon="13.381261825561134">
<time>2011-04-09T18:08:28.000+02:00</time>
<speed>2.7777777</speed>
<course>338.0</course>
<ele>86.0</ele>
</trkpt>
<trkpt lat="52.3592948913559" lon="13.381240367889015">
<time>2011-04-09T18:08:29.000+02:00</time>
<speed>2.7777777</speed>
<course>338.0</course>
<ele>86.0</ele>
</trkpt>
<trkpt lat="52.35931634902802" lon="13.381218910216896">
<time>2011-04-09T18:08:30.000+02:00</time>
<speed>2.7777777</speed>
<course>339.0</course>
<ele>86.0</ele>
</trkpt>
<trkpt lat="52.35933780670014" lon="13.381197452544777">
<time>2011-04-09T18:08:31.000+02:00</time>
<speed>2.7777777</speed>
<course>339.0</course>
<ele>86.0</ele>
</trkpt>
<trkpt lat="52.35936999320832" lon="13.381175994872658">
<time>2011-04-09T18:08:32.000+02:00</time>
<speed>2.7777777</speed>
<course>338.0</course>
<ele>86.0</ele>
</trkpt>
<trkpt lat="52.35939145088044" lon="13.381175994872658">
<time>2011-04-09T18:08:33.000+02:00</time>
<speed>2.7777777</speed>
<course>338.0</course>
<ele>86.0</ele>
</trkpt>
<trkpt lat="52.359423637388616" lon="13.381154537200539">
<time>2011-04-09T18:08:34.000+02:00</time>
<speed>3.0555556</speed>
<course>339.0</course>
<ele>86.0</ele>
</trkpt>
<trkpt lat="52.359445095060735" lon="13.38113307952842">
<time>2011-04-09T18:08:35.000+02:00</time>
<speed>2.7777777</speed>
<course>340.0</course>
<ele>86.0</ele>
</trkpt>
<trkpt lat="52.359477281568914" lon="13.3811116218563">
<time>2011-04-09T18:08:36.000+02:00</time>
<speed>2.7777777</speed>
<course>340.0</course>
<ele>86.0</ele>
</trkpt>
<trkpt lat="52.35949873924103" lon="13.3811116218563">
<time>2011-04-09T18:08:37.000+02:00</time>
<speed>3.0555556</speed>
<course>340.0</course>
<ele>86.0</ele>
</trkpt>
<trkpt lat="52.35953092574921" lon="13.381090164184181">
<time>2011-04-09T18:08:38.000+02:00</time>
<speed>3.0555556</speed>
<course>342.0</course>
<ele>86.0</ele>
</trkpt>
<trkpt lat="52.35955238342133" lon="13.381068706512062">
<time>2011-04-09T18:08:39.000+02:00</time>
<speed>3.0555556</speed>
<course>343.0</course>
<ele>86.0</ele>
</trkpt>
<trkpt lat="52.35958456992951" lon="13.381068706512062">
<time>2011-04-09T18:08:40.000+02:00</time>
<speed>3.3333333</speed>
<course>344.0</course>
<ele>86.0</ele>
</trkpt>
<trkpt lat="52.35961675643769" lon="13.381047248839943">
<time>2011-04-09T18:08:41.000+02:00</time>
<speed>3.6111112</speed>
<course>345.0</course>
<ele>86.0</ele>
</trkpt>
<trkpt lat="52.35964894294587" lon="13.381025791167824">
<time>2011-04-09T18:08:42.000+02:00</time>
<speed>3.8888888</speed>
<course>345.0</course>
<ele>86.0</ele>
</trkpt>
<trkpt lat="52.359681129454046" lon="13.381025791167824">
<time>2011-04-09T18:08:43.000+02:00</time>
<speed>3.8888888</speed>
<course>344.0</course>
<ele>86.0</ele>
</trkpt>
<trkpt lat="52.359724044798284" lon="13.381004333495705">
<time>2011-04-09T18:08:44.000+02:00</time>
<speed>3.8888888</speed>
<course>343.0</course>
<ele>86.0</ele>
</trkpt>
<trkpt lat="52.3597455024704" lon="13.380982875823586">
<time>2011-04-09T18:08:45.000+02:00</time>
<speed>3.3333333</speed>
<course>343.0</course>
<ele>86.0</ele>
</trkpt>
<trkpt lat="52.35977768897858" lon="13.380982875823586">
<time>2011-04-09T18:08:46.000+02:00</time>
<speed>3.0555556</speed>
<course>344.0</course>
<ele>86.0</ele>
</trkpt>
<trkpt lat="52.3597991466507" lon="13.380961418151466">
<time>2011-04-09T18:08:47.000+02:00</time>
<speed>3.0555556</speed>
<course>345.0</course>
<ele>86.0</ele>
</trkpt>
<trkpt lat="52.35983133315888" lon="13.380939960479347">
<time>2011-04-09T18:08:48.000+02:00</time>
<speed>3.0555556</speed>
<course>344.0</course>
<ele>86.0</ele>
</trkpt>
<trkpt lat="52.359852790831" lon="13.380939960479347">
<time>2011-04-09T18:08:49.000+02:00</time>
<speed>3.0555556</speed>
<course>345.0</course>
<ele>86.0</ele>
</trkpt>
<trkpt lat="52.35987424850312" lon="13.380918502807228">
<time>2011-04-09T18:08:50.000+02:00</time>
<speed>2.7777777</speed>
<course>341.0</course>
<ele>86.0</ele>
</trkpt>
<trkpt lat="52.35989570617524" lon="13.380918502807228">
<time>2011-04-09T18:08:51.000+02:00</time>
<speed>2.7777777</speed>
<course>341.0</course>
<ele>86.0</ele>
</trkpt>
<trkpt lat="52.359917163847356" lon="13.380897045135109">
<time>2011-04-09T18:08:52.000+02:00</time>
<speed>2.7777777</speed>
<course>340.0</course>
<ele>86.0</ele>
</trkpt>
<trkpt lat="52.359949350355535" lon="13.38087558746299">
<time>2011-04-09T18:08:53.000+02:00</time>
<speed>2.7777777</speed>
<course>341.0</course>
<ele>86.0</ele>
</trkpt>
<trkpt lat="52.359970808027654" lon="13.38087558746299">
<time>2011-04-09T18:08:54.000+02:00</time>
<speed>3.0555556</speed>
<course>342.0</course>
<ele>86.0</ele>
</trkpt>
<trkpt lat="52.36000299453583" lon="13.38085412979087">
<time>2011-04-09T18:08:55.000+02:00</time>
<speed>3.3333333</speed>
<course>343.0</course>
<ele>86.0</ele>
</trkpt>
<trkpt lat="52.36003518104401" lon="13.380832672118752">
<time>2011-04-09T18:08:56.000+02:00</time>
<speed>3.6111112</speed>
<course>344.0</course>
<ele>86.0</ele>
</trkpt>
<trkpt lat="52.36006736755219" lon="13.380832672118752">
<time>2011-04-09T18:08:57.000+02:00</time>
<speed>3.6111112</speed>
<course>343.0</course>
<ele>86.0</ele>
</trkpt>
<trkpt lat="52.36009955406037" lon="13.380811214446632">
<time>2011-04-09T18:08:58.000+02:00</time>
<speed>3.6111112</speed>
<course>344.0</course>
<ele>86.0</ele>
</trkpt>
<trkpt lat="52.36013174056855" lon="13.380789756774513">
<time>2011-04-09T18:08:59.000+02:00</time>
<speed>3.3333333</speed>
<course>344.0</course>
<ele>86.0</ele>
</trkpt>
<trkpt lat="52.36015319824067" lon="13.380789756774513">
<time>2011-04-09T18:09:00.000+02:00</time>
<speed>2.5</speed>
<course>345.0</course>
<ele>86.0</ele>
</trkpt>
<trkpt lat="52.360174655912786" lon="13.380768299102394">
<time>2011-04-09T18:09:01.000+02:00</time>
<speed>2.2222223</speed>
<course>345.0</course>
<ele>86.0</ele>
</trkpt>
<trkpt lat="52.360196113584905" lon="13.380768299102394">
<time>2011-04-09T18:09:02.000+02:00</time>
<speed>1.9444444</speed>
<course>349.0</course>
<ele>86.0</ele>
</trkpt>
<trkpt lat="52.360217571257024" lon="13.380768299102394">
<time>2011-04-09T18:09:03.000+02:00</time>
<speed>2.2222223</speed>
<course>349.0</course>
<ele>86.0</ele>
</trkpt>
<trkpt lat="52.36023902892914" lon="13.380768299102394">
<time>2011-04-09T18:09:04.000+02:00</time>
<speed>1.9444444</speed>
<course>346.0</course>
<ele>86.0</ele>
</trkpt>
<trkpt lat="52.36026048660126" lon="13.380746841430275">
<time>2011-04-09T18:09:05.000+02:00</time>
<speed>2.2222223</speed>
<course>344.0</course>
<ele>86.0</ele>
</trkpt>
<trkpt lat="52.36028194427338" lon="13.380746841430275">
<time>2011-04-09T18:09:06.000+02:00</time>
<speed>2.2222223</speed>
<course>345.0</course>
<ele>86.0</ele>
</trkpt>
<trkpt lat="52.3603034019455" lon="13.380725383758156">
<time>2011-04-09T18:09:07.000+02:00</time>
<speed>2.2222223</speed>
<course>346.0</course>
<ele>86.0</ele>
</trkpt>
<trkpt lat="52.36034631728974" lon="13.380725383758156">
<time>2011-04-09T18:09:09.000+02:00</time>
<speed>2.2222223</speed>
<course>340.0</course>
<ele>86.0</ele>
</trkpt>
<trkpt lat="52.36036777496186" lon="13.380703926086037">
<time>2011-04-09T18:09:10.000+02:00</time>
<speed>2.2222223</speed>
<course>340.0</course>
<ele>86.0</ele>
</trkpt>
<trkpt lat="52.36037850379792" lon="13.380703926086037">
<time>2011-04-09T18:09:11.000+02:00</time>
<speed>1.9444444</speed>
<course>341.0</course>
<ele>86.0</ele>
</trkpt>
<trkpt lat="52.36039996147004" lon="13.380703926086037">
<time>2011-04-09T18:09:12.000+02:00</time>
<speed>1.6666666</speed>
<course>343.0</course>
<ele>86.0</ele>
</trkpt>
<trkpt lat="52.3604106903061" lon="13.380682468413918">
<time>2011-04-09T18:09:13.000+02:00</time>
<speed>1.6666666</speed>
<course>346.0</course>
<ele>86.0</ele>
</trkpt>
<trkpt lat="52.360432147978216" lon="13.380703926086037">
<time>2011-04-09T18:09:14.000+02:00</time>
<speed>1.6666666</speed>
<course>4.0</course>
<ele>86.0</ele>
</trkpt>
<trkpt lat="52.360432147978216" lon="13.380703926086037">
<time>2011-04-09T18:09:15.000+02:00</time>
<speed>0.0</speed>
<course>4.0</course>
<ele>86.0</ele>
</trkpt>
<trkpt lat="52.360432147978216" lon="13.380703926086037">
<time>2011-04-09T18:09:16.000+02:00</time>
<speed>0.0</speed>
<course>4.0</course>
<ele>86.0</ele>
</trkpt>
<trkpt lat="52.360432147978216" lon="13.380703926086037">
<time>2011-04-09T18:09:17.000+02:00</time>
<speed>0.0</speed>
<course>4.0</course>
<ele>86.0</ele>
</trkpt>
<trkpt lat="52.360432147978216" lon="13.380703926086037">
<time>2011-04-09T18:09:18.000+02:00</time>
<speed>0.0</speed>
<course>4.0</course>
<ele>86.0</ele>
</trkpt>
<trkpt lat="52.360432147978216" lon="13.380703926086037">
<time>2011-04-09T18:09:19.000+02:00</time>
<speed>0.0</speed>
<course>4.0</course>
<ele>86.0</ele>
</trkpt>
<trkpt lat="52.36050724983063" lon="13.380725383758156">
<time>2011-04-09T18:09:20.000+02:00</time>
<speed>0.0</speed>
<course>4.0</course>
<ele>86.0</ele>
</trkpt>
<trkpt lat="52.36050724983063" lon="13.380725383758156">
<time>2011-04-09T18:09:21.000+02:00</time>
<speed>0.0</speed>
<course>4.0</course>
<ele>86.0</ele>
</trkpt>
<trkpt lat="52.36050724983063" lon="13.380725383758156">
<time>2011-04-09T18:09:22.000+02:00</time>
<speed>0.0</speed>
<course>4.0</course>
<ele>86.0</ele>
</trkpt>
<trkpt lat="52.36050724983063" lon="13.380725383758156">
<time>2011-04-09T18:09:23.000+02:00</time>
<speed>0.0</speed>
<course>4.0</course>
<ele>86.0</ele>
</trkpt>
<trkpt lat="52.36050724983063" lon="13.380725383758156">
<time>2011-04-09T18:09:24.000+02:00</time>
<speed>0.0</speed>
<course>4.0</course>
<ele>86.0</ele>
</trkpt>
<trkpt lat="52.36050724983063" lon="13.380725383758156">
<time>2011-04-09T18:09:25.000+02:00</time>
<speed>0.0</speed>
<course>4.0</course>
<ele>86.0</ele>
</trkpt>
<trkpt lat="52.36050724983063" lon="13.380725383758156">
<time>2011-04-09T18:09:26.000+02:00</time>
<speed>0.0</speed>
<course>4.0</course>
<ele>86.0</ele>
</trkpt>
<trkpt lat="52.36050724983063" lon="13.380725383758156">
<time>2011-04-09T18:09:27.000+02:00</time>
<speed>0.0</speed>
<course>4.0</course>
<ele>86.0</ele>
</trkpt>
<trkpt lat="52.36050724983063" lon="13.380725383758156">
<time>2011-04-09T18:09:28.000+02:00</time>
<speed>0.0</speed>
<course>4.0</course>
<ele>86.0</ele>
</trkpt>
<trkpt lat="52.36050724983063" lon="13.380725383758156">
<time>2011-04-09T18:09:29.000+02:00</time>
<speed>0.0</speed>
<course>4.0</course>
<ele>86.0</ele>
</trkpt>
<trkpt lat="52.36056089401093" lon="13.380811214446632">
<time>2011-04-09T18:09:30.000+02:00</time>
<speed>1.1111112</speed>
<course>50.0</course>
<ele>87.0</ele>
</trkpt>
<trkpt lat="52.36057162284699" lon="13.380832672118752">
<time>2011-04-09T18:09:31.000+02:00</time>
<speed>1.1111112</speed>
<course>51.0</course>
<ele>87.0</ele>
</trkpt>
<trkpt lat="52.36057162284699" lon="13.380832672118752">
<time>2011-04-09T18:09:32.000+02:00</time>
<speed>0.0</speed>
<course>51.0</course>
<ele>87.0</ele>
</trkpt>
<trkpt lat="52.36057162284699" lon="13.380832672118752">
<time>2011-04-09T18:09:33.000+02:00</time>
<speed>0.0</speed>
<course>51.0</course>
<ele>87.0</ele>
</trkpt>
<trkpt lat="52.36057162284699" lon="13.380832672118752">
<time>2011-04-09T18:09:34.000+02:00</time>
<speed>0.0</speed>
<course>51.0</course>
<ele>87.0</ele>
</trkpt>
<trkpt lat="52.36057162284699" lon="13.380832672118752">
<time>2011-04-09T18:09:35.000+02:00</time>
<speed>0.0</speed>
<course>51.0</course>
<ele>87.0</ele>
</trkpt>
<trkpt lat="52.36057162284699" lon="13.380832672118752">
<time>2011-04-09T18:09:36.000+02:00</time>
<speed>0.0</speed>
<course>51.0</course>
<ele>87.0</ele>
</trkpt>
<trkpt lat="52.36057162284699" lon="13.380832672118752">
<time>2011-04-09T18:09:37.000+02:00</time>
<speed>0.0</speed>
<course>51.0</course>
<ele>87.0</ele>
</trkpt>
<trkpt lat="52.36057162284699" lon="13.380832672118752">
<time>2011-04-09T18:09:38.000+02:00</time>
<speed>0.0</speed>
<course>51.0</course>
<ele>87.0</ele>
</trkpt>
<trkpt lat="52.36057162284699" lon="13.380832672118752">
<time>2011-04-09T18:09:39.000+02:00</time>
<speed>0.0</speed>
<course>51.0</course>
<ele>87.0</ele>
</trkpt>
<trkpt lat="52.36057162284699" lon="13.380832672118752">
<time>2011-04-09T18:09:40.000+02:00</time>
<speed>0.0</speed>
<course>51.0</course>
<ele>87.0</ele>
</trkpt>
<trkpt lat="52.36057162284699" lon="13.380832672118752">
<time>2011-04-09T18:09:41.000+02:00</time>
<speed>0.0</speed>
<course>51.0</course>
<ele>87.0</ele>
</trkpt>
<trkpt lat="52.36057162284699" lon="13.380832672118752">
<time>2011-04-09T18:09:42.000+02:00</time>
<speed>0.0</speed>
<course>51.0</course>
<ele>87.0</ele>
</trkpt>
<trkpt lat="52.36057162284699" lon="13.380832672118752">
<time>2011-04-09T18:09:43.000+02:00</time>
<speed>0.0</speed>
<course>51.0</course>
<ele>87.0</ele>
</trkpt>
<trkpt lat="52.36057162284699" lon="13.380832672118752">
<time>2011-04-09T18:09:44.000+02:00</time>
<speed>0.0</speed>
<course>51.0</course>
<ele>87.0</ele>
</trkpt>
<trkpt lat="52.36057162284699" lon="13.380832672118752">
<time>2011-04-09T18:09:45.000+02:00</time>
<speed>0.0</speed>
<course>51.0</course>
<ele>87.0</ele>
</trkpt>
<trkpt lat="52.36057162284699" lon="13.380832672118752">
<time>2011-04-09T18:09:46.000+02:00</time>
<speed>0.0</speed>
<course>51.0</course>
<ele>87.0</ele>
</trkpt>
<trkpt lat="52.36057162284699" lon="13.380832672118752">
<time>2011-04-09T18:09:47.000+02:00</time>
<speed>0.0</speed>
<course>51.0</course>
<ele>87.0</ele>
</trkpt>
<trkpt lat="52.36057162284699" lon="13.380832672118752">
<time>2011-04-09T18:09:48.000+02:00</time>
<speed>0.0</speed>
<course>51.0</course>
<ele>87.0</ele>
</trkpt>
<trkpt lat="52.36057162284699" lon="13.380832672118752">
<time>2011-04-09T18:09:49.000+02:00</time>
<speed>0.0</speed>
<course>51.0</course>
<ele>87.0</ele>
</trkpt>
<trkpt lat="52.36057162284699" lon="13.380832672118752">
<time>2011-04-09T18:09:50.000+02:00</time>
<speed>0.0</speed>
<course>51.0</course>
<ele>87.0</ele>
</trkpt>
<trkpt lat="52.36057162284699" lon="13.380832672118752">
<time>2011-04-09T18:09:51.000+02:00</time>
<speed>0.0</speed>
<course>51.0</course>
<ele>87.0</ele>
</trkpt>
<trkpt lat="52.36057162284699" lon="13.380832672118752">
<time>2011-04-09T18:09:52.000+02:00</time>
<speed>0.0</speed>
<course>51.0</course>
<ele>87.0</ele>
</trkpt>
<trkpt lat="52.36057162284699" lon="13.380832672118752">
<time>2011-04-09T18:09:53.000+02:00</time>
<speed>0.0</speed>
<course>51.0</course>
<ele>87.0</ele>
</trkpt>
<trkpt lat="52.36057162284699" lon="13.380832672118752">
<time>2011-04-09T18:09:54.000+02:00</time>
<speed>0.0</speed>
<course>51.0</course>
<ele>87.0</ele>
</trkpt>
<trkpt lat="52.36057162284699" lon="13.380832672118752">
<time>2011-04-09T18:09:55.000+02:00</time>
<speed>0.0</speed>
<course>51.0</course>
<ele>87.0</ele>
</trkpt>
<trkpt lat="52.36057162284699" lon="13.380832672118752">
<time>2011-04-09T18:09:56.000+02:00</time>
<speed>0.0</speed>
<course>51.0</course>
<ele>87.0</ele>
</trkpt>
<trkpt lat="52.36057162284699" lon="13.380832672118752">
<time>2011-04-09T18:09:57.000+02:00</time>
<speed>0.0</speed>
<course>51.0</course>
<ele>87.0</ele>
</trkpt>
<trkpt lat="52.36057162284699" lon="13.380832672118752">
<time>2011-04-09T18:09:58.000+02:00</time>
<speed>0.0</speed>
<course>51.0</course>
<ele>87.0</ele>
</trkpt>
<trkpt lat="52.36057162284699" lon="13.380832672118752">
<time>2011-04-09T18:09:59.000+02:00</time>
<speed>0.0</speed>
<course>51.0</course>
<ele>87.0</ele>
</trkpt>
<trkpt lat="52.36057162284699" lon="13.380832672118752">
<time>2011-04-09T18:10:00.000+02:00</time>
<speed>0.0</speed>
<course>51.0</course>
<ele>87.0</ele>
</trkpt>
<trkpt lat="52.36057162284699" lon="13.380832672118752">
<time>2011-04-09T18:10:01.000+02:00</time>
<speed>0.0</speed>
<course>51.0</course>
<ele>87.0</ele>
</trkpt>
<trkpt lat="52.36057162284699" lon="13.380832672118752">
<time>2011-04-09T18:10:02.000+02:00</time>
<speed>0.0</speed>
<course>51.0</course>
<ele>87.0</ele>
</trkpt>
<trkpt lat="52.36057162284699" lon="13.380832672118752">
<time>2011-04-09T18:10:03.000+02:00</time>
<speed>0.0</speed>
<course>51.0</course>
<ele>87.0</ele>
</trkpt>
<trkpt lat="52.36057162284699" lon="13.380832672118752">
<time>2011-04-09T18:10:04.000+02:00</time>
<speed>0.0</speed>
<course>51.0</course>
<ele>87.0</ele>
</trkpt>
<trkpt lat="52.36057162284699" lon="13.380832672118752">
<time>2011-04-09T18:10:05.000+02:00</time>
<speed>0.0</speed>
<course>51.0</course>
<ele>87.0</ele>
</trkpt>
<trkpt lat="52.36057162284699" lon="13.380832672118752">
<time>2011-04-09T18:10:06.000+02:00</time>
<speed>0.0</speed>
<course>51.0</course>
<ele>87.0</ele>
</trkpt>
<trkpt lat="52.36057162284699" lon="13.380832672118752">
<time>2011-04-09T18:10:07.000+02:00</time>
<speed>0.0</speed>
<course>51.0</course>
<ele>87.0</ele>
</trkpt>
<trkpt lat="52.36057162284699" lon="13.380832672118752">
<time>2011-04-09T18:10:08.000+02:00</time>
<speed>0.0</speed>
<course>51.0</course>
<ele>87.0</ele>
</trkpt>
<trkpt lat="52.36057162284699" lon="13.380832672118752">
<time>2011-04-09T18:10:09.000+02:00</time>
<speed>0.0</speed>
<course>51.0</course>
<ele>87.0</ele>
</trkpt>
<trkpt lat="52.36057162284699" lon="13.380832672118752">
<time>2011-04-09T18:10:10.000+02:00</time>
<speed>0.0</speed>
<course>51.0</course>
<ele>87.0</ele>
</trkpt>
<trkpt lat="52.36057162284699" lon="13.380832672118752">
<time>2011-04-09T18:10:11.000+02:00</time>
<speed>0.0</speed>
<course>51.0</course>
<ele>87.0</ele>
</trkpt>
<trkpt lat="52.36057162284699" lon="13.380832672118752">
<time>2011-04-09T18:10:13.000+02:00</time>
<speed>0.0</speed>
<course>51.0</course>
<ele>87.0</ele>
</trkpt>
<trkpt lat="52.36057162284699" lon="13.380832672118752">
<time>2011-04-09T18:10:14.000+02:00</time>
<speed>0.0</speed>
<course>51.0</course>
<ele>87.0</ele>
</trkpt>
<trkpt lat="52.36057162284699" lon="13.380832672118752">
<time>2011-04-09T18:10:15.000+02:00</time>
<speed>0.0</speed>
<course>51.0</course>
<ele>87.0</ele>
</trkpt>
<trkpt lat="52.36057162284699" lon="13.380832672118752">
<time>2011-04-09T18:10:16.000+02:00</time>
<speed>0.0</speed>
<course>51.0</course>
<ele>87.0</ele>
</trkpt>
<trkpt lat="52.36057162284699" lon="13.380832672118752">
<time>2011-04-09T18:10:17.000+02:00</time>
<speed>0.0</speed>
<course>51.0</course>
<ele>87.0</ele>
</trkpt>
<trkpt lat="52.36057162284699" lon="13.380832672118752">
<time>2011-04-09T18:10:18.000+02:00</time>
<speed>0.0</speed>
<course>51.0</course>
<ele>87.0</ele>
</trkpt>
<trkpt lat="52.36057162284699" lon="13.380832672118752">
<time>2011-04-09T18:10:19.000+02:00</time>
<speed>0.0</speed>
<course>51.0</course>
<ele>87.0</ele>
</trkpt>
<trkpt lat="52.36057162284699" lon="13.380832672118752">
<time>2011-04-09T18:10:20.000+02:00</time>
<speed>0.0</speed>
<course>51.0</course>
<ele>87.0</ele>
</trkpt>
<trkpt lat="52.36057162284699" lon="13.380832672118752">
<time>2011-04-09T18:10:21.000+02:00</time>
<speed>0.0</speed>
<course>51.0</course>
<ele>87.0</ele>
</trkpt>
<trkpt lat="52.36057162284699" lon="13.380832672118752">
<time>2011-04-09T18:10:22.000+02:00</time>
<speed>0.0</speed>
<course>51.0</course>
<ele>87.0</ele>
</trkpt>
<trkpt lat="52.36057162284699" lon="13.380832672118752">
<time>2011-04-09T18:10:23.000+02:00</time>
<speed>0.0</speed>
<course>51.0</course>
<ele>87.0</ele>
</trkpt>
<trkpt lat="52.36057162284699" lon="13.380832672118752">
<time>2011-04-09T18:10:24.000+02:00</time>
<speed>0.0</speed>
<course>51.0</course>
<ele>87.0</ele>
</trkpt>
<trkpt lat="52.36057162284699" lon="13.380832672118752">
<time>2011-04-09T18:10:25.000+02:00</time>
<speed>0.0</speed>
<course>51.0</course>
<ele>87.0</ele>
</trkpt>
<trkpt lat="52.36058235168305" lon="13.38085412979087">
<time>2011-04-09T18:10:26.000+02:00</time>
<speed>0.0</speed>
<course>51.0</course>
<ele>87.0</ele>
</trkpt>
<trkpt lat="52.36058235168305" lon="13.38085412979087">
<time>2011-04-09T18:10:27.000+02:00</time>
<speed>0.0</speed>
<course>51.0</course>
<ele>87.0</ele>
</trkpt>
<trkpt lat="52.36058235168305" lon="13.38085412979087">
<time>2011-04-09T18:10:28.000+02:00</time>
<speed>0.0</speed>
<course>51.0</course>
<ele>87.0</ele>
</trkpt>
<trkpt lat="52.36058235168305" lon="13.38087558746299">
<time>2011-04-09T18:10:29.000+02:00</time>
<speed>0.0</speed>
<course>51.0</course>
<ele>87.0</ele>
</trkpt>
<trkpt lat="52.36059308051911" lon="13.38087558746299">
<time>2011-04-09T18:10:30.000+02:00</time>
<speed>0.0</speed>
<course>51.0</course>
<ele>87.0</ele>
</trkpt>
<trkpt lat="52.36059308051911" lon="13.380897045135109">
<time>2011-04-09T18:10:31.000+02:00</time>
<speed>0.0</speed>
<course>51.0</course>
<ele>87.0</ele>
</trkpt>
<trkpt lat="52.36059308051911" lon="13.380897045135109">
<time>2011-04-09T18:10:32.000+02:00</time>
<speed>0.0</speed>
<course>51.0</course>
<ele>87.0</ele>
</trkpt>
<trkpt lat="52.36059308051911" lon="13.380897045135109">
<time>2011-04-09T18:10:33.000+02:00</time>
<speed>0.0</speed>
<course>51.0</course>
<ele>87.0</ele>
</trkpt>
<trkpt lat="52.36059308051911" lon="13.380897045135109">
<time>2011-04-09T18:10:34.000+02:00</time>
<speed>0.0</speed>
<course>51.0</course>
<ele>87.0</ele>
</trkpt>
<trkpt lat="52.36059308051911" lon="13.380897045135109">
<time>2011-04-09T18:10:35.000+02:00</time>
<speed>0.0</speed>
<course>51.0</course>
<ele>87.0</ele>
</trkpt>
<trkpt lat="52.36059308051911" lon="13.380897045135109">
<time>2011-04-09T18:10:36.000+02:00</time>
<speed>0.0</speed>
<course>51.0</course>
<ele>87.0</ele>
</trkpt>
<trkpt lat="52.36059308051911" lon="13.380918502807228">
<time>2011-04-09T18:10:37.000+02:00</time>
<speed>0.0</speed>
<course>51.0</course>
<ele>87.0</ele>
</trkpt>
<trkpt lat="52.36059308051911" lon="13.380918502807228">
<time>2011-04-09T18:10:38.000+02:00</time>
<speed>0.0</speed>
<course>51.0</course>
<ele>87.0</ele>
</trkpt>
<trkpt lat="52.36059308051911" lon="13.380918502807228">
<time>2011-04-09T18:10:39.000+02:00</time>
<speed>0.0</speed>
<course>51.0</course>
<ele>87.0</ele>
</trkpt>
<trkpt lat="52.36059308051911" lon="13.380918502807228">
<time>2011-04-09T18:10:40.000+02:00</time>
<speed>0.0</speed>
<course>51.0</course>
<ele>87.0</ele>
</trkpt>
<trkpt lat="52.36059308051911" lon="13.380918502807228">
<time>2011-04-09T18:10:41.000+02:00</time>
<speed>0.0</speed>
<course>51.0</course>
<ele>87.0</ele>
</trkpt>
<trkpt lat="52.36059308051911" lon="13.380939960479347">
<time>2011-04-09T18:10:42.000+02:00</time>
<speed>0.2777778</speed>
<course>51.0</course>
<ele>87.0</ele>
</trkpt>
<trkpt lat="52.36059308051911" lon="13.380939960479347">
<time>2011-04-09T18:10:43.000+02:00</time>
<speed>1.1111112</speed>
<course>81.0</course>
<ele>87.0</ele>
</trkpt>
<trkpt lat="52.36059308051911" lon="13.380961418151466">
<time>2011-04-09T18:10:44.000+02:00</time>
<speed>1.3888888</speed>
<course>79.0</course>
<ele>87.0</ele>
</trkpt>
<trkpt lat="52.36060380935517" lon="13.381004333495705">
<time>2011-04-09T18:10:45.000+02:00</time>
<speed>2.5</speed>
<course>78.0</course>
<ele>87.0</ele>
</trkpt>
<trkpt lat="52.36060380935517" lon="13.381068706512062">
<time>2011-04-09T18:10:46.000+02:00</time>
<speed>3.3333333</speed>
<course>78.0</course>
<ele>88.0</ele>
</trkpt>
<trkpt lat="52.36061453819123" lon="13.3811116218563">
<time>2011-04-09T18:10:47.000+02:00</time>
<speed>3.0555556</speed>
<course>81.0</course>
<ele>88.0</ele>
</trkpt>
<trkpt lat="52.36061453819123" lon="13.381154537200539">
<time>2011-04-09T18:10:48.000+02:00</time>
<speed>3.0555556</speed>
<course>84.0</course>
<ele>88.0</ele>
</trkpt>
<trkpt lat="52.36061453819123" lon="13.381197452544777">
<time>2011-04-09T18:10:49.000+02:00</time>
<speed>3.3333333</speed>
<course>83.0</course>
<ele>88.0</ele>
</trkpt>
<trkpt lat="52.36061453819123" lon="13.381240367889015">
<time>2011-04-09T18:10:50.000+02:00</time>
<speed>3.3333333</speed>
<course>83.0</course>
<ele>88.0</ele>
</trkpt>
<trkpt lat="52.36061453819123" lon="13.381304740905373">
<time>2011-04-09T18:10:51.000+02:00</time>
<speed>3.3333333</speed>
<course>84.0</course>
<ele>88.0</ele>
</trkpt>
<trkpt lat="52.36061453819123" lon="13.381347656249611">
<time>2011-04-09T18:10:52.000+02:00</time>
<speed>3.0555556</speed>
<course>84.0</course>
<ele>88.0</ele>
</trkpt>
<trkpt lat="52.36062526702729" lon="13.38139057159385">
<time>2011-04-09T18:10:53.000+02:00</time>
<speed>3.0555556</speed>
<course>85.0</course>
<ele>88.0</ele>
</trkpt>
<trkpt lat="52.36062526702729" lon="13.381433486938088">
<time>2011-04-09T18:10:54.000+02:00</time>
<speed>3.0555556</speed>
<course>85.0</course>
<ele>88.0</ele>
</trkpt>
<trkpt lat="52.36062526702729" lon="13.381476402282326">
<time>2011-04-09T18:10:55.000+02:00</time>
<speed>3.0555556</speed>
<course>82.0</course>
<ele>88.0</ele>
</trkpt>
<trkpt lat="52.36062526702729" lon="13.381519317626564">
<time>2011-04-09T18:10:56.000+02:00</time>
<speed>2.7777777</speed>
<course>83.0</course>
<ele>88.0</ele>
</trkpt>
<trkpt lat="52.36062526702729" lon="13.381562232970802">
<time>2011-04-09T18:10:57.000+02:00</time>
<speed>2.7777777</speed>
<course>83.0</course>
<ele>88.0</ele>
</trkpt>
<trkpt lat="52.36063599586335" lon="13.38162660598716">
<time>2011-04-09T18:10:58.000+02:00</time>
<speed>3.0555556</speed>
<course>84.0</course>
<ele>88.0</ele>
</trkpt>
<trkpt lat="52.36063599586335" lon="13.381669521331398">
<time>2011-04-09T18:10:59.000+02:00</time>
<speed>3.0555556</speed>
<course>82.0</course>
<ele>88.0</ele>
</trkpt>
<trkpt lat="52.36063599586335" lon="13.381733894347756">
<time>2011-04-09T18:11:00.000+02:00</time>
<speed>3.0555556</speed>
<course>83.0</course>
<ele>88.0</ele>
</trkpt>
<trkpt lat="52.36064672469941" lon="13.381776809691994">
<time>2011-04-09T18:11:01.000+02:00</time>
<speed>2.7777777</speed>
<course>86.0</course>
<ele>89.0</ele>
</trkpt>
<trkpt lat="52.36064672469941" lon="13.381819725036232">
<time>2011-04-09T18:11:02.000+02:00</time>
<speed>2.7777777</speed>
<course>86.0</course>
<ele>89.0</ele>
</trkpt>
<trkpt lat="52.36064672469941" lon="13.381841182708351">
<time>2011-04-09T18:11:03.000+02:00</time>
<speed>1.9444444</speed>
<course>86.0</course>
<ele>89.0</ele>
</trkpt>
<trkpt lat="52.36064672469941" lon="13.38188409805259">
<time>2011-04-09T18:11:04.000+02:00</time>
<speed>1.9444444</speed>
<course>86.0</course>
<ele>89.0</ele>
</trkpt>
<trkpt lat="52.36064672469941" lon="13.381905555724709">
<time>2011-04-09T18:11:05.000+02:00</time>
<speed>1.9444444</speed>
<course>87.0</course>
<ele>89.0</ele>
</trkpt>
<trkpt lat="52.36064672469941" lon="13.381948471068947">
<time>2011-04-09T18:11:06.000+02:00</time>
<speed>1.9444444</speed>
<course>84.0</course>
<ele>89.0</ele>
</trkpt>
<trkpt lat="52.36065745353547" lon="13.381991386413185">
<time>2011-04-09T18:11:07.000+02:00</time>
<speed>2.2222223</speed>
<course>82.0</course>
<ele>89.0</ele>
</trkpt>
<trkpt lat="52.36065745353547" lon="13.382034301757423">
<time>2011-04-09T18:11:08.000+02:00</time>
<speed>1.9444444</speed>
<course>81.0</course>
<ele>89.0</ele>
</trkpt>
<trkpt lat="52.360668182371526" lon="13.382055759429543">
<time>2011-04-09T18:11:09.000+02:00</time>
<speed>1.9444444</speed>
<course>81.0</course>
<ele>89.0</ele>
</trkpt>
<trkpt lat="52.360668182371526" lon="13.382098674773781">
<time>2011-04-09T18:11:10.000+02:00</time>
<speed>1.9444444</speed>
<course>80.0</course>
<ele>89.0</ele>
</trkpt>
<trkpt lat="52.360668182371526" lon="13.38214159011802">
<time>2011-04-09T18:11:11.000+02:00</time>
<speed>1.9444444</speed>
<course>80.0</course>
<ele>89.0</ele>
</trkpt>
<trkpt lat="52.360678911207586" lon="13.382227420806496">
<time>2011-04-09T18:11:13.000+02:00</time>
<speed>2.2222223</speed>
<course>79.0</course>
<ele>89.0</ele>
</trkpt>
<trkpt lat="52.360678911207586" lon="13.382270336150734">
<time>2011-04-09T18:11:14.000+02:00</time>
<speed>2.2222223</speed>
<course>78.0</course>
<ele>89.0</ele>
</trkpt>
<trkpt lat="52.360689640043645" lon="13.382313251494972">
<time>2011-04-09T18:11:15.000+02:00</time>
<speed>2.2222223</speed>
<course>72.0</course>
<ele>89.0</ele>
</trkpt>
<trkpt lat="52.360700368879705" lon="13.38235616683921">
<time>2011-04-09T18:11:16.000+02:00</time>
<speed>2.2222223</speed>
<course>68.0</course>
<ele>89.0</ele>
</trkpt>
<trkpt lat="52.360711097715765" lon="13.382399082183449">
<time>2011-04-09T18:11:17.000+02:00</time>
<speed>1.9444444</speed>
<course>61.0</course>
<ele>89.0</ele>
</trkpt>
<trkpt lat="52.360721826551824" lon="13.382463455199806">
<time>2011-04-09T18:11:18.000+02:00</time>
<speed>1.6666666</speed>
<course>57.0</course>
<ele>89.0</ele>
</trkpt>
<trkpt lat="52.360732555387884" lon="13.382506370544045">
<time>2011-04-09T18:11:19.000+02:00</time>
<speed>1.6666666</speed>
<course>53.0</course>
<ele>89.0</ele>
</trkpt>
<trkpt lat="52.36074328422394" lon="13.382549285888283">
<time>2011-04-09T18:11:20.000+02:00</time>
<speed>1.9444444</speed>
<course>50.0</course>
<ele>89.0</ele>
</trkpt>
<trkpt lat="52.36075401306" lon="13.382570743560402">
<time>2011-04-09T18:11:21.000+02:00</time>
<speed>1.9444444</speed>
<course>47.0</course>
<ele>89.0</ele>
</trkpt>
<trkpt lat="52.36076474189606" lon="13.38261365890464">
<time>2011-04-09T18:11:22.000+02:00</time>
<speed>1.9444444</speed>
<course>40.0</course>
<ele>89.0</ele>
</trkpt>
<trkpt lat="52.36077547073212" lon="13.38263511657676">
<time>2011-04-09T18:11:23.000+02:00</time>
<speed>1.9444444</speed>
<course>37.0</course>
<ele>89.0</ele>
</trkpt>
<trkpt lat="52.36079692840424" lon="13.382656574248879">
<time>2011-04-09T18:11:24.000+02:00</time>
<speed>1.9444444</speed>
<course>36.0</course>
<ele>89.0</ele>
</trkpt>
<trkpt lat="52.3608076572403" lon="13.382678031920998">
<time>2011-04-09T18:11:25.000+02:00</time>
<speed>2.2222223</speed>
<course>32.0</course>
<ele>89.0</ele>
</trkpt>
<trkpt lat="52.36082911491242" lon="13.382720947265236">
<time>2011-04-09T18:11:26.000+02:00</time>
<speed>2.7777777</speed>
<course>31.0</course>
<ele>89.0</ele>
</trkpt>
<trkpt lat="52.36085057258454" lon="13.382763862609474">
<time>2011-04-09T18:11:27.000+02:00</time>
<speed>2.7777777</speed>
<course>30.0</course>
<ele>89.0</ele>
</trkpt>
<trkpt lat="52.3608613014206" lon="13.382785320281593">
<time>2011-04-09T18:11:28.000+02:00</time>
<speed>2.7777777</speed>
<course>30.0</course>
<ele>89.0</ele>
</trkpt>
<trkpt lat="52.36088275909272" lon="13.382828235625832">
<time>2011-04-09T18:11:29.000+02:00</time>
<speed>3.0555556</speed>
<course>27.0</course>
<ele>89.0</ele>
</trkpt>
<trkpt lat="52.360914945600896" lon="13.38284969329795">
<time>2011-04-09T18:11:30.000+02:00</time>
<speed>3.3333333</speed>
<course>23.0</course>
<ele>89.0</ele>
</trkpt>
<trkpt lat="52.360936403273016" lon="13.382892608642189">
<time>2011-04-09T18:11:31.000+02:00</time>
<speed>3.3333333</speed>
<course>23.0</course>
<ele>90.0</ele>
</trkpt>
<trkpt lat="52.360968589781194" lon="13.382914066314308">
<time>2011-04-09T18:11:32.000+02:00</time>
<speed>3.3333333</speed>
<course>21.0</course>
<ele>90.0</ele>
</trkpt>
<trkpt lat="52.36099004745331" lon="13.382935523986427">
<time>2011-04-09T18:11:33.000+02:00</time>
<speed>3.3333333</speed>
<course>20.0</course>
<ele>90.0</ele>
</trkpt>
<trkpt lat="52.36102223396149" lon="13.382956981658547">
<time>2011-04-09T18:11:34.000+02:00</time>
<speed>3.3333333</speed>
<course>21.0</course>
<ele>90.0</ele>
</trkpt>
<trkpt lat="52.36104369163361" lon="13.382999897002785">
<time>2011-04-09T18:11:35.000+02:00</time>
<speed>3.3333333</speed>
<course>24.0</course>
<ele>90.0</ele>
</trkpt>
<trkpt lat="52.36107587814179" lon="13.383021354674904">
<time>2011-04-09T18:11:36.000+02:00</time>
<speed>3.0555556</speed>
<course>24.0</course>
<ele>90.0</ele>
</trkpt>
<trkpt lat="52.36109733581391" lon="13.383042812347023">
<time>2011-04-09T18:11:37.000+02:00</time>
<speed>3.0555556</speed>
<course>26.0</course>
<ele>90.0</ele>
</trkpt>
<trkpt lat="52.36111879348603" lon="13.383064270019142">
<time>2011-04-09T18:11:38.000+02:00</time>
<speed>3.0555556</speed>
<course>28.0</course>
<ele>90.0</ele>
</trkpt>
<trkpt lat="52.36115097999421" lon="13.38310718536338">
<time>2011-04-09T18:11:39.000+02:00</time>
<speed>3.3333333</speed>
<course>29.0</course>
<ele>91.0</ele>
</trkpt>
<trkpt lat="52.361183166502386" lon="13.3831286430355">
<time>2011-04-09T18:11:40.000+02:00</time>
<speed>3.3333333</speed>
<course>31.0</course>
<ele>91.0</ele>
</trkpt>
<trkpt lat="52.361215353010564" lon="13.383171558379738">
<time>2011-04-09T18:11:41.000+02:00</time>
<speed>3.6111112</speed>
<course>31.0</course>
<ele>91.0</ele>
</trkpt>
<trkpt lat="52.36123681068268" lon="13.383193016051857">
<time>2011-04-09T18:11:42.000+02:00</time>
<speed>3.6111112</speed>
<course>30.0</course>
<ele>91.0</ele>
</trkpt>
<trkpt lat="52.36126899719086" lon="13.383235931396095">
<time>2011-04-09T18:11:43.000+02:00</time>
<speed>3.6111112</speed>
<course>29.0</course>
<ele>91.0</ele>
</trkpt>
<trkpt lat="52.36130118369904" lon="13.383257389068214">
<time>2011-04-09T18:11:44.000+02:00</time>
<speed>3.6111112</speed>
<course>26.0</course>
<ele>91.0</ele>
</trkpt>
<trkpt lat="52.36133337020722" lon="13.383278846740334">
<time>2011-04-09T18:11:45.000+02:00</time>
<speed>3.6111112</speed>
<course>24.0</course>
<ele>91.0</ele>
</trkpt>
<trkpt lat="52.3613655567154" lon="13.383321762084572">
<time>2011-04-09T18:11:46.000+02:00</time>
<speed>3.3333333</speed>
<course>23.0</course>
<ele>91.0</ele>
</trkpt>
<trkpt lat="52.36139774322358" lon="13.383343219756691">
<time>2011-04-09T18:11:47.000+02:00</time>
<speed>3.0555556</speed>
<course>23.0</course>
<ele>91.0</ele>
</trkpt>
<trkpt lat="52.361419200895696" lon="13.38336467742881">
<time>2011-04-09T18:11:48.000+02:00</time>
<speed>3.0555556</speed>
<course>24.0</course>
<ele>92.0</ele>
</trkpt>
<trkpt lat="52.361451387403875" lon="13.38338613510093">
<time>2011-04-09T18:11:49.000+02:00</time>
<speed>3.0555556</speed>
<course>24.0</course>
<ele>92.0</ele>
</trkpt>
<trkpt lat="52.361472845075994" lon="13.383407592773048">
<time>2011-04-09T18:11:50.000+02:00</time>
<speed>3.0555556</speed>
<course>23.0</course>
<ele>92.0</ele>
</trkpt>
<trkpt lat="52.36150503158417" lon="13.383429050445168">
<time>2011-04-09T18:11:51.000+02:00</time>
<speed>3.0555556</speed>
<course>23.0</course>
<ele>92.0</ele>
</trkpt>
<trkpt lat="52.36152648925629" lon="13.383450508117287">
<time>2011-04-09T18:11:52.000+02:00</time>
<speed>3.0555556</speed>
<course>22.0</course>
<ele>92.0</ele>
</trkpt>
<trkpt lat="52.36155867576447" lon="13.383471965789406">
<time>2011-04-09T18:11:53.000+02:00</time>
<speed>3.0555556</speed>
<course>24.0</course>
<ele>92.0</ele>
</trkpt>
<trkpt lat="52.36159086227265" lon="13.383514881133644">
<time>2011-04-09T18:11:54.000+02:00</time>
<speed>3.3333333</speed>
<course>25.0</course>
<ele>92.0</ele>
</trkpt>
<trkpt lat="52.36162304878083" lon="13.383536338805763">
<time>2011-04-09T18:11:55.000+02:00</time>
<speed>3.6111112</speed>
<course>26.0</course>
<ele>92.0</ele>
</trkpt>
<trkpt lat="52.36165523528901" lon="13.383579254150002">
<time>2011-04-09T18:11:56.000+02:00</time>
<speed>4.1666665</speed>
<course>28.0</course>
<ele>92.0</ele>
</trkpt>
<trkpt lat="52.361687421797185" lon="13.38362216949424">
<time>2011-04-09T18:11:57.000+02:00</time>
<speed>4.1666665</speed>
<course>27.0</course>
<ele>92.0</ele>
</trkpt>
<trkpt lat="52.361730337141424" lon="13.383665084838478">
<time>2011-04-09T18:11:58.000+02:00</time>
<speed>4.7222223</speed>
<course>28.0</course>
<ele>92.0</ele>
</trkpt>
<trkpt lat="52.36177325248566" lon="13.383708000182716">
<time>2011-04-09T18:11:59.000+02:00</time>
<speed>5.0</speed>
<course>29.0</course>
<ele>92.0</ele>
</trkpt>
<trkpt lat="52.3618161678299" lon="13.383750915526955">
<time>2011-04-09T18:12:00.000+02:00</time>
<speed>5.0</speed>
<course>29.0</course>
<ele>92.0</ele>
</trkpt>
<trkpt lat="52.36185908317414" lon="13.383793830871193">
<time>2011-04-09T18:12:01.000+02:00</time>
<speed>5.0</speed>
<course>28.0</course>
<ele>92.0</ele>
</trkpt>
<trkpt lat="52.36190199851838" lon="13.383836746215431">
<time>2011-04-09T18:12:02.000+02:00</time>
<speed>5.0</speed>
<course>28.0</course>
<ele>92.0</ele>
</trkpt>
<trkpt lat="52.361944913862615" lon="13.38385820388755">
<time>2011-04-09T18:12:03.000+02:00</time>
<speed>5.0</speed>
<course>26.0</course>
<ele>92.0</ele>
</trkpt>
<trkpt lat="52.36198782920685" lon="13.383901119231789">
<time>2011-04-09T18:12:04.000+02:00</time>
<speed>5.0</speed>
<course>25.0</course>
<ele>92.0</ele>
</trkpt>
<trkpt lat="52.36203074455109" lon="13.383944034576027">
<time>2011-04-09T18:12:05.000+02:00</time>
<speed>5.0</speed>
<course>25.0</course>
<ele>92.0</ele>
</trkpt>
<trkpt lat="52.36207365989533" lon="13.383965492248146">
<time>2011-04-09T18:12:06.000+02:00</time>
<speed>5.0</speed>
<course>24.0</course>
<ele>92.0</ele>
</trkpt>
<trkpt lat="52.36211657523957" lon="13.384008407592384">
<time>2011-04-09T18:12:07.000+02:00</time>
<speed>5.0</speed>
<course>24.0</course>
<ele>92.0</ele>
</trkpt>
<trkpt lat="52.362170219419866" lon="13.384029865264504">
<time>2011-04-09T18:12:08.000+02:00</time>
<speed>5.0</speed>
<course>25.0</course>
<ele>92.0</ele>
</trkpt>
<trkpt lat="52.362213134764104" lon="13.384072780608742">
<time>2011-04-09T18:12:09.000+02:00</time>
<speed>5.0</speed>
<course>24.0</course>
<ele>92.0</ele>
</trkpt>
<trkpt lat="52.36225605010834" lon="13.384094238280861">
<time>2011-04-09T18:12:10.000+02:00</time>
<speed>5.0</speed>
<course>25.0</course>
<ele>92.0</ele>
</trkpt>
<trkpt lat="52.36229896545258" lon="13.3841371536251">
<time>2011-04-09T18:12:11.000+02:00</time>
<speed>5.0</speed>
<course>24.0</course>
<ele>92.0</ele>
</trkpt>
<trkpt lat="52.36234188079682" lon="13.384158611297218">
<time>2011-04-09T18:12:12.000+02:00</time>
<speed>4.1666665</speed>
<course>26.0</course>
<ele>92.0</ele>
</trkpt>
<trkpt lat="52.362374067305" lon="13.384201526641457">
<time>2011-04-09T18:12:13.000+02:00</time>
<speed>3.6111112</speed>
<course>26.0</course>
<ele>92.0</ele>
</trkpt>
<trkpt lat="52.36240625381318" lon="13.384222984313576">
<time>2011-04-09T18:12:14.000+02:00</time>
<speed>3.0555556</speed>
<course>25.0</course>
<ele>92.0</ele>
</trkpt>
<trkpt lat="52.362427711485296" lon="13.384244441985695">
<time>2011-04-09T18:12:15.000+02:00</time>
<speed>3.3333333</speed>
<course>26.0</course>
<ele>92.0</ele>
</trkpt>
<trkpt lat="52.36249208450165" lon="13.384287357329933">
<time>2011-04-09T18:12:17.000+02:00</time>
<speed>3.3333333</speed>
<course>28.0</course>
<ele>92.0</ele>
</trkpt>
<trkpt lat="52.36253499984589" lon="13.384330272674172">
<time>2011-04-09T18:12:18.000+02:00</time>
<speed>4.4444447</speed>
<course>28.0</course>
<ele>92.0</ele>
</trkpt>
<trkpt lat="52.36256718635407" lon="13.38437318801841">
<time>2011-04-09T18:12:19.000+02:00</time>
<speed>4.7222223</speed>
<course>29.0</course>
<ele>91.0</ele>
</trkpt>
<trkpt lat="52.36261010169831" lon="13.384437561034767">
<time>2011-04-09T18:12:20.000+02:00</time>
<speed>4.7222223</speed>
<course>30.0</course>
<ele>91.0</ele>
</trkpt>
<trkpt lat="52.36265301704255" lon="13.384480476379006">
<time>2011-04-09T18:12:21.000+02:00</time>
<speed>4.7222223</speed>
<course>29.0</course>
<ele>91.0</ele>
</trkpt>
<trkpt lat="52.362695932386785" lon="13.384544849395363">
<time>2011-04-09T18:12:22.000+02:00</time>
<speed>5.0</speed>
<course>30.0</course>
<ele>91.0</ele>
</trkpt>
<trkpt lat="52.36273884773102" lon="13.384587764739601">
<time>2011-04-09T18:12:23.000+02:00</time>
<speed>5.2777777</speed>
<course>28.0</course>
<ele>91.0</ele>
</trkpt>
<trkpt lat="52.36278176307526" lon="13.38463068008384">
<time>2011-04-09T18:12:24.000+02:00</time>
<speed>5.2777777</speed>
<course>28.0</course>
<ele>91.0</ele>
</trkpt>
<trkpt lat="52.3628246784195" lon="13.384652137755959">
<time>2011-04-09T18:12:25.000+02:00</time>
<speed>5.0</speed>
<course>27.0</course>
<ele>91.0</ele>
</trkpt>
<trkpt lat="52.36285686492768" lon="13.384695053100197">
<time>2011-04-09T18:12:26.000+02:00</time>
<speed>4.1666665</speed>
<course>27.0</course>
<ele>90.0</ele>
</trkpt>
<trkpt lat="52.36289978027192" lon="13.384716510772316">
<time>2011-04-09T18:12:27.000+02:00</time>
<speed>4.1666665</speed>
<course>26.0</course>
<ele>90.0</ele>
</trkpt>
<trkpt lat="52.362931966780096" lon="13.384737968444435">
<time>2011-04-09T18:12:28.000+02:00</time>
<speed>4.1666665</speed>
<course>26.0</course>
<ele>90.0</ele>
</trkpt>
<trkpt lat="52.362964153288274" lon="13.384759426116554">
<time>2011-04-09T18:12:29.000+02:00</time>
<speed>3.6111112</speed>
<course>25.0</course>
<ele>90.0</ele>
</trkpt>
<trkpt lat="52.36298561096039" lon="13.384802341460793">
<time>2011-04-09T18:12:30.000+02:00</time>
<speed>3.6111112</speed>
<course>25.0</course>
<ele>90.0</ele>
</trkpt>
<trkpt lat="52.36301779746857" lon="13.384823799132912">
<time>2011-04-09T18:12:31.000+02:00</time>
<speed>3.6111112</speed>
<course>24.0</course>
<ele>90.0</ele>
</trkpt>
<trkpt lat="52.36304998397675" lon="13.384845256805031">
<time>2011-04-09T18:12:32.000+02:00</time>
<speed>3.6111112</speed>
<course>24.0</course>
<ele>90.0</ele>
</trkpt>
<trkpt lat="52.36308217048493" lon="13.38486671447715">
<time>2011-04-09T18:12:33.000+02:00</time>
<speed>3.6111112</speed>
<course>24.0</course>
<ele>90.0</ele>
</trkpt>
<trkpt lat="52.36312508582917" lon="13.38488817214927">
<time>2011-04-09T18:12:34.000+02:00</time>
<speed>3.6111112</speed>
<course>25.0</course>
<ele>90.0</ele>
</trkpt>
<trkpt lat="52.36314654350129" lon="13.384909629821388">
<time>2011-04-09T18:12:35.000+02:00</time>
<speed>3.6111112</speed>
<course>27.0</course>
<ele>90.0</ele>
</trkpt>
<trkpt lat="52.363178730009466" lon="13.384952545165627">
<time>2011-04-09T18:12:36.000+02:00</time>
<speed>3.6111112</speed>
<course>27.0</course>
<ele>90.0</ele>
</trkpt>
<trkpt lat="52.363210916517644" lon="13.384974002837746">
<time>2011-04-09T18:12:37.000+02:00</time>
<speed>3.6111112</speed>
<course>26.0</course>
<ele>90.0</ele>
</trkpt>
<trkpt lat="52.36324310302582" lon="13.384995460509865">
<time>2011-04-09T18:12:38.000+02:00</time>
<speed>3.6111112</speed>
<course>27.0</course>
<ele>90.0</ele>
</trkpt>
<trkpt lat="52.363275289534" lon="13.385016918181984">
<time>2011-04-09T18:12:39.000+02:00</time>
<speed>3.6111112</speed>
<course>26.0</course>
<ele>90.0</ele>
</trkpt>
<trkpt lat="52.36330747604218" lon="13.385038375854103">
<time>2011-04-09T18:12:40.000+02:00</time>
<speed>3.6111112</speed>
<course>25.0</course>
<ele>90.0</ele>
</trkpt>
<trkpt lat="52.36333966255036" lon="13.385081291198341">
<time>2011-04-09T18:12:41.000+02:00</time>
<speed>3.6111112</speed>
<course>24.0</course>
<ele>90.0</ele>
</trkpt>
<trkpt lat="52.3633825778946" lon="13.38510274887046">
<time>2011-04-09T18:12:42.000+02:00</time>
<speed>3.6111112</speed>
<course>24.0</course>
<ele>90.0</ele>
</trkpt>
<trkpt lat="52.363414764402776" lon="13.38512420654258">
<time>2011-04-09T18:12:43.000+02:00</time>
<speed>3.6111112</speed>
<course>24.0</course>
<ele>90.0</ele>
</trkpt>
<trkpt lat="52.363446950910955" lon="13.385145664214699">
<time>2011-04-09T18:12:44.000+02:00</time>
<speed>3.6111112</speed>
<course>23.0</course>
<ele>90.0</ele>
</trkpt>
<trkpt lat="52.363479137419134" lon="13.385167121886818">
<time>2011-04-09T18:12:45.000+02:00</time>
<speed>3.6111112</speed>
<course>24.0</course>
<ele>90.0</ele>
</trkpt>
<trkpt lat="52.36351132392731" lon="13.385188579558937">
<time>2011-04-09T18:12:46.000+02:00</time>
<speed>3.6111112</speed>
<course>25.0</course>
<ele>90.0</ele>
</trkpt>
<trkpt lat="52.36353278159943" lon="13.385231494903175">
<time>2011-04-09T18:12:47.000+02:00</time>
<speed>3.6111112</speed>
<course>25.0</course>
<ele>90.0</ele>
</trkpt>
<trkpt lat="52.36356496810761" lon="13.385252952575295">
<time>2011-04-09T18:12:48.000+02:00</time>
<speed>3.6111112</speed>
<course>25.0</course>
<ele>90.0</ele>
</trkpt>
<trkpt lat="52.36359715461579" lon="13.385274410247414">
<time>2011-04-09T18:12:49.000+02:00</time>
<speed>3.6111112</speed>
<course>26.0</course>
<ele>90.0</ele>
</trkpt>
<trkpt lat="52.36362934112397" lon="13.385295867919533">
<time>2011-04-09T18:12:50.000+02:00</time>
<speed>3.3333333</speed>
<course>25.0</course>
<ele>90.0</ele>
</trkpt>
<trkpt lat="52.36365079879609" lon="13.385317325591652">
<time>2011-04-09T18:12:51.000+02:00</time>
<speed>3.0555556</speed>
<course>26.0</course>
<ele>89.0</ele>
</trkpt>
<trkpt lat="52.363682985304266" lon="13.385338783263771">
<time>2011-04-09T18:12:52.000+02:00</time>
<speed>3.0555556</speed>
<course>25.0</course>
<ele>89.0</ele>
</trkpt>
<trkpt lat="52.363704442976385" lon="13.38536024093589">
<time>2011-04-09T18:12:53.000+02:00</time>
<speed>3.0555556</speed>
<course>26.0</course>
<ele>89.0</ele>
</trkpt>
<trkpt lat="52.363725900648504" lon="13.38538169860801">
<time>2011-04-09T18:12:54.000+02:00</time>
<speed>2.7777777</speed>
<course>28.0</course>
<ele>89.0</ele>
</trkpt>
<trkpt lat="52.36374735832062" lon="13.385403156280129">
<time>2011-04-09T18:12:55.000+02:00</time>
<speed>2.2222223</speed>
<course>27.0</course>
<ele>89.0</ele>
</trkpt>
<trkpt lat="52.36376881599274" lon="13.385424613952248">
<time>2011-04-09T18:12:56.000+02:00</time>
<speed>2.2222223</speed>
<course>25.0</course>
<ele>89.0</ele>
</trkpt>
<trkpt lat="52.3637795448288" lon="13.385446071624367">
<time>2011-04-09T18:12:57.000+02:00</time>
<speed>2.2222223</speed>
<course>24.0</course>
<ele>89.0</ele>
</trkpt>
<trkpt lat="52.36380100250092" lon="13.385446071624367">
<time>2011-04-09T18:12:58.000+02:00</time>
<speed>2.2222223</speed>
<course>25.0</course>
<ele>89.0</ele>
</trkpt>
<trkpt lat="52.36382246017304" lon="13.385467529296486">
<time>2011-04-09T18:12:59.000+02:00</time>
<speed>2.2222223</speed>
<course>24.0</course>
<ele>89.0</ele>
</trkpt>
<trkpt lat="52.36384391784516" lon="13.385488986968605">
<time>2011-04-09T18:13:00.000+02:00</time>
<speed>2.2222223</speed>
<course>24.0</course>
<ele>89.0</ele>
</trkpt>
<trkpt lat="52.36386537551728" lon="13.385510444640724">
<time>2011-04-09T18:13:01.000+02:00</time>
<speed>2.2222223</speed>
<course>25.0</course>
<ele>89.0</ele>
</trkpt>
<trkpt lat="52.36387610435334" lon="13.385531902312843">
<time>2011-04-09T18:13:02.000+02:00</time>
<speed>2.5</speed>
<course>25.0</course>
<ele>89.0</ele>
</trkpt>
<trkpt lat="52.36389756202546" lon="13.385553359984963">
<time>2011-04-09T18:13:03.000+02:00</time>
<speed>2.5</speed>
<course>27.0</course>
<ele>89.0</ele>
</trkpt>
<trkpt lat="52.363929748533636" lon="13.385574817657082">
<time>2011-04-09T18:13:04.000+02:00</time>
<speed>2.5</speed>
<course>26.0</course>
<ele>89.0</ele>
</trkpt>
<trkpt lat="52.363951206205755" lon="13.3855962753292">
<time>2011-04-09T18:13:05.000+02:00</time>
<speed>2.5</speed>
<course>24.0</course>
<ele>89.0</ele>
</trkpt>
<trkpt lat="52.363972663877874" lon="13.38561773300132">
<time>2011-04-09T18:13:06.000+02:00</time>
<speed>2.5</speed>
<course>26.0</course>
<ele>89.0</ele>
</trkpt>
<trkpt lat="52.36398339271393" lon="13.385639190673439">
<time>2011-04-09T18:13:07.000+02:00</time>
<speed>2.5</speed>
<course>41.0</course>
<ele>89.0</ele>
</trkpt>
<trkpt lat="52.36400485038605" lon="13.385682106017677">
<time>2011-04-09T18:13:08.000+02:00</time>
<speed>2.7777777</speed>
<course>37.0</course>
<ele>89.0</ele>
</trkpt>
<trkpt lat="52.36402630805817" lon="13.385703563689797">
<time>2011-04-09T18:13:09.000+02:00</time>
<speed>2.7777777</speed>
<course>21.0</course>
<ele>89.0</ele>
</trkpt>
<trkpt lat="52.36405849456635" lon="13.385725021361916">
<time>2011-04-09T18:13:10.000+02:00</time>
<speed>2.7777777</speed>
<course>19.0</course>
<ele>89.0</ele>
</trkpt>
<trkpt lat="52.36407995223847" lon="13.385725021361916">
<time>2011-04-09T18:13:11.000+02:00</time>
<speed>2.7777777</speed>
<course>18.0</course>
<ele>89.0</ele>
</trkpt>
<trkpt lat="52.36410140991059" lon="13.385746479034035">
<time>2011-04-09T18:13:12.000+02:00</time>
<speed>2.7777777</speed>
<course>18.0</course>
<ele>89.0</ele>
</trkpt>
<trkpt lat="52.36413359641877" lon="13.385767936706154">
<time>2011-04-09T18:13:13.000+02:00</time>
<speed>2.7777777</speed>
<course>14.0</course>
<ele>89.0</ele>
</trkpt>
<trkpt lat="52.364187240599065" lon="13.385789394378273">
<time>2011-04-09T18:13:15.000+02:00</time>
<speed>2.7777777</speed>
<course>15.0</course>
<ele>89.0</ele>
</trkpt>
<trkpt lat="52.364208698271185" lon="13.385810852050392">
<time>2011-04-09T18:13:16.000+02:00</time>
<speed>2.7777777</speed>
<course>14.0</course>
<ele>89.0</ele>
</trkpt>
<trkpt lat="52.36424088477936" lon="13.385810852050392">
<time>2011-04-09T18:13:17.000+02:00</time>
<speed>2.5</speed>
<course>12.0</course>
<ele>89.0</ele>
</trkpt>
<trkpt lat="52.36426234245148" lon="13.385810852050392">
<time>2011-04-09T18:13:18.000+02:00</time>
<speed>2.7777777</speed>
<course>8.0</course>
<ele>89.0</ele>
</trkpt>
<trkpt lat="52.36429452895966" lon="13.385832309722511">
<time>2011-04-09T18:13:19.000+02:00</time>
<speed>2.5</speed>
<course>7.0</course>
<ele>88.0</ele>
</trkpt>
<trkpt lat="52.36431598663178" lon="13.385832309722511">
<time>2011-04-09T18:13:20.000+02:00</time>
<speed>2.5</speed>
<course>6.0</course>
<ele>88.0</ele>
</trkpt>
<trkpt lat="52.36434817313996" lon="13.385832309722511">
<time>2011-04-09T18:13:21.000+02:00</time>
<speed>2.7777777</speed>
<course>6.0</course>
<ele>88.0</ele>
</trkpt>
<trkpt lat="52.36436963081208" lon="13.38585376739463">
<time>2011-04-09T18:13:22.000+02:00</time>
<speed>2.7777777</speed>
<course>5.0</course>
<ele>88.0</ele>
</trkpt>
<trkpt lat="52.3643910884842" lon="13.38585376739463">
<time>2011-04-09T18:13:23.000+02:00</time>
<speed>2.2222223</speed>
<course>7.0</course>
<ele>88.0</ele>
</trkpt>
<trkpt lat="52.364412546156316" lon="13.38585376739463">
<time>2011-04-09T18:13:24.000+02:00</time>
<speed>1.3888888</speed>
<course>7.0</course>
<ele>88.0</ele>
</trkpt>
<trkpt lat="52.364423274992376" lon="13.38585376739463">
<time>2011-04-09T18:13:25.000+02:00</time>
<speed>1.3888888</speed>
<course>5.0</course>
<ele>88.0</ele>
</trkpt>
<trkpt lat="52.364434003828435" lon="13.38587522506675">
<time>2011-04-09T18:13:26.000+02:00</time>
<speed>1.3888888</speed>
<course>18.0</course>
<ele>88.0</ele>
</trkpt>
<trkpt lat="52.364434003828435" lon="13.38587522506675">
<time>2011-04-09T18:13:27.000+02:00</time>
<speed>0.0</speed>
<course>18.0</course>
<ele>88.0</ele>
</trkpt>
<trkpt lat="52.364434003828435" lon="13.38587522506675">
<time>2011-04-09T18:13:28.000+02:00</time>
<speed>0.0</speed>
<course>18.0</course>
<ele>88.0</ele>
</trkpt>
<trkpt lat="52.364434003828435" lon="13.38587522506675">
<time>2011-04-09T18:13:29.000+02:00</time>
<speed>0.0</speed>
<course>18.0</course>
<ele>88.0</ele>
</trkpt>
<trkpt lat="52.364434003828435" lon="13.38587522506675">
<time>2011-04-09T18:13:30.000+02:00</time>
<speed>0.0</speed>
<course>18.0</course>
<ele>88.0</ele>
</trkpt>
<trkpt lat="52.364434003828435" lon="13.38587522506675">
<time>2011-04-09T18:13:31.000+02:00</time>
<speed>0.0</speed>
<course>18.0</course>
<ele>88.0</ele>
</trkpt>
<trkpt lat="52.364434003828435" lon="13.38587522506675">
<time>2011-04-09T18:13:32.000+02:00</time>
<speed>0.0</speed>
<course>18.0</course>
<ele>88.0</ele>
</trkpt>
<trkpt lat="52.364434003828435" lon="13.38587522506675">
<time>2011-04-09T18:13:33.000+02:00</time>
<speed>0.0</speed>
<course>18.0</course>
<ele>88.0</ele>
</trkpt>
<trkpt lat="52.364434003828435" lon="13.38587522506675">
<time>2011-04-09T18:13:34.000+02:00</time>
<speed>0.0</speed>
<course>18.0</course>
<ele>88.0</ele>
</trkpt>
<trkpt lat="52.364434003828435" lon="13.38587522506675">
<time>2011-04-09T18:13:35.000+02:00</time>
<speed>0.0</speed>
<course>18.0</course>
<ele>88.0</ele>
</trkpt>
<trkpt lat="52.364434003828435" lon="13.38587522506675">
<time>2011-04-09T18:13:36.000+02:00</time>
<speed>0.0</speed>
<course>18.0</course>
<ele>88.0</ele>
</trkpt>
<trkpt lat="52.364434003828435" lon="13.38587522506675">
<time>2011-04-09T18:13:37.000+02:00</time>
<speed>0.0</speed>
<course>18.0</course>
<ele>88.0</ele>
</trkpt>
<trkpt lat="52.364434003828435" lon="13.38587522506675">
<time>2011-04-09T18:13:38.000+02:00</time>
<speed>0.0</speed>
<course>18.0</course>
<ele>88.0</ele>
</trkpt>
<trkpt lat="52.364434003828435" lon="13.38587522506675">
<time>2011-04-09T18:13:39.000+02:00</time>
<speed>0.0</speed>
<course>18.0</course>
<ele>88.0</ele>
</trkpt>
<trkpt lat="52.364434003828435" lon="13.38587522506675">
<time>2011-04-09T18:13:40.000+02:00</time>
<speed>0.0</speed>
<course>18.0</course>
<ele>88.0</ele>
</trkpt>
<trkpt lat="52.364434003828435" lon="13.38587522506675">
<time>2011-04-09T18:13:41.000+02:00</time>
<speed>0.0</speed>
<course>18.0</course>
<ele>88.0</ele>
</trkpt>
<trkpt lat="52.364434003828435" lon="13.38587522506675">
<time>2011-04-09T18:13:42.000+02:00</time>
<speed>0.0</speed>
<course>18.0</course>
<ele>88.0</ele>
</trkpt>
<trkpt lat="52.364434003828435" lon="13.38587522506675">
<time>2011-04-09T18:13:43.000+02:00</time>
<speed>0.0</speed>
<course>18.0</course>
<ele>88.0</ele>
</trkpt>
<trkpt lat="52.364434003828435" lon="13.38587522506675">
<time>2011-04-09T18:13:44.000+02:00</time>
<speed>0.0</speed>
<course>18.0</course>
<ele>88.0</ele>
</trkpt>
<trkpt lat="52.364434003828435" lon="13.38587522506675">
<time>2011-04-09T18:13:45.000+02:00</time>
<speed>0.0</speed>
<course>18.0</course>
<ele>88.0</ele>
</trkpt>
<trkpt lat="52.364434003828435" lon="13.38587522506675">
<time>2011-04-09T18:13:46.000+02:00</time>
<speed>0.0</speed>
<course>18.0</course>
<ele>88.0</ele>
</trkpt>
<trkpt lat="52.364434003828435" lon="13.38587522506675">
<time>2011-04-09T18:13:47.000+02:00</time>
<speed>0.0</speed>
<course>18.0</course>
<ele>88.0</ele>
</trkpt>
<trkpt lat="52.364434003828435" lon="13.38587522506675">
<time>2011-04-09T18:13:48.000+02:00</time>
<speed>0.0</speed>
<course>18.0</course>
<ele>88.0</ele>
</trkpt>
<trkpt lat="52.364434003828435" lon="13.38587522506675">
<time>2011-04-09T18:13:49.000+02:00</time>
<speed>0.0</speed>
<course>18.0</course>
<ele>88.0</ele>
</trkpt>
<trkpt lat="52.364434003828435" lon="13.38587522506675">
<time>2011-04-09T18:13:50.000+02:00</time>
<speed>0.0</speed>
<course>18.0</course>
<ele>88.0</ele>
</trkpt>
<trkpt lat="52.364434003828435" lon="13.38587522506675">
<time>2011-04-09T18:13:51.000+02:00</time>
<speed>0.0</speed>
<course>18.0</course>
<ele>88.0</ele>
</trkpt>
<trkpt lat="52.364434003828435" lon="13.38587522506675">
<time>2011-04-09T18:13:52.000+02:00</time>
<speed>0.0</speed>
<course>18.0</course>
<ele>88.0</ele>
</trkpt>
<trkpt lat="52.364434003828435" lon="13.38587522506675">
<time>2011-04-09T18:13:53.000+02:00</time>
<speed>0.0</speed>
<course>18.0</course>
<ele>88.0</ele>
</trkpt>
<trkpt lat="52.364434003828435" lon="13.38587522506675">
<time>2011-04-09T18:13:54.000+02:00</time>
<speed>0.0</speed>
<course>18.0</course>
<ele>88.0</ele>
</trkpt>
<trkpt lat="52.364434003828435" lon="13.38587522506675">
<time>2011-04-09T18:13:55.000+02:00</time>
<speed>0.0</speed>
<course>18.0</course>
<ele>88.0</ele>
</trkpt>
<trkpt lat="52.364434003828435" lon="13.38587522506675">
<time>2011-04-09T18:13:56.000+02:00</time>
<speed>0.0</speed>
<course>18.0</course>
<ele>88.0</ele>
</trkpt>
<trkpt lat="52.364434003828435" lon="13.38587522506675">
<time>2011-04-09T18:13:57.000+02:00</time>
<speed>0.0</speed>
<course>18.0</course>
<ele>88.0</ele>
</trkpt>
<trkpt lat="52.364434003828435" lon="13.38587522506675">
<time>2011-04-09T18:13:58.000+02:00</time>
<speed>0.0</speed>
<course>18.0</course>
<ele>88.0</ele>
</trkpt>
<trkpt lat="52.364434003828435" lon="13.38587522506675">
<time>2011-04-09T18:13:59.000+02:00</time>
<speed>0.0</speed>
<course>18.0</course>
<ele>88.0</ele>
</trkpt>
<trkpt lat="52.364434003828435" lon="13.38587522506675">
<time>2011-04-09T18:14:00.000+02:00</time>
<speed>0.0</speed>
<course>18.0</course>
<ele>88.0</ele>
</trkpt>
<trkpt lat="52.364434003828435" lon="13.38587522506675">
<time>2011-04-09T18:14:01.000+02:00</time>
<speed>0.0</speed>
<course>18.0</course>
<ele>88.0</ele>
</trkpt>
<trkpt lat="52.364434003828435" lon="13.38587522506675">
<time>2011-04-09T18:14:02.000+02:00</time>
<speed>0.0</speed>
<course>18.0</course>
<ele>88.0</ele>
</trkpt>
<trkpt lat="52.364434003828435" lon="13.38587522506675">
<time>2011-04-09T18:14:03.000+02:00</time>
<speed>0.0</speed>
<course>18.0</course>
<ele>88.0</ele>
</trkpt>
<trkpt lat="52.364434003828435" lon="13.38587522506675">
<time>2011-04-09T18:14:04.000+02:00</time>
<speed>0.0</speed>
<course>18.0</course>
<ele>88.0</ele>
</trkpt>
<trkpt lat="52.364434003828435" lon="13.38587522506675">
<time>2011-04-09T18:14:05.000+02:00</time>
<speed>0.0</speed>
<course>18.0</course>
<ele>88.0</ele>
</trkpt>
<trkpt lat="52.364434003828435" lon="13.38587522506675">
<time>2011-04-09T18:14:06.000+02:00</time>
<speed>0.0</speed>
<course>18.0</course>
<ele>88.0</ele>
</trkpt>
<trkpt lat="52.364434003828435" lon="13.38587522506675">
<time>2011-04-09T18:14:07.000+02:00</time>
<speed>0.0</speed>
<course>18.0</course>
<ele>88.0</ele>
</trkpt>
<trkpt lat="52.364434003828435" lon="13.38587522506675">
<time>2011-04-09T18:14:08.000+02:00</time>
<speed>0.0</speed>
<course>18.0</course>
<ele>88.0</ele>
</trkpt>
<trkpt lat="52.364434003828435" lon="13.38587522506675">
<time>2011-04-09T18:14:09.000+02:00</time>
<speed>0.0</speed>
<course>18.0</course>
<ele>88.0</ele>
</trkpt>
<trkpt lat="52.36448764800873" lon="13.385961055755226">
<time>2011-04-09T18:14:10.000+02:00</time>
<speed>1.1111112</speed>
<course>53.0</course>
<ele>87.0</ele>
</trkpt>
<trkpt lat="52.36451983451691" lon="13.386025428771584">
<time>2011-04-09T18:14:12.000+02:00</time>
<speed>1.6666666</speed>
<course>53.0</course>
<ele>87.0</ele>
</trkpt>
<trkpt lat="52.36451983451691" lon="13.386046886443703">
<time>2011-04-09T18:14:13.000+02:00</time>
<speed>1.3888888</speed>
<course>70.0</course>
<ele>87.0</ele>
</trkpt>
<trkpt lat="52.36453056335297" lon="13.386068344115822">
<time>2011-04-09T18:14:14.000+02:00</time>
<speed>1.3888888</speed>
<course>71.0</course>
<ele>87.0</ele>
</trkpt>
<trkpt lat="52.36453056335297" lon="13.386089801787941">
<time>2011-04-09T18:14:15.000+02:00</time>
<speed>1.3888888</speed>
<course>74.0</course>
<ele>87.0</ele>
</trkpt>
<trkpt lat="52.36453056335297" lon="13.38611125946006">
<time>2011-04-09T18:14:16.000+02:00</time>
<speed>1.1111112</speed>
<course>77.0</course>
<ele>87.0</ele>
</trkpt>
<trkpt lat="52.36453056335297" lon="13.386154174804298">
<time>2011-04-09T18:14:17.000+02:00</time>
<speed>1.1111112</speed>
<course>78.0</course>
<ele>87.0</ele>
</trkpt>
<trkpt lat="52.36454129218903" lon="13.386175632476418">
<time>2011-04-09T18:14:18.000+02:00</time>
<speed>1.1111112</speed>
<course>80.0</course>
<ele>87.0</ele>
</trkpt>
<trkpt lat="52.36454129218903" lon="13.386175632476418">
<time>2011-04-09T18:14:19.000+02:00</time>
<speed>0.0</speed>
<course>80.0</course>
<ele>87.0</ele>
</trkpt>
<trkpt lat="52.36454129218903" lon="13.386175632476418">
<time>2011-04-09T18:14:20.000+02:00</time>
<speed>0.0</speed>
<course>80.0</course>
<ele>87.0</ele>
</trkpt>
<trkpt lat="52.36453056335297" lon="13.386218547820656">
<time>2011-04-09T18:14:21.000+02:00</time>
<speed>1.1111112</speed>
<course>79.0</course>
<ele>87.0</ele>
</trkpt>
<trkpt lat="52.36453056335297" lon="13.386240005492775">
<time>2011-04-09T18:14:22.000+02:00</time>
<speed>1.1111112</speed>
<course>83.0</course>
<ele>87.0</ele>
</trkpt>
<trkpt lat="52.36453056335297" lon="13.386261463164894">
<time>2011-04-09T18:14:23.000+02:00</time>
<speed>1.1111112</speed>
<course>83.0</course>
<ele>87.0</ele>
</trkpt>
<trkpt lat="52.36453056335297" lon="13.386282920837013">
<time>2011-04-09T18:14:24.000+02:00</time>
<speed>1.1111112</speed>
<course>85.0</course>
<ele>87.0</ele>
</trkpt>
<trkpt lat="52.36453056335297" lon="13.386304378509132">
<time>2011-04-09T18:14:25.000+02:00</time>
<speed>1.1111112</speed>
<course>86.0</course>
<ele>87.0</ele>
</trkpt>
<trkpt lat="52.36453056335297" lon="13.386325836181252">
<time>2011-04-09T18:14:26.000+02:00</time>
<speed>1.3888888</speed>
<course>87.0</course>
<ele>87.0</ele>
</trkpt>
<trkpt lat="52.36453056335297" lon="13.38634729385337">
<time>2011-04-09T18:14:27.000+02:00</time>
<speed>1.1111112</speed>
<course>87.0</course>
<ele>88.0</ele>
</trkpt>
<trkpt lat="52.36453056335297" lon="13.38636875152549">
<time>2011-04-09T18:14:28.000+02:00</time>
<speed>1.1111112</speed>
<course>85.0</course>
<ele>88.0</ele>
</trkpt>
<trkpt lat="52.36454129218903" lon="13.386390209197609">
<time>2011-04-09T18:14:29.000+02:00</time>
<speed>1.1111112</speed>
<course>82.0</course>
<ele>88.0</ele>
</trkpt>
<trkpt lat="52.36454129218903" lon="13.386411666869728">
<time>2011-04-09T18:14:30.000+02:00</time>
<speed>1.1111112</speed>
<course>59.0</course>
<ele>88.0</ele>
</trkpt>
<trkpt lat="52.36454129218903" lon="13.386411666869728">
<time>2011-04-09T18:14:31.000+02:00</time>
<speed>1.1111112</speed>
<course>59.0</course>
<ele>88.0</ele>
</trkpt>
<trkpt lat="52.36454129218903" lon="13.386411666869728">
<time>2011-04-09T18:14:32.000+02:00</time>
<speed>0.0</speed>
<course>59.0</course>
<ele>88.0</ele>
</trkpt>
<trkpt lat="52.36454129218903" lon="13.386411666869728">
<time>2011-04-09T18:14:33.000+02:00</time>
<speed>0.0</speed>
<course>59.0</course>
<ele>88.0</ele>
</trkpt>
<trkpt lat="52.36454129218903" lon="13.386411666869728">
<time>2011-04-09T18:14:34.000+02:00</time>
<speed>0.0</speed>
<course>59.0</course>
<ele>88.0</ele>
</trkpt>
<trkpt lat="52.36454129218903" lon="13.386411666869728">
<time>2011-04-09T18:14:35.000+02:00</time>
<speed>0.0</speed>
<course>59.0</course>
<ele>88.0</ele>
</trkpt>
<trkpt lat="52.36454129218903" lon="13.386411666869728">
<time>2011-04-09T18:14:36.000+02:00</time>
<speed>0.0</speed>
<course>59.0</course>
<ele>88.0</ele>
</trkpt>
<trkpt lat="52.36454129218903" lon="13.386411666869728">
<time>2011-04-09T18:14:37.000+02:00</time>
<speed>0.0</speed>
<course>59.0</course>
<ele>88.0</ele>
</trkpt>
<trkpt lat="52.36458420753327" lon="13.386454582213966">
<time>2011-04-09T18:14:38.000+02:00</time>
<speed>1.6666666</speed>
<course>1.0</course>
<ele>88.0</ele>
</trkpt>
<trkpt lat="52.36460566520539" lon="13.386454582213966">
<time>2011-04-09T18:14:39.000+02:00</time>
<speed>1.6666666</speed>
<course>1.0</course>
<ele>88.0</ele>
</trkpt>
<trkpt lat="52.36461639404145" lon="13.386454582213966">
<time>2011-04-09T18:14:40.000+02:00</time>
<speed>1.9444444</speed>
<course>2.0</course>
<ele>88.0</ele>
</trkpt>
<trkpt lat="52.36463785171357" lon="13.386454582213966">
<time>2011-04-09T18:14:41.000+02:00</time>
<speed>1.9444444</speed>
<course>5.0</course>
<ele>88.0</ele>
</trkpt>
<trkpt lat="52.36465930938569" lon="13.386454582213966">
<time>2011-04-09T18:14:42.000+02:00</time>
<speed>2.2222223</speed>
<course>6.0</course>
<ele>88.0</ele>
</trkpt>
<trkpt lat="52.364680767057806" lon="13.386476039886086">
<time>2011-04-09T18:14:43.000+02:00</time>
<speed>2.5</speed>
<course>8.0</course>
<ele>88.0</ele>
</trkpt>
<trkpt lat="52.364702224729925" lon="13.386476039886086">
<time>2011-04-09T18:14:44.000+02:00</time>
<speed>2.5</speed>
<course>8.0</course>
<ele>88.0</ele>
</trkpt>
<trkpt lat="52.364723682402044" lon="13.386476039886086">
<time>2011-04-09T18:14:45.000+02:00</time>
<speed>2.5</speed>
<course>9.0</course>
<ele>88.0</ele>
</trkpt>
<trkpt lat="52.36474514007416" lon="13.386476039886086">
<time>2011-04-09T18:14:46.000+02:00</time>
<speed>2.2222223</speed>
<course>8.0</course>
<ele>88.0</ele>
</trkpt>
<trkpt lat="52.36476659774628" lon="13.386497497558205">
<time>2011-04-09T18:14:47.000+02:00</time>
<speed>2.5</speed>
<course>7.0</course>
<ele>88.0</ele>
</trkpt>
<trkpt lat="52.36479878425446" lon="13.386497497558205">
<time>2011-04-09T18:14:48.000+02:00</time>
<speed>2.5</speed>
<course>9.0</course>
<ele>88.0</ele>
</trkpt>
<trkpt lat="52.36482024192658" lon="13.386497497558205">
<time>2011-04-09T18:14:49.000+02:00</time>
<speed>2.5</speed>
<course>9.0</course>
<ele>88.0</ele>
</trkpt>
<trkpt lat="52.3648416995987" lon="13.386518955230324">
<time>2011-04-09T18:14:50.000+02:00</time>
<speed>2.5</speed>
<course>10.0</course>
<ele>88.0</ele>
</trkpt>
<trkpt lat="52.36486315727082" lon="13.386518955230324">
<time>2011-04-09T18:14:51.000+02:00</time>
<speed>2.2222223</speed>
<course>10.0</course>
<ele>88.0</ele>
</trkpt>
<trkpt lat="52.36488461494294" lon="13.386518955230324">
<time>2011-04-09T18:14:52.000+02:00</time>
<speed>1.9444444</speed>
<course>12.0</course>
<ele>88.0</ele>
</trkpt>
<trkpt lat="52.36490607261506" lon="13.386540412902443">
<time>2011-04-09T18:14:53.000+02:00</time>
<speed>2.5</speed>
<course>11.0</course>
<ele>88.0</ele>
</trkpt>
<trkpt lat="52.364938259123235" lon="13.386540412902443">
<time>2011-04-09T18:14:54.000+02:00</time>
<speed>3.0555556</speed>
<course>9.0</course>
<ele>88.0</ele>
</trkpt>
<trkpt lat="52.364970445631414" lon="13.386561870574562">
<time>2011-04-09T18:14:55.000+02:00</time>
<speed>3.0555556</speed>
<course>9.0</course>
<ele>88.0</ele>
</trkpt>
<trkpt lat="52.36500263213959" lon="13.386561870574562">
<time>2011-04-09T18:14:56.000+02:00</time>
<speed>3.0555556</speed>
<course>8.0</course>
<ele>88.0</ele>
</trkpt>
<trkpt lat="52.36502408981171" lon="13.386561870574562">
<time>2011-04-09T18:14:57.000+02:00</time>
<speed>3.0555556</speed>
<course>9.0</course>
<ele>88.0</ele>
</trkpt>
<trkpt lat="52.36505627631989" lon="13.386583328246681">
<time>2011-04-09T18:14:58.000+02:00</time>
<speed>3.0555556</speed>
<course>10.0</course>
<ele>88.0</ele>
</trkpt>
<trkpt lat="52.36508846282807" lon="13.386583328246681">
<time>2011-04-09T18:14:59.000+02:00</time>
<speed>2.5</speed>
<course>11.0</course>
<ele>88.0</ele>
</trkpt>
<trkpt lat="52.36510992050019" lon="13.386583328246681">
<time>2011-04-09T18:15:00.000+02:00</time>
<speed>2.5</speed>
<course>9.0</course>
<ele>88.0</ele>
</trkpt>
<trkpt lat="52.36513137817231" lon="13.386583328246681">
<time>2011-04-09T18:15:01.000+02:00</time>
<speed>2.5</speed>
<course>9.0</course>
<ele>87.0</ele>
</trkpt>
<trkpt lat="52.365163564680486" lon="13.3866047859188">
<time>2011-04-09T18:15:02.000+02:00</time>
<speed>2.5</speed>
<course>11.0</course>
<ele>87.0</ele>
</trkpt>
<trkpt lat="52.365185022352605" lon="13.3866047859188">
<time>2011-04-09T18:15:03.000+02:00</time>
<speed>2.5</speed>
<course>11.0</course>
<ele>87.0</ele>
</trkpt>
<trkpt lat="52.365206480024725" lon="13.3866047859188">
<time>2011-04-09T18:15:04.000+02:00</time>
<speed>2.5</speed>
<course>11.0</course>
<ele>87.0</ele>
</trkpt>
<trkpt lat="52.365227937696844" lon="13.3866047859188">
<time>2011-04-09T18:15:05.000+02:00</time>
<speed>2.5</speed>
<course>11.0</course>
<ele>87.0</ele>
</trkpt>
<trkpt lat="52.36526012420502" lon="13.38662624359092">
<time>2011-04-09T18:15:06.000+02:00</time>
<speed>2.5</speed>
<course>10.0</course>
<ele>87.0</ele>
</trkpt>
<trkpt lat="52.36528158187714" lon="13.38662624359092">
<time>2011-04-09T18:15:07.000+02:00</time>
<speed>2.5</speed>
<course>11.0</course>
<ele>87.0</ele>
</trkpt>
<trkpt lat="52.36530303954926" lon="13.386647701263039">
<time>2011-04-09T18:15:08.000+02:00</time>
<speed>2.7777777</speed>
<course>14.0</course>
<ele>87.0</ele>
</trkpt>
<trkpt lat="52.36533522605744" lon="13.386647701263039">
<time>2011-04-09T18:15:09.000+02:00</time>
<speed>2.7777777</speed>
<course>15.0</course>
<ele>87.0</ele>
</trkpt>
<trkpt lat="52.36535668372956" lon="13.386669158935158">
<time>2011-04-09T18:15:10.000+02:00</time>
<speed>2.7777777</speed>
<course>14.0</course>
<ele>86.0</ele>
</trkpt>
<trkpt lat="52.36538887023774" lon="13.386669158935158">
<time>2011-04-09T18:15:11.000+02:00</time>
<speed>2.7777777</speed>
<course>15.0</course>
<ele>86.0</ele>
</trkpt>
<trkpt lat="52.365421056745916" lon="13.386690616607277">
<time>2011-04-09T18:15:12.000+02:00</time>
<speed>2.7777777</speed>
<course>14.0</course>
<ele>86.0</ele>
</trkpt>
<trkpt lat="52.365442514418035" lon="13.386690616607277">
<time>2011-04-09T18:15:13.000+02:00</time>
<speed>2.7777777</speed>
<course>12.0</course>
<ele>86.0</ele>
</trkpt>
<trkpt lat="52.365474700926214" lon="13.386690616607277">
<time>2011-04-09T18:15:14.000+02:00</time>
<speed>2.5</speed>
<course>11.0</course>
<ele>86.0</ele>
</trkpt>
<trkpt lat="52.36549615859833" lon="13.386712074279396">
<time>2011-04-09T18:15:15.000+02:00</time>
<speed>2.5</speed>
<course>12.0</course>
<ele>86.0</ele>
</trkpt>
<trkpt lat="52.36553907394257" lon="13.386733531951515">
<time>2011-04-09T18:15:17.000+02:00</time>
<speed>2.2222223</speed>
<course>16.0</course>
<ele>86.0</ele>
</trkpt>
<trkpt lat="52.36557126045075" lon="13.386733531951515">
<time>2011-04-09T18:15:18.000+02:00</time>
<speed>2.5</speed>
<course>15.0</course>
<ele>86.0</ele>
</trkpt>
<trkpt lat="52.36559271812287" lon="13.386754989623634">
<time>2011-04-09T18:15:19.000+02:00</time>
<speed>3.0555556</speed>
<course>12.0</course>
<ele>86.0</ele>
</trkpt>
<trkpt lat="52.36562490463105" lon="13.386754989623634">
<time>2011-04-09T18:15:20.000+02:00</time>
<speed>3.0555556</speed>
<course>11.0</course>
<ele>86.0</ele>
</trkpt>
<trkpt lat="52.36565709113923" lon="13.386776447295754">
<time>2011-04-09T18:15:21.000+02:00</time>
<speed>3.3333333</speed>
<course>12.0</course>
<ele>86.0</ele>
</trkpt>
<trkpt lat="52.365700006483465" lon="13.386776447295754">
<time>2011-04-09T18:15:22.000+02:00</time>
<speed>3.3333333</speed>
<course>11.0</course>
<ele>85.0</ele>
</trkpt>
<trkpt lat="52.36573219299164" lon="13.386776447295754">
<time>2011-04-09T18:15:23.000+02:00</time>
<speed>3.3333333</speed>
<course>9.0</course>
<ele>85.0</ele>
</trkpt>
<trkpt lat="52.36576437949982" lon="13.386797904967873">
<time>2011-04-09T18:15:24.000+02:00</time>
<speed>3.3333333</speed>
<course>7.0</course>
<ele>85.0</ele>
</trkpt>
<trkpt lat="52.365796566008" lon="13.386797904967873">
<time>2011-04-09T18:15:25.000+02:00</time>
<speed>3.3333333</speed>
<course>6.0</course>
<ele>85.0</ele>
</trkpt>
<trkpt lat="52.36582875251618" lon="13.386797904967873">
<time>2011-04-09T18:15:26.000+02:00</time>
<speed>3.6111112</speed>
<course>5.0</course>
<ele>85.0</ele>
</trkpt>
<trkpt lat="52.36586093902436" lon="13.386797904967873">
<time>2011-04-09T18:15:27.000+02:00</time>
<speed>3.3333333</speed>
<course>6.0</course>
<ele>85.0</ele>
</trkpt>
<trkpt lat="52.36589312553254" lon="13.386797904967873">
<time>2011-04-09T18:15:28.000+02:00</time>
<speed>3.3333333</speed>
<course>4.0</course>
<ele>85.0</ele>
</trkpt>
<trkpt lat="52.365936040876775" lon="13.386797904967873">
<time>2011-04-09T18:15:29.000+02:00</time>
<speed>3.6111112</speed>
<course>0.0</course>
<ele>85.0</ele>
</trkpt>
<trkpt lat="52.365968227384954" lon="13.386797904967873">
<time>2011-04-09T18:15:30.000+02:00</time>
<speed>3.6111112</speed>
<course>358.0</course>
<ele>85.0</ele>
</trkpt>
<trkpt lat="52.36600041389313" lon="13.386797904967873">
<time>2011-04-09T18:15:31.000+02:00</time>
<speed>3.6111112</speed>
<course>356.0</course>
<ele>85.0</ele>
</trkpt>
<trkpt lat="52.36603260040131" lon="13.386776447295754">
<time>2011-04-09T18:15:32.000+02:00</time>
<speed>3.6111112</speed>
<course>355.0</course>
<ele>85.0</ele>
</trkpt>
<trkpt lat="52.36606478690949" lon="13.386776447295754">
<time>2011-04-09T18:15:33.000+02:00</time>
<speed>3.3333333</speed>
<course>354.0</course>
<ele>85.0</ele>
</trkpt>
<trkpt lat="52.36609697341767" lon="13.386754989623634">
<time>2011-04-09T18:15:34.000+02:00</time>
<speed>3.3333333</speed>
<course>353.0</course>
<ele>84.0</ele>
</trkpt>
<trkpt lat="52.36612915992585" lon="13.386754989623634">
<time>2011-04-09T18:15:35.000+02:00</time>
<speed>3.6111112</speed>
<course>351.0</course>
<ele>84.0</ele>
</trkpt>
<trkpt lat="52.366161346434026" lon="13.386754989623634">
<time>2011-04-09T18:15:36.000+02:00</time>
<speed>3.6111112</speed>
<course>352.0</course>
<ele>84.0</ele>
</trkpt>
<trkpt lat="52.366204261778265" lon="13.386733531951515">
<time>2011-04-09T18:15:37.000+02:00</time>
<speed>3.6111112</speed>
<course>351.0</course>
<ele>84.0</ele>
</trkpt>
<trkpt lat="52.36623644828644" lon="13.386733531951515">
<time>2011-04-09T18:15:38.000+02:00</time>
<speed>4.1666665</speed>
<course>351.0</course>
<ele>84.0</ele>
</trkpt>
<trkpt lat="52.36627936363068" lon="13.386712074279396">
<time>2011-04-09T18:15:39.000+02:00</time>
<speed>4.1666665</speed>
<course>350.0</course>
<ele>84.0</ele>
</trkpt>
<trkpt lat="52.36631155013886" lon="13.386712074279396">
<time>2011-04-09T18:15:40.000+02:00</time>
<speed>4.1666665</speed>
<course>349.0</course>
<ele>84.0</ele>
</trkpt>
<trkpt lat="52.3663544654831" lon="13.386690616607277">
<time>2011-04-09T18:15:41.000+02:00</time>
<speed>4.1666665</speed>
<course>349.0</course>
<ele>83.0</ele>
</trkpt>
<trkpt lat="52.36639738082734" lon="13.386669158935158">
<time>2011-04-09T18:15:42.000+02:00</time>
<speed>4.1666665</speed>
<course>349.0</course>
<ele>83.0</ele>
</trkpt>
<trkpt lat="52.366429567335516" lon="13.386669158935158">
<time>2011-04-09T18:15:43.000+02:00</time>
<speed>3.8888888</speed>
<course>351.0</course>
<ele>83.0</ele>
</trkpt>
<trkpt lat="52.366461753843694" lon="13.386669158935158">
<time>2011-04-09T18:15:44.000+02:00</time>
<speed>3.8888888</speed>
<course>350.0</course>
<ele>83.0</ele>
</trkpt>
<trkpt lat="52.36649394035187" lon="13.386647701263039">
<time>2011-04-09T18:15:45.000+02:00</time>
<speed>3.8888888</speed>
<course>350.0</course>
<ele>83.0</ele>
</trkpt>
<trkpt lat="52.36652612686005" lon="13.386647701263039">
<time>2011-04-09T18:15:46.000+02:00</time>
<speed>3.6111112</speed>
<course>349.0</course>
<ele>83.0</ele>
</trkpt>
<trkpt lat="52.36655831336823" lon="13.38662624359092">
<time>2011-04-09T18:15:47.000+02:00</time>
<speed>3.3333333</speed>
<course>348.0</course>
<ele>83.0</ele>
</trkpt>
<trkpt lat="52.36659049987641" lon="13.38662624359092">
<time>2011-04-09T18:15:48.000+02:00</time>
<speed>3.6111112</speed>
<course>350.0</course>
<ele>83.0</ele>
</trkpt>
<trkpt lat="52.36662268638459" lon="13.3866047859188">
<time>2011-04-09T18:15:49.000+02:00</time>
<speed>3.6111112</speed>
<course>350.0</course>
<ele>83.0</ele>
</trkpt>
<trkpt lat="52.36665487289277" lon="13.3866047859188">
<time>2011-04-09T18:15:50.000+02:00</time>
<speed>3.6111112</speed>
<course>350.0</course>
<ele>83.0</ele>
</trkpt>
<trkpt lat="52.366687059400945" lon="13.3866047859188">
<time>2011-04-09T18:15:51.000+02:00</time>
<speed>3.6111112</speed>
<course>349.0</course>
<ele>83.0</ele>
</trkpt>
<trkpt lat="52.366719245909124" lon="13.386583328246681">
<time>2011-04-09T18:15:52.000+02:00</time>
<speed>3.6111112</speed>
<course>352.0</course>
<ele>83.0</ele>
</trkpt>
<trkpt lat="52.3667514324173" lon="13.386583328246681">
<time>2011-04-09T18:15:53.000+02:00</time>
<speed>3.6111112</speed>
<course>354.0</course>
<ele>83.0</ele>
</trkpt>
<trkpt lat="52.36678361892548" lon="13.386583328246681">
<time>2011-04-09T18:15:54.000+02:00</time>
<speed>3.6111112</speed>
<course>354.0</course>
<ele>83.0</ele>
</trkpt>
<trkpt lat="52.36681580543366" lon="13.386583328246681">
<time>2011-04-09T18:15:55.000+02:00</time>
<speed>3.6111112</speed>
<course>357.0</course>
<ele>83.0</ele>
</trkpt>
<trkpt lat="52.36684799194184" lon="13.386583328246681">
<time>2011-04-09T18:15:56.000+02:00</time>
<speed>3.6111112</speed>
<course>358.0</course>
<ele>83.0</ele>
</trkpt>
<trkpt lat="52.36688017845002" lon="13.386583328246681">
<time>2011-04-09T18:15:57.000+02:00</time>
<speed>3.6111112</speed>
<course>0.0</course>
<ele>83.0</ele>
</trkpt>
<trkpt lat="52.366912364958196" lon="13.3866047859188">
<time>2011-04-09T18:15:58.000+02:00</time>
<speed>3.6111112</speed>
<course>1.0</course>
<ele>83.0</ele>
</trkpt>
<trkpt lat="52.366944551466375" lon="13.3866047859188">
<time>2011-04-09T18:15:59.000+02:00</time>
<speed>3.6111112</speed>
<course>2.0</course>
<ele>83.0</ele>
</trkpt>
<trkpt lat="52.366976737974554" lon="13.38662624359092">
<time>2011-04-09T18:16:00.000+02:00</time>
<speed>3.6111112</speed>
<course>4.0</course>
<ele>83.0</ele>
</trkpt>
<trkpt lat="52.36700892448273" lon="13.38662624359092">
<time>2011-04-09T18:16:01.000+02:00</time>
<speed>3.3333333</speed>
<course>7.0</course>
<ele>83.0</ele>
</trkpt>
<trkpt lat="52.36704111099091" lon="13.386647701263039">
<time>2011-04-09T18:16:02.000+02:00</time>
<speed>3.3333333</speed>
<course>9.0</course>
<ele>82.0</ele>
</trkpt>
<trkpt lat="52.36707329749909" lon="13.386647701263039">
<time>2011-04-09T18:16:03.000+02:00</time>
<speed>3.3333333</speed>
<course>12.0</course>
<ele>82.0</ele>
</trkpt>
<trkpt lat="52.36710548400727" lon="13.386669158935158">
<time>2011-04-09T18:16:04.000+02:00</time>
<speed>3.3333333</speed>
<course>14.0</course>
<ele>82.0</ele>
</trkpt>
<trkpt lat="52.36713767051545" lon="13.386690616607277">
<time>2011-04-09T18:16:05.000+02:00</time>
<speed>3.3333333</speed>
<course>16.0</course>
<ele>82.0</ele>
</trkpt>
<trkpt lat="52.367159128187566" lon="13.386712074279396">
<time>2011-04-09T18:16:06.000+02:00</time>
<speed>3.3333333</speed>
<course>18.0</course>
<ele>82.0</ele>
</trkpt>
<trkpt lat="52.367191314695745" lon="13.386733531951515">
<time>2011-04-09T18:16:07.000+02:00</time>
<speed>3.3333333</speed>
<course>19.0</course>
<ele>82.0</ele>
</trkpt>
<trkpt lat="52.367212772367864" lon="13.386733531951515">
<time>2011-04-09T18:16:08.000+02:00</time>
<speed>3.3333333</speed>
<course>19.0</course>
<ele>82.0</ele>
</trkpt>
<trkpt lat="52.36724495887604" lon="13.386754989623634">
<time>2011-04-09T18:16:09.000+02:00</time>
<speed>3.3333333</speed>
<course>19.0</course>
<ele>82.0</ele>
</trkpt>
<trkpt lat="52.36726641654816" lon="13.386776447295754">
<time>2011-04-09T18:16:10.000+02:00</time>
<speed>3.3333333</speed>
<course>20.0</course>
<ele>82.0</ele>
</trkpt>
<trkpt lat="52.36729860305634" lon="13.386797904967873">
<time>2011-04-09T18:16:11.000+02:00</time>
<speed>3.0555556</speed>
<course>21.0</course>
<ele>82.0</ele>
</trkpt>
<trkpt lat="52.36732006072846" lon="13.386819362639992">
<time>2011-04-09T18:16:12.000+02:00</time>
<speed>3.0555556</speed>
<course>23.0</course>
<ele>82.0</ele>
</trkpt>
<trkpt lat="52.36737370490876" lon="13.38686227798423">
<time>2011-04-09T18:16:14.000+02:00</time>
<speed>3.0555556</speed>
<course>23.0</course>
<ele>82.0</ele>
</trkpt>
<trkpt lat="52.36739516258088" lon="13.38686227798423">
<time>2011-04-09T18:16:15.000+02:00</time>
<speed>3.0555556</speed>
<course>23.0</course>
<ele>82.0</ele>
</trkpt>
<trkpt lat="52.367416620252996" lon="13.38688373565635">
<time>2011-04-09T18:16:16.000+02:00</time>
<speed>3.0555556</speed>
<course>22.0</course>
<ele>82.0</ele>
</trkpt>
<trkpt lat="52.367448806761175" lon="13.386905193328468">
<time>2011-04-09T18:16:17.000+02:00</time>
<speed>3.0555556</speed>
<course>22.0</course>
<ele>82.0</ele>
</trkpt>
<trkpt lat="52.367470264433294" lon="13.386926651000588">
<time>2011-04-09T18:16:18.000+02:00</time>
<speed>3.0555556</speed>
<course>22.0</course>
<ele>82.0</ele>
</trkpt>
<trkpt lat="52.36750245094147" lon="13.386948108672707">
<time>2011-04-09T18:16:19.000+02:00</time>
<speed>3.0555556</speed>
<course>22.0</course>
<ele>82.0</ele>
</trkpt>
<trkpt lat="52.36752390861359" lon="13.386969566344826">
<time>2011-04-09T18:16:20.000+02:00</time>
<speed>3.0555556</speed>
<course>21.0</course>
<ele>82.0</ele>
</trkpt>
<trkpt lat="52.36755609512177" lon="13.386969566344826">
<time>2011-04-09T18:16:21.000+02:00</time>
<speed>3.0555556</speed>
<course>20.0</course>
<ele>82.0</ele>
</trkpt>
<trkpt lat="52.36757755279389" lon="13.386991024016945">
<time>2011-04-09T18:16:22.000+02:00</time>
<speed>3.0555556</speed>
<course>21.0</course>
<ele>82.0</ele>
</trkpt>
<trkpt lat="52.36759901046601" lon="13.387012481689064">
<time>2011-04-09T18:16:23.000+02:00</time>
<speed>3.0555556</speed>
<course>19.0</course>
<ele>82.0</ele>
</trkpt>
<trkpt lat="52.36763119697419" lon="13.387012481689064">
<time>2011-04-09T18:16:24.000+02:00</time>
<speed>2.7777777</speed>
<course>18.0</course>
<ele>82.0</ele>
</trkpt>
<trkpt lat="52.36765265464631" lon="13.387033939361183">
<time>2011-04-09T18:16:25.000+02:00</time>
<speed>2.7777777</speed>
<course>19.0</course>
<ele>82.0</ele>
</trkpt>
<trkpt lat="52.367674112318426" lon="13.387055397033302">
<time>2011-04-09T18:16:26.000+02:00</time>
<speed>2.7777777</speed>
<course>20.0</course>
<ele>82.0</ele>
</trkpt>
<trkpt lat="52.367695569990545" lon="13.387055397033302">
<time>2011-04-09T18:16:27.000+02:00</time>
<speed>2.7777777</speed>
<course>20.0</course>
<ele>82.0</ele>
</trkpt>
<trkpt lat="52.367717027662664" lon="13.387076854705422">
<time>2011-04-09T18:16:28.000+02:00</time>
<speed>2.7777777</speed>
<course>20.0</course>
<ele>82.0</ele>
</trkpt>
<trkpt lat="52.36774921417084" lon="13.38709831237754">
<time>2011-04-09T18:16:29.000+02:00</time>
<speed>2.7777777</speed>
<course>22.0</course>
<ele>82.0</ele>
</trkpt>
<trkpt lat="52.36777067184296" lon="13.38711977004966">
<time>2011-04-09T18:16:30.000+02:00</time>
<speed>2.7777777</speed>
<course>22.0</course>
<ele>82.0</ele>
</trkpt>
<trkpt lat="52.36779212951508" lon="13.387141227721779">
<time>2011-04-09T18:16:31.000+02:00</time>
<speed>3.0555556</speed>
<course>22.0</course>
<ele>82.0</ele>
</trkpt>
<trkpt lat="52.36782431602326" lon="13.387162685393898">
<time>2011-04-09T18:16:32.000+02:00</time>
<speed>3.0555556</speed>
<course>22.0</course>
<ele>82.0</ele>
</trkpt>
<trkpt lat="52.36784577369538" lon="13.387184143066017">
<time>2011-04-09T18:16:33.000+02:00</time>
<speed>3.3333333</speed>
<course>19.0</course>
<ele>82.0</ele>
</trkpt>
<trkpt lat="52.36787796020356" lon="13.387205600738136">
<time>2011-04-09T18:16:34.000+02:00</time>
<speed>3.3333333</speed>
<course>17.0</course>
<ele>82.0</ele>
</trkpt>
<trkpt lat="52.367910146711736" lon="13.387227058410256">
<time>2011-04-09T18:16:35.000+02:00</time>
<speed>3.3333333</speed>
<course>18.0</course>
<ele>82.0</ele>
</trkpt>
<trkpt lat="52.367931604383855" lon="13.387227058410256">
<time>2011-04-09T18:16:36.000+02:00</time>
<speed>3.3333333</speed>
<course>19.0</course>
<ele>82.0</ele>
</trkpt>
<trkpt lat="52.367963790892034" lon="13.387248516082375">
<time>2011-04-09T18:16:37.000+02:00</time>
<speed>3.3333333</speed>
<course>20.0</course>
<ele>82.0</ele>
</trkpt>
<trkpt lat="52.36799597740021" lon="13.387269973754494">
<time>2011-04-09T18:16:38.000+02:00</time>
<speed>3.3333333</speed>
<course>22.0</course>
<ele>82.0</ele>
</trkpt>
<trkpt lat="52.36801743507233" lon="13.387291431426613">
<time>2011-04-09T18:16:39.000+02:00</time>
<speed>3.3333333</speed>
<course>21.0</course>
<ele>82.0</ele>
</trkpt>
<trkpt lat="52.36804962158051" lon="13.387312889098732">
<time>2011-04-09T18:16:40.000+02:00</time>
<speed>3.0555556</speed>
<course>20.0</course>
<ele>82.0</ele>
</trkpt>
<trkpt lat="52.36807107925263" lon="13.387334346770851">
<time>2011-04-09T18:16:41.000+02:00</time>
<speed>3.0555556</speed>
<course>19.0</course>
<ele>82.0</ele>
</trkpt>
<trkpt lat="52.36809253692475" lon="13.387334346770851">
<time>2011-04-09T18:16:42.000+02:00</time>
<speed>2.7777777</speed>
<course>21.0</course>
<ele>82.0</ele>
</trkpt>
<trkpt lat="52.36812472343293" lon="13.38735580444297">
<time>2011-04-09T18:16:43.000+02:00</time>
<speed>2.7777777</speed>
<course>21.0</course>
<ele>82.0</ele>
</trkpt>
<trkpt lat="52.36814618110505" lon="13.38737726211509">
<time>2011-04-09T18:16:44.000+02:00</time>
<speed>2.7777777</speed>
<course>22.0</course>
<ele>82.0</ele>
</trkpt>
<trkpt lat="52.368167638777166" lon="13.387398719787209">
<time>2011-04-09T18:16:45.000+02:00</time>
<speed>2.7777777</speed>
<course>23.0</course>
<ele>82.0</ele>
</trkpt>
<trkpt lat="52.368189096449285" lon="13.387398719787209">
<time>2011-04-09T18:16:46.000+02:00</time>
<speed>2.7777777</speed>
<course>23.0</course>
<ele>82.0</ele>
</trkpt>
<trkpt lat="52.368210554121404" lon="13.387420177459328">
<time>2011-04-09T18:16:47.000+02:00</time>
<speed>2.7777777</speed>
<course>23.0</course>
<ele>82.0</ele>
</trkpt>
<trkpt lat="52.36823201179352" lon="13.387441635131447">
<time>2011-04-09T18:16:48.000+02:00</time>
<speed>2.7777777</speed>
<course>22.0</course>
<ele>83.0</ele>
</trkpt>
<trkpt lat="52.3682641983017" lon="13.387463092803566">
<time>2011-04-09T18:16:49.000+02:00</time>
<speed>3.0555556</speed>
<course>21.0</course>
<ele>83.0</ele>
</trkpt>
<trkpt lat="52.36828565597382" lon="13.387484550475685">
<time>2011-04-09T18:16:50.000+02:00</time>
<speed>3.0555556</speed>
<course>20.0</course>
<ele>83.0</ele>
</trkpt>
<trkpt lat="52.368317842482" lon="13.387484550475685">
<time>2011-04-09T18:16:51.000+02:00</time>
<speed>3.0555556</speed>
<course>19.0</course>
<ele>83.0</ele>
</trkpt>
<trkpt lat="52.36835002899018" lon="13.387506008147804">
<time>2011-04-09T18:16:52.000+02:00</time>
<speed>3.3333333</speed>
<course>20.0</course>
<ele>83.0</ele>
</trkpt>
<trkpt lat="52.3683714866623" lon="13.387527465819923">
<time>2011-04-09T18:16:53.000+02:00</time>
<speed>3.6111112</speed>
<course>22.0</course>
<ele>83.0</ele>
</trkpt>
<trkpt lat="52.36840367317048" lon="13.387548923492043">
<time>2011-04-09T18:16:54.000+02:00</time>
<speed>3.6111112</speed>
<course>23.0</course>
<ele>83.0</ele>
</trkpt>
<trkpt lat="52.368435859678655" lon="13.387570381164162">
<time>2011-04-09T18:16:55.000+02:00</time>
<speed>3.6111112</speed>
<course>22.0</course>
<ele>83.0</ele>
</trkpt>
<trkpt lat="52.368468046186834" lon="13.387591838836281">
<time>2011-04-09T18:16:56.000+02:00</time>
<speed>3.6111112</speed>
<course>22.0</course>
<ele>83.0</ele>
</trkpt>
<trkpt lat="52.36848950385895" lon="13.3876132965084">
<time>2011-04-09T18:16:57.000+02:00</time>
<speed>3.3333333</speed>
<course>23.0</course>
<ele>83.0</ele>
</trkpt>
<trkpt lat="52.36852169036713" lon="13.38763475418052">
<time>2011-04-09T18:16:58.000+02:00</time>
<speed>3.3333333</speed>
<course>22.0</course>
<ele>83.0</ele>
</trkpt>
<trkpt lat="52.36854314803925" lon="13.387656211852638">
<time>2011-04-09T18:16:59.000+02:00</time>
<speed>3.3333333</speed>
<course>21.0</course>
<ele>83.0</ele>
</trkpt>
<trkpt lat="52.36857533454743" lon="13.387677669524757">
<time>2011-04-09T18:17:00.000+02:00</time>
<speed>3.3333333</speed>
<course>22.0</course>
<ele>83.0</ele>
</trkpt>
<trkpt lat="52.36860752105561" lon="13.387699127196877">
<time>2011-04-09T18:17:01.000+02:00</time>
<speed>3.3333333</speed>
<course>23.0</course>
<ele>83.0</ele>
</trkpt>
<trkpt lat="52.36862897872773" lon="13.387699127196877">
<time>2011-04-09T18:17:02.000+02:00</time>
<speed>3.3333333</speed>
<course>22.0</course>
<ele>83.0</ele>
</trkpt>
<trkpt lat="52.368661165235906" lon="13.387720584868996">
<time>2011-04-09T18:17:03.000+02:00</time>
<speed>3.3333333</speed>
<course>22.0</course>
<ele>83.0</ele>
</trkpt>
<trkpt lat="52.368682622908025" lon="13.387742042541115">
<time>2011-04-09T18:17:04.000+02:00</time>
<speed>3.3333333</speed>
<course>22.0</course>
<ele>83.0</ele>
</trkpt>
<trkpt lat="52.368714809416204" lon="13.387763500213234">
<time>2011-04-09T18:17:05.000+02:00</time>
<speed>3.3333333</speed>
<course>21.0</course>
<ele>83.0</ele>
</trkpt>
<trkpt lat="52.36873626708832" lon="13.387784957885353">
<time>2011-04-09T18:17:06.000+02:00</time>
<speed>3.3333333</speed>
<course>22.0</course>
<ele>83.0</ele>
</trkpt>
<trkpt lat="52.36880064010468" lon="13.387827873229591">
<time>2011-04-09T18:17:08.000+02:00</time>
<speed>3.6111112</speed>
<course>22.0</course>
<ele>83.0</ele>
</trkpt>
<trkpt lat="52.36883282661286" lon="13.38784933090171">
<time>2011-04-09T18:17:09.000+02:00</time>
<speed>3.6111112</speed>
<course>21.0</course>
<ele>83.0</ele>
</trkpt>
<trkpt lat="52.36885428428498" lon="13.38787078857383">
<time>2011-04-09T18:17:10.000+02:00</time>
<speed>3.3333333</speed>
<course>20.0</course>
<ele>83.0</ele>
</trkpt>
<trkpt lat="52.3688757419571" lon="13.38787078857383">
<time>2011-04-09T18:17:11.000+02:00</time>
<speed>3.0555556</speed>
<course>21.0</course>
<ele>83.0</ele>
</trkpt>
<trkpt lat="52.368907928465276" lon="13.387892246245949">
<time>2011-04-09T18:17:12.000+02:00</time>
<speed>3.0555556</speed>
<course>20.0</course>
<ele>83.0</ele>
</trkpt>
<trkpt lat="52.368929386137395" lon="13.387913703918068">
<time>2011-04-09T18:17:13.000+02:00</time>
<speed>3.0555556</speed>
<course>19.0</course>
<ele>83.0</ele>
</trkpt>
<trkpt lat="52.368950843809515" lon="13.387913703918068">
<time>2011-04-09T18:17:14.000+02:00</time>
<speed>3.0555556</speed>
<course>20.0</course>
<ele>83.0</ele>
</trkpt>
<trkpt lat="52.368972301481634" lon="13.387935161590187">
<time>2011-04-09T18:17:15.000+02:00</time>
<speed>2.7777777</speed>
<course>21.0</course>
<ele>83.0</ele>
</trkpt>
<trkpt lat="52.36900448798981" lon="13.387956619262306">
<time>2011-04-09T18:17:16.000+02:00</time>
<speed>2.7777777</speed>
<course>20.0</course>
<ele>83.0</ele>
</trkpt>
<trkpt lat="52.36902594566193" lon="13.387956619262306">
<time>2011-04-09T18:17:17.000+02:00</time>
<speed>2.7777777</speed>
<course>21.0</course>
<ele>83.0</ele>
</trkpt>
<trkpt lat="52.36904740333405" lon="13.387978076934425">
<time>2011-04-09T18:17:18.000+02:00</time>
<speed>2.7777777</speed>
<course>21.0</course>
<ele>83.0</ele>
</trkpt>
<trkpt lat="52.36906886100617" lon="13.387999534606545">
<time>2011-04-09T18:17:19.000+02:00</time>
<speed>2.7777777</speed>
<course>21.0</course>
<ele>83.0</ele>
</trkpt>
<trkpt lat="52.36910104751435" lon="13.387999534606545">
<time>2011-04-09T18:17:20.000+02:00</time>
<speed>2.7777777</speed>
<course>22.0</course>
<ele>84.0</ele>
</trkpt>
<trkpt lat="52.36912250518647" lon="13.388020992278664">
<time>2011-04-09T18:17:21.000+02:00</time>
<speed>2.7777777</speed>
<course>21.0</course>
<ele>84.0</ele>
</trkpt>
<trkpt lat="52.36914396285859" lon="13.388042449950783">
<time>2011-04-09T18:17:22.000+02:00</time>
<speed>2.7777777</speed>
<course>19.0</course>
<ele>84.0</ele>
</trkpt>
<trkpt lat="52.369176149366766" lon="13.388042449950783">
<time>2011-04-09T18:17:23.000+02:00</time>
<speed>2.7777777</speed>
<course>19.0</course>
<ele>84.0</ele>
</trkpt>
<trkpt lat="52.369197607038885" lon="13.388063907622902">
<time>2011-04-09T18:17:24.000+02:00</time>
<speed>2.7777777</speed>
<course>20.0</course>
<ele>84.0</ele>
</trkpt>
<trkpt lat="52.369219064711004" lon="13.388063907622902">
<time>2011-04-09T18:17:25.000+02:00</time>
<speed>2.7777777</speed>
<course>20.0</course>
<ele>84.0</ele>
</trkpt>
<trkpt lat="52.36924052238312" lon="13.388085365295021">
<time>2011-04-09T18:17:26.000+02:00</time>
<speed>2.7777777</speed>
<course>19.0</course>
<ele>84.0</ele>
</trkpt>
<trkpt lat="52.3692727088913" lon="13.38810682296714">
<time>2011-04-09T18:17:27.000+02:00</time>
<speed>2.7777777</speed>
<course>20.0</course>
<ele>84.0</ele>
</trkpt>
<trkpt lat="52.36929416656342" lon="13.38812828063926">
<time>2011-04-09T18:17:28.000+02:00</time>
<speed>2.7777777</speed>
<course>21.0</course>
<ele>84.0</ele>
</trkpt>
<trkpt lat="52.36931562423554" lon="13.388149738311379">
<time>2011-04-09T18:17:29.000+02:00</time>
<speed>3.0555556</speed>
<course>21.0</course>
<ele>84.0</ele>
</trkpt>
<trkpt lat="52.36934781074372" lon="13.388149738311379">
<time>2011-04-09T18:17:30.000+02:00</time>
<speed>3.0555556</speed>
<course>22.0</course>
<ele>84.0</ele>
</trkpt>
<trkpt lat="52.36936926841584" lon="13.388171195983498">
<time>2011-04-09T18:17:31.000+02:00</time>
<speed>3.0555556</speed>
<course>20.0</course>
<ele>84.0</ele>
</trkpt>
<trkpt lat="52.36940145492402" lon="13.388192653655617">
<time>2011-04-09T18:17:32.000+02:00</time>
<speed>3.0555556</speed>
<course>19.0</course>
<ele>84.0</ele>
</trkpt>
<trkpt lat="52.369422912596136" lon="13.388214111327736">
<time>2011-04-09T18:17:33.000+02:00</time>
<speed>3.0555556</speed>
<course>18.0</course>
<ele>84.0</ele>
</trkpt>
<trkpt lat="52.369444370268255" lon="13.388214111327736">
<time>2011-04-09T18:17:34.000+02:00</time>
<speed>3.0555556</speed>
<course>16.0</course>
<ele>84.0</ele>
</trkpt>
<trkpt lat="52.36947655677643" lon="13.388235568999855">
<time>2011-04-09T18:17:35.000+02:00</time>
<speed>3.0555556</speed>
<course>17.0</course>
<ele>84.0</ele>
</trkpt>
<trkpt lat="52.36949801444855" lon="13.388235568999855">
<time>2011-04-09T18:17:36.000+02:00</time>
<speed>2.7777777</speed>
<course>19.0</course>
<ele>84.0</ele>
</trkpt>
<trkpt lat="52.36951947212067" lon="13.388257026671974">
<time>2011-04-09T18:17:37.000+02:00</time>
<speed>2.7777777</speed>
<course>21.0</course>
<ele>84.0</ele>
</trkpt>
<trkpt lat="52.36954092979279" lon="13.388278484344093">
<time>2011-04-09T18:17:38.000+02:00</time>
<speed>2.5</speed>
<course>20.0</course>
<ele>84.0</ele>
</trkpt>
<trkpt lat="52.36956238746491" lon="13.388278484344093">
<time>2011-04-09T18:17:39.000+02:00</time>
<speed>2.5</speed>
<course>18.0</course>
<ele>84.0</ele>
</trkpt>
<trkpt lat="52.36957311630097" lon="13.388299942016213">
<time>2011-04-09T18:17:40.000+02:00</time>
<speed>1.6666666</speed>
<course>17.0</course>
<ele>84.0</ele>
</trkpt>
<trkpt lat="52.36958384513703" lon="13.388299942016213">
<time>2011-04-09T18:17:41.000+02:00</time>
<speed>1.6666666</speed>
<course>22.0</course>
<ele>84.0</ele>
</trkpt>
<trkpt lat="52.36959457397309" lon="13.388321399688332">
<time>2011-04-09T18:17:42.000+02:00</time>
<speed>1.6666666</speed>
<course>30.0</course>
<ele>84.0</ele>
</trkpt>
<trkpt lat="52.36960530280915" lon="13.38834285736045">
<time>2011-04-09T18:17:43.000+02:00</time>
<speed>1.6666666</speed>
<course>33.0</course>
<ele>84.0</ele>
</trkpt>
<trkpt lat="52.36961603164521" lon="13.38834285736045">
<time>2011-04-09T18:17:44.000+02:00</time>
<speed>1.6666666</speed>
<course>33.0</course>
<ele>84.0</ele>
</trkpt>
<trkpt lat="52.36962676048127" lon="13.38836431503257">
<time>2011-04-09T18:17:45.000+02:00</time>
<speed>0.5555556</speed>
<course>34.0</course>
<ele>84.0</ele>
</trkpt>
<trkpt lat="52.36962676048127" lon="13.38836431503257">
<time>2011-04-09T18:17:46.000+02:00</time>
<speed>0.0</speed>
<course>34.0</course>
<ele>84.0</ele>
</trkpt>
<trkpt lat="52.36962676048127" lon="13.38836431503257">
<time>2011-04-09T18:17:47.000+02:00</time>
<speed>0.0</speed>
<course>34.0</course>
<ele>84.0</ele>
</trkpt>
<trkpt lat="52.36962676048127" lon="13.38836431503257">
<time>2011-04-09T18:17:48.000+02:00</time>
<speed>0.0</speed>
<course>34.0</course>
<ele>84.0</ele>
</trkpt>
<trkpt lat="52.36963748931733" lon="13.38836431503257">
<time>2011-04-09T18:17:49.000+02:00</time>
<speed>0.5555556</speed>
<course>34.0</course>
<ele>84.0</ele>
</trkpt>
<trkpt lat="52.36963748931733" lon="13.38836431503257">
<time>2011-04-09T18:17:50.000+02:00</time>
<speed>0.5555556</speed>
<course>28.0</course>
<ele>84.0</ele>
</trkpt>
<trkpt lat="52.36963748931733" lon="13.388385772704689">
<time>2011-04-09T18:17:51.000+02:00</time>
<speed>0.5555556</speed>
<course>27.0</course>
<ele>84.0</ele>
</trkpt>
<trkpt lat="52.36964821815339" lon="13.388385772704689">
<time>2011-04-09T18:17:52.000+02:00</time>
<speed>0.8333333</speed>
<course>17.0</course>
<ele>84.0</ele>
</trkpt>
<trkpt lat="52.369658946989446" lon="13.388385772704689">
<time>2011-04-09T18:17:53.000+02:00</time>
<speed>1.1111112</speed>
<course>12.0</course>
<ele>84.0</ele>
</trkpt>
<trkpt lat="52.369669675825506" lon="13.388385772704689">
<time>2011-04-09T18:17:54.000+02:00</time>
<speed>1.3888888</speed>
<course>4.0</course>
<ele>84.0</ele>
</trkpt>
<trkpt lat="52.369680404661565" lon="13.388385772704689">
<time>2011-04-09T18:17:55.000+02:00</time>
<speed>1.1111112</speed>
<course>9.0</course>
<ele>84.0</ele>
</trkpt>
<trkpt lat="52.369691133497625" lon="13.38836431503257">
<time>2011-04-09T18:17:56.000+02:00</time>
<speed>1.1111112</speed>
<course>356.0</course>
<ele>84.0</ele>
</trkpt>
<trkpt lat="52.369701862333685" lon="13.38836431503257">
<time>2011-04-09T18:17:57.000+02:00</time>
<speed>1.1111112</speed>
<course>349.0</course>
<ele>84.0</ele>
</trkpt>
<trkpt lat="52.369712591169744" lon="13.38834285736045">
<time>2011-04-09T18:17:58.000+02:00</time>
<speed>1.1111112</speed>
<course>348.0</course>
<ele>84.0</ele>
</trkpt>
<trkpt lat="52.369712591169744" lon="13.388321399688332">
<time>2011-04-09T18:17:59.000+02:00</time>
<speed>1.1111112</speed>
<course>344.0</course>
<ele>84.0</ele>
</trkpt>
<trkpt lat="52.369723320005804" lon="13.388321399688332">
<time>2011-04-09T18:18:00.000+02:00</time>
<speed>1.1111112</speed>
<course>340.0</course>
<ele>84.0</ele>
</trkpt>
<trkpt lat="52.36973404884186" lon="13.388299942016213">
<time>2011-04-09T18:18:01.000+02:00</time>
<speed>1.1111112</speed>
<course>335.0</course>
<ele>84.0</ele>
</trkpt>
<trkpt lat="52.36974477767792" lon="13.388278484344093">
<time>2011-04-09T18:18:02.000+02:00</time>
<speed>1.1111112</speed>
<course>328.0</course>
<ele>84.0</ele>
</trkpt>
<trkpt lat="52.36974477767792" lon="13.388257026671974">
<time>2011-04-09T18:18:03.000+02:00</time>
<speed>1.1111112</speed>
<course>324.0</course>
<ele>84.0</ele>
</trkpt>
<trkpt lat="52.36975550651398" lon="13.388235568999855">
<time>2011-04-09T18:18:04.000+02:00</time>
<speed>1.1111112</speed>
<course>320.0</course>
<ele>84.0</ele>
</trkpt>
<trkpt lat="52.36975550651398" lon="13.388235568999855">
<time>2011-04-09T18:18:05.000+02:00</time>
<speed>1.1111112</speed>
<course>321.0</course>
<ele>84.0</ele>
</trkpt>
<trkpt lat="52.36976623535004" lon="13.388214111327736">
<time>2011-04-09T18:18:06.000+02:00</time>
<speed>1.1111112</speed>
<course>316.0</course>
<ele>84.0</ele>
</trkpt>
<trkpt lat="52.36976623535004" lon="13.388192653655617">
<time>2011-04-09T18:18:07.000+02:00</time>
<speed>1.1111112</speed>
<course>315.0</course>
<ele>84.0</ele>
</trkpt>
<trkpt lat="52.3697769641861" lon="13.388192653655617">
<time>2011-04-09T18:18:08.000+02:00</time>
<speed>1.1111112</speed>
<course>328.0</course>
<ele>84.0</ele>
</trkpt>
<trkpt lat="52.3697769641861" lon="13.388171195983498">
<time>2011-04-09T18:18:09.000+02:00</time>
<speed>0.8333333</speed>
<course>328.0</course>
<ele>84.0</ele>
</trkpt>
<trkpt lat="52.36978769302216" lon="13.388171195983498">
<time>2011-04-09T18:18:10.000+02:00</time>
<speed>0.8333333</speed>
<course>321.0</course>
<ele>84.0</ele>
</trkpt>
<trkpt lat="52.36979842185822" lon="13.388149738311379">
<time>2011-04-09T18:18:12.000+02:00</time>
<speed>1.1111112</speed>
<course>308.0</course>
<ele>84.0</ele>
</trkpt>
<trkpt lat="52.36979842185822" lon="13.38812828063926">
<time>2011-04-09T18:18:13.000+02:00</time>
<speed>1.3888888</speed>
<course>308.0</course>
<ele>84.0</ele>
</trkpt>
<trkpt lat="52.36980915069428" lon="13.38810682296714">
<time>2011-04-09T18:18:14.000+02:00</time>
<speed>1.1111112</speed>
<course>308.0</course>
<ele>84.0</ele>
</trkpt>
<trkpt lat="52.36981987953034" lon="13.38810682296714">
<time>2011-04-09T18:18:15.000+02:00</time>
<speed>1.1111112</speed>
<course>308.0</course>
<ele>84.0</ele>
</trkpt>
<trkpt lat="52.36981987953034" lon="13.388085365295021">
<time>2011-04-09T18:18:16.000+02:00</time>
<speed>1.3888888</speed>
<course>309.0</course>
<ele>84.0</ele>
</trkpt>
<trkpt lat="52.3698306083664" lon="13.388063907622902">
<time>2011-04-09T18:18:17.000+02:00</time>
<speed>1.1111112</speed>
<course>309.0</course>
<ele>84.0</ele>
</trkpt>
<trkpt lat="52.3698306083664" lon="13.388042449950783">
<time>2011-04-09T18:18:18.000+02:00</time>
<speed>1.6666666</speed>
<course>301.0</course>
<ele>84.0</ele>
</trkpt>
<trkpt lat="52.36984133720246" lon="13.388020992278664">
<time>2011-04-09T18:18:19.000+02:00</time>
<speed>1.6666666</speed>
<course>299.0</course>
<ele>84.0</ele>
</trkpt>
<trkpt lat="52.36985206603852" lon="13.387999534606545">
<time>2011-04-09T18:18:20.000+02:00</time>
<speed>1.6666666</speed>
<course>296.0</course>
<ele>84.0</ele>
</trkpt>
<trkpt lat="52.36985206603852" lon="13.387956619262306">
<time>2011-04-09T18:18:21.000+02:00</time>
<speed>1.6666666</speed>
<course>297.0</course>
<ele>84.0</ele>
</trkpt>
<trkpt lat="52.36986279487458" lon="13.387935161590187">
<time>2011-04-09T18:18:22.000+02:00</time>
<speed>1.6666666</speed>
<course>297.0</course>
<ele>84.0</ele>
</trkpt>
<trkpt lat="52.36987352371064" lon="13.387892246245949">
<time>2011-04-09T18:18:23.000+02:00</time>
<speed>1.9444444</speed>
<course>294.0</course>
<ele>84.0</ele>
</trkpt>
<trkpt lat="52.36987352371064" lon="13.38787078857383">
<time>2011-04-09T18:18:24.000+02:00</time>
<speed>1.9444444</speed>
<course>293.0</course>
<ele>84.0</ele>
</trkpt>
<trkpt lat="52.3698842525467" lon="13.387827873229591">
<time>2011-04-09T18:18:25.000+02:00</time>
<speed>1.9444444</speed>
<course>292.0</course>
<ele>84.0</ele>
</trkpt>
<trkpt lat="52.36989498138276" lon="13.387806415557472">
<time>2011-04-09T18:18:26.000+02:00</time>
<speed>1.9444444</speed>
<course>290.0</course>
<ele>84.0</ele>
</trkpt>
<trkpt lat="52.369905710218816" lon="13.387763500213234">
<time>2011-04-09T18:18:27.000+02:00</time>
<speed>2.2222223</speed>
<course>289.0</course>
<ele>84.0</ele>
</trkpt>
<trkpt lat="52.369916439054876" lon="13.387720584868996">
<time>2011-04-09T18:18:28.000+02:00</time>
<speed>2.2222223</speed>
<course>288.0</course>
<ele>85.0</ele>
</trkpt>
<trkpt lat="52.369927167890935" lon="13.387677669524757">
<time>2011-04-09T18:18:29.000+02:00</time>
<speed>2.2222223</speed>
<course>287.0</course>
<ele>85.0</ele>
</trkpt>
<trkpt lat="52.369937896726995" lon="13.387656211852638">
<time>2011-04-09T18:18:30.000+02:00</time>
<speed>2.2222223</speed>
<course>286.0</course>
<ele>85.0</ele>
</trkpt>
<trkpt lat="52.369948625563055" lon="13.3876132965084">
<time>2011-04-09T18:18:31.000+02:00</time>
<speed>2.2222223</speed>
<course>286.0</course>
<ele>85.0</ele>
</trkpt>
<trkpt lat="52.369948625563055" lon="13.387570381164162">
<time>2011-04-09T18:18:32.000+02:00</time>
<speed>2.2222223</speed>
<course>285.0</course>
<ele>85.0</ele>
</trkpt>
<trkpt lat="52.369959354399114" lon="13.387527465819923">
<time>2011-04-09T18:18:33.000+02:00</time>
<speed>2.2222223</speed>
<course>285.0</course>
<ele>85.0</ele>
</trkpt>
<trkpt lat="52.369970083235174" lon="13.387484550475685">
<time>2011-04-09T18:18:34.000+02:00</time>
<speed>2.5</speed>
<course>286.0</course>
<ele>85.0</ele>
</trkpt>
<trkpt lat="52.369970083235174" lon="13.387463092803566">
<time>2011-04-09T18:18:35.000+02:00</time>
<speed>2.5</speed>
<course>284.0</course>
<ele>85.0</ele>
</trkpt>
<trkpt lat="52.36998081207123" lon="13.387420177459328">
<time>2011-04-09T18:18:36.000+02:00</time>
<speed>2.2222223</speed>
<course>282.0</course>
<ele>85.0</ele>
</trkpt>
<trkpt lat="52.36998081207123" lon="13.38737726211509">
<time>2011-04-09T18:18:37.000+02:00</time>
<speed>2.5</speed>
<course>281.0</course>
<ele>85.0</ele>
</trkpt>
<trkpt lat="52.36999154090729" lon="13.387334346770851">
<time>2011-04-09T18:18:38.000+02:00</time>
<speed>2.5</speed>
<course>281.0</course>
<ele>85.0</ele>
</trkpt>
<trkpt lat="52.36999154090729" lon="13.387291431426613">
<time>2011-04-09T18:18:39.000+02:00</time>
<speed>2.5</speed>
<course>283.0</course>
<ele>85.0</ele>
</trkpt>
<trkpt lat="52.37000226974335" lon="13.387248516082375">
<time>2011-04-09T18:18:40.000+02:00</time>
<speed>2.5</speed>
<course>284.0</course>
<ele>85.0</ele>
</trkpt>
<trkpt lat="52.37000226974335" lon="13.387227058410256">
<time>2011-04-09T18:18:41.000+02:00</time>
<speed>2.5</speed>
<course>286.0</course>
<ele>85.0</ele>
</trkpt>
<trkpt lat="52.37001299857941" lon="13.387184143066017">
<time>2011-04-09T18:18:42.000+02:00</time>
<speed>2.5</speed>
<course>287.0</course>
<ele>85.0</ele>
</trkpt>
<trkpt lat="52.37002372741547" lon="13.387141227721779">
<time>2011-04-09T18:18:43.000+02:00</time>
<speed>2.5</speed>
<course>285.0</course>
<ele>85.0</ele>
</trkpt>
<trkpt lat="52.37002372741547" lon="13.38709831237754">
<time>2011-04-09T18:18:44.000+02:00</time>
<speed>2.5</speed>
<course>285.0</course>
<ele>85.0</ele>
</trkpt>
<trkpt lat="52.37003445625153" lon="13.387055397033302">
<time>2011-04-09T18:18:45.000+02:00</time>
<speed>2.5</speed>
<course>283.0</course>
<ele>85.0</ele>
</trkpt>
<trkpt lat="52.37004518508759" lon="13.387033939361183">
<time>2011-04-09T18:18:46.000+02:00</time>
<speed>2.5</speed>
<course>283.0</course>
<ele>85.0</ele>
</trkpt>
<trkpt lat="52.37004518508759" lon="13.386991024016945">
<time>2011-04-09T18:18:47.000+02:00</time>
<speed>2.2222223</speed>
<course>282.0</course>
<ele>85.0</ele>
</trkpt>
<trkpt lat="52.37005591392365" lon="13.386948108672707">
<time>2011-04-09T18:18:48.000+02:00</time>
<speed>2.2222223</speed>
<course>280.0</course>
<ele>85.0</ele>
</trkpt>
<trkpt lat="52.37005591392365" lon="13.386926651000588">
<time>2011-04-09T18:18:49.000+02:00</time>
<speed>1.6666666</speed>
<course>274.0</course>
<ele>85.0</ele>
</trkpt>
<trkpt lat="52.37006664275971" lon="13.386905193328468">
<time>2011-04-09T18:18:50.000+02:00</time>
<speed>1.6666666</speed>
<course>276.0</course>
<ele>86.0</ele>
</trkpt>
<trkpt lat="52.37006664275971" lon="13.38686227798423">
<time>2011-04-09T18:18:51.000+02:00</time>
<speed>1.6666666</speed>
<course>275.0</course>
<ele>86.0</ele>
</trkpt>
<trkpt lat="52.37006664275971" lon="13.386840820312111">
<time>2011-04-09T18:18:52.000+02:00</time>
<speed>1.6666666</speed>
<course>276.0</course>
<ele>86.0</ele>
</trkpt>
<trkpt lat="52.37006664275971" lon="13.386819362639992">
<time>2011-04-09T18:18:53.000+02:00</time>
<speed>1.6666666</speed>
<course>276.0</course>
<ele>86.0</ele>
</trkpt>
<trkpt lat="52.37007737159577" lon="13.386776447295754">
<time>2011-04-09T18:18:54.000+02:00</time>
<speed>2.2222223</speed>
<course>278.0</course>
<ele>86.0</ele>
</trkpt>
<trkpt lat="52.37007737159577" lon="13.386733531951515">
<time>2011-04-09T18:18:55.000+02:00</time>
<speed>2.2222223</speed>
<course>280.0</course>
<ele>86.0</ele>
</trkpt>
<trkpt lat="52.37008810043183" lon="13.386712074279396">
<time>2011-04-09T18:18:56.000+02:00</time>
<speed>2.2222223</speed>
<course>283.0</course>
<ele>86.0</ele>
</trkpt>
<trkpt lat="52.37008810043183" lon="13.386669158935158">
<time>2011-04-09T18:18:57.000+02:00</time>
<speed>2.2222223</speed>
<course>284.0</course>
<ele>86.0</ele>
</trkpt>
<trkpt lat="52.37009882926789" lon="13.386647701263039">
<time>2011-04-09T18:18:58.000+02:00</time>
<speed>2.2222223</speed>
<course>284.0</course>
<ele>86.0</ele>
</trkpt>
<trkpt lat="52.37009882926789" lon="13.3866047859188">
<time>2011-04-09T18:18:59.000+02:00</time>
<speed>1.9444444</speed>
<course>283.0</course>
<ele>86.0</ele>
</trkpt>
<trkpt lat="52.37010955810395" lon="13.386561870574562">
<time>2011-04-09T18:19:00.000+02:00</time>
<speed>1.9444444</speed>
<course>282.0</course>
<ele>86.0</ele>
</trkpt>
<trkpt lat="52.37010955810395" lon="13.386540412902443">
<time>2011-04-09T18:19:01.000+02:00</time>
<speed>2.2222223</speed>
<course>283.0</course>
<ele>86.0</ele>
</trkpt>
<trkpt lat="52.37012028694001" lon="13.386497497558205">
<time>2011-04-09T18:19:02.000+02:00</time>
<speed>2.2222223</speed>
<course>284.0</course>
<ele>86.0</ele>
</trkpt>
<trkpt lat="52.37012028694001" lon="13.386476039886086">
<time>2011-04-09T18:19:03.000+02:00</time>
<speed>2.2222223</speed>
<course>281.0</course>
<ele>86.0</ele>
</trkpt>
<trkpt lat="52.37013101577607" lon="13.386433124541847">
<time>2011-04-09T18:19:04.000+02:00</time>
<speed>2.2222223</speed>
<course>284.0</course>
<ele>86.0</ele>
</trkpt>
<trkpt lat="52.37014174461213" lon="13.38636875152549">
<time>2011-04-09T18:19:06.000+02:00</time>
<speed>2.2222223</speed>
<course>285.0</course>
<ele>86.0</ele>
</trkpt>
<trkpt lat="52.37015247344819" lon="13.386325836181252">
<time>2011-04-09T18:19:07.000+02:00</time>
<speed>2.2222223</speed>
<course>287.0</course>
<ele>86.0</ele>
</trkpt>
<trkpt lat="52.370163202284246" lon="13.386304378509132">
<time>2011-04-09T18:19:08.000+02:00</time>
<speed>2.2222223</speed>
<course>288.0</course>
<ele>86.0</ele>
</trkpt>
<trkpt lat="52.370163202284246" lon="13.386261463164894">
<time>2011-04-09T18:19:09.000+02:00</time>
<speed>2.2222223</speed>
<course>287.0</course>
<ele>86.0</ele>
</trkpt>
<trkpt lat="52.370173931120306" lon="13.386240005492775">
<time>2011-04-09T18:19:10.000+02:00</time>
<speed>2.2222223</speed>
<course>287.0</course>
<ele>86.0</ele>
</trkpt>
<trkpt lat="52.370184659956365" lon="13.386197090148537">
<time>2011-04-09T18:19:11.000+02:00</time>
<speed>2.2222223</speed>
<course>285.0</course>
<ele>86.0</ele>
</trkpt>
<trkpt lat="52.370184659956365" lon="13.386175632476418">
<time>2011-04-09T18:19:12.000+02:00</time>
<speed>2.2222223</speed>
<course>287.0</course>
<ele>86.0</ele>
</trkpt>
<trkpt lat="52.370195388792425" lon="13.38613271713218">
<time>2011-04-09T18:19:13.000+02:00</time>
<speed>2.2222223</speed>
<course>288.0</course>
<ele>86.0</ele>
</trkpt>
<trkpt lat="52.370206117628484" lon="13.38611125946006">
<time>2011-04-09T18:19:14.000+02:00</time>
<speed>2.2222223</speed>
<course>289.0</course>
<ele>86.0</ele>
</trkpt>
<trkpt lat="52.370206117628484" lon="13.386068344115822">
<time>2011-04-09T18:19:15.000+02:00</time>
<speed>2.2222223</speed>
<course>287.0</course>
<ele>86.0</ele>
</trkpt>
<trkpt lat="52.370216846464544" lon="13.386025428771584">
<time>2011-04-09T18:19:16.000+02:00</time>
<speed>2.2222223</speed>
<course>284.0</course>
<ele>86.0</ele>
</trkpt>
<trkpt lat="52.370216846464544" lon="13.386003971099464">
<time>2011-04-09T18:19:17.000+02:00</time>
<speed>2.2222223</speed>
<course>290.0</course>
<ele>86.0</ele>
</trkpt>
<trkpt lat="52.3702275753006" lon="13.385961055755226">
<time>2011-04-09T18:19:18.000+02:00</time>
<speed>2.2222223</speed>
<course>285.0</course>
<ele>86.0</ele>
</trkpt>
<trkpt lat="52.3702275753006" lon="13.385939598083107">
<time>2011-04-09T18:19:19.000+02:00</time>
<speed>2.2222223</speed>
<course>285.0</course>
<ele>86.0</ele>
</trkpt>
<trkpt lat="52.37023830413666" lon="13.385896682738869">
<time>2011-04-09T18:19:20.000+02:00</time>
<speed>1.9444444</speed>
<course>283.0</course>
<ele>86.0</ele>
</trkpt>
<trkpt lat="52.37023830413666" lon="13.38587522506675">
<time>2011-04-09T18:19:21.000+02:00</time>
<speed>1.9444444</speed>
<course>283.0</course>
<ele>86.0</ele>
</trkpt>
<trkpt lat="52.37023830413666" lon="13.385832309722511">
<time>2011-04-09T18:19:22.000+02:00</time>
<speed>1.9444444</speed>
<course>283.0</course>
<ele>86.0</ele>
</trkpt>
<trkpt lat="52.37024903297272" lon="13.385789394378273">
<time>2011-04-09T18:19:23.000+02:00</time>
<speed>2.2222223</speed>
<course>281.0</course>
<ele>86.0</ele>
</trkpt>
<trkpt lat="52.37025976180878" lon="13.385746479034035">
<time>2011-04-09T18:19:24.000+02:00</time>
<speed>2.2222223</speed>
<course>279.0</course>
<ele>86.0</ele>
</trkpt>
<trkpt lat="52.37025976180878" lon="13.385703563689797">
<time>2011-04-09T18:19:25.000+02:00</time>
<speed>2.2222223</speed>
<course>278.0</course>
<ele>86.0</ele>
</trkpt>
<trkpt lat="52.37027049064484" lon="13.385660648345558">
<time>2011-04-09T18:19:26.000+02:00</time>
<speed>2.2222223</speed>
<course>279.0</course>
<ele>86.0</ele>
</trkpt>
<trkpt lat="52.3702812194809" lon="13.38561773300132">
<time>2011-04-09T18:19:27.000+02:00</time>
<speed>2.2222223</speed>
<course>281.0</course>
<ele>86.0</ele>
</trkpt>
<trkpt lat="52.37029194831696" lon="13.3855962753292">
<time>2011-04-09T18:19:28.000+02:00</time>
<speed>2.2222223</speed>
<course>282.0</course>
<ele>86.0</ele>
</trkpt>
<trkpt lat="52.37029194831696" lon="13.385574817657082">
<time>2011-04-09T18:19:29.000+02:00</time>
<speed>1.6666666</speed>
<course>281.0</course>
<ele>86.0</ele>
</trkpt>
<trkpt lat="52.37030267715302" lon="13.385531902312843">
<time>2011-04-09T18:19:30.000+02:00</time>
<speed>1.6666666</speed>
<course>283.0</course>
<ele>87.0</ele>
</trkpt>
<trkpt lat="52.37030267715302" lon="13.385510444640724">
<time>2011-04-09T18:19:31.000+02:00</time>
<speed>1.3888888</speed>
<course>280.0</course>
<ele>87.0</ele>
</trkpt>
<trkpt lat="52.37031340598908" lon="13.385488986968605">
<time>2011-04-09T18:19:32.000+02:00</time>
<speed>1.3888888</speed>
<course>281.0</course>
<ele>87.0</ele>
</trkpt>
<trkpt lat="52.37031340598908" lon="13.385467529296486">
<time>2011-04-09T18:19:33.000+02:00</time>
<speed>1.3888888</speed>
<course>287.0</course>
<ele>87.0</ele>
</trkpt>
<trkpt lat="52.37032413482514" lon="13.385446071624367">
<time>2011-04-09T18:19:34.000+02:00</time>
<speed>1.3888888</speed>
<course>288.0</course>
<ele>87.0</ele>
</trkpt>
<trkpt lat="52.37032413482514" lon="13.385424613952248">
<time>2011-04-09T18:19:35.000+02:00</time>
<speed>1.3888888</speed>
<course>292.0</course>
<ele>87.0</ele>
</trkpt>
<trkpt lat="52.3703348636612" lon="13.385403156280129">
<time>2011-04-09T18:19:36.000+02:00</time>
<speed>1.3888888</speed>
<course>290.0</course>
<ele>87.0</ele>
</trkpt>
<trkpt lat="52.3703348636612" lon="13.38538169860801">
<time>2011-04-09T18:19:37.000+02:00</time>
<speed>1.3888888</speed>
<course>286.0</course>
<ele>87.0</ele>
</trkpt>
<trkpt lat="52.3703348636612" lon="13.385338783263771">
<time>2011-04-09T18:19:38.000+02:00</time>
<speed>1.6666666</speed>
<course>283.0</course>
<ele>87.0</ele>
</trkpt>
<trkpt lat="52.37034559249726" lon="13.385295867919533">
<time>2011-04-09T18:19:39.000+02:00</time>
<speed>1.9444444</speed>
<course>281.0</course>
<ele>87.0</ele>
</trkpt>
<trkpt lat="52.37034559249726" lon="13.385252952575295">
<time>2011-04-09T18:19:40.000+02:00</time>
<speed>1.9444444</speed>
<course>280.0</course>
<ele>87.0</ele>
</trkpt>
<trkpt lat="52.37034559249726" lon="13.385231494903175">
<time>2011-04-09T18:19:41.000+02:00</time>
<speed>1.9444444</speed>
<course>279.0</course>
<ele>87.0</ele>
</trkpt>
<trkpt lat="52.37034559249726" lon="13.385188579558937">
<time>2011-04-09T18:19:42.000+02:00</time>
<speed>1.9444444</speed>
<course>278.0</course>
<ele>87.0</ele>
</trkpt>
<trkpt lat="52.37035632133332" lon="13.385145664214699">
<time>2011-04-09T18:19:43.000+02:00</time>
<speed>2.2222223</speed>
<course>282.0</course>
<ele>87.0</ele>
</trkpt>
<trkpt lat="52.37035632133332" lon="13.38512420654258">
<time>2011-04-09T18:19:44.000+02:00</time>
<speed>2.2222223</speed>
<course>282.0</course>
<ele>87.0</ele>
</trkpt>
<trkpt lat="52.37036705016938" lon="13.385081291198341">
<time>2011-04-09T18:19:45.000+02:00</time>
<speed>2.2222223</speed>
<course>283.0</course>
<ele>87.0</ele>
</trkpt>
<trkpt lat="52.37036705016938" lon="13.385038375854103">
<time>2011-04-09T18:19:46.000+02:00</time>
<speed>1.9444444</speed>
<course>286.0</course>
<ele>87.0</ele>
</trkpt>
<trkpt lat="52.37037777900544" lon="13.385016918181984">
<time>2011-04-09T18:19:47.000+02:00</time>
<speed>1.9444444</speed>
<course>288.0</course>
<ele>87.0</ele>
</trkpt>
<trkpt lat="52.37037777900544" lon="13.384974002837746">
<time>2011-04-09T18:19:48.000+02:00</time>
<speed>2.2222223</speed>
<course>290.0</course>
<ele>87.0</ele>
</trkpt>
<trkpt lat="52.3703885078415" lon="13.384931087493507">
<time>2011-04-09T18:19:49.000+02:00</time>
<speed>2.5</speed>
<course>287.0</course>
<ele>87.0</ele>
</trkpt>
<trkpt lat="52.3703885078415" lon="13.38488817214927">
<time>2011-04-09T18:19:50.000+02:00</time>
<speed>2.5</speed>
<course>288.0</course>
<ele>87.0</ele>
</trkpt>
<trkpt lat="52.37039923667756" lon="13.38486671447715">
<time>2011-04-09T18:19:51.000+02:00</time>
<speed>2.5</speed>
<course>289.0</course>
<ele>87.0</ele>
</trkpt>
<trkpt lat="52.37039923667756" lon="13.384823799132912">
<time>2011-04-09T18:19:52.000+02:00</time>
<speed>2.2222223</speed>
<course>289.0</course>
<ele>87.0</ele>
</trkpt>
<trkpt lat="52.370409965513616" lon="13.384780883788673">
<time>2011-04-09T18:19:53.000+02:00</time>
<speed>1.9444444</speed>
<course>289.0</course>
<ele>87.0</ele>
</trkpt>
<trkpt lat="52.370409965513616" lon="13.384737968444435">
<time>2011-04-09T18:19:54.000+02:00</time>
<speed>1.9444444</speed>
<course>289.0</course>
<ele>87.0</ele>
</trkpt>
<trkpt lat="52.370409965513616" lon="13.384716510772316">
<time>2011-04-09T18:19:55.000+02:00</time>
<speed>1.6666666</speed>
<course>288.0</course>
<ele>87.0</ele>
</trkpt>
<trkpt lat="52.370420694349676" lon="13.384695053100197">
<time>2011-04-09T18:19:56.000+02:00</time>
<speed>1.6666666</speed>
<course>290.0</course>
<ele>87.0</ele>
</trkpt>
<trkpt lat="52.370420694349676" lon="13.384673595428078">
<time>2011-04-09T18:19:57.000+02:00</time>
<speed>1.6666666</speed>
<course>288.0</course>
<ele>87.0</ele>
</trkpt>
<trkpt lat="52.370431423185735" lon="13.38460922241172">
<time>2011-04-09T18:19:59.000+02:00</time>
<speed>1.3888888</speed>
<course>283.0</course>
<ele>87.0</ele>
</trkpt>
<trkpt lat="52.370431423185735" lon="13.384587764739601">
<time>2011-04-09T18:20:00.000+02:00</time>
<speed>1.3888888</speed>
<course>287.0</course>
<ele>87.0</ele>
</trkpt>
<trkpt lat="52.370431423185735" lon="13.384566307067482">
<time>2011-04-09T18:20:01.000+02:00</time>
<speed>1.6666666</speed>
<course>286.0</course>
<ele>87.0</ele>
</trkpt>
<trkpt lat="52.370442152021795" lon="13.384544849395363">
<time>2011-04-09T18:20:02.000+02:00</time>
<speed>2.2222223</speed>
<course>288.0</course>
<ele>87.0</ele>
</trkpt>
<trkpt lat="52.370442152021795" lon="13.384501934051125">
<time>2011-04-09T18:20:03.000+02:00</time>
<speed>2.2222223</speed>
<course>287.0</course>
<ele>87.0</ele>
</trkpt>
<trkpt lat="52.370452880857854" lon="13.384459018706886">
<time>2011-04-09T18:20:04.000+02:00</time>
<speed>2.2222223</speed>
<course>284.0</course>
<ele>87.0</ele>
</trkpt>
<trkpt lat="52.370452880857854" lon="13.384437561034767">
<time>2011-04-09T18:20:05.000+02:00</time>
<speed>2.2222223</speed>
<course>283.0</course>
<ele>87.0</ele>
</trkpt>
<trkpt lat="52.370463609693914" lon="13.384394645690529">
<time>2011-04-09T18:20:06.000+02:00</time>
<speed>2.2222223</speed>
<course>284.0</course>
<ele>87.0</ele>
</trkpt>
<trkpt lat="52.370463609693914" lon="13.38435173034629">
<time>2011-04-09T18:20:07.000+02:00</time>
<speed>2.5</speed>
<course>283.0</course>
<ele>87.0</ele>
</trkpt>
<trkpt lat="52.370474338529974" lon="13.384308815002052">
<time>2011-04-09T18:20:08.000+02:00</time>
<speed>2.5</speed>
<course>284.0</course>
<ele>87.0</ele>
</trkpt>
<trkpt lat="52.370474338529974" lon="13.384265899657814">
<time>2011-04-09T18:20:09.000+02:00</time>
<speed>2.5</speed>
<course>284.0</course>
<ele>87.0</ele>
</trkpt>
<trkpt lat="52.37048506736603" lon="13.384244441985695">
<time>2011-04-09T18:20:10.000+02:00</time>
<speed>2.5</speed>
<course>286.0</course>
<ele>87.0</ele>
</trkpt>
<trkpt lat="52.37048506736603" lon="13.384201526641457">
<time>2011-04-09T18:20:11.000+02:00</time>
<speed>2.5</speed>
<course>289.0</course>
<ele>87.0</ele>
</trkpt>
<trkpt lat="52.37049579620209" lon="13.384158611297218">
<time>2011-04-09T18:20:12.000+02:00</time>
<speed>2.5</speed>
<course>288.0</course>
<ele>87.0</ele>
</trkpt>
<trkpt lat="52.37049579620209" lon="13.3841371536251">
<time>2011-04-09T18:20:13.000+02:00</time>
<speed>2.2222223</speed>
<course>285.0</course>
<ele>87.0</ele>
</trkpt>
<trkpt lat="52.37050652503815" lon="13.384094238280861">
<time>2011-04-09T18:20:14.000+02:00</time>
<speed>2.2222223</speed>
<course>285.0</course>
<ele>87.0</ele>
</trkpt>
<trkpt lat="52.37050652503815" lon="13.384072780608742">
<time>2011-04-09T18:20:15.000+02:00</time>
<speed>1.9444444</speed>
<course>283.0</course>
<ele>87.0</ele>
</trkpt>
<trkpt lat="52.37050652503815" lon="13.384051322936623">
<time>2011-04-09T18:20:16.000+02:00</time>
<speed>1.6666666</speed>
<course>283.0</course>
<ele>87.0</ele>
</trkpt>
<trkpt lat="52.37051725387421" lon="13.384008407592384">
<time>2011-04-09T18:20:17.000+02:00</time>
<speed>1.3888888</speed>
<course>282.0</course>
<ele>87.0</ele>
</trkpt>
<trkpt lat="52.37051725387421" lon="13.384008407592384">
<time>2011-04-09T18:20:18.000+02:00</time>
<speed>0.8333333</speed>
<course>280.0</course>
<ele>87.0</ele>
</trkpt>
<trkpt lat="52.37051725387421" lon="13.383986949920265">
<time>2011-04-09T18:20:19.000+02:00</time>
<speed>0.5555556</speed>
<course>277.0</course>
<ele>87.0</ele>
</trkpt>
<trkpt lat="52.37051725387421" lon="13.383986949920265">
<time>2011-04-09T18:20:20.000+02:00</time>
<speed>0.5555556</speed>
<course>272.0</course>
<ele>87.0</ele>
</trkpt>
<trkpt lat="52.37051725387421" lon="13.383965492248146">
<time>2011-04-09T18:20:21.000+02:00</time>
<speed>0.5555556</speed>
<course>270.0</course>
<ele>87.0</ele>
</trkpt>
<trkpt lat="52.37051725387421" lon="13.383965492248146">
<time>2011-04-09T18:20:22.000+02:00</time>
<speed>0.0</speed>
<course>270.0</course>
<ele>87.0</ele>
</trkpt>
<trkpt lat="52.37051725387421" lon="13.383965492248146">
<time>2011-04-09T18:20:23.000+02:00</time>
<speed>0.0</speed>
<course>270.0</course>
<ele>87.0</ele>
</trkpt>
<trkpt lat="52.37050652503815" lon="13.383944034576027">
<time>2011-04-09T18:20:24.000+02:00</time>
<speed>0.0</speed>
<course>270.0</course>
<ele>87.0</ele>
</trkpt>
<trkpt lat="52.37050652503815" lon="13.383944034576027">
<time>2011-04-09T18:20:25.000+02:00</time>
<speed>0.2777778</speed>
<course>270.0</course>
<ele>87.0</ele>
</trkpt>
<trkpt lat="52.37050652503815" lon="13.383944034576027">
<time>2011-04-09T18:20:26.000+02:00</time>
<speed>0.2777778</speed>
<course>270.0</course>
<ele>87.0</ele>
</trkpt>
<trkpt lat="52.37050652503815" lon="13.383922576903908">
<time>2011-04-09T18:20:27.000+02:00</time>
<speed>0.2777778</speed>
<course>270.0</course>
<ele>87.0</ele>
</trkpt>
<trkpt lat="52.37050652503815" lon="13.383922576903908">
<time>2011-04-09T18:20:28.000+02:00</time>
<speed>0.5555556</speed>
<course>266.0</course>
<ele>87.0</ele>
</trkpt>
<trkpt lat="52.37050652503815" lon="13.383901119231789">
<time>2011-04-09T18:20:29.000+02:00</time>
<speed>0.5555556</speed>
<course>270.0</course>
<ele>87.0</ele>
</trkpt>
<trkpt lat="52.37050652503815" lon="13.383901119231789">
<time>2011-04-09T18:20:30.000+02:00</time>
<speed>0.5555556</speed>
<course>270.0</course>
<ele>87.0</ele>
</trkpt>
<trkpt lat="52.37050652503815" lon="13.383901119231789">
<time>2011-04-09T18:20:31.000+02:00</time>
<speed>0.5555556</speed>
<course>266.0</course>
<ele>87.0</ele>
</trkpt>
<trkpt lat="52.37050652503815" lon="13.38387966155967">
<time>2011-04-09T18:20:32.000+02:00</time>
<speed>0.5555556</speed>
<course>262.0</course>
<ele>87.0</ele>
</trkpt>
<trkpt lat="52.37049579620209" lon="13.38387966155967">
<time>2011-04-09T18:20:33.000+02:00</time>
<speed>0.5555556</speed>
<course>262.0</course>
<ele>87.0</ele>
</trkpt>
<trkpt lat="52.37049579620209" lon="13.38387966155967">
<time>2011-04-09T18:20:34.000+02:00</time>
<speed>0.0</speed>
<course>262.0</course>
<ele>87.0</ele>
</trkpt>
<trkpt lat="52.37050652503815" lon="13.38387966155967">
<time>2011-04-09T18:20:35.000+02:00</time>
<speed>0.0</speed>
<course>262.0</course>
<ele>87.0</ele>
</trkpt>
<trkpt lat="52.37050652503815" lon="13.38385820388755">
<time>2011-04-09T18:20:36.000+02:00</time>
<speed>0.0</speed>
<course>262.0</course>
<ele>87.0</ele>
</trkpt>
<trkpt lat="52.37050652503815" lon="13.38385820388755">
<time>2011-04-09T18:20:37.000+02:00</time>
<speed>0.0</speed>
<course>262.0</course>
<ele>87.0</ele>
</trkpt>
<trkpt lat="52.37050652503815" lon="13.38385820388755">
<time>2011-04-09T18:20:38.000+02:00</time>
<speed>0.0</speed>
<course>262.0</course>
<ele>87.0</ele>
</trkpt>
<trkpt lat="52.37050652503815" lon="13.38385820388755">
<time>2011-04-09T18:20:39.000+02:00</time>
<speed>0.0</speed>
<course>262.0</course>
<ele>87.0</ele>
</trkpt>
<trkpt lat="52.37050652503815" lon="13.38385820388755">
<time>2011-04-09T18:20:40.000+02:00</time>
<speed>0.0</speed>
<course>262.0</course>
<ele>87.0</ele>
</trkpt>
<trkpt lat="52.37050652503815" lon="13.38385820388755">
<time>2011-04-09T18:20:41.000+02:00</time>
<speed>0.0</speed>
<course>262.0</course>
<ele>87.0</ele>
</trkpt>
<trkpt lat="52.37050652503815" lon="13.38385820388755">
<time>2011-04-09T18:20:42.000+02:00</time>
<speed>0.0</speed>
<course>262.0</course>
<ele>87.0</ele>
</trkpt>
<trkpt lat="52.37050652503815" lon="13.383836746215431">
<time>2011-04-09T18:20:43.000+02:00</time>
<speed>0.0</speed>
<course>262.0</course>
<ele>87.0</ele>
</trkpt>
<trkpt lat="52.37050652503815" lon="13.383836746215431">
<time>2011-04-09T18:20:44.000+02:00</time>
<speed>0.0</speed>
<course>262.0</course>
<ele>87.0</ele>
</trkpt>
<trkpt lat="52.37050652503815" lon="13.383836746215431">
<time>2011-04-09T18:20:45.000+02:00</time>
<speed>0.0</speed>
<course>262.0</course>
<ele>87.0</ele>
</trkpt>
<trkpt lat="52.37050652503815" lon="13.383836746215431">
<time>2011-04-09T18:20:46.000+02:00</time>
<speed>0.0</speed>
<course>262.0</course>
<ele>87.0</ele>
</trkpt>
<trkpt lat="52.37050652503815" lon="13.383836746215431">
<time>2011-04-09T18:20:47.000+02:00</time>
<speed>0.0</speed>
<course>262.0</course>
<ele>87.0</ele>
</trkpt>
<trkpt lat="52.37050652503815" lon="13.383836746215431">
<time>2011-04-09T18:20:48.000+02:00</time>
<speed>0.0</speed>
<course>262.0</course>
<ele>87.0</ele>
</trkpt>
<trkpt lat="52.37050652503815" lon="13.383836746215431">
<time>2011-04-09T18:20:49.000+02:00</time>
<speed>0.0</speed>
<course>262.0</course>
<ele>87.0</ele>
</trkpt>
<trkpt lat="52.37050652503815" lon="13.383836746215431">
<time>2011-04-09T18:20:50.000+02:00</time>
<speed>0.0</speed>
<course>262.0</course>
<ele>87.0</ele>
</trkpt>
<trkpt lat="52.37050652503815" lon="13.383836746215431">
<time>2011-04-09T18:20:51.000+02:00</time>
<speed>0.0</speed>
<course>262.0</course>
<ele>87.0</ele>
</trkpt>
<trkpt lat="52.37050652503815" lon="13.383836746215431">
<time>2011-04-09T18:20:52.000+02:00</time>
<speed>0.0</speed>
<course>262.0</course>
<ele>87.0</ele>
</trkpt>
<trkpt lat="52.37050652503815" lon="13.383836746215431">
<time>2011-04-09T18:20:53.000+02:00</time>
<speed>0.0</speed>
<course>262.0</course>
<ele>87.0</ele>
</trkpt>
<trkpt lat="52.37050652503815" lon="13.383836746215431">
<time>2011-04-09T18:20:54.000+02:00</time>
<speed>0.0</speed>
<course>262.0</course>
<ele>87.0</ele>
</trkpt>
<trkpt lat="52.37050652503815" lon="13.383836746215431">
<time>2011-04-09T18:20:55.000+02:00</time>
<speed>0.0</speed>
<course>262.0</course>
<ele>87.0</ele>
</trkpt>
<trkpt lat="52.37050652503815" lon="13.383836746215431">
<time>2011-04-09T18:20:56.000+02:00</time>
<speed>0.0</speed>
<course>262.0</course>
<ele>87.0</ele>
</trkpt>
<trkpt lat="52.37051725387421" lon="13.383836746215431">
<time>2011-04-09T18:20:57.000+02:00</time>
<speed>0.0</speed>
<course>262.0</course>
<ele>87.0</ele>
</trkpt>
<trkpt lat="52.37051725387421" lon="13.383836746215431">
<time>2011-04-09T18:20:58.000+02:00</time>
<speed>0.0</speed>
<course>262.0</course>
<ele>87.0</ele>
</trkpt>
<trkpt lat="52.37051725387421" lon="13.383836746215431">
<time>2011-04-09T18:20:59.000+02:00</time>
<speed>0.0</speed>
<course>262.0</course>
<ele>87.0</ele>
</trkpt>
<trkpt lat="52.37051725387421" lon="13.383836746215431">
<time>2011-04-09T18:21:00.000+02:00</time>
<speed>0.0</speed>
<course>262.0</course>
<ele>87.0</ele>
</trkpt>
<trkpt lat="52.37051725387421" lon="13.383836746215431">
<time>2011-04-09T18:21:01.000+02:00</time>
<speed>0.0</speed>
<course>262.0</course>
<ele>87.0</ele>
</trkpt>
<trkpt lat="52.37051725387421" lon="13.383836746215431">
<time>2011-04-09T18:21:02.000+02:00</time>
<speed>0.0</speed>
<course>262.0</course>
<ele>87.0</ele>
</trkpt>
<trkpt lat="52.37051725387421" lon="13.383836746215431">
<time>2011-04-09T18:21:03.000+02:00</time>
<speed>0.0</speed>
<course>262.0</course>
<ele>87.0</ele>
</trkpt>
<trkpt lat="52.37051725387421" lon="13.383836746215431">
<time>2011-04-09T18:21:04.000+02:00</time>
<speed>0.0</speed>
<course>262.0</course>
<ele>87.0</ele>
</trkpt>
<trkpt lat="52.37051725387421" lon="13.383815288543312">
<time>2011-04-09T18:21:06.000+02:00</time>
<speed>0.0</speed>
<course>262.0</course>
<ele>87.0</ele>
</trkpt>
<trkpt lat="52.37051725387421" lon="13.383815288543312">
<time>2011-04-09T18:21:07.000+02:00</time>
<speed>0.0</speed>
<course>262.0</course>
<ele>87.0</ele>
</trkpt>
<trkpt lat="52.37051725387421" lon="13.383815288543312">
<time>2011-04-09T18:21:08.000+02:00</time>
<speed>0.0</speed>
<course>262.0</course>
<ele>87.0</ele>
</trkpt>
<trkpt lat="52.37051725387421" lon="13.383815288543312">
<time>2011-04-09T18:21:09.000+02:00</time>
<speed>0.0</speed>
<course>262.0</course>
<ele>87.0</ele>
</trkpt>
<trkpt lat="52.37051725387421" lon="13.383815288543312">
<time>2011-04-09T18:21:10.000+02:00</time>
<speed>0.0</speed>
<course>262.0</course>
<ele>87.0</ele>
</trkpt>
<trkpt lat="52.37052798271027" lon="13.383815288543312">
<time>2011-04-09T18:21:11.000+02:00</time>
<speed>0.0</speed>
<course>262.0</course>
<ele>87.0</ele>
</trkpt>
<trkpt lat="52.37052798271027" lon="13.383815288543312">
<time>2011-04-09T18:21:12.000+02:00</time>
<speed>0.0</speed>
<course>262.0</course>
<ele>87.0</ele>
</trkpt>
<trkpt lat="52.37052798271027" lon="13.383793830871193">
<time>2011-04-09T18:21:13.000+02:00</time>
<speed>0.0</speed>
<course>262.0</course>
<ele>87.0</ele>
</trkpt>
<trkpt lat="52.37052798271027" lon="13.383793830871193">
<time>2011-04-09T18:21:14.000+02:00</time>
<speed>0.0</speed>
<course>262.0</course>
<ele>87.0</ele>
</trkpt>
<trkpt lat="52.37052798271027" lon="13.383793830871193">
<time>2011-04-09T18:21:15.000+02:00</time>
<speed>0.0</speed>
<course>262.0</course>
<ele>87.0</ele>
</trkpt>
<trkpt lat="52.37053871154633" lon="13.383793830871193">
<time>2011-04-09T18:21:16.000+02:00</time>
<speed>0.0</speed>
<course>262.0</course>
<ele>86.0</ele>
</trkpt>
<trkpt lat="52.37053871154633" lon="13.383793830871193">
<time>2011-04-09T18:21:17.000+02:00</time>
<speed>0.0</speed>
<course>262.0</course>
<ele>86.0</ele>
</trkpt>
<trkpt lat="52.37053871154633" lon="13.383793830871193">
<time>2011-04-09T18:21:18.000+02:00</time>
<speed>0.0</speed>
<course>262.0</course>
<ele>86.0</ele>
</trkpt>
<trkpt lat="52.37054944038239" lon="13.383793830871193">
<time>2011-04-09T18:21:19.000+02:00</time>
<speed>0.0</speed>
<course>262.0</course>
<ele>86.0</ele>
</trkpt>
<trkpt lat="52.37054944038239" lon="13.383772373199074">
<time>2011-04-09T18:21:20.000+02:00</time>
<speed>0.0</speed>
<course>262.0</course>
<ele>86.0</ele>
</trkpt>
<trkpt lat="52.37054944038239" lon="13.383772373199074">
<time>2011-04-09T18:21:21.000+02:00</time>
<speed>0.0</speed>
<course>262.0</course>
<ele>86.0</ele>
</trkpt>
<trkpt lat="52.37056016921845" lon="13.383772373199074">
<time>2011-04-09T18:21:22.000+02:00</time>
<speed>0.0</speed>
<course>262.0</course>
<ele>86.0</ele>
</trkpt>
<trkpt lat="52.37056016921845" lon="13.383772373199074">
<time>2011-04-09T18:21:23.000+02:00</time>
<speed>0.0</speed>
<course>262.0</course>
<ele>86.0</ele>
</trkpt>
<trkpt lat="52.37056016921845" lon="13.383793830871193">
<time>2011-04-09T18:21:24.000+02:00</time>
<speed>0.0</speed>
<course>262.0</course>
<ele>86.0</ele>
</trkpt>
<trkpt lat="52.37056016921845" lon="13.383793830871193">
<time>2011-04-09T18:21:25.000+02:00</time>
<speed>0.0</speed>
<course>262.0</course>
<ele>86.0</ele>
</trkpt>
<trkpt lat="52.37056016921845" lon="13.383793830871193">
<time>2011-04-09T18:21:26.000+02:00</time>
<speed>0.0</speed>
<course>262.0</course>
<ele>86.0</ele>
</trkpt>
<trkpt lat="52.37056016921845" lon="13.383793830871193">
<time>2011-04-09T18:21:27.000+02:00</time>
<speed>0.0</speed>
<course>262.0</course>
<ele>86.0</ele>
</trkpt>
<trkpt lat="52.37056016921845" lon="13.383793830871193">
<time>2011-04-09T18:21:28.000+02:00</time>
<speed>0.0</speed>
<course>262.0</course>
<ele>86.0</ele>
</trkpt>
<trkpt lat="52.37056016921845" lon="13.383793830871193">
<time>2011-04-09T18:21:29.000+02:00</time>
<speed>0.0</speed>
<course>262.0</course>
<ele>86.0</ele>
</trkpt>
<trkpt lat="52.37056016921845" lon="13.383793830871193">
<time>2011-04-09T18:21:30.000+02:00</time>
<speed>0.0</speed>
<course>262.0</course>
<ele>86.0</ele>
</trkpt>
<trkpt lat="52.37056016921845" lon="13.383793830871193">
<time>2011-04-09T18:21:31.000+02:00</time>
<speed>0.0</speed>
<course>262.0</course>
<ele>86.0</ele>
</trkpt>
<trkpt lat="52.37056016921845" lon="13.383793830871193">
<time>2011-04-09T18:21:32.000+02:00</time>
<speed>0.0</speed>
<course>262.0</course>
<ele>86.0</ele>
</trkpt>
<trkpt lat="52.37056016921845" lon="13.383793830871193">
<time>2011-04-09T18:21:33.000+02:00</time>
<speed>0.0</speed>
<course>262.0</course>
<ele>86.0</ele>
</trkpt>
<trkpt lat="52.37056016921845" lon="13.383793830871193">
<time>2011-04-09T18:21:34.000+02:00</time>
<speed>0.0</speed>
<course>262.0</course>
<ele>86.0</ele>
</trkpt>
<trkpt lat="52.37056016921845" lon="13.383793830871193">
<time>2011-04-09T18:21:35.000+02:00</time>
<speed>0.0</speed>
<course>262.0</course>
<ele>86.0</ele>
</trkpt>
<trkpt lat="52.37056016921845" lon="13.383793830871193">
<time>2011-04-09T18:21:36.000+02:00</time>
<speed>0.0</speed>
<course>262.0</course>
<ele>86.0</ele>
</trkpt>
<trkpt lat="52.37056016921845" lon="13.383793830871193">
<time>2011-04-09T18:21:37.000+02:00</time>
<speed>0.0</speed>
<course>262.0</course>
<ele>86.0</ele>
</trkpt>
<trkpt lat="52.37056016921845" lon="13.383815288543312">
<time>2011-04-09T18:21:38.000+02:00</time>
<speed>0.0</speed>
<course>262.0</course>
<ele>86.0</ele>
</trkpt>
<trkpt lat="52.37056016921845" lon="13.383815288543312">
<time>2011-04-09T18:21:39.000+02:00</time>
<speed>0.0</speed>
<course>262.0</course>
<ele>86.0</ele>
</trkpt>
<trkpt lat="52.37056016921845" lon="13.383815288543312">
<time>2011-04-09T18:21:40.000+02:00</time>
<speed>0.0</speed>
<course>262.0</course>
<ele>86.0</ele>
</trkpt>
<trkpt lat="52.37056016921845" lon="13.383815288543312">
<time>2011-04-09T18:21:41.000+02:00</time>
<speed>0.0</speed>
<course>262.0</course>
<ele>86.0</ele>
</trkpt>
<trkpt lat="52.37056016921845" lon="13.383815288543312">
<time>2011-04-09T18:21:42.000+02:00</time>
<speed>0.0</speed>
<course>262.0</course>
<ele>86.0</ele>
</trkpt>
<trkpt lat="52.37054944038239" lon="13.383815288543312">
<time>2011-04-09T18:21:43.000+02:00</time>
<speed>0.0</speed>
<course>262.0</course>
<ele>86.0</ele>
</trkpt>
<trkpt lat="52.37054944038239" lon="13.383815288543312">
<time>2011-04-09T18:21:44.000+02:00</time>
<speed>0.0</speed>
<course>262.0</course>
<ele>86.0</ele>
</trkpt>
<trkpt lat="52.37053871154633" lon="13.383815288543312">
<time>2011-04-09T18:21:45.000+02:00</time>
<speed>0.0</speed>
<course>262.0</course>
<ele>86.0</ele>
</trkpt>
<trkpt lat="52.37053871154633" lon="13.383836746215431">
<time>2011-04-09T18:21:46.000+02:00</time>
<speed>0.0</speed>
<course>262.0</course>
<ele>86.0</ele>
</trkpt>
<trkpt lat="52.37052798271027" lon="13.383836746215431">
<time>2011-04-09T18:21:47.000+02:00</time>
<speed>0.0</speed>
<course>262.0</course>
<ele>86.0</ele>
</trkpt>
<trkpt lat="52.37052798271027" lon="13.383836746215431">
<time>2011-04-09T18:21:48.000+02:00</time>
<speed>0.0</speed>
<course>262.0</course>
<ele>86.0</ele>
</trkpt>
<trkpt lat="52.37051725387421" lon="13.383836746215431">
<time>2011-04-09T18:21:49.000+02:00</time>
<speed>0.0</speed>
<course>262.0</course>
<ele>86.0</ele>
</trkpt>
<trkpt lat="52.37051725387421" lon="13.383836746215431">
<time>2011-04-09T18:21:50.000+02:00</time>
<speed>0.0</speed>
<course>262.0</course>
<ele>86.0</ele>
</trkpt>
<trkpt lat="52.37050652503815" lon="13.383836746215431">
<time>2011-04-09T18:21:51.000+02:00</time>
<speed>0.0</speed>
<course>262.0</course>
<ele>86.0</ele>
</trkpt>
<trkpt lat="52.37050652503815" lon="13.383836746215431">
<time>2011-04-09T18:21:52.000+02:00</time>
<speed>0.0</speed>
<course>262.0</course>
<ele>86.0</ele>
</trkpt>
<trkpt lat="52.37050652503815" lon="13.383836746215431">
<time>2011-04-09T18:21:53.000+02:00</time>
<speed>0.0</speed>
<course>262.0</course>
<ele>86.0</ele>
</trkpt>
<trkpt lat="52.37049579620209" lon="13.383836746215431">
<time>2011-04-09T18:21:54.000+02:00</time>
<speed>0.0</speed>
<course>262.0</course>
<ele>86.0</ele>
</trkpt>
<trkpt lat="52.37049579620209" lon="13.38385820388755">
<time>2011-04-09T18:21:55.000+02:00</time>
<speed>0.0</speed>
<course>262.0</course>
<ele>86.0</ele>
</trkpt>
<trkpt lat="52.37049579620209" lon="13.38385820388755">
<time>2011-04-09T18:21:56.000+02:00</time>
<speed>0.0</speed>
<course>262.0</course>
<ele>86.0</ele>
</trkpt>
<trkpt lat="52.37049579620209" lon="13.38385820388755">
<time>2011-04-09T18:21:57.000+02:00</time>
<speed>0.0</speed>
<course>262.0</course>
<ele>86.0</ele>
</trkpt>
<trkpt lat="52.37049579620209" lon="13.38385820388755">
<time>2011-04-09T18:21:58.000+02:00</time>
<speed>0.0</speed>
<course>262.0</course>
<ele>86.0</ele>
</trkpt>
<trkpt lat="52.37049579620209" lon="13.38385820388755">
<time>2011-04-09T18:21:59.000+02:00</time>
<speed>0.0</speed>
<course>262.0</course>
<ele>86.0</ele>
</trkpt>
<trkpt lat="52.37049579620209" lon="13.38385820388755">
<time>2011-04-09T18:22:00.000+02:00</time>
<speed>0.0</speed>
<course>262.0</course>
<ele>86.0</ele>
</trkpt>
<trkpt lat="52.37049579620209" lon="13.38385820388755">
<time>2011-04-09T18:22:01.000+02:00</time>
<speed>0.0</speed>
<course>262.0</course>
<ele>86.0</ele>
</trkpt>
<trkpt lat="52.37049579620209" lon="13.38385820388755">
<time>2011-04-09T18:22:02.000+02:00</time>
<speed>0.0</speed>
<course>262.0</course>
<ele>86.0</ele>
</trkpt>
<trkpt lat="52.37050652503815" lon="13.38385820388755">
<time>2011-04-09T18:22:03.000+02:00</time>
<speed>0.0</speed>
<course>262.0</course>
<ele>86.0</ele>
</trkpt>
<trkpt lat="52.37050652503815" lon="13.38385820388755">
<time>2011-04-09T18:22:04.000+02:00</time>
<speed>0.0</speed>
<course>262.0</course>
<ele>86.0</ele>
</trkpt>
<trkpt lat="52.37050652503815" lon="13.38385820388755">
<time>2011-04-09T18:22:05.000+02:00</time>
<speed>0.0</speed>
<course>262.0</course>
<ele>86.0</ele>
</trkpt>
<trkpt lat="52.37050652503815" lon="13.38385820388755">
<time>2011-04-09T18:22:07.000+02:00</time>
<speed>0.0</speed>
<course>262.0</course>
<ele>86.0</ele>
</trkpt>
<trkpt lat="52.37050652503815" lon="13.38385820388755">
<time>2011-04-09T18:22:08.000+02:00</time>
<speed>0.0</speed>
<course>262.0</course>
<ele>86.0</ele>
</trkpt>
<trkpt lat="52.37050652503815" lon="13.38385820388755">
<time>2011-04-09T18:22:09.000+02:00</time>
<speed>0.0</speed>
<course>262.0</course>
<ele>86.0</ele>
</trkpt>
<trkpt lat="52.37050652503815" lon="13.38385820388755">
<time>2011-04-09T18:22:10.000+02:00</time>
<speed>0.0</speed>
<course>262.0</course>
<ele>86.0</ele>
</trkpt>
<trkpt lat="52.37050652503815" lon="13.38385820388755">
<time>2011-04-09T18:22:11.000+02:00</time>
<speed>0.0</speed>
<course>262.0</course>
<ele>86.0</ele>
</trkpt>
<trkpt lat="52.37050652503815" lon="13.38385820388755">
<time>2011-04-09T18:22:12.000+02:00</time>
<speed>0.0</speed>
<course>262.0</course>
<ele>86.0</ele>
</trkpt>
<trkpt lat="52.37050652503815" lon="13.38385820388755">
<time>2011-04-09T18:22:13.000+02:00</time>
<speed>0.0</speed>
<course>262.0</course>
<ele>86.0</ele>
</trkpt>
<trkpt lat="52.37051725387421" lon="13.38385820388755">
<time>2011-04-09T18:22:14.000+02:00</time>
<speed>0.0</speed>
<course>262.0</course>
<ele>86.0</ele>
</trkpt>
<trkpt lat="52.37051725387421" lon="13.38385820388755">
<time>2011-04-09T18:22:15.000+02:00</time>
<speed>0.0</speed>
<course>262.0</course>
<ele>86.0</ele>
</trkpt>
<trkpt lat="52.37051725387421" lon="13.38387966155967">
<time>2011-04-09T18:22:16.000+02:00</time>
<speed>0.0</speed>
<course>262.0</course>
<ele>86.0</ele>
</trkpt>
<trkpt lat="52.37050652503815" lon="13.38387966155967">
<time>2011-04-09T18:22:17.000+02:00</time>
<speed>0.0</speed>
<course>262.0</course>
<ele>86.0</ele>
</trkpt>
<trkpt lat="52.37050652503815" lon="13.38387966155967">
<time>2011-04-09T18:22:18.000+02:00</time>
<speed>0.0</speed>
<course>262.0</course>
<ele>86.0</ele>
</trkpt>
<trkpt lat="52.37050652503815" lon="13.38387966155967">
<time>2011-04-09T18:22:19.000+02:00</time>
<speed>0.0</speed>
<course>262.0</course>
<ele>86.0</ele>
</trkpt>
<trkpt lat="52.37050652503815" lon="13.38387966155967">
<time>2011-04-09T18:22:20.000+02:00</time>
<speed>0.0</speed>
<course>262.0</course>
<ele>86.0</ele>
</trkpt>
<trkpt lat="52.37050652503815" lon="13.38387966155967">
<time>2011-04-09T18:22:21.000+02:00</time>
<speed>0.0</speed>
<course>262.0</course>
<ele>86.0</ele>
</trkpt>
<trkpt lat="52.37050652503815" lon="13.38387966155967">
<time>2011-04-09T18:22:22.000+02:00</time>
<speed>0.0</speed>
<course>262.0</course>
<ele>86.0</ele>
</trkpt>
<trkpt lat="52.37050652503815" lon="13.38387966155967">
<time>2011-04-09T18:22:23.000+02:00</time>
<speed>0.0</speed>
<course>262.0</course>
<ele>86.0</ele>
</trkpt>
<trkpt lat="52.37050652503815" lon="13.38387966155967">
<time>2011-04-09T18:22:24.000+02:00</time>
<speed>0.0</speed>
<course>262.0</course>
<ele>86.0</ele>
</trkpt>
<trkpt lat="52.37050652503815" lon="13.38387966155967">
<time>2011-04-09T18:22:25.000+02:00</time>
<speed>0.0</speed>
<course>262.0</course>
<ele>86.0</ele>
</trkpt>
<trkpt lat="52.37050652503815" lon="13.38387966155967">
<time>2011-04-09T18:22:26.000+02:00</time>
<speed>0.0</speed>
<course>262.0</course>
<ele>86.0</ele>
</trkpt>
<trkpt lat="52.37050652503815" lon="13.38387966155967">
<time>2011-04-09T18:22:27.000+02:00</time>
<speed>0.0</speed>
<course>262.0</course>
<ele>86.0</ele>
</trkpt>
<trkpt lat="52.37050652503815" lon="13.38387966155967">
<time>2011-04-09T18:22:28.000+02:00</time>
<speed>0.0</speed>
<course>262.0</course>
<ele>86.0</ele>
</trkpt>
<trkpt lat="52.37050652503815" lon="13.38385820388755">
<time>2011-04-09T18:22:29.000+02:00</time>
<speed>0.0</speed>
<course>262.0</course>
<ele>86.0</ele>
</trkpt>
<trkpt lat="52.37051725387421" lon="13.38385820388755">
<time>2011-04-09T18:22:30.000+02:00</time>
<speed>0.0</speed>
<course>262.0</course>
<ele>86.0</ele>
</trkpt>
<trkpt lat="52.37051725387421" lon="13.38385820388755">
<time>2011-04-09T18:22:31.000+02:00</time>
<speed>0.0</speed>
<course>262.0</course>
<ele>86.0</ele>
</trkpt>
<trkpt lat="52.37051725387421" lon="13.38385820388755">
<time>2011-04-09T18:22:32.000+02:00</time>
<speed>0.0</speed>
<course>262.0</course>
<ele>86.0</ele>
</trkpt>
<trkpt lat="52.37051725387421" lon="13.38385820388755">
<time>2011-04-09T18:22:33.000+02:00</time>
<speed>0.0</speed>
<course>262.0</course>
<ele>86.0</ele>
</trkpt>
<trkpt lat="52.37051725387421" lon="13.38385820388755">
<time>2011-04-09T18:22:34.000+02:00</time>
<speed>0.0</speed>
<course>262.0</course>
<ele>86.0</ele>
</trkpt>
<trkpt lat="52.37051725387421" lon="13.38385820388755">
<time>2011-04-09T18:22:35.000+02:00</time>
<speed>0.0</speed>
<course>262.0</course>
<ele>86.0</ele>
</trkpt>
<trkpt lat="52.37051725387421" lon="13.38385820388755">
<time>2011-04-09T18:22:36.000+02:00</time>
<speed>0.0</speed>
<course>262.0</course>
<ele>86.0</ele>
</trkpt>
<trkpt lat="52.37052798271027" lon="13.38385820388755">
<time>2011-04-09T18:22:37.000+02:00</time>
<speed>0.0</speed>
<course>262.0</course>
<ele>86.0</ele>
</trkpt>
<trkpt lat="52.37052798271027" lon="13.38385820388755">
<time>2011-04-09T18:22:38.000+02:00</time>
<speed>0.0</speed>
<course>262.0</course>
<ele>86.0</ele>
</trkpt>
<trkpt lat="52.37052798271027" lon="13.38385820388755">
<time>2011-04-09T18:22:39.000+02:00</time>
<speed>0.0</speed>
<course>262.0</course>
<ele>86.0</ele>
</trkpt>
<trkpt lat="52.37053871154633" lon="13.38385820388755">
<time>2011-04-09T18:22:40.000+02:00</time>
<speed>0.0</speed>
<course>262.0</course>
<ele>86.0</ele>
</trkpt>
<trkpt lat="52.37053871154633" lon="13.38385820388755">
<time>2011-04-09T18:22:41.000+02:00</time>
<speed>0.0</speed>
<course>262.0</course>
<ele>86.0</ele>
</trkpt>
<trkpt lat="52.37053871154633" lon="13.383836746215431">
<time>2011-04-09T18:22:42.000+02:00</time>
<speed>0.0</speed>
<course>262.0</course>
<ele>86.0</ele>
</trkpt>
<trkpt lat="52.37053871154633" lon="13.383836746215431">
<time>2011-04-09T18:22:43.000+02:00</time>
<speed>0.0</speed>
<course>262.0</course>
<ele>86.0</ele>
</trkpt>
<trkpt lat="52.37053871154633" lon="13.383836746215431">
<time>2011-04-09T18:22:44.000+02:00</time>
<speed>0.0</speed>
<course>262.0</course>
<ele>86.0</ele>
</trkpt>
<trkpt lat="52.37054944038239" lon="13.383836746215431">
<time>2011-04-09T18:22:45.000+02:00</time>
<speed>0.0</speed>
<course>262.0</course>
<ele>86.0</ele>
</trkpt>
<trkpt lat="52.37054944038239" lon="13.383836746215431">
<time>2011-04-09T18:22:46.000+02:00</time>
<speed>0.0</speed>
<course>262.0</course>
<ele>86.0</ele>
</trkpt>
<trkpt lat="52.37054944038239" lon="13.383836746215431">
<time>2011-04-09T18:22:47.000+02:00</time>
<speed>0.0</speed>
<course>262.0</course>
<ele>86.0</ele>
</trkpt>
<trkpt lat="52.37054944038239" lon="13.383836746215431">
<time>2011-04-09T18:22:48.000+02:00</time>
<speed>0.0</speed>
<course>262.0</course>
<ele>86.0</ele>
</trkpt>
<trkpt lat="52.37054944038239" lon="13.383836746215431">
<time>2011-04-09T18:22:49.000+02:00</time>
<speed>0.0</speed>
<course>262.0</course>
<ele>86.0</ele>
</trkpt>
<trkpt lat="52.37054944038239" lon="13.383836746215431">
<time>2011-04-09T18:22:50.000+02:00</time>
<speed>0.0</speed>
<course>262.0</course>
<ele>86.0</ele>
</trkpt>
<trkpt lat="52.37054944038239" lon="13.383836746215431">
<time>2011-04-09T18:22:51.000+02:00</time>
<speed>0.0</speed>
<course>262.0</course>
<ele>86.0</ele>
</trkpt>
<trkpt lat="52.37054944038239" lon="13.383836746215431">
<time>2011-04-09T18:22:52.000+02:00</time>
<speed>0.0</speed>
<course>262.0</course>
<ele>86.0</ele>
</trkpt>
<trkpt lat="52.37054944038239" lon="13.383815288543312">
<time>2011-04-09T18:22:53.000+02:00</time>
<speed>0.0</speed>
<course>262.0</course>
<ele>86.0</ele>
</trkpt>
<trkpt lat="52.37056016921845" lon="13.383815288543312">
<time>2011-04-09T18:22:54.000+02:00</time>
<speed>0.0</speed>
<course>262.0</course>
<ele>86.0</ele>
</trkpt>
<trkpt lat="52.37056016921845" lon="13.383815288543312">
<time>2011-04-09T18:22:55.000+02:00</time>
<speed>0.0</speed>
<course>262.0</course>
<ele>86.0</ele>
</trkpt>
<trkpt lat="52.37056016921845" lon="13.383815288543312">
<time>2011-04-09T18:22:56.000+02:00</time>
<speed>0.0</speed>
<course>262.0</course>
<ele>86.0</ele>
</trkpt>
<trkpt lat="52.37056016921845" lon="13.383815288543312">
<time>2011-04-09T18:22:57.000+02:00</time>
<speed>0.0</speed>
<course>262.0</course>
<ele>86.0</ele>
</trkpt>
<trkpt lat="52.37056016921845" lon="13.383815288543312">
<time>2011-04-09T18:22:58.000+02:00</time>
<speed>0.0</speed>
<course>262.0</course>
<ele>86.0</ele>
</trkpt>
<trkpt lat="52.37056016921845" lon="13.383836746215431">
<time>2011-04-09T18:22:59.000+02:00</time>
<speed>0.0</speed>
<course>262.0</course>
<ele>86.0</ele>
</trkpt>
<trkpt lat="52.37056016921845" lon="13.383836746215431">
<time>2011-04-09T18:23:00.000+02:00</time>
<speed>0.0</speed>
<course>262.0</course>
<ele>86.0</ele>
</trkpt>
<trkpt lat="52.37056016921845" lon="13.383836746215431">
<time>2011-04-09T18:23:01.000+02:00</time>
<speed>0.0</speed>
<course>262.0</course>
<ele>86.0</ele>
</trkpt>
<trkpt lat="52.37056016921845" lon="13.383836746215431">
<time>2011-04-09T18:23:02.000+02:00</time>
<speed>0.0</speed>
<course>262.0</course>
<ele>86.0</ele>
</trkpt>
<trkpt lat="52.37056016921845" lon="13.383836746215431">
<time>2011-04-09T18:23:03.000+02:00</time>
<speed>0.0</speed>
<course>262.0</course>
<ele>86.0</ele>
</trkpt>
<trkpt lat="52.37056016921845" lon="13.383836746215431">
<time>2011-04-09T18:23:04.000+02:00</time>
<speed>0.0</speed>
<course>262.0</course>
<ele>86.0</ele>
</trkpt>
<trkpt lat="52.37056016921845" lon="13.383836746215431">
<time>2011-04-09T18:23:05.000+02:00</time>
<speed>0.0</speed>
<course>262.0</course>
<ele>86.0</ele>
</trkpt>
<trkpt lat="52.37056016921845" lon="13.383836746215431">
<time>2011-04-09T18:23:06.000+02:00</time>
<speed>0.0</speed>
<course>262.0</course>
<ele>86.0</ele>
</trkpt>
<trkpt lat="52.37056016921845" lon="13.383836746215431">
<time>2011-04-09T18:23:08.000+02:00</time>
<speed>0.0</speed>
<course>262.0</course>
<ele>86.0</ele>
</trkpt>
<trkpt lat="52.37056016921845" lon="13.383836746215431">
<time>2011-04-09T18:23:09.000+02:00</time>
<speed>0.0</speed>
<course>262.0</course>
<ele>86.0</ele>
</trkpt>
<trkpt lat="52.37056016921845" lon="13.383836746215431">
<time>2011-04-09T18:23:10.000+02:00</time>
<speed>0.0</speed>
<course>262.0</course>
<ele>86.0</ele>
</trkpt>
<trkpt lat="52.37054944038239" lon="13.383836746215431">
<time>2011-04-09T18:23:11.000+02:00</time>
<speed>0.0</speed>
<course>262.0</course>
<ele>86.0</ele>
</trkpt>
<trkpt lat="52.37054944038239" lon="13.383836746215431">
<time>2011-04-09T18:23:12.000+02:00</time>
<speed>0.0</speed>
<course>262.0</course>
<ele>86.0</ele>
</trkpt>
<trkpt lat="52.37054944038239" lon="13.383836746215431">
<time>2011-04-09T18:23:13.000+02:00</time>
<speed>0.0</speed>
<course>262.0</course>
<ele>86.0</ele>
</trkpt>
<trkpt lat="52.37054944038239" lon="13.383836746215431">
<time>2011-04-09T18:23:14.000+02:00</time>
<speed>0.0</speed>
<course>262.0</course>
<ele>86.0</ele>
</trkpt>
<trkpt lat="52.37054944038239" lon="13.383836746215431">
<time>2011-04-09T18:23:15.000+02:00</time>
<speed>0.0</speed>
<course>262.0</course>
<ele>86.0</ele>
</trkpt>
<trkpt lat="52.37054944038239" lon="13.383836746215431">
<time>2011-04-09T18:23:16.000+02:00</time>
<speed>0.0</speed>
<course>262.0</course>
<ele>86.0</ele>
</trkpt>
<trkpt lat="52.37054944038239" lon="13.383836746215431">
<time>2011-04-09T18:23:17.000+02:00</time>
<speed>0.0</speed>
<course>262.0</course>
<ele>86.0</ele>
</trkpt>
<trkpt lat="52.37054944038239" lon="13.383815288543312">
<time>2011-04-09T18:23:18.000+02:00</time>
<speed>0.0</speed>
<course>262.0</course>
<ele>86.0</ele>
</trkpt>
<trkpt lat="52.37054944038239" lon="13.383815288543312">
<time>2011-04-09T18:23:19.000+02:00</time>
<speed>0.0</speed>
<course>262.0</course>
<ele>86.0</ele>
</trkpt>
<trkpt lat="52.37054944038239" lon="13.383815288543312">
<time>2011-04-09T18:23:20.000+02:00</time>
<speed>0.0</speed>
<course>262.0</course>
<ele>86.0</ele>
</trkpt>
<trkpt lat="52.37054944038239" lon="13.383815288543312">
<time>2011-04-09T18:23:21.000+02:00</time>
<speed>0.0</speed>
<course>262.0</course>
<ele>86.0</ele>
</trkpt>
<trkpt lat="52.37054944038239" lon="13.383815288543312">
<time>2011-04-09T18:23:22.000+02:00</time>
<speed>0.0</speed>
<course>262.0</course>
<ele>86.0</ele>
</trkpt>
<trkpt lat="52.37054944038239" lon="13.383793830871193">
<time>2011-04-09T18:23:23.000+02:00</time>
<speed>0.0</speed>
<course>262.0</course>
<ele>86.0</ele>
</trkpt>
<trkpt lat="52.37056016921845" lon="13.383793830871193">
<time>2011-04-09T18:23:24.000+02:00</time>
<speed>0.0</speed>
<course>262.0</course>
<ele>86.0</ele>
</trkpt>
<trkpt lat="52.37056016921845" lon="13.383793830871193">
<time>2011-04-09T18:23:25.000+02:00</time>
<speed>0.0</speed>
<course>262.0</course>
<ele>86.0</ele>
</trkpt>
<trkpt lat="52.37056016921845" lon="13.383793830871193">
<time>2011-04-09T18:23:26.000+02:00</time>
<speed>0.0</speed>
<course>262.0</course>
<ele>86.0</ele>
</trkpt>
<trkpt lat="52.37056016921845" lon="13.383793830871193">
<time>2011-04-09T18:23:27.000+02:00</time>
<speed>0.0</speed>
<course>262.0</course>
<ele>86.0</ele>
</trkpt>
<trkpt lat="52.37057089805451" lon="13.383793830871193">
<time>2011-04-09T18:23:28.000+02:00</time>
<speed>0.0</speed>
<course>262.0</course>
<ele>86.0</ele>
</trkpt>
<trkpt lat="52.37057089805451" lon="13.383772373199074">
<time>2011-04-09T18:23:29.000+02:00</time>
<speed>0.0</speed>
<course>262.0</course>
<ele>86.0</ele>
</trkpt>
<trkpt lat="52.37058162689057" lon="13.383772373199074">
<time>2011-04-09T18:23:30.000+02:00</time>
<speed>0.0</speed>
<course>262.0</course>
<ele>86.0</ele>
</trkpt>
<trkpt lat="52.37059235572663" lon="13.383772373199074">
<time>2011-04-09T18:23:31.000+02:00</time>
<speed>0.0</speed>
<course>262.0</course>
<ele>86.0</ele>
</trkpt>
<trkpt lat="52.37060308456269" lon="13.383772373199074">
<time>2011-04-09T18:23:32.000+02:00</time>
<speed>0.0</speed>
<course>262.0</course>
<ele>86.0</ele>
</trkpt>
<trkpt lat="52.37060308456269" lon="13.383772373199074">
<time>2011-04-09T18:23:33.000+02:00</time>
<speed>0.0</speed>
<course>262.0</course>
<ele>86.0</ele>
</trkpt>
<trkpt lat="52.37061381339875" lon="13.383772373199074">
<time>2011-04-09T18:23:34.000+02:00</time>
<speed>0.0</speed>
<course>262.0</course>
<ele>86.0</ele>
</trkpt>
<trkpt lat="52.37061381339875" lon="13.383750915526955">
<time>2011-04-09T18:23:35.000+02:00</time>
<speed>0.0</speed>
<course>262.0</course>
<ele>86.0</ele>
</trkpt>
<trkpt lat="52.37062454223481" lon="13.383750915526955">
<time>2011-04-09T18:23:36.000+02:00</time>
<speed>0.0</speed>
<course>262.0</course>
<ele>86.0</ele>
</trkpt>
<trkpt lat="52.37062454223481" lon="13.383750915526955">
<time>2011-04-09T18:23:37.000+02:00</time>
<speed>0.0</speed>
<course>262.0</course>
<ele>86.0</ele>
</trkpt>
<trkpt lat="52.37062454223481" lon="13.383750915526955">
<time>2011-04-09T18:23:38.000+02:00</time>
<speed>0.0</speed>
<course>262.0</course>
<ele>86.0</ele>
</trkpt>
<trkpt lat="52.37062454223481" lon="13.383750915526955">
<time>2011-04-09T18:23:39.000+02:00</time>
<speed>0.0</speed>
<course>262.0</course>
<ele>86.0</ele>
</trkpt>
<trkpt lat="52.37062454223481" lon="13.383750915526955">
<time>2011-04-09T18:23:40.000+02:00</time>
<speed>0.5555556</speed>
<course>343.0</course>
<ele>86.0</ele>
</trkpt>
<trkpt lat="52.37063527107087" lon="13.383729457854836">
<time>2011-04-09T18:23:41.000+02:00</time>
<speed>0.5555556</speed>
<course>342.0</course>
<ele>85.0</ele>
</trkpt>
<trkpt lat="52.37063527107087" lon="13.383729457854836">
<time>2011-04-09T18:23:42.000+02:00</time>
<speed>0.2777778</speed>
<course>342.0</course>
<ele>85.0</ele>
</trkpt>
<trkpt lat="52.37063527107087" lon="13.383729457854836">
<time>2011-04-09T18:23:43.000+02:00</time>
<speed>0.5555556</speed>
<course>338.0</course>
<ele>85.0</ele>
</trkpt>
<trkpt lat="52.37064599990693" lon="13.383729457854836">
<time>2011-04-09T18:23:44.000+02:00</time>
<speed>0.5555556</speed>
<course>335.0</course>
<ele>85.0</ele>
</trkpt>
<trkpt lat="52.37064599990693" lon="13.383708000182716">
<time>2011-04-09T18:23:45.000+02:00</time>
<speed>0.5555556</speed>
<course>332.0</course>
<ele>85.0</ele>
</trkpt>
<trkpt lat="52.37064599990693" lon="13.383708000182716">
<time>2011-04-09T18:23:46.000+02:00</time>
<speed>0.5555556</speed>
<course>332.0</course>
<ele>85.0</ele>
</trkpt>
<trkpt lat="52.37064599990693" lon="13.383708000182716">
<time>2011-04-09T18:23:47.000+02:00</time>
<speed>0.5555556</speed>
<course>332.0</course>
<ele>85.0</ele>
</trkpt>
<trkpt lat="52.370656728742986" lon="13.383686542510597">
<time>2011-04-09T18:23:48.000+02:00</time>
<speed>0.8333333</speed>
<course>315.0</course>
<ele>84.0</ele>
</trkpt>
<trkpt lat="52.370656728742986" lon="13.383686542510597">
<time>2011-04-09T18:23:49.000+02:00</time>
<speed>1.3888888</speed>
<course>312.0</course>
<ele>84.0</ele>
</trkpt>
<trkpt lat="52.370667457579046" lon="13.383665084838478">
<time>2011-04-09T18:23:50.000+02:00</time>
<speed>1.3888888</speed>
<course>308.0</course>
<ele>84.0</ele>
</trkpt>
<trkpt lat="52.370667457579046" lon="13.383643627166359">
<time>2011-04-09T18:23:51.000+02:00</time>
<speed>1.3888888</speed>
<course>306.0</course>
<ele>84.0</ele>
</trkpt>
<trkpt lat="52.370667457579046" lon="13.38362216949424">
<time>2011-04-09T18:23:52.000+02:00</time>
<speed>1.3888888</speed>
<course>307.0</course>
<ele>84.0</ele>
</trkpt>
<trkpt lat="52.370678186415105" lon="13.38360071182212">
<time>2011-04-09T18:23:53.000+02:00</time>
<speed>1.1111112</speed>
<course>308.0</course>
<ele>84.0</ele>
</trkpt>
<trkpt lat="52.370678186415105" lon="13.38360071182212">
<time>2011-04-09T18:23:54.000+02:00</time>
<speed>1.3888888</speed>
<course>308.0</course>
<ele>84.0</ele>
</trkpt>
<trkpt lat="52.370678186415105" lon="13.383579254150002">
<time>2011-04-09T18:23:55.000+02:00</time>
<speed>1.3888888</speed>
<course>308.0</course>
<ele>84.0</ele>
</trkpt>
<trkpt lat="52.370688915251165" lon="13.383557796477882">
<time>2011-04-09T18:23:56.000+02:00</time>
<speed>1.3888888</speed>
<course>307.0</course>
<ele>84.0</ele>
</trkpt>
<trkpt lat="52.370688915251165" lon="13.383557796477882">
<time>2011-04-09T18:23:57.000+02:00</time>
<speed>0.5555556</speed>
<course>307.0</course>
<ele>84.0</ele>
</trkpt>
<trkpt lat="52.370688915251165" lon="13.383557796477882">
<time>2011-04-09T18:23:58.000+02:00</time>
<speed>0.0</speed>
<course>307.0</course>
<ele>84.0</ele>
</trkpt>
<trkpt lat="52.370699644087225" lon="13.383536338805763">
<time>2011-04-09T18:23:59.000+02:00</time>
<speed>0.5555556</speed>
<course>307.0</course>
<ele>84.0</ele>
</trkpt>
<trkpt lat="52.370710372923284" lon="13.383536338805763">
<time>2011-04-09T18:24:00.000+02:00</time>
<speed>0.8333333</speed>
<course>306.0</course>
<ele>84.0</ele>
</trkpt>
<trkpt lat="52.370710372923284" lon="13.383514881133644">
<time>2011-04-09T18:24:01.000+02:00</time>
<speed>0.8333333</speed>
<course>305.0</course>
<ele>83.0</ele>
</trkpt>
<trkpt lat="52.370721101759344" lon="13.383493423461525">
<time>2011-04-09T18:24:02.000+02:00</time>
<speed>0.8333333</speed>
<course>286.0</course>
<ele>83.0</ele>
</trkpt>
<trkpt lat="52.3707318305954" lon="13.383493423461525">
<time>2011-04-09T18:24:03.000+02:00</time>
<speed>0.8333333</speed>
<course>286.0</course>
<ele>83.0</ele>
</trkpt>
<trkpt lat="52.3707318305954" lon="13.383471965789406">
<time>2011-04-09T18:24:04.000+02:00</time>
<speed>0.8333333</speed>
<course>284.0</course>
<ele>83.0</ele>
</trkpt>
<trkpt lat="52.37074255943146" lon="13.383450508117287">
<time>2011-04-09T18:24:05.000+02:00</time>
<speed>0.8333333</speed>
<course>283.0</course>
<ele>83.0</ele>
</trkpt>
<trkpt lat="52.37075328826752" lon="13.383450508117287">
<time>2011-04-09T18:24:06.000+02:00</time>
<speed>0.8333333</speed>
<course>289.0</course>
<ele>83.0</ele>
</trkpt>
<trkpt lat="52.37075328826752" lon="13.383429050445168">
<time>2011-04-09T18:24:07.000+02:00</time>
<speed>0.8333333</speed>
<course>290.0</course>
<ele>83.0</ele>
</trkpt>
<trkpt lat="52.37076401710358" lon="13.383429050445168">
<time>2011-04-09T18:24:08.000+02:00</time>
<speed>0.8333333</speed>
<course>290.0</course>
<ele>83.0</ele>
</trkpt>
<trkpt lat="52.37076401710358" lon="13.383429050445168">
<time>2011-04-09T18:24:09.000+02:00</time>
<speed>0.0</speed>
<course>290.0</course>
<ele>83.0</ele>
</trkpt>
<trkpt lat="52.37077474593964" lon="13.383429050445168">
<time>2011-04-09T18:24:10.000+02:00</time>
<speed>0.0</speed>
<course>290.0</course>
<ele>83.0</ele>
</trkpt>
<trkpt lat="52.37077474593964" lon="13.383407592773048">
<time>2011-04-09T18:24:12.000+02:00</time>
<speed>0.0</speed>
<course>290.0</course>
<ele>82.0</ele>
</trkpt>
<trkpt lat="52.37077474593964" lon="13.383407592773048">
<time>2011-04-09T18:24:13.000+02:00</time>
<speed>0.0</speed>
<course>290.0</course>
<ele>82.0</ele>
</trkpt>
<trkpt lat="52.3707854747757" lon="13.383407592773048">
<time>2011-04-09T18:24:14.000+02:00</time>
<speed>0.2777778</speed>
<course>290.0</course>
<ele>82.0</ele>
</trkpt>
<trkpt lat="52.3707854747757" lon="13.383407592773048">
<time>2011-04-09T18:24:15.000+02:00</time>
<speed>0.2777778</speed>
<course>290.0</course>
<ele>82.0</ele>
</trkpt>
<trkpt lat="52.3707854747757" lon="13.383407592773048">
<time>2011-04-09T18:24:16.000+02:00</time>
<speed>0.0</speed>
<course>290.0</course>
<ele>82.0</ele>
</trkpt>
<trkpt lat="52.3707854747757" lon="13.38338613510093">
<time>2011-04-09T18:24:17.000+02:00</time>
<speed>0.0</speed>
<course>290.0</course>
<ele>82.0</ele>
</trkpt>
<trkpt lat="52.3707854747757" lon="13.38338613510093">
<time>2011-04-09T18:24:18.000+02:00</time>
<speed>0.0</speed>
<course>290.0</course>
<ele>82.0</ele>
</trkpt>
<trkpt lat="52.3707854747757" lon="13.38338613510093">
<time>2011-04-09T18:24:19.000+02:00</time>
<speed>0.0</speed>
<course>290.0</course>
<ele>82.0</ele>
</trkpt>
<trkpt lat="52.3707854747757" lon="13.38338613510093">
<time>2011-04-09T18:24:20.000+02:00</time>
<speed>0.0</speed>
<course>290.0</course>
<ele>82.0</ele>
</trkpt>
<trkpt lat="52.37077474593964" lon="13.38338613510093">
<time>2011-04-09T18:24:21.000+02:00</time>
<speed>0.0</speed>
<course>290.0</course>
<ele>82.0</ele>
</trkpt>
<trkpt lat="52.37077474593964" lon="13.38338613510093">
<time>2011-04-09T18:24:22.000+02:00</time>
<speed>0.0</speed>
<course>290.0</course>
<ele>82.0</ele>
</trkpt>
<trkpt lat="52.37077474593964" lon="13.38338613510093">
<time>2011-04-09T18:24:23.000+02:00</time>
<speed>0.0</speed>
<course>290.0</course>
<ele>82.0</ele>
</trkpt>
<trkpt lat="52.37077474593964" lon="13.38338613510093">
<time>2011-04-09T18:24:24.000+02:00</time>
<speed>0.0</speed>
<course>290.0</course>
<ele>82.0</ele>
</trkpt>
<trkpt lat="52.37077474593964" lon="13.38336467742881">
<time>2011-04-09T18:24:25.000+02:00</time>
<speed>0.0</speed>
<course>290.0</course>
<ele>82.0</ele>
</trkpt>
<trkpt lat="52.37077474593964" lon="13.38336467742881">
<time>2011-04-09T18:24:26.000+02:00</time>
<speed>0.0</speed>
<course>290.0</course>
<ele>82.0</ele>
</trkpt>
<trkpt lat="52.37077474593964" lon="13.38336467742881">
<time>2011-04-09T18:24:27.000+02:00</time>
<speed>0.0</speed>
<course>290.0</course>
<ele>82.0</ele>
</trkpt>
<trkpt lat="52.37077474593964" lon="13.38336467742881">
<time>2011-04-09T18:24:28.000+02:00</time>
<speed>0.0</speed>
<course>290.0</course>
<ele>82.0</ele>
</trkpt>
<trkpt lat="52.37077474593964" lon="13.38336467742881">
<time>2011-04-09T18:24:29.000+02:00</time>
<speed>0.0</speed>
<course>290.0</course>
<ele>82.0</ele>
</trkpt>
<trkpt lat="52.37076401710358" lon="13.38336467742881">
<time>2011-04-09T18:24:30.000+02:00</time>
<speed>0.0</speed>
<course>290.0</course>
<ele>82.0</ele>
</trkpt>
<trkpt lat="52.37076401710358" lon="13.383343219756691">
<time>2011-04-09T18:24:31.000+02:00</time>
<speed>0.0</speed>
<course>290.0</course>
<ele>82.0</ele>
</trkpt>
<trkpt lat="52.37076401710358" lon="13.383343219756691">
<time>2011-04-09T18:24:32.000+02:00</time>
<speed>0.0</speed>
<course>290.0</course>
<ele>82.0</ele>
</trkpt>
<trkpt lat="52.37076401710358" lon="13.383343219756691">
<time>2011-04-09T18:24:33.000+02:00</time>
<speed>0.0</speed>
<course>290.0</course>
<ele>82.0</ele>
</trkpt>
<trkpt lat="52.37076401710358" lon="13.383343219756691">
<time>2011-04-09T18:24:34.000+02:00</time>
<speed>0.0</speed>
<course>290.0</course>
<ele>82.0</ele>
</trkpt>
<trkpt lat="52.37076401710358" lon="13.383343219756691">
<time>2011-04-09T18:24:35.000+02:00</time>
<speed>0.0</speed>
<course>290.0</course>
<ele>82.0</ele>
</trkpt>
<trkpt lat="52.37076401710358" lon="13.383343219756691">
<time>2011-04-09T18:24:36.000+02:00</time>
<speed>0.0</speed>
<course>290.0</course>
<ele>82.0</ele>
</trkpt>
<trkpt lat="52.37076401710358" lon="13.383343219756691">
<time>2011-04-09T18:24:37.000+02:00</time>
<speed>0.0</speed>
<course>290.0</course>
<ele>82.0</ele>
</trkpt>
<trkpt lat="52.37075328826752" lon="13.383343219756691">
<time>2011-04-09T18:24:38.000+02:00</time>
<speed>0.0</speed>
<course>290.0</course>
<ele>82.0</ele>
</trkpt>
<trkpt lat="52.37075328826752" lon="13.383343219756691">
<time>2011-04-09T18:24:39.000+02:00</time>
<speed>0.0</speed>
<course>290.0</course>
<ele>82.0</ele>
</trkpt>
<trkpt lat="52.37075328826752" lon="13.383343219756691">
<time>2011-04-09T18:24:40.000+02:00</time>
<speed>0.0</speed>
<course>290.0</course>
<ele>82.0</ele>
</trkpt>
<trkpt lat="52.37075328826752" lon="13.383343219756691">
<time>2011-04-09T18:24:41.000+02:00</time>
<speed>0.0</speed>
<course>290.0</course>
<ele>82.0</ele>
</trkpt>
<trkpt lat="52.37074255943146" lon="13.383343219756691">
<time>2011-04-09T18:24:42.000+02:00</time>
<speed>0.0</speed>
<course>290.0</course>
<ele>82.0</ele>
</trkpt>
<trkpt lat="52.37074255943146" lon="13.383343219756691">
<time>2011-04-09T18:24:43.000+02:00</time>
<speed>0.0</speed>
<course>290.0</course>
<ele>82.0</ele>
</trkpt>
<trkpt lat="52.3707318305954" lon="13.383343219756691">
<time>2011-04-09T18:24:44.000+02:00</time>
<speed>0.0</speed>
<course>290.0</course>
<ele>82.0</ele>
</trkpt>
<trkpt lat="52.3707318305954" lon="13.383343219756691">
<time>2011-04-09T18:24:45.000+02:00</time>
<speed>0.0</speed>
<course>290.0</course>
<ele>82.0</ele>
</trkpt>
<trkpt lat="52.3707318305954" lon="13.383343219756691">
<time>2011-04-09T18:24:46.000+02:00</time>
<speed>0.0</speed>
<course>290.0</course>
<ele>82.0</ele>
</trkpt>
<trkpt lat="52.3707318305954" lon="13.38336467742881">
<time>2011-04-09T18:24:47.000+02:00</time>
<speed>0.0</speed>
<course>290.0</course>
<ele>82.0</ele>
</trkpt>
<trkpt lat="52.3707318305954" lon="13.38336467742881">
<time>2011-04-09T18:24:48.000+02:00</time>
<speed>0.0</speed>
<course>290.0</course>
<ele>82.0</ele>
</trkpt>
<trkpt lat="52.370721101759344" lon="13.38336467742881">
<time>2011-04-09T18:24:49.000+02:00</time>
<speed>0.0</speed>
<course>290.0</course>
<ele>82.0</ele>
</trkpt>
<trkpt lat="52.370721101759344" lon="13.38336467742881">
<time>2011-04-09T18:24:50.000+02:00</time>
<speed>0.0</speed>
<course>290.0</course>
<ele>82.0</ele>
</trkpt>
<trkpt lat="52.370721101759344" lon="13.38336467742881">
<time>2011-04-09T18:24:51.000+02:00</time>
<speed>0.0</speed>
<course>290.0</course>
<ele>82.0</ele>
</trkpt>
<trkpt lat="52.370721101759344" lon="13.38336467742881">
<time>2011-04-09T18:24:52.000+02:00</time>
<speed>0.0</speed>
<course>290.0</course>
<ele>82.0</ele>
</trkpt>
<trkpt lat="52.370721101759344" lon="13.38338613510093">
<time>2011-04-09T18:24:53.000+02:00</time>
<speed>0.0</speed>
<course>290.0</course>
<ele>82.0</ele>
</trkpt>
<trkpt lat="52.370721101759344" lon="13.38338613510093">
<time>2011-04-09T18:24:54.000+02:00</time>
<speed>0.0</speed>
<course>290.0</course>
<ele>82.0</ele>
</trkpt>
<trkpt lat="52.370721101759344" lon="13.38338613510093">
<time>2011-04-09T18:24:55.000+02:00</time>
<speed>0.0</speed>
<course>290.0</course>
<ele>82.0</ele>
</trkpt>
<trkpt lat="52.370710372923284" lon="13.38338613510093">
<time>2011-04-09T18:24:56.000+02:00</time>
<speed>0.0</speed>
<course>290.0</course>
<ele>82.0</ele>
</trkpt>
<trkpt lat="52.370710372923284" lon="13.38336467742881">
<time>2011-04-09T18:24:57.000+02:00</time>
<speed>0.0</speed>
<course>290.0</course>
<ele>82.0</ele>
</trkpt>
<trkpt lat="52.370710372923284" lon="13.38336467742881">
<time>2011-04-09T18:24:58.000+02:00</time>
<speed>0.0</speed>
<course>290.0</course>
<ele>82.0</ele>
</trkpt>
<trkpt lat="52.370710372923284" lon="13.38336467742881">
<time>2011-04-09T18:24:59.000+02:00</time>
<speed>0.0</speed>
<course>290.0</course>
<ele>82.0</ele>
</trkpt>
<trkpt lat="52.370710372923284" lon="13.38336467742881">
<time>2011-04-09T18:25:00.000+02:00</time>
<speed>0.0</speed>
<course>290.0</course>
<ele>82.0</ele>
</trkpt>
<trkpt lat="52.370710372923284" lon="13.38336467742881">
<time>2011-04-09T18:25:01.000+02:00</time>
<speed>0.0</speed>
<course>290.0</course>
<ele>82.0</ele>
</trkpt>
<trkpt lat="52.370710372923284" lon="13.38336467742881">
<time>2011-04-09T18:25:02.000+02:00</time>
<speed>0.0</speed>
<course>290.0</course>
<ele>82.0</ele>
</trkpt>
<trkpt lat="52.370710372923284" lon="13.38336467742881">
<time>2011-04-09T18:25:03.000+02:00</time>
<speed>0.0</speed>
<course>290.0</course>
<ele>82.0</ele>
</trkpt>
<trkpt lat="52.370710372923284" lon="13.38336467742881">
<time>2011-04-09T18:25:04.000+02:00</time>
<speed>0.0</speed>
<course>290.0</course>
<ele>82.0</ele>
</trkpt>
<trkpt lat="52.370710372923284" lon="13.38336467742881">
<time>2011-04-09T18:25:05.000+02:00</time>
<speed>0.0</speed>
<course>290.0</course>
<ele>82.0</ele>
</trkpt>
<trkpt lat="52.370710372923284" lon="13.38336467742881">
<time>2011-04-09T18:25:06.000+02:00</time>
<speed>0.0</speed>
<course>290.0</course>
<ele>82.0</ele>
</trkpt>
<trkpt lat="52.370710372923284" lon="13.38336467742881">
<time>2011-04-09T18:25:07.000+02:00</time>
<speed>0.0</speed>
<course>290.0</course>
<ele>82.0</ele>
</trkpt>
<trkpt lat="52.370710372923284" lon="13.38336467742881">
<time>2011-04-09T18:25:08.000+02:00</time>
<speed>0.0</speed>
<course>290.0</course>
<ele>82.0</ele>
</trkpt>
<trkpt lat="52.370710372923284" lon="13.38336467742881">
<time>2011-04-09T18:25:09.000+02:00</time>
<speed>0.0</speed>
<course>290.0</course>
<ele>82.0</ele>
</trkpt>
<trkpt lat="52.370710372923284" lon="13.38336467742881">
<time>2011-04-09T18:25:10.000+02:00</time>
<speed>0.0</speed>
<course>290.0</course>
<ele>82.0</ele>
</trkpt>
<trkpt lat="52.370710372923284" lon="13.38336467742881">
<time>2011-04-09T18:25:12.000+02:00</time>
<speed>0.0</speed>
<course>290.0</course>
<ele>82.0</ele>
</trkpt>
<trkpt lat="52.370710372923284" lon="13.38336467742881">
<time>2011-04-09T18:25:13.000+02:00</time>
<speed>0.0</speed>
<course>290.0</course>
<ele>82.0</ele>
</trkpt>
<trkpt lat="52.370710372923284" lon="13.383343219756691">
<time>2011-04-09T18:25:14.000+02:00</time>
<speed>0.0</speed>
<course>290.0</course>
<ele>82.0</ele>
</trkpt>
<trkpt lat="52.370710372923284" lon="13.383343219756691">
<time>2011-04-09T18:25:15.000+02:00</time>
<speed>0.8333333</speed>
<course>308.0</course>
<ele>82.0</ele>
</trkpt>
<trkpt lat="52.370721101759344" lon="13.383321762084572">
<time>2011-04-09T18:25:16.000+02:00</time>
<speed>0.8333333</speed>
<course>304.0</course>
<ele>82.0</ele>
</trkpt>
<trkpt lat="52.370721101759344" lon="13.383321762084572">
<time>2011-04-09T18:25:17.000+02:00</time>
<speed>1.3888888</speed>
<course>303.0</course>
<ele>82.0</ele>
</trkpt>
<trkpt lat="52.3707318305954" lon="13.383300304412453">
<time>2011-04-09T18:25:18.000+02:00</time>
<speed>1.1111112</speed>
<course>302.0</course>
<ele>82.0</ele>
</trkpt>
<trkpt lat="52.3707318305954" lon="13.383278846740334">
<time>2011-04-09T18:25:19.000+02:00</time>
<speed>1.1111112</speed>
<course>301.0</course>
<ele>82.0</ele>
</trkpt>
<trkpt lat="52.37074255943146" lon="13.383257389068214">
<time>2011-04-09T18:25:20.000+02:00</time>
<speed>1.1111112</speed>
<course>303.0</course>
<ele>82.0</ele>
</trkpt>
<trkpt lat="52.37075328826752" lon="13.383257389068214">
<time>2011-04-09T18:25:21.000+02:00</time>
<speed>1.3888888</speed>
<course>301.0</course>
<ele>82.0</ele>
</trkpt>
<trkpt lat="52.37075328826752" lon="13.383235931396095">
<time>2011-04-09T18:25:22.000+02:00</time>
<speed>1.3888888</speed>
<course>300.0</course>
<ele>82.0</ele>
</trkpt>
<trkpt lat="52.37076401710358" lon="13.383214473723976">
<time>2011-04-09T18:25:23.000+02:00</time>
<speed>2.2222223</speed>
<course>300.0</course>
<ele>82.0</ele>
</trkpt>
<trkpt lat="52.37077474593964" lon="13.383171558379738">
<time>2011-04-09T18:25:24.000+02:00</time>
<speed>1.9444444</speed>
<course>300.0</course>
<ele>82.0</ele>
</trkpt>
<trkpt lat="52.3707854747757" lon="13.383150100707619">
<time>2011-04-09T18:25:25.000+02:00</time>
<speed>1.9444444</speed>
<course>298.0</course>
<ele>82.0</ele>
</trkpt>
<trkpt lat="52.37079620361176" lon="13.3831286430355">
<time>2011-04-09T18:25:26.000+02:00</time>
<speed>1.9444444</speed>
<course>300.0</course>
<ele>82.0</ele>
</trkpt>
<trkpt lat="52.37080693244782" lon="13.38310718536338">
<time>2011-04-09T18:25:27.000+02:00</time>
<speed>1.9444444</speed>
<course>303.0</course>
<ele>82.0</ele>
</trkpt>
<trkpt lat="52.37081766128388" lon="13.383064270019142">
<time>2011-04-09T18:25:28.000+02:00</time>
<speed>1.9444444</speed>
<course>304.0</course>
<ele>82.0</ele>
</trkpt>
<trkpt lat="52.370839118956" lon="13.383042812347023">
<time>2011-04-09T18:25:29.000+02:00</time>
<speed>2.2222223</speed>
<course>305.0</course>
<ele>82.0</ele>
</trkpt>
<trkpt lat="52.37084984779206" lon="13.383021354674904">
<time>2011-04-09T18:25:30.000+02:00</time>
<speed>2.5</speed>
<course>308.0</course>
<ele>82.0</ele>
</trkpt>
<trkpt lat="52.37087130546418" lon="13.382978439330666">
<time>2011-04-09T18:25:31.000+02:00</time>
<speed>2.7777777</speed>
<course>309.0</course>
<ele>82.0</ele>
</trkpt>
<trkpt lat="52.3708927631363" lon="13.382956981658547">
<time>2011-04-09T18:25:32.000+02:00</time>
<speed>2.7777777</speed>
<course>307.0</course>
<ele>82.0</ele>
</trkpt>
<trkpt lat="52.370903491972356" lon="13.382914066314308">
<time>2011-04-09T18:25:33.000+02:00</time>
<speed>2.5</speed>
<course>307.0</course>
<ele>82.0</ele>
</trkpt>
<trkpt lat="52.370924949644476" lon="13.382892608642189">
<time>2011-04-09T18:25:34.000+02:00</time>
<speed>2.2222223</speed>
<course>306.0</course>
<ele>81.0</ele>
</trkpt>
<trkpt lat="52.370935678480535" lon="13.38287115097007">
<time>2011-04-09T18:25:35.000+02:00</time>
<speed>1.9444444</speed>
<course>306.0</course>
<ele>81.0</ele>
</trkpt>
<trkpt lat="52.370946407316595" lon="13.382828235625832">
<time>2011-04-09T18:25:36.000+02:00</time>
<speed>1.6666666</speed>
<course>305.0</course>
<ele>81.0</ele>
</trkpt>
<trkpt lat="52.370957136152654" lon="13.382806777953713">
<time>2011-04-09T18:25:37.000+02:00</time>
<speed>1.3888888</speed>
<course>304.0</course>
<ele>81.0</ele>
</trkpt>
<trkpt lat="52.370967864988714" lon="13.382785320281593">
<time>2011-04-09T18:25:38.000+02:00</time>
<speed>1.3888888</speed>
<course>304.0</course>
<ele>81.0</ele>
</trkpt>
<trkpt lat="52.370967864988714" lon="13.382785320281593">
<time>2011-04-09T18:25:39.000+02:00</time>
<speed>0.8333333</speed>
<course>302.0</course>
<ele>81.0</ele>
</trkpt>
<trkpt lat="52.37097859382477" lon="13.382763862609474">
<time>2011-04-09T18:25:40.000+02:00</time>
<speed>0.8333333</speed>
<course>304.0</course>
<ele>81.0</ele>
</trkpt>
<trkpt lat="52.37097859382477" lon="13.382742404937355">
<time>2011-04-09T18:25:41.000+02:00</time>
<speed>0.8333333</speed>
<course>303.0</course>
<ele>81.0</ele>
</trkpt>
<trkpt lat="52.37097859382477" lon="13.382720947265236">
<time>2011-04-09T18:25:42.000+02:00</time>
<speed>0.8333333</speed>
<course>298.0</course>
<ele>81.0</ele>
</trkpt>
<trkpt lat="52.37098932266083" lon="13.382720947265236">
<time>2011-04-09T18:25:43.000+02:00</time>
<speed>0.8333333</speed>
<course>294.0</course>
<ele>80.0</ele>
</trkpt>
<trkpt lat="52.37098932266083" lon="13.382699489593117">
<time>2011-04-09T18:25:44.000+02:00</time>
<speed>0.8333333</speed>
<course>285.0</course>
<ele>80.0</ele>
</trkpt>
<trkpt lat="52.37098932266083" lon="13.382699489593117">
<time>2011-04-09T18:25:45.000+02:00</time>
<speed>0.8333333</speed>
<course>282.0</course>
<ele>80.0</ele>
</trkpt>
<trkpt lat="52.37098932266083" lon="13.382678031920998">
<time>2011-04-09T18:25:46.000+02:00</time>
<speed>0.8333333</speed>
<course>270.0</course>
<ele>80.0</ele>
</trkpt>
<trkpt lat="52.37098932266083" lon="13.382678031920998">
<time>2011-04-09T18:25:47.000+02:00</time>
<speed>0.8333333</speed>
<course>276.0</course>
<ele>80.0</ele>
</trkpt>
<trkpt lat="52.37097859382477" lon="13.382656574248879">
<time>2011-04-09T18:25:48.000+02:00</time>
<speed>0.0</speed>
<course>276.0</course>
<ele>80.0</ele>
</trkpt>
<trkpt lat="52.37097859382477" lon="13.382656574248879">
<time>2011-04-09T18:25:49.000+02:00</time>
<speed>0.0</speed>
<course>276.0</course>
<ele>80.0</ele>
</trkpt>
<trkpt lat="52.37097859382477" lon="13.382656574248879">
<time>2011-04-09T18:25:50.000+02:00</time>
<speed>0.0</speed>
<course>276.0</course>
<ele>80.0</ele>
</trkpt>
<trkpt lat="52.37097859382477" lon="13.382656574248879">
<time>2011-04-09T18:25:51.000+02:00</time>
<speed>0.0</speed>
<course>276.0</course>
<ele>80.0</ele>
</trkpt>
<trkpt lat="52.37097859382477" lon="13.38263511657676">
<time>2011-04-09T18:25:52.000+02:00</time>
<speed>0.0</speed>
<course>276.0</course>
<ele>80.0</ele>
</trkpt>
<trkpt lat="52.37097859382477" lon="13.38263511657676">
<time>2011-04-09T18:25:53.000+02:00</time>
<speed>0.0</speed>
<course>276.0</course>
<ele>80.0</ele>
</trkpt>
<trkpt lat="52.37097859382477" lon="13.38261365890464">
<time>2011-04-09T18:25:54.000+02:00</time>
<speed>0.0</speed>
<course>276.0</course>
<ele>80.0</ele>
</trkpt>
<trkpt lat="52.37097859382477" lon="13.382592201232521">
<time>2011-04-09T18:25:55.000+02:00</time>
<speed>0.0</speed>
<course>276.0</course>
<ele>80.0</ele>
</trkpt>
<trkpt lat="52.37097859382477" lon="13.382592201232521">
<time>2011-04-09T18:25:56.000+02:00</time>
<speed>0.0</speed>
<course>276.0</course>
<ele>80.0</ele>
</trkpt>
<trkpt lat="52.37097859382477" lon="13.382570743560402">
<time>2011-04-09T18:25:57.000+02:00</time>
<speed>0.0</speed>
<course>276.0</course>
<ele>80.0</ele>
</trkpt>
<trkpt lat="52.37097859382477" lon="13.382549285888283">
<time>2011-04-09T18:25:58.000+02:00</time>
<speed>0.0</speed>
<course>276.0</course>
<ele>80.0</ele>
</trkpt>
<trkpt lat="52.37097859382477" lon="13.382549285888283">
<time>2011-04-09T18:25:59.000+02:00</time>
<speed>0.0</speed>
<course>276.0</course>
<ele>80.0</ele>
</trkpt>
<trkpt lat="52.37098932266083" lon="13.382527828216164">
<time>2011-04-09T18:26:00.000+02:00</time>
<speed>0.0</speed>
<course>276.0</course>
<ele>79.0</ele>
</trkpt>
<trkpt lat="52.37098932266083" lon="13.382527828216164">
<time>2011-04-09T18:26:01.000+02:00</time>
<speed>0.0</speed>
<course>276.0</course>
<ele>79.0</ele>
</trkpt>
<trkpt lat="52.37098932266083" lon="13.382506370544045">
<time>2011-04-09T18:26:02.000+02:00</time>
<speed>0.0</speed>
<course>276.0</course>
<ele>79.0</ele>
</trkpt>
<trkpt lat="52.37098932266083" lon="13.382506370544045">
<time>2011-04-09T18:26:03.000+02:00</time>
<speed>0.0</speed>
<course>276.0</course>
<ele>79.0</ele>
</trkpt>
<trkpt lat="52.37100005149689" lon="13.382484912871925">
<time>2011-04-09T18:26:04.000+02:00</time>
<speed>0.8333333</speed>
<course>302.0</course>
<ele>79.0</ele>
</trkpt>
<trkpt lat="52.37100005149689" lon="13.382463455199806">
<time>2011-04-09T18:26:05.000+02:00</time>
<speed>0.8333333</speed>
<course>304.0</course>
<ele>79.0</ele>
</trkpt>
<trkpt lat="52.37101078033295" lon="13.382463455199806">
<time>2011-04-09T18:26:06.000+02:00</time>
<speed>0.8333333</speed>
<course>303.0</course>
<ele>79.0</ele>
</trkpt>
<trkpt lat="52.37102150916901" lon="13.382441997527687">
<time>2011-04-09T18:26:07.000+02:00</time>
<speed>0.8333333</speed>
<course>304.0</course>
<ele>79.0</ele>
</trkpt>
<trkpt lat="52.37103223800507" lon="13.382420539855568">
<time>2011-04-09T18:26:08.000+02:00</time>
<speed>0.0</speed>
<course>304.0</course>
<ele>79.0</ele>
</trkpt>
<trkpt lat="52.37105369567719" lon="13.382399082183449">
<time>2011-04-09T18:26:09.000+02:00</time>
<speed>0.0</speed>
<course>304.0</course>
<ele>79.0</ele>
</trkpt>
<trkpt lat="52.37106442451325" lon="13.382399082183449">
<time>2011-04-09T18:26:10.000+02:00</time>
<speed>0.0</speed>
<course>304.0</course>
<ele>79.0</ele>
</trkpt>
<trkpt lat="52.37108588218537" lon="13.38237762451133">
<time>2011-04-09T18:26:11.000+02:00</time>
<speed>0.0</speed>
<course>304.0</course>
<ele>79.0</ele>
</trkpt>
<trkpt lat="52.37110733985749" lon="13.38235616683921">
<time>2011-04-09T18:26:13.000+02:00</time>
<speed>0.0</speed>
<course>318.0</course>
<ele>79.0</ele>
</trkpt>
<trkpt lat="52.37112879752961" lon="13.38235616683921">
<time>2011-04-09T18:26:14.000+02:00</time>
<speed>0.0</speed>
<course>318.0</course>
<ele>79.0</ele>
</trkpt>
<trkpt lat="52.37113952636567" lon="13.382334709167091">
<time>2011-04-09T18:26:15.000+02:00</time>
<speed>0.0</speed>
<course>318.0</course>
<ele>79.0</ele>
</trkpt>
<trkpt lat="52.371160984037786" lon="13.382334709167091">
<time>2011-04-09T18:26:16.000+02:00</time>
<speed>0.0</speed>
<course>318.0</course>
<ele>79.0</ele>
</trkpt>
<trkpt lat="52.371171712873846" lon="13.382313251494972">
<time>2011-04-09T18:26:17.000+02:00</time>
<speed>0.0</speed>
<course>318.0</course>
<ele>79.0</ele>
</trkpt>
<trkpt lat="52.371171712873846" lon="13.382313251494972">
<time>2011-04-09T18:26:18.000+02:00</time>
<speed>0.0</speed>
<course>318.0</course>
<ele>79.0</ele>
</trkpt>
<trkpt lat="52.371182441709905" lon="13.382313251494972">
<time>2011-04-09T18:26:19.000+02:00</time>
<speed>0.0</speed>
<course>318.0</course>
<ele>79.0</ele>
</trkpt>
<trkpt lat="52.371193170545965" lon="13.382313251494972">
<time>2011-04-09T18:26:20.000+02:00</time>
<speed>0.0</speed>
<course>318.0</course>
<ele>79.0</ele>
</trkpt>
<trkpt lat="52.371203899382024" lon="13.382313251494972">
<time>2011-04-09T18:26:21.000+02:00</time>
<speed>0.0</speed>
<course>318.0</course>
<ele>79.0</ele>
</trkpt>
<trkpt lat="52.371214628218084" lon="13.382313251494972">
<time>2011-04-09T18:26:22.000+02:00</time>
<speed>0.0</speed>
<course>318.0</course>
<ele>79.0</ele>
</trkpt>
<trkpt lat="52.37122535705414" lon="13.382291793822853">
<time>2011-04-09T18:26:23.000+02:00</time>
<speed>0.0</speed>
<course>318.0</course>
<ele>79.0</ele>
</trkpt>
<trkpt lat="52.37124681472626" lon="13.382291793822853">
<time>2011-04-09T18:26:24.000+02:00</time>
<speed>0.8333333</speed>
<course>356.0</course>
<ele>79.0</ele>
</trkpt>
<trkpt lat="52.37126827239838" lon="13.382291793822853">
<time>2011-04-09T18:26:25.000+02:00</time>
<speed>1.1111112</speed>
<course>2.0</course>
<ele>79.0</ele>
</trkpt>
<trkpt lat="52.3712897300705" lon="13.382291793822853">
<time>2011-04-09T18:26:26.000+02:00</time>
<speed>1.1111112</speed>
<course>1.0</course>
<ele>79.0</ele>
</trkpt>
<trkpt lat="52.37131118774262" lon="13.382291793822853">
<time>2011-04-09T18:26:27.000+02:00</time>
<speed>1.1111112</speed>
<course>5.0</course>
<ele>79.0</ele>
</trkpt>
<trkpt lat="52.37133264541474" lon="13.382291793822853">
<time>2011-04-09T18:26:28.000+02:00</time>
<speed>1.1111112</speed>
<course>6.0</course>
<ele>79.0</ele>
</trkpt>
<trkpt lat="52.3713433742508" lon="13.382313251494972">
<time>2011-04-09T18:26:29.000+02:00</time>
<speed>1.1111112</speed>
<course>7.0</course>
<ele>79.0</ele>
</trkpt>
<trkpt lat="52.37136483192292" lon="13.382313251494972">
<time>2011-04-09T18:26:30.000+02:00</time>
<speed>0.8333333</speed>
<course>7.0</course>
<ele>79.0</ele>
</trkpt>
<trkpt lat="52.37137556075898" lon="13.382313251494972">
<time>2011-04-09T18:26:31.000+02:00</time>
<speed>0.8333333</speed>
<course>9.0</course>
<ele>79.0</ele>
</trkpt>
<trkpt lat="52.3713970184311" lon="13.382313251494972">
<time>2011-04-09T18:26:32.000+02:00</time>
<speed>0.8333333</speed>
<course>10.0</course>
<ele>79.0</ele>
</trkpt>
<trkpt lat="52.371407747267156" lon="13.382334709167091">
<time>2011-04-09T18:26:33.000+02:00</time>
<speed>1.1111112</speed>
<course>10.0</course>
<ele>79.0</ele>
</trkpt>
<trkpt lat="52.371418476103216" lon="13.382334709167091">
<time>2011-04-09T18:26:34.000+02:00</time>
<speed>1.1111112</speed>
<course>11.0</course>
<ele>79.0</ele>
</trkpt>
<trkpt lat="52.371439933775335" lon="13.382334709167091">
<time>2011-04-09T18:26:35.000+02:00</time>
<speed>1.1111112</speed>
<course>14.0</course>
<ele>79.0</ele>
</trkpt>
<trkpt lat="52.371450662611394" lon="13.38235616683921">
<time>2011-04-09T18:26:36.000+02:00</time>
<speed>1.3888888</speed>
<course>16.0</course>
<ele>78.0</ele>
</trkpt>
<trkpt lat="52.371461391447454" lon="13.38235616683921">
<time>2011-04-09T18:26:37.000+02:00</time>
<speed>1.6666666</speed>
<course>16.0</course>
<ele>78.0</ele>
</trkpt>
<trkpt lat="52.37148284911957" lon="13.38235616683921">
<time>2011-04-09T18:26:38.000+02:00</time>
<speed>1.6666666</speed>
<course>16.0</course>
<ele>78.0</ele>
</trkpt>
<trkpt lat="52.37149357795563" lon="13.38237762451133">
<time>2011-04-09T18:26:39.000+02:00</time>
<speed>1.3888888</speed>
<course>18.0</course>
<ele>78.0</ele>
</trkpt>
<trkpt lat="52.37151503562775" lon="13.38237762451133">
<time>2011-04-09T18:26:40.000+02:00</time>
<speed>1.3888888</speed>
<course>18.0</course>
<ele>78.0</ele>
</trkpt>
<trkpt lat="52.37152576446381" lon="13.382399082183449">
<time>2011-04-09T18:26:41.000+02:00</time>
<speed>1.1111112</speed>
<course>20.0</course>
<ele>78.0</ele>
</trkpt>
<trkpt lat="52.37153649329987" lon="13.382399082183449">
<time>2011-04-09T18:26:42.000+02:00</time>
<speed>1.1111112</speed>
<course>20.0</course>
<ele>78.0</ele>
</trkpt>
<trkpt lat="52.37155795097199" lon="13.382420539855568">
<time>2011-04-09T18:26:43.000+02:00</time>
<speed>1.3888888</speed>
<course>19.0</course>
<ele>78.0</ele>
</trkpt>
<trkpt lat="52.37156867980805" lon="13.382420539855568">
<time>2011-04-09T18:26:44.000+02:00</time>
<speed>1.3888888</speed>
<course>18.0</course>
<ele>79.0</ele>
</trkpt>
<trkpt lat="52.37157940864411" lon="13.382441997527687">
<time>2011-04-09T18:26:45.000+02:00</time>
<speed>1.3888888</speed>
<course>18.0</course>
<ele>79.0</ele>
</trkpt>
<trkpt lat="52.37160086631623" lon="13.382441997527687">
<time>2011-04-09T18:26:46.000+02:00</time>
<speed>1.3888888</speed>
<course>19.0</course>
<ele>79.0</ele>
</trkpt>
<trkpt lat="52.37161159515229" lon="13.382463455199806">
<time>2011-04-09T18:26:47.000+02:00</time>
<speed>1.1111112</speed>
<course>22.0</course>
<ele>79.0</ele>
</trkpt>
<trkpt lat="52.37162232398835" lon="13.382484912871925">
<time>2011-04-09T18:26:48.000+02:00</time>
<speed>1.1111112</speed>
<course>22.0</course>
<ele>79.0</ele>
</trkpt>
<trkpt lat="52.37163305282441" lon="13.382484912871925">
<time>2011-04-09T18:26:49.000+02:00</time>
<speed>1.1111112</speed>
<course>22.0</course>
<ele>79.0</ele>
</trkpt>
<trkpt lat="52.37164378166047" lon="13.382506370544045">
<time>2011-04-09T18:26:50.000+02:00</time>
<speed>1.1111112</speed>
<course>20.0</course>
<ele>79.0</ele>
</trkpt>
<trkpt lat="52.371654510496526" lon="13.382527828216164">
<time>2011-04-09T18:26:51.000+02:00</time>
<speed>1.1111112</speed>
<course>19.0</course>
<ele>79.0</ele>
</trkpt>
<trkpt lat="52.371665239332586" lon="13.382527828216164">
<time>2011-04-09T18:26:52.000+02:00</time>
<speed>1.1111112</speed>
<course>18.0</course>
<ele>79.0</ele>
</trkpt>
<trkpt lat="52.371686697004705" lon="13.382549285888283">
<time>2011-04-09T18:26:53.000+02:00</time>
<speed>1.3888888</speed>
<course>18.0</course>
<ele>79.0</ele>
</trkpt>
<trkpt lat="52.371697425840765" lon="13.382549285888283">
<time>2011-04-09T18:26:54.000+02:00</time>
<speed>1.3888888</speed>
<course>19.0</course>
<ele>79.0</ele>
</trkpt>
<trkpt lat="52.371708154676824" lon="13.382570743560402">
<time>2011-04-09T18:26:55.000+02:00</time>
<speed>1.3888888</speed>
<course>18.0</course>
<ele>79.0</ele>
</trkpt>
<trkpt lat="52.37172961234894" lon="13.382570743560402">
<time>2011-04-09T18:26:56.000+02:00</time>
<speed>1.9444444</speed>
<course>18.0</course>
<ele>79.0</ele>
</trkpt>
<trkpt lat="52.371740341185" lon="13.382592201232521">
<time>2011-04-09T18:26:57.000+02:00</time>
<speed>1.9444444</speed>
<course>19.0</course>
<ele>79.0</ele>
</trkpt>
<trkpt lat="52.37176179885712" lon="13.38261365890464">
<time>2011-04-09T18:26:58.000+02:00</time>
<speed>1.6666666</speed>
<course>18.0</course>
<ele>79.0</ele>
</trkpt>
<trkpt lat="52.37177252769318" lon="13.38263511657676">
<time>2011-04-09T18:26:59.000+02:00</time>
<speed>1.6666666</speed>
<course>17.0</course>
<ele>80.0</ele>
</trkpt>
<trkpt lat="52.3717939853653" lon="13.382656574248879">
<time>2011-04-09T18:27:00.000+02:00</time>
<speed>1.6666666</speed>
<course>16.0</course>
<ele>80.0</ele>
</trkpt>
<trkpt lat="52.37180471420136" lon="13.382678031920998">
<time>2011-04-09T18:27:01.000+02:00</time>
<speed>1.6666666</speed>
<course>16.0</course>
<ele>80.0</ele>
</trkpt>
<trkpt lat="52.37182617187348" lon="13.382678031920998">
<time>2011-04-09T18:27:02.000+02:00</time>
<speed>1.9444444</speed>
<course>15.0</course>
<ele>80.0</ele>
</trkpt>
<trkpt lat="52.37183690070954" lon="13.382699489593117">
<time>2011-04-09T18:27:03.000+02:00</time>
<speed>1.9444444</speed>
<course>16.0</course>
<ele>80.0</ele>
</trkpt>
<trkpt lat="52.37185835838166" lon="13.382720947265236">
<time>2011-04-09T18:27:04.000+02:00</time>
<speed>1.9444444</speed>
<course>18.0</course>
<ele>80.0</ele>
</trkpt>
<trkpt lat="52.37187981605378" lon="13.382742404937355">
<time>2011-04-09T18:27:05.000+02:00</time>
<speed>1.9444444</speed>
<course>16.0</course>
<ele>80.0</ele>
</trkpt>
<trkpt lat="52.371901273725896" lon="13.382742404937355">
<time>2011-04-09T18:27:06.000+02:00</time>
<speed>2.2222223</speed>
<course>16.0</course>
<ele>80.0</ele>
</trkpt>
<trkpt lat="52.371922731398016" lon="13.382763862609474">
<time>2011-04-09T18:27:07.000+02:00</time>
<speed>2.2222223</speed>
<course>14.0</course>
<ele>80.0</ele>
</trkpt>
<trkpt lat="52.371944189070135" lon="13.382785320281593">
<time>2011-04-09T18:27:08.000+02:00</time>
<speed>2.2222223</speed>
<course>15.0</course>
<ele>81.0</ele>
</trkpt>
<trkpt lat="52.371965646742254" lon="13.382806777953713">
<time>2011-04-09T18:27:09.000+02:00</time>
<speed>2.2222223</speed>
<course>15.0</course>
<ele>81.0</ele>
</trkpt>
<trkpt lat="52.37198710441437" lon="13.382828235625832">
<time>2011-04-09T18:27:10.000+02:00</time>
<speed>2.2222223</speed>
<course>15.0</course>
<ele>81.0</ele>
</trkpt>
<trkpt lat="52.37200856208649" lon="13.38284969329795">
<time>2011-04-09T18:27:11.000+02:00</time>
<speed>2.2222223</speed>
<course>19.0</course>
<ele>81.0</ele>
</trkpt>
<trkpt lat="52.37204074859467" lon="13.382892608642189">
<time>2011-04-09T18:27:13.000+02:00</time>
<speed>2.2222223</speed>
<course>19.0</course>
<ele>81.0</ele>
</trkpt>
<trkpt lat="52.37206220626679" lon="13.382914066314308">
<time>2011-04-09T18:27:14.000+02:00</time>
<speed>2.2222223</speed>
<course>20.0</course>
<ele>82.0</ele>
</trkpt>
<trkpt lat="52.37208366393891" lon="13.382914066314308">
<time>2011-04-09T18:27:15.000+02:00</time>
<speed>2.2222223</speed>
<course>21.0</course>
<ele>82.0</ele>
</trkpt>
<trkpt lat="52.37209439277497" lon="13.382935523986427">
<time>2011-04-09T18:27:16.000+02:00</time>
<speed>2.2222223</speed>
<course>21.0</course>
<ele>82.0</ele>
</trkpt>
<trkpt lat="52.37211585044709" lon="13.382956981658547">
<time>2011-04-09T18:27:17.000+02:00</time>
<speed>2.5</speed>
<course>23.0</course>
<ele>82.0</ele>
</trkpt>
<trkpt lat="52.37213730811921" lon="13.382978439330666">
<time>2011-04-09T18:27:18.000+02:00</time>
<speed>2.7777777</speed>
<course>23.0</course>
<ele>82.0</ele>
</trkpt>
<trkpt lat="52.372158765791326" lon="13.382999897002785">
<time>2011-04-09T18:27:19.000+02:00</time>
<speed>2.7777777</speed>
<course>21.0</course>
<ele>82.0</ele>
</trkpt>
<trkpt lat="52.372190952299505" lon="13.383021354674904">
<time>2011-04-09T18:27:20.000+02:00</time>
<speed>2.7777777</speed>
<course>20.0</course>
<ele>82.0</ele>
</trkpt>
<trkpt lat="52.372212409971624" lon="13.383042812347023">
<time>2011-04-09T18:27:21.000+02:00</time>
<speed>2.7777777</speed>
<course>18.0</course>
<ele>83.0</ele>
</trkpt>
<trkpt lat="52.3722445964798" lon="13.383064270019142">
<time>2011-04-09T18:27:22.000+02:00</time>
<speed>3.0555556</speed>
<course>17.0</course>
<ele>83.0</ele>
</trkpt>
<trkpt lat="52.37226605415192" lon="13.383085727691261">
<time>2011-04-09T18:27:23.000+02:00</time>
<speed>3.0555556</speed>
<course>18.0</course>
<ele>83.0</ele>
</trkpt>
<trkpt lat="52.3722982406601" lon="13.38310718536338">
<time>2011-04-09T18:27:24.000+02:00</time>
<speed>3.0555556</speed>
<course>18.0</course>
<ele>83.0</ele>
</trkpt>
<trkpt lat="52.37231969833222" lon="13.38310718536338">
<time>2011-04-09T18:27:25.000+02:00</time>
<speed>3.0555556</speed>
<course>19.0</course>
<ele>83.0</ele>
</trkpt>
<trkpt lat="52.3723518848404" lon="13.3831286430355">
<time>2011-04-09T18:27:26.000+02:00</time>
<speed>3.0555556</speed>
<course>18.0</course>
<ele>83.0</ele>
</trkpt>
<trkpt lat="52.37237334251252" lon="13.383150100707619">
<time>2011-04-09T18:27:27.000+02:00</time>
<speed>3.0555556</speed>
<course>18.0</course>
<ele>83.0</ele>
</trkpt>
<trkpt lat="52.37239480018464" lon="13.383171558379738">
<time>2011-04-09T18:27:28.000+02:00</time>
<speed>3.0555556</speed>
<course>19.0</course>
<ele>83.0</ele>
</trkpt>
<trkpt lat="52.372426986692815" lon="13.383193016051857">
<time>2011-04-09T18:27:29.000+02:00</time>
<speed>3.0555556</speed>
<course>21.0</course>
<ele>83.0</ele>
</trkpt>
<trkpt lat="52.372448444364935" lon="13.383214473723976">
<time>2011-04-09T18:27:30.000+02:00</time>
<speed>3.0555556</speed>
<course>20.0</course>
<ele>83.0</ele>
</trkpt>
<trkpt lat="52.37248063087311" lon="13.383235931396095">
<time>2011-04-09T18:27:31.000+02:00</time>
<speed>3.0555556</speed>
<course>19.0</course>
<ele>83.0</ele>
</trkpt>
<trkpt lat="52.37250208854523" lon="13.383257389068214">
<time>2011-04-09T18:27:32.000+02:00</time>
<speed>2.7777777</speed>
<course>17.0</course>
<ele>84.0</ele>
</trkpt>
<trkpt lat="52.37252354621735" lon="13.383278846740334">
<time>2011-04-09T18:27:33.000+02:00</time>
<speed>2.5</speed>
<course>16.0</course>
<ele>84.0</ele>
</trkpt>
<trkpt lat="52.37254500388947" lon="13.383300304412453">
<time>2011-04-09T18:27:34.000+02:00</time>
<speed>1.9444444</speed>
<course>14.0</course>
<ele>84.0</ele>
</trkpt>
<trkpt lat="52.37256646156159" lon="13.383321762084572">
<time>2011-04-09T18:27:35.000+02:00</time>
<speed>1.6666666</speed>
<course>13.0</course>
<ele>84.0</ele>
</trkpt>
<trkpt lat="52.37257719039765" lon="13.383321762084572">
<time>2011-04-09T18:27:36.000+02:00</time>
<speed>1.3888888</speed>
<course>13.0</course>
<ele>84.0</ele>
</trkpt>
<trkpt lat="52.37259864806977" lon="13.383343219756691">
<time>2011-04-09T18:27:37.000+02:00</time>
<speed>1.6666666</speed>
<course>9.0</course>
<ele>84.0</ele>
</trkpt>
<trkpt lat="52.37260937690583" lon="13.38336467742881">
<time>2011-04-09T18:27:38.000+02:00</time>
<speed>1.3888888</speed>
<course>9.0</course>
<ele>84.0</ele>
</trkpt>
<trkpt lat="52.37262010574189" lon="13.38336467742881">
<time>2011-04-09T18:27:39.000+02:00</time>
<speed>1.3888888</speed>
<course>8.0</course>
<ele>84.0</ele>
</trkpt>
<trkpt lat="52.37263083457795" lon="13.38338613510093">
<time>2011-04-09T18:27:40.000+02:00</time>
<speed>1.6666666</speed>
<course>9.0</course>
<ele>85.0</ele>
</trkpt>
<trkpt lat="52.372652292250066" lon="13.383407592773048">
<time>2011-04-09T18:27:41.000+02:00</time>
<speed>1.9444444</speed>
<course>8.0</course>
<ele>85.0</ele>
</trkpt>
<trkpt lat="52.372663021086126" lon="13.383429050445168">
<time>2011-04-09T18:27:42.000+02:00</time>
<speed>2.2222223</speed>
<course>10.0</course>
<ele>85.0</ele>
</trkpt>
<trkpt lat="52.372684478758245" lon="13.383450508117287">
<time>2011-04-09T18:27:43.000+02:00</time>
<speed>2.2222223</speed>
<course>11.0</course>
<ele>85.0</ele>
</trkpt>
<trkpt lat="52.372695207594305" lon="13.383471965789406">
<time>2011-04-09T18:27:44.000+02:00</time>
<speed>1.9444444</speed>
<course>10.0</course>
<ele>86.0</ele>
</trkpt>
<trkpt lat="52.372716665266424" lon="13.383493423461525">
<time>2011-04-09T18:27:45.000+02:00</time>
<speed>1.9444444</speed>
<course>11.0</course>
<ele>86.0</ele>
</trkpt>
<trkpt lat="52.37273812293854" lon="13.383514881133644">
<time>2011-04-09T18:27:46.000+02:00</time>
<speed>1.9444444</speed>
<course>11.0</course>
<ele>86.0</ele>
</trkpt>
<trkpt lat="52.3727488517746" lon="13.383536338805763">
<time>2011-04-09T18:27:47.000+02:00</time>
<speed>1.9444444</speed>
<course>11.0</course>
<ele>86.0</ele>
</trkpt>
<trkpt lat="52.37277030944672" lon="13.383536338805763">
<time>2011-04-09T18:27:48.000+02:00</time>
<speed>1.9444444</speed>
<course>12.0</course>
<ele>87.0</ele>
</trkpt>
<trkpt lat="52.37278103828278" lon="13.383557796477882">
<time>2011-04-09T18:27:49.000+02:00</time>
<speed>1.9444444</speed>
<course>15.0</course>
<ele>87.0</ele>
</trkpt>
<trkpt lat="52.3728024959549" lon="13.383579254150002">
<time>2011-04-09T18:27:50.000+02:00</time>
<speed>1.9444444</speed>
<course>18.0</course>
<ele>87.0</ele>
</trkpt>
<trkpt lat="52.37282395362702" lon="13.38360071182212">
<time>2011-04-09T18:27:51.000+02:00</time>
<speed>1.9444444</speed>
<course>17.0</course>
<ele>87.0</ele>
</trkpt>
<trkpt lat="52.37283468246308" lon="13.38362216949424">
<time>2011-04-09T18:27:52.000+02:00</time>
<speed>1.9444444</speed>
<course>19.0</course>
<ele>87.0</ele>
</trkpt>
<trkpt lat="52.3728561401352" lon="13.383643627166359">
<time>2011-04-09T18:27:53.000+02:00</time>
<speed>2.2222223</speed>
<course>17.0</course>
<ele>88.0</ele>
</trkpt>
<trkpt lat="52.37287759780732" lon="13.383665084838478">
<time>2011-04-09T18:27:54.000+02:00</time>
<speed>2.2222223</speed>
<course>17.0</course>
<ele>88.0</ele>
</trkpt>
<trkpt lat="52.37289905547944" lon="13.383708000182716">
<time>2011-04-09T18:27:55.000+02:00</time>
<speed>2.2222223</speed>
<course>17.0</course>
<ele>88.0</ele>
</trkpt>
<trkpt lat="52.372909784315496" lon="13.383729457854836">
<time>2011-04-09T18:27:56.000+02:00</time>
<speed>2.2222223</speed>
<course>18.0</course>
<ele>88.0</ele>
</trkpt>
<trkpt lat="52.372931241987615" lon="13.383750915526955">
<time>2011-04-09T18:27:57.000+02:00</time>
<speed>2.2222223</speed>
<course>20.0</course>
<ele>88.0</ele>
</trkpt>
<trkpt lat="52.372952699659734" lon="13.383772373199074">
<time>2011-04-09T18:27:58.000+02:00</time>
<speed>2.2222223</speed>
<course>19.0</course>
<ele>89.0</ele>
</trkpt>
<trkpt lat="52.37297415733185" lon="13.383793830871193">
<time>2011-04-09T18:27:59.000+02:00</time>
<speed>1.9444444</speed>
<course>18.0</course>
<ele>89.0</ele>
</trkpt>
<trkpt lat="52.37299561500397" lon="13.383815288543312">
<time>2011-04-09T18:28:00.000+02:00</time>
<speed>1.9444444</speed>
<course>17.0</course>
<ele>89.0</ele>
</trkpt>
<trkpt lat="52.37301707267609" lon="13.383836746215431">
<time>2011-04-09T18:28:01.000+02:00</time>
<speed>1.9444444</speed>
<course>17.0</course>
<ele>89.0</ele>
</trkpt>
<trkpt lat="52.37303853034821" lon="13.38385820388755">
<time>2011-04-09T18:28:02.000+02:00</time>
<speed>1.9444444</speed>
<course>18.0</course>
<ele>89.0</ele>
</trkpt>
<trkpt lat="52.37305998802033" lon="13.38387966155967">
<time>2011-04-09T18:28:03.000+02:00</time>
<speed>2.2222223</speed>
<course>17.0</course>
<ele>90.0</ele>
</trkpt>
<trkpt lat="52.37309217452851" lon="13.383901119231789">
<time>2011-04-09T18:28:04.000+02:00</time>
<speed>2.2222223</speed>
<course>16.0</course>
<ele>90.0</ele>
</trkpt>
<trkpt lat="52.37311363220063" lon="13.383901119231789">
<time>2011-04-09T18:28:05.000+02:00</time>
<speed>2.5</speed>
<course>16.0</course>
<ele>90.0</ele>
</trkpt>
<trkpt lat="52.37313508987275" lon="13.383922576903908">
<time>2011-04-09T18:28:06.000+02:00</time>
<speed>2.5</speed>
<course>14.0</course>
<ele>90.0</ele>
</trkpt>
<trkpt lat="52.373167276380926" lon="13.383944034576027">
<time>2011-04-09T18:28:07.000+02:00</time>
<speed>2.5</speed>
<course>18.0</course>
<ele>90.0</ele>
</trkpt>
<trkpt lat="52.373188734053045" lon="13.383944034576027">
<time>2011-04-09T18:28:08.000+02:00</time>
<speed>2.5</speed>
<course>18.0</course>
<ele>90.0</ele>
</trkpt>
<trkpt lat="52.373210191725164" lon="13.383965492248146">
<time>2011-04-09T18:28:09.000+02:00</time>
<speed>2.5</speed>
<course>19.0</course>
<ele>90.0</ele>
</trkpt>
<trkpt lat="52.37324237823334" lon="13.383986949920265">
<time>2011-04-09T18:28:10.000+02:00</time>
<speed>2.5</speed>
<course>19.0</course>
<ele>91.0</ele>
</trkpt>
<trkpt lat="52.37326383590546" lon="13.383986949920265">
<time>2011-04-09T18:28:11.000+02:00</time>
<speed>2.5</speed>
<course>16.0</course>
<ele>91.0</ele>
</trkpt>
<trkpt lat="52.37328529357758" lon="13.384008407592384">
<time>2011-04-09T18:28:12.000+02:00</time>
<speed>2.5</speed>
<course>14.0</course>
<ele>91.0</ele>
</trkpt>
<trkpt lat="52.37331748008576" lon="13.384029865264504">
<time>2011-04-09T18:28:13.000+02:00</time>
<speed>2.7777777</speed>
<course>10.0</course>
<ele>91.0</ele>
</trkpt>
<trkpt lat="52.37337112426606" lon="13.384029865264504">
<time>2011-04-09T18:28:15.000+02:00</time>
<speed>2.7777777</speed>
<course>5.0</course>
<ele>91.0</ele>
</trkpt>
<trkpt lat="52.373403310774236" lon="13.384051322936623">
<time>2011-04-09T18:28:16.000+02:00</time>
<speed>2.7777777</speed>
<course>0.0</course>
<ele>91.0</ele>
</trkpt>
<trkpt lat="52.373435497282415" lon="13.384051322936623">
<time>2011-04-09T18:28:17.000+02:00</time>
<speed>3.3333333</speed>
<course>359.0</course>
<ele>91.0</ele>
</trkpt>
<trkpt lat="52.37347841262665" lon="13.384051322936623">
<time>2011-04-09T18:28:18.000+02:00</time>
<speed>3.3333333</speed>
<course>358.0</course>
<ele>91.0</ele>
</trkpt>
<trkpt lat="52.37351059913483" lon="13.384051322936623">
<time>2011-04-09T18:28:19.000+02:00</time>
<speed>2.5</speed>
<course>357.0</course>
<ele>91.0</ele>
</trkpt>
<trkpt lat="52.37353205680695" lon="13.384051322936623">
<time>2011-04-09T18:28:20.000+02:00</time>
<speed>2.2222223</speed>
<course>357.0</course>
<ele>91.0</ele>
</trkpt>
<trkpt lat="52.37356424331513" lon="13.384051322936623">
<time>2011-04-09T18:28:21.000+02:00</time>
<speed>2.5</speed>
<course>357.0</course>
<ele>92.0</ele>
</trkpt>
<trkpt lat="52.37359642982331" lon="13.384072780608742">
<time>2011-04-09T18:28:22.000+02:00</time>
<speed>2.5</speed>
<course>0.0</course>
<ele>92.0</ele>
</trkpt>
<trkpt lat="52.37361788749543" lon="13.384072780608742">
<time>2011-04-09T18:28:23.000+02:00</time>
<speed>2.5</speed>
<course>1.0</course>
<ele>92.0</ele>
</trkpt>
<trkpt lat="52.373650074003606" lon="13.384072780608742">
<time>2011-04-09T18:28:24.000+02:00</time>
<speed>2.5</speed>
<course>1.0</course>
<ele>92.0</ele>
</trkpt>
<trkpt lat="52.373682260511785" lon="13.384072780608742">
<time>2011-04-09T18:28:25.000+02:00</time>
<speed>2.7777777</speed>
<course>2.0</course>
<ele>92.0</ele>
</trkpt>
<trkpt lat="52.373714447019964" lon="13.384094238280861">
<time>2011-04-09T18:28:26.000+02:00</time>
<speed>2.7777777</speed>
<course>0.0</course>
<ele>92.0</ele>
</trkpt>
<trkpt lat="52.37374663352814" lon="13.384094238280861">
<time>2011-04-09T18:28:27.000+02:00</time>
<speed>2.5</speed>
<course>1.0</course>
<ele>92.0</ele>
</trkpt>
<trkpt lat="52.37377882003632" lon="13.384094238280861">
<time>2011-04-09T18:28:28.000+02:00</time>
<speed>2.5</speed>
<course>3.0</course>
<ele>92.0</ele>
</trkpt>
<trkpt lat="52.3738110065445" lon="13.384094238280861">
<time>2011-04-09T18:28:29.000+02:00</time>
<speed>2.2222223</speed>
<course>4.0</course>
<ele>92.0</ele>
</trkpt>
<trkpt lat="52.37384319305268" lon="13.38411569595298">
<time>2011-04-09T18:28:30.000+02:00</time>
<speed>2.2222223</speed>
<course>2.0</course>
<ele>92.0</ele>
</trkpt>
<trkpt lat="52.37387537956086" lon="13.38411569595298">
<time>2011-04-09T18:28:31.000+02:00</time>
<speed>2.2222223</speed>
<course>4.0</course>
<ele>92.0</ele>
</trkpt>
<trkpt lat="52.37389683723298" lon="13.38411569595298">
<time>2011-04-09T18:28:32.000+02:00</time>
<speed>2.2222223</speed>
<course>8.0</course>
<ele>93.0</ele>
</trkpt>
<trkpt lat="52.373929023741155" lon="13.3841371536251">
<time>2011-04-09T18:28:33.000+02:00</time>
<speed>2.2222223</speed>
<course>10.0</course>
<ele>93.0</ele>
</trkpt>
<trkpt lat="52.373961210249334" lon="13.3841371536251">
<time>2011-04-09T18:28:34.000+02:00</time>
<speed>2.5</speed>
<course>11.0</course>
<ele>93.0</ele>
</trkpt>
<trkpt lat="52.37399339675751" lon="13.384158611297218">
<time>2011-04-09T18:28:35.000+02:00</time>
<speed>2.5</speed>
<course>15.0</course>
<ele>93.0</ele>
</trkpt>
<trkpt lat="52.37403631210175" lon="13.384180068969338">
<time>2011-04-09T18:28:36.000+02:00</time>
<speed>2.5</speed>
<course>16.0</course>
<ele>93.0</ele>
</trkpt>
<trkpt lat="52.37407922744599" lon="13.384180068969338">
<time>2011-04-09T18:28:37.000+02:00</time>
<speed>2.5</speed>
<course>17.0</course>
<ele>93.0</ele>
</trkpt>
<trkpt lat="52.37411141395417" lon="13.384201526641457">
<time>2011-04-09T18:28:38.000+02:00</time>
<speed>2.5</speed>
<course>18.0</course>
<ele>93.0</ele>
</trkpt>
<trkpt lat="52.37414360046235" lon="13.384222984313576">
<time>2011-04-09T18:28:39.000+02:00</time>
<speed>1.6666666</speed>
<course>18.0</course>
<ele>93.0</ele>
</trkpt>
<trkpt lat="52.374175786970525" lon="13.384222984313576">
<time>2011-04-09T18:28:40.000+02:00</time>
<speed>1.6666666</speed>
<course>15.0</course>
<ele>93.0</ele>
</trkpt>
<trkpt lat="52.374197244642644" lon="13.384244441985695">
<time>2011-04-09T18:28:41.000+02:00</time>
<speed>1.6666666</speed>
<course>16.0</course>
<ele>93.0</ele>
</trkpt>
<trkpt lat="52.37422943115082" lon="13.384244441985695">
<time>2011-04-09T18:28:42.000+02:00</time>
<speed>1.6666666</speed>
<course>17.0</course>
<ele>93.0</ele>
</trkpt>
<trkpt lat="52.37425088882294" lon="13.384265899657814">
<time>2011-04-09T18:28:43.000+02:00</time>
<speed>1.6666666</speed>
<course>16.0</course>
<ele>93.0</ele>
</trkpt>
<trkpt lat="52.37427234649506" lon="13.384287357329933">
<time>2011-04-09T18:28:44.000+02:00</time>
<speed>1.6666666</speed>
<course>18.0</course>
<ele>93.0</ele>
</trkpt>
<trkpt lat="52.37429380416718" lon="13.384308815002052">
<time>2011-04-09T18:28:45.000+02:00</time>
<speed>1.6666666</speed>
<course>19.0</course>
<ele>93.0</ele>
</trkpt>
<trkpt lat="52.3743152618393" lon="13.384308815002052">
<time>2011-04-09T18:28:46.000+02:00</time>
<speed>1.6666666</speed>
<course>20.0</course>
<ele>93.0</ele>
</trkpt>
<trkpt lat="52.37433671951142" lon="13.384330272674172">
<time>2011-04-09T18:28:47.000+02:00</time>
<speed>1.6666666</speed>
<course>21.0</course>
<ele>93.0</ele>
</trkpt>
<trkpt lat="52.37435817718354" lon="13.38435173034629">
<time>2011-04-09T18:28:48.000+02:00</time>
<speed>1.6666666</speed>
<course>24.0</course>
<ele>93.0</ele>
</trkpt>
<trkpt lat="52.37437963485566" lon="13.38437318801841">
<time>2011-04-09T18:28:49.000+02:00</time>
<speed>1.9444444</speed>
<course>27.0</course>
<ele>93.0</ele>
</trkpt>
<trkpt lat="52.374401092527776" lon="13.384416103362648">
<time>2011-04-09T18:28:50.000+02:00</time>
<speed>1.9444444</speed>
<course>27.0</course>
<ele>93.0</ele>
</trkpt>
<trkpt lat="52.374422550199895" lon="13.384437561034767">
<time>2011-04-09T18:28:51.000+02:00</time>
<speed>1.9444444</speed>
<course>28.0</course>
<ele>93.0</ele>
</trkpt>
<trkpt lat="52.374444007872015" lon="13.384459018706886">
<time>2011-04-09T18:28:52.000+02:00</time>
<speed>1.9444444</speed>
<course>29.0</course>
<ele>93.0</ele>
</trkpt>
<trkpt lat="52.374454736708074" lon="13.384480476379006">
<time>2011-04-09T18:28:53.000+02:00</time>
<speed>1.6666666</speed>
<course>23.0</course>
<ele>93.0</ele>
</trkpt>
<trkpt lat="52.37447619438019" lon="13.384501934051125">
<time>2011-04-09T18:28:54.000+02:00</time>
<speed>1.6666666</speed>
<course>24.0</course>
<ele>93.0</ele>
</trkpt>
<trkpt lat="52.37449765205231" lon="13.384523391723244">
<time>2011-04-09T18:28:55.000+02:00</time>
<speed>1.6666666</speed>
<course>25.0</course>
<ele>93.0</ele>
</trkpt>
<trkpt lat="52.37450838088837" lon="13.384544849395363">
<time>2011-04-09T18:28:56.000+02:00</time>
<speed>1.6666666</speed>
<course>25.0</course>
<ele>92.0</ele>
</trkpt>
<trkpt lat="52.37452983856049" lon="13.384566307067482">
<time>2011-04-09T18:28:57.000+02:00</time>
<speed>1.6666666</speed>
<course>27.0</course>
<ele>92.0</ele>
</trkpt>
<trkpt lat="52.37455129623261" lon="13.384566307067482">
<time>2011-04-09T18:28:58.000+02:00</time>
<speed>1.6666666</speed>
<course>27.0</course>
<ele>92.0</ele>
</trkpt>
<trkpt lat="52.37456202506867" lon="13.384587764739601">
<time>2011-04-09T18:28:59.000+02:00</time>
<speed>1.6666666</speed>
<course>27.0</course>
<ele>92.0</ele>
</trkpt>
<trkpt lat="52.37458348274079" lon="13.38463068008384">
<time>2011-04-09T18:29:00.000+02:00</time>
<speed>1.6666666</speed>
<course>27.0</course>
<ele>92.0</ele>
</trkpt>
<trkpt lat="52.37459421157685" lon="13.384652137755959">
<time>2011-04-09T18:29:01.000+02:00</time>
<speed>1.6666666</speed>
<course>27.0</course>
<ele>92.0</ele>
</trkpt>
<trkpt lat="52.37461566924897" lon="13.384673595428078">
<time>2011-04-09T18:29:02.000+02:00</time>
<speed>1.6666666</speed>
<course>27.0</course>
<ele>92.0</ele>
</trkpt>
<trkpt lat="52.37463712692109" lon="13.384716510772316">
<time>2011-04-09T18:29:03.000+02:00</time>
<speed>1.6666666</speed>
<course>25.0</course>
<ele>92.0</ele>
</trkpt>
<trkpt lat="52.374658584593206" lon="13.384737968444435">
<time>2011-04-09T18:29:04.000+02:00</time>
<speed>1.6666666</speed>
<course>23.0</course>
<ele>92.0</ele>
</trkpt>
<trkpt lat="52.374680042265325" lon="13.384759426116554">
<time>2011-04-09T18:29:05.000+02:00</time>
<speed>1.9444444</speed>
<course>24.0</course>
<ele>92.0</ele>
</trkpt>
<trkpt lat="52.374701499937444" lon="13.384802341460793">
<time>2011-04-09T18:29:06.000+02:00</time>
<speed>1.9444444</speed>
<course>24.0</course>
<ele>92.0</ele>
</trkpt>
<trkpt lat="52.37472295760956" lon="13.384823799132912">
<time>2011-04-09T18:29:07.000+02:00</time>
<speed>1.9444444</speed>
<course>25.0</course>
<ele>92.0</ele>
</trkpt>
<trkpt lat="52.37474441528168" lon="13.38486671447715">
<time>2011-04-09T18:29:08.000+02:00</time>
<speed>1.9444444</speed>
<course>25.0</course>
<ele>92.0</ele>
</trkpt>
<trkpt lat="52.3747658729538" lon="13.384909629821388">
<time>2011-04-09T18:29:09.000+02:00</time>
<speed>1.9444444</speed>
<course>28.0</course>
<ele>92.0</ele>
</trkpt>
<trkpt lat="52.37478733062592" lon="13.384931087493507">
<time>2011-04-09T18:29:10.000+02:00</time>
<speed>1.9444444</speed>
<course>28.0</course>
<ele>92.0</ele>
</trkpt>
<trkpt lat="52.37479805946198" lon="13.384974002837746">
<time>2011-04-09T18:29:11.000+02:00</time>
<speed>1.9444444</speed>
<course>29.0</course>
<ele>92.0</ele>
</trkpt>
<trkpt lat="52.3748195171341" lon="13.384995460509865">
<time>2011-04-09T18:29:12.000+02:00</time>
<speed>1.9444444</speed>
<course>29.0</course>
<ele>92.0</ele>
</trkpt>
<trkpt lat="52.37483024597016" lon="13.385038375854103">
<time>2011-04-09T18:29:13.000+02:00</time>
<speed>1.9444444</speed>
<course>34.0</course>
<ele>93.0</ele>
</trkpt>
<trkpt lat="52.37486243247834" lon="13.38510274887046">
<time>2011-04-09T18:29:15.000+02:00</time>
<speed>1.6666666</speed>
<course>38.0</course>
<ele>93.0</ele>
</trkpt>
<trkpt lat="52.3748731613144" lon="13.385145664214699">
<time>2011-04-09T18:29:16.000+02:00</time>
<speed>1.6666666</speed>
<course>40.0</course>
<ele>93.0</ele>
</trkpt>
<trkpt lat="52.37488389015046" lon="13.385188579558937">
<time>2011-04-09T18:29:17.000+02:00</time>
<speed>1.9444444</speed>
<course>47.0</course>
<ele>93.0</ele>
</trkpt>
<trkpt lat="52.37489461898652" lon="13.385210037231056">
<time>2011-04-09T18:29:18.000+02:00</time>
<speed>1.9444444</speed>
<course>48.0</course>
<ele>93.0</ele>
</trkpt>
<trkpt lat="52.374905347822576" lon="13.385252952575295">
<time>2011-04-09T18:29:19.000+02:00</time>
<speed>1.6666666</speed>
<course>52.0</course>
<ele>93.0</ele>
</trkpt>
<trkpt lat="52.374916076658636" lon="13.385295867919533">
<time>2011-04-09T18:29:20.000+02:00</time>
<speed>1.6666666</speed>
<course>53.0</course>
<ele>93.0</ele>
</trkpt>
<trkpt lat="52.374916076658636" lon="13.385317325591652">
<time>2011-04-09T18:29:21.000+02:00</time>
<speed>1.6666666</speed>
<course>55.0</course>
<ele>93.0</ele>
</trkpt>
<trkpt lat="52.374926805494695" lon="13.38536024093589">
<time>2011-04-09T18:29:22.000+02:00</time>
<speed>1.6666666</speed>
<course>58.0</course>
<ele>93.0</ele>
</trkpt>
<trkpt lat="52.374937534330755" lon="13.385403156280129">
<time>2011-04-09T18:29:23.000+02:00</time>
<speed>1.6666666</speed>
<course>55.0</course>
<ele>93.0</ele>
</trkpt>
<trkpt lat="52.374937534330755" lon="13.385424613952248">
<time>2011-04-09T18:29:24.000+02:00</time>
<speed>1.6666666</speed>
<course>63.0</course>
<ele>94.0</ele>
</trkpt>
<trkpt lat="52.374948263166814" lon="13.385467529296486">
<time>2011-04-09T18:29:25.000+02:00</time>
<speed>1.6666666</speed>
<course>63.0</course>
<ele>94.0</ele>
</trkpt>
<trkpt lat="52.374948263166814" lon="13.385488986968605">
<time>2011-04-09T18:29:26.000+02:00</time>
<speed>1.6666666</speed>
<course>63.0</course>
<ele>94.0</ele>
</trkpt>
<trkpt lat="52.374948263166814" lon="13.385531902312843">
<time>2011-04-09T18:29:27.000+02:00</time>
<speed>1.3888888</speed>
<course>62.0</course>
<ele>94.0</ele>
</trkpt>
<trkpt lat="52.374948263166814" lon="13.385574817657082">
<time>2011-04-09T18:29:28.000+02:00</time>
<speed>1.3888888</speed>
<course>61.0</course>
<ele>94.0</ele>
</trkpt>
<trkpt lat="52.374948263166814" lon="13.385639190673439">
<time>2011-04-09T18:29:29.000+02:00</time>
<speed>1.3888888</speed>
<course>58.0</course>
<ele>94.0</ele>
</trkpt>
<trkpt lat="52.374948263166814" lon="13.385682106017677">
<time>2011-04-09T18:29:30.000+02:00</time>
<speed>1.3888888</speed>
<course>57.0</course>
<ele>94.0</ele>
</trkpt>
<trkpt lat="52.374958992002874" lon="13.385725021361916">
<time>2011-04-09T18:29:31.000+02:00</time>
<speed>1.3888888</speed>
<course>55.0</course>
<ele>94.0</ele>
</trkpt>
<trkpt lat="52.37496972083893" lon="13.385767936706154">
<time>2011-04-09T18:29:32.000+02:00</time>
<speed>1.3888888</speed>
<course>51.0</course>
<ele>95.0</ele>
</trkpt>
<trkpt lat="52.37496972083893" lon="13.385789394378273">
<time>2011-04-09T18:29:33.000+02:00</time>
<speed>1.3888888</speed>
<course>46.0</course>
<ele>95.0</ele>
</trkpt>
<trkpt lat="52.37499117851105" lon="13.385832309722511">
<time>2011-04-09T18:29:34.000+02:00</time>
<speed>1.3888888</speed>
<course>43.0</course>
<ele>95.0</ele>
</trkpt>
<trkpt lat="52.37500190734711" lon="13.38585376739463">
<time>2011-04-09T18:29:35.000+02:00</time>
<speed>1.3888888</speed>
<course>39.0</course>
<ele>95.0</ele>
</trkpt>
<trkpt lat="52.37501263618317" lon="13.385896682738869">
<time>2011-04-09T18:29:36.000+02:00</time>
<speed>1.6666666</speed>
<course>36.0</course>
<ele>95.0</ele>
</trkpt>
<trkpt lat="52.37503409385529" lon="13.385918140410988">
<time>2011-04-09T18:29:37.000+02:00</time>
<speed>1.6666666</speed>
<course>33.0</course>
<ele>95.0</ele>
</trkpt>
<trkpt lat="52.37504482269135" lon="13.385939598083107">
<time>2011-04-09T18:29:38.000+02:00</time>
<speed>1.6666666</speed>
<course>30.0</course>
<ele>95.0</ele>
</trkpt>
<trkpt lat="52.37506628036347" lon="13.385961055755226">
<time>2011-04-09T18:29:39.000+02:00</time>
<speed>1.6666666</speed>
<course>28.0</course>
<ele>95.0</ele>
</trkpt>
<trkpt lat="52.37507700919953" lon="13.385982513427345">
<time>2011-04-09T18:29:40.000+02:00</time>
<speed>1.6666666</speed>
<course>27.0</course>
<ele>95.0</ele>
</trkpt>
<trkpt lat="52.37509846687165" lon="13.385982513427345">
<time>2011-04-09T18:29:41.000+02:00</time>
<speed>1.6666666</speed>
<course>24.0</course>
<ele>95.0</ele>
</trkpt>
<trkpt lat="52.37511992454377" lon="13.386003971099464">
<time>2011-04-09T18:29:42.000+02:00</time>
<speed>1.6666666</speed>
<course>25.0</course>
<ele>96.0</ele>
</trkpt>
<trkpt lat="52.37513065337983" lon="13.386025428771584">
<time>2011-04-09T18:29:43.000+02:00</time>
<speed>1.6666666</speed>
<course>22.0</course>
<ele>96.0</ele>
</trkpt>
<trkpt lat="52.375152111051946" lon="13.386046886443703">
<time>2011-04-09T18:29:44.000+02:00</time>
<speed>1.6666666</speed>
<course>19.0</course>
<ele>96.0</ele>
</trkpt>
<trkpt lat="52.375173568724065" lon="13.386068344115822">
<time>2011-04-09T18:29:45.000+02:00</time>
<speed>1.6666666</speed>
<course>19.0</course>
<ele>96.0</ele>
</trkpt>
<trkpt lat="52.375195026396185" lon="13.386089801787941">
<time>2011-04-09T18:29:46.000+02:00</time>
<speed>1.6666666</speed>
<course>20.0</course>
<ele>96.0</ele>
</trkpt>
<trkpt lat="52.375216484068304" lon="13.38611125946006">
<time>2011-04-09T18:29:47.000+02:00</time>
<speed>1.9444444</speed>
<course>20.0</course>
<ele>96.0</ele>
</trkpt>
<trkpt lat="52.37523794174042" lon="13.386154174804298">
<time>2011-04-09T18:29:48.000+02:00</time>
<speed>1.9444444</speed>
<course>16.0</course>
<ele>96.0</ele>
</trkpt>
<trkpt lat="52.37525939941254" lon="13.386175632476418">
<time>2011-04-09T18:29:49.000+02:00</time>
<speed>1.9444444</speed>
<course>14.0</course>
<ele>97.0</ele>
</trkpt>
<trkpt lat="52.37529158592072" lon="13.386197090148537">
<time>2011-04-09T18:29:50.000+02:00</time>
<speed>1.9444444</speed>
<course>14.0</course>
<ele>97.0</ele>
</trkpt>
<trkpt lat="52.37531304359284" lon="13.386240005492775">
<time>2011-04-09T18:29:51.000+02:00</time>
<speed>1.9444444</speed>
<course>14.0</course>
<ele>97.0</ele>
</trkpt>
<trkpt lat="52.37533450126496" lon="13.386261463164894">
<time>2011-04-09T18:29:52.000+02:00</time>
<speed>1.9444444</speed>
<course>18.0</course>
<ele>97.0</ele>
</trkpt>
<trkpt lat="52.37536668777314" lon="13.386282920837013">
<time>2011-04-09T18:29:53.000+02:00</time>
<speed>1.9444444</speed>
<course>20.0</course>
<ele>97.0</ele>
</trkpt>
<trkpt lat="52.37538814544526" lon="13.386304378509132">
<time>2011-04-09T18:29:54.000+02:00</time>
<speed>1.9444444</speed>
<course>22.0</course>
<ele>97.0</ele>
</trkpt>
<trkpt lat="52.375409603117376" lon="13.386325836181252">
<time>2011-04-09T18:29:55.000+02:00</time>
<speed>1.9444444</speed>
<course>22.0</course>
<ele>97.0</ele>
</trkpt>
<trkpt lat="52.375431060789495" lon="13.38634729385337">
<time>2011-04-09T18:29:56.000+02:00</time>
<speed>1.9444444</speed>
<course>23.0</course>
<ele>97.0</ele>
</trkpt>
<trkpt lat="52.375452518461614" lon="13.38636875152549">
<time>2011-04-09T18:29:57.000+02:00</time>
<speed>1.6666666</speed>
<course>24.0</course>
<ele>97.0</ele>
</trkpt>
<trkpt lat="52.375463247297674" lon="13.38636875152549">
<time>2011-04-09T18:29:58.000+02:00</time>
<speed>1.6666666</speed>
<course>25.0</course>
<ele>98.0</ele>
</trkpt>
<trkpt lat="52.37548470496979" lon="13.386390209197609">
<time>2011-04-09T18:29:59.000+02:00</time>
<speed>1.6666666</speed>
<course>25.0</course>
<ele>98.0</ele>
</trkpt>
<trkpt lat="52.37550616264191" lon="13.386411666869728">
<time>2011-04-09T18:30:00.000+02:00</time>
<speed>1.6666666</speed>
<course>23.0</course>
<ele>98.0</ele>
</trkpt>
<trkpt lat="52.37551689147797" lon="13.386433124541847">
<time>2011-04-09T18:30:01.000+02:00</time>
<speed>1.6666666</speed>
<course>24.0</course>
<ele>98.0</ele>
</trkpt>
<trkpt lat="52.37553834915009" lon="13.386454582213966">
<time>2011-04-09T18:30:02.000+02:00</time>
<speed>1.9444444</speed>
<course>23.0</course>
<ele>98.0</ele>
</trkpt>
<trkpt lat="52.37555980682221" lon="13.386476039886086">
<time>2011-04-09T18:30:03.000+02:00</time>
<speed>1.6666666</speed>
<course>25.0</course>
<ele>98.0</ele>
</trkpt>
<trkpt lat="52.37558126449433" lon="13.386476039886086">
<time>2011-04-09T18:30:04.000+02:00</time>
<speed>1.6666666</speed>
<course>26.0</course>
<ele>98.0</ele>
</trkpt>
<trkpt lat="52.37560272216645" lon="13.386497497558205">
<time>2011-04-09T18:30:05.000+02:00</time>
<speed>1.9444444</speed>
<course>25.0</course>
<ele>98.0</ele>
</trkpt>
<trkpt lat="52.37562417983857" lon="13.386518955230324">
<time>2011-04-09T18:30:06.000+02:00</time>
<speed>1.9444444</speed>
<course>22.0</course>
<ele>98.0</ele>
</trkpt>
<trkpt lat="52.37564563751069" lon="13.386540412902443">
<time>2011-04-09T18:30:07.000+02:00</time>
<speed>1.9444444</speed>
<course>22.0</course>
<ele>98.0</ele>
</trkpt>
<trkpt lat="52.375667095182806" lon="13.386561870574562">
<time>2011-04-09T18:30:08.000+02:00</time>
<speed>1.9444444</speed>
<course>22.0</course>
<ele>98.0</ele>
</trkpt>
<trkpt lat="52.375688552854925" lon="13.386583328246681">
<time>2011-04-09T18:30:09.000+02:00</time>
<speed>2.2222223</speed>
<course>21.0</course>
<ele>99.0</ele>
</trkpt>
<trkpt lat="52.375710010527044" lon="13.3866047859188">
<time>2011-04-09T18:30:10.000+02:00</time>
<speed>1.9444444</speed>
<course>22.0</course>
<ele>99.0</ele>
</trkpt>
<trkpt lat="52.37574219703522" lon="13.38662624359092">
<time>2011-04-09T18:30:11.000+02:00</time>
<speed>1.9444444</speed>
<course>22.0</course>
<ele>99.0</ele>
</trkpt>
<trkpt lat="52.37576365470734" lon="13.386647701263039">
<time>2011-04-09T18:30:12.000+02:00</time>
<speed>2.2222223</speed>
<course>24.0</course>
<ele>99.0</ele>
</trkpt>
<trkpt lat="52.37578511237946" lon="13.386669158935158">
<time>2011-04-09T18:30:13.000+02:00</time>
<speed>2.2222223</speed>
<course>23.0</course>
<ele>99.0</ele>
</trkpt>
<trkpt lat="52.37580657005158" lon="13.386690616607277">
<time>2011-04-09T18:30:14.000+02:00</time>
<speed>1.9444444</speed>
<course>25.0</course>
<ele>99.0</ele>
</trkpt>
<trkpt lat="52.3758280277237" lon="13.386712074279396">
<time>2011-04-09T18:30:15.000+02:00</time>
<speed>1.9444444</speed>
<course>22.0</course>
<ele>99.0</ele>
</trkpt>
<trkpt lat="52.37584948539582" lon="13.386733531951515">
<time>2011-04-09T18:30:16.000+02:00</time>
<speed>2.2222223</speed>
<course>21.0</course>
<ele>99.0</ele>
</trkpt>
<trkpt lat="52.375903129576116" lon="13.386776447295754">
<time>2011-04-09T18:30:18.000+02:00</time>
<speed>2.2222223</speed>
<course>21.0</course>
<ele>99.0</ele>
</trkpt>
<trkpt lat="52.375924587248235" lon="13.386797904967873">
<time>2011-04-09T18:30:19.000+02:00</time>
<speed>2.2222223</speed>
<course>19.0</course>
<ele>99.0</ele>
</trkpt>
<trkpt lat="52.375946044920354" lon="13.386797904967873">
<time>2011-04-09T18:30:20.000+02:00</time>
<speed>2.2222223</speed>
<course>18.0</course>
<ele>99.0</ele>
</trkpt>
<trkpt lat="52.375967502592474" lon="13.386819362639992">
<time>2011-04-09T18:30:21.000+02:00</time>
<speed>1.9444444</speed>
<course>20.0</course>
<ele>99.0</ele>
</trkpt>
<trkpt lat="52.37598896026459" lon="13.386840820312111">
<time>2011-04-09T18:30:22.000+02:00</time>
<speed>1.9444444</speed>
<course>21.0</course>
<ele>99.0</ele>
</trkpt>
<trkpt lat="52.37601041793671" lon="13.38686227798423">
<time>2011-04-09T18:30:23.000+02:00</time>
<speed>1.9444444</speed>
<course>23.0</course>
<ele>99.0</ele>
</trkpt>
<trkpt lat="52.37603187560883" lon="13.38688373565635">
<time>2011-04-09T18:30:24.000+02:00</time>
<speed>1.9444444</speed>
<course>23.0</course>
<ele>99.0</ele>
</trkpt>
<trkpt lat="52.37604260444489" lon="13.386905193328468">
<time>2011-04-09T18:30:25.000+02:00</time>
<speed>1.9444444</speed>
<course>26.0</course>
<ele>99.0</ele>
</trkpt>
<trkpt lat="52.37606406211701" lon="13.386926651000588">
<time>2011-04-09T18:30:26.000+02:00</time>
<speed>1.9444444</speed>
<course>26.0</course>
<ele>99.0</ele>
</trkpt>
<trkpt lat="52.37608551978913" lon="13.386948108672707">
<time>2011-04-09T18:30:27.000+02:00</time>
<speed>1.9444444</speed>
<course>28.0</course>
<ele>99.0</ele>
</trkpt>
<trkpt lat="52.37610697746125" lon="13.386969566344826">
<time>2011-04-09T18:30:28.000+02:00</time>
<speed>1.9444444</speed>
<course>29.0</course>
<ele>99.0</ele>
</trkpt>
<trkpt lat="52.37611770629731" lon="13.386991024016945">
<time>2011-04-09T18:30:29.000+02:00</time>
<speed>1.9444444</speed>
<course>28.0</course>
<ele>99.0</ele>
</trkpt>
<trkpt lat="52.37613916396943" lon="13.387012481689064">
<time>2011-04-09T18:30:30.000+02:00</time>
<speed>1.9444444</speed>
<course>29.0</course>
<ele>99.0</ele>
</trkpt>
<trkpt lat="52.376160621641546" lon="13.387033939361183">
<time>2011-04-09T18:30:31.000+02:00</time>
<speed>1.9444444</speed>
<course>28.0</course>
<ele>100.0</ele>
</trkpt>
<trkpt lat="52.376171350477605" lon="13.387076854705422">
<time>2011-04-09T18:30:32.000+02:00</time>
<speed>1.9444444</speed>
<course>27.0</course>
<ele>100.0</ele>
</trkpt>
<trkpt lat="52.376192808149725" lon="13.38709831237754">
<time>2011-04-09T18:30:33.000+02:00</time>
<speed>1.9444444</speed>
<course>25.0</course>
<ele>100.0</ele>
</trkpt>
<trkpt lat="52.376203536985784" lon="13.38711977004966">
<time>2011-04-09T18:30:34.000+02:00</time>
<speed>1.9444444</speed>
<course>24.0</course>
<ele>99.0</ele>
</trkpt>
<trkpt lat="52.3762249946579" lon="13.387141227721779">
<time>2011-04-09T18:30:35.000+02:00</time>
<speed>1.9444444</speed>
<course>25.0</course>
<ele>99.0</ele>
</trkpt>
<trkpt lat="52.37623572349396" lon="13.387162685393898">
<time>2011-04-09T18:30:36.000+02:00</time>
<speed>1.9444444</speed>
<course>24.0</course>
<ele>99.0</ele>
</trkpt>
<trkpt lat="52.37625718116608" lon="13.387162685393898">
<time>2011-04-09T18:30:37.000+02:00</time>
<speed>1.9444444</speed>
<course>21.0</course>
<ele>99.0</ele>
</trkpt>
<trkpt lat="52.37626791000214" lon="13.387184143066017">
<time>2011-04-09T18:30:38.000+02:00</time>
<speed>1.9444444</speed>
<course>20.0</course>
<ele>99.0</ele>
</trkpt>
<trkpt lat="52.37628936767426" lon="13.387205600738136">
<time>2011-04-09T18:30:39.000+02:00</time>
<speed>1.9444444</speed>
<course>14.0</course>
<ele>99.0</ele>
</trkpt>
<trkpt lat="52.37630009651032" lon="13.387227058410256">
<time>2011-04-09T18:30:40.000+02:00</time>
<speed>1.9444444</speed>
<course>13.0</course>
<ele>99.0</ele>
</trkpt>
<trkpt lat="52.37632155418244" lon="13.387248516082375">
<time>2011-04-09T18:30:41.000+02:00</time>
<speed>1.9444444</speed>
<course>12.0</course>
<ele>99.0</ele>
</trkpt>
<trkpt lat="52.37634301185456" lon="13.387248516082375">
<time>2011-04-09T18:30:42.000+02:00</time>
<speed>1.9444444</speed>
<course>10.0</course>
<ele>99.0</ele>
</trkpt>
<trkpt lat="52.37635374069062" lon="13.387269973754494">
<time>2011-04-09T18:30:43.000+02:00</time>
<speed>1.9444444</speed>
<course>8.0</course>
<ele>99.0</ele>
</trkpt>
<trkpt lat="52.37637519836274" lon="13.387269973754494">
<time>2011-04-09T18:30:44.000+02:00</time>
<speed>1.9444444</speed>
<course>6.0</course>
<ele>99.0</ele>
</trkpt>
<trkpt lat="52.376396656034856" lon="13.387291431426613">
<time>2011-04-09T18:30:45.000+02:00</time>
<speed>1.9444444</speed>
<course>3.0</course>
<ele>99.0</ele>
</trkpt>
<trkpt lat="52.376418113706976" lon="13.387291431426613">
<time>2011-04-09T18:30:46.000+02:00</time>
<speed>1.9444444</speed>
<course>2.0</course>
<ele>99.0</ele>
</trkpt>
<trkpt lat="52.376428842543035" lon="13.387291431426613">
<time>2011-04-09T18:30:47.000+02:00</time>
<speed>1.9444444</speed>
<course>5.0</course>
<ele>100.0</ele>
</trkpt>
<trkpt lat="52.376450300215154" lon="13.387312889098732">
<time>2011-04-09T18:30:48.000+02:00</time>
<speed>1.9444444</speed>
<course>7.0</course>
<ele>100.0</ele>
</trkpt>
<trkpt lat="52.376461029051214" lon="13.387312889098732">
<time>2011-04-09T18:30:49.000+02:00</time>
<speed>1.9444444</speed>
<course>12.0</course>
<ele>100.0</ele>
</trkpt>
<trkpt lat="52.37648248672333" lon="13.387334346770851">
<time>2011-04-09T18:30:50.000+02:00</time>
<speed>1.9444444</speed>
<course>15.0</course>
<ele>100.0</ele>
</trkpt>
<trkpt lat="52.37649321555939" lon="13.38735580444297">
<time>2011-04-09T18:30:51.000+02:00</time>
<speed>1.9444444</speed>
<course>15.0</course>
<ele>100.0</ele>
</trkpt>
<trkpt lat="52.37651467323151" lon="13.38735580444297">
<time>2011-04-09T18:30:52.000+02:00</time>
<speed>1.9444444</speed>
<course>16.0</course>
<ele>100.0</ele>
</trkpt>
<trkpt lat="52.37652540206757" lon="13.38737726211509">
<time>2011-04-09T18:30:53.000+02:00</time>
<speed>1.9444444</speed>
<course>20.0</course>
<ele>100.0</ele>
</trkpt>
<trkpt lat="52.37654685973969" lon="13.387398719787209">
<time>2011-04-09T18:30:54.000+02:00</time>
<speed>1.9444444</speed>
<course>24.0</course>
<ele>100.0</ele>
</trkpt>
<trkpt lat="52.37656831741181" lon="13.387420177459328">
<time>2011-04-09T18:30:55.000+02:00</time>
<speed>1.9444444</speed>
<course>25.0</course>
<ele>100.0</ele>
</trkpt>
<trkpt lat="52.37657904624787" lon="13.387441635131447">
<time>2011-04-09T18:30:56.000+02:00</time>
<speed>1.9444444</speed>
<course>25.0</course>
<ele>100.0</ele>
</trkpt>
<trkpt lat="52.37660050391999" lon="13.387463092803566">
<time>2011-04-09T18:30:57.000+02:00</time>
<speed>1.9444444</speed>
<course>26.0</course>
<ele>100.0</ele>
</trkpt>
<trkpt lat="52.37661123275605" lon="13.387484550475685">
<time>2011-04-09T18:30:58.000+02:00</time>
<speed>2.2222223</speed>
<course>23.0</course>
<ele>100.0</ele>
</trkpt>
<trkpt lat="52.37663269042817" lon="13.387506008147804">
<time>2011-04-09T18:30:59.000+02:00</time>
<speed>2.2222223</speed>
<course>22.0</course>
<ele>100.0</ele>
</trkpt>
<trkpt lat="52.376654148100286" lon="13.387527465819923">
<time>2011-04-09T18:31:00.000+02:00</time>
<speed>2.2222223</speed>
<course>22.0</course>
<ele>101.0</ele>
</trkpt>
<trkpt lat="52.376675605772405" lon="13.387548923492043">
<time>2011-04-09T18:31:01.000+02:00</time>
<speed>2.2222223</speed>
<course>21.0</course>
<ele>101.0</ele>
</trkpt>
<trkpt lat="52.376697063444524" lon="13.387570381164162">
<time>2011-04-09T18:31:02.000+02:00</time>
<speed>2.2222223</speed>
<course>19.0</course>
<ele>101.0</ele>
</trkpt>
<trkpt lat="52.37671852111664" lon="13.387591838836281">
<time>2011-04-09T18:31:03.000+02:00</time>
<speed>2.2222223</speed>
<course>17.0</course>
<ele>101.0</ele>
</trkpt>
<trkpt lat="52.3767292499527" lon="13.387591838836281">
<time>2011-04-09T18:31:04.000+02:00</time>
<speed>1.9444444</speed>
<course>17.0</course>
<ele>101.0</ele>
</trkpt>
<trkpt lat="52.37675070762482" lon="13.3876132965084">
<time>2011-04-09T18:31:05.000+02:00</time>
<speed>1.9444444</speed>
<course>17.0</course>
<ele>101.0</ele>
</trkpt>
<trkpt lat="52.37677216529694" lon="13.38763475418052">
<time>2011-04-09T18:31:06.000+02:00</time>
<speed>1.6666666</speed>
<course>16.0</course>
<ele>101.0</ele>
</trkpt>
<trkpt lat="52.376782894133" lon="13.38763475418052">
<time>2011-04-09T18:31:07.000+02:00</time>
<speed>1.6666666</speed>
<course>16.0</course>
<ele>101.0</ele>
</trkpt>
<trkpt lat="52.37680435180512" lon="13.387656211852638">
<time>2011-04-09T18:31:08.000+02:00</time>
<speed>1.9444444</speed>
<course>12.0</course>
<ele>101.0</ele>
</trkpt>
<trkpt lat="52.37682580947724" lon="13.387677669524757">
<time>2011-04-09T18:31:09.000+02:00</time>
<speed>1.9444444</speed>
<course>13.0</course>
<ele>101.0</ele>
</trkpt>
<trkpt lat="52.37684726714936" lon="13.387677669524757">
<time>2011-04-09T18:31:10.000+02:00</time>
<speed>1.9444444</speed>
<course>15.0</course>
<ele>101.0</ele>
</trkpt>
<trkpt lat="52.37685799598542" lon="13.387699127196877">
<time>2011-04-09T18:31:11.000+02:00</time>
<speed>1.9444444</speed>
<course>16.0</course>
<ele>101.0</ele>
</trkpt>
<trkpt lat="52.37687945365754" lon="13.387699127196877">
<time>2011-04-09T18:31:12.000+02:00</time>
<speed>1.9444444</speed>
<course>16.0</course>
<ele>101.0</ele>
</trkpt>
<trkpt lat="52.376900911329656" lon="13.387720584868996">
<time>2011-04-09T18:31:13.000+02:00</time>
<speed>1.9444444</speed>
<course>15.0</course>
<ele>101.0</ele>
</trkpt>
<trkpt lat="52.376922369001775" lon="13.387742042541115">
<time>2011-04-09T18:31:14.000+02:00</time>
<speed>1.9444444</speed>
<course>16.0</course>
<ele>101.0</ele>
</trkpt>
<trkpt lat="52.376933097837835" lon="13.387742042541115">
<time>2011-04-09T18:31:15.000+02:00</time>
<speed>1.9444444</speed>
<course>18.0</course>
<ele>101.0</ele>
</trkpt>
<trkpt lat="52.376954555509954" lon="13.387763500213234">
<time>2011-04-09T18:31:16.000+02:00</time>
<speed>1.9444444</speed>
<course>19.0</course>
<ele>100.0</ele>
</trkpt>
<trkpt lat="52.37697601318207" lon="13.387784957885353">
<time>2011-04-09T18:31:17.000+02:00</time>
<speed>1.9444444</speed>
<course>20.0</course>
<ele>100.0</ele>
</trkpt>
<trkpt lat="52.37699747085419" lon="13.387806415557472">
<time>2011-04-09T18:31:18.000+02:00</time>
<speed>2.2222223</speed>
<course>15.0</course>
<ele>100.0</ele>
</trkpt>
<trkpt lat="52.37702965736237" lon="13.387827873229591">
<time>2011-04-09T18:31:19.000+02:00</time>
<speed>2.5</speed>
<course>11.0</course>
<ele>100.0</ele>
</trkpt>
<trkpt lat="52.37705111503449" lon="13.38784933090171">
<time>2011-04-09T18:31:20.000+02:00</time>
<speed>2.5</speed>
<course>6.0</course>
<ele>100.0</ele>
</trkpt>
<trkpt lat="52.37711548805085" lon="13.38787078857383">
<time>2011-04-09T18:31:22.000+02:00</time>
<speed>2.2222223</speed>
<course>3.0</course>
<ele>100.0</ele>
</trkpt>
<trkpt lat="52.37713694572297" lon="13.38787078857383">
<time>2011-04-09T18:31:23.000+02:00</time>
<speed>2.2222223</speed>
<course>0.0</course>
<ele>100.0</ele>
</trkpt>
<trkpt lat="52.377158403395086" lon="13.38787078857383">
<time>2011-04-09T18:31:24.000+02:00</time>
<speed>1.3888888</speed>
<course>359.0</course>
<ele>100.0</ele>
</trkpt>
<trkpt lat="52.377179861067205" lon="13.38787078857383">
<time>2011-04-09T18:31:25.000+02:00</time>
<speed>1.3888888</speed>
<course>2.0</course>
<ele>100.0</ele>
</trkpt>
<trkpt lat="52.377201318739324" lon="13.387892246245949">
<time>2011-04-09T18:31:26.000+02:00</time>
<speed>1.3888888</speed>
<course>6.0</course>
<ele>100.0</ele>
</trkpt>
<trkpt lat="52.377212047575384" lon="13.387892246245949">
<time>2011-04-09T18:31:27.000+02:00</time>
<speed>1.3888888</speed>
<course>13.0</course>
<ele>99.0</ele>
</trkpt>
<trkpt lat="52.3772335052475" lon="13.387913703918068">
<time>2011-04-09T18:31:28.000+02:00</time>
<speed>1.3888888</speed>
<course>8.0</course>
<ele>99.0</ele>
</trkpt>
<trkpt lat="52.37725496291962" lon="13.387935161590187">
<time>2011-04-09T18:31:29.000+02:00</time>
<speed>1.3888888</speed>
<course>27.0</course>
<ele>99.0</ele>
</trkpt>
<trkpt lat="52.37726569175568" lon="13.387935161590187">
<time>2011-04-09T18:31:30.000+02:00</time>
<speed>1.6666666</speed>
<course>30.0</course>
<ele>99.0</ele>
</trkpt>
<trkpt lat="52.3772871494278" lon="13.387956619262306">
<time>2011-04-09T18:31:31.000+02:00</time>
<speed>1.6666666</speed>
<course>31.0</course>
<ele>99.0</ele>
</trkpt>
<trkpt lat="52.37729787826386" lon="13.387978076934425">
<time>2011-04-09T18:31:32.000+02:00</time>
<speed>1.9444444</speed>
<course>28.0</course>
<ele>99.0</ele>
</trkpt>
<trkpt lat="52.37731933593598" lon="13.387999534606545">
<time>2011-04-09T18:31:33.000+02:00</time>
<speed>1.6666666</speed>
<course>28.0</course>
<ele>99.0</ele>
</trkpt>
<trkpt lat="52.37733006477204" lon="13.388020992278664">
<time>2011-04-09T18:31:34.000+02:00</time>
<speed>1.3888888</speed>
<course>28.0</course>
<ele>99.0</ele>
</trkpt>
<trkpt lat="52.37735152244416" lon="13.388042449950783">
<time>2011-04-09T18:31:35.000+02:00</time>
<speed>1.9444444</speed>
<course>25.0</course>
<ele>98.0</ele>
</trkpt>
<trkpt lat="52.37736225128022" lon="13.388063907622902">
<time>2011-04-09T18:31:36.000+02:00</time>
<speed>1.9444444</speed>
<course>24.0</course>
<ele>98.0</ele>
</trkpt>
<trkpt lat="52.37738370895234" lon="13.388085365295021">
<time>2011-04-09T18:31:37.000+02:00</time>
<speed>1.6666666</speed>
<course>24.0</course>
<ele>98.0</ele>
</trkpt>
<trkpt lat="52.377405166624456" lon="13.38810682296714">
<time>2011-04-09T18:31:38.000+02:00</time>
<speed>1.6666666</speed>
<course>25.0</course>
<ele>98.0</ele>
</trkpt>
<trkpt lat="52.377415895460516" lon="13.38812828063926">
<time>2011-04-09T18:31:39.000+02:00</time>
<speed>1.6666666</speed>
<course>27.0</course>
<ele>98.0</ele>
</trkpt>
<trkpt lat="52.377437353132635" lon="13.388149738311379">
<time>2011-04-09T18:31:40.000+02:00</time>
<speed>1.6666666</speed>
<course>28.0</course>
<ele>98.0</ele>
</trkpt>
<trkpt lat="52.377458810804754" lon="13.388171195983498">
<time>2011-04-09T18:31:41.000+02:00</time>
<speed>1.6666666</speed>
<course>29.0</course>
<ele>98.0</ele>
</trkpt>
<trkpt lat="52.37746953964081" lon="13.388192653655617">
<time>2011-04-09T18:31:42.000+02:00</time>
<speed>1.3888888</speed>
<course>30.0</course>
<ele>98.0</ele>
</trkpt>
<trkpt lat="52.37749099731293" lon="13.388214111327736">
<time>2011-04-09T18:31:43.000+02:00</time>
<speed>1.3888888</speed>
<course>28.0</course>
<ele>98.0</ele>
</trkpt>
<trkpt lat="52.37750172614899" lon="13.388235568999855">
<time>2011-04-09T18:31:44.000+02:00</time>
<speed>1.6666666</speed>
<course>25.0</course>
<ele>97.0</ele>
</trkpt>
<trkpt lat="52.37752318382111" lon="13.388257026671974">
<time>2011-04-09T18:31:45.000+02:00</time>
<speed>1.6666666</speed>
<course>25.0</course>
<ele>97.0</ele>
</trkpt>
<trkpt lat="52.37754464149323" lon="13.388278484344093">
<time>2011-04-09T18:31:46.000+02:00</time>
<speed>1.9444444</speed>
<course>26.0</course>
<ele>97.0</ele>
</trkpt>
<trkpt lat="52.37756609916535" lon="13.388299942016213">
<time>2011-04-09T18:31:47.000+02:00</time>
<speed>2.2222223</speed>
<course>27.0</course>
<ele>97.0</ele>
</trkpt>
<trkpt lat="52.37758755683747" lon="13.388321399688332">
<time>2011-04-09T18:31:48.000+02:00</time>
<speed>2.2222223</speed>
<course>27.0</course>
<ele>97.0</ele>
</trkpt>
<trkpt lat="52.37760901450959" lon="13.38834285736045">
<time>2011-04-09T18:31:49.000+02:00</time>
<speed>2.2222223</speed>
<course>28.0</course>
<ele>97.0</ele>
</trkpt>
<trkpt lat="52.37763047218171" lon="13.388385772704689">
<time>2011-04-09T18:31:50.000+02:00</time>
<speed>2.2222223</speed>
<course>27.0</course>
<ele>97.0</ele>
</trkpt>
<trkpt lat="52.377651929853826" lon="13.388407230376808">
<time>2011-04-09T18:31:51.000+02:00</time>
<speed>1.9444444</speed>
<course>23.0</course>
<ele>97.0</ele>
</trkpt>
<trkpt lat="52.377673387525945" lon="13.388407230376808">
<time>2011-04-09T18:31:52.000+02:00</time>
<speed>1.6666666</speed>
<course>21.0</course>
<ele>97.0</ele>
</trkpt>
<trkpt lat="52.377684116362005" lon="13.388428688048927">
<time>2011-04-09T18:31:53.000+02:00</time>
<speed>1.1111112</speed>
<course>19.0</course>
<ele>97.0</ele>
</trkpt>
<trkpt lat="52.377694845198064" lon="13.388450145721047">
<time>2011-04-09T18:31:54.000+02:00</time>
<speed>1.1111112</speed>
<course>18.0</course>
<ele>97.0</ele>
</trkpt>
<trkpt lat="52.377705574034124" lon="13.388450145721047">
<time>2011-04-09T18:31:55.000+02:00</time>
<speed>1.1111112</speed>
<course>16.0</course>
<ele>97.0</ele>
</trkpt>
<trkpt lat="52.37772703170624" lon="13.388450145721047">
<time>2011-04-09T18:31:56.000+02:00</time>
<speed>1.1111112</speed>
<course>17.0</course>
<ele>97.0</ele>
</trkpt>
<trkpt lat="52.3777377605423" lon="13.388471603393166">
<time>2011-04-09T18:31:57.000+02:00</time>
<speed>0.8333333</speed>
<course>14.0</course>
<ele>97.0</ele>
</trkpt>
<trkpt lat="52.3777377605423" lon="13.388471603393166">
<time>2011-04-09T18:31:58.000+02:00</time>
<speed>0.0</speed>
<course>14.0</course>
<ele>97.0</ele>
</trkpt>
<trkpt lat="52.37774848937836" lon="13.388471603393166">
<time>2011-04-09T18:31:59.000+02:00</time>
<speed>0.0</speed>
<course>14.0</course>
<ele>97.0</ele>
</trkpt>
<trkpt lat="52.37774848937836" lon="13.388471603393166">
<time>2011-04-09T18:32:00.000+02:00</time>
<speed>0.0</speed>
<course>14.0</course>
<ele>97.0</ele>
</trkpt>
<trkpt lat="52.37774848937836" lon="13.388471603393166">
<time>2011-04-09T18:32:01.000+02:00</time>
<speed>0.0</speed>
<course>14.0</course>
<ele>97.0</ele>
</trkpt>
<trkpt lat="52.37775921821442" lon="13.388471603393166">
<time>2011-04-09T18:32:02.000+02:00</time>
<speed>0.0</speed>
<course>14.0</course>
<ele>97.0</ele>
</trkpt>
<trkpt lat="52.37775921821442" lon="13.388493061065285">
<time>2011-04-09T18:32:03.000+02:00</time>
<speed>0.0</speed>
<course>14.0</course>
<ele>97.0</ele>
</trkpt>
<trkpt lat="52.37776994705048" lon="13.388493061065285">
<time>2011-04-09T18:32:04.000+02:00</time>
<speed>0.0</speed>
<course>14.0</course>
<ele>97.0</ele>
</trkpt>
<trkpt lat="52.37778067588654" lon="13.388493061065285">
<time>2011-04-09T18:32:05.000+02:00</time>
<speed>0.0</speed>
<course>14.0</course>
<ele>97.0</ele>
</trkpt>
<trkpt lat="52.3777914047226" lon="13.388493061065285">
<time>2011-04-09T18:32:06.000+02:00</time>
<speed>0.0</speed>
<course>14.0</course>
<ele>97.0</ele>
</trkpt>
<trkpt lat="52.3777914047226" lon="13.388514518737404">
<time>2011-04-09T18:32:07.000+02:00</time>
<speed>0.0</speed>
<course>14.0</course>
<ele>97.0</ele>
</trkpt>
<trkpt lat="52.37780213355866" lon="13.388514518737404">
<time>2011-04-09T18:32:08.000+02:00</time>
<speed>0.8333333</speed>
<course>16.0</course>
<ele>97.0</ele>
</trkpt>
<trkpt lat="52.37781286239472" lon="13.388514518737404">
<time>2011-04-09T18:32:09.000+02:00</time>
<speed>1.1111112</speed>
<course>14.0</course>
<ele>97.0</ele>
</trkpt>
<trkpt lat="52.37783432006684" lon="13.388514518737404">
<time>2011-04-09T18:32:10.000+02:00</time>
<speed>1.1111112</speed>
<course>17.0</course>
<ele>97.0</ele>
</trkpt>
<trkpt lat="52.3778450489029" lon="13.388535976409523">
<time>2011-04-09T18:32:11.000+02:00</time>
<speed>1.1111112</speed>
<course>18.0</course>
<ele>97.0</ele>
</trkpt>
<trkpt lat="52.37785577773896" lon="13.388535976409523">
<time>2011-04-09T18:32:12.000+02:00</time>
<speed>1.6666666</speed>
<course>18.0</course>
<ele>97.0</ele>
</trkpt>
<trkpt lat="52.37787723541108" lon="13.388557434081642">
<time>2011-04-09T18:32:13.000+02:00</time>
<speed>1.9444444</speed>
<course>15.0</course>
<ele>97.0</ele>
</trkpt>
<trkpt lat="52.37788796424714" lon="13.388578891753761">
<time>2011-04-09T18:32:14.000+02:00</time>
<speed>2.2222223</speed>
<course>13.0</course>
<ele>97.0</ele>
</trkpt>
<trkpt lat="52.377909421919256" lon="13.38860034942588">
<time>2011-04-09T18:32:15.000+02:00</time>
<speed>2.5</speed>
<course>11.0</course>
<ele>97.0</ele>
</trkpt>
<trkpt lat="52.377941608427435" lon="13.388621807098">
<time>2011-04-09T18:32:16.000+02:00</time>
<speed>2.2222223</speed>
<course>7.0</course>
<ele>97.0</ele>
</trkpt>
<trkpt lat="52.377963066099554" lon="13.388643264770119">
<time>2011-04-09T18:32:17.000+02:00</time>
<speed>1.9444444</speed>
<course>5.0</course>
<ele>97.0</ele>
</trkpt>
<trkpt lat="52.37798452377167" lon="13.388643264770119">
<time>2011-04-09T18:32:18.000+02:00</time>
<speed>1.6666666</speed>
<course>1.0</course>
<ele>97.0</ele>
</trkpt>
<trkpt lat="52.37800598144379" lon="13.388664722442238">
<time>2011-04-09T18:32:19.000+02:00</time>
<speed>2.5</speed>
<course>1.0</course>
<ele>97.0</ele>
</trkpt>
<trkpt lat="52.37802743911591" lon="13.388686180114357">
<time>2011-04-09T18:32:20.000+02:00</time>
<speed>1.9444444</speed>
<course>0.0</course>
<ele>97.0</ele>
</trkpt>
<trkpt lat="52.37804889678803" lon="13.388686180114357">
<time>2011-04-09T18:32:21.000+02:00</time>
<speed>1.9444444</speed>
<course>0.0</course>
<ele>97.0</ele>
</trkpt>
<trkpt lat="52.37807035446015" lon="13.388686180114357">
<time>2011-04-09T18:32:22.000+02:00</time>
<speed>1.9444444</speed>
<course>1.0</course>
<ele>97.0</ele>
</trkpt>
<trkpt lat="52.37809181213227" lon="13.388707637786476">
<time>2011-04-09T18:32:23.000+02:00</time>
<speed>1.9444444</speed>
<course>2.0</course>
<ele>97.0</ele>
</trkpt>
<trkpt lat="52.37812399864045" lon="13.388707637786476">
<time>2011-04-09T18:32:25.000+02:00</time>
<speed>1.9444444</speed>
<course>0.0</course>
<ele>97.0</ele>
</trkpt>
<trkpt lat="52.378145456312566" lon="13.388729095458595">
<time>2011-04-09T18:32:26.000+02:00</time>
<speed>1.9444444</speed>
<course>357.0</course>
<ele>97.0</ele>
</trkpt>
<trkpt lat="52.378166913984685" lon="13.388729095458595">
<time>2011-04-09T18:32:27.000+02:00</time>
<speed>1.9444444</speed>
<course>357.0</course>
<ele>97.0</ele>
</trkpt>
<trkpt lat="52.378188371656805" lon="13.388729095458595">
<time>2011-04-09T18:32:28.000+02:00</time>
<speed>1.9444444</speed>
<course>355.0</course>
<ele>97.0</ele>
</trkpt>
<trkpt lat="52.378209829328924" lon="13.388707637786476">
<time>2011-04-09T18:32:29.000+02:00</time>
<speed>1.9444444</speed>
<course>351.0</course>
<ele>96.0</ele>
</trkpt>
<trkpt lat="52.37823128700104" lon="13.388707637786476">
<time>2011-04-09T18:32:30.000+02:00</time>
<speed>1.9444444</speed>
<course>351.0</course>
<ele>96.0</ele>
</trkpt>
<trkpt lat="52.37825274467316" lon="13.388707637786476">
<time>2011-04-09T18:32:31.000+02:00</time>
<speed>2.2222223</speed>
<course>349.0</course>
<ele>96.0</ele>
</trkpt>
<trkpt lat="52.37827420234528" lon="13.388686180114357">
<time>2011-04-09T18:32:32.000+02:00</time>
<speed>1.9444444</speed>
<course>351.0</course>
<ele>96.0</ele>
</trkpt>
<trkpt lat="52.3782956600174" lon="13.388686180114357">
<time>2011-04-09T18:32:33.000+02:00</time>
<speed>1.9444444</speed>
<course>351.0</course>
<ele>96.0</ele>
</trkpt>
<trkpt lat="52.37832784652558" lon="13.388686180114357">
<time>2011-04-09T18:32:34.000+02:00</time>
<speed>1.9444444</speed>
<course>352.0</course>
<ele>96.0</ele>
</trkpt>
<trkpt lat="52.3783493041977" lon="13.388664722442238">
<time>2011-04-09T18:32:35.000+02:00</time>
<speed>1.9444444</speed>
<course>350.0</course>
<ele>96.0</ele>
</trkpt>
<trkpt lat="52.37837076186982" lon="13.388664722442238">
<time>2011-04-09T18:32:36.000+02:00</time>
<speed>1.9444444</speed>
<course>350.0</course>
<ele>96.0</ele>
</trkpt>
<trkpt lat="52.378402948377996" lon="13.388664722442238">
<time>2011-04-09T18:32:37.000+02:00</time>
<speed>1.9444444</speed>
<course>348.0</course>
<ele>96.0</ele>
</trkpt>
<trkpt lat="52.378435134886175" lon="13.388664722442238">
<time>2011-04-09T18:32:38.000+02:00</time>
<speed>1.9444444</speed>
<course>347.0</course>
<ele>96.0</ele>
</trkpt>
<trkpt lat="52.378456592558294" lon="13.388643264770119">
<time>2011-04-09T18:32:39.000+02:00</time>
<speed>2.2222223</speed>
<course>349.0</course>
<ele>96.0</ele>
</trkpt>
<trkpt lat="52.37848877906647" lon="13.388643264770119">
<time>2011-04-09T18:32:40.000+02:00</time>
<speed>2.2222223</speed>
<course>350.0</course>
<ele>96.0</ele>
</trkpt>
<trkpt lat="52.37852096557465" lon="13.388643264770119">
<time>2011-04-09T18:32:41.000+02:00</time>
<speed>2.2222223</speed>
<course>351.0</course>
<ele>96.0</ele>
</trkpt>
<trkpt lat="52.37855315208283" lon="13.388643264770119">
<time>2011-04-09T18:32:42.000+02:00</time>
<speed>2.2222223</speed>
<course>354.0</course>
<ele>96.0</ele>
</trkpt>
<trkpt lat="52.37858533859101" lon="13.388643264770119">
<time>2011-04-09T18:32:43.000+02:00</time>
<speed>2.2222223</speed>
<course>356.0</course>
<ele>96.0</ele>
</trkpt>
<trkpt lat="52.37861752509919" lon="13.388643264770119">
<time>2011-04-09T18:32:44.000+02:00</time>
<speed>2.2222223</speed>
<course>357.0</course>
<ele>96.0</ele>
</trkpt>
<trkpt lat="52.378649711607366" lon="13.388664722442238">
<time>2011-04-09T18:32:45.000+02:00</time>
<speed>2.5</speed>
<course>357.0</course>
<ele>96.0</ele>
</trkpt>
<trkpt lat="52.378681898115545" lon="13.388664722442238">
<time>2011-04-09T18:32:46.000+02:00</time>
<speed>2.5</speed>
<course>357.0</course>
<ele>96.0</ele>
</trkpt>
<trkpt lat="52.378714084623724" lon="13.388664722442238">
<time>2011-04-09T18:32:47.000+02:00</time>
<speed>2.5</speed>
<course>358.0</course>
<ele>96.0</ele>
</trkpt>
<trkpt lat="52.3787462711319" lon="13.388664722442238">
<time>2011-04-09T18:32:48.000+02:00</time>
<speed>2.7777777</speed>
<course>359.0</course>
<ele>96.0</ele>
</trkpt>
<trkpt lat="52.37876772880402" lon="13.388664722442238">
<time>2011-04-09T18:32:49.000+02:00</time>
<speed>2.7777777</speed>
<course>359.0</course>
<ele>96.0</ele>
</trkpt>
<trkpt lat="52.3787999153122" lon="13.388664722442238">
<time>2011-04-09T18:32:50.000+02:00</time>
<speed>2.7777777</speed>
<course>358.0</course>
<ele>96.0</ele>
</trkpt>
<trkpt lat="52.37883210182038" lon="13.388664722442238">
<time>2011-04-09T18:32:51.000+02:00</time>
<speed>2.5</speed>
<course>354.0</course>
<ele>96.0</ele>
</trkpt>
<trkpt lat="52.37886428832856" lon="13.388664722442238">
<time>2011-04-09T18:32:52.000+02:00</time>
<speed>2.5</speed>
<course>351.0</course>
<ele>96.0</ele>
</trkpt>
<trkpt lat="52.378896474836736" lon="13.388664722442238">
<time>2011-04-09T18:32:53.000+02:00</time>
<speed>2.5</speed>
<course>352.0</course>
<ele>95.0</ele>
</trkpt>
<trkpt lat="52.378928661344915" lon="13.388664722442238">
<time>2011-04-09T18:32:54.000+02:00</time>
<speed>2.5</speed>
<course>355.0</course>
<ele>95.0</ele>
</trkpt>
<trkpt lat="52.378960847853094" lon="13.388664722442238">
<time>2011-04-09T18:32:55.000+02:00</time>
<speed>1.9444444</speed>
<course>354.0</course>
<ele>95.0</ele>
</trkpt>
<trkpt lat="52.37899303436127" lon="13.388664722442238">
<time>2011-04-09T18:32:56.000+02:00</time>
<speed>1.3888888</speed>
<course>352.0</course>
<ele>95.0</ele>
</trkpt>
<trkpt lat="52.37902522086945" lon="13.388664722442238">
<time>2011-04-09T18:32:57.000+02:00</time>
<speed>1.3888888</speed>
<course>349.0</course>
<ele>95.0</ele>
</trkpt>
<trkpt lat="52.37905740737763" lon="13.388664722442238">
<time>2011-04-09T18:32:58.000+02:00</time>
<speed>1.1111112</speed>
<course>348.0</course>
<ele>94.0</ele>
</trkpt>
<trkpt lat="52.37908959388581" lon="13.388664722442238">
<time>2011-04-09T18:32:59.000+02:00</time>
<speed>1.3888888</speed>
<course>345.0</course>
<ele>94.0</ele>
</trkpt>
<trkpt lat="52.37911105155793" lon="13.388664722442238">
<time>2011-04-09T18:33:00.000+02:00</time>
<speed>1.3888888</speed>
<course>344.0</course>
<ele>94.0</ele>
</trkpt>
<trkpt lat="52.379143238066106" lon="13.388664722442238">
<time>2011-04-09T18:33:01.000+02:00</time>
<speed>1.3888888</speed>
<course>346.0</course>
<ele>94.0</ele>
</trkpt>
<trkpt lat="52.379175424574285" lon="13.388664722442238">
<time>2011-04-09T18:33:02.000+02:00</time>
<speed>1.6666666</speed>
<course>344.0</course>
<ele>94.0</ele>
</trkpt>
<trkpt lat="52.379207611082464" lon="13.388664722442238">
<time>2011-04-09T18:33:03.000+02:00</time>
<speed>1.6666666</speed>
<course>345.0</course>
<ele>93.0</ele>
</trkpt>
<trkpt lat="52.37923979759064" lon="13.388664722442238">
<time>2011-04-09T18:33:04.000+02:00</time>
<speed>1.6666666</speed>
<course>346.0</course>
<ele>93.0</ele>
</trkpt>
<trkpt lat="52.37927198409882" lon="13.388664722442238">
<time>2011-04-09T18:33:05.000+02:00</time>
<speed>1.6666666</speed>
<course>348.0</course>
<ele>93.0</ele>
</trkpt>
<trkpt lat="52.37929344177094" lon="13.388643264770119">
<time>2011-04-09T18:33:06.000+02:00</time>
<speed>1.6666666</speed>
<course>346.0</course>
<ele>93.0</ele>
</trkpt>
<trkpt lat="52.37932562827912" lon="13.388643264770119">
<time>2011-04-09T18:33:07.000+02:00</time>
<speed>1.6666666</speed>
<course>346.0</course>
<ele>93.0</ele>
</trkpt>
<trkpt lat="52.3793578147873" lon="13.388643264770119">
<time>2011-04-09T18:33:08.000+02:00</time>
<speed>1.6666666</speed>
<course>346.0</course>
<ele>92.0</ele>
</trkpt>
<trkpt lat="52.37939000129548" lon="13.388643264770119">
<time>2011-04-09T18:33:09.000+02:00</time>
<speed>1.6666666</speed>
<course>348.0</course>
<ele>92.0</ele>
</trkpt>
<trkpt lat="52.379411458967596" lon="13.388643264770119">
<time>2011-04-09T18:33:10.000+02:00</time>
<speed>1.6666666</speed>
<course>348.0</course>
<ele>92.0</ele>
</trkpt>
<trkpt lat="52.379432916639715" lon="13.388643264770119">
<time>2011-04-09T18:33:11.000+02:00</time>
<speed>1.6666666</speed>
<course>345.0</course>
<ele>92.0</ele>
</trkpt>
<trkpt lat="52.379454374311834" lon="13.388621807098">
<time>2011-04-09T18:33:12.000+02:00</time>
<speed>1.6666666</speed>
<course>348.0</course>
<ele>92.0</ele>
</trkpt>
<trkpt lat="52.37947583198395" lon="13.388621807098">
<time>2011-04-09T18:33:13.000+02:00</time>
<speed>1.6666666</speed>
<course>347.0</course>
<ele>91.0</ele>
</trkpt>
<trkpt lat="52.37949728965607" lon="13.388621807098">
<time>2011-04-09T18:33:14.000+02:00</time>
<speed>1.6666666</speed>
<course>345.0</course>
<ele>91.0</ele>
</trkpt>
<trkpt lat="52.37951874732819" lon="13.388621807098">
<time>2011-04-09T18:33:15.000+02:00</time>
<speed>1.6666666</speed>
<course>348.0</course>
<ele>91.0</ele>
</trkpt>
<trkpt lat="52.37954020500031" lon="13.388621807098">
<time>2011-04-09T18:33:16.000+02:00</time>
<speed>1.6666666</speed>
<course>354.0</course>
<ele>91.0</ele>
</trkpt>
<trkpt lat="52.37956166267243" lon="13.388621807098">
<time>2011-04-09T18:33:17.000+02:00</time>
<speed>2.2222223</speed>
<course>358.0</course>
<ele>91.0</ele>
</trkpt>
<trkpt lat="52.37959384918061" lon="13.388621807098">
<time>2011-04-09T18:33:18.000+02:00</time>
<speed>2.7777777</speed>
<course>359.0</course>
<ele>91.0</ele>
</trkpt>
<trkpt lat="52.37962603568879" lon="13.388621807098">
<time>2011-04-09T18:33:19.000+02:00</time>
<speed>2.5</speed>
<course>359.0</course>
<ele>91.0</ele>
</trkpt>
<trkpt lat="52.379658222196966" lon="13.388621807098">
<time>2011-04-09T18:33:20.000+02:00</time>
<speed>2.5</speed>
<course>356.0</course>
<ele>90.0</ele>
</trkpt>
<trkpt lat="52.379690408705144" lon="13.388621807098">
<time>2011-04-09T18:33:21.000+02:00</time>
<speed>2.5</speed>
<course>355.0</course>
<ele>90.0</ele>
</trkpt>
<trkpt lat="52.37972259521332" lon="13.388621807098">
<time>2011-04-09T18:33:22.000+02:00</time>
<speed>2.2222223</speed>
<course>352.0</course>
<ele>90.0</ele>
</trkpt>
<trkpt lat="52.3797547817215" lon="13.38860034942588">
<time>2011-04-09T18:33:23.000+02:00</time>
<speed>2.2222223</speed>
<course>352.0</course>
<ele>90.0</ele>
</trkpt>
<trkpt lat="52.37978696822968" lon="13.38860034942588">
<time>2011-04-09T18:33:24.000+02:00</time>
<speed>2.2222223</speed>
<course>353.0</course>
<ele>90.0</ele>
</trkpt>
<trkpt lat="52.37985134124604" lon="13.38860034942588">
<time>2011-04-09T18:33:26.000+02:00</time>
<speed>1.9444444</speed>
<course>348.0</course>
<ele>90.0</ele>
</trkpt>
<trkpt lat="52.37988352775422" lon="13.388578891753761">
<time>2011-04-09T18:33:27.000+02:00</time>
<speed>1.9444444</speed>
<course>347.0</course>
<ele>90.0</ele>
</trkpt>
<trkpt lat="52.379915714262395" lon="13.388578891753761">
<time>2011-04-09T18:33:28.000+02:00</time>
<speed>1.9444444</speed>
<course>347.0</course>
<ele>89.0</ele>
</trkpt>
<trkpt lat="52.379937171934515" lon="13.388578891753761">
<time>2011-04-09T18:33:29.000+02:00</time>
<speed>1.6666666</speed>
<course>347.0</course>
<ele>89.0</ele>
</trkpt>
<trkpt lat="52.37996935844269" lon="13.388578891753761">
<time>2011-04-09T18:33:30.000+02:00</time>
<speed>1.9444444</speed>
<course>350.0</course>
<ele>89.0</ele>
</trkpt>
<trkpt lat="52.37999081611481" lon="13.388578891753761">
<time>2011-04-09T18:33:31.000+02:00</time>
<speed>1.9444444</speed>
<course>352.0</course>
<ele>89.0</ele>
</trkpt>
<trkpt lat="52.38001227378693" lon="13.388557434081642">
<time>2011-04-09T18:33:32.000+02:00</time>
<speed>1.9444444</speed>
<course>353.0</course>
<ele>89.0</ele>
</trkpt>
<trkpt lat="52.38004446029511" lon="13.388557434081642">
<time>2011-04-09T18:33:33.000+02:00</time>
<speed>2.2222223</speed>
<course>354.0</course>
<ele>89.0</ele>
</trkpt>
<trkpt lat="52.38006591796723" lon="13.388557434081642">
<time>2011-04-09T18:33:34.000+02:00</time>
<speed>2.2222223</speed>
<course>356.0</course>
<ele>89.0</ele>
</trkpt>
<trkpt lat="52.38009810447541" lon="13.388578891753761">
<time>2011-04-09T18:33:35.000+02:00</time>
<speed>2.2222223</speed>
<course>356.0</course>
<ele>89.0</ele>
</trkpt>
<trkpt lat="52.38013029098359" lon="13.388578891753761">
<time>2011-04-09T18:33:36.000+02:00</time>
<speed>2.2222223</speed>
<course>359.0</course>
<ele>89.0</ele>
</trkpt>
<trkpt lat="52.380151748655706" lon="13.38860034942588">
<time>2011-04-09T18:33:37.000+02:00</time>
<speed>2.2222223</speed>
<course>1.0</course>
<ele>89.0</ele>
</trkpt>
<trkpt lat="52.380183935163885" lon="13.388621807098">
<time>2011-04-09T18:33:38.000+02:00</time>
<speed>2.2222223</speed>
<course>2.0</course>
<ele>88.0</ele>
</trkpt>
<trkpt lat="52.38021612167206" lon="13.388643264770119">
<time>2011-04-09T18:33:39.000+02:00</time>
<speed>2.2222223</speed>
<course>4.0</course>
<ele>88.0</ele>
</trkpt>
<trkpt lat="52.38024830818024" lon="13.388664722442238">
<time>2011-04-09T18:33:40.000+02:00</time>
<speed>1.9444444</speed>
<course>3.0</course>
<ele>88.0</ele>
</trkpt>
<trkpt lat="52.38026976585236" lon="13.388686180114357">
<time>2011-04-09T18:33:41.000+02:00</time>
<speed>1.9444444</speed>
<course>1.0</course>
<ele>88.0</ele>
</trkpt>
<trkpt lat="52.38030195236054" lon="13.388707637786476">
<time>2011-04-09T18:33:42.000+02:00</time>
<speed>1.6666666</speed>
<course>357.0</course>
<ele>88.0</ele>
</trkpt>
<trkpt lat="52.38032341003266" lon="13.388707637786476">
<time>2011-04-09T18:33:43.000+02:00</time>
<speed>1.6666666</speed>
<course>354.0</course>
<ele>88.0</ele>
</trkpt>
<trkpt lat="52.38034486770478" lon="13.388707637786476">
<time>2011-04-09T18:33:44.000+02:00</time>
<speed>1.6666666</speed>
<course>356.0</course>
<ele>88.0</ele>
</trkpt>
<trkpt lat="52.3803663253769" lon="13.388729095458595">
<time>2011-04-09T18:33:45.000+02:00</time>
<speed>1.6666666</speed>
<course>354.0</course>
<ele>88.0</ele>
</trkpt>
<trkpt lat="52.38038778304902" lon="13.388729095458595">
<time>2011-04-09T18:33:46.000+02:00</time>
<speed>1.6666666</speed>
<course>353.0</course>
<ele>87.0</ele>
</trkpt>
<trkpt lat="52.380409240721136" lon="13.388729095458595">
<time>2011-04-09T18:33:47.000+02:00</time>
<speed>1.6666666</speed>
<course>353.0</course>
<ele>87.0</ele>
</trkpt>
<trkpt lat="52.380430698393255" lon="13.388729095458595">
<time>2011-04-09T18:33:48.000+02:00</time>
<speed>1.6666666</speed>
<course>354.0</course>
<ele>87.0</ele>
</trkpt>
<trkpt lat="52.38046288490143" lon="13.388707637786476">
<time>2011-04-09T18:33:49.000+02:00</time>
<speed>1.6666666</speed>
<course>350.0</course>
<ele>87.0</ele>
</trkpt>
<trkpt lat="52.38048434257355" lon="13.388707637786476">
<time>2011-04-09T18:33:50.000+02:00</time>
<speed>1.3888888</speed>
<course>348.0</course>
<ele>87.0</ele>
</trkpt>
<trkpt lat="52.38050580024567" lon="13.388707637786476">
<time>2011-04-09T18:33:51.000+02:00</time>
<speed>1.6666666</speed>
<course>348.0</course>
<ele>87.0</ele>
</trkpt>
<trkpt lat="52.38052725791779" lon="13.388707637786476">
<time>2011-04-09T18:33:52.000+02:00</time>
<speed>1.6666666</speed>
<course>348.0</course>
<ele>87.0</ele>
</trkpt>
<trkpt lat="52.38054871558991" lon="13.388707637786476">
<time>2011-04-09T18:33:53.000+02:00</time>
<speed>1.6666666</speed>
<course>350.0</course>
<ele>87.0</ele>
</trkpt>
<trkpt lat="52.38057017326203" lon="13.388686180114357">
<time>2011-04-09T18:33:54.000+02:00</time>
<speed>1.6666666</speed>
<course>347.0</course>
<ele>87.0</ele>
</trkpt>
<trkpt lat="52.38059163093415" lon="13.388686180114357">
<time>2011-04-09T18:33:55.000+02:00</time>
<speed>1.6666666</speed>
<course>347.0</course>
<ele>87.0</ele>
</trkpt>
<trkpt lat="52.38061308860627" lon="13.388686180114357">
<time>2011-04-09T18:33:56.000+02:00</time>
<speed>1.3888888</speed>
<course>348.0</course>
<ele>87.0</ele>
</trkpt>
<trkpt lat="52.38063454627839" lon="13.388686180114357">
<time>2011-04-09T18:33:57.000+02:00</time>
<speed>1.3888888</speed>
<course>349.0</course>
<ele>87.0</ele>
</trkpt>
<trkpt lat="52.380656003950506" lon="13.388686180114357">
<time>2011-04-09T18:33:58.000+02:00</time>
<speed>1.1111112</speed>
<course>348.0</course>
<ele>87.0</ele>
</trkpt>
<trkpt lat="52.380677461622625" lon="13.388686180114357">
<time>2011-04-09T18:33:59.000+02:00</time>
<speed>1.3888888</speed>
<course>349.0</course>
<ele>87.0</ele>
</trkpt>
<trkpt lat="52.380709648130804" lon="13.388686180114357">
<time>2011-04-09T18:34:00.000+02:00</time>
<speed>1.6666666</speed>
<course>351.0</course>
<ele>87.0</ele>
</trkpt>
<trkpt lat="52.38073110580292" lon="13.388664722442238">
<time>2011-04-09T18:34:01.000+02:00</time>
<speed>1.9444444</speed>
<course>351.0</course>
<ele>87.0</ele>
</trkpt>
<trkpt lat="52.38075256347504" lon="13.388664722442238">
<time>2011-04-09T18:34:02.000+02:00</time>
<speed>1.9444444</speed>
<course>350.0</course>
<ele>87.0</ele>
</trkpt>
<trkpt lat="52.38077402114716" lon="13.388664722442238">
<time>2011-04-09T18:34:03.000+02:00</time>
<speed>1.6666666</speed>
<course>347.0</course>
<ele>87.0</ele>
</trkpt>
<trkpt lat="52.38079547881928" lon="13.388664722442238">
<time>2011-04-09T18:34:04.000+02:00</time>
<speed>1.3888888</speed>
<course>345.0</course>
<ele>87.0</ele>
</trkpt>
<trkpt lat="52.3808169364914" lon="13.388664722442238">
<time>2011-04-09T18:34:05.000+02:00</time>
<speed>1.1111112</speed>
<course>342.0</course>
<ele>86.0</ele>
</trkpt>
<trkpt lat="52.38083839416352" lon="13.388664722442238">
<time>2011-04-09T18:34:06.000+02:00</time>
<speed>1.1111112</speed>
<course>344.0</course>
<ele>86.0</ele>
</trkpt>
<trkpt lat="52.38085985183564" lon="13.388664722442238">
<time>2011-04-09T18:34:07.000+02:00</time>
<speed>1.6666666</speed>
<course>348.0</course>
<ele>86.0</ele>
</trkpt>
<trkpt lat="52.38088130950776" lon="13.388664722442238">
<time>2011-04-09T18:34:08.000+02:00</time>
<speed>1.3888888</speed>
<course>345.0</course>
<ele>86.0</ele>
</trkpt>
<trkpt lat="52.380902767179876" lon="13.388664722442238">
<time>2011-04-09T18:34:09.000+02:00</time>
<speed>1.6666666</speed>
<course>347.0</course>
<ele>86.0</ele>
</trkpt>
<trkpt lat="52.380934953688055" lon="13.388664722442238">
<time>2011-04-09T18:34:10.000+02:00</time>
<speed>1.9444444</speed>
<course>349.0</course>
<ele>86.0</ele>
</trkpt>
<trkpt lat="52.380956411360174" lon="13.388664722442238">
<time>2011-04-09T18:34:11.000+02:00</time>
<speed>1.9444444</speed>
<course>351.0</course>
<ele>86.0</ele>
</trkpt>
<trkpt lat="52.38097786903229" lon="13.388664722442238">
<time>2011-04-09T18:34:12.000+02:00</time>
<speed>1.6666666</speed>
<course>351.0</course>
<ele>86.0</ele>
</trkpt>
<trkpt lat="52.38101005554047" lon="13.388664722442238">
<time>2011-04-09T18:34:13.000+02:00</time>
<speed>1.6666666</speed>
<course>350.0</course>
<ele>86.0</ele>
</trkpt>
<trkpt lat="52.38103151321259" lon="13.388664722442238">
<time>2011-04-09T18:34:14.000+02:00</time>
<speed>1.6666666</speed>
<course>353.0</course>
<ele>86.0</ele>
</trkpt>
<trkpt lat="52.38106369972077" lon="13.388664722442238">
<time>2011-04-09T18:34:15.000+02:00</time>
<speed>1.6666666</speed>
<course>357.0</course>
<ele>86.0</ele>
</trkpt>
<trkpt lat="52.38109588622895" lon="13.388664722442238">
<time>2011-04-09T18:34:16.000+02:00</time>
<speed>1.6666666</speed>
<course>356.0</course>
<ele>86.0</ele>
</trkpt>
<trkpt lat="52.38111734390107" lon="13.388664722442238">
<time>2011-04-09T18:34:17.000+02:00</time>
<speed>1.9444444</speed>
<course>358.0</course>
<ele>86.0</ele>
</trkpt>
<trkpt lat="52.381149530409246" lon="13.388664722442238">
<time>2011-04-09T18:34:18.000+02:00</time>
<speed>1.6666666</speed>
<course>357.0</course>
<ele>86.0</ele>
</trkpt>
<trkpt lat="52.381181716917425" lon="13.388664722442238">
<time>2011-04-09T18:34:19.000+02:00</time>
<speed>1.6666666</speed>
<course>358.0</course>
<ele>86.0</ele>
</trkpt>
<trkpt lat="52.3812139034256" lon="13.388664722442238">
<time>2011-04-09T18:34:20.000+02:00</time>
<speed>1.6666666</speed>
<course>2.0</course>
<ele>86.0</ele>
</trkpt>
<trkpt lat="52.38124608993378" lon="13.388664722442238">
<time>2011-04-09T18:34:21.000+02:00</time>
<speed>1.6666666</speed>
<course>4.0</course>
<ele>86.0</ele>
</trkpt>
<trkpt lat="52.38127827644196" lon="13.388686180114357">
<time>2011-04-09T18:34:22.000+02:00</time>
<speed>1.6666666</speed>
<course>6.0</course>
<ele>86.0</ele>
</trkpt>
<trkpt lat="52.38133192062226" lon="13.388707637786476">
<time>2011-04-09T18:34:24.000+02:00</time>
<speed>1.6666666</speed>
<course>10.0</course>
<ele>86.0</ele>
</trkpt>
<trkpt lat="52.38136410713044" lon="13.388707637786476">
<time>2011-04-09T18:34:25.000+02:00</time>
<speed>1.6666666</speed>
<course>10.0</course>
<ele>87.0</ele>
</trkpt>
<trkpt lat="52.381396293638616" lon="13.388707637786476">
<time>2011-04-09T18:34:26.000+02:00</time>
<speed>1.6666666</speed>
<course>8.0</course>
<ele>87.0</ele>
</trkpt>
<trkpt lat="52.381439208982854" lon="13.388707637786476">
<time>2011-04-09T18:34:27.000+02:00</time>
<speed>1.6666666</speed>
<course>8.0</course>
<ele>87.0</ele>
</trkpt>
<trkpt lat="52.381460666654974" lon="13.388729095458595">
<time>2011-04-09T18:34:28.000+02:00</time>
<speed>1.6666666</speed>
<course>9.0</course>
<ele>87.0</ele>
</trkpt>
<trkpt lat="52.38149285316315" lon="13.388729095458595">
<time>2011-04-09T18:34:29.000+02:00</time>
<speed>1.6666666</speed>
<course>10.0</course>
<ele>87.0</ele>
</trkpt>
<trkpt lat="52.38151431083527" lon="13.388729095458595">
<time>2011-04-09T18:34:30.000+02:00</time>
<speed>1.6666666</speed>
<course>11.0</course>
<ele>87.0</ele>
</trkpt>
<trkpt lat="52.38153576850739" lon="13.388729095458595">
<time>2011-04-09T18:34:31.000+02:00</time>
<speed>1.6666666</speed>
<course>13.0</course>
<ele>87.0</ele>
</trkpt>
<trkpt lat="52.38155722617951" lon="13.388750553130714">
<time>2011-04-09T18:34:32.000+02:00</time>
<speed>1.6666666</speed>
<course>14.0</course>
<ele>87.0</ele>
</trkpt>
<trkpt lat="52.38157868385163" lon="13.388750553130714">
<time>2011-04-09T18:34:33.000+02:00</time>
<speed>1.6666666</speed>
<course>16.0</course>
<ele>88.0</ele>
</trkpt>
<trkpt lat="52.38160014152375" lon="13.388772010802834">
<time>2011-04-09T18:34:34.000+02:00</time>
<speed>1.6666666</speed>
<course>16.0</course>
<ele>88.0</ele>
</trkpt>
<trkpt lat="52.38162159919587" lon="13.388772010802834">
<time>2011-04-09T18:34:35.000+02:00</time>
<speed>1.6666666</speed>
<course>17.0</course>
<ele>88.0</ele>
</trkpt>
<trkpt lat="52.381643056867986" lon="13.388793468474953">
<time>2011-04-09T18:34:36.000+02:00</time>
<speed>1.6666666</speed>
<course>15.0</course>
<ele>88.0</ele>
</trkpt>
<trkpt lat="52.381664514540105" lon="13.388793468474953">
<time>2011-04-09T18:34:37.000+02:00</time>
<speed>1.6666666</speed>
<course>16.0</course>
<ele>88.0</ele>
</trkpt>
<trkpt lat="52.381675243376165" lon="13.388814926147072">
<time>2011-04-09T18:34:38.000+02:00</time>
<speed>1.6666666</speed>
<course>16.0</course>
<ele>88.0</ele>
</trkpt>
<trkpt lat="52.381696701048284" lon="13.388814926147072">
<time>2011-04-09T18:34:39.000+02:00</time>
<speed>1.6666666</speed>
<course>16.0</course>
<ele>88.0</ele>
</trkpt>
<trkpt lat="52.3817181587204" lon="13.388836383819191">
<time>2011-04-09T18:34:40.000+02:00</time>
<speed>1.6666666</speed>
<course>13.0</course>
<ele>88.0</ele>
</trkpt>
<trkpt lat="52.38173961639252" lon="13.388836383819191">
<time>2011-04-09T18:34:41.000+02:00</time>
<speed>1.6666666</speed>
<course>12.0</course>
<ele>88.0</ele>
</trkpt>
<trkpt lat="52.38176107406464" lon="13.38885784149131">
<time>2011-04-09T18:34:42.000+02:00</time>
<speed>1.6666666</speed>
<course>12.0</course>
<ele>88.0</ele>
</trkpt>
<trkpt lat="52.38178253173676" lon="13.38885784149131">
<time>2011-04-09T18:34:43.000+02:00</time>
<speed>1.6666666</speed>
<course>12.0</course>
<ele>88.0</ele>
</trkpt>
<trkpt lat="52.38179326057282" lon="13.38885784149131">
<time>2011-04-09T18:34:44.000+02:00</time>
<speed>1.6666666</speed>
<course>13.0</course>
<ele>88.0</ele>
</trkpt>
<trkpt lat="52.38181471824494" lon="13.38887929916343">
<time>2011-04-09T18:34:45.000+02:00</time>
<speed>1.6666666</speed>
<course>15.0</course>
<ele>88.0</ele>
</trkpt>
<trkpt lat="52.38183617591706" lon="13.388900756835548">
<time>2011-04-09T18:34:46.000+02:00</time>
<speed>1.6666666</speed>
<course>15.0</course>
<ele>89.0</ele>
</trkpt>
<trkpt lat="52.38185763358918" lon="13.388900756835548">
<time>2011-04-09T18:34:47.000+02:00</time>
<speed>1.6666666</speed>
<course>16.0</course>
<ele>89.0</ele>
</trkpt>
<trkpt lat="52.3818790912613" lon="13.388922214507668">
<time>2011-04-09T18:34:48.000+02:00</time>
<speed>1.3888888</speed>
<course>17.0</course>
<ele>89.0</ele>
</trkpt>
<trkpt lat="52.381900548933416" lon="13.388943672179787">
<time>2011-04-09T18:34:49.000+02:00</time>
<speed>1.1111112</speed>
<course>16.0</course>
<ele>89.0</ele>
</trkpt>
<trkpt lat="52.381911277769476" lon="13.388943672179787">
<time>2011-04-09T18:34:50.000+02:00</time>
<speed>1.1111112</speed>
<course>16.0</course>
<ele>89.0</ele>
</trkpt>
<trkpt lat="52.381932735441595" lon="13.388965129851906">
<time>2011-04-09T18:34:51.000+02:00</time>
<speed>0.0</speed>
<course>16.0</course>
<ele>89.0</ele>
</trkpt>
<trkpt lat="52.381943464277654" lon="13.388965129851906">
<time>2011-04-09T18:34:52.000+02:00</time>
<speed>0.0</speed>
<course>16.0</course>
<ele>89.0</ele>
</trkpt>
<trkpt lat="52.381943464277654" lon="13.388965129851906">
<time>2011-04-09T18:34:53.000+02:00</time>
<speed>0.0</speed>
<course>16.0</course>
<ele>89.0</ele>
</trkpt>
<trkpt lat="52.381954193113714" lon="13.388986587524025">
<time>2011-04-09T18:34:54.000+02:00</time>
<speed>0.0</speed>
<course>16.0</course>
<ele>89.0</ele>
</trkpt>
<trkpt lat="52.381954193113714" lon="13.388986587524025">
<time>2011-04-09T18:34:55.000+02:00</time>
<speed>0.0</speed>
<course>16.0</course>
<ele>89.0</ele>
</trkpt>
<trkpt lat="52.38196492194977" lon="13.388986587524025">
<time>2011-04-09T18:34:56.000+02:00</time>
<speed>0.0</speed>
<course>16.0</course>
<ele>90.0</ele>
</trkpt>
<trkpt lat="52.38196492194977" lon="13.388986587524025">
<time>2011-04-09T18:34:57.000+02:00</time>
<speed>0.0</speed>
<course>16.0</course>
<ele>90.0</ele>
</trkpt>
<trkpt lat="52.38196492194977" lon="13.389008045196144">
<time>2011-04-09T18:34:58.000+02:00</time>
<speed>0.0</speed>
<course>16.0</course>
<ele>90.0</ele>
</trkpt>
<trkpt lat="52.38197565078583" lon="13.389008045196144">
<time>2011-04-09T18:34:59.000+02:00</time>
<speed>0.0</speed>
<course>16.0</course>
<ele>90.0</ele>
</trkpt>
<trkpt lat="52.38197565078583" lon="13.389008045196144">
<time>2011-04-09T18:35:00.000+02:00</time>
<speed>0.0</speed>
<course>16.0</course>
<ele>90.0</ele>
</trkpt>
<trkpt lat="52.38197565078583" lon="13.389008045196144">
<time>2011-04-09T18:35:01.000+02:00</time>
<speed>0.0</speed>
<course>16.0</course>
<ele>90.0</ele>
</trkpt>
<trkpt lat="52.38198637962189" lon="13.389029502868263">
<time>2011-04-09T18:35:02.000+02:00</time>
<speed>0.0</speed>
<course>16.0</course>
<ele>90.0</ele>
</trkpt>
<trkpt lat="52.38199710845795" lon="13.389029502868263">
<time>2011-04-09T18:35:03.000+02:00</time>
<speed>0.0</speed>
<course>16.0</course>
<ele>90.0</ele>
</trkpt>
<trkpt lat="52.38199710845795" lon="13.389029502868263">
<time>2011-04-09T18:35:04.000+02:00</time>
<speed>0.0</speed>
<course>16.0</course>
<ele>90.0</ele>
</trkpt>
<trkpt lat="52.38200783729401" lon="13.389050960540382">
<time>2011-04-09T18:35:05.000+02:00</time>
<speed>0.0</speed>
<course>16.0</course>
<ele>90.0</ele>
</trkpt>
<trkpt lat="52.38201856613007" lon="13.389050960540382">
<time>2011-04-09T18:35:06.000+02:00</time>
<speed>0.0</speed>
<course>16.0</course>
<ele>90.0</ele>
</trkpt>
<trkpt lat="52.38202929496613" lon="13.389050960540382">
<time>2011-04-09T18:35:07.000+02:00</time>
<speed>0.0</speed>
<course>16.0</course>
<ele>91.0</ele>
</trkpt>
<trkpt lat="52.38202929496613" lon="13.389072418212502">
<time>2011-04-09T18:35:08.000+02:00</time>
<speed>0.0</speed>
<course>16.0</course>
<ele>91.0</ele>
</trkpt>
<trkpt lat="52.38204002380219" lon="13.389072418212502">
<time>2011-04-09T18:35:09.000+02:00</time>
<speed>0.0</speed>
<course>16.0</course>
<ele>91.0</ele>
</trkpt>
<trkpt lat="52.38205075263825" lon="13.389072418212502">
<time>2011-04-09T18:35:10.000+02:00</time>
<speed>0.0</speed>
<course>16.0</course>
<ele>91.0</ele>
</trkpt>
<trkpt lat="52.38207221031037" lon="13.38909387588462">
<time>2011-04-09T18:35:11.000+02:00</time>
<speed>0.0</speed>
<course>16.0</course>
<ele>91.0</ele>
</trkpt>
<trkpt lat="52.38208293914643" lon="13.38909387588462">
<time>2011-04-09T18:35:12.000+02:00</time>
<speed>0.0</speed>
<course>16.0</course>
<ele>91.0</ele>
</trkpt>
<trkpt lat="52.38210439681855" lon="13.38911533355674">
<time>2011-04-09T18:35:13.000+02:00</time>
<speed>1.3888888</speed>
<course>38.0</course>
<ele>91.0</ele>
</trkpt>
<trkpt lat="52.38213658332673" lon="13.389136791228859">
<time>2011-04-09T18:35:14.000+02:00</time>
<speed>1.6666666</speed>
<course>42.0</course>
<ele>92.0</ele>
</trkpt>
<trkpt lat="52.382158040998846" lon="13.389158248900978">
<time>2011-04-09T18:35:15.000+02:00</time>
<speed>1.9444444</speed>
<course>48.0</course>
<ele>92.0</ele>
</trkpt>
<trkpt lat="52.382179498670965" lon="13.389179706573097">
<time>2011-04-09T18:35:16.000+02:00</time>
<speed>2.2222223</speed>
<course>60.0</course>
<ele>92.0</ele>
</trkpt>
<trkpt lat="52.382190227507024" lon="13.389222621917336">
<time>2011-04-09T18:35:17.000+02:00</time>
<speed>2.2222223</speed>
<course>63.0</course>
<ele>92.0</ele>
</trkpt>
<trkpt lat="52.382200956343084" lon="13.389244079589455">
<time>2011-04-09T18:35:18.000+02:00</time>
<speed>2.2222223</speed>
<course>69.0</course>
<ele>93.0</ele>
</trkpt>
<trkpt lat="52.38221168517914" lon="13.389286994933693">
<time>2011-04-09T18:35:19.000+02:00</time>
<speed>2.2222223</speed>
<course>64.0</course>
<ele>93.0</ele>
</trkpt>
<trkpt lat="52.3822224140152" lon="13.389308452605812">
<time>2011-04-09T18:35:20.000+02:00</time>
<speed>2.2222223</speed>
<course>72.0</course>
<ele>93.0</ele>
</trkpt>
<trkpt lat="52.3822224140152" lon="13.38935136795005">
<time>2011-04-09T18:35:21.000+02:00</time>
<speed>2.2222223</speed>
<course>73.0</course>
<ele>93.0</ele>
</trkpt>
<trkpt lat="52.38223314285126" lon="13.389394283294289">
<time>2011-04-09T18:35:22.000+02:00</time>
<speed>2.2222223</speed>
<course>74.0</course>
<ele>93.0</ele>
</trkpt>
<trkpt lat="52.38223314285126" lon="13.389415740966408">
<time>2011-04-09T18:35:23.000+02:00</time>
<speed>2.2222223</speed>
<course>79.0</course>
<ele>94.0</ele>
</trkpt>
<trkpt lat="52.38223314285126" lon="13.389458656310646">
<time>2011-04-09T18:35:24.000+02:00</time>
<speed>2.2222223</speed>
<course>78.0</course>
<ele>94.0</ele>
</trkpt>
<trkpt lat="52.38224387168732" lon="13.389501571654884">
<time>2011-04-09T18:35:25.000+02:00</time>
<speed>2.2222223</speed>
<course>76.0</course>
<ele>94.0</ele>
</trkpt>
<trkpt lat="52.38224387168732" lon="13.389523029327004">
<time>2011-04-09T18:35:26.000+02:00</time>
<speed>2.2222223</speed>
<course>81.0</course>
<ele>94.0</ele>
</trkpt>
<trkpt lat="52.38224387168732" lon="13.38960886001548">
<time>2011-04-09T18:35:28.000+02:00</time>
<speed>2.5</speed>
<course>89.0</course>
<ele>95.0</ele>
</trkpt>
<trkpt lat="52.38223314285126" lon="13.389651775359718">
<time>2011-04-09T18:35:29.000+02:00</time>
<speed>2.5</speed>
<course>90.0</course>
<ele>95.0</ele>
</trkpt>
<trkpt lat="52.38223314285126" lon="13.389694690703957">
<time>2011-04-09T18:35:30.000+02:00</time>
<speed>2.7777777</speed>
<course>92.0</course>
<ele>95.0</ele>
</trkpt>
<trkpt lat="52.3822224140152" lon="13.389759063720314">
<time>2011-04-09T18:35:31.000+02:00</time>
<speed>2.7777777</speed>
<course>92.0</course>
<ele>95.0</ele>
</trkpt>
<trkpt lat="52.382200956343084" lon="13.389823436736672">
<time>2011-04-09T18:35:32.000+02:00</time>
<speed>2.7777777</speed>
<course>89.0</course>
<ele>95.0</ele>
</trkpt>
<trkpt lat="52.382190227507024" lon="13.389887809753029">
<time>2011-04-09T18:35:33.000+02:00</time>
<speed>2.5</speed>
<course>88.0</course>
<ele>95.0</ele>
</trkpt>
<trkpt lat="52.382179498670965" lon="13.389930725097267">
<time>2011-04-09T18:35:34.000+02:00</time>
<speed>2.2222223</speed>
<course>84.0</course>
<ele>95.0</ele>
</trkpt>
<trkpt lat="52.382179498670965" lon="13.389973640441506">
<time>2011-04-09T18:35:35.000+02:00</time>
<speed>2.2222223</speed>
<course>85.0</course>
<ele>95.0</ele>
</trkpt>
<trkpt lat="52.382168769834905" lon="13.390038013457863">
<time>2011-04-09T18:35:36.000+02:00</time>
<speed>2.2222223</speed>
<course>86.0</course>
<ele>95.0</ele>
</trkpt>
<trkpt lat="52.382168769834905" lon="13.390080928802101">
<time>2011-04-09T18:35:37.000+02:00</time>
<speed>1.9444444</speed>
<course>86.0</course>
<ele>95.0</ele>
</trkpt>
<trkpt lat="52.382158040998846" lon="13.39010238647422">
<time>2011-04-09T18:35:38.000+02:00</time>
<speed>1.9444444</speed>
<course>88.0</course>
<ele>95.0</ele>
</trkpt>
<trkpt lat="52.382158040998846" lon="13.390145301818459">
<time>2011-04-09T18:35:39.000+02:00</time>
<speed>1.6666666</speed>
<course>84.0</course>
<ele>95.0</ele>
</trkpt>
<trkpt lat="52.382158040998846" lon="13.390166759490578">
<time>2011-04-09T18:35:40.000+02:00</time>
<speed>1.3888888</speed>
<course>85.0</course>
<ele>95.0</ele>
</trkpt>
<trkpt lat="52.382158040998846" lon="13.390209674834816">
<time>2011-04-09T18:35:41.000+02:00</time>
<speed>1.3888888</speed>
<course>85.0</course>
<ele>95.0</ele>
</trkpt>
<trkpt lat="52.382158040998846" lon="13.390231132506935">
<time>2011-04-09T18:35:42.000+02:00</time>
<speed>1.1111112</speed>
<course>82.0</course>
<ele>95.0</ele>
</trkpt>
<trkpt lat="52.382158040998846" lon="13.390252590179054">
<time>2011-04-09T18:35:43.000+02:00</time>
<speed>0.8333333</speed>
<course>85.0</course>
<ele>95.0</ele>
</trkpt>
<trkpt lat="52.382158040998846" lon="13.390252590179054">
<time>2011-04-09T18:35:44.000+02:00</time>
<speed>0.8333333</speed>
<course>90.0</course>
<ele>95.0</ele>
</trkpt>
<trkpt lat="52.382158040998846" lon="13.390274047851173">
<time>2011-04-09T18:35:45.000+02:00</time>
<speed>0.8333333</speed>
<course>95.0</course>
<ele>95.0</ele>
</trkpt>
<trkpt lat="52.382158040998846" lon="13.390295505523293">
<time>2011-04-09T18:35:46.000+02:00</time>
<speed>0.8333333</speed>
<course>92.0</course>
<ele>95.0</ele>
</trkpt>
<trkpt lat="52.382147312162786" lon="13.390316963195412">
<time>2011-04-09T18:35:47.000+02:00</time>
<speed>0.8333333</speed>
<course>90.0</course>
<ele>95.0</ele>
</trkpt>
<trkpt lat="52.382147312162786" lon="13.390316963195412">
<time>2011-04-09T18:35:48.000+02:00</time>
<speed>1.1111112</speed>
<course>92.0</course>
<ele>95.0</ele>
</trkpt>
<trkpt lat="52.382147312162786" lon="13.390338420867531">
<time>2011-04-09T18:35:49.000+02:00</time>
<speed>1.3888888</speed>
<course>95.0</course>
<ele>94.0</ele>
</trkpt>
<trkpt lat="52.38213658332673" lon="13.39035987853965">
<time>2011-04-09T18:35:50.000+02:00</time>
<speed>1.3888888</speed>
<course>95.0</course>
<ele>94.0</ele>
</trkpt>
<trkpt lat="52.38213658332673" lon="13.39038133621177">
<time>2011-04-09T18:35:51.000+02:00</time>
<speed>2.2222223</speed>
<course>96.0</course>
<ele>94.0</ele>
</trkpt>
<trkpt lat="52.38212585449067" lon="13.390424251556007">
<time>2011-04-09T18:35:52.000+02:00</time>
<speed>2.5</speed>
<course>97.0</course>
<ele>94.0</ele>
</trkpt>
<trkpt lat="52.38212585449067" lon="13.390467166900246">
<time>2011-04-09T18:35:53.000+02:00</time>
<speed>2.5</speed>
<course>98.0</course>
<ele>94.0</ele>
</trkpt>
<trkpt lat="52.38211512565461" lon="13.390488624572365">
<time>2011-04-09T18:35:54.000+02:00</time>
<speed>2.5</speed>
<course>97.0</course>
<ele>94.0</ele>
</trkpt>
<trkpt lat="52.38211512565461" lon="13.390531539916603">
<time>2011-04-09T18:35:55.000+02:00</time>
<speed>2.2222223</speed>
<course>96.0</course>
<ele>94.0</ele>
</trkpt>
<trkpt lat="52.38210439681855" lon="13.390574455260841">
<time>2011-04-09T18:35:56.000+02:00</time>
<speed>2.2222223</speed>
<course>96.0</course>
<ele>94.0</ele>
</trkpt>
<trkpt lat="52.38209366798249" lon="13.39059591293296">
<time>2011-04-09T18:35:57.000+02:00</time>
<speed>1.9444444</speed>
<course>99.0</course>
<ele>93.0</ele>
</trkpt>
<trkpt lat="52.38209366798249" lon="13.390638828277199">
<time>2011-04-09T18:35:58.000+02:00</time>
<speed>1.9444444</speed>
<course>96.0</course>
<ele>93.0</ele>
</trkpt>
<trkpt lat="52.38208293914643" lon="13.390660285949318">
<time>2011-04-09T18:35:59.000+02:00</time>
<speed>1.9444444</speed>
<course>96.0</course>
<ele>93.0</ele>
</trkpt>
<trkpt lat="52.38207221031037" lon="13.390703201293556">
<time>2011-04-09T18:36:00.000+02:00</time>
<speed>1.9444444</speed>
<course>101.0</course>
<ele>93.0</ele>
</trkpt>
<trkpt lat="52.38206148147431" lon="13.390724658965675">
<time>2011-04-09T18:36:01.000+02:00</time>
<speed>1.9444444</speed>
<course>101.0</course>
<ele>93.0</ele>
</trkpt>
<trkpt lat="52.38206148147431" lon="13.390767574309914">
<time>2011-04-09T18:36:02.000+02:00</time>
<speed>1.9444444</speed>
<course>99.0</course>
<ele>92.0</ele>
</trkpt>
<trkpt lat="52.38205075263825" lon="13.390810489654152">
<time>2011-04-09T18:36:03.000+02:00</time>
<speed>1.9444444</speed>
<course>97.0</course>
<ele>92.0</ele>
</trkpt>
<trkpt lat="52.38204002380219" lon="13.390831947326271">
<time>2011-04-09T18:36:04.000+02:00</time>
<speed>1.9444444</speed>
<course>98.0</course>
<ele>92.0</ele>
</trkpt>
<trkpt lat="52.38204002380219" lon="13.39087486267051">
<time>2011-04-09T18:36:05.000+02:00</time>
<speed>1.9444444</speed>
<course>96.0</course>
<ele>91.0</ele>
</trkpt>
<trkpt lat="52.38202929496613" lon="13.390917778014748">
<time>2011-04-09T18:36:06.000+02:00</time>
<speed>2.5</speed>
<course>91.0</course>
<ele>91.0</ele>
</trkpt>
<trkpt lat="52.38202929496613" lon="13.390960693358986">
<time>2011-04-09T18:36:07.000+02:00</time>
<speed>2.5</speed>
<course>92.0</course>
<ele>91.0</ele>
</trkpt>
<trkpt lat="52.38202929496613" lon="13.391003608703224">
<time>2011-04-09T18:36:08.000+02:00</time>
<speed>2.5</speed>
<course>93.0</course>
<ele>91.0</ele>
</trkpt>
<trkpt lat="52.38202929496613" lon="13.391046524047463">
<time>2011-04-09T18:36:09.000+02:00</time>
<speed>2.5</speed>
<course>93.0</course>
<ele>91.0</ele>
</trkpt>
<trkpt lat="52.38204002380219" lon="13.3910894393917">
<time>2011-04-09T18:36:10.000+02:00</time>
<speed>2.2222223</speed>
<course>93.0</course>
<ele>90.0</ele>
</trkpt>
<trkpt lat="52.38204002380219" lon="13.391132354735939">
<time>2011-04-09T18:36:11.000+02:00</time>
<speed>2.2222223</speed>
<course>97.0</course>
<ele>90.0</ele>
</trkpt>
<trkpt lat="52.38204002380219" lon="13.391175270080177">
<time>2011-04-09T18:36:12.000+02:00</time>
<speed>2.2222223</speed>
<course>97.0</course>
<ele>90.0</ele>
</trkpt>
<trkpt lat="52.38204002380219" lon="13.391218185424416">
<time>2011-04-09T18:36:13.000+02:00</time>
<speed>1.9444444</speed>
<course>99.0</course>
<ele>90.0</ele>
</trkpt>
<trkpt lat="52.38204002380219" lon="13.391261100768654">
<time>2011-04-09T18:36:14.000+02:00</time>
<speed>1.9444444</speed>
<course>98.0</course>
<ele>90.0</ele>
</trkpt>
<trkpt lat="52.38204002380219" lon="13.391304016112892">
<time>2011-04-09T18:36:15.000+02:00</time>
<speed>1.6666666</speed>
<course>101.0</course>
<ele>89.0</ele>
</trkpt>
<trkpt lat="52.38204002380219" lon="13.39134693145713">
<time>2011-04-09T18:36:16.000+02:00</time>
<speed>1.6666666</speed>
<course>99.0</course>
<ele>89.0</ele>
</trkpt>
<trkpt lat="52.38204002380219" lon="13.391389846801369">
<time>2011-04-09T18:36:17.000+02:00</time>
<speed>1.6666666</speed>
<course>101.0</course>
<ele>89.0</ele>
</trkpt>
<trkpt lat="52.38202929496613" lon="13.391432762145607">
<time>2011-04-09T18:36:18.000+02:00</time>
<speed>1.6666666</speed>
<course>98.0</course>
<ele>89.0</ele>
</trkpt>
<trkpt lat="52.38202929496613" lon="13.391475677489845">
<time>2011-04-09T18:36:19.000+02:00</time>
<speed>1.3888888</speed>
<course>100.0</course>
<ele>89.0</ele>
</trkpt>
<trkpt lat="52.38202929496613" lon="13.391518592834084">
<time>2011-04-09T18:36:20.000+02:00</time>
<speed>1.3888888</speed>
<course>96.0</course>
<ele>89.0</ele>
</trkpt>
<trkpt lat="52.38202929496613" lon="13.391561508178322">
<time>2011-04-09T18:36:21.000+02:00</time>
<speed>1.3888888</speed>
<course>93.0</course>
<ele>88.0</ele>
</trkpt>
<trkpt lat="52.38202929496613" lon="13.39160442352256">
<time>2011-04-09T18:36:22.000+02:00</time>
<speed>1.3888888</speed>
<course>91.0</course>
<ele>88.0</ele>
</trkpt>
<trkpt lat="52.38204002380219" lon="13.39162588119468">
<time>2011-04-09T18:36:23.000+02:00</time>
<speed>1.3888888</speed>
<course>93.0</course>
<ele>88.0</ele>
</trkpt>
<trkpt lat="52.38204002380219" lon="13.391668796538918">
<time>2011-04-09T18:36:24.000+02:00</time>
<speed>1.3888888</speed>
<course>96.0</course>
<ele>88.0</ele>
</trkpt>
<trkpt lat="52.38204002380219" lon="13.391690254211037">
<time>2011-04-09T18:36:25.000+02:00</time>
<speed>1.3888888</speed>
<course>96.0</course>
<ele>88.0</ele>
</trkpt>
<trkpt lat="52.38205075263825" lon="13.391754627227394">
<time>2011-04-09T18:36:27.000+02:00</time>
<speed>1.3888888</speed>
<course>89.0</course>
<ele>88.0</ele>
</trkpt>
<trkpt lat="52.38206148147431" lon="13.391776084899513">
<time>2011-04-09T18:36:28.000+02:00</time>
<speed>1.3888888</speed>
<course>89.0</course>
<ele>88.0</ele>
</trkpt>
<trkpt lat="52.38206148147431" lon="13.391797542571632">
<time>2011-04-09T18:36:29.000+02:00</time>
<speed>1.3888888</speed>
<course>90.0</course>
<ele>88.0</ele>
</trkpt>
<trkpt lat="52.38206148147431" lon="13.391819000243752">
<time>2011-04-09T18:36:30.000+02:00</time>
<speed>1.3888888</speed>
<course>91.0</course>
<ele>88.0</ele>
</trkpt>
<trkpt lat="52.38207221031037" lon="13.39186191558799">
<time>2011-04-09T18:36:31.000+02:00</time>
<speed>1.3888888</speed>
<course>91.0</course>
<ele>87.0</ele>
</trkpt>
<trkpt lat="52.38207221031037" lon="13.391883373260109">
<time>2011-04-09T18:36:32.000+02:00</time>
<speed>1.3888888</speed>
<course>88.0</course>
<ele>87.0</ele>
</trkpt>
<trkpt lat="52.38207221031037" lon="13.391904830932228">
<time>2011-04-09T18:36:33.000+02:00</time>
<speed>1.3888888</speed>
<course>85.0</course>
<ele>87.0</ele>
</trkpt>
<trkpt lat="52.38208293914643" lon="13.391926288604347">
<time>2011-04-09T18:36:34.000+02:00</time>
<speed>1.3888888</speed>
<course>90.0</course>
<ele>87.0</ele>
</trkpt>
<trkpt lat="52.38208293914643" lon="13.391947746276466">
<time>2011-04-09T18:36:35.000+02:00</time>
<speed>1.3888888</speed>
<course>90.0</course>
<ele>87.0</ele>
</trkpt>
<trkpt lat="52.38209366798249" lon="13.391969203948586">
<time>2011-04-09T18:36:36.000+02:00</time>
<speed>1.3888888</speed>
<course>88.0</course>
<ele>87.0</ele>
</trkpt>
<trkpt lat="52.38209366798249" lon="13.392012119292824">
<time>2011-04-09T18:36:37.000+02:00</time>
<speed>1.3888888</speed>
<course>88.0</course>
<ele>87.0</ele>
</trkpt>
<trkpt lat="52.38209366798249" lon="13.392033576964943">
<time>2011-04-09T18:36:38.000+02:00</time>
<speed>1.3888888</speed>
<course>90.0</course>
<ele>87.0</ele>
</trkpt>
<trkpt lat="52.38209366798249" lon="13.392055034637062">
<time>2011-04-09T18:36:39.000+02:00</time>
<speed>1.3888888</speed>
<course>92.0</course>
<ele>87.0</ele>
</trkpt>
<trkpt lat="52.38209366798249" lon="13.3920979499813">
<time>2011-04-09T18:36:40.000+02:00</time>
<speed>3.0555556</speed>
<course>96.0</course>
<ele>87.0</ele>
</trkpt>
<trkpt lat="52.38209366798249" lon="13.392140865325539">
<time>2011-04-09T18:36:41.000+02:00</time>
<speed>3.0555556</speed>
<course>94.0</course>
<ele>87.0</ele>
</trkpt>
<trkpt lat="52.38209366798249" lon="13.392183780669777">
<time>2011-04-09T18:36:42.000+02:00</time>
<speed>3.0555556</speed>
<course>92.0</course>
<ele>86.0</ele>
</trkpt>
<trkpt lat="52.38209366798249" lon="13.392226696014015">
<time>2011-04-09T18:36:43.000+02:00</time>
<speed>3.0555556</speed>
<course>91.0</course>
<ele>86.0</ele>
</trkpt>
<trkpt lat="52.38209366798249" lon="13.392269611358254">
<time>2011-04-09T18:36:44.000+02:00</time>
<speed>2.7777777</speed>
<course>92.0</course>
<ele>86.0</ele>
</trkpt>
<trkpt lat="52.38209366798249" lon="13.392312526702492">
<time>2011-04-09T18:36:45.000+02:00</time>
<speed>2.7777777</speed>
<course>92.0</course>
<ele>86.0</ele>
</trkpt>
<trkpt lat="52.38209366798249" lon="13.39235544204673">
<time>2011-04-09T18:36:46.000+02:00</time>
<speed>2.5</speed>
<course>93.0</course>
<ele>86.0</ele>
</trkpt>
<trkpt lat="52.38209366798249" lon="13.392398357390968">
<time>2011-04-09T18:36:47.000+02:00</time>
<speed>2.2222223</speed>
<course>91.0</course>
<ele>86.0</ele>
</trkpt>
<trkpt lat="52.38210439681855" lon="13.392441272735207">
<time>2011-04-09T18:36:48.000+02:00</time>
<speed>2.2222223</speed>
<course>89.0</course>
<ele>86.0</ele>
</trkpt>
<trkpt lat="52.38210439681855" lon="13.392484188079445">
<time>2011-04-09T18:36:49.000+02:00</time>
<speed>2.2222223</speed>
<course>86.0</course>
<ele>86.0</ele>
</trkpt>
<trkpt lat="52.38210439681855" lon="13.392505645751564">
<time>2011-04-09T18:36:50.000+02:00</time>
<speed>2.2222223</speed>
<course>83.0</course>
<ele>85.0</ele>
</trkpt>
<trkpt lat="52.38210439681855" lon="13.392548561095802">
<time>2011-04-09T18:36:51.000+02:00</time>
<speed>2.2222223</speed>
<course>84.0</course>
<ele>85.0</ele>
</trkpt>
<trkpt lat="52.38211512565461" lon="13.39259147644004">
<time>2011-04-09T18:36:52.000+02:00</time>
<speed>2.2222223</speed>
<course>87.0</course>
<ele>85.0</ele>
</trkpt>
<trkpt lat="52.38211512565461" lon="13.392634391784279">
<time>2011-04-09T18:36:53.000+02:00</time>
<speed>2.2222223</speed>
<course>89.0</course>
<ele>85.0</ele>
</trkpt>
<trkpt lat="52.38211512565461" lon="13.392655849456398">
<time>2011-04-09T18:36:54.000+02:00</time>
<speed>2.2222223</speed>
<course>90.0</course>
<ele>85.0</ele>
</trkpt>
<trkpt lat="52.38210439681855" lon="13.392698764800636">
<time>2011-04-09T18:36:55.000+02:00</time>
<speed>2.2222223</speed>
<course>90.0</course>
<ele>85.0</ele>
</trkpt>
<trkpt lat="52.38210439681855" lon="13.392763137816994">
<time>2011-04-09T18:36:56.000+02:00</time>
<speed>2.2222223</speed>
<course>89.0</course>
<ele>85.0</ele>
</trkpt>
<trkpt lat="52.38210439681855" lon="13.392806053161232">
<time>2011-04-09T18:36:57.000+02:00</time>
<speed>2.2222223</speed>
<course>90.0</course>
<ele>85.0</ele>
</trkpt>
<trkpt lat="52.38210439681855" lon="13.39284896850547">
<time>2011-04-09T18:36:58.000+02:00</time>
<speed>2.2222223</speed>
<course>91.0</course>
<ele>85.0</ele>
</trkpt>
<trkpt lat="52.38210439681855" lon="13.392891883849709">
<time>2011-04-09T18:36:59.000+02:00</time>
<speed>2.2222223</speed>
<course>91.0</course>
<ele>85.0</ele>
</trkpt>
<trkpt lat="52.38210439681855" lon="13.392934799193947">
<time>2011-04-09T18:37:00.000+02:00</time>
<speed>1.9444444</speed>
<course>90.0</course>
<ele>85.0</ele>
</trkpt>
<trkpt lat="52.38211512565461" lon="13.392977714538185">
<time>2011-04-09T18:37:01.000+02:00</time>
<speed>1.9444444</speed>
<course>88.0</course>
<ele>85.0</ele>
</trkpt>
<trkpt lat="52.38211512565461" lon="13.393020629882423">
<time>2011-04-09T18:37:02.000+02:00</time>
<speed>1.9444444</speed>
<course>90.0</course>
<ele>85.0</ele>
</trkpt>
<trkpt lat="52.38212585449067" lon="13.393042087554543">
<time>2011-04-09T18:37:03.000+02:00</time>
<speed>1.9444444</speed>
<course>90.0</course>
<ele>85.0</ele>
</trkpt>
<trkpt lat="52.38212585449067" lon="13.393085002898781">
<time>2011-04-09T18:37:04.000+02:00</time>
<speed>1.9444444</speed>
<course>90.0</course>
<ele>85.0</ele>
</trkpt>
<trkpt lat="52.38212585449067" lon="13.39312791824302">
<time>2011-04-09T18:37:05.000+02:00</time>
<speed>1.6666666</speed>
<course>89.0</course>
<ele>85.0</ele>
</trkpt>
<trkpt lat="52.38213658332673" lon="13.393149375915138">
<time>2011-04-09T18:37:06.000+02:00</time>
<speed>1.3888888</speed>
<course>90.0</course>
<ele>85.0</ele>
</trkpt>
<trkpt lat="52.38213658332673" lon="13.393192291259377">
<time>2011-04-09T18:37:07.000+02:00</time>
<speed>1.1111112</speed>
<course>91.0</course>
<ele>85.0</ele>
</trkpt>
<trkpt lat="52.38213658332673" lon="13.393213748931496">
<time>2011-04-09T18:37:08.000+02:00</time>
<speed>1.1111112</speed>
<course>90.0</course>
<ele>85.0</ele>
</trkpt>
<trkpt lat="52.38213658332673" lon="13.393235206603615">
<time>2011-04-09T18:37:09.000+02:00</time>
<speed>1.1111112</speed>
<course>90.0</course>
<ele>85.0</ele>
</trkpt>
<trkpt lat="52.38213658332673" lon="13.393278121947853">
<time>2011-04-09T18:37:10.000+02:00</time>
<speed>1.1111112</speed>
<course>92.0</course>
<ele>85.0</ele>
</trkpt>
<trkpt lat="52.38213658332673" lon="13.393299579619972">
<time>2011-04-09T18:37:11.000+02:00</time>
<speed>1.1111112</speed>
<course>92.0</course>
<ele>85.0</ele>
</trkpt>
<trkpt lat="52.38213658332673" lon="13.393321037292091">
<time>2011-04-09T18:37:12.000+02:00</time>
<speed>1.1111112</speed>
<course>95.0</course>
<ele>85.0</ele>
</trkpt>
<trkpt lat="52.382147312162786" lon="13.39334249496421">
<time>2011-04-09T18:37:13.000+02:00</time>
<speed>1.1111112</speed>
<course>91.0</course>
<ele>85.0</ele>
</trkpt>
<trkpt lat="52.382147312162786" lon="13.39336395263633">
<time>2011-04-09T18:37:14.000+02:00</time>
<speed>1.1111112</speed>
<course>91.0</course>
<ele>85.0</ele>
</trkpt>
<trkpt lat="52.382147312162786" lon="13.393385410308449">
<time>2011-04-09T18:37:15.000+02:00</time>
<speed>1.3888888</speed>
<course>90.0</course>
<ele>85.0</ele>
</trkpt>
<trkpt lat="52.382147312162786" lon="13.393406867980568">
<time>2011-04-09T18:37:16.000+02:00</time>
<speed>1.3888888</speed>
<course>90.0</course>
<ele>85.0</ele>
</trkpt>
<trkpt lat="52.382147312162786" lon="13.393428325652687">
<time>2011-04-09T18:37:17.000+02:00</time>
<speed>1.3888888</speed>
<course>92.0</course>
<ele>85.0</ele>
</trkpt>
<trkpt lat="52.382147312162786" lon="13.393449783324806">
<time>2011-04-09T18:37:18.000+02:00</time>
<speed>1.3888888</speed>
<course>94.0</course>
<ele>85.0</ele>
</trkpt>
<trkpt lat="52.38213658332673" lon="13.393492698669045">
<time>2011-04-09T18:37:19.000+02:00</time>
<speed>1.3888888</speed>
<course>92.0</course>
<ele>85.0</ele>
</trkpt>
<trkpt lat="52.38213658332673" lon="13.393514156341164">
<time>2011-04-09T18:37:20.000+02:00</time>
<speed>1.3888888</speed>
<course>91.0</course>
<ele>85.0</ele>
</trkpt>
<trkpt lat="52.38213658332673" lon="13.393535614013283">
<time>2011-04-09T18:37:21.000+02:00</time>
<speed>1.1111112</speed>
<course>94.0</course>
<ele>84.0</ele>
</trkpt>
<trkpt lat="52.38213658332673" lon="13.393557071685402">
<time>2011-04-09T18:37:22.000+02:00</time>
<speed>1.3888888</speed>
<course>92.0</course>
<ele>84.0</ele>
</trkpt>
<trkpt lat="52.38213658332673" lon="13.393578529357521">
<time>2011-04-09T18:37:23.000+02:00</time>
<speed>1.3888888</speed>
<course>93.0</course>
<ele>84.0</ele>
</trkpt>
<trkpt lat="52.38213658332673" lon="13.39362144470176">
<time>2011-04-09T18:37:24.000+02:00</time>
<speed>1.6666666</speed>
<course>95.0</course>
<ele>84.0</ele>
</trkpt>
<trkpt lat="52.38213658332673" lon="13.393642902373879">
<time>2011-04-09T18:37:25.000+02:00</time>
<speed>1.6666666</speed>
<course>94.0</course>
<ele>84.0</ele>
</trkpt>
<trkpt lat="52.38213658332673" lon="13.393707275390236">
<time>2011-04-09T18:37:27.000+02:00</time>
<speed>1.9444444</speed>
<course>92.0</course>
<ele>84.0</ele>
</trkpt>
<trkpt lat="52.38212585449067" lon="13.393728733062355">
<time>2011-04-09T18:37:28.000+02:00</time>
<speed>2.5</speed>
<course>93.0</course>
<ele>83.0</ele>
</trkpt>
<trkpt lat="52.38212585449067" lon="13.393771648406593">
<time>2011-04-09T18:37:29.000+02:00</time>
<speed>2.5</speed>
<course>93.0</course>
<ele>83.0</ele>
</trkpt>
<trkpt lat="52.38212585449067" lon="13.393814563750832">
<time>2011-04-09T18:37:30.000+02:00</time>
<speed>2.2222223</speed>
<course>90.0</course>
<ele>83.0</ele>
</trkpt>
<trkpt lat="52.38212585449067" lon="13.39385747909507">
<time>2011-04-09T18:37:31.000+02:00</time>
<speed>2.5</speed>
<course>89.0</course>
<ele>83.0</ele>
</trkpt>
<trkpt lat="52.38213658332673" lon="13.393900394439308">
<time>2011-04-09T18:37:32.000+02:00</time>
<speed>2.5</speed>
<course>90.0</course>
<ele>83.0</ele>
</trkpt>
<trkpt lat="52.38213658332673" lon="13.393943309783547">
<time>2011-04-09T18:37:33.000+02:00</time>
<speed>2.5</speed>
<course>89.0</course>
<ele>83.0</ele>
</trkpt>
<trkpt lat="52.38213658332673" lon="13.393986225127785">
<time>2011-04-09T18:37:34.000+02:00</time>
<speed>2.5</speed>
<course>89.0</course>
<ele>83.0</ele>
</trkpt>
<trkpt lat="52.38213658332673" lon="13.394029140472023">
<time>2011-04-09T18:37:35.000+02:00</time>
<speed>2.2222223</speed>
<course>91.0</course>
<ele>82.0</ele>
</trkpt>
<trkpt lat="52.38213658332673" lon="13.394072055816261">
<time>2011-04-09T18:37:36.000+02:00</time>
<speed>2.2222223</speed>
<course>96.0</course>
<ele>82.0</ele>
</trkpt>
<trkpt lat="52.38213658332673" lon="13.3941149711605">
<time>2011-04-09T18:37:37.000+02:00</time>
<speed>2.2222223</speed>
<course>99.0</course>
<ele>82.0</ele>
</trkpt>
<trkpt lat="52.38212585449067" lon="13.394136428832619">
<time>2011-04-09T18:37:38.000+02:00</time>
<speed>2.2222223</speed>
<course>99.0</course>
<ele>82.0</ele>
</trkpt>
<trkpt lat="52.38212585449067" lon="13.394179344176857">
<time>2011-04-09T18:37:39.000+02:00</time>
<speed>1.9444444</speed>
<course>98.0</course>
<ele>82.0</ele>
</trkpt>
<trkpt lat="52.38212585449067" lon="13.394222259521095">
<time>2011-04-09T18:37:40.000+02:00</time>
<speed>1.6666666</speed>
<course>94.0</course>
<ele>82.0</ele>
</trkpt>
<trkpt lat="52.38211512565461" lon="13.394265174865334">
<time>2011-04-09T18:37:41.000+02:00</time>
<speed>1.6666666</speed>
<course>92.0</course>
<ele>82.0</ele>
</trkpt>
<trkpt lat="52.38211512565461" lon="13.394286632537453">
<time>2011-04-09T18:37:42.000+02:00</time>
<speed>1.6666666</speed>
<course>90.0</course>
<ele>82.0</ele>
</trkpt>
<trkpt lat="52.38211512565461" lon="13.394308090209572">
<time>2011-04-09T18:37:43.000+02:00</time>
<speed>1.6666666</speed>
<course>88.0</course>
<ele>81.0</ele>
</trkpt>
<trkpt lat="52.38211512565461" lon="13.39435100555381">
<time>2011-04-09T18:37:44.000+02:00</time>
<speed>1.6666666</speed>
<course>93.0</course>
<ele>81.0</ele>
</trkpt>
<trkpt lat="52.38211512565461" lon="13.39437246322593">
<time>2011-04-09T18:37:45.000+02:00</time>
<speed>1.6666666</speed>
<course>95.0</course>
<ele>81.0</ele>
</trkpt>
<trkpt lat="52.38211512565461" lon="13.394415378570168">
<time>2011-04-09T18:37:46.000+02:00</time>
<speed>1.6666666</speed>
<course>93.0</course>
<ele>81.0</ele>
</trkpt>
<trkpt lat="52.38211512565461" lon="13.394436836242287">
<time>2011-04-09T18:37:47.000+02:00</time>
<speed>1.6666666</speed>
<course>94.0</course>
<ele>81.0</ele>
</trkpt>
<trkpt lat="52.38211512565461" lon="13.394479751586525">
<time>2011-04-09T18:37:48.000+02:00</time>
<speed>1.6666666</speed>
<course>91.0</course>
<ele>81.0</ele>
</trkpt>
<trkpt lat="52.38211512565461" lon="13.394501209258644">
<time>2011-04-09T18:37:49.000+02:00</time>
<speed>1.6666666</speed>
<course>90.0</course>
<ele>81.0</ele>
</trkpt>
<trkpt lat="52.38211512565461" lon="13.394544124602882">
<time>2011-04-09T18:37:50.000+02:00</time>
<speed>1.6666666</speed>
<course>89.0</course>
<ele>81.0</ele>
</trkpt>
<trkpt lat="52.38211512565461" lon="13.39458703994712">
<time>2011-04-09T18:37:51.000+02:00</time>
<speed>1.9444444</speed>
<course>94.0</course>
<ele>81.0</ele>
</trkpt>
<trkpt lat="52.38210439681855" lon="13.39460849761924">
<time>2011-04-09T18:37:52.000+02:00</time>
<speed>1.9444444</speed>
<course>92.0</course>
<ele>81.0</ele>
</trkpt>
<trkpt lat="52.38210439681855" lon="13.394651412963478">
<time>2011-04-09T18:37:53.000+02:00</time>
<speed>1.9444444</speed>
<course>91.0</course>
<ele>81.0</ele>
</trkpt>
<trkpt lat="52.38210439681855" lon="13.394694328307716">
<time>2011-04-09T18:37:54.000+02:00</time>
<speed>1.9444444</speed>
<course>85.0</course>
<ele>81.0</ele>
</trkpt>
<trkpt lat="52.38210439681855" lon="13.394737243651955">
<time>2011-04-09T18:37:55.000+02:00</time>
<speed>1.9444444</speed>
<course>79.0</course>
<ele>81.0</ele>
</trkpt>
<trkpt lat="52.38211512565461" lon="13.394780158996193">
<time>2011-04-09T18:37:56.000+02:00</time>
<speed>1.9444444</speed>
<course>73.0</course>
<ele>81.0</ele>
</trkpt>
<trkpt lat="52.38212585449067" lon="13.394801616668312">
<time>2011-04-09T18:37:57.000+02:00</time>
<speed>1.3888888</speed>
<course>70.0</course>
<ele>81.0</ele>
</trkpt>
<trkpt lat="52.38212585449067" lon="13.39484453201255">
<time>2011-04-09T18:37:58.000+02:00</time>
<speed>1.3888888</speed>
<course>66.0</course>
<ele>81.0</ele>
</trkpt>
<trkpt lat="52.38213658332673" lon="13.39486598968467">
<time>2011-04-09T18:37:59.000+02:00</time>
<speed>0.0</speed>
<course>66.0</course>
<ele>81.0</ele>
</trkpt>
<trkpt lat="52.38213658332673" lon="13.394887447356789">
<time>2011-04-09T18:38:00.000+02:00</time>
<speed>0.0</speed>
<course>66.0</course>
<ele>81.0</ele>
</trkpt>
<trkpt lat="52.382147312162786" lon="13.394887447356789">
<time>2011-04-09T18:38:01.000+02:00</time>
<speed>0.0</speed>
<course>66.0</course>
<ele>81.0</ele>
</trkpt>
<trkpt lat="52.382147312162786" lon="13.394908905028908">
<time>2011-04-09T18:38:02.000+02:00</time>
<speed>0.0</speed>
<course>66.0</course>
<ele>81.0</ele>
</trkpt>
<trkpt lat="52.382147312162786" lon="13.394930362701027">
<time>2011-04-09T18:38:03.000+02:00</time>
<speed>0.0</speed>
<course>66.0</course>
<ele>81.0</ele>
</trkpt>
<trkpt lat="52.382147312162786" lon="13.394930362701027">
<time>2011-04-09T18:38:04.000+02:00</time>
<speed>0.0</speed>
<course>66.0</course>
<ele>81.0</ele>
</trkpt>
<trkpt lat="52.382147312162786" lon="13.394951820373146">
<time>2011-04-09T18:38:05.000+02:00</time>
<speed>0.0</speed>
<course>66.0</course>
<ele>81.0</ele>
</trkpt>
<trkpt lat="52.382147312162786" lon="13.394951820373146">
<time>2011-04-09T18:38:06.000+02:00</time>
<speed>0.0</speed>
<course>66.0</course>
<ele>81.0</ele>
</trkpt>
<trkpt lat="52.382147312162786" lon="13.394973278045265">
<time>2011-04-09T18:38:07.000+02:00</time>
<speed>0.0</speed>
<course>66.0</course>
<ele>81.0</ele>
</trkpt>
<trkpt lat="52.382147312162786" lon="13.394973278045265">
<time>2011-04-09T18:38:08.000+02:00</time>
<speed>0.0</speed>
<course>66.0</course>
<ele>81.0</ele>
</trkpt>
<trkpt lat="52.382147312162786" lon="13.394973278045265">
<time>2011-04-09T18:38:09.000+02:00</time>
<speed>0.0</speed>
<course>66.0</course>
<ele>81.0</ele>
</trkpt>
<trkpt lat="52.382147312162786" lon="13.394994735717384">
<time>2011-04-09T18:38:10.000+02:00</time>
<speed>0.0</speed>
<course>66.0</course>
<ele>81.0</ele>
</trkpt>
<trkpt lat="52.382147312162786" lon="13.394994735717384">
<time>2011-04-09T18:38:11.000+02:00</time>
<speed>0.0</speed>
<course>66.0</course>
<ele>81.0</ele>
</trkpt>
<trkpt lat="52.382147312162786" lon="13.395016193389504">
<time>2011-04-09T18:38:12.000+02:00</time>
<speed>0.0</speed>
<course>66.0</course>
<ele>81.0</ele>
</trkpt>
<trkpt lat="52.382158040998846" lon="13.395037651061623">
<time>2011-04-09T18:38:13.000+02:00</time>
<speed>0.0</speed>
<course>66.0</course>
<ele>81.0</ele>
</trkpt>
<trkpt lat="52.382158040998846" lon="13.395037651061623">
<time>2011-04-09T18:38:14.000+02:00</time>
<speed>0.0</speed>
<course>66.0</course>
<ele>81.0</ele>
</trkpt>
<trkpt lat="52.382158040998846" lon="13.395059108733742">
<time>2011-04-09T18:38:15.000+02:00</time>
<speed>0.0</speed>
<course>66.0</course>
<ele>81.0</ele>
</trkpt>
<trkpt lat="52.382158040998846" lon="13.395080566405861">
<time>2011-04-09T18:38:16.000+02:00</time>
<speed>0.0</speed>
<course>66.0</course>
<ele>81.0</ele>
</trkpt>
<trkpt lat="52.382158040998846" lon="13.39510202407798">
<time>2011-04-09T18:38:17.000+02:00</time>
<speed>0.0</speed>
<course>66.0</course>
<ele>81.0</ele>
</trkpt>
<trkpt lat="52.382168769834905" lon="13.3951234817501">
<time>2011-04-09T18:38:18.000+02:00</time>
<speed>0.0</speed>
<course>66.0</course>
<ele>81.0</ele>
</trkpt>
<trkpt lat="52.382168769834905" lon="13.395144939422218">
<time>2011-04-09T18:38:19.000+02:00</time>
<speed>0.0</speed>
<course>66.0</course>
<ele>81.0</ele>
</trkpt>
<trkpt lat="52.382168769834905" lon="13.395144939422218">
<time>2011-04-09T18:38:20.000+02:00</time>
<speed>0.0</speed>
<course>66.0</course>
<ele>81.0</ele>
</trkpt>
<trkpt lat="52.382179498670965" lon="13.395166397094338">
<time>2011-04-09T18:38:21.000+02:00</time>
<speed>0.8333333</speed>
<course>20.0</course>
<ele>81.0</ele>
</trkpt>
<trkpt lat="52.382190227507024" lon="13.395187854766457">
<time>2011-04-09T18:38:22.000+02:00</time>
<speed>1.3888888</speed>
<course>16.0</course>
<ele>82.0</ele>
</trkpt>
<trkpt lat="52.38221168517914" lon="13.395187854766457">
<time>2011-04-09T18:38:23.000+02:00</time>
<speed>1.9444444</speed>
<course>8.0</course>
<ele>82.0</ele>
</trkpt>
<trkpt lat="52.38223314285126" lon="13.395209312438576">
<time>2011-04-09T18:38:24.000+02:00</time>
<speed>1.9444444</speed>
<course>3.0</course>
<ele>82.0</ele>
</trkpt>
<trkpt lat="52.38225460052338" lon="13.395209312438576">
<time>2011-04-09T18:38:25.000+02:00</time>
<speed>1.9444444</speed>
<course>2.0</course>
<ele>82.0</ele>
</trkpt>
<trkpt lat="52.3822760581955" lon="13.395209312438576">
<time>2011-04-09T18:38:26.000+02:00</time>
<speed>1.9444444</speed>
<course>1.0</course>
<ele>82.0</ele>
</trkpt>
<trkpt lat="52.38229751586762" lon="13.395209312438576">
<time>2011-04-09T18:38:27.000+02:00</time>
<speed>1.9444444</speed>
<course>0.0</course>
<ele>82.0</ele>
</trkpt>
<trkpt lat="52.38231897353974" lon="13.395209312438576">
<time>2011-04-09T18:38:28.000+02:00</time>
<speed>1.9444444</speed>
<course>356.0</course>
<ele>82.0</ele>
</trkpt>
<trkpt lat="52.38234043121186" lon="13.395187854766457">
<time>2011-04-09T18:38:29.000+02:00</time>
<speed>1.9444444</speed>
<course>357.0</course>
<ele>82.0</ele>
</trkpt>
<trkpt lat="52.38236188888398" lon="13.395187854766457">
<time>2011-04-09T18:38:30.000+02:00</time>
<speed>1.9444444</speed>
<course>356.0</course>
<ele>82.0</ele>
</trkpt>
<trkpt lat="52.382404804228216" lon="13.395187854766457">
<time>2011-04-09T18:38:32.000+02:00</time>
<speed>1.9444444</speed>
<course>357.0</course>
<ele>83.0</ele>
</trkpt>
<trkpt lat="52.382426261900335" lon="13.395187854766457">
<time>2011-04-09T18:38:33.000+02:00</time>
<speed>2.2222223</speed>
<course>357.0</course>
<ele>83.0</ele>
</trkpt>
<trkpt lat="52.382447719572454" lon="13.395166397094338">
<time>2011-04-09T18:38:34.000+02:00</time>
<speed>2.2222223</speed>
<course>358.0</course>
<ele>83.0</ele>
</trkpt>
<trkpt lat="52.38246917724457" lon="13.395166397094338">
<time>2011-04-09T18:38:35.000+02:00</time>
<speed>1.9444444</speed>
<course>355.0</course>
<ele>83.0</ele>
</trkpt>
<trkpt lat="52.38249063491669" lon="13.395166397094338">
<time>2011-04-09T18:38:36.000+02:00</time>
<speed>1.9444444</speed>
<course>354.0</course>
<ele>83.0</ele>
</trkpt>
<trkpt lat="52.38251209258881" lon="13.395166397094338">
<time>2011-04-09T18:38:37.000+02:00</time>
<speed>1.9444444</speed>
<course>356.0</course>
<ele>83.0</ele>
</trkpt>
<trkpt lat="52.38253355026093" lon="13.395166397094338">
<time>2011-04-09T18:38:38.000+02:00</time>
<speed>1.9444444</speed>
<course>357.0</course>
<ele>83.0</ele>
</trkpt>
<trkpt lat="52.38255500793305" lon="13.395166397094338">
<time>2011-04-09T18:38:39.000+02:00</time>
<speed>2.2222223</speed>
<course>359.0</course>
<ele>83.0</ele>
</trkpt>
<trkpt lat="52.38258719444123" lon="13.395166397094338">
<time>2011-04-09T18:38:40.000+02:00</time>
<speed>3.3333333</speed>
<course>359.0</course>
<ele>83.0</ele>
</trkpt>
<trkpt lat="52.38260865211335" lon="13.395144939422218">
<time>2011-04-09T18:38:41.000+02:00</time>
<speed>3.3333333</speed>
<course>357.0</course>
<ele>83.0</ele>
</trkpt>
<trkpt lat="52.382640838621526" lon="13.395144939422218">
<time>2011-04-09T18:38:42.000+02:00</time>
<speed>3.6111112</speed>
<course>356.0</course>
<ele>83.0</ele>
</trkpt>
<trkpt lat="52.382673025129705" lon="13.395144939422218">
<time>2011-04-09T18:38:43.000+02:00</time>
<speed>3.6111112</speed>
<course>357.0</course>
<ele>83.0</ele>
</trkpt>
<trkpt lat="52.382705211637884" lon="13.395144939422218">
<time>2011-04-09T18:38:44.000+02:00</time>
<speed>3.3333333</speed>
<course>356.0</course>
<ele>83.0</ele>
</trkpt>
<trkpt lat="52.38273739814606" lon="13.395144939422218">
<time>2011-04-09T18:38:45.000+02:00</time>
<speed>2.7777777</speed>
<course>358.0</course>
<ele>84.0</ele>
</trkpt>
<trkpt lat="52.38276958465424" lon="13.395144939422218">
<time>2011-04-09T18:38:46.000+02:00</time>
<speed>2.5</speed>
<course>358.0</course>
<ele>84.0</ele>
</trkpt>
<trkpt lat="52.38279104232636" lon="13.395144939422218">
<time>2011-04-09T18:38:47.000+02:00</time>
<speed>2.5</speed>
<course>358.0</course>
<ele>84.0</ele>
</trkpt>
<trkpt lat="52.38282322883454" lon="13.395144939422218">
<time>2011-04-09T18:38:48.000+02:00</time>
<speed>2.5</speed>
<course>359.0</course>
<ele>84.0</ele>
</trkpt>
<trkpt lat="52.38284468650666" lon="13.395144939422218">
<time>2011-04-09T18:38:49.000+02:00</time>
<speed>2.7777777</speed>
<course>358.0</course>
<ele>84.0</ele>
</trkpt>
<trkpt lat="52.38287687301484" lon="13.395144939422218">
<time>2011-04-09T18:38:50.000+02:00</time>
<speed>2.7777777</speed>
<course>359.0</course>
<ele>84.0</ele>
</trkpt>
<trkpt lat="52.382909059523016" lon="13.395144939422218">
<time>2011-04-09T18:38:51.000+02:00</time>
<speed>2.7777777</speed>
<course>359.0</course>
<ele>84.0</ele>
</trkpt>
<trkpt lat="52.382930517195135" lon="13.395144939422218">
<time>2011-04-09T18:38:52.000+02:00</time>
<speed>2.5</speed>
<course>357.0</course>
<ele>84.0</ele>
</trkpt>
<trkpt lat="52.38296270370331" lon="13.395144939422218">
<time>2011-04-09T18:38:53.000+02:00</time>
<speed>2.5</speed>
<course>356.0</course>
<ele>84.0</ele>
</trkpt>
<trkpt lat="52.38298416137543" lon="13.395144939422218">
<time>2011-04-09T18:38:54.000+02:00</time>
<speed>2.7777777</speed>
<course>355.0</course>
<ele>84.0</ele>
</trkpt>
<trkpt lat="52.38301634788361" lon="13.395144939422218">
<time>2011-04-09T18:38:55.000+02:00</time>
<speed>2.7777777</speed>
<course>355.0</course>
<ele>84.0</ele>
</trkpt>
<trkpt lat="52.38303780555573" lon="13.3951234817501">
<time>2011-04-09T18:38:56.000+02:00</time>
<speed>2.7777777</speed>
<course>357.0</course>
<ele>84.0</ele>
</trkpt>
<trkpt lat="52.38306999206391" lon="13.3951234817501">
<time>2011-04-09T18:38:57.000+02:00</time>
<speed>2.7777777</speed>
<course>357.0</course>
<ele>84.0</ele>
</trkpt>
<trkpt lat="52.38310217857209" lon="13.3951234817501">
<time>2011-04-09T18:38:58.000+02:00</time>
<speed>2.7777777</speed>
<course>355.0</course>
<ele>84.0</ele>
</trkpt>
<trkpt lat="52.38312363624421" lon="13.3951234817501">
<time>2011-04-09T18:38:59.000+02:00</time>
<speed>2.7777777</speed>
<course>358.0</course>
<ele>84.0</ele>
</trkpt>
<trkpt lat="52.383155822752386" lon="13.3951234817501">
<time>2011-04-09T18:39:00.000+02:00</time>
<speed>2.7777777</speed>
<course>356.0</course>
<ele>84.0</ele>
</trkpt>
<trkpt lat="52.383188009260564" lon="13.3951234817501">
<time>2011-04-09T18:39:01.000+02:00</time>
<speed>2.7777777</speed>
<course>357.0</course>
<ele>84.0</ele>
</trkpt>
<trkpt lat="52.38320946693268" lon="13.3951234817501">
<time>2011-04-09T18:39:02.000+02:00</time>
<speed>2.7777777</speed>
<course>358.0</course>
<ele>84.0</ele>
</trkpt>
<trkpt lat="52.38324165344086" lon="13.39510202407798">
<time>2011-04-09T18:39:03.000+02:00</time>
<speed>2.7777777</speed>
<course>357.0</course>
<ele>84.0</ele>
</trkpt>
<trkpt lat="52.38327383994904" lon="13.39510202407798">
<time>2011-04-09T18:39:04.000+02:00</time>
<speed>3.0555556</speed>
<course>357.0</course>
<ele>84.0</ele>
</trkpt>
<trkpt lat="52.38330602645722" lon="13.39510202407798">
<time>2011-04-09T18:39:05.000+02:00</time>
<speed>3.0555556</speed>
<course>357.0</course>
<ele>84.0</ele>
</trkpt>
<trkpt lat="52.3833382129654" lon="13.39510202407798">
<time>2011-04-09T18:39:06.000+02:00</time>
<speed>2.7777777</speed>
<course>358.0</course>
<ele>84.0</ele>
</trkpt>
<trkpt lat="52.38337039947358" lon="13.39510202407798">
<time>2011-04-09T18:39:07.000+02:00</time>
<speed>2.5</speed>
<course>359.0</course>
<ele>84.0</ele>
</trkpt>
<trkpt lat="52.383391857145696" lon="13.39510202407798">
<time>2011-04-09T18:39:08.000+02:00</time>
<speed>2.2222223</speed>
<course>359.0</course>
<ele>84.0</ele>
</trkpt>
<trkpt lat="52.383424043653875" lon="13.39510202407798">
<time>2011-04-09T18:39:09.000+02:00</time>
<speed>2.2222223</speed>
<course>0.0</course>
<ele>84.0</ele>
</trkpt>
<trkpt lat="52.383445501325994" lon="13.39510202407798">
<time>2011-04-09T18:39:10.000+02:00</time>
<speed>2.5</speed>
<course>359.0</course>
<ele>84.0</ele>
</trkpt>
<trkpt lat="52.38347768783417" lon="13.39510202407798">
<time>2011-04-09T18:39:11.000+02:00</time>
<speed>2.5</speed>
<course>358.0</course>
<ele>84.0</ele>
</trkpt>
<trkpt lat="52.38353133201447" lon="13.395080566405861">
<time>2011-04-09T18:39:12.000+02:00</time>
<speed>3.0555556</speed>
<course>359.0</course>
<ele>84.0</ele>
</trkpt>
<trkpt lat="52.38357424735871" lon="13.395080566405861">
<time>2011-04-09T18:39:13.000+02:00</time>
<speed>3.0555556</speed>
<course>359.0</course>
<ele>84.0</ele>
</trkpt>
<trkpt lat="52.38360643386689" lon="13.395080566405861">
<time>2011-04-09T18:39:14.000+02:00</time>
<speed>3.0555556</speed>
<course>357.0</course>
<ele>84.0</ele>
</trkpt>
<trkpt lat="52.383638620375066" lon="13.395080566405861">
<time>2011-04-09T18:39:15.000+02:00</time>
<speed>3.3333333</speed>
<course>359.0</course>
<ele>84.0</ele>
</trkpt>
<trkpt lat="52.383670806883245" lon="13.395059108733742">
<time>2011-04-09T18:39:16.000+02:00</time>
<speed>3.0555556</speed>
<course>359.0</course>
<ele>84.0</ele>
</trkpt>
<trkpt lat="52.383692264555364" lon="13.395059108733742">
<time>2011-04-09T18:39:17.000+02:00</time>
<speed>2.7777777</speed>
<course>358.0</course>
<ele>84.0</ele>
</trkpt>
<trkpt lat="52.38372445106354" lon="13.395059108733742">
<time>2011-04-09T18:39:18.000+02:00</time>
<speed>2.5</speed>
<course>358.0</course>
<ele>84.0</ele>
</trkpt>
<trkpt lat="52.38374590873566" lon="13.395059108733742">
<time>2011-04-09T18:39:19.000+02:00</time>
<speed>2.2222223</speed>
<course>358.0</course>
<ele>84.0</ele>
</trkpt>
<trkpt lat="52.38376736640778" lon="13.395059108733742">
<time>2011-04-09T18:39:20.000+02:00</time>
<speed>2.2222223</speed>
<course>357.0</course>
<ele>84.0</ele>
</trkpt>
<trkpt lat="52.38377809524384" lon="13.395059108733742">
<time>2011-04-09T18:39:21.000+02:00</time>
<speed>1.9444444</speed>
<course>356.0</course>
<ele>83.0</ele>
</trkpt>
<trkpt lat="52.38379955291596" lon="13.395037651061623">
<time>2011-04-09T18:39:22.000+02:00</time>
<speed>1.3888888</speed>
<course>356.0</course>
<ele>83.0</ele>
</trkpt>
<trkpt lat="52.38381028175202" lon="13.395037651061623">
<time>2011-04-09T18:39:23.000+02:00</time>
<speed>1.1111112</speed>
<course>355.0</course>
<ele>83.0</ele>
</trkpt>
<trkpt lat="52.38382101058808" lon="13.395037651061623">
<time>2011-04-09T18:39:24.000+02:00</time>
<speed>0.8333333</speed>
<course>357.0</course>
<ele>83.0</ele>
</trkpt>
<trkpt lat="52.38383173942414" lon="13.395037651061623">
<time>2011-04-09T18:39:25.000+02:00</time>
<speed>0.8333333</speed>
<course>357.0</course>
<ele>83.0</ele>
</trkpt>
<trkpt lat="52.3838424682602" lon="13.395037651061623">
<time>2011-04-09T18:39:26.000+02:00</time>
<speed>0.8333333</speed>
<course>355.0</course>
<ele>83.0</ele>
</trkpt>
<trkpt lat="52.38385319709626" lon="13.395037651061623">
<time>2011-04-09T18:39:27.000+02:00</time>
<speed>0.8333333</speed>
<course>355.0</course>
<ele>83.0</ele>
</trkpt>
<trkpt lat="52.38386392593232" lon="13.395037651061623">
<time>2011-04-09T18:39:28.000+02:00</time>
<speed>0.8333333</speed>
<course>354.0</course>
<ele>83.0</ele>
</trkpt>
<trkpt lat="52.38388538360444" lon="13.395037651061623">
<time>2011-04-09T18:39:29.000+02:00</time>
<speed>0.8333333</speed>
<course>354.0</course>
<ele>83.0</ele>
</trkpt>
<trkpt lat="52.383896112440496" lon="13.395059108733742">
<time>2011-04-09T18:39:30.000+02:00</time>
<speed>0.8333333</speed>
<course>354.0</course>
<ele>83.0</ele>
</trkpt>
<trkpt lat="52.383896112440496" lon="13.395059108733742">
<time>2011-04-09T18:39:31.000+02:00</time>
<speed>0.8333333</speed>
<course>353.0</course>
<ele>83.0</ele>
</trkpt>
<trkpt lat="52.383906841276556" lon="13.395059108733742">
<time>2011-04-09T18:39:32.000+02:00</time>
<speed>0.8333333</speed>
<course>351.0</course>
<ele>83.0</ele>
</trkpt>
<trkpt lat="52.383928298948675" lon="13.395059108733742">
<time>2011-04-09T18:39:34.000+02:00</time>
<speed>0.8333333</speed>
<course>351.0</course>
<ele>83.0</ele>
</trkpt>
<trkpt lat="52.383939027784734" lon="13.395059108733742">
<time>2011-04-09T18:39:35.000+02:00</time>
<speed>0.5555556</speed>
<course>351.0</course>
<ele>83.0</ele>
</trkpt>
<trkpt lat="52.383949756620794" lon="13.395059108733742">
<time>2011-04-09T18:39:36.000+02:00</time>
<speed>0.5555556</speed>
<course>352.0</course>
<ele>83.0</ele>
</trkpt>
<trkpt lat="52.38396048545685" lon="13.395059108733742">
<time>2011-04-09T18:39:37.000+02:00</time>
<speed>0.5555556</speed>
<course>352.0</course>
<ele>83.0</ele>
</trkpt>
<trkpt lat="52.38396048545685" lon="13.395059108733742">
<time>2011-04-09T18:39:38.000+02:00</time>
<speed>0.2777778</speed>
<course>352.0</course>
<ele>83.0</ele>
</trkpt>
<trkpt lat="52.38397121429291" lon="13.395059108733742">
<time>2011-04-09T18:39:39.000+02:00</time>
<speed>0.5555556</speed>
<course>343.0</course>
<ele>83.0</ele>
</trkpt>
<trkpt lat="52.38397121429291" lon="13.395059108733742">
<time>2011-04-09T18:39:40.000+02:00</time>
<speed>0.5555556</speed>
<course>345.0</course>
<ele>83.0</ele>
</trkpt>
<trkpt lat="52.38398194312897" lon="13.395059108733742">
<time>2011-04-09T18:39:41.000+02:00</time>
<speed>0.5555556</speed>
<course>347.0</course>
<ele>83.0</ele>
</trkpt>
<trkpt lat="52.38399267196503" lon="13.395059108733742">
<time>2011-04-09T18:39:42.000+02:00</time>
<speed>0.8333333</speed>
<course>350.0</course>
<ele>83.0</ele>
</trkpt>
<trkpt lat="52.38400340080109" lon="13.395059108733742">
<time>2011-04-09T18:39:43.000+02:00</time>
<speed>0.8333333</speed>
<course>351.0</course>
<ele>83.0</ele>
</trkpt>
<trkpt lat="52.38400340080109" lon="13.395059108733742">
<time>2011-04-09T18:39:44.000+02:00</time>
<speed>0.8333333</speed>
<course>354.0</course>
<ele>83.0</ele>
</trkpt>
<trkpt lat="52.38401412963715" lon="13.395059108733742">
<time>2011-04-09T18:39:45.000+02:00</time>
<speed>0.8333333</speed>
<course>353.0</course>
<ele>83.0</ele>
</trkpt>
<trkpt lat="52.38402485847321" lon="13.395059108733742">
<time>2011-04-09T18:39:46.000+02:00</time>
<speed>0.8333333</speed>
<course>351.0</course>
<ele>83.0</ele>
</trkpt>
<trkpt lat="52.38403558730927" lon="13.395059108733742">
<time>2011-04-09T18:39:47.000+02:00</time>
<speed>0.8333333</speed>
<course>350.0</course>
<ele>83.0</ele>
</trkpt>
<trkpt lat="52.38403558730927" lon="13.395059108733742">
<time>2011-04-09T18:39:48.000+02:00</time>
<speed>0.8333333</speed>
<course>350.0</course>
<ele>83.0</ele>
</trkpt>
<trkpt lat="52.38404631614533" lon="13.395059108733742">
<time>2011-04-09T18:39:49.000+02:00</time>
<speed>1.1111112</speed>
<course>352.0</course>
<ele>83.0</ele>
</trkpt>
<trkpt lat="52.38405704498139" lon="13.395059108733742">
<time>2011-04-09T18:39:50.000+02:00</time>
<speed>1.1111112</speed>
<course>349.0</course>
<ele>83.0</ele>
</trkpt>
<trkpt lat="52.38407850265351" lon="13.395059108733742">
<time>2011-04-09T18:39:51.000+02:00</time>
<speed>1.1111112</speed>
<course>350.0</course>
<ele>83.0</ele>
</trkpt>
<trkpt lat="52.38408923148957" lon="13.395059108733742">
<time>2011-04-09T18:39:52.000+02:00</time>
<speed>1.1111112</speed>
<course>350.0</course>
<ele>83.0</ele>
</trkpt>
<trkpt lat="52.38409996032563" lon="13.395059108733742">
<time>2011-04-09T18:39:53.000+02:00</time>
<speed>1.1111112</speed>
<course>353.0</course>
<ele>83.0</ele>
</trkpt>
<trkpt lat="52.38411068916169" lon="13.395037651061623">
<time>2011-04-09T18:39:54.000+02:00</time>
<speed>1.1111112</speed>
<course>354.0</course>
<ele>83.0</ele>
</trkpt>
<trkpt lat="52.38412141799775" lon="13.395037651061623">
<time>2011-04-09T18:39:55.000+02:00</time>
<speed>1.1111112</speed>
<course>355.0</course>
<ele>83.0</ele>
</trkpt>
<trkpt lat="52.38413214683381" lon="13.395059108733742">
<time>2011-04-09T18:39:56.000+02:00</time>
<speed>1.1111112</speed>
<course>357.0</course>
<ele>83.0</ele>
</trkpt>
<trkpt lat="52.384142875669866" lon="13.395059108733742">
<time>2011-04-09T18:39:57.000+02:00</time>
<speed>1.1111112</speed>
<course>357.0</course>
<ele>83.0</ele>
</trkpt>
<trkpt lat="52.384164333341985" lon="13.395059108733742">
<time>2011-04-09T18:39:58.000+02:00</time>
<speed>1.1111112</speed>
<course>0.0</course>
<ele>83.0</ele>
</trkpt>
<trkpt lat="52.384175062178045" lon="13.395059108733742">
<time>2011-04-09T18:39:59.000+02:00</time>
<speed>1.1111112</speed>
<course>5.0</course>
<ele>83.0</ele>
</trkpt>
<trkpt lat="52.384185791014104" lon="13.395059108733742">
<time>2011-04-09T18:40:00.000+02:00</time>
<speed>1.1111112</speed>
<course>1.0</course>
<ele>83.0</ele>
</trkpt>
<trkpt lat="52.384185791014104" lon="13.395080566405861">
<time>2011-04-09T18:40:01.000+02:00</time>
<speed>0.8333333</speed>
<course>9.0</course>
<ele>83.0</ele>
</trkpt>
<trkpt lat="52.384196519850164" lon="13.395080566405861">
<time>2011-04-09T18:40:02.000+02:00</time>
<speed>0.8333333</speed>
<course>18.0</course>
<ele>83.0</ele>
</trkpt>
<trkpt lat="52.384196519850164" lon="13.395080566405861">
<time>2011-04-09T18:40:03.000+02:00</time>
<speed>0.8333333</speed>
<course>26.0</course>
<ele>83.0</ele>
</trkpt>
<trkpt lat="52.384207248686224" lon="13.39510202407798">
<time>2011-04-09T18:40:04.000+02:00</time>
<speed>0.8333333</speed>
<course>38.0</course>
<ele>83.0</ele>
</trkpt>
<trkpt lat="52.384207248686224" lon="13.3951234817501">
<time>2011-04-09T18:40:05.000+02:00</time>
<speed>0.8333333</speed>
<course>45.0</course>
<ele>83.0</ele>
</trkpt>
<trkpt lat="52.384207248686224" lon="13.395144939422218">
<time>2011-04-09T18:40:06.000+02:00</time>
<speed>0.8333333</speed>
<course>51.0</course>
<ele>83.0</ele>
</trkpt>
<trkpt lat="52.384207248686224" lon="13.395166397094338">
<time>2011-04-09T18:40:07.000+02:00</time>
<speed>0.8333333</speed>
<course>58.0</course>
<ele>84.0</ele>
</trkpt>
<trkpt lat="52.384207248686224" lon="13.395166397094338">
<time>2011-04-09T18:40:08.000+02:00</time>
<speed>0.8333333</speed>
<course>63.0</course>
<ele>84.0</ele>
</trkpt>
<trkpt lat="52.384207248686224" lon="13.395187854766457">
<time>2011-04-09T18:40:09.000+02:00</time>
<speed>0.8333333</speed>
<course>65.0</course>
<ele>84.0</ele>
</trkpt>
<trkpt lat="52.384207248686224" lon="13.395209312438576">
<time>2011-04-09T18:40:10.000+02:00</time>
<speed>0.8333333</speed>
<course>70.0</course>
<ele>84.0</ele>
</trkpt>
<trkpt lat="52.384207248686224" lon="13.395230770110695">
<time>2011-04-09T18:40:11.000+02:00</time>
<speed>0.8333333</speed>
<course>74.0</course>
<ele>84.0</ele>
</trkpt>
<trkpt lat="52.384196519850164" lon="13.395252227782814">
<time>2011-04-09T18:40:12.000+02:00</time>
<speed>0.8333333</speed>
<course>76.0</course>
<ele>84.0</ele>
</trkpt>
<trkpt lat="52.384196519850164" lon="13.395252227782814">
<time>2011-04-09T18:40:13.000+02:00</time>
<speed>0.8333333</speed>
<course>77.0</course>
<ele>84.0</ele>
</trkpt>
<trkpt lat="52.384196519850164" lon="13.395273685454933">
<time>2011-04-09T18:40:14.000+02:00</time>
<speed>0.8333333</speed>
<course>79.0</course>
<ele>84.0</ele>
</trkpt>
<trkpt lat="52.384196519850164" lon="13.395295143127052">
<time>2011-04-09T18:40:15.000+02:00</time>
<speed>0.8333333</speed>
<course>79.0</course>
<ele>84.0</ele>
</trkpt>
<trkpt lat="52.384196519850164" lon="13.395295143127052">
<time>2011-04-09T18:40:16.000+02:00</time>
<speed>0.8333333</speed>
<course>80.0</course>
<ele>84.0</ele>
</trkpt>
<trkpt lat="52.384196519850164" lon="13.395316600799172">
<time>2011-04-09T18:40:17.000+02:00</time>
<speed>0.8333333</speed>
<course>82.0</course>
<ele>84.0</ele>
</trkpt>
<trkpt lat="52.384196519850164" lon="13.39533805847129">
<time>2011-04-09T18:40:18.000+02:00</time>
<speed>0.8333333</speed>
<course>81.0</course>
<ele>85.0</ele>
</trkpt>
<trkpt lat="52.384196519850164" lon="13.39533805847129">
<time>2011-04-09T18:40:19.000+02:00</time>
<speed>0.8333333</speed>
<course>86.0</course>
<ele>85.0</ele>
</trkpt>
<trkpt lat="52.384196519850164" lon="13.39535951614341">
<time>2011-04-09T18:40:20.000+02:00</time>
<speed>0.8333333</speed>
<course>105.0</course>
<ele>85.0</ele>
</trkpt>
<trkpt lat="52.384185791014104" lon="13.395380973815529">
<time>2011-04-09T18:40:21.000+02:00</time>
<speed>0.8333333</speed>
<course>107.0</course>
<ele>85.0</ele>
</trkpt>
<trkpt lat="52.384185791014104" lon="13.395380973815529">
<time>2011-04-09T18:40:22.000+02:00</time>
<speed>0.8333333</speed>
<course>121.0</course>
<ele>85.0</ele>
</trkpt>
<trkpt lat="52.384175062178045" lon="13.395402431487648">
<time>2011-04-09T18:40:23.000+02:00</time>
<speed>0.5555556</speed>
<course>126.0</course>
<ele>85.0</ele>
</trkpt>
<trkpt lat="52.384175062178045" lon="13.395380973815529">
<time>2011-04-09T18:40:24.000+02:00</time>
<speed>0.0</speed>
<course>126.0</course>
<ele>85.0</ele>
</trkpt>
<trkpt lat="52.384175062178045" lon="13.395380973815529">
<time>2011-04-09T18:40:25.000+02:00</time>
<speed>0.0</speed>
<course>126.0</course>
<ele>85.0</ele>
</trkpt>
<trkpt lat="52.384175062178045" lon="13.395380973815529">
<time>2011-04-09T18:40:26.000+02:00</time>
<speed>0.0</speed>
<course>126.0</course>
<ele>85.0</ele>
</trkpt>
<trkpt lat="52.384175062178045" lon="13.395380973815529">
<time>2011-04-09T18:40:28.000+02:00</time>
<speed>0.0</speed>
<course>353.0</course>
<ele>85.0</ele>
</trkpt>
<trkpt lat="52.384175062178045" lon="13.395380973815529">
<time>2011-04-09T18:40:29.000+02:00</time>
<speed>0.0</speed>
<course>353.0</course>
<ele>85.0</ele>
</trkpt>
<trkpt lat="52.384175062178045" lon="13.395380973815529">
<time>2011-04-09T18:40:30.000+02:00</time>
<speed>0.0</speed>
<course>353.0</course>
<ele>85.0</ele>
</trkpt>
<trkpt lat="52.384175062178045" lon="13.395380973815529">
<time>2011-04-09T18:40:31.000+02:00</time>
<speed>0.0</speed>
<course>353.0</course>
<ele>85.0</ele>
</trkpt>
<trkpt lat="52.384175062178045" lon="13.395380973815529">
<time>2011-04-09T18:40:32.000+02:00</time>
<speed>0.0</speed>
<course>353.0</course>
<ele>85.0</ele>
</trkpt>
<trkpt lat="52.384175062178045" lon="13.39535951614341">
<time>2011-04-09T18:40:33.000+02:00</time>
<speed>0.0</speed>
<course>353.0</course>
<ele>85.0</ele>
</trkpt>
<trkpt lat="52.384175062178045" lon="13.39535951614341">
<time>2011-04-09T18:40:34.000+02:00</time>
<speed>0.0</speed>
<course>353.0</course>
<ele>85.0</ele>
</trkpt>
<trkpt lat="52.384175062178045" lon="13.39535951614341">
<time>2011-04-09T18:40:35.000+02:00</time>
<speed>0.0</speed>
<course>353.0</course>
<ele>85.0</ele>
</trkpt>
<trkpt lat="52.384164333341985" lon="13.39535951614341">
<time>2011-04-09T18:40:36.000+02:00</time>
<speed>0.0</speed>
<course>353.0</course>
<ele>85.0</ele>
</trkpt>
<trkpt lat="52.384164333341985" lon="13.39535951614341">
<time>2011-04-09T18:40:37.000+02:00</time>
<speed>0.0</speed>
<course>353.0</course>
<ele>84.0</ele>
</trkpt>
<trkpt lat="52.384153604505926" lon="13.39535951614341">
<time>2011-04-09T18:40:38.000+02:00</time>
<speed>0.2777778</speed>
<course>353.0</course>
<ele>84.0</ele>
</trkpt>
<trkpt lat="52.384153604505926" lon="13.39535951614341">
<time>2011-04-09T18:40:39.000+02:00</time>
<speed>0.5555556</speed>
<course>170.0</course>
<ele>84.0</ele>
</trkpt>
<trkpt lat="52.384142875669866" lon="13.39535951614341">
<time>2011-04-09T18:40:40.000+02:00</time>
<speed>0.5555556</speed>
<course>169.0</course>
<ele>84.0</ele>
</trkpt>
<trkpt lat="52.384142875669866" lon="13.39535951614341">
<time>2011-04-09T18:40:41.000+02:00</time>
<speed>0.5555556</speed>
<course>169.0</course>
<ele>83.0</ele>
</trkpt>
<trkpt lat="52.38413214683381" lon="13.39533805847129">
<time>2011-04-09T18:40:42.000+02:00</time>
<speed>0.5555556</speed>
<course>169.0</course>
<ele>83.0</ele>
</trkpt>
<trkpt lat="52.38412141799775" lon="13.39533805847129">
<time>2011-04-09T18:40:43.000+02:00</time>
<speed>0.5555556</speed>
<course>173.0</course>
<ele>83.0</ele>
</trkpt>
<trkpt lat="52.38412141799775" lon="13.39533805847129">
<time>2011-04-09T18:40:44.000+02:00</time>
<speed>0.5555556</speed>
<course>177.0</course>
<ele>83.0</ele>
</trkpt>
<trkpt lat="52.38411068916169" lon="13.39533805847129">
<time>2011-04-09T18:40:45.000+02:00</time>
<speed>0.5555556</speed>
<course>177.0</course>
<ele>82.0</ele>
</trkpt>
<trkpt lat="52.38411068916169" lon="13.39533805847129">
<time>2011-04-09T18:40:46.000+02:00</time>
<speed>0.5555556</speed>
<course>180.0</course>
<ele>82.0</ele>
</trkpt>
<trkpt lat="52.38411068916169" lon="13.39533805847129">
<time>2011-04-09T18:40:47.000+02:00</time>
<speed>0.5555556</speed>
<course>273.0</course>
<ele>82.0</ele>
</trkpt>
<trkpt lat="52.38411068916169" lon="13.39533805847129">
<time>2011-04-09T18:40:48.000+02:00</time>
<speed>0.5555556</speed>
<course>270.0</course>
<ele>82.0</ele>
</trkpt>
<trkpt lat="52.38411068916169" lon="13.395316600799172">
<time>2011-04-09T18:40:49.000+02:00</time>
<speed>0.5555556</speed>
<course>273.0</course>
<ele>82.0</ele>
</trkpt>
<trkpt lat="52.38411068916169" lon="13.395316600799172">
<time>2011-04-09T18:40:50.000+02:00</time>
<speed>0.5555556</speed>
<course>274.0</course>
<ele>82.0</ele>
</trkpt>
<trkpt lat="52.38411068916169" lon="13.395316600799172">
<time>2011-04-09T18:40:51.000+02:00</time>
<speed>0.2777778</speed>
<course>274.0</course>
<ele>81.0</ele>
</trkpt>
<trkpt lat="52.38411068916169" lon="13.39533805847129">
<time>2011-04-09T18:40:52.000+02:00</time>
<speed>0.0</speed>
<course>274.0</course>
<ele>81.0</ele>
</trkpt>
<trkpt lat="52.38411068916169" lon="13.39533805847129">
<time>2011-04-09T18:40:53.000+02:00</time>
<speed>0.0</speed>
<course>274.0</course>
<ele>81.0</ele>
</trkpt>
<trkpt lat="52.38411068916169" lon="13.39533805847129">
<time>2011-04-09T18:40:54.000+02:00</time>
<speed>0.0</speed>
<course>274.0</course>
<ele>81.0</ele>
</trkpt>
<trkpt lat="52.38411068916169" lon="13.39533805847129">
<time>2011-04-09T18:40:55.000+02:00</time>
<speed>0.0</speed>
<course>274.0</course>
<ele>81.0</ele>
</trkpt>
<trkpt lat="52.38411068916169" lon="13.39535951614341">
<time>2011-04-09T18:40:56.000+02:00</time>
<speed>0.0</speed>
<course>274.0</course>
<ele>81.0</ele>
</trkpt>
<trkpt lat="52.38411068916169" lon="13.39535951614341">
<time>2011-04-09T18:40:57.000+02:00</time>
<speed>0.0</speed>
<course>274.0</course>
<ele>81.0</ele>
</trkpt>
<trkpt lat="52.38412141799775" lon="13.39535951614341">
<time>2011-04-09T18:40:58.000+02:00</time>
<speed>0.0</speed>
<course>274.0</course>
<ele>81.0</ele>
</trkpt>
<trkpt lat="52.38412141799775" lon="13.39535951614341">
<time>2011-04-09T18:40:59.000+02:00</time>
<speed>0.0</speed>
<course>274.0</course>
<ele>81.0</ele>
</trkpt>
<trkpt lat="52.38412141799775" lon="13.39535951614341">
<time>2011-04-09T18:41:00.000+02:00</time>
<speed>0.0</speed>
<course>274.0</course>
<ele>81.0</ele>
</trkpt>
<trkpt lat="52.38412141799775" lon="13.39535951614341">
<time>2011-04-09T18:41:01.000+02:00</time>
<speed>0.0</speed>
<course>274.0</course>
<ele>81.0</ele>
</trkpt>
<trkpt lat="52.38412141799775" lon="13.39535951614341">
<time>2011-04-09T18:41:02.000+02:00</time>
<speed>0.0</speed>
<course>274.0</course>
<ele>81.0</ele>
</trkpt>
<trkpt lat="52.38412141799775" lon="13.39535951614341">
<time>2011-04-09T18:41:03.000+02:00</time>
<speed>0.0</speed>
<course>274.0</course>
<ele>81.0</ele>
</trkpt>
<trkpt lat="52.38412141799775" lon="13.39535951614341">
<time>2011-04-09T18:41:04.000+02:00</time>
<speed>0.0</speed>
<course>274.0</course>
<ele>81.0</ele>
</trkpt>
<trkpt lat="52.38412141799775" lon="13.39535951614341">
<time>2011-04-09T18:41:05.000+02:00</time>
<speed>0.0</speed>
<course>274.0</course>
<ele>81.0</ele>
</trkpt>
<trkpt lat="52.38413214683381" lon="13.395380973815529">
<time>2011-04-09T18:41:06.000+02:00</time>
<speed>0.0</speed>
<course>274.0</course>
<ele>81.0</ele>
</trkpt>
<trkpt lat="52.38413214683381" lon="13.395380973815529">
<time>2011-04-09T18:41:07.000+02:00</time>
<speed>0.0</speed>
<course>274.0</course>
<ele>81.0</ele>
</trkpt>
<trkpt lat="52.38413214683381" lon="13.395380973815529">
<time>2011-04-09T18:41:08.000+02:00</time>
<speed>0.0</speed>
<course>274.0</course>
<ele>81.0</ele>
</trkpt>
<trkpt lat="52.38413214683381" lon="13.395380973815529">
<time>2011-04-09T18:41:09.000+02:00</time>
<speed>0.0</speed>
<course>274.0</course>
<ele>81.0</ele>
</trkpt>
<trkpt lat="52.38413214683381" lon="13.395380973815529">
<time>2011-04-09T18:41:10.000+02:00</time>
<speed>0.0</speed>
<course>274.0</course>
<ele>81.0</ele>
</trkpt>
<trkpt lat="52.38413214683381" lon="13.395380973815529">
<time>2011-04-09T18:41:11.000+02:00</time>
<speed>0.0</speed>
<course>274.0</course>
<ele>81.0</ele>
</trkpt>
<trkpt lat="52.38413214683381" lon="13.395380973815529">
<time>2011-04-09T18:41:12.000+02:00</time>
<speed>0.0</speed>
<course>274.0</course>
<ele>81.0</ele>
</trkpt>
<trkpt lat="52.38413214683381" lon="13.395380973815529">
<time>2011-04-09T18:41:13.000+02:00</time>
<speed>0.0</speed>
<course>274.0</course>
<ele>81.0</ele>
</trkpt>
<trkpt lat="52.38413214683381" lon="13.395380973815529">
<time>2011-04-09T18:41:14.000+02:00</time>
<speed>0.0</speed>
<course>274.0</course>
<ele>81.0</ele>
</trkpt>
<trkpt lat="52.38413214683381" lon="13.395380973815529">
<time>2011-04-09T18:41:15.000+02:00</time>
<speed>0.0</speed>
<course>274.0</course>
<ele>81.0</ele>
</trkpt>
<trkpt lat="52.38413214683381" lon="13.395380973815529">
<time>2011-04-09T18:41:16.000+02:00</time>
<speed>0.0</speed>
<course>274.0</course>
<ele>81.0</ele>
</trkpt>
<trkpt lat="52.38413214683381" lon="13.395380973815529">
<time>2011-04-09T18:41:17.000+02:00</time>
<speed>0.0</speed>
<course>274.0</course>
<ele>81.0</ele>
</trkpt>
<trkpt lat="52.384142875669866" lon="13.395402431487648">
<time>2011-04-09T18:41:18.000+02:00</time>
<speed>0.0</speed>
<course>274.0</course>
<ele>81.0</ele>
</trkpt>
<trkpt lat="52.384142875669866" lon="13.395402431487648">
<time>2011-04-09T18:41:19.000+02:00</time>
<speed>0.0</speed>
<course>274.0</course>
<ele>81.0</ele>
</trkpt>
<trkpt lat="52.384142875669866" lon="13.395402431487648">
<time>2011-04-09T18:41:20.000+02:00</time>
<speed>0.0</speed>
<course>274.0</course>
<ele>81.0</ele>
</trkpt>
<trkpt lat="52.384153604505926" lon="13.395423889159767">
<time>2011-04-09T18:41:21.000+02:00</time>
<speed>0.0</speed>
<course>274.0</course>
<ele>81.0</ele>
</trkpt>
<trkpt lat="52.384153604505926" lon="13.395423889159767">
<time>2011-04-09T18:41:22.000+02:00</time>
<speed>0.0</speed>
<course>274.0</course>
<ele>81.0</ele>
</trkpt>
<trkpt lat="52.384153604505926" lon="13.395423889159767">
<time>2011-04-09T18:41:23.000+02:00</time>
<speed>0.0</speed>
<course>274.0</course>
<ele>81.0</ele>
</trkpt>
<trkpt lat="52.384164333341985" lon="13.395423889159767">
<time>2011-04-09T18:41:24.000+02:00</time>
<speed>0.0</speed>
<course>274.0</course>
<ele>81.0</ele>
</trkpt>
<trkpt lat="52.384164333341985" lon="13.395445346831886">
<time>2011-04-09T18:41:25.000+02:00</time>
<speed>0.0</speed>
<course>274.0</course>
<ele>81.0</ele>
</trkpt>
<trkpt lat="52.384175062178045" lon="13.395445346831886">
<time>2011-04-09T18:41:26.000+02:00</time>
<speed>0.0</speed>
<course>274.0</course>
<ele>81.0</ele>
</trkpt>
<trkpt lat="52.384175062178045" lon="13.395445346831886">
<time>2011-04-09T18:41:27.000+02:00</time>
<speed>0.0</speed>
<course>274.0</course>
<ele>81.0</ele>
</trkpt>
<trkpt lat="52.384175062178045" lon="13.395445346831886">
<time>2011-04-09T18:41:28.000+02:00</time>
<speed>0.0</speed>
<course>274.0</course>
<ele>81.0</ele>
</trkpt>
<trkpt lat="52.384175062178045" lon="13.395445346831886">
<time>2011-04-09T18:41:29.000+02:00</time>
<speed>0.0</speed>
<course>274.0</course>
<ele>81.0</ele>
</trkpt>
<trkpt lat="52.384185791014104" lon="13.395445346831886">
<time>2011-04-09T18:41:31.000+02:00</time>
<speed>0.0</speed>
<course>274.0</course>
<ele>81.0</ele>
</trkpt>
<trkpt lat="52.384185791014104" lon="13.395445346831886">
<time>2011-04-09T18:41:32.000+02:00</time>
<speed>0.0</speed>
<course>274.0</course>
<ele>81.0</ele>
</trkpt>
<trkpt lat="52.384185791014104" lon="13.395445346831886">
<time>2011-04-09T18:41:33.000+02:00</time>
<speed>0.0</speed>
<course>274.0</course>
<ele>81.0</ele>
</trkpt>
<trkpt lat="52.384185791014104" lon="13.395445346831886">
<time>2011-04-09T18:41:34.000+02:00</time>
<speed>0.0</speed>
<course>274.0</course>
<ele>81.0</ele>
</trkpt>
<trkpt lat="52.384196519850164" lon="13.395445346831886">
<time>2011-04-09T18:41:35.000+02:00</time>
<speed>0.0</speed>
<course>274.0</course>
<ele>81.0</ele>
</trkpt>
<trkpt lat="52.384196519850164" lon="13.395445346831886">
<time>2011-04-09T18:41:36.000+02:00</time>
<speed>0.0</speed>
<course>274.0</course>
<ele>81.0</ele>
</trkpt>
<trkpt lat="52.384196519850164" lon="13.395445346831886">
<time>2011-04-09T18:41:37.000+02:00</time>
<speed>0.0</speed>
<course>274.0</course>
<ele>82.0</ele>
</trkpt>
<trkpt lat="52.384196519850164" lon="13.395445346831886">
<time>2011-04-09T18:41:38.000+02:00</time>
<speed>0.0</speed>
<course>274.0</course>
<ele>82.0</ele>
</trkpt>
<trkpt lat="52.384196519850164" lon="13.395445346831886">
<time>2011-04-09T18:41:39.000+02:00</time>
<speed>0.0</speed>
<course>274.0</course>
<ele>82.0</ele>
</trkpt>
<trkpt lat="52.384196519850164" lon="13.395423889159767">
<time>2011-04-09T18:41:40.000+02:00</time>
<speed>0.0</speed>
<course>274.0</course>
<ele>82.0</ele>
</trkpt>
<trkpt lat="52.384207248686224" lon="13.395423889159767">
<time>2011-04-09T18:41:41.000+02:00</time>
<speed>0.0</speed>
<course>274.0</course>
<ele>82.0</ele>
</trkpt>
<trkpt lat="52.384207248686224" lon="13.395423889159767">
<time>2011-04-09T18:41:42.000+02:00</time>
<speed>0.0</speed>
<course>274.0</course>
<ele>82.0</ele>
</trkpt>
<trkpt lat="52.384207248686224" lon="13.395423889159767">
<time>2011-04-09T18:41:43.000+02:00</time>
<speed>0.0</speed>
<course>274.0</course>
<ele>82.0</ele>
</trkpt>
<trkpt lat="52.384207248686224" lon="13.395423889159767">
<time>2011-04-09T18:41:44.000+02:00</time>
<speed>0.0</speed>
<course>274.0</course>
<ele>82.0</ele>
</trkpt>
<trkpt lat="52.384207248686224" lon="13.395423889159767">
<time>2011-04-09T18:41:45.000+02:00</time>
<speed>0.0</speed>
<course>274.0</course>
<ele>82.0</ele>
</trkpt>
<trkpt lat="52.384207248686224" lon="13.395423889159767">
<time>2011-04-09T18:41:46.000+02:00</time>
<speed>0.0</speed>
<course>274.0</course>
<ele>82.0</ele>
</trkpt>
<trkpt lat="52.384207248686224" lon="13.395423889159767">
<time>2011-04-09T18:41:47.000+02:00</time>
<speed>0.0</speed>
<course>274.0</course>
<ele>82.0</ele>
</trkpt>
<trkpt lat="52.384207248686224" lon="13.395423889159767">
<time>2011-04-09T18:41:48.000+02:00</time>
<speed>0.0</speed>
<course>274.0</course>
<ele>82.0</ele>
</trkpt>
<trkpt lat="52.384207248686224" lon="13.395423889159767">
<time>2011-04-09T18:41:49.000+02:00</time>
<speed>0.0</speed>
<course>274.0</course>
<ele>82.0</ele>
</trkpt>
<trkpt lat="52.384207248686224" lon="13.395423889159767">
<time>2011-04-09T18:41:50.000+02:00</time>
<speed>0.0</speed>
<course>274.0</course>
<ele>82.0</ele>
</trkpt>
<trkpt lat="52.384207248686224" lon="13.395423889159767">
<time>2011-04-09T18:41:51.000+02:00</time>
<speed>0.0</speed>
<course>274.0</course>
<ele>82.0</ele>
</trkpt>
<trkpt lat="52.38421797752228" lon="13.395445346831886">
<time>2011-04-09T18:41:52.000+02:00</time>
<speed>0.0</speed>
<course>274.0</course>
<ele>82.0</ele>
</trkpt>
<trkpt lat="52.38421797752228" lon="13.395445346831886">
<time>2011-04-09T18:41:53.000+02:00</time>
<speed>0.0</speed>
<course>274.0</course>
<ele>82.0</ele>
</trkpt>
<trkpt lat="52.38421797752228" lon="13.395445346831886">
<time>2011-04-09T18:41:54.000+02:00</time>
<speed>0.0</speed>
<course>274.0</course>
<ele>82.0</ele>
</trkpt>
<trkpt lat="52.38421797752228" lon="13.395445346831886">
<time>2011-04-09T18:41:55.000+02:00</time>
<speed>0.0</speed>
<course>274.0</course>
<ele>82.0</ele>
</trkpt>
<trkpt lat="52.38421797752228" lon="13.395445346831886">
<time>2011-04-09T18:41:56.000+02:00</time>
<speed>0.0</speed>
<course>274.0</course>
<ele>82.0</ele>
</trkpt>
<trkpt lat="52.38421797752228" lon="13.395445346831886">
<time>2011-04-09T18:41:57.000+02:00</time>
<speed>0.0</speed>
<course>274.0</course>
<ele>82.0</ele>
</trkpt>
<trkpt lat="52.38421797752228" lon="13.395445346831886">
<time>2011-04-09T18:41:58.000+02:00</time>
<speed>0.0</speed>
<course>274.0</course>
<ele>82.0</ele>
</trkpt>
<trkpt lat="52.38421797752228" lon="13.395445346831886">
<time>2011-04-09T18:41:59.000+02:00</time>
<speed>0.0</speed>
<course>274.0</course>
<ele>82.0</ele>
</trkpt>
<trkpt lat="52.38421797752228" lon="13.395445346831886">
<time>2011-04-09T18:42:00.000+02:00</time>
<speed>0.0</speed>
<course>274.0</course>
<ele>82.0</ele>
</trkpt>
<trkpt lat="52.38421797752228" lon="13.395445346831886">
<time>2011-04-09T18:42:01.000+02:00</time>
<speed>0.0</speed>
<course>274.0</course>
<ele>82.0</ele>
</trkpt>
<trkpt lat="52.384207248686224" lon="13.395445346831886">
<time>2011-04-09T18:42:02.000+02:00</time>
<speed>0.0</speed>
<course>274.0</course>
<ele>82.0</ele>
</trkpt>
<trkpt lat="52.384207248686224" lon="13.395445346831886">
<time>2011-04-09T18:42:03.000+02:00</time>
<speed>0.0</speed>
<course>274.0</course>
<ele>82.0</ele>
</trkpt>
<trkpt lat="52.384207248686224" lon="13.395445346831886">
<time>2011-04-09T18:42:04.000+02:00</time>
<speed>0.0</speed>
<course>274.0</course>
<ele>82.0</ele>
</trkpt>
<trkpt lat="52.384207248686224" lon="13.395445346831886">
<time>2011-04-09T18:42:05.000+02:00</time>
<speed>0.0</speed>
<course>274.0</course>
<ele>82.0</ele>
</trkpt>
<trkpt lat="52.384196519850164" lon="13.395445346831886">
<time>2011-04-09T18:42:06.000+02:00</time>
<speed>0.0</speed>
<course>274.0</course>
<ele>82.0</ele>
</trkpt>
<trkpt lat="52.384196519850164" lon="13.395445346831886">
<time>2011-04-09T18:42:07.000+02:00</time>
<speed>0.0</speed>
<course>274.0</course>
<ele>82.0</ele>
</trkpt>
<trkpt lat="52.384185791014104" lon="13.395445346831886">
<time>2011-04-09T18:42:08.000+02:00</time>
<speed>0.0</speed>
<course>274.0</course>
<ele>82.0</ele>
</trkpt>
<trkpt lat="52.384185791014104" lon="13.395466804504006">
<time>2011-04-09T18:42:09.000+02:00</time>
<speed>0.0</speed>
<course>274.0</course>
<ele>82.0</ele>
</trkpt>
<trkpt lat="52.384175062178045" lon="13.395445346831886">
<time>2011-04-09T18:42:10.000+02:00</time>
<speed>0.0</speed>
<course>274.0</course>
<ele>82.0</ele>
</trkpt>
<trkpt lat="52.384175062178045" lon="13.395466804504006">
<time>2011-04-09T18:42:11.000+02:00</time>
<speed>0.0</speed>
<course>274.0</course>
<ele>82.0</ele>
</trkpt>
<trkpt lat="52.384164333341985" lon="13.395466804504006">
<time>2011-04-09T18:42:12.000+02:00</time>
<speed>0.0</speed>
<course>274.0</course>
<ele>83.0</ele>
</trkpt>
<trkpt lat="52.384164333341985" lon="13.395466804504006">
<time>2011-04-09T18:42:13.000+02:00</time>
<speed>0.0</speed>
<course>274.0</course>
<ele>83.0</ele>
</trkpt>
<trkpt lat="52.384164333341985" lon="13.395466804504006">
<time>2011-04-09T18:42:14.000+02:00</time>
<speed>0.0</speed>
<course>274.0</course>
<ele>83.0</ele>
</trkpt>
<trkpt lat="52.384164333341985" lon="13.395466804504006">
<time>2011-04-09T18:42:15.000+02:00</time>
<speed>0.0</speed>
<course>274.0</course>
<ele>83.0</ele>
</trkpt>
<trkpt lat="52.384153604505926" lon="13.395466804504006">
<time>2011-04-09T18:42:16.000+02:00</time>
<speed>0.0</speed>
<course>274.0</course>
<ele>83.0</ele>
</trkpt>
<trkpt lat="52.384153604505926" lon="13.395466804504006">
<time>2011-04-09T18:42:17.000+02:00</time>
<speed>0.0</speed>
<course>274.0</course>
<ele>83.0</ele>
</trkpt>
<trkpt lat="52.384153604505926" lon="13.395445346831886">
<time>2011-04-09T18:42:18.000+02:00</time>
<speed>0.0</speed>
<course>274.0</course>
<ele>83.0</ele>
</trkpt>
<trkpt lat="52.384153604505926" lon="13.395445346831886">
<time>2011-04-09T18:42:19.000+02:00</time>
<speed>0.0</speed>
<course>274.0</course>
<ele>83.0</ele>
</trkpt>
<trkpt lat="52.384153604505926" lon="13.395445346831886">
<time>2011-04-09T18:42:20.000+02:00</time>
<speed>0.0</speed>
<course>274.0</course>
<ele>83.0</ele>
</trkpt>
<trkpt lat="52.384153604505926" lon="13.395466804504006">
<time>2011-04-09T18:42:21.000+02:00</time>
<speed>0.0</speed>
<course>274.0</course>
<ele>83.0</ele>
</trkpt>
<trkpt lat="52.384153604505926" lon="13.395466804504006">
<time>2011-04-09T18:42:22.000+02:00</time>
<speed>0.0</speed>
<course>274.0</course>
<ele>83.0</ele>
</trkpt>
<trkpt lat="52.384153604505926" lon="13.395466804504006">
<time>2011-04-09T18:42:23.000+02:00</time>
<speed>0.0</speed>
<course>274.0</course>
<ele>83.0</ele>
</trkpt>
<trkpt lat="52.384153604505926" lon="13.395466804504006">
<time>2011-04-09T18:42:24.000+02:00</time>
<speed>0.0</speed>
<course>274.0</course>
<ele>83.0</ele>
</trkpt>
<trkpt lat="52.384164333341985" lon="13.395466804504006">
<time>2011-04-09T18:42:25.000+02:00</time>
<speed>0.0</speed>
<course>274.0</course>
<ele>83.0</ele>
</trkpt>
<trkpt lat="52.384164333341985" lon="13.395466804504006">
<time>2011-04-09T18:42:26.000+02:00</time>
<speed>0.0</speed>
<course>274.0</course>
<ele>83.0</ele>
</trkpt>
<trkpt lat="52.384164333341985" lon="13.395466804504006">
<time>2011-04-09T18:42:28.000+02:00</time>
<speed>0.0</speed>
<course>274.0</course>
<ele>83.0</ele>
</trkpt>
<trkpt lat="52.384164333341985" lon="13.395466804504006">
<time>2011-04-09T18:42:29.000+02:00</time>
<speed>0.0</speed>
<course>274.0</course>
<ele>83.0</ele>
</trkpt>
<trkpt lat="52.384164333341985" lon="13.395445346831886">
<time>2011-04-09T18:42:30.000+02:00</time>
<speed>0.0</speed>
<course>274.0</course>
<ele>84.0</ele>
</trkpt>
<trkpt lat="52.384164333341985" lon="13.395445346831886">
<time>2011-04-09T18:42:31.000+02:00</time>
<speed>0.0</speed>
<course>274.0</course>
<ele>84.0</ele>
</trkpt>
<trkpt lat="52.384164333341985" lon="13.395445346831886">
<time>2011-04-09T18:42:32.000+02:00</time>
<speed>0.0</speed>
<course>274.0</course>
<ele>84.0</ele>
</trkpt>
<trkpt lat="52.384164333341985" lon="13.395445346831886">
<time>2011-04-09T18:42:33.000+02:00</time>
<speed>0.0</speed>
<course>274.0</course>
<ele>84.0</ele>
</trkpt>
<trkpt lat="52.384164333341985" lon="13.395445346831886">
<time>2011-04-09T18:42:34.000+02:00</time>
<speed>0.0</speed>
<course>274.0</course>
<ele>84.0</ele>
</trkpt>
<trkpt lat="52.384164333341985" lon="13.395445346831886">
<time>2011-04-09T18:42:35.000+02:00</time>
<speed>0.0</speed>
<course>274.0</course>
<ele>84.0</ele>
</trkpt>
<trkpt lat="52.384164333341985" lon="13.395466804504006">
<time>2011-04-09T18:42:36.000+02:00</time>
<speed>0.0</speed>
<course>274.0</course>
<ele>84.0</ele>
</trkpt>
<trkpt lat="52.384153604505926" lon="13.395466804504006">
<time>2011-04-09T18:42:37.000+02:00</time>
<speed>0.0</speed>
<course>274.0</course>
<ele>84.0</ele>
</trkpt>
<trkpt lat="52.384153604505926" lon="13.395466804504006">
<time>2011-04-09T18:42:38.000+02:00</time>
<speed>0.0</speed>
<course>274.0</course>
<ele>84.0</ele>
</trkpt>
<trkpt lat="52.384153604505926" lon="13.395466804504006">
<time>2011-04-09T18:42:39.000+02:00</time>
<speed>0.0</speed>
<course>274.0</course>
<ele>84.0</ele>
</trkpt>
<trkpt lat="52.384153604505926" lon="13.395466804504006">
<time>2011-04-09T18:42:40.000+02:00</time>
<speed>0.0</speed>
<course>274.0</course>
<ele>84.0</ele>
</trkpt>
<trkpt lat="52.384153604505926" lon="13.395466804504006">
<time>2011-04-09T18:42:41.000+02:00</time>
<speed>0.0</speed>
<course>274.0</course>
<ele>84.0</ele>
</trkpt>
<trkpt lat="52.384153604505926" lon="13.395466804504006">
<time>2011-04-09T18:42:42.000+02:00</time>
<speed>0.0</speed>
<course>274.0</course>
<ele>84.0</ele>
</trkpt>
<trkpt lat="52.384153604505926" lon="13.395466804504006">
<time>2011-04-09T18:42:43.000+02:00</time>
<speed>0.0</speed>
<course>274.0</course>
<ele>84.0</ele>
</trkpt>
<trkpt lat="52.384153604505926" lon="13.395466804504006">
<time>2011-04-09T18:42:44.000+02:00</time>
<speed>0.0</speed>
<course>274.0</course>
<ele>84.0</ele>
</trkpt>
<trkpt lat="52.384153604505926" lon="13.395466804504006">
<time>2011-04-09T18:42:45.000+02:00</time>
<speed>0.0</speed>
<course>274.0</course>
<ele>84.0</ele>
</trkpt>
<trkpt lat="52.384153604505926" lon="13.395466804504006">
<time>2011-04-09T18:42:46.000+02:00</time>
<speed>0.0</speed>
<course>274.0</course>
<ele>84.0</ele>
</trkpt>
<trkpt lat="52.384153604505926" lon="13.395466804504006">
<time>2011-04-09T18:42:47.000+02:00</time>
<speed>0.0</speed>
<course>274.0</course>
<ele>84.0</ele>
</trkpt>
<trkpt lat="52.384153604505926" lon="13.395466804504006">
<time>2011-04-09T18:42:48.000+02:00</time>
<speed>0.0</speed>
<course>274.0</course>
<ele>84.0</ele>
</trkpt>
<trkpt lat="52.384153604505926" lon="13.395466804504006">
<time>2011-04-09T18:42:49.000+02:00</time>
<speed>0.0</speed>
<course>274.0</course>
<ele>84.0</ele>
</trkpt>
<trkpt lat="52.384153604505926" lon="13.395445346831886">
<time>2011-04-09T18:42:50.000+02:00</time>
<speed>0.0</speed>
<course>274.0</course>
<ele>84.0</ele>
</trkpt>
<trkpt lat="52.384153604505926" lon="13.395445346831886">
<time>2011-04-09T18:42:51.000+02:00</time>
<speed>0.0</speed>
<course>274.0</course>
<ele>84.0</ele>
</trkpt>
<trkpt lat="52.384153604505926" lon="13.395445346831886">
<time>2011-04-09T18:42:52.000+02:00</time>
<speed>0.0</speed>
<course>274.0</course>
<ele>84.0</ele>
</trkpt>
<trkpt lat="52.384153604505926" lon="13.395445346831886">
<time>2011-04-09T18:42:53.000+02:00</time>
<speed>0.0</speed>
<course>274.0</course>
<ele>84.0</ele>
</trkpt>
<trkpt lat="52.384153604505926" lon="13.395445346831886">
<time>2011-04-09T18:42:54.000+02:00</time>
<speed>0.0</speed>
<course>274.0</course>
<ele>84.0</ele>
</trkpt>
<trkpt lat="52.384153604505926" lon="13.395445346831886">
<time>2011-04-09T18:42:55.000+02:00</time>
<speed>0.0</speed>
<course>274.0</course>
<ele>84.0</ele>
</trkpt>
<trkpt lat="52.384153604505926" lon="13.395423889159767">
<time>2011-04-09T18:42:56.000+02:00</time>
<speed>0.0</speed>
<course>274.0</course>
<ele>84.0</ele>
</trkpt>
<trkpt lat="52.384153604505926" lon="13.395423889159767">
<time>2011-04-09T18:42:57.000+02:00</time>
<speed>0.0</speed>
<course>274.0</course>
<ele>84.0</ele>
</trkpt>
<trkpt lat="52.384153604505926" lon="13.395423889159767">
<time>2011-04-09T18:42:58.000+02:00</time>
<speed>0.0</speed>
<course>274.0</course>
<ele>84.0</ele>
</trkpt>
<trkpt lat="52.384153604505926" lon="13.395423889159767">
<time>2011-04-09T18:42:59.000+02:00</time>
<speed>0.0</speed>
<course>274.0</course>
<ele>84.0</ele>
</trkpt>
<trkpt lat="52.384153604505926" lon="13.395423889159767">
<time>2011-04-09T18:43:00.000+02:00</time>
<speed>0.0</speed>
<course>274.0</course>
<ele>84.0</ele>
</trkpt>
<trkpt lat="52.384153604505926" lon="13.395402431487648">
<time>2011-04-09T18:43:01.000+02:00</time>
<speed>0.0</speed>
<course>274.0</course>
<ele>84.0</ele>
</trkpt>
<trkpt lat="52.384153604505926" lon="13.395402431487648">
<time>2011-04-09T18:43:02.000+02:00</time>
<speed>0.0</speed>
<course>274.0</course>
<ele>84.0</ele>
</trkpt>
<trkpt lat="52.384153604505926" lon="13.395402431487648">
<time>2011-04-09T18:43:03.000+02:00</time>
<speed>0.0</speed>
<course>274.0</course>
<ele>84.0</ele>
</trkpt>
<trkpt lat="52.384153604505926" lon="13.395402431487648">
<time>2011-04-09T18:43:04.000+02:00</time>
<speed>0.0</speed>
<course>274.0</course>
<ele>84.0</ele>
</trkpt>
<trkpt lat="52.384153604505926" lon="13.395402431487648">
<time>2011-04-09T18:43:05.000+02:00</time>
<speed>0.0</speed>
<course>274.0</course>
<ele>85.0</ele>
</trkpt>
<trkpt lat="52.384153604505926" lon="13.395402431487648">
<time>2011-04-09T18:43:06.000+02:00</time>
<speed>0.0</speed>
<course>274.0</course>
<ele>85.0</ele>
</trkpt>
<trkpt lat="52.384153604505926" lon="13.395402431487648">
<time>2011-04-09T18:43:07.000+02:00</time>
<speed>0.0</speed>
<course>274.0</course>
<ele>85.0</ele>
</trkpt>
<trkpt lat="52.384153604505926" lon="13.395380973815529">
<time>2011-04-09T18:43:08.000+02:00</time>
<speed>0.0</speed>
<course>274.0</course>
<ele>85.0</ele>
</trkpt>
<trkpt lat="52.384153604505926" lon="13.395380973815529">
<time>2011-04-09T18:43:09.000+02:00</time>
<speed>0.0</speed>
<course>274.0</course>
<ele>85.0</ele>
</trkpt>
<trkpt lat="52.384153604505926" lon="13.395380973815529">
<time>2011-04-09T18:43:10.000+02:00</time>
<speed>0.0</speed>
<course>274.0</course>
<ele>85.0</ele>
</trkpt>
<trkpt lat="52.384153604505926" lon="13.395380973815529">
<time>2011-04-09T18:43:11.000+02:00</time>
<speed>0.0</speed>
<course>274.0</course>
<ele>85.0</ele>
</trkpt>
<trkpt lat="52.384153604505926" lon="13.395380973815529">
<time>2011-04-09T18:43:12.000+02:00</time>
<speed>0.0</speed>
<course>274.0</course>
<ele>85.0</ele>
</trkpt>
<trkpt lat="52.384153604505926" lon="13.395380973815529">
<time>2011-04-09T18:43:13.000+02:00</time>
<speed>0.0</speed>
<course>274.0</course>
<ele>85.0</ele>
</trkpt>
<trkpt lat="52.384153604505926" lon="13.395380973815529">
<time>2011-04-09T18:43:14.000+02:00</time>
<speed>0.0</speed>
<course>274.0</course>
<ele>85.0</ele>
</trkpt>
<trkpt lat="52.384153604505926" lon="13.395380973815529">
<time>2011-04-09T18:43:15.000+02:00</time>
<speed>0.0</speed>
<course>274.0</course>
<ele>85.0</ele>
</trkpt>
<trkpt lat="52.384153604505926" lon="13.395380973815529">
<time>2011-04-09T18:43:16.000+02:00</time>
<speed>0.0</speed>
<course>274.0</course>
<ele>85.0</ele>
</trkpt>
<trkpt lat="52.384153604505926" lon="13.395380973815529">
<time>2011-04-09T18:43:17.000+02:00</time>
<speed>0.0</speed>
<course>274.0</course>
<ele>85.0</ele>
</trkpt>
<trkpt lat="52.384153604505926" lon="13.395380973815529">
<time>2011-04-09T18:43:18.000+02:00</time>
<speed>0.0</speed>
<course>274.0</course>
<ele>85.0</ele>
</trkpt>
<trkpt lat="52.384153604505926" lon="13.39535951614341">
<time>2011-04-09T18:43:19.000+02:00</time>
<speed>0.0</speed>
<course>274.0</course>
<ele>85.0</ele>
</trkpt>
<trkpt lat="52.384164333341985" lon="13.39535951614341">
<time>2011-04-09T18:43:20.000+02:00</time>
<speed>0.0</speed>
<course>274.0</course>
<ele>85.0</ele>
</trkpt>
<trkpt lat="52.384164333341985" lon="13.39535951614341">
<time>2011-04-09T18:43:22.000+02:00</time>
<speed>0.0</speed>
<course>274.0</course>
<ele>85.0</ele>
</trkpt>
<trkpt lat="52.384164333341985" lon="13.39535951614341">
<time>2011-04-09T18:43:23.000+02:00</time>
<speed>0.0</speed>
<course>274.0</course>
<ele>85.0</ele>
</trkpt>
<trkpt lat="52.384164333341985" lon="13.39535951614341">
<time>2011-04-09T18:43:24.000+02:00</time>
<speed>0.0</speed>
<course>274.0</course>
<ele>85.0</ele>
</trkpt>
<trkpt lat="52.384175062178045" lon="13.39535951614341">
<time>2011-04-09T18:43:25.000+02:00</time>
<speed>0.0</speed>
<course>274.0</course>
<ele>85.0</ele>
</trkpt>
<trkpt lat="52.384175062178045" lon="13.39535951614341">
<time>2011-04-09T18:43:26.000+02:00</time>
<speed>0.0</speed>
<course>274.0</course>
<ele>85.0</ele>
</trkpt>
<trkpt lat="52.384175062178045" lon="13.39535951614341">
<time>2011-04-09T18:43:27.000+02:00</time>
<speed>0.0</speed>
<course>274.0</course>
<ele>85.0</ele>
</trkpt>
<trkpt lat="52.384175062178045" lon="13.39535951614341">
<time>2011-04-09T18:43:28.000+02:00</time>
<speed>0.0</speed>
<course>274.0</course>
<ele>85.0</ele>
</trkpt>
<trkpt lat="52.384175062178045" lon="13.39535951614341">
<time>2011-04-09T18:43:29.000+02:00</time>
<speed>0.0</speed>
<course>274.0</course>
<ele>85.0</ele>
</trkpt>
<trkpt lat="52.384185791014104" lon="13.39535951614341">
<time>2011-04-09T18:43:30.000+02:00</time>
<speed>0.0</speed>
<course>274.0</course>
<ele>85.0</ele>
</trkpt>
<trkpt lat="52.384185791014104" lon="13.39535951614341">
<time>2011-04-09T18:43:31.000+02:00</time>
<speed>0.0</speed>
<course>274.0</course>
<ele>85.0</ele>
</trkpt>
<trkpt lat="52.384185791014104" lon="13.39535951614341">
<time>2011-04-09T18:43:32.000+02:00</time>
<speed>0.0</speed>
<course>274.0</course>
<ele>85.0</ele>
</trkpt>
<trkpt lat="52.384185791014104" lon="13.39535951614341">
<time>2011-04-09T18:43:33.000+02:00</time>
<speed>0.0</speed>
<course>274.0</course>
<ele>86.0</ele>
</trkpt>
<trkpt lat="52.384185791014104" lon="13.39535951614341">
<time>2011-04-09T18:43:34.000+02:00</time>
<speed>0.0</speed>
<course>274.0</course>
<ele>86.0</ele>
</trkpt>
<trkpt lat="52.384185791014104" lon="13.39535951614341">
<time>2011-04-09T18:43:35.000+02:00</time>
<speed>0.0</speed>
<course>274.0</course>
<ele>86.0</ele>
</trkpt>
<trkpt lat="52.384196519850164" lon="13.39535951614341">
<time>2011-04-09T18:43:36.000+02:00</time>
<speed>0.0</speed>
<course>274.0</course>
<ele>86.0</ele>
</trkpt>
<trkpt lat="52.384196519850164" lon="13.39535951614341">
<time>2011-04-09T18:43:37.000+02:00</time>
<speed>0.0</speed>
<course>274.0</course>
<ele>86.0</ele>
</trkpt>
<trkpt lat="52.384196519850164" lon="13.39535951614341">
<time>2011-04-09T18:43:38.000+02:00</time>
<speed>0.0</speed>
<course>274.0</course>
<ele>86.0</ele>
</trkpt>
<trkpt lat="52.384196519850164" lon="13.395380973815529">
<time>2011-04-09T18:43:39.000+02:00</time>
<speed>0.0</speed>
<course>274.0</course>
<ele>86.0</ele>
</trkpt>
<trkpt lat="52.384196519850164" lon="13.395380973815529">
<time>2011-04-09T18:43:40.000+02:00</time>
<speed>0.0</speed>
<course>274.0</course>
<ele>86.0</ele>
</trkpt>
<trkpt lat="52.384196519850164" lon="13.395380973815529">
<time>2011-04-09T18:43:41.000+02:00</time>
<speed>0.0</speed>
<course>274.0</course>
<ele>86.0</ele>
</trkpt>
<trkpt lat="52.384196519850164" lon="13.395380973815529">
<time>2011-04-09T18:43:42.000+02:00</time>
<speed>0.0</speed>
<course>274.0</course>
<ele>86.0</ele>
</trkpt>
<trkpt lat="52.384196519850164" lon="13.395380973815529">
<time>2011-04-09T18:43:43.000+02:00</time>
<speed>0.0</speed>
<course>274.0</course>
<ele>86.0</ele>
</trkpt>
<trkpt lat="52.384196519850164" lon="13.395380973815529">
<time>2011-04-09T18:43:44.000+02:00</time>
<speed>0.0</speed>
<course>274.0</course>
<ele>86.0</ele>
</trkpt>
<trkpt lat="52.384196519850164" lon="13.395380973815529">
<time>2011-04-09T18:43:45.000+02:00</time>
<speed>0.0</speed>
<course>274.0</course>
<ele>86.0</ele>
</trkpt>
<trkpt lat="52.384207248686224" lon="13.395380973815529">
<time>2011-04-09T18:43:46.000+02:00</time>
<speed>0.0</speed>
<course>274.0</course>
<ele>86.0</ele>
</trkpt>
<trkpt lat="52.384207248686224" lon="13.395380973815529">
<time>2011-04-09T18:43:47.000+02:00</time>
<speed>0.0</speed>
<course>274.0</course>
<ele>86.0</ele>
</trkpt>
<trkpt lat="52.384207248686224" lon="13.395380973815529">
<time>2011-04-09T18:43:48.000+02:00</time>
<speed>0.0</speed>
<course>274.0</course>
<ele>86.0</ele>
</trkpt>
<trkpt lat="52.384207248686224" lon="13.39535951614341">
<time>2011-04-09T18:43:49.000+02:00</time>
<speed>0.0</speed>
<course>274.0</course>
<ele>86.0</ele>
</trkpt>
<trkpt lat="52.384207248686224" lon="13.39535951614341">
<time>2011-04-09T18:43:50.000+02:00</time>
<speed>0.0</speed>
<course>274.0</course>
<ele>86.0</ele>
</trkpt>
<trkpt lat="52.38421797752228" lon="13.39535951614341">
<time>2011-04-09T18:43:51.000+02:00</time>
<speed>0.0</speed>
<course>274.0</course>
<ele>86.0</ele>
</trkpt>
<trkpt lat="52.38421797752228" lon="13.39535951614341">
<time>2011-04-09T18:43:52.000+02:00</time>
<speed>0.0</speed>
<course>274.0</course>
<ele>87.0</ele>
</trkpt>
<trkpt lat="52.38421797752228" lon="13.39535951614341">
<time>2011-04-09T18:43:53.000+02:00</time>
<speed>0.0</speed>
<course>274.0</course>
<ele>87.0</ele>
</trkpt>
<trkpt lat="52.38421797752228" lon="13.39535951614341">
<time>2011-04-09T18:43:54.000+02:00</time>
<speed>0.0</speed>
<course>274.0</course>
<ele>87.0</ele>
</trkpt>
<trkpt lat="52.38422870635834" lon="13.39535951614341">
<time>2011-04-09T18:43:55.000+02:00</time>
<speed>0.0</speed>
<course>274.0</course>
<ele>87.0</ele>
</trkpt>
<trkpt lat="52.38422870635834" lon="13.39535951614341">
<time>2011-04-09T18:43:56.000+02:00</time>
<speed>0.0</speed>
<course>274.0</course>
<ele>87.0</ele>
</trkpt>
<trkpt lat="52.38422870635834" lon="13.39535951614341">
<time>2011-04-09T18:43:57.000+02:00</time>
<speed>0.0</speed>
<course>274.0</course>
<ele>87.0</ele>
</trkpt>
<trkpt lat="52.38422870635834" lon="13.39535951614341">
<time>2011-04-09T18:43:58.000+02:00</time>
<speed>0.0</speed>
<course>274.0</course>
<ele>87.0</ele>
</trkpt>
<trkpt lat="52.38422870635834" lon="13.39535951614341">
<time>2011-04-09T18:43:59.000+02:00</time>
<speed>0.0</speed>
<course>274.0</course>
<ele>87.0</ele>
</trkpt>
<trkpt lat="52.38422870635834" lon="13.39535951614341">
<time>2011-04-09T18:44:00.000+02:00</time>
<speed>0.0</speed>
<course>274.0</course>
<ele>87.0</ele>
</trkpt>
<trkpt lat="52.38422870635834" lon="13.39535951614341">
<time>2011-04-09T18:44:01.000+02:00</time>
<speed>0.0</speed>
<course>274.0</course>
<ele>87.0</ele>
</trkpt>
<trkpt lat="52.38422870635834" lon="13.39535951614341">
<time>2011-04-09T18:44:02.000+02:00</time>
<speed>0.0</speed>
<course>274.0</course>
<ele>87.0</ele>
</trkpt>
<trkpt lat="52.38422870635834" lon="13.39535951614341">
<time>2011-04-09T18:44:03.000+02:00</time>
<speed>0.0</speed>
<course>274.0</course>
<ele>87.0</ele>
</trkpt>
<trkpt lat="52.38422870635834" lon="13.39535951614341">
<time>2011-04-09T18:44:04.000+02:00</time>
<speed>0.0</speed>
<course>274.0</course>
<ele>87.0</ele>
</trkpt>
<trkpt lat="52.38422870635834" lon="13.39535951614341">
<time>2011-04-09T18:44:05.000+02:00</time>
<speed>0.0</speed>
<course>274.0</course>
<ele>87.0</ele>
</trkpt>
<trkpt lat="52.38422870635834" lon="13.39535951614341">
<time>2011-04-09T18:44:06.000+02:00</time>
<speed>0.0</speed>
<course>274.0</course>
<ele>87.0</ele>
</trkpt>
<trkpt lat="52.38422870635834" lon="13.39535951614341">
<time>2011-04-09T18:44:07.000+02:00</time>
<speed>0.0</speed>
<course>274.0</course>
<ele>87.0</ele>
</trkpt>
<trkpt lat="52.38422870635834" lon="13.39535951614341">
<time>2011-04-09T18:44:08.000+02:00</time>
<speed>0.2777778</speed>
<course>274.0</course>
<ele>87.0</ele>
</trkpt>
<trkpt lat="52.38422870635834" lon="13.39535951614341">
<time>2011-04-09T18:44:09.000+02:00</time>
<speed>0.2777778</speed>
<course>274.0</course>
<ele>87.0</ele>
</trkpt>
<trkpt lat="52.38422870635834" lon="13.39533805847129">
<time>2011-04-09T18:44:10.000+02:00</time>
<speed>0.2777778</speed>
<course>274.0</course>
<ele>87.0</ele>
</trkpt>
<trkpt lat="52.38422870635834" lon="13.39533805847129">
<time>2011-04-09T18:44:11.000+02:00</time>
<speed>0.2777778</speed>
<course>274.0</course>
<ele>87.0</ele>
</trkpt>
<trkpt lat="52.38422870635834" lon="13.39533805847129">
<time>2011-04-09T18:44:12.000+02:00</time>
<speed>0.2777778</speed>
<course>274.0</course>
<ele>88.0</ele>
</trkpt>
<trkpt lat="52.38422870635834" lon="13.39533805847129">
<time>2011-04-09T18:44:13.000+02:00</time>
<speed>0.0</speed>
<course>274.0</course>
<ele>88.0</ele>
</trkpt>
<trkpt lat="52.38422870635834" lon="13.39533805847129">
<time>2011-04-09T18:44:14.000+02:00</time>
<speed>0.0</speed>
<course>274.0</course>
<ele>88.0</ele>
</trkpt>
<trkpt lat="52.38422870635834" lon="13.39533805847129">
<time>2011-04-09T18:44:15.000+02:00</time>
<speed>0.0</speed>
<course>274.0</course>
<ele>88.0</ele>
</trkpt>
<trkpt lat="52.38422870635834" lon="13.39535951614341">
<time>2011-04-09T18:44:16.000+02:00</time>
<speed>0.0</speed>
<course>274.0</course>
<ele>88.0</ele>
</trkpt>
<trkpt lat="52.38422870635834" lon="13.39535951614341">
<time>2011-04-09T18:44:17.000+02:00</time>
<speed>0.0</speed>
<course>274.0</course>
<ele>88.0</ele>
</trkpt>
<trkpt lat="52.38422870635834" lon="13.39535951614341">
<time>2011-04-09T18:44:18.000+02:00</time>
<speed>0.0</speed>
<course>274.0</course>
<ele>88.0</ele>
</trkpt>
<trkpt lat="52.38421797752228" lon="13.39535951614341">
<time>2011-04-09T18:44:19.000+02:00</time>
<speed>0.0</speed>
<course>274.0</course>
<ele>88.0</ele>
</trkpt>
<trkpt lat="52.38421797752228" lon="13.39535951614341">
<time>2011-04-09T18:44:20.000+02:00</time>
<speed>0.0</speed>
<course>274.0</course>
<ele>88.0</ele>
</trkpt>
<trkpt lat="52.38421797752228" lon="13.39535951614341">
<time>2011-04-09T18:44:22.000+02:00</time>
<speed>0.0</speed>
<course>274.0</course>
<ele>88.0</ele>
</trkpt>
<trkpt lat="52.38421797752228" lon="13.39535951614341">
<time>2011-04-09T18:44:23.000+02:00</time>
<speed>0.0</speed>
<course>274.0</course>
<ele>88.0</ele>
</trkpt>
<trkpt lat="52.38421797752228" lon="13.39535951614341">
<time>2011-04-09T18:44:24.000+02:00</time>
<speed>0.0</speed>
<course>274.0</course>
<ele>88.0</ele>
</trkpt>
<trkpt lat="52.38421797752228" lon="13.39535951614341">
<time>2011-04-09T18:44:25.000+02:00</time>
<speed>0.0</speed>
<course>274.0</course>
<ele>88.0</ele>
</trkpt>
<trkpt lat="52.384207248686224" lon="13.39535951614341">
<time>2011-04-09T18:44:26.000+02:00</time>
<speed>0.0</speed>
<course>274.0</course>
<ele>88.0</ele>
</trkpt>
<trkpt lat="52.384207248686224" lon="13.39535951614341">
<time>2011-04-09T18:44:27.000+02:00</time>
<speed>0.0</speed>
<course>274.0</course>
<ele>88.0</ele>
</trkpt>
<trkpt lat="52.384207248686224" lon="13.39535951614341">
<time>2011-04-09T18:44:28.000+02:00</time>
<speed>0.0</speed>
<course>274.0</course>
<ele>88.0</ele>
</trkpt>
<trkpt lat="52.384207248686224" lon="13.39535951614341">
<time>2011-04-09T18:44:29.000+02:00</time>
<speed>0.0</speed>
<course>274.0</course>
<ele>88.0</ele>
</trkpt>
<trkpt lat="52.384196519850164" lon="13.395380973815529">
<time>2011-04-09T18:44:30.000+02:00</time>
<speed>0.0</speed>
<course>274.0</course>
<ele>88.0</ele>
</trkpt>
<trkpt lat="52.384196519850164" lon="13.395380973815529">
<time>2011-04-09T18:44:31.000+02:00</time>
<speed>0.0</speed>
<course>274.0</course>
<ele>88.0</ele>
</trkpt>
<trkpt lat="52.384196519850164" lon="13.395380973815529">
<time>2011-04-09T18:44:32.000+02:00</time>
<speed>0.0</speed>
<course>274.0</course>
<ele>88.0</ele>
</trkpt>
<trkpt lat="52.384196519850164" lon="13.395380973815529">
<time>2011-04-09T18:44:33.000+02:00</time>
<speed>0.0</speed>
<course>274.0</course>
<ele>88.0</ele>
</trkpt>
<trkpt lat="52.384196519850164" lon="13.395380973815529">
<time>2011-04-09T18:44:34.000+02:00</time>
<speed>0.0</speed>
<course>274.0</course>
<ele>88.0</ele>
</trkpt>
<trkpt lat="52.384185791014104" lon="13.395380973815529">
<time>2011-04-09T18:44:35.000+02:00</time>
<speed>0.0</speed>
<course>274.0</course>
<ele>88.0</ele>
</trkpt>
<trkpt lat="52.384185791014104" lon="13.395380973815529">
<time>2011-04-09T18:44:36.000+02:00</time>
<speed>0.0</speed>
<course>274.0</course>
<ele>88.0</ele>
</trkpt>
<trkpt lat="52.384185791014104" lon="13.395380973815529">
<time>2011-04-09T18:44:37.000+02:00</time>
<speed>0.0</speed>
<course>274.0</course>
<ele>88.0</ele>
</trkpt>
<trkpt lat="52.384185791014104" lon="13.395380973815529">
<time>2011-04-09T18:44:38.000+02:00</time>
<speed>0.0</speed>
<course>274.0</course>
<ele>88.0</ele>
</trkpt>
<trkpt lat="52.384185791014104" lon="13.395380973815529">
<time>2011-04-09T18:44:39.000+02:00</time>
<speed>0.0</speed>
<course>274.0</course>
<ele>88.0</ele>
</trkpt>
<trkpt lat="52.384185791014104" lon="13.395380973815529">
<time>2011-04-09T18:44:40.000+02:00</time>
<speed>0.0</speed>
<course>274.0</course>
<ele>88.0</ele>
</trkpt>
<trkpt lat="52.384185791014104" lon="13.395380973815529">
<time>2011-04-09T18:44:41.000+02:00</time>
<speed>0.0</speed>
<course>274.0</course>
<ele>88.0</ele>
</trkpt>
<trkpt lat="52.384185791014104" lon="13.395380973815529">
<time>2011-04-09T18:44:42.000+02:00</time>
<speed>0.0</speed>
<course>274.0</course>
<ele>88.0</ele>
</trkpt>
<trkpt lat="52.384185791014104" lon="13.395380973815529">
<time>2011-04-09T18:44:43.000+02:00</time>
<speed>0.0</speed>
<course>274.0</course>
<ele>88.0</ele>
</trkpt>
<trkpt lat="52.384185791014104" lon="13.395402431487648">
<time>2011-04-09T18:44:44.000+02:00</time>
<speed>0.0</speed>
<course>274.0</course>
<ele>88.0</ele>
</trkpt>
<trkpt lat="52.384185791014104" lon="13.395402431487648">
<time>2011-04-09T18:44:45.000+02:00</time>
<speed>0.0</speed>
<course>274.0</course>
<ele>88.0</ele>
</trkpt>
<trkpt lat="52.384185791014104" lon="13.395402431487648">
<time>2011-04-09T18:44:46.000+02:00</time>
<speed>0.0</speed>
<course>274.0</course>
<ele>88.0</ele>
</trkpt>
<trkpt lat="52.384185791014104" lon="13.395402431487648">
<time>2011-04-09T18:44:47.000+02:00</time>
<speed>0.0</speed>
<course>274.0</course>
<ele>88.0</ele>
</trkpt>
<trkpt lat="52.384185791014104" lon="13.395402431487648">
<time>2011-04-09T18:44:48.000+02:00</time>
<speed>0.0</speed>
<course>274.0</course>
<ele>88.0</ele>
</trkpt>
<trkpt lat="52.384175062178045" lon="13.395423889159767">
<time>2011-04-09T18:44:49.000+02:00</time>
<speed>0.0</speed>
<course>274.0</course>
<ele>88.0</ele>
</trkpt>
<trkpt lat="52.384175062178045" lon="13.395423889159767">
<time>2011-04-09T18:44:50.000+02:00</time>
<speed>0.0</speed>
<course>274.0</course>
<ele>88.0</ele>
</trkpt>
<trkpt lat="52.384175062178045" lon="13.395423889159767">
<time>2011-04-09T18:44:51.000+02:00</time>
<speed>0.0</speed>
<course>274.0</course>
<ele>88.0</ele>
</trkpt>
<trkpt lat="52.384175062178045" lon="13.395423889159767">
<time>2011-04-09T18:44:52.000+02:00</time>
<speed>0.0</speed>
<course>274.0</course>
<ele>89.0</ele>
</trkpt>
<trkpt lat="52.384175062178045" lon="13.395423889159767">
<time>2011-04-09T18:44:53.000+02:00</time>
<speed>0.0</speed>
<course>274.0</course>
<ele>89.0</ele>
</trkpt>
<trkpt lat="52.384175062178045" lon="13.395423889159767">
<time>2011-04-09T18:44:54.000+02:00</time>
<speed>0.0</speed>
<course>274.0</course>
<ele>89.0</ele>
</trkpt>
<trkpt lat="52.384175062178045" lon="13.395423889159767">
<time>2011-04-09T18:44:55.000+02:00</time>
<speed>0.0</speed>
<course>274.0</course>
<ele>89.0</ele>
</trkpt>
<trkpt lat="52.384175062178045" lon="13.395423889159767">
<time>2011-04-09T18:44:56.000+02:00</time>
<speed>0.0</speed>
<course>274.0</course>
<ele>89.0</ele>
</trkpt>
<trkpt lat="52.384175062178045" lon="13.395423889159767">
<time>2011-04-09T18:44:57.000+02:00</time>
<speed>0.0</speed>
<course>274.0</course>
<ele>89.0</ele>
</trkpt>
<trkpt lat="52.384175062178045" lon="13.395423889159767">
<time>2011-04-09T18:44:58.000+02:00</time>
<speed>0.0</speed>
<course>274.0</course>
<ele>89.0</ele>
</trkpt>
<trkpt lat="52.384164333341985" lon="13.395423889159767">
<time>2011-04-09T18:44:59.000+02:00</time>
<speed>0.0</speed>
<course>274.0</course>
<ele>89.0</ele>
</trkpt>
<trkpt lat="52.384164333341985" lon="13.395402431487648">
<time>2011-04-09T18:45:00.000+02:00</time>
<speed>0.0</speed>
<course>274.0</course>
<ele>89.0</ele>
</trkpt>
<trkpt lat="52.384153604505926" lon="13.395402431487648">
<time>2011-04-09T18:45:01.000+02:00</time>
<speed>0.0</speed>
<course>274.0</course>
<ele>89.0</ele>
</trkpt>
<trkpt lat="52.384153604505926" lon="13.395402431487648">
<time>2011-04-09T18:45:02.000+02:00</time>
<speed>0.0</speed>
<course>274.0</course>
<ele>89.0</ele>
</trkpt>
<trkpt lat="52.384142875669866" lon="13.395380973815529">
<time>2011-04-09T18:45:03.000+02:00</time>
<speed>0.0</speed>
<course>274.0</course>
<ele>89.0</ele>
</trkpt>
<trkpt lat="52.384142875669866" lon="13.395380973815529">
<time>2011-04-09T18:45:04.000+02:00</time>
<speed>0.0</speed>
<course>274.0</course>
<ele>89.0</ele>
</trkpt>
<trkpt lat="52.38413214683381" lon="13.395380973815529">
<time>2011-04-09T18:45:05.000+02:00</time>
<speed>0.0</speed>
<course>274.0</course>
<ele>89.0</ele>
</trkpt>
<trkpt lat="52.38413214683381" lon="13.395380973815529">
<time>2011-04-09T18:45:06.000+02:00</time>
<speed>0.0</speed>
<course>274.0</course>
<ele>89.0</ele>
</trkpt>
<trkpt lat="52.38412141799775" lon="13.395380973815529">
<time>2011-04-09T18:45:07.000+02:00</time>
<speed>0.0</speed>
<course>274.0</course>
<ele>89.0</ele>
</trkpt>
<trkpt lat="52.38412141799775" lon="13.39535951614341">
<time>2011-04-09T18:45:08.000+02:00</time>
<speed>0.0</speed>
<course>274.0</course>
<ele>89.0</ele>
</trkpt>
<trkpt lat="52.38411068916169" lon="13.39535951614341">
<time>2011-04-09T18:45:09.000+02:00</time>
<speed>0.0</speed>
<course>274.0</course>
<ele>89.0</ele>
</trkpt>
<trkpt lat="52.38411068916169" lon="13.39535951614341">
<time>2011-04-09T18:45:10.000+02:00</time>
<speed>0.0</speed>
<course>274.0</course>
<ele>89.0</ele>
</trkpt>
<trkpt lat="52.38411068916169" lon="13.39535951614341">
<time>2011-04-09T18:45:11.000+02:00</time>
<speed>0.0</speed>
<course>274.0</course>
<ele>89.0</ele>
</trkpt>
<trkpt lat="52.38411068916169" lon="13.39535951614341">
<time>2011-04-09T18:45:12.000+02:00</time>
<speed>0.0</speed>
<course>274.0</course>
<ele>89.0</ele>
</trkpt>
<trkpt lat="52.38409996032563" lon="13.39535951614341">
<time>2011-04-09T18:45:13.000+02:00</time>
<speed>0.0</speed>
<course>274.0</course>
<ele>89.0</ele>
</trkpt>
<trkpt lat="52.38409996032563" lon="13.39535951614341">
<time>2011-04-09T18:45:14.000+02:00</time>
<speed>0.0</speed>
<course>274.0</course>
<ele>89.0</ele>
</trkpt>
<trkpt lat="52.38409996032563" lon="13.39535951614341">
<time>2011-04-09T18:45:15.000+02:00</time>
<speed>0.0</speed>
<course>274.0</course>
<ele>89.0</ele>
</trkpt>
<trkpt lat="52.38409996032563" lon="13.39535951614341">
<time>2011-04-09T18:45:16.000+02:00</time>
<speed>0.0</speed>
<course>274.0</course>
<ele>89.0</ele>
</trkpt>
<trkpt lat="52.38409996032563" lon="13.39535951614341">
<time>2011-04-09T18:45:17.000+02:00</time>
<speed>0.0</speed>
<course>274.0</course>
<ele>89.0</ele>
</trkpt>
<trkpt lat="52.38409996032563" lon="13.39535951614341">
<time>2011-04-09T18:45:18.000+02:00</time>
<speed>0.0</speed>
<course>274.0</course>
<ele>89.0</ele>
</trkpt>
<trkpt lat="52.38411068916169" lon="13.39535951614341">
<time>2011-04-09T18:45:20.000+02:00</time>
<speed>0.0</speed>
<course>274.0</course>
<ele>89.0</ele>
</trkpt>
<trkpt lat="52.38411068916169" lon="13.39535951614341">
<time>2011-04-09T18:45:21.000+02:00</time>
<speed>0.0</speed>
<course>274.0</course>
<ele>89.0</ele>
</trkpt>
<trkpt lat="52.38411068916169" lon="13.39535951614341">
<time>2011-04-09T18:45:22.000+02:00</time>
<speed>0.0</speed>
<course>274.0</course>
<ele>89.0</ele>
</trkpt>
<trkpt lat="52.38412141799775" lon="13.39535951614341">
<time>2011-04-09T18:45:23.000+02:00</time>
<speed>0.0</speed>
<course>274.0</course>
<ele>89.0</ele>
</trkpt>
<trkpt lat="52.38412141799775" lon="13.39535951614341">
<time>2011-04-09T18:45:24.000+02:00</time>
<speed>0.0</speed>
<course>274.0</course>
<ele>89.0</ele>
</trkpt>
<trkpt lat="52.38413214683381" lon="13.39535951614341">
<time>2011-04-09T18:45:25.000+02:00</time>
<speed>0.0</speed>
<course>274.0</course>
<ele>89.0</ele>
</trkpt>
<trkpt lat="52.384142875669866" lon="13.39535951614341">
<time>2011-04-09T18:45:26.000+02:00</time>
<speed>0.0</speed>
<course>274.0</course>
<ele>89.0</ele>
</trkpt>
<trkpt lat="52.384142875669866" lon="13.39535951614341">
<time>2011-04-09T18:45:27.000+02:00</time>
<speed>0.0</speed>
<course>274.0</course>
<ele>90.0</ele>
</trkpt>
<trkpt lat="52.384153604505926" lon="13.39535951614341">
<time>2011-04-09T18:45:28.000+02:00</time>
<speed>0.0</speed>
<course>274.0</course>
<ele>90.0</ele>
</trkpt>
<trkpt lat="52.384164333341985" lon="13.39535951614341">
<time>2011-04-09T18:45:29.000+02:00</time>
<speed>0.0</speed>
<course>274.0</course>
<ele>90.0</ele>
</trkpt>
<trkpt lat="52.384164333341985" lon="13.39535951614341">
<time>2011-04-09T18:45:30.000+02:00</time>
<speed>0.0</speed>
<course>274.0</course>
<ele>90.0</ele>
</trkpt>
<trkpt lat="52.384175062178045" lon="13.39535951614341">
<time>2011-04-09T18:45:31.000+02:00</time>
<speed>0.0</speed>
<course>274.0</course>
<ele>90.0</ele>
</trkpt>
<trkpt lat="52.384175062178045" lon="13.39535951614341">
<time>2011-04-09T18:45:32.000+02:00</time>
<speed>0.0</speed>
<course>274.0</course>
<ele>90.0</ele>
</trkpt>
<trkpt lat="52.384175062178045" lon="13.39535951614341">
<time>2011-04-09T18:45:33.000+02:00</time>
<speed>0.0</speed>
<course>274.0</course>
<ele>90.0</ele>
</trkpt>
<trkpt lat="52.384185791014104" lon="13.39535951614341">
<time>2011-04-09T18:45:34.000+02:00</time>
<speed>0.0</speed>
<course>274.0</course>
<ele>90.0</ele>
</trkpt>
<trkpt lat="52.384185791014104" lon="13.39535951614341">
<time>2011-04-09T18:45:35.000+02:00</time>
<speed>0.0</speed>
<course>274.0</course>
<ele>90.0</ele>
</trkpt>
<trkpt lat="52.384185791014104" lon="13.39535951614341">
<time>2011-04-09T18:45:36.000+02:00</time>
<speed>0.0</speed>
<course>274.0</course>
<ele>90.0</ele>
</trkpt>
<trkpt lat="52.384196519850164" lon="13.39535951614341">
<time>2011-04-09T18:45:37.000+02:00</time>
<speed>0.0</speed>
<course>274.0</course>
<ele>90.0</ele>
</trkpt>
<trkpt lat="52.384196519850164" lon="13.39535951614341">
<time>2011-04-09T18:45:38.000+02:00</time>
<speed>0.0</speed>
<course>274.0</course>
<ele>90.0</ele>
</trkpt>
<trkpt lat="52.384196519850164" lon="13.39533805847129">
<time>2011-04-09T18:45:39.000+02:00</time>
<speed>0.0</speed>
<course>274.0</course>
<ele>90.0</ele>
</trkpt>
<trkpt lat="52.384196519850164" lon="13.39533805847129">
<time>2011-04-09T18:45:40.000+02:00</time>
<speed>0.0</speed>
<course>274.0</course>
<ele>90.0</ele>
</trkpt>
<trkpt lat="52.384196519850164" lon="13.39533805847129">
<time>2011-04-09T18:45:41.000+02:00</time>
<speed>0.0</speed>
<course>274.0</course>
<ele>90.0</ele>
</trkpt>
<trkpt lat="52.384196519850164" lon="13.39533805847129">
<time>2011-04-09T18:45:42.000+02:00</time>
<speed>0.0</speed>
<course>274.0</course>
<ele>90.0</ele>
</trkpt>
<trkpt lat="52.384196519850164" lon="13.39533805847129">
<time>2011-04-09T18:45:43.000+02:00</time>
<speed>0.0</speed>
<course>274.0</course>
<ele>90.0</ele>
</trkpt>
<trkpt lat="52.384196519850164" lon="13.39533805847129">
<time>2011-04-09T18:45:44.000+02:00</time>
<speed>0.0</speed>
<course>274.0</course>
<ele>90.0</ele>
</trkpt>
<trkpt lat="52.384196519850164" lon="13.39535951614341">
<time>2011-04-09T18:45:45.000+02:00</time>
<speed>0.0</speed>
<course>274.0</course>
<ele>90.0</ele>
</trkpt>
<trkpt lat="52.384196519850164" lon="13.39535951614341">
<time>2011-04-09T18:45:46.000+02:00</time>
<speed>0.0</speed>
<course>274.0</course>
<ele>90.0</ele>
</trkpt>
<trkpt lat="52.384185791014104" lon="13.39535951614341">
<time>2011-04-09T18:45:47.000+02:00</time>
<speed>0.0</speed>
<course>274.0</course>
<ele>90.0</ele>
</trkpt>
<trkpt lat="52.384185791014104" lon="13.39535951614341">
<time>2011-04-09T18:45:48.000+02:00</time>
<speed>0.0</speed>
<course>274.0</course>
<ele>90.0</ele>
</trkpt>
<trkpt lat="52.384185791014104" lon="13.39535951614341">
<time>2011-04-09T18:45:49.000+02:00</time>
<speed>0.0</speed>
<course>274.0</course>
<ele>90.0</ele>
</trkpt>
<trkpt lat="52.384175062178045" lon="13.39535951614341">
<time>2011-04-09T18:45:50.000+02:00</time>
<speed>0.0</speed>
<course>274.0</course>
<ele>90.0</ele>
</trkpt>
<trkpt lat="52.384175062178045" lon="13.39535951614341">
<time>2011-04-09T18:45:51.000+02:00</time>
<speed>0.0</speed>
<course>274.0</course>
<ele>90.0</ele>
</trkpt>
<trkpt lat="52.384164333341985" lon="13.39535951614341">
<time>2011-04-09T18:45:52.000+02:00</time>
<speed>0.0</speed>
<course>274.0</course>
<ele>90.0</ele>
</trkpt>
<trkpt lat="52.384164333341985" lon="13.39535951614341">
<time>2011-04-09T18:45:53.000+02:00</time>
<speed>0.0</speed>
<course>274.0</course>
<ele>90.0</ele>
</trkpt>
<trkpt lat="52.384153604505926" lon="13.395380973815529">
<time>2011-04-09T18:45:54.000+02:00</time>
<speed>0.0</speed>
<course>274.0</course>
<ele>90.0</ele>
</trkpt>
<trkpt lat="52.384153604505926" lon="13.395380973815529">
<time>2011-04-09T18:45:55.000+02:00</time>
<speed>0.0</speed>
<course>274.0</course>
<ele>90.0</ele>
</trkpt>
<trkpt lat="52.384142875669866" lon="13.395380973815529">
<time>2011-04-09T18:45:56.000+02:00</time>
<speed>0.0</speed>
<course>274.0</course>
<ele>90.0</ele>
</trkpt>
<trkpt lat="52.38413214683381" lon="13.395380973815529">
<time>2011-04-09T18:45:57.000+02:00</time>
<speed>0.0</speed>
<course>274.0</course>
<ele>91.0</ele>
</trkpt>
<trkpt lat="52.38413214683381" lon="13.395380973815529">
<time>2011-04-09T18:45:58.000+02:00</time>
<speed>0.0</speed>
<course>274.0</course>
<ele>91.0</ele>
</trkpt>
<trkpt lat="52.38412141799775" lon="13.395380973815529">
<time>2011-04-09T18:45:59.000+02:00</time>
<speed>0.0</speed>
<course>274.0</course>
<ele>91.0</ele>
</trkpt>
<trkpt lat="52.38412141799775" lon="13.395380973815529">
<time>2011-04-09T18:46:00.000+02:00</time>
<speed>0.0</speed>
<course>274.0</course>
<ele>91.0</ele>
</trkpt>
<trkpt lat="52.38411068916169" lon="13.395380973815529">
<time>2011-04-09T18:46:01.000+02:00</time>
<speed>0.0</speed>
<course>274.0</course>
<ele>91.0</ele>
</trkpt>
<trkpt lat="52.38411068916169" lon="13.395380973815529">
<time>2011-04-09T18:46:02.000+02:00</time>
<speed>0.0</speed>
<course>274.0</course>
<ele>91.0</ele>
</trkpt>
<trkpt lat="52.38409996032563" lon="13.395380973815529">
<time>2011-04-09T18:46:03.000+02:00</time>
<speed>0.0</speed>
<course>274.0</course>
<ele>91.0</ele>
</trkpt>
<trkpt lat="52.38408923148957" lon="13.395402431487648">
<time>2011-04-09T18:46:04.000+02:00</time>
<speed>0.0</speed>
<course>274.0</course>
<ele>91.0</ele>
</trkpt>
<trkpt lat="52.38408923148957" lon="13.395402431487648">
<time>2011-04-09T18:46:05.000+02:00</time>
<speed>0.0</speed>
<course>274.0</course>
<ele>91.0</ele>
</trkpt>
<trkpt lat="52.38407850265351" lon="13.395402431487648">
<time>2011-04-09T18:46:06.000+02:00</time>
<speed>0.0</speed>
<course>274.0</course>
<ele>91.0</ele>
</trkpt>
<trkpt lat="52.38407850265351" lon="13.395402431487648">
<time>2011-04-09T18:46:07.000+02:00</time>
<speed>0.0</speed>
<course>274.0</course>
<ele>91.0</ele>
</trkpt>
<trkpt lat="52.38406777381745" lon="13.395402431487648">
<time>2011-04-09T18:46:08.000+02:00</time>
<speed>0.0</speed>
<course>274.0</course>
<ele>91.0</ele>
</trkpt>
<trkpt lat="52.38406777381745" lon="13.395402431487648">
<time>2011-04-09T18:46:09.000+02:00</time>
<speed>0.0</speed>
<course>274.0</course>
<ele>91.0</ele>
</trkpt>
<trkpt lat="52.38406777381745" lon="13.395402431487648">
<time>2011-04-09T18:46:10.000+02:00</time>
<speed>0.0</speed>
<course>274.0</course>
<ele>91.0</ele>
</trkpt>
<trkpt lat="52.38405704498139" lon="13.395402431487648">
<time>2011-04-09T18:46:11.000+02:00</time>
<speed>0.0</speed>
<course>274.0</course>
<ele>91.0</ele>
</trkpt>
<trkpt lat="52.38405704498139" lon="13.395402431487648">
<time>2011-04-09T18:46:12.000+02:00</time>
<speed>0.0</speed>
<course>274.0</course>
<ele>91.0</ele>
</trkpt>
<trkpt lat="52.38405704498139" lon="13.395380973815529">
<time>2011-04-09T18:46:13.000+02:00</time>
<speed>0.0</speed>
<course>274.0</course>
<ele>91.0</ele>
</trkpt>
<trkpt lat="52.38405704498139" lon="13.395380973815529">
<time>2011-04-09T18:46:14.000+02:00</time>
<speed>0.0</speed>
<course>274.0</course>
<ele>91.0</ele>
</trkpt>
<trkpt lat="52.38405704498139" lon="13.395380973815529">
<time>2011-04-09T18:46:15.000+02:00</time>
<speed>0.0</speed>
<course>274.0</course>
<ele>91.0</ele>
</trkpt>
<trkpt lat="52.38404631614533" lon="13.395380973815529">
<time>2011-04-09T18:46:16.000+02:00</time>
<speed>0.0</speed>
<course>274.0</course>
<ele>91.0</ele>
</trkpt>
<trkpt lat="52.38404631614533" lon="13.395380973815529">
<time>2011-04-09T18:46:17.000+02:00</time>
<speed>0.0</speed>
<course>274.0</course>
<ele>91.0</ele>
</trkpt>
<trkpt lat="52.38404631614533" lon="13.395380973815529">
<time>2011-04-09T18:46:18.000+02:00</time>
<speed>0.0</speed>
<course>274.0</course>
<ele>91.0</ele>
</trkpt>
<trkpt lat="52.38404631614533" lon="13.395380973815529">
<time>2011-04-09T18:46:19.000+02:00</time>
<speed>0.0</speed>
<course>274.0</course>
<ele>91.0</ele>
</trkpt>
<trkpt lat="52.38404631614533" lon="13.395380973815529">
<time>2011-04-09T18:46:20.000+02:00</time>
<speed>0.0</speed>
<course>274.0</course>
<ele>91.0</ele>
</trkpt>
<trkpt lat="52.38404631614533" lon="13.395380973815529">
<time>2011-04-09T18:46:22.000+02:00</time>
<speed>0.0</speed>
<course>274.0</course>
<ele>91.0</ele>
</trkpt>
<trkpt lat="52.38404631614533" lon="13.395380973815529">
<time>2011-04-09T18:46:23.000+02:00</time>
<speed>0.0</speed>
<course>274.0</course>
<ele>91.0</ele>
</trkpt>
<trkpt lat="52.38404631614533" lon="13.395380973815529">
<time>2011-04-09T18:46:24.000+02:00</time>
<speed>0.0</speed>
<course>274.0</course>
<ele>91.0</ele>
</trkpt>
<trkpt lat="52.38404631614533" lon="13.395380973815529">
<time>2011-04-09T18:46:25.000+02:00</time>
<speed>0.0</speed>
<course>274.0</course>
<ele>91.0</ele>
</trkpt>
<trkpt lat="52.38404631614533" lon="13.395380973815529">
<time>2011-04-09T18:46:26.000+02:00</time>
<speed>0.0</speed>
<course>274.0</course>
<ele>91.0</ele>
</trkpt>
<trkpt lat="52.38404631614533" lon="13.395380973815529">
<time>2011-04-09T18:46:27.000+02:00</time>
<speed>0.0</speed>
<course>274.0</course>
<ele>91.0</ele>
</trkpt>
<trkpt lat="52.38404631614533" lon="13.395380973815529">
<time>2011-04-09T18:46:28.000+02:00</time>
<speed>0.0</speed>
<course>274.0</course>
<ele>91.0</ele>
</trkpt>
<trkpt lat="52.38404631614533" lon="13.395380973815529">
<time>2011-04-09T18:46:29.000+02:00</time>
<speed>0.0</speed>
<course>274.0</course>
<ele>91.0</ele>
</trkpt>
<trkpt lat="52.38404631614533" lon="13.395380973815529">
<time>2011-04-09T18:46:30.000+02:00</time>
<speed>0.0</speed>
<course>274.0</course>
<ele>91.0</ele>
</trkpt>
<trkpt lat="52.38404631614533" lon="13.395380973815529">
<time>2011-04-09T18:46:31.000+02:00</time>
<speed>0.0</speed>
<course>274.0</course>
<ele>91.0</ele>
</trkpt>
<trkpt lat="52.38403558730927" lon="13.395380973815529">
<time>2011-04-09T18:46:32.000+02:00</time>
<speed>0.0</speed>
<course>274.0</course>
<ele>91.0</ele>
</trkpt>
<trkpt lat="52.38403558730927" lon="13.395380973815529">
<time>2011-04-09T18:46:33.000+02:00</time>
<speed>0.0</speed>
<course>274.0</course>
<ele>91.0</ele>
</trkpt>
<trkpt lat="52.38403558730927" lon="13.395380973815529">
<time>2011-04-09T18:46:34.000+02:00</time>
<speed>0.0</speed>
<course>274.0</course>
<ele>91.0</ele>
</trkpt>
<trkpt lat="52.38403558730927" lon="13.395380973815529">
<time>2011-04-09T18:46:35.000+02:00</time>
<speed>0.0</speed>
<course>274.0</course>
<ele>91.0</ele>
</trkpt>
<trkpt lat="52.38403558730927" lon="13.395380973815529">
<time>2011-04-09T18:46:36.000+02:00</time>
<speed>0.0</speed>
<course>274.0</course>
<ele>91.0</ele>
</trkpt>
<trkpt lat="52.38403558730927" lon="13.395380973815529">
<time>2011-04-09T18:46:37.000+02:00</time>
<speed>0.0</speed>
<course>274.0</course>
<ele>91.0</ele>
</trkpt>
<trkpt lat="52.38403558730927" lon="13.395380973815529">
<time>2011-04-09T18:46:38.000+02:00</time>
<speed>0.0</speed>
<course>274.0</course>
<ele>91.0</ele>
</trkpt>
<trkpt lat="52.38403558730927" lon="13.395380973815529">
<time>2011-04-09T18:46:39.000+02:00</time>
<speed>0.0</speed>
<course>274.0</course>
<ele>91.0</ele>
</trkpt>
<trkpt lat="52.38403558730927" lon="13.395380973815529">
<time>2011-04-09T18:46:40.000+02:00</time>
<speed>0.0</speed>
<course>274.0</course>
<ele>91.0</ele>
</trkpt>
<trkpt lat="52.38403558730927" lon="13.395380973815529">
<time>2011-04-09T18:46:41.000+02:00</time>
<speed>0.0</speed>
<course>274.0</course>
<ele>92.0</ele>
</trkpt>
<trkpt lat="52.38403558730927" lon="13.395380973815529">
<time>2011-04-09T18:46:42.000+02:00</time>
<speed>0.0</speed>
<course>274.0</course>
<ele>92.0</ele>
</trkpt>
<trkpt lat="52.38403558730927" lon="13.395380973815529">
<time>2011-04-09T18:46:43.000+02:00</time>
<speed>0.0</speed>
<course>274.0</course>
<ele>92.0</ele>
</trkpt>
<trkpt lat="52.38403558730927" lon="13.395380973815529">
<time>2011-04-09T18:46:44.000+02:00</time>
<speed>0.0</speed>
<course>274.0</course>
<ele>92.0</ele>
</trkpt>
<trkpt lat="52.38403558730927" lon="13.39535951614341">
<time>2011-04-09T18:46:45.000+02:00</time>
<speed>0.0</speed>
<course>274.0</course>
<ele>92.0</ele>
</trkpt>
<trkpt lat="52.38403558730927" lon="13.39535951614341">
<time>2011-04-09T18:46:46.000+02:00</time>
<speed>0.0</speed>
<course>274.0</course>
<ele>92.0</ele>
</trkpt>
<trkpt lat="52.38403558730927" lon="13.39535951614341">
<time>2011-04-09T18:46:47.000+02:00</time>
<speed>0.0</speed>
<course>274.0</course>
<ele>92.0</ele>
</trkpt>
<trkpt lat="52.38403558730927" lon="13.39535951614341">
<time>2011-04-09T18:46:48.000+02:00</time>
<speed>0.0</speed>
<course>274.0</course>
<ele>92.0</ele>
</trkpt>
<trkpt lat="52.38403558730927" lon="13.39535951614341">
<time>2011-04-09T18:46:49.000+02:00</time>
<speed>0.0</speed>
<course>274.0</course>
<ele>92.0</ele>
</trkpt>
<trkpt lat="52.38403558730927" lon="13.39535951614341">
<time>2011-04-09T18:46:50.000+02:00</time>
<speed>0.0</speed>
<course>274.0</course>
<ele>92.0</ele>
</trkpt>
<trkpt lat="52.38403558730927" lon="13.39535951614341">
<time>2011-04-09T18:46:51.000+02:00</time>
<speed>0.0</speed>
<course>274.0</course>
<ele>92.0</ele>
</trkpt>
<trkpt lat="52.38403558730927" lon="13.39535951614341">
<time>2011-04-09T18:46:52.000+02:00</time>
<speed>0.0</speed>
<course>274.0</course>
<ele>92.0</ele>
</trkpt>
<trkpt lat="52.38403558730927" lon="13.39535951614341">
<time>2011-04-09T18:46:53.000+02:00</time>
<speed>0.0</speed>
<course>274.0</course>
<ele>92.0</ele>
</trkpt>
<trkpt lat="52.38403558730927" lon="13.39535951614341">
<time>2011-04-09T18:46:54.000+02:00</time>
<speed>0.0</speed>
<course>274.0</course>
<ele>92.0</ele>
</trkpt>
<trkpt lat="52.38403558730927" lon="13.39535951614341">
<time>2011-04-09T18:46:55.000+02:00</time>
<speed>0.0</speed>
<course>274.0</course>
<ele>92.0</ele>
</trkpt>
<trkpt lat="52.38403558730927" lon="13.39535951614341">
<time>2011-04-09T18:46:56.000+02:00</time>
<speed>0.0</speed>
<course>274.0</course>
<ele>92.0</ele>
</trkpt>
<trkpt lat="52.38403558730927" lon="13.39535951614341">
<time>2011-04-09T18:46:57.000+02:00</time>
<speed>0.0</speed>
<course>274.0</course>
<ele>92.0</ele>
</trkpt>
<trkpt lat="52.38403558730927" lon="13.39535951614341">
<time>2011-04-09T18:46:58.000+02:00</time>
<speed>0.0</speed>
<course>274.0</course>
<ele>92.0</ele>
</trkpt>
<trkpt lat="52.38403558730927" lon="13.39535951614341">
<time>2011-04-09T18:46:59.000+02:00</time>
<speed>0.0</speed>
<course>274.0</course>
<ele>92.0</ele>
</trkpt>
<trkpt lat="52.38403558730927" lon="13.39535951614341">
<time>2011-04-09T18:47:00.000+02:00</time>
<speed>0.0</speed>
<course>274.0</course>
<ele>92.0</ele>
</trkpt>
<trkpt lat="52.38403558730927" lon="13.39535951614341">
<time>2011-04-09T18:47:01.000+02:00</time>
<speed>0.0</speed>
<course>274.0</course>
<ele>92.0</ele>
</trkpt>
<trkpt lat="52.38403558730927" lon="13.39535951614341">
<time>2011-04-09T18:47:02.000+02:00</time>
<speed>0.0</speed>
<course>274.0</course>
<ele>92.0</ele>
</trkpt>
<trkpt lat="52.38403558730927" lon="13.39535951614341">
<time>2011-04-09T18:47:03.000+02:00</time>
<speed>0.0</speed>
<course>274.0</course>
<ele>92.0</ele>
</trkpt>
<trkpt lat="52.38403558730927" lon="13.39535951614341">
<time>2011-04-09T18:47:04.000+02:00</time>
<speed>0.0</speed>
<course>274.0</course>
<ele>92.0</ele>
</trkpt>
<trkpt lat="52.38403558730927" lon="13.39535951614341">
<time>2011-04-09T18:47:05.000+02:00</time>
<speed>0.0</speed>
<course>274.0</course>
<ele>92.0</ele>
</trkpt>
<trkpt lat="52.38403558730927" lon="13.39535951614341">
<time>2011-04-09T18:47:06.000+02:00</time>
<speed>0.0</speed>
<course>274.0</course>
<ele>92.0</ele>
</trkpt>
<trkpt lat="52.38403558730927" lon="13.39535951614341">
<time>2011-04-09T18:47:07.000+02:00</time>
<speed>0.0</speed>
<course>274.0</course>
<ele>92.0</ele>
</trkpt>
<trkpt lat="52.38403558730927" lon="13.39535951614341">
<time>2011-04-09T18:47:08.000+02:00</time>
<speed>0.0</speed>
<course>274.0</course>
<ele>92.0</ele>
</trkpt>
<trkpt lat="52.38403558730927" lon="13.39535951614341">
<time>2011-04-09T18:47:09.000+02:00</time>
<speed>0.0</speed>
<course>274.0</course>
<ele>92.0</ele>
</trkpt>
<trkpt lat="52.38402485847321" lon="13.39535951614341">
<time>2011-04-09T18:47:10.000+02:00</time>
<speed>0.0</speed>
<course>274.0</course>
<ele>92.0</ele>
</trkpt>
<trkpt lat="52.38402485847321" lon="13.39535951614341">
<time>2011-04-09T18:47:11.000+02:00</time>
<speed>0.0</speed>
<course>274.0</course>
<ele>92.0</ele>
</trkpt>
<trkpt lat="52.38402485847321" lon="13.39535951614341">
<time>2011-04-09T18:47:12.000+02:00</time>
<speed>0.0</speed>
<course>274.0</course>
<ele>92.0</ele>
</trkpt>
<trkpt lat="52.38402485847321" lon="13.39535951614341">
<time>2011-04-09T18:47:13.000+02:00</time>
<speed>0.0</speed>
<course>274.0</course>
<ele>92.0</ele>
</trkpt>
<trkpt lat="52.38402485847321" lon="13.39535951614341">
<time>2011-04-09T18:47:14.000+02:00</time>
<speed>0.0</speed>
<course>274.0</course>
<ele>92.0</ele>
</trkpt>
<trkpt lat="52.38402485847321" lon="13.39535951614341">
<time>2011-04-09T18:47:15.000+02:00</time>
<speed>0.0</speed>
<course>274.0</course>
<ele>92.0</ele>
</trkpt>
<trkpt lat="52.38402485847321" lon="13.395380973815529">
<time>2011-04-09T18:47:16.000+02:00</time>
<speed>0.0</speed>
<course>274.0</course>
<ele>92.0</ele>
</trkpt>
<trkpt lat="52.38402485847321" lon="13.395380973815529">
<time>2011-04-09T18:47:17.000+02:00</time>
<speed>0.0</speed>
<course>274.0</course>
<ele>92.0</ele>
</trkpt>
<trkpt lat="52.38402485847321" lon="13.395380973815529">
<time>2011-04-09T18:47:18.000+02:00</time>
<speed>0.0</speed>
<course>274.0</course>
<ele>92.0</ele>
</trkpt>
<trkpt lat="52.38402485847321" lon="13.395380973815529">
<time>2011-04-09T18:47:19.000+02:00</time>
<speed>0.0</speed>
<course>274.0</course>
<ele>92.0</ele>
</trkpt>
<trkpt lat="52.38402485847321" lon="13.395380973815529">
<time>2011-04-09T18:47:20.000+02:00</time>
<speed>0.0</speed>
<course>274.0</course>
<ele>92.0</ele>
</trkpt>
<trkpt lat="52.38402485847321" lon="13.395380973815529">
<time>2011-04-09T18:47:22.000+02:00</time>
<speed>0.0</speed>
<course>274.0</course>
<ele>92.0</ele>
</trkpt>
<trkpt lat="52.38402485847321" lon="13.395380973815529">
<time>2011-04-09T18:47:23.000+02:00</time>
<speed>0.0</speed>
<course>274.0</course>
<ele>92.0</ele>
</trkpt>
<trkpt lat="52.38402485847321" lon="13.395380973815529">
<time>2011-04-09T18:47:24.000+02:00</time>
<speed>0.0</speed>
<course>274.0</course>
<ele>92.0</ele>
</trkpt>
<trkpt lat="52.38402485847321" lon="13.395380973815529">
<time>2011-04-09T18:47:25.000+02:00</time>
<speed>0.0</speed>
<course>274.0</course>
<ele>92.0</ele>
</trkpt>
<trkpt lat="52.38402485847321" lon="13.395380973815529">
<time>2011-04-09T18:47:26.000+02:00</time>
<speed>0.0</speed>
<course>274.0</course>
<ele>92.0</ele>
</trkpt>
<trkpt lat="52.38402485847321" lon="13.395380973815529">
<time>2011-04-09T18:47:27.000+02:00</time>
<speed>0.0</speed>
<course>274.0</course>
<ele>92.0</ele>
</trkpt>
<trkpt lat="52.38402485847321" lon="13.395380973815529">
<time>2011-04-09T18:47:28.000+02:00</time>
<speed>0.0</speed>
<course>274.0</course>
<ele>92.0</ele>
</trkpt>
<trkpt lat="52.38402485847321" lon="13.395380973815529">
<time>2011-04-09T18:47:29.000+02:00</time>
<speed>0.0</speed>
<course>274.0</course>
<ele>92.0</ele>
</trkpt>
<trkpt lat="52.38402485847321" lon="13.395380973815529">
<time>2011-04-09T18:47:30.000+02:00</time>
<speed>0.0</speed>
<course>274.0</course>
<ele>92.0</ele>
</trkpt>
<trkpt lat="52.38402485847321" lon="13.395380973815529">
<time>2011-04-09T18:47:31.000+02:00</time>
<speed>0.0</speed>
<course>274.0</course>
<ele>92.0</ele>
</trkpt>
<trkpt lat="52.38402485847321" lon="13.395380973815529">
<time>2011-04-09T18:47:32.000+02:00</time>
<speed>0.0</speed>
<course>274.0</course>
<ele>92.0</ele>
</trkpt>
<trkpt lat="52.38402485847321" lon="13.395380973815529">
<time>2011-04-09T18:47:33.000+02:00</time>
<speed>0.0</speed>
<course>274.0</course>
<ele>92.0</ele>
</trkpt>
<trkpt lat="52.38402485847321" lon="13.395380973815529">
<time>2011-04-09T18:47:34.000+02:00</time>
<speed>0.0</speed>
<course>274.0</course>
<ele>92.0</ele>
</trkpt>
<trkpt lat="52.38402485847321" lon="13.395380973815529">
<time>2011-04-09T18:47:35.000+02:00</time>
<speed>0.0</speed>
<course>274.0</course>
<ele>92.0</ele>
</trkpt>
<trkpt lat="52.38402485847321" lon="13.395380973815529">
<time>2011-04-09T18:47:36.000+02:00</time>
<speed>0.0</speed>
<course>274.0</course>
<ele>92.0</ele>
</trkpt>
<trkpt lat="52.38402485847321" lon="13.395380973815529">
<time>2011-04-09T18:47:37.000+02:00</time>
<speed>0.0</speed>
<course>274.0</course>
<ele>92.0</ele>
</trkpt>
<trkpt lat="52.38402485847321" lon="13.395380973815529">
<time>2011-04-09T18:47:38.000+02:00</time>
<speed>0.0</speed>
<course>274.0</course>
<ele>92.0</ele>
</trkpt>
<trkpt lat="52.38402485847321" lon="13.395380973815529">
<time>2011-04-09T18:47:39.000+02:00</time>
<speed>0.0</speed>
<course>274.0</course>
<ele>92.0</ele>
</trkpt>
<trkpt lat="52.38402485847321" lon="13.395380973815529">
<time>2011-04-09T18:47:40.000+02:00</time>
<speed>0.0</speed>
<course>274.0</course>
<ele>92.0</ele>
</trkpt>
<trkpt lat="52.38402485847321" lon="13.395380973815529">
<time>2011-04-09T18:47:41.000+02:00</time>
<speed>0.0</speed>
<course>274.0</course>
<ele>92.0</ele>
</trkpt>
<trkpt lat="52.38402485847321" lon="13.395380973815529">
<time>2011-04-09T18:47:42.000+02:00</time>
<speed>0.0</speed>
<course>274.0</course>
<ele>92.0</ele>
</trkpt>
<trkpt lat="52.38402485847321" lon="13.395380973815529">
<time>2011-04-09T18:47:43.000+02:00</time>
<speed>0.0</speed>
<course>274.0</course>
<ele>92.0</ele>
</trkpt>
<trkpt lat="52.38402485847321" lon="13.395380973815529">
<time>2011-04-09T18:47:44.000+02:00</time>
<speed>0.0</speed>
<course>274.0</course>
<ele>92.0</ele>
</trkpt>
<trkpt lat="52.38402485847321" lon="13.395380973815529">
<time>2011-04-09T18:47:45.000+02:00</time>
<speed>0.0</speed>
<course>274.0</course>
<ele>92.0</ele>
</trkpt>
<trkpt lat="52.38402485847321" lon="13.395380973815529">
<time>2011-04-09T18:47:46.000+02:00</time>
<speed>0.0</speed>
<course>274.0</course>
<ele>92.0</ele>
</trkpt>
<trkpt lat="52.38402485847321" lon="13.395380973815529">
<time>2011-04-09T18:47:47.000+02:00</time>
<speed>0.0</speed>
<course>274.0</course>
<ele>92.0</ele>
</trkpt>
<trkpt lat="52.38402485847321" lon="13.395380973815529">
<time>2011-04-09T18:47:48.000+02:00</time>
<speed>0.0</speed>
<course>274.0</course>
<ele>92.0</ele>
</trkpt>
<trkpt lat="52.38402485847321" lon="13.395380973815529">
<time>2011-04-09T18:47:49.000+02:00</time>
<speed>0.0</speed>
<course>274.0</course>
<ele>92.0</ele>
</trkpt>
<trkpt lat="52.38402485847321" lon="13.395402431487648">
<time>2011-04-09T18:47:50.000+02:00</time>
<speed>0.0</speed>
<course>274.0</course>
<ele>92.0</ele>
</trkpt>
<trkpt lat="52.38402485847321" lon="13.395402431487648">
<time>2011-04-09T18:47:51.000+02:00</time>
<speed>0.0</speed>
<course>274.0</course>
<ele>92.0</ele>
</trkpt>
<trkpt lat="52.38402485847321" lon="13.395402431487648">
<time>2011-04-09T18:47:52.000+02:00</time>
<speed>0.0</speed>
<course>274.0</course>
<ele>92.0</ele>
</trkpt>
<trkpt lat="52.38403558730927" lon="13.395402431487648">
<time>2011-04-09T18:47:53.000+02:00</time>
<speed>0.0</speed>
<course>274.0</course>
<ele>92.0</ele>
</trkpt>
<trkpt lat="52.38403558730927" lon="13.395402431487648">
<time>2011-04-09T18:47:54.000+02:00</time>
<speed>0.0</speed>
<course>274.0</course>
<ele>92.0</ele>
</trkpt>
<trkpt lat="52.38403558730927" lon="13.395402431487648">
<time>2011-04-09T18:47:55.000+02:00</time>
<speed>0.0</speed>
<course>274.0</course>
<ele>92.0</ele>
</trkpt>
<trkpt lat="52.38403558730927" lon="13.395402431487648">
<time>2011-04-09T18:47:56.000+02:00</time>
<speed>0.0</speed>
<course>274.0</course>
<ele>92.0</ele>
</trkpt>
<trkpt lat="52.38403558730927" lon="13.395402431487648">
<time>2011-04-09T18:47:57.000+02:00</time>
<speed>0.0</speed>
<course>274.0</course>
<ele>92.0</ele>
</trkpt>
<trkpt lat="52.38403558730927" lon="13.395402431487648">
<time>2011-04-09T18:47:58.000+02:00</time>
<speed>0.0</speed>
<course>274.0</course>
<ele>92.0</ele>
</trkpt>
<trkpt lat="52.38403558730927" lon="13.395402431487648">
<time>2011-04-09T18:47:59.000+02:00</time>
<speed>0.0</speed>
<course>274.0</course>
<ele>92.0</ele>
</trkpt>
<trkpt lat="52.38404631614533" lon="13.395402431487648">
<time>2011-04-09T18:48:00.000+02:00</time>
<speed>0.0</speed>
<course>274.0</course>
<ele>92.0</ele>
</trkpt>
<trkpt lat="52.38404631614533" lon="13.395380973815529">
<time>2011-04-09T18:48:01.000+02:00</time>
<speed>0.0</speed>
<course>274.0</course>
<ele>92.0</ele>
</trkpt>
<trkpt lat="52.38404631614533" lon="13.395380973815529">
<time>2011-04-09T18:48:02.000+02:00</time>
<speed>0.0</speed>
<course>274.0</course>
<ele>92.0</ele>
</trkpt>
<trkpt lat="52.38404631614533" lon="13.395380973815529">
<time>2011-04-09T18:48:03.000+02:00</time>
<speed>0.0</speed>
<course>274.0</course>
<ele>92.0</ele>
</trkpt>
<trkpt lat="52.38404631614533" lon="13.395380973815529">
<time>2011-04-09T18:48:04.000+02:00</time>
<speed>0.0</speed>
<course>274.0</course>
<ele>92.0</ele>
</trkpt>
<trkpt lat="52.38404631614533" lon="13.395380973815529">
<time>2011-04-09T18:48:05.000+02:00</time>
<speed>0.0</speed>
<course>274.0</course>
<ele>92.0</ele>
</trkpt>
<trkpt lat="52.38404631614533" lon="13.395380973815529">
<time>2011-04-09T18:48:06.000+02:00</time>
<speed>0.0</speed>
<course>274.0</course>
<ele>92.0</ele>
</trkpt>
<trkpt lat="52.38404631614533" lon="13.395380973815529">
<time>2011-04-09T18:48:07.000+02:00</time>
<speed>0.0</speed>
<course>274.0</course>
<ele>92.0</ele>
</trkpt>
<trkpt lat="52.38405704498139" lon="13.395380973815529">
<time>2011-04-09T18:48:08.000+02:00</time>
<speed>0.0</speed>
<course>274.0</course>
<ele>92.0</ele>
</trkpt>
<trkpt lat="52.38405704498139" lon="13.395380973815529">
<time>2011-04-09T18:48:09.000+02:00</time>
<speed>0.0</speed>
<course>274.0</course>
<ele>92.0</ele>
</trkpt>
<trkpt lat="52.38405704498139" lon="13.395380973815529">
<time>2011-04-09T18:48:10.000+02:00</time>
<speed>0.0</speed>
<course>274.0</course>
<ele>92.0</ele>
</trkpt>
<trkpt lat="52.38405704498139" lon="13.395380973815529">
<time>2011-04-09T18:48:11.000+02:00</time>
<speed>0.0</speed>
<course>274.0</course>
<ele>92.0</ele>
</trkpt>
<trkpt lat="52.38405704498139" lon="13.395380973815529">
<time>2011-04-09T18:48:12.000+02:00</time>
<speed>0.0</speed>
<course>274.0</course>
<ele>92.0</ele>
</trkpt>
<trkpt lat="52.38405704498139" lon="13.395380973815529">
<time>2011-04-09T18:48:13.000+02:00</time>
<speed>0.0</speed>
<course>274.0</course>
<ele>92.0</ele>
</trkpt>
<trkpt lat="52.38405704498139" lon="13.395380973815529">
<time>2011-04-09T18:48:14.000+02:00</time>
<speed>0.0</speed>
<course>274.0</course>
<ele>92.0</ele>
</trkpt>
<trkpt lat="52.38405704498139" lon="13.395380973815529">
<time>2011-04-09T18:48:15.000+02:00</time>
<speed>0.0</speed>
<course>274.0</course>
<ele>92.0</ele>
</trkpt>
<trkpt lat="52.38405704498139" lon="13.395380973815529">
<time>2011-04-09T18:48:16.000+02:00</time>
<speed>0.0</speed>
<course>274.0</course>
<ele>92.0</ele>
</trkpt>
<trkpt lat="52.38405704498139" lon="13.395380973815529">
<time>2011-04-09T18:48:17.000+02:00</time>
<speed>0.0</speed>
<course>274.0</course>
<ele>92.0</ele>
</trkpt>
<trkpt lat="52.38405704498139" lon="13.395380973815529">
<time>2011-04-09T18:48:18.000+02:00</time>
<speed>0.0</speed>
<course>274.0</course>
<ele>92.0</ele>
</trkpt>
<trkpt lat="52.38405704498139" lon="13.395380973815529">
<time>2011-04-09T18:48:19.000+02:00</time>
<speed>0.0</speed>
<course>274.0</course>
<ele>93.0</ele>
</trkpt>
<trkpt lat="52.38405704498139" lon="13.39535951614341">
<time>2011-04-09T18:48:20.000+02:00</time>
<speed>0.0</speed>
<course>274.0</course>
<ele>93.0</ele>
</trkpt>
<trkpt lat="52.38405704498139" lon="13.39535951614341">
<time>2011-04-09T18:48:21.000+02:00</time>
<speed>0.0</speed>
<course>274.0</course>
<ele>93.0</ele>
</trkpt>
<trkpt lat="52.38405704498139" lon="13.39535951614341">
<time>2011-04-09T18:48:23.000+02:00</time>
<speed>0.0</speed>
<course>274.0</course>
<ele>93.0</ele>
</trkpt>
<trkpt lat="52.38405704498139" lon="13.39535951614341">
<time>2011-04-09T18:48:24.000+02:00</time>
<speed>0.0</speed>
<course>274.0</course>
<ele>93.0</ele>
</trkpt>
<trkpt lat="52.38405704498139" lon="13.39535951614341">
<time>2011-04-09T18:48:25.000+02:00</time>
<speed>0.0</speed>
<course>274.0</course>
<ele>93.0</ele>
</trkpt>
<trkpt lat="52.38405704498139" lon="13.39535951614341">
<time>2011-04-09T18:48:26.000+02:00</time>
<speed>0.0</speed>
<course>274.0</course>
<ele>93.0</ele>
</trkpt>
<trkpt lat="52.38405704498139" lon="13.39535951614341">
<time>2011-04-09T18:48:27.000+02:00</time>
<speed>0.0</speed>
<course>274.0</course>
<ele>93.0</ele>
</trkpt>
<trkpt lat="52.38405704498139" lon="13.39535951614341">
<time>2011-04-09T18:48:28.000+02:00</time>
<speed>0.0</speed>
<course>274.0</course>
<ele>93.0</ele>
</trkpt>
<trkpt lat="52.38405704498139" lon="13.39535951614341">
<time>2011-04-09T18:48:29.000+02:00</time>
<speed>0.0</speed>
<course>274.0</course>
<ele>93.0</ele>
</trkpt>
<trkpt lat="52.38405704498139" lon="13.395380973815529">
<time>2011-04-09T18:48:30.000+02:00</time>
<speed>0.0</speed>
<course>274.0</course>
<ele>93.0</ele>
</trkpt>
<trkpt lat="52.38405704498139" lon="13.395380973815529">
<time>2011-04-09T18:48:31.000+02:00</time>
<speed>0.0</speed>
<course>274.0</course>
<ele>93.0</ele>
</trkpt>
<trkpt lat="52.38405704498139" lon="13.395380973815529">
<time>2011-04-09T18:48:32.000+02:00</time>
<speed>0.0</speed>
<course>274.0</course>
<ele>93.0</ele>
</trkpt>
<trkpt lat="52.38405704498139" lon="13.395380973815529">
<time>2011-04-09T18:48:33.000+02:00</time>
<speed>0.0</speed>
<course>274.0</course>
<ele>93.0</ele>
</trkpt>
<trkpt lat="52.38405704498139" lon="13.395380973815529">
<time>2011-04-09T18:48:34.000+02:00</time>
<speed>0.0</speed>
<course>274.0</course>
<ele>93.0</ele>
</trkpt>
<trkpt lat="52.38405704498139" lon="13.395380973815529">
<time>2011-04-09T18:48:35.000+02:00</time>
<speed>0.0</speed>
<course>274.0</course>
<ele>93.0</ele>
</trkpt>
<trkpt lat="52.38405704498139" lon="13.395380973815529">
<time>2011-04-09T18:48:36.000+02:00</time>
<speed>0.0</speed>
<course>274.0</course>
<ele>93.0</ele>
</trkpt>
<trkpt lat="52.38405704498139" lon="13.395380973815529">
<time>2011-04-09T18:48:37.000+02:00</time>
<speed>0.0</speed>
<course>274.0</course>
<ele>93.0</ele>
</trkpt>
<trkpt lat="52.38405704498139" lon="13.395380973815529">
<time>2011-04-09T18:48:38.000+02:00</time>
<speed>0.0</speed>
<course>274.0</course>
<ele>93.0</ele>
</trkpt>
<trkpt lat="52.38405704498139" lon="13.395380973815529">
<time>2011-04-09T18:48:39.000+02:00</time>
<speed>0.0</speed>
<course>274.0</course>
<ele>93.0</ele>
</trkpt>
<trkpt lat="52.38405704498139" lon="13.395380973815529">
<time>2011-04-09T18:48:40.000+02:00</time>
<speed>0.0</speed>
<course>274.0</course>
<ele>93.0</ele>
</trkpt>
<trkpt lat="52.38405704498139" lon="13.395380973815529">
<time>2011-04-09T18:48:41.000+02:00</time>
<speed>0.0</speed>
<course>274.0</course>
<ele>93.0</ele>
</trkpt>
<trkpt lat="52.38405704498139" lon="13.395380973815529">
<time>2011-04-09T18:48:42.000+02:00</time>
<speed>0.0</speed>
<course>274.0</course>
<ele>93.0</ele>
</trkpt>
<trkpt lat="52.38405704498139" lon="13.395380973815529">
<time>2011-04-09T18:48:43.000+02:00</time>
<speed>0.0</speed>
<course>274.0</course>
<ele>93.0</ele>
</trkpt>
<trkpt lat="52.38405704498139" lon="13.395380973815529">
<time>2011-04-09T18:48:44.000+02:00</time>
<speed>0.0</speed>
<course>274.0</course>
<ele>93.0</ele>
</trkpt>
<trkpt lat="52.38405704498139" lon="13.395380973815529">
<time>2011-04-09T18:48:45.000+02:00</time>
<speed>0.0</speed>
<course>274.0</course>
<ele>93.0</ele>
</trkpt>
<trkpt lat="52.38405704498139" lon="13.395380973815529">
<time>2011-04-09T18:48:46.000+02:00</time>
<speed>0.0</speed>
<course>274.0</course>
<ele>93.0</ele>
</trkpt>
<trkpt lat="52.38405704498139" lon="13.395380973815529">
<time>2011-04-09T18:48:47.000+02:00</time>
<speed>0.0</speed>
<course>274.0</course>
<ele>93.0</ele>
</trkpt>
<trkpt lat="52.38405704498139" lon="13.395380973815529">
<time>2011-04-09T18:48:48.000+02:00</time>
<speed>0.0</speed>
<course>274.0</course>
<ele>93.0</ele>
</trkpt>
<trkpt lat="52.38405704498139" lon="13.395380973815529">
<time>2011-04-09T18:48:49.000+02:00</time>
<speed>0.0</speed>
<course>274.0</course>
<ele>93.0</ele>
</trkpt>
<trkpt lat="52.38405704498139" lon="13.395402431487648">
<time>2011-04-09T18:48:50.000+02:00</time>
<speed>0.0</speed>
<course>274.0</course>
<ele>93.0</ele>
</trkpt>
<trkpt lat="52.38405704498139" lon="13.395402431487648">
<time>2011-04-09T18:48:51.000+02:00</time>
<speed>0.0</speed>
<course>274.0</course>
<ele>93.0</ele>
</trkpt>
<trkpt lat="52.38405704498139" lon="13.395402431487648">
<time>2011-04-09T18:48:52.000+02:00</time>
<speed>0.0</speed>
<course>274.0</course>
<ele>93.0</ele>
</trkpt>
<trkpt lat="52.38405704498139" lon="13.395402431487648">
<time>2011-04-09T18:48:53.000+02:00</time>
<speed>0.0</speed>
<course>274.0</course>
<ele>93.0</ele>
</trkpt>
<trkpt lat="52.38404631614533" lon="13.395402431487648">
<time>2011-04-09T18:48:54.000+02:00</time>
<speed>0.0</speed>
<course>274.0</course>
<ele>93.0</ele>
</trkpt>
<trkpt lat="52.38404631614533" lon="13.395402431487648">
<time>2011-04-09T18:48:55.000+02:00</time>
<speed>0.0</speed>
<course>274.0</course>
<ele>93.0</ele>
</trkpt>
<trkpt lat="52.38404631614533" lon="13.395402431487648">
<time>2011-04-09T18:48:56.000+02:00</time>
<speed>0.0</speed>
<course>274.0</course>
<ele>93.0</ele>
</trkpt>
<trkpt lat="52.38404631614533" lon="13.395402431487648">
<time>2011-04-09T18:48:57.000+02:00</time>
<speed>0.0</speed>
<course>274.0</course>
<ele>93.0</ele>
</trkpt>
<trkpt lat="52.38404631614533" lon="13.395402431487648">
<time>2011-04-09T18:48:58.000+02:00</time>
<speed>0.0</speed>
<course>274.0</course>
<ele>93.0</ele>
</trkpt>
<trkpt lat="52.38404631614533" lon="13.395402431487648">
<time>2011-04-09T18:48:59.000+02:00</time>
<speed>0.0</speed>
<course>274.0</course>
<ele>93.0</ele>
</trkpt>
<trkpt lat="52.38404631614533" lon="13.395402431487648">
<time>2011-04-09T18:49:00.000+02:00</time>
<speed>0.0</speed>
<course>274.0</course>
<ele>93.0</ele>
</trkpt>
<trkpt lat="52.38405704498139" lon="13.395402431487648">
<time>2011-04-09T18:49:01.000+02:00</time>
<speed>0.0</speed>
<course>274.0</course>
<ele>93.0</ele>
</trkpt>
<trkpt lat="52.38405704498139" lon="13.395402431487648">
<time>2011-04-09T18:49:02.000+02:00</time>
<speed>0.0</speed>
<course>274.0</course>
<ele>93.0</ele>
</trkpt>
<trkpt lat="52.38405704498139" lon="13.395402431487648">
<time>2011-04-09T18:49:03.000+02:00</time>
<speed>0.0</speed>
<course>274.0</course>
<ele>93.0</ele>
</trkpt>
<trkpt lat="52.38405704498139" lon="13.395402431487648">
<time>2011-04-09T18:49:04.000+02:00</time>
<speed>0.0</speed>
<course>274.0</course>
<ele>93.0</ele>
</trkpt>
<trkpt lat="52.38405704498139" lon="13.395402431487648">
<time>2011-04-09T18:49:05.000+02:00</time>
<speed>0.0</speed>
<course>274.0</course>
<ele>93.0</ele>
</trkpt>
<trkpt lat="52.38405704498139" lon="13.395402431487648">
<time>2011-04-09T18:49:06.000+02:00</time>
<speed>0.0</speed>
<course>274.0</course>
<ele>93.0</ele>
</trkpt>
<trkpt lat="52.38405704498139" lon="13.395402431487648">
<time>2011-04-09T18:49:07.000+02:00</time>
<speed>0.0</speed>
<course>274.0</course>
<ele>93.0</ele>
</trkpt>
<trkpt lat="52.38405704498139" lon="13.395402431487648">
<time>2011-04-09T18:49:08.000+02:00</time>
<speed>0.0</speed>
<course>274.0</course>
<ele>93.0</ele>
</trkpt>
<trkpt lat="52.38405704498139" lon="13.395402431487648">
<time>2011-04-09T18:49:09.000+02:00</time>
<speed>0.0</speed>
<course>274.0</course>
<ele>93.0</ele>
</trkpt>
<trkpt lat="52.38405704498139" lon="13.395402431487648">
<time>2011-04-09T18:49:10.000+02:00</time>
<speed>0.0</speed>
<course>274.0</course>
<ele>93.0</ele>
</trkpt>
<trkpt lat="52.38406777381745" lon="13.395402431487648">
<time>2011-04-09T18:49:11.000+02:00</time>
<speed>0.0</speed>
<course>274.0</course>
<ele>93.0</ele>
</trkpt>
<trkpt lat="52.38406777381745" lon="13.395402431487648">
<time>2011-04-09T18:49:12.000+02:00</time>
<speed>0.0</speed>
<course>274.0</course>
<ele>93.0</ele>
</trkpt>
<trkpt lat="52.38406777381745" lon="13.395402431487648">
<time>2011-04-09T18:49:13.000+02:00</time>
<speed>0.0</speed>
<course>274.0</course>
<ele>93.0</ele>
</trkpt>
<trkpt lat="52.38406777381745" lon="13.395402431487648">
<time>2011-04-09T18:49:14.000+02:00</time>
<speed>0.0</speed>
<course>274.0</course>
<ele>93.0</ele>
</trkpt>
<trkpt lat="52.38407850265351" lon="13.395402431487648">
<time>2011-04-09T18:49:15.000+02:00</time>
<speed>0.0</speed>
<course>274.0</course>
<ele>93.0</ele>
</trkpt>
<trkpt lat="52.38407850265351" lon="13.395402431487648">
<time>2011-04-09T18:49:16.000+02:00</time>
<speed>0.0</speed>
<course>274.0</course>
<ele>93.0</ele>
</trkpt>
<trkpt lat="52.38407850265351" lon="13.395402431487648">
<time>2011-04-09T18:49:17.000+02:00</time>
<speed>0.0</speed>
<course>274.0</course>
<ele>93.0</ele>
</trkpt>
<trkpt lat="52.38408923148957" lon="13.395402431487648">
<time>2011-04-09T18:49:18.000+02:00</time>
<speed>0.0</speed>
<course>274.0</course>
<ele>93.0</ele>
</trkpt>
<trkpt lat="52.38408923148957" lon="13.395402431487648">
<time>2011-04-09T18:49:19.000+02:00</time>
<speed>0.0</speed>
<course>274.0</course>
<ele>93.0</ele>
</trkpt>
<trkpt lat="52.38408923148957" lon="13.395402431487648">
<time>2011-04-09T18:49:20.000+02:00</time>
<speed>0.0</speed>
<course>274.0</course>
<ele>93.0</ele>
</trkpt>
<trkpt lat="52.38409996032563" lon="13.395402431487648">
<time>2011-04-09T18:49:21.000+02:00</time>
<speed>0.0</speed>
<course>274.0</course>
<ele>94.0</ele>
</trkpt>
<trkpt lat="52.38409996032563" lon="13.395402431487648">
<time>2011-04-09T18:49:22.000+02:00</time>
<speed>0.0</speed>
<course>274.0</course>
<ele>94.0</ele>
</trkpt>
<trkpt lat="52.38409996032563" lon="13.395402431487648">
<time>2011-04-09T18:49:23.000+02:00</time>
<speed>0.0</speed>
<course>274.0</course>
<ele>94.0</ele>
</trkpt>
<trkpt lat="52.38409996032563" lon="13.395402431487648">
<time>2011-04-09T18:49:24.000+02:00</time>
<speed>0.0</speed>
<course>274.0</course>
<ele>94.0</ele>
</trkpt>
<trkpt lat="52.38409996032563" lon="13.395402431487648">
<time>2011-04-09T18:49:26.000+02:00</time>
<speed>0.0</speed>
<course>274.0</course>
<ele>94.0</ele>
</trkpt>
<trkpt lat="52.38409996032563" lon="13.395402431487648">
<time>2011-04-09T18:49:27.000+02:00</time>
<speed>0.0</speed>
<course>274.0</course>
<ele>94.0</ele>
</trkpt>
<trkpt lat="52.38409996032563" lon="13.395402431487648">
<time>2011-04-09T18:49:28.000+02:00</time>
<speed>0.0</speed>
<course>274.0</course>
<ele>94.0</ele>
</trkpt>
<trkpt lat="52.38409996032563" lon="13.395402431487648">
<time>2011-04-09T18:49:29.000+02:00</time>
<speed>0.0</speed>
<course>274.0</course>
<ele>94.0</ele>
</trkpt>
<trkpt lat="52.38409996032563" lon="13.395402431487648">
<time>2011-04-09T18:49:30.000+02:00</time>
<speed>0.0</speed>
<course>274.0</course>
<ele>94.0</ele>
</trkpt>
<trkpt lat="52.38409996032563" lon="13.395402431487648">
<time>2011-04-09T18:49:31.000+02:00</time>
<speed>0.0</speed>
<course>274.0</course>
<ele>94.0</ele>
</trkpt>
<trkpt lat="52.38409996032563" lon="13.395402431487648">
<time>2011-04-09T18:49:32.000+02:00</time>
<speed>0.0</speed>
<course>274.0</course>
<ele>94.0</ele>
</trkpt>
<trkpt lat="52.38409996032563" lon="13.395402431487648">
<time>2011-04-09T18:49:33.000+02:00</time>
<speed>0.0</speed>
<course>274.0</course>
<ele>94.0</ele>
</trkpt>
<trkpt lat="52.38409996032563" lon="13.395402431487648">
<time>2011-04-09T18:49:34.000+02:00</time>
<speed>0.0</speed>
<course>274.0</course>
<ele>94.0</ele>
</trkpt>
<trkpt lat="52.38409996032563" lon="13.395402431487648">
<time>2011-04-09T18:49:35.000+02:00</time>
<speed>0.0</speed>
<course>274.0</course>
<ele>94.0</ele>
</trkpt>
<trkpt lat="52.38409996032563" lon="13.395402431487648">
<time>2011-04-09T18:49:36.000+02:00</time>
<speed>0.0</speed>
<course>274.0</course>
<ele>94.0</ele>
</trkpt>
<trkpt lat="52.38409996032563" lon="13.395402431487648">
<time>2011-04-09T18:49:37.000+02:00</time>
<speed>0.0</speed>
<course>274.0</course>
<ele>94.0</ele>
</trkpt>
<trkpt lat="52.38409996032563" lon="13.395402431487648">
<time>2011-04-09T18:49:38.000+02:00</time>
<speed>0.0</speed>
<course>274.0</course>
<ele>94.0</ele>
</trkpt>
<trkpt lat="52.38409996032563" lon="13.395402431487648">
<time>2011-04-09T18:49:38.000+02:00</time>
<speed>0.0</speed>
<course>274.0</course>
<ele>94.0</ele>
</trkpt>
<trkpt lat="52.38409996032563" lon="13.395402431487648">
<time>2011-04-09T18:49:38.000+02:00</time>
<speed>0.0</speed>
<course>274.0</course>
<ele>94.0</ele>
</trkpt>
<trkpt lat="52.38409996032563" lon="13.395402431487648">
<time>2011-04-09T18:49:38.000+02:00</time>
<speed>0.0</speed>
<course>274.0</course>
<ele>94.0</ele>
</trkpt>
<trkpt lat="52.38409996032563" lon="13.395402431487648">
<time>2011-04-09T18:49:38.000+02:00</time>
<speed>0.0</speed>
<course>274.0</course>
<ele>94.0</ele>
</trkpt>
<trkpt lat="52.38409996032563" lon="13.395402431487648">
<time>2011-04-09T18:49:38.000+02:00</time>
<speed>0.0</speed>
<course>274.0</course>
<ele>94.0</ele>
</trkpt>
<trkpt lat="52.38409996032563" lon="13.395402431487648">
<time>2011-04-09T18:49:38.000+02:00</time>
<speed>0.0</speed>
<course>274.0</course>
<ele>94.0</ele>
</trkpt>
<trkpt lat="52.38409996032563" lon="13.395402431487648">
<time>2011-04-09T18:49:38.000+02:00</time>
<speed>0.0</speed>
<course>274.0</course>
<ele>94.0</ele>
</trkpt>
<trkpt lat="52.38409996032563" lon="13.395402431487648">
<time>2011-04-09T18:49:38.000+02:00</time>
<speed>0.0</speed>
<course>274.0</course>
<ele>94.0</ele>
</trkpt>
<trkpt lat="52.38409996032563" lon="13.395402431487648">
<time>2011-04-09T18:49:38.000+02:00</time>
<speed>0.0</speed>
<course>274.0</course>
<ele>94.0</ele>
</trkpt>
<trkpt lat="52.38409996032563" lon="13.395402431487648">
<time>2011-04-09T18:49:38.000+02:00</time>
<speed>0.0</speed>
<course>274.0</course>
<ele>94.0</ele>
</trkpt>
<trkpt lat="52.38409996032563" lon="13.395402431487648">
<time>2011-04-09T18:49:38.000+02:00</time>
<speed>0.0</speed>
<course>274.0</course>
<ele>94.0</ele>
</trkpt>
<trkpt lat="52.38409996032563" lon="13.395402431487648">
<time>2011-04-09T18:49:38.000+02:00</time>
<speed>0.0</speed>
<course>274.0</course>
<ele>94.0</ele>
</trkpt>
<trkpt lat="52.38409996032563" lon="13.395402431487648">
<time>2011-04-09T18:49:38.000+02:00</time>
<speed>0.0</speed>
<course>274.0</course>
<ele>94.0</ele>
</trkpt>
<trkpt lat="52.38409996032563" lon="13.395402431487648">
<time>2011-04-09T18:49:38.000+02:00</time>
<speed>0.0</speed>
<course>274.0</course>
<ele>94.0</ele>
</trkpt>
<trkpt lat="52.38409996032563" lon="13.395402431487648">
<time>2011-04-09T18:49:38.000+02:00</time>
<speed>0.0</speed>
<course>274.0</course>
<ele>94.0</ele>
</trkpt>
<trkpt lat="52.38409996032563" lon="13.395402431487648">
<time>2011-04-09T18:49:38.000+02:00</time>
<speed>0.0</speed>
<course>274.0</course>
<ele>94.0</ele>
</trkpt>
<trkpt lat="52.38409996032563" lon="13.395402431487648">
<time>2011-04-09T18:49:38.000+02:00</time>
<speed>0.0</speed>
<course>274.0</course>
<ele>94.0</ele>
</trkpt>
<trkpt lat="52.38409996032563" lon="13.395402431487648">
<time>2011-04-09T18:49:38.000+02:00</time>
<speed>0.0</speed>
<course>274.0</course>
<ele>94.0</ele>
</trkpt>
<trkpt lat="52.38409996032563" lon="13.395402431487648">
<time>2011-04-09T18:49:38.000+02:00</time>
<speed>0.0</speed>
<course>274.0</course>
<ele>94.0</ele>
</trkpt>
<trkpt lat="52.38409996032563" lon="13.395402431487648">
<time>2011-04-09T18:49:38.000+02:00</time>
<speed>0.0</speed>
<course>274.0</course>
<ele>94.0</ele>
</trkpt>
<trkpt lat="52.38409996032563" lon="13.395402431487648">
<time>2011-04-09T18:49:38.000+02:00</time>
<speed>0.0</speed>
<course>274.0</course>
<ele>94.0</ele>
</trkpt>
</trkseg>
</trk>
</gpx>